<?xml version='1.0' encoding='UTF-8'?><gpx version="1.1" creator="JPX - https://github.com/jenetics/jpx" xmlns="http://www.topografix.com/GPX/1/1"><trk><trkseg><trkpt lat="39.61193668324858" lon="8.787973578204792"><ele>85.0</ele><time>2026-05-04T09:12:53Z</time></trkpt><trkpt lat="39.61189259174848" lon="8.7878117796537"><ele>85.0</ele><time>2026-05-04T09:12:55Z</time></trkpt><trkpt lat="39.6118573808385" lon="8.787724556615249"><ele>85.0</ele><time>2026-05-04T09:12:56Z</time></trkpt><trkpt lat="39.61182816780882" lon="8.787638563244315"><ele>85.0</ele><time>2026-05-04T09:12:57Z</time></trkpt><trkpt lat="39.61180923944727" lon="8.7875337916027"><ele>85.0</ele><time>2026-05-04T09:12:58Z</time></trkpt><trkpt lat="39.61181424428118" lon="8.787431377040981"><ele>85.0</ele><time>2026-05-04T09:12:59Z</time></trkpt><trkpt lat="39.6117763970915" lon="8.787308736024386"><ele>85.6</ele><time>2026-05-04T09:13:01Z</time></trkpt><trkpt lat="39.611964515011394" lon="8.787235657708406"><ele>86.2</ele><time>2026-05-04T09:13:02Z</time></trkpt><trkpt lat="39.61203112721482" lon="8.787182222192662"><ele>86.80000000000001</ele><time>2026-05-04T09:13:03Z</time></trkpt><trkpt lat="39.612102219536844" lon="8.787130921924295"><ele>87.4</ele><time>2026-05-04T09:13:04Z</time></trkpt><trkpt lat="39.61216969319653" lon="8.78706278893966"><ele>88.0</ele><time>2026-05-04T09:13:05Z</time></trkpt><trkpt lat="39.61224101599422" lon="8.787031314816206"><ele>88.0</ele><time>2026-05-04T09:13:06Z</time></trkpt><trkpt lat="39.61232156854664" lon="8.786997332422136"><ele>88.0</ele><time>2026-05-04T09:13:08Z</time></trkpt><trkpt lat="39.61240910773717" lon="8.787152141685347"><ele>88.0</ele><time>2026-05-04T09:13:10Z</time></trkpt><trkpt lat="39.61245423400917" lon="8.787258953394897"><ele>88.0</ele><time>2026-05-04T09:13:11Z</time></trkpt><trkpt lat="39.61250035075201" lon="8.78740209270493"><ele>88.0</ele><time>2026-05-04T09:13:12Z</time></trkpt><trkpt lat="39.61256328733404" lon="8.787545817596648"><ele>88.5</ele><time>2026-05-04T09:13:13Z</time></trkpt><trkpt lat="39.612627004177895" lon="8.78769322506393"><ele>89.0</ele><time>2026-05-04T09:13:14Z</time></trkpt><trkpt lat="39.612679885966976" lon="8.787821049894712"><ele>89.5</ele><time>2026-05-04T09:13:15Z</time></trkpt><trkpt lat="39.612734505737876" lon="8.78794209565085"><ele>90.0</ele><time>2026-05-04T09:13:16Z</time></trkpt><trkpt lat="39.61278800101166" lon="8.788069465952974"><ele>90.0</ele><time>2026-05-04T09:13:17Z</time></trkpt><trkpt lat="39.61282080168494" lon="8.788210713656701"><ele>90.0</ele><time>2026-05-04T09:13:18Z</time></trkpt><trkpt lat="39.612870140160375" lon="8.788346286799234"><ele>90.0</ele><time>2026-05-04T09:13:19Z</time></trkpt><trkpt lat="39.61291146823241" lon="8.788510450332321"><ele>90.0</ele><time>2026-05-04T09:13:20Z</time></trkpt><trkpt lat="39.612947751064546" lon="8.78868970964212"><ele>93.0</ele><time>2026-05-04T09:13:21Z</time></trkpt><trkpt lat="39.61296966955496" lon="8.788889154762643"><ele>96.0</ele><time>2026-05-04T09:13:22Z</time></trkpt><trkpt lat="39.61300986356221" lon="8.789093001453734"><ele>99.0</ele><time>2026-05-04T09:13:23Z</time></trkpt><trkpt lat="39.613030489020005" lon="8.78930170940382"><ele>98.66666666666666</ele><time>2026-05-04T09:13:24Z</time></trkpt><trkpt lat="39.613055506016735" lon="8.789533497759265"><ele>98.33333333333333</ele><time>2026-05-04T09:13:25Z</time></trkpt><trkpt lat="39.61308059025845" lon="8.789779760399517"><ele>98.0</ele><time>2026-05-04T09:13:26Z</time></trkpt><trkpt lat="39.61310504570772" lon="8.790035187480228"><ele>98.0</ele><time>2026-05-04T09:13:27Z</time></trkpt><trkpt lat="39.613129346411036" lon="8.790291972447575"><ele>98.0</ele><time>2026-05-04T09:13:28Z</time></trkpt><trkpt lat="39.61315507205247" lon="8.790547304044448"><ele>98.0</ele><time>2026-05-04T09:13:29Z</time></trkpt><trkpt lat="39.61318423729383" lon="8.790806717391217"><ele>97.33333333333333</ele><time>2026-05-04T09:13:30Z</time></trkpt><trkpt lat="39.61320908895959" lon="8.791070272375427"><ele>96.66666666666666</ele><time>2026-05-04T09:13:31Z</time></trkpt><trkpt lat="39.61323967200924" lon="8.791324050403855"><ele>96.0</ele><time>2026-05-04T09:13:32Z</time></trkpt><trkpt lat="39.61327121105385" lon="8.791586855167276"><ele>95.66666666666667</ele><time>2026-05-04T09:13:33Z</time></trkpt><trkpt lat="39.613306676019796" lon="8.791848541291314"><ele>95.33333333333334</ele><time>2026-05-04T09:13:34Z</time></trkpt><trkpt lat="39.613349865044015" lon="8.792110731021587"><ele>95.0</ele><time>2026-05-04T09:13:35Z</time></trkpt><trkpt lat="39.61337633271945" lon="8.7923809867479"><ele>95.0</ele><time>2026-05-04T09:13:36Z</time></trkpt><trkpt lat="39.61342121815112" lon="8.792648545030564"><ele>95.0</ele><time>2026-05-04T09:13:37Z</time></trkpt><trkpt lat="39.61347242759756" lon="8.792919871404415"><ele>95.0</ele><time>2026-05-04T09:13:38Z</time></trkpt><trkpt lat="39.6135391869325" lon="8.793182381102556"><ele>95.33333333333334</ele><time>2026-05-04T09:13:39Z</time></trkpt><trkpt lat="39.61362314915977" lon="8.793433303599572"><ele>95.66666666666667</ele><time>2026-05-04T09:13:40Z</time></trkpt><trkpt lat="39.613739917316636" lon="8.793656049819118"><ele>96.0</ele><time>2026-05-04T09:13:41Z</time></trkpt><trkpt lat="39.61384987490842" lon="8.793879290792166"><ele>95.0</ele><time>2026-05-04T09:13:42Z</time></trkpt><trkpt lat="39.61394321613483" lon="8.794115408917412"><ele>94.0</ele><time>2026-05-04T09:13:43Z</time></trkpt><trkpt lat="39.614067686730195" lon="8.79433554341404"><ele>93.0</ele><time>2026-05-04T09:13:44Z</time></trkpt><trkpt lat="39.61417582846839" lon="8.794562826148463"><ele>93.0</ele><time>2026-05-04T09:13:45Z</time></trkpt><trkpt lat="39.61428685870014" lon="8.794785725700125"><ele>93.0</ele><time>2026-05-04T09:13:46Z</time></trkpt><trkpt lat="39.61439611226954" lon="8.795009011459422"><ele>93.0</ele><time>2026-05-04T09:13:47Z</time></trkpt><trkpt lat="39.614492061714934" lon="8.795242703170826"><ele>92.66666666666667</ele><time>2026-05-04T09:13:48Z</time></trkpt><trkpt lat="39.6145966752657" lon="8.795467611395551"><ele>92.33333333333334</ele><time>2026-05-04T09:13:49Z</time></trkpt><trkpt lat="39.61470396398049" lon="8.795700483264266"><ele>92.0</ele><time>2026-05-04T09:13:50Z</time></trkpt><trkpt lat="39.61480797035973" lon="8.795933840841355"><ele>126.0</ele><time>2026-05-04T09:13:51Z</time></trkpt><trkpt lat="39.61717000622443" lon="8.807436174012047"><ele>126.0</ele><time>2026-05-04T09:14:52Z</time></trkpt><trkpt lat="39.61724181057252" lon="8.807615307638681"><ele>126.0</ele><time>2026-05-04T09:14:53Z</time></trkpt><trkpt lat="39.61732537402662" lon="8.807764092301692"><ele>126.0</ele><time>2026-05-04T09:14:54Z</time></trkpt><trkpt lat="39.6174054566025" lon="8.807882321535358"><ele>126.0</ele><time>2026-05-04T09:14:55Z</time></trkpt><trkpt lat="39.61745868621733" lon="8.807982791002567"><ele>126.5</ele><time>2026-05-04T09:14:56Z</time></trkpt><trkpt lat="39.61751546439313" lon="8.808069844386786"><ele>127.0</ele><time>2026-05-04T09:14:58Z</time></trkpt><trkpt lat="39.617631282857424" lon="8.8079268278536"><ele>127.5</ele><time>2026-05-04T09:14:59Z</time></trkpt><trkpt lat="39.617668545239596" lon="8.807820311722478"><ele>128.0</ele><time>2026-05-04T09:15:00Z</time></trkpt><trkpt lat="39.61767232534762" lon="8.8076623167984"><ele>127.33333333333333</ele><time>2026-05-04T09:15:01Z</time></trkpt><trkpt lat="39.61770425546587" lon="8.807471443874869"><ele>126.66666666666666</ele><time>2026-05-04T09:15:02Z</time></trkpt><trkpt lat="39.61772663939051" lon="8.807249540612343"><ele>126.0</ele><time>2026-05-04T09:15:03Z</time></trkpt><trkpt lat="39.617787052223186" lon="8.807026709748824"><ele>124.66666666666666</ele><time>2026-05-04T09:15:04Z</time></trkpt><trkpt lat="39.61786553646385" lon="8.806792640260834"><ele>123.33333333333333</ele><time>2026-05-04T09:15:05Z</time></trkpt><trkpt lat="39.61793919604388" lon="8.806541757000335"><ele>122.0</ele><time>2026-05-04T09:15:06Z</time></trkpt><trkpt lat="39.617995953739026" lon="8.806288934934827"><ele>122.0</ele><time>2026-05-04T09:15:07Z</time></trkpt><trkpt lat="39.61802850404025" lon="8.80603042305771"><ele>122.0</ele><time>2026-05-04T09:15:08Z</time></trkpt><trkpt lat="39.618042621427406" lon="8.80576807758845"><ele>122.0</ele><time>2026-05-04T09:15:09Z</time></trkpt><trkpt lat="39.618052888445376" lon="8.805502006880397"><ele>121.0</ele><time>2026-05-04T09:15:10Z</time></trkpt><trkpt lat="39.61806706239005" lon="8.805234358912406"><ele>120.0</ele><time>2026-05-04T09:15:11Z</time></trkpt><trkpt lat="39.61808747016188" lon="8.804959979479518"><ele>119.0</ele><time>2026-05-04T09:15:12Z</time></trkpt><trkpt lat="39.61812278269293" lon="8.804686291865401"><ele>117.66666666666666</ele><time>2026-05-04T09:15:13Z</time></trkpt><trkpt lat="39.618168352098785" lon="8.80441585288776"><ele>116.33333333333334</ele><time>2026-05-04T09:15:14Z</time></trkpt><trkpt lat="39.618195586593174" lon="8.804147868450086"><ele>115.0</ele><time>2026-05-04T09:15:15Z</time></trkpt><trkpt lat="39.61818321314258" lon="8.80388647174682"><ele>114.66666666666667</ele><time>2026-05-04T09:15:16Z</time></trkpt><trkpt lat="39.61820776004351" lon="8.80364294493717"><ele>114.33333333333334</ele><time>2026-05-04T09:15:17Z</time></trkpt><trkpt lat="39.61823970055687" lon="8.80341065668175"><ele>114.0</ele><time>2026-05-04T09:15:18Z</time></trkpt><trkpt lat="39.618306559169184" lon="8.803207292989391"><ele>113.66666666666666</ele><time>2026-05-04T09:15:19Z</time></trkpt><trkpt lat="39.61840144199746" lon="8.803020644410243"><ele>113.33333333333333</ele><time>2026-05-04T09:15:20Z</time></trkpt><trkpt lat="39.618527834020874" lon="8.802840698388831"><ele>113.0</ele><time>2026-05-04T09:15:21Z</time></trkpt><trkpt lat="39.61868208830094" lon="8.802682063250593"><ele>112.66666666666666</ele><time>2026-05-04T09:15:22Z</time></trkpt><trkpt lat="39.61886386951646" lon="8.80255083566347"><ele>112.33333333333334</ele><time>2026-05-04T09:15:23Z</time></trkpt><trkpt lat="39.619066057755845" lon="8.802447135975832"><ele>112.0</ele><time>2026-05-04T09:15:24Z</time></trkpt><trkpt lat="39.619277203337994" lon="8.802342989068286"><ele>113.0</ele><time>2026-05-04T09:15:25Z</time></trkpt><trkpt lat="39.61949388296072" lon="8.802221716247447"><ele>114.0</ele><time>2026-05-04T09:15:26Z</time></trkpt><trkpt lat="39.619711248944995" lon="8.802084214840878"><ele>114.0</ele><time>2026-05-04T09:15:27Z</time></trkpt><trkpt lat="39.61993009598067" lon="8.801941294327044"><ele>114.0</ele><time>2026-05-04T09:15:28Z</time></trkpt><trkpt lat="39.62015149521857" lon="8.801794807023544"><ele>114.0</ele><time>2026-05-04T09:15:29Z</time></trkpt><trkpt lat="39.62037007077837" lon="8.801644794474504"><ele>114.0</ele><time>2026-05-04T09:15:30Z</time></trkpt><trkpt lat="39.62058388797894" lon="8.801490923772926"><ele>114.0</ele><time>2026-05-04T09:15:31Z</time></trkpt><trkpt lat="39.62079578306363" lon="8.801333459111968"><ele>114.0</ele><time>2026-05-04T09:15:32Z</time></trkpt><trkpt lat="39.621009920207875" lon="8.801172304437367"><ele>112.5</ele><time>2026-05-04T09:15:33Z</time></trkpt><trkpt lat="39.621223279738096" lon="8.80099877382695"><ele>111.0</ele><time>2026-05-04T09:15:34Z</time></trkpt><trkpt lat="39.62143633460213" lon="8.800814729687177"><ele>111.0</ele><time>2026-05-04T09:15:35Z</time></trkpt><trkpt lat="39.62165328978678" lon="8.800619725374737"><ele>111.0</ele><time>2026-05-04T09:15:36Z</time></trkpt><trkpt lat="39.621873892063846" lon="8.800414092268344"><ele>111.0</ele><time>2026-05-04T09:15:37Z</time></trkpt><trkpt lat="39.622096567310905" lon="8.8001977096111"><ele>111.0</ele><time>2026-05-04T09:15:38Z</time></trkpt><trkpt lat="39.62231748865317" lon="8.799974702878504"><ele>111.0</ele><time>2026-05-04T09:15:39Z</time></trkpt><trkpt lat="39.62253875589755" lon="8.799739007151157"><ele>111.0</ele><time>2026-05-04T09:15:40Z</time></trkpt><trkpt lat="39.62276095599407" lon="8.799491106191295"><ele>110.5</ele><time>2026-05-04T09:15:41Z</time></trkpt><trkpt lat="39.622982629953235" lon="8.799230629916437"><ele>110.0</ele><time>2026-05-04T09:15:42Z</time></trkpt><trkpt lat="39.62319940913151" lon="8.798960406033677"><ele>110.0</ele><time>2026-05-04T09:15:43Z</time></trkpt><trkpt lat="39.62341364362777" lon="8.798684035929986"><ele>110.0</ele><time>2026-05-04T09:15:44Z</time></trkpt><trkpt lat="39.62362704758891" lon="8.798396164077534"><ele>109.0</ele><time>2026-05-04T09:15:45Z</time></trkpt><trkpt lat="39.62383618590657" lon="8.798098210852752"><ele>108.0</ele><time>2026-05-04T09:15:46Z</time></trkpt><trkpt lat="39.624042746136226" lon="8.797792411219714"><ele>106.0</ele><time>2026-05-04T09:15:47Z</time></trkpt><trkpt lat="39.624241794680174" lon="8.797478287894657"><ele>104.0</ele><time>2026-05-04T09:15:48Z</time></trkpt><trkpt lat="39.62443151003133" lon="8.797158733356712"><ele>104.0</ele><time>2026-05-04T09:15:49Z</time></trkpt><trkpt lat="39.62461889745054" lon="8.796830741665774"><ele>104.0</ele><time>2026-05-04T09:15:50Z</time></trkpt><trkpt lat="39.62480368248269" lon="8.796497696125387"><ele>113.0</ele><time>2026-05-04T09:15:51Z</time></trkpt><trkpt lat="39.63798405356905" lon="8.775371612592567"><ele>112.0</ele><time>2026-05-04T09:16:52Z</time></trkpt><trkpt lat="39.63820091936636" lon="8.774990575624999"><ele>111.0</ele><time>2026-05-04T09:16:53Z</time></trkpt><trkpt lat="39.638417917408454" lon="8.774610106555045"><ele>109.5</ele><time>2026-05-04T09:16:54Z</time></trkpt><trkpt lat="39.63863649448658" lon="8.774228796362314"><ele>108.0</ele><time>2026-05-04T09:16:55Z</time></trkpt><trkpt lat="39.63885418082835" lon="8.773855466485324"><ele>107.5</ele><time>2026-05-04T09:16:56Z</time></trkpt><trkpt lat="39.639072162481774" lon="8.773475882458733"><ele>107.0</ele><time>2026-05-04T09:16:57Z</time></trkpt><trkpt lat="39.63928699165628" lon="8.773101218425156"><ele>107.0</ele><time>2026-05-04T09:16:58Z</time></trkpt><trkpt lat="39.63950265909896" lon="8.77272664237425"><ele>107.0</ele><time>2026-05-04T09:16:59Z</time></trkpt><trkpt lat="39.63971645118056" lon="8.772350746094139"><ele>107.5</ele><time>2026-05-04T09:17:00Z</time></trkpt><trkpt lat="39.63993114133245" lon="8.771978771771947"><ele>108.0</ele><time>2026-05-04T09:17:01Z</time></trkpt><trkpt lat="39.64014490115082" lon="8.771603053742885"><ele>107.5</ele><time>2026-05-04T09:17:02Z</time></trkpt><trkpt lat="39.64036008108703" lon="8.771226850569573"><ele>107.0</ele><time>2026-05-04T09:17:03Z</time></trkpt><trkpt lat="39.64057356916728" lon="8.770848683084695"><ele>108.5</ele><time>2026-05-04T09:17:04Z</time></trkpt><trkpt lat="39.64078319927474" lon="8.770470389078328"><ele>110.0</ele><time>2026-05-04T09:17:05Z</time></trkpt><trkpt lat="39.64099571881839" lon="8.770092911606522"><ele>111.5</ele><time>2026-05-04T09:17:06Z</time></trkpt><trkpt lat="39.64121217906221" lon="8.76971964824648"><ele>113.0</ele><time>2026-05-04T09:17:07Z</time></trkpt><trkpt lat="39.64142991184793" lon="8.769344563086168"><ele>113.0</ele><time>2026-05-04T09:17:08Z</time></trkpt><trkpt lat="39.641648076859255" lon="8.768969323252266"><ele>113.0</ele><time>2026-05-04T09:17:09Z</time></trkpt><trkpt lat="39.64187484035649" lon="8.768601063438503"><ele>115.0</ele><time>2026-05-04T09:17:10Z</time></trkpt><trkpt lat="39.64211110197559" lon="8.768239522968386"><ele>117.0</ele><time>2026-05-04T09:17:11.001Z</time></trkpt><trkpt lat="39.64235233704887" lon="8.767888484123974"><ele>117.0</ele><time>2026-05-04T09:17:12.001Z</time></trkpt><trkpt lat="39.64259995479296" lon="8.767544730867273"><ele>117.0</ele><time>2026-05-04T09:17:13.001Z</time></trkpt><trkpt lat="39.64285467018878" lon="8.767210707523537"><ele>117.5</ele><time>2026-05-04T09:17:14.001Z</time></trkpt><trkpt lat="39.64311318132464" lon="8.766882661962939"><ele>118.0</ele><time>2026-05-04T09:17:15.001Z</time></trkpt><trkpt lat="39.64336788600664" lon="8.766545748316654"><ele>118.0</ele><time>2026-05-04T09:17:16.001Z</time></trkpt><trkpt lat="39.64361766408219" lon="8.766202214859584"><ele>118.0</ele><time>2026-05-04T09:17:17.001Z</time></trkpt><trkpt lat="39.643864831461975" lon="8.76585812147633"><ele>118.0</ele><time>2026-05-04T09:17:18.001Z</time></trkpt><trkpt lat="39.644112938441296" lon="8.765512251530078"><ele>118.0</ele><time>2026-05-04T09:17:19.001Z</time></trkpt><trkpt lat="39.64436101400894" lon="8.765167116540123"><ele>119.5</ele><time>2026-05-04T09:17:20.001Z</time></trkpt><trkpt lat="39.644611425607515" lon="8.764822554792842"><ele>121.0</ele><time>2026-05-04T09:17:21.001Z</time></trkpt><trkpt lat="39.64487159329875" lon="8.764470828336641"><ele>120.5</ele><time>2026-05-04T09:17:22.001Z</time></trkpt><trkpt lat="39.645134172885456" lon="8.764115240770623"><ele>120.0</ele><time>2026-05-04T09:17:23.001Z</time></trkpt><trkpt lat="39.645396557617254" lon="8.76375505433327"><ele>120.5</ele><time>2026-05-04T09:17:24.001Z</time></trkpt><trkpt lat="39.645657599623995" lon="8.763392217103522"><ele>121.0</ele><time>2026-05-04T09:17:25.001Z</time></trkpt><trkpt lat="39.64591713859778" lon="8.763030200501209"><ele>120.0</ele><time>2026-05-04T09:17:26.001Z</time></trkpt><trkpt lat="39.64617771767029" lon="8.762671236195214"><ele>119.0</ele><time>2026-05-04T09:17:27.001Z</time></trkpt><trkpt lat="39.646439129699495" lon="8.762317640458079"><ele>119.0</ele><time>2026-05-04T09:17:28.001Z</time></trkpt><trkpt lat="39.646699862541475" lon="8.761964127190884"><ele>119.0</ele><time>2026-05-04T09:17:29.001Z</time></trkpt><trkpt lat="39.64696162712571" lon="8.761609341874284"><ele>119.0</ele><time>2026-05-04T09:17:30.001Z</time></trkpt><trkpt lat="39.647220710791494" lon="8.761259631080561"><ele>119.0</ele><time>2026-05-04T09:17:31.001Z</time></trkpt><trkpt lat="39.647480951760556" lon="8.76090645032137"><ele>119.5</ele><time>2026-05-04T09:17:32.001Z</time></trkpt><trkpt lat="39.647740234355446" lon="8.760551442601649"><ele>120.0</ele><time>2026-05-04T09:17:33.001Z</time></trkpt><trkpt lat="39.648005629254804" lon="8.76019047364107"><ele>120.0</ele><time>2026-05-04T09:17:34.001Z</time></trkpt><trkpt lat="39.64825957035608" lon="8.759842409478432"><ele>120.0</ele><time>2026-05-04T09:17:35.001Z</time></trkpt><trkpt lat="39.64852100144719" lon="8.759494984776312"><ele>119.0</ele><time>2026-05-04T09:17:36.001Z</time></trkpt><trkpt lat="39.648783504706635" lon="8.759150226027868"><ele>118.0</ele><time>2026-05-04T09:17:37.001Z</time></trkpt><trkpt lat="39.64904613967282" lon="8.758806408442155"><ele>118.0</ele><time>2026-05-04T09:17:38.001Z</time></trkpt><trkpt lat="39.6493082487991" lon="8.75846044714847"><ele>118.0</ele><time>2026-05-04T09:17:39.001Z</time></trkpt><trkpt lat="39.64957239111871" lon="8.758114783888459"><ele>118.0</ele><time>2026-05-04T09:17:40.001Z</time></trkpt><trkpt lat="39.649843142934" lon="8.757776477284818"><ele>118.0</ele><time>2026-05-04T09:17:41.001Z</time></trkpt><trkpt lat="39.65011546276161" lon="8.757436302696103"><ele>116.5</ele><time>2026-05-04T09:17:42.001Z</time></trkpt><trkpt lat="39.65038380313104" lon="8.757096929854251"><ele>115.0</ele><time>2026-05-04T09:17:43.001Z</time></trkpt><trkpt lat="39.650650265971734" lon="8.756754208681919"><ele>113.5</ele><time>2026-05-04T09:17:44.001Z</time></trkpt><trkpt lat="39.65091407297723" lon="8.756407804173513"><ele>112.0</ele><time>2026-05-04T09:17:45.001Z</time></trkpt><trkpt lat="39.65117845324843" lon="8.75606198044111"><ele>108.5</ele><time>2026-05-04T09:17:46.001Z</time></trkpt><trkpt lat="39.65144191261278" lon="8.755719050477147"><ele>105.0</ele><time>2026-05-04T09:17:47.001Z</time></trkpt><trkpt lat="39.6517032478598" lon="8.755372110173663"><ele>101.5</ele><time>2026-05-04T09:17:48.001Z</time></trkpt><trkpt lat="39.65196356653033" lon="8.755024496268218"><ele>98.0</ele><time>2026-05-04T09:17:49.001Z</time></trkpt><trkpt lat="39.65222383497717" lon="8.75467027876057"><ele>96.0</ele><time>2026-05-04T09:17:50.001Z</time></trkpt><trkpt lat="39.65247803061784" lon="8.754314152899601"><ele>94.0</ele><time>2026-05-04T09:17:51.001Z</time></trkpt><trkpt lat="39.66645202050931" lon="8.732788261841316"><ele>65.0</ele><time>2026-05-04T09:18:52Z</time></trkpt><trkpt lat="39.666711866293745" lon="8.73253477767039"><ele>36.0</ele><time>2026-05-04T09:18:53Z</time></trkpt><trkpt lat="39.66697179454126" lon="8.73228000026602"><ele>36.0</ele><time>2026-05-04T09:18:54Z</time></trkpt><trkpt lat="39.66724194679519" lon="8.732014095907003"><ele>36.0</ele><time>2026-05-04T09:18:55Z</time></trkpt><trkpt lat="39.66752262915943" lon="8.731757709577485"><ele>37.0</ele><time>2026-05-04T09:18:56Z</time></trkpt><trkpt lat="39.66780935240891" lon="8.731495651310308"><ele>38.0</ele><time>2026-05-04T09:18:57Z</time></trkpt><trkpt lat="39.66809849538605" lon="8.73122906966374"><ele>37.0</ele><time>2026-05-04T09:18:58Z</time></trkpt><trkpt lat="39.66838336670894" lon="8.730958286186922"><ele>36.0</ele><time>2026-05-04T09:18:59Z</time></trkpt><trkpt lat="39.66866772804379" lon="8.730688427644923"><ele>37.0</ele><time>2026-05-04T09:19:00Z</time></trkpt><trkpt lat="39.66894540337329" lon="8.730422378790976"><ele>38.0</ele><time>2026-05-04T09:19:01Z</time></trkpt><trkpt lat="39.66920839374005" lon="8.73017244761924"><ele>39.5</ele><time>2026-05-04T09:19:02Z</time></trkpt><trkpt lat="39.66947178861869" lon="8.729922365310616"><ele>41.0</ele><time>2026-05-04T09:19:03Z</time></trkpt><trkpt lat="39.66974306115833" lon="8.729669729320296"><ele>41.0</ele><time>2026-05-04T09:19:04Z</time></trkpt><trkpt lat="39.67002038396552" lon="8.729414402296541"><ele>41.0</ele><time>2026-05-04T09:19:05Z</time></trkpt><trkpt lat="39.670300947079696" lon="8.729150685063612"><ele>40.5</ele><time>2026-05-04T09:19:06Z</time></trkpt><trkpt lat="39.67058131033575" lon="8.728883088115102"><ele>40.0</ele><time>2026-05-04T09:19:07Z</time></trkpt><trkpt lat="39.67086401851632" lon="8.728614844607659"><ele>38.5</ele><time>2026-05-04T09:19:08Z</time></trkpt><trkpt lat="39.67114828463458" lon="8.72834629550865"><ele>37.0</ele><time>2026-05-04T09:19:09Z</time></trkpt><trkpt lat="39.67143093445923" lon="8.728080283249593"><ele>37.0</ele><time>2026-05-04T09:19:10Z</time></trkpt><trkpt lat="39.6717119672246" lon="8.727815119406628"><ele>37.0</ele><time>2026-05-04T09:19:11Z</time></trkpt><trkpt lat="39.67198752494221" lon="8.727558120140458"><ele>36.5</ele><time>2026-05-04T09:19:12Z</time></trkpt><trkpt lat="39.67225549984441" lon="8.727305878032153"><ele>36.0</ele><time>2026-05-04T09:19:13Z</time></trkpt><trkpt lat="39.67252235696773" lon="8.727051727426847"><ele>35.0</ele><time>2026-05-04T09:19:14Z</time></trkpt><trkpt lat="39.67278817390067" lon="8.72679962979459"><ele>34.0</ele><time>2026-05-04T09:19:15Z</time></trkpt><trkpt lat="39.67305149382854" lon="8.726542608167671"><ele>34.0</ele><time>2026-05-04T09:19:16Z</time></trkpt><trkpt lat="39.673317556288474" lon="8.726285745450609"><ele>34.0</ele><time>2026-05-04T09:19:17Z</time></trkpt><trkpt lat="39.67358272806808" lon="8.726027187244021"><ele>34.5</ele><time>2026-05-04T09:19:18Z</time></trkpt><trkpt lat="39.67384823642428" lon="8.725773332497297"><ele>35.0</ele><time>2026-05-04T09:19:19Z</time></trkpt><trkpt lat="39.674117058189836" lon="8.725517795588425"><ele>35.0</ele><time>2026-05-04T09:19:20Z</time></trkpt><trkpt lat="39.67438433148379" lon="8.72526806305494"><ele>35.0</ele><time>2026-05-04T09:19:21Z</time></trkpt><trkpt lat="39.674648239001215" lon="8.725020301368641"><ele>34.5</ele><time>2026-05-04T09:19:22Z</time></trkpt><trkpt lat="39.67491807509641" lon="8.724762098434322"><ele>34.0</ele><time>2026-05-04T09:19:23Z</time></trkpt><trkpt lat="39.67518864552817" lon="8.724508407247598"><ele>35.0</ele><time>2026-05-04T09:19:24Z</time></trkpt><trkpt lat="39.6754631630419" lon="8.724249853102787"><ele>36.0</ele><time>2026-05-04T09:19:25Z</time></trkpt><trkpt lat="39.67573342417852" lon="8.72399016451401"><ele>36.0</ele><time>2026-05-04T09:19:26Z</time></trkpt><trkpt lat="39.67601175407692" lon="8.72373109598947"><ele>36.0</ele><time>2026-05-04T09:19:27Z</time></trkpt><trkpt lat="39.676287139806284" lon="8.723474070235635"><ele>36.5</ele><time>2026-05-04T09:19:28Z</time></trkpt><trkpt lat="39.67656162750515" lon="8.72321158180553"><ele>37.0</ele><time>2026-05-04T09:19:29Z</time></trkpt><trkpt lat="39.6768402533629" lon="8.722941401908523"><ele>37.0</ele><time>2026-05-04T09:19:30Z</time></trkpt><trkpt lat="39.677111488466565" lon="8.722673717600543"><ele>37.0</ele><time>2026-05-04T09:19:31Z</time></trkpt><trkpt lat="39.677385334167994" lon="8.722397825186018"><ele>37.0</ele><time>2026-05-04T09:19:32Z</time></trkpt><trkpt lat="39.6776660878224" lon="8.722117738252102"><ele>37.0</ele><time>2026-05-04T09:19:33Z</time></trkpt><trkpt lat="39.677951493757774" lon="8.72184199481702"><ele>35.5</ele><time>2026-05-04T09:19:34Z</time></trkpt><trkpt lat="39.67824399757578" lon="8.721576062835195"><ele>34.0</ele><time>2026-05-04T09:19:35Z</time></trkpt><trkpt lat="39.678555634763235" lon="8.721299358529379"><ele>34.5</ele><time>2026-05-04T09:19:36Z</time></trkpt><trkpt lat="39.678835153011406" lon="8.72101944113222"><ele>35.0</ele><time>2026-05-04T09:19:37Z</time></trkpt><trkpt lat="39.679118245756456" lon="8.72074573652397"><ele>35.0</ele><time>2026-05-04T09:19:38Z</time></trkpt><trkpt lat="39.67940845311858" lon="8.720472823559792"><ele>35.0</ele><time>2026-05-04T09:19:39Z</time></trkpt><trkpt lat="39.67970083098708" lon="8.720200531878772"><ele>35.0</ele><time>2026-05-04T09:19:40Z</time></trkpt><trkpt lat="39.67999081132796" lon="8.719933369802991"><ele>35.0</ele><time>2026-05-04T09:19:41Z</time></trkpt><trkpt lat="39.68028506842681" lon="8.719660589493069"><ele>35.0</ele><time>2026-05-04T09:19:42Z</time></trkpt><trkpt lat="39.68058058282017" lon="8.719381940701917"><ele>35.0</ele><time>2026-05-04T09:19:43Z</time></trkpt><trkpt lat="39.68087297001064" lon="8.719097520424329"><ele>35.0</ele><time>2026-05-04T09:19:44Z</time></trkpt><trkpt lat="39.6811678500728" lon="8.718811953669155"><ele>35.0</ele><time>2026-05-04T09:19:45Z</time></trkpt><trkpt lat="39.681463087559344" lon="8.71853507512981"><ele>35.0</ele><time>2026-05-04T09:19:46Z</time></trkpt><trkpt lat="39.68175933362921" lon="8.718258906716128"><ele>35.0</ele><time>2026-05-04T09:19:47Z</time></trkpt><trkpt lat="39.68205552898382" lon="8.717978011696724"><ele>34.5</ele><time>2026-05-04T09:19:48.001Z</time></trkpt><trkpt lat="39.682349005786804" lon="8.717699357490341"><ele>34.0</ele><time>2026-05-04T09:19:49.001Z</time></trkpt><trkpt lat="39.68264301122019" lon="8.717421910464617"><ele>33.5</ele><time>2026-05-04T09:19:50.001Z</time></trkpt><trkpt lat="39.682935647323234" lon="8.71714395441363"><ele>33.0</ele><time>2026-05-04T09:19:51.001Z</time></trkpt><trkpt lat="39.70402934360577" lon="8.705274071359568"><ele>31.5</ele><time>2026-05-04T09:20:51.999Z</time></trkpt><trkpt lat="39.70432128823875" lon="8.704944762889836"><ele>30.0</ele><time>2026-05-04T09:20:52.999Z</time></trkpt><trkpt lat="39.70460747792487" lon="8.704600961227575"><ele>28.5</ele><time>2026-05-04T09:20:53.999Z</time></trkpt><trkpt lat="39.70488041825107" lon="8.704248108445196"><ele>27.0</ele><time>2026-05-04T09:20:54.999Z</time></trkpt><trkpt lat="39.705144373450466" lon="8.703884787237437"><ele>27.0</ele><time>2026-05-04T09:20:55.999Z</time></trkpt><trkpt lat="39.70539727312852" lon="8.703510864525217"><ele>27.0</ele><time>2026-05-04T09:20:57Z</time></trkpt><trkpt lat="39.705644252720504" lon="8.703122522494956"><ele>25.5</ele><time>2026-05-04T09:20:58Z</time></trkpt><trkpt lat="39.705884483551934" lon="8.702723184467581"><ele>24.0</ele><time>2026-05-04T09:20:59Z</time></trkpt><trkpt lat="39.70611559891743" lon="8.702325102248812"><ele>24.0</ele><time>2026-05-04T09:21:00Z</time></trkpt><trkpt lat="39.70634054006668" lon="8.701916532014678"><ele>24.0</ele><time>2026-05-04T09:21:01Z</time></trkpt><trkpt lat="39.70655618611634" lon="8.70150830656009"><ele>23.5</ele><time>2026-05-04T09:21:02Z</time></trkpt><trkpt lat="39.70677980958585" lon="8.701076953191626"><ele>23.0</ele><time>2026-05-04T09:21:03Z</time></trkpt><trkpt lat="39.70700268096231" lon="8.700629714734726"><ele>23.5</ele><time>2026-05-04T09:21:04Z</time></trkpt><trkpt lat="39.70721807802605" lon="8.700191457000995"><ele>24.0</ele><time>2026-05-04T09:21:05Z</time></trkpt><trkpt lat="39.70742279401878" lon="8.699773138324858"><ele>24.0</ele><time>2026-05-04T09:21:06Z</time></trkpt><trkpt lat="39.70762733157808" lon="8.699364858098876"><ele>24.0</ele><time>2026-05-04T09:21:07Z</time></trkpt><trkpt lat="39.707839732641034" lon="8.698959577492992"><ele>24.5</ele><time>2026-05-04T09:21:08Z</time></trkpt><trkpt lat="39.70805855211733" lon="8.698566770311897"><ele>25.0</ele><time>2026-05-04T09:21:09Z</time></trkpt><trkpt lat="39.708271809973446" lon="8.698191070769685"><ele>25.0</ele><time>2026-05-04T09:21:10Z</time></trkpt><trkpt lat="39.708477265018885" lon="8.697826051994063"><ele>25.0</ele><time>2026-05-04T09:21:11Z</time></trkpt><trkpt lat="39.708686619319366" lon="8.697472137661368"><ele>25.0</ele><time>2026-05-04T09:21:12Z</time></trkpt><trkpt lat="39.708906146943875" lon="8.697125586109202"><ele>25.0</ele><time>2026-05-04T09:21:13Z</time></trkpt><trkpt lat="39.70913327264926" lon="8.696777891430058"><ele>24.5</ele><time>2026-05-04T09:21:14Z</time></trkpt><trkpt lat="39.70937628156905" lon="8.69642878937927"><ele>24.0</ele><time>2026-05-04T09:21:15Z</time></trkpt><trkpt lat="39.70962516957733" lon="8.696089988776713"><ele>23.5</ele><time>2026-05-04T09:21:16Z</time></trkpt><trkpt lat="39.70988530286944" lon="8.695754571723542"><ele>23.0</ele><time>2026-05-04T09:21:17Z</time></trkpt><trkpt lat="39.710155857127106" lon="8.695428389967327"><ele>24.0</ele><time>2026-05-04T09:21:18Z</time></trkpt><trkpt lat="39.710445803860416" lon="8.69511330462993"><ele>25.0</ele><time>2026-05-04T09:21:19Z</time></trkpt><trkpt lat="39.71074524417019" lon="8.694820789986368"><ele>25.0</ele><time>2026-05-04T09:21:20Z</time></trkpt><trkpt lat="39.71105721187568" lon="8.69454304741567"><ele>25.0</ele><time>2026-05-04T09:21:21Z</time></trkpt><trkpt lat="39.71137306641167" lon="8.69428341379396"><ele>24.5</ele><time>2026-05-04T09:21:22Z</time></trkpt><trkpt lat="39.71168994171308" lon="8.694024607761543"><ele>24.0</ele><time>2026-05-04T09:21:23Z</time></trkpt><trkpt lat="39.71201325771688" lon="8.693768904060176"><ele>25.0</ele><time>2026-05-04T09:21:24Z</time></trkpt><trkpt lat="39.7123373586881" lon="8.693524302391221"><ele>26.0</ele><time>2026-05-04T09:21:25Z</time></trkpt><trkpt lat="39.71266714634418" lon="8.69329424792318"><ele>26.0</ele><time>2026-05-04T09:21:26Z</time></trkpt><trkpt lat="39.713003053267926" lon="8.69307797996477"><ele>26.0</ele><time>2026-05-04T09:21:27Z</time></trkpt><trkpt lat="39.713344137535714" lon="8.692875039851572"><ele>25.5</ele><time>2026-05-04T09:21:28Z</time></trkpt><trkpt lat="39.71369008683055" lon="8.692674434332686"><ele>25.0</ele><time>2026-05-04T09:21:29Z</time></trkpt><trkpt lat="39.714038291550054" lon="8.692479810014978"><ele>25.0</ele><time>2026-05-04T09:21:30Z</time></trkpt><trkpt lat="39.71438719312448" lon="8.692285255448308"><ele>25.0</ele><time>2026-05-04T09:21:31Z</time></trkpt><trkpt lat="39.71473255264588" lon="8.692093760329762"><ele>25.5</ele><time>2026-05-04T09:21:32Z</time></trkpt><trkpt lat="39.715077321375354" lon="8.691906289360782"><ele>26.0</ele><time>2026-05-04T09:21:33Z</time></trkpt><trkpt lat="39.71541745657143" lon="8.691724774616972"><ele>27.0</ele><time>2026-05-04T09:21:34Z</time></trkpt><trkpt lat="39.715755166874" lon="8.69153897320734"><ele>28.0</ele><time>2026-05-04T09:21:35Z</time></trkpt><trkpt lat="39.71608905815269" lon="8.691354303649296"><ele>28.5</ele><time>2026-05-04T09:21:36Z</time></trkpt><trkpt lat="39.716422383325515" lon="8.691167904540466"><ele>29.0</ele><time>2026-05-04T09:21:37Z</time></trkpt><trkpt lat="39.71675923610417" lon="8.69097718996058"><ele>29.5</ele><time>2026-05-04T09:21:38Z</time></trkpt><trkpt lat="39.71709918072782" lon="8.690794055238005"><ele>30.0</ele><time>2026-05-04T09:21:39Z</time></trkpt><trkpt lat="39.71744111111057" lon="8.690610854115798"><ele>31.0</ele><time>2026-05-04T09:21:40Z</time></trkpt><trkpt lat="39.7177825107978" lon="8.690429664042412"><ele>32.0</ele><time>2026-05-04T09:21:41Z</time></trkpt><trkpt lat="39.71812532886267" lon="8.69024511439412"><ele>32.0</ele><time>2026-05-04T09:21:42Z</time></trkpt><trkpt lat="39.718465312645236" lon="8.690062339372734"><ele>32.0</ele><time>2026-05-04T09:21:43Z</time></trkpt><trkpt lat="39.71880347132499" lon="8.689887158866885"><ele>32.0</ele><time>2026-05-04T09:21:44Z</time></trkpt><trkpt lat="39.71914492790608" lon="8.689711993087103"><ele>32.0</ele><time>2026-05-04T09:21:45Z</time></trkpt><trkpt lat="39.71948987101437" lon="8.689539079796278"><ele>32.0</ele><time>2026-05-04T09:21:46Z</time></trkpt><trkpt lat="39.719833789104506" lon="8.689364034724187"><ele>32.0</ele><time>2026-05-04T09:21:47Z</time></trkpt><trkpt lat="39.72017739664114" lon="8.689187994655239"><ele>32.5</ele><time>2026-05-04T09:21:48Z</time></trkpt><trkpt lat="39.72052130008236" lon="8.689011149085253"><ele>33.0</ele><time>2026-05-04T09:21:49Z</time></trkpt><trkpt lat="39.720863486911846" lon="8.688835340172805"><ele>34.5</ele><time>2026-05-04T09:21:50Z</time></trkpt><trkpt lat="39.72120505157398" lon="8.688653253855726"><ele>36.0</ele><time>2026-05-04T09:21:51Z</time></trkpt><trkpt lat="39.741462786484384" lon="8.677808714255768"><ele>40.0</ele><time>2026-05-04T09:22:52Z</time></trkpt><trkpt lat="39.74180143567041" lon="8.677633192234094"><ele>44.0</ele><time>2026-05-04T09:22:53Z</time></trkpt><trkpt lat="39.7421373603731" lon="8.677453331550078"><ele>44.5</ele><time>2026-05-04T09:22:54Z</time></trkpt><trkpt lat="39.742471985454614" lon="8.677272246485447"><ele>45.0</ele><time>2026-05-04T09:22:55Z</time></trkpt><trkpt lat="39.74280829211266" lon="8.67707974649895"><ele>45.5</ele><time>2026-05-04T09:22:56Z</time></trkpt><trkpt lat="39.74313688362097" lon="8.676893345470397"><ele>46.0</ele><time>2026-05-04T09:22:57Z</time></trkpt><trkpt lat="39.743465157620776" lon="8.676705226149771"><ele>46.5</ele><time>2026-05-04T09:22:58Z</time></trkpt><trkpt lat="39.743790428495004" lon="8.676533181155175"><ele>47.0</ele><time>2026-05-04T09:22:59Z</time></trkpt><trkpt lat="39.74411486495841" lon="8.676360425966742"><ele>47.5</ele><time>2026-05-04T09:23:00Z</time></trkpt><trkpt lat="39.74443920322017" lon="8.676189255153437"><ele>48.0</ele><time>2026-05-04T09:23:01Z</time></trkpt><trkpt lat="39.7447665185196" lon="8.676016076115141"><ele>48.5</ele><time>2026-05-04T09:23:02Z</time></trkpt><trkpt lat="39.7450946325705" lon="8.675842265371756"><ele>49.0</ele><time>2026-05-04T09:23:03Z</time></trkpt><trkpt lat="39.745422598207135" lon="8.675663880710571"><ele>49.0</ele><time>2026-05-04T09:23:04Z</time></trkpt><trkpt lat="39.74575508507744" lon="8.675488846947347"><ele>49.0</ele><time>2026-05-04T09:23:05Z</time></trkpt><trkpt lat="39.74608149688768" lon="8.675308126626431"><ele>48.0</ele><time>2026-05-04T09:23:06Z</time></trkpt><trkpt lat="39.746409820961496" lon="8.67512241323548"><ele>47.0</ele><time>2026-05-04T09:23:07Z</time></trkpt><trkpt lat="39.7467352488674" lon="8.6749372116109"><ele>47.5</ele><time>2026-05-04T09:23:08Z</time></trkpt><trkpt lat="39.747057796364494" lon="8.674753803058463"><ele>48.0</ele><time>2026-05-04T09:23:09Z</time></trkpt><trkpt lat="39.74738183603897" lon="8.67456755690801"><ele>47.5</ele><time>2026-05-04T09:23:10Z</time></trkpt><trkpt lat="39.74769627388701" lon="8.674380165152346"><ele>47.0</ele><time>2026-05-04T09:23:11Z</time></trkpt><trkpt lat="39.74802352569992" lon="8.67420156870259"><ele>47.0</ele><time>2026-05-04T09:23:12Z</time></trkpt><trkpt lat="39.74834168905872" lon="8.674016071526014"><ele>47.0</ele><time>2026-05-04T09:23:13Z</time></trkpt><trkpt lat="39.74866440437117" lon="8.673833567381457"><ele>47.0</ele><time>2026-05-04T09:23:14Z</time></trkpt><trkpt lat="39.748994804120244" lon="8.673650311171894"><ele>47.0</ele><time>2026-05-04T09:23:15Z</time></trkpt><trkpt lat="39.7493236359428" lon="8.673461626016111"><ele>47.0</ele><time>2026-05-04T09:23:16Z</time></trkpt><trkpt lat="39.74964647518354" lon="8.673273199341779"><ele>47.0</ele><time>2026-05-04T09:23:17Z</time></trkpt><trkpt lat="39.74997414070271" lon="8.673085182141163"><ele>47.5</ele><time>2026-05-04T09:23:18Z</time></trkpt><trkpt lat="39.75029950524256" lon="8.672899035191206"><ele>48.0</ele><time>2026-05-04T09:23:19Z</time></trkpt><trkpt lat="39.75062688982774" lon="8.672715036019431"><ele>47.5</ele><time>2026-05-04T09:23:20Z</time></trkpt><trkpt lat="39.75095559050309" lon="8.67252902654623"><ele>47.0</ele><time>2026-05-04T09:23:21Z</time></trkpt><trkpt lat="39.75128880990009" lon="8.672347895325709"><ele>47.0</ele><time>2026-05-04T09:23:22Z</time></trkpt><trkpt lat="39.751626229180275" lon="8.672170044773846"><ele>47.0</ele><time>2026-05-04T09:23:23Z</time></trkpt><trkpt lat="39.75196438727434" lon="8.671993909131002"><ele>47.0</ele><time>2026-05-04T09:23:24Z</time></trkpt><trkpt lat="39.75230230055412" lon="8.671816212110944"><ele>47.0</ele><time>2026-05-04T09:23:25Z</time></trkpt><trkpt lat="39.752643024672" lon="8.671644467989895"><ele>47.5</ele><time>2026-05-04T09:23:26Z</time></trkpt><trkpt lat="39.75298333345181" lon="8.671475867511466"><ele>48.0</ele><time>2026-05-04T09:23:27Z</time></trkpt><trkpt lat="39.753320063963535" lon="8.671306794845533"><ele>48.5</ele><time>2026-05-04T09:23:28Z</time></trkpt><trkpt lat="39.75365395222967" lon="8.671137886984294"><ele>49.0</ele><time>2026-05-04T09:23:29Z</time></trkpt><trkpt lat="39.75398671195769" lon="8.670969837720948"><ele>48.0</ele><time>2026-05-04T09:23:30Z</time></trkpt><trkpt lat="39.754321197092615" lon="8.670804246304455"><ele>47.0</ele><time>2026-05-04T09:23:31Z</time></trkpt><trkpt lat="39.754656318254206" lon="8.67063857126568"><ele>47.0</ele><time>2026-05-04T09:23:32Z</time></trkpt><trkpt lat="39.75498721543213" lon="8.670463582157856"><ele>47.0</ele><time>2026-05-04T09:23:33Z</time></trkpt><trkpt lat="39.75531898227715" lon="8.67029171897414"><ele>46.0</ele><time>2026-05-04T09:23:34Z</time></trkpt><trkpt lat="39.75564911611192" lon="8.670122523891873"><ele>45.0</ele><time>2026-05-04T09:23:35Z</time></trkpt><trkpt lat="39.7559807916167" lon="8.669949528357943"><ele>45.5</ele><time>2026-05-04T09:23:36Z</time></trkpt><trkpt lat="39.75631122623639" lon="8.669779520948053"><ele>46.0</ele><time>2026-05-04T09:23:37Z</time></trkpt><trkpt lat="39.75664188011477" lon="8.669605171373448"><ele>46.0</ele><time>2026-05-04T09:23:38Z</time></trkpt><trkpt lat="39.75697407175012" lon="8.669429691561387"><ele>46.0</ele><time>2026-05-04T09:23:39Z</time></trkpt><trkpt lat="39.757304535959534" lon="8.669252529145053"><ele>46.0</ele><time>2026-05-04T09:23:40Z</time></trkpt><trkpt lat="39.75763390193071" lon="8.66907262234651"><ele>46.0</ele><time>2026-05-04T09:23:41Z</time></trkpt><trkpt lat="39.75796446679262" lon="8.668893289257975"><ele>45.0</ele><time>2026-05-04T09:23:42Z</time></trkpt><trkpt lat="39.75829407606243" lon="8.668714876301907"><ele>44.0</ele><time>2026-05-04T09:23:43Z</time></trkpt><trkpt lat="39.75862520917032" lon="8.668532310193577"><ele>43.0</ele><time>2026-05-04T09:23:44Z</time></trkpt><trkpt lat="39.758966814393034" lon="8.66834793240417"><ele>42.0</ele><time>2026-05-04T09:23:45Z</time></trkpt><trkpt lat="39.75929474612984" lon="8.66817611634449"><ele>42.0</ele><time>2026-05-04T09:23:46Z</time></trkpt><trkpt lat="39.75962413641936" lon="8.66799484905641"><ele>42.0</ele><time>2026-05-04T09:23:47Z</time></trkpt><trkpt lat="39.75995260103392" lon="8.667815045274688"><ele>41.5</ele><time>2026-05-04T09:23:48Z</time></trkpt><trkpt lat="39.760282418143746" lon="8.667634451705291"><ele>41.0</ele><time>2026-05-04T09:23:49Z</time></trkpt><trkpt lat="39.76061008912267" lon="8.667457851957627"><ele>41.0</ele><time>2026-05-04T09:23:50Z</time></trkpt><trkpt lat="39.76094124950454" lon="8.66727992100385"><ele>41.0</ele><time>2026-05-04T09:23:51Z</time></trkpt><trkpt lat="39.77218966274857" lon="8.661225468972386"><ele>38.0</ele><time>2026-05-04T09:24:25.001Z</time></trkpt><trkpt lat="39.77252485883313" lon="8.661054722775376"><ele>35.0</ele><time>2026-05-04T09:24:26.001Z</time></trkpt><trkpt lat="39.78069196569209" lon="8.656383172883988"><ele>34.0</ele><time>2026-05-04T09:24:52Z</time></trkpt><trkpt lat="39.78099280049225" lon="8.656202702691733"><ele>33.0</ele><time>2026-05-04T09:24:53Z</time></trkpt><trkpt lat="39.78128999130909" lon="8.656024634712775"><ele>32.5</ele><time>2026-05-04T09:24:54Z</time></trkpt><trkpt lat="39.78159444651525" lon="8.655855694495457"><ele>32.0</ele><time>2026-05-04T09:24:55Z</time></trkpt><trkpt lat="39.78189858335548" lon="8.655688142964049"><ele>31.0</ele><time>2026-05-04T09:24:56Z</time></trkpt><trkpt lat="39.782208328604305" lon="8.65551820216851"><ele>30.0</ele><time>2026-05-04T09:24:57Z</time></trkpt><trkpt lat="39.78251825446434" lon="8.655344660567577"><ele>30.5</ele><time>2026-05-04T09:24:58Z</time></trkpt><trkpt lat="39.78283153496808" lon="8.655165580278922"><ele>31.0</ele><time>2026-05-04T09:24:59Z</time></trkpt><trkpt lat="39.78315315145025" lon="8.654987924848069"><ele>31.0</ele><time>2026-05-04T09:25:00Z</time></trkpt><trkpt lat="39.783476112568344" lon="8.65480624807577"><ele>31.0</ele><time>2026-05-04T09:25:01Z</time></trkpt><trkpt lat="39.78380151274855" lon="8.65461999245691"><ele>30.5</ele><time>2026-05-04T09:25:02Z</time></trkpt><trkpt lat="39.784129260871126" lon="8.65443835921823"><ele>30.0</ele><time>2026-05-04T09:25:03Z</time></trkpt><trkpt lat="39.784460049133" lon="8.654248826960192"><ele>30.0</ele><time>2026-05-04T09:25:04Z</time></trkpt><trkpt lat="39.78479806926274" lon="8.654057068781887"><ele>30.0</ele><time>2026-05-04T09:25:05Z</time></trkpt><trkpt lat="39.785137586191105" lon="8.653864199194294"><ele>30.0</ele><time>2026-05-04T09:25:06Z</time></trkpt><trkpt lat="39.78547767847203" lon="8.653672148529203"><ele>30.0</ele><time>2026-05-04T09:25:07Z</time></trkpt><trkpt lat="39.7858202983535" lon="8.653485845660978"><ele>29.5</ele><time>2026-05-04T09:25:08Z</time></trkpt><trkpt lat="39.786164803027965" lon="8.653301520094042"><ele>29.0</ele><time>2026-05-04T09:25:09Z</time></trkpt><trkpt lat="39.78650939348628" lon="8.653116231843505"><ele>28.5</ele><time>2026-05-04T09:25:10Z</time></trkpt><trkpt lat="39.786854604276904" lon="8.65293573436703"><ele>28.0</ele><time>2026-05-04T09:25:11Z</time></trkpt><trkpt lat="39.78719628444173" lon="8.652752398467914"><ele>28.0</ele><time>2026-05-04T09:25:12Z</time></trkpt><trkpt lat="39.787534185706015" lon="8.65257404775986"><ele>28.0</ele><time>2026-05-04T09:25:13Z</time></trkpt><trkpt lat="39.787855266182476" lon="8.652411904110906"><ele>28.0</ele><time>2026-05-04T09:25:14Z</time></trkpt><trkpt lat="39.78815572644023" lon="8.652257497363234"><ele>28.0</ele><time>2026-05-04T09:25:15Z</time></trkpt><trkpt lat="39.78845302722396" lon="8.652118058844783"><ele>28.0</ele><time>2026-05-04T09:25:16Z</time></trkpt><trkpt lat="39.788744899983094" lon="8.651991536066323"><ele>28.0</ele><time>2026-05-04T09:25:17Z</time></trkpt><trkpt lat="39.78900572857824" lon="8.651862437568719"><ele>27.5</ele><time>2026-05-04T09:25:18Z</time></trkpt><trkpt lat="39.78925463504641" lon="8.651732098853946"><ele>27.0</ele><time>2026-05-04T09:25:19Z</time></trkpt><trkpt lat="39.78949718718487" lon="8.651610631823747"><ele>26.5</ele><time>2026-05-04T09:25:20Z</time></trkpt><trkpt lat="39.78973575637768" lon="8.651487491576356"><ele>26.0</ele><time>2026-05-04T09:25:21Z</time></trkpt><trkpt lat="39.78996050777778" lon="8.651373540155914"><ele>26.0</ele><time>2026-05-04T09:25:22Z</time></trkpt><trkpt lat="39.79019407887773" lon="8.651254913904555"><ele>26.0</ele><time>2026-05-04T09:25:23Z</time></trkpt><trkpt lat="39.790443048075495" lon="8.651124427462372"><ele>24.5</ele><time>2026-05-04T09:25:24Z</time></trkpt><trkpt lat="39.790697888458254" lon="8.650993793205654"><ele>23.0</ele><time>2026-05-04T09:25:25Z</time></trkpt><trkpt lat="39.79096918032157" lon="8.650853341397557"><ele>23.5</ele><time>2026-05-04T09:25:26Z</time></trkpt><trkpt lat="39.79126136557738" lon="8.65069935406453"><ele>24.0</ele><time>2026-05-04T09:25:27Z</time></trkpt><trkpt lat="39.79157723950473" lon="8.650520480153348"><ele>24.5</ele><time>2026-05-04T09:25:28Z</time></trkpt><trkpt lat="39.79191459380481" lon="8.650331194558609"><ele>25.0</ele><time>2026-05-04T09:25:29Z</time></trkpt><trkpt lat="39.792270695474045" lon="8.650144037082278"><ele>24.0</ele><time>2026-05-04T09:25:30Z</time></trkpt><trkpt lat="39.79262586643138" lon="8.649962101495197"><ele>23.0</ele><time>2026-05-04T09:25:31Z</time></trkpt><trkpt lat="39.79296939085931" lon="8.649783501147287"><ele>23.0</ele><time>2026-05-04T09:25:32Z</time></trkpt><trkpt lat="39.79330855501867" lon="8.64960385062866"><ele>23.0</ele><time>2026-05-04T09:25:33Z</time></trkpt><trkpt lat="39.79363611139387" lon="8.649423070162028"><ele>22.5</ele><time>2026-05-04T09:25:34Z</time></trkpt><trkpt lat="39.793954595549394" lon="8.649247441876263"><ele>22.0</ele><time>2026-05-04T09:25:35Z</time></trkpt><trkpt lat="39.79427011060638" lon="8.649067921161306"><ele>22.5</ele><time>2026-05-04T09:25:36Z</time></trkpt><trkpt lat="39.79458337236503" lon="8.648884971232013"><ele>23.0</ele><time>2026-05-04T09:25:37Z</time></trkpt><trkpt lat="39.79489427426446" lon="8.648709966314172"><ele>22.5</ele><time>2026-05-04T09:25:38Z</time></trkpt><trkpt lat="39.79520662373245" lon="8.64854257414206"><ele>22.0</ele><time>2026-05-04T09:25:39Z</time></trkpt><trkpt lat="39.79551683037897" lon="8.648373594464957"><ele>22.0</ele><time>2026-05-04T09:25:40Z</time></trkpt><trkpt lat="39.79582419001184" lon="8.64820952449664"><ele>22.0</ele><time>2026-05-04T09:25:41Z</time></trkpt><trkpt lat="39.79612787779543" lon="8.648046754047769"><ele>22.0</ele><time>2026-05-04T09:25:42Z</time></trkpt><trkpt lat="39.796430635594376" lon="8.647884803100316"><ele>22.0</ele><time>2026-05-04T09:25:43Z</time></trkpt><trkpt lat="39.79673696240527" lon="8.64771505080833"><ele>22.5</ele><time>2026-05-04T09:25:44Z</time></trkpt><trkpt lat="39.79704666938792" lon="8.647546584643756"><ele>23.0</ele><time>2026-05-04T09:25:45Z</time></trkpt><trkpt lat="39.79736625564285" lon="8.647375128528173"><ele>22.5</ele><time>2026-05-04T09:25:46Z</time></trkpt><trkpt lat="39.79769705615985" lon="8.64720859514807"><ele>22.0</ele><time>2026-05-04T09:25:47Z</time></trkpt><trkpt lat="39.798026823134684" lon="8.647047552627598"><ele>22.0</ele><time>2026-05-04T09:25:48Z</time></trkpt><trkpt lat="39.79835710930982" lon="8.646878497191285"><ele>22.0</ele><time>2026-05-04T09:25:49Z</time></trkpt><trkpt lat="39.79867818095062" lon="8.646693986166008"><ele>22.0</ele><time>2026-05-04T09:25:50.001Z</time></trkpt><trkpt lat="39.799003979374746" lon="8.646517236157903"><ele>22.0</ele><time>2026-05-04T09:25:51.001Z</time></trkpt><trkpt lat="39.81885508327174" lon="8.635867330122533"><ele>17.5</ele><time>2026-05-04T09:26:51.998Z</time></trkpt><trkpt lat="39.81919407489604" lon="8.635677945882849"><ele>13.0</ele><time>2026-05-04T09:26:52.998Z</time></trkpt><trkpt lat="39.819532979456525" lon="8.635491206152771"><ele>12.0</ele><time>2026-05-04T09:26:53.999Z</time></trkpt><trkpt lat="39.819871378878815" lon="8.635303642820283"><ele>11.0</ele><time>2026-05-04T09:26:54.999Z</time></trkpt><trkpt lat="39.820208473756544" lon="8.635112319264149"><ele>9.5</ele><time>2026-05-04T09:26:55.999Z</time></trkpt><trkpt lat="39.820544584265804" lon="8.634926184501994"><ele>8.0</ele><time>2026-05-04T09:26:56.999Z</time></trkpt><trkpt lat="39.82088080406621" lon="8.63473853530121"><ele>7.0</ele><time>2026-05-04T09:26:57.999Z</time></trkpt><trkpt lat="39.82121627261687" lon="8.6345506855066"><ele>6.0</ele><time>2026-05-04T09:26:58.999Z</time></trkpt><trkpt lat="39.82155337948221" lon="8.634361426809901"><ele>5.5</ele><time>2026-05-04T09:26:59.999Z</time></trkpt><trkpt lat="39.82188977118451" lon="8.634172921561408"><ele>5.0</ele><time>2026-05-04T09:27:00.999Z</time></trkpt><trkpt lat="39.82222302243329" lon="8.633988010764961"><ele>5.0</ele><time>2026-05-04T09:27:01.999Z</time></trkpt><trkpt lat="39.822561141090475" lon="8.633802779157854"><ele>5.0</ele><time>2026-05-04T09:27:02.999Z</time></trkpt><trkpt lat="39.82289825130772" lon="8.633614768500143"><ele>4.5</ele><time>2026-05-04T09:27:03.999Z</time></trkpt><trkpt lat="39.82323641668678" lon="8.633426368404123"><ele>4.0</ele><time>2026-05-04T09:27:04.999Z</time></trkpt><trkpt lat="39.82357379145703" lon="8.63323637805006"><ele>3.5</ele><time>2026-05-04T09:27:05.999Z</time></trkpt><trkpt lat="39.82390993833742" lon="8.633046554983464"><ele>3.0</ele><time>2026-05-04T09:27:06.999Z</time></trkpt><trkpt lat="39.82424448812645" lon="8.63285879417166"><ele>4.0</ele><time>2026-05-04T09:27:07.999Z</time></trkpt><trkpt lat="39.82457963436965" lon="8.632666440410683"><ele>5.0</ele><time>2026-05-04T09:27:08.999Z</time></trkpt><trkpt lat="39.82491734715738" lon="8.632469268455333"><ele>5.5</ele><time>2026-05-04T09:27:09.999Z</time></trkpt><trkpt lat="39.82525563837355" lon="8.632279778152462"><ele>6.0</ele><time>2026-05-04T09:27:10.999Z</time></trkpt><trkpt lat="39.82559038031987" lon="8.63209060460711"><ele>5.5</ele><time>2026-05-04T09:27:11.999Z</time></trkpt><trkpt lat="39.82592533944464" lon="8.631901945737267"><ele>5.0</ele><time>2026-05-04T09:27:12.999Z</time></trkpt><trkpt lat="39.82626421368149" lon="8.631716114346341"><ele>5.0</ele><time>2026-05-04T09:27:13.999Z</time></trkpt><trkpt lat="39.826600472038564" lon="8.631535350421245"><ele>5.0</ele><time>2026-05-04T09:27:14.999Z</time></trkpt><trkpt lat="39.82693891732945" lon="8.631355359363168"><ele>3.5</ele><time>2026-05-04T09:27:15.999Z</time></trkpt><trkpt lat="39.82727077544323" lon="8.631179271350302"><ele>2.0</ele><time>2026-05-04T09:27:16.999Z</time></trkpt><trkpt lat="39.827579199839484" lon="8.63101646433182"><ele>2.0</ele><time>2026-05-04T09:27:17.999Z</time></trkpt><trkpt lat="39.827869231450556" lon="8.630857404874732"><ele>2.0</ele><time>2026-05-04T09:27:18.999Z</time></trkpt><trkpt lat="39.82814673492937" lon="8.63070817133068"><ele>2.0</ele><time>2026-05-04T09:27:19.999Z</time></trkpt><trkpt lat="39.82842857773798" lon="8.630559586304527"><ele>2.0</ele><time>2026-05-04T09:27:20.999Z</time></trkpt><trkpt lat="39.82871192484624" lon="8.630410712059504"><ele>3.0</ele><time>2026-05-04T09:27:22Z</time></trkpt><trkpt lat="39.82899491725055" lon="8.630265809815402"><ele>4.0</ele><time>2026-05-04T09:27:23Z</time></trkpt><trkpt lat="39.82927741614011" lon="8.630124117251405"><ele>3.0</ele><time>2026-05-04T09:27:24Z</time></trkpt><trkpt lat="39.829556823313084" lon="8.629983922336862"><ele>2.0</ele><time>2026-05-04T09:27:25Z</time></trkpt><trkpt lat="39.82983103000999" lon="8.629840712691166"><ele>2.0</ele><time>2026-05-04T09:27:26Z</time></trkpt><trkpt lat="39.83010967222555" lon="8.629698509869185"><ele>2.0</ele><time>2026-05-04T09:27:27Z</time></trkpt><trkpt lat="39.830394967237176" lon="8.629557054986364"><ele>3.0</ele><time>2026-05-04T09:27:28Z</time></trkpt><trkpt lat="39.830684033384" lon="8.629413944280346"><ele>4.0</ele><time>2026-05-04T09:27:29Z</time></trkpt><trkpt lat="39.83097399288634" lon="8.62926637390318"><ele>6.0</ele><time>2026-05-04T09:27:30Z</time></trkpt><trkpt lat="39.83127186741776" lon="8.629116514895408"><ele>8.0</ele><time>2026-05-04T09:27:31Z</time></trkpt><trkpt lat="39.83157029117946" lon="8.628959996401484"><ele>8.0</ele><time>2026-05-04T09:27:32Z</time></trkpt><trkpt lat="39.831882032722625" lon="8.628799525052303"><ele>8.0</ele><time>2026-05-04T09:27:33Z</time></trkpt><trkpt lat="39.832197427875435" lon="8.62863770831475"><ele>8.0</ele><time>2026-05-04T09:27:34Z</time></trkpt><trkpt lat="39.83251249723116" lon="8.628473162909051"><ele>8.0</ele><time>2026-05-04T09:27:35Z</time></trkpt><trkpt lat="39.832842018436345" lon="8.628308169468536"><ele>9.0</ele><time>2026-05-04T09:27:36Z</time></trkpt><trkpt lat="39.833190776877814" lon="8.628128464964153"><ele>10.0</ele><time>2026-05-04T09:27:37Z</time></trkpt><trkpt lat="39.83354132032982" lon="8.627944884285128"><ele>10.0</ele><time>2026-05-04T09:27:38Z</time></trkpt><trkpt lat="39.83388632774423" lon="8.627768575168977"><ele>10.0</ele><time>2026-05-04T09:27:39Z</time></trkpt><trkpt lat="39.83422573471872" lon="8.627599699811723"><ele>9.5</ele><time>2026-05-04T09:27:40Z</time></trkpt><trkpt lat="39.83456034637881" lon="8.627430187428548"><ele>9.0</ele><time>2026-05-04T09:27:41Z</time></trkpt><trkpt lat="39.83488891643728" lon="8.627272192272418"><ele>10.0</ele><time>2026-05-04T09:27:42Z</time></trkpt><trkpt lat="39.835209742418826" lon="8.62712094726755"><ele>11.0</ele><time>2026-05-04T09:27:43Z</time></trkpt><trkpt lat="39.8355245741102" lon="8.626967201555438"><ele>11.0</ele><time>2026-05-04T09:27:44Z</time></trkpt><trkpt lat="39.8358289044203" lon="8.626808395256402"><ele>11.0</ele><time>2026-05-04T09:27:45Z</time></trkpt><trkpt lat="39.83613098446622" lon="8.626650358673329"><ele>10.5</ele><time>2026-05-04T09:27:46Z</time></trkpt><trkpt lat="39.83643181299453" lon="8.626492787768443"><ele>10.0</ele><time>2026-05-04T09:27:47Z</time></trkpt><trkpt lat="39.83673183366789" lon="8.626331218785989"><ele>10.0</ele><time>2026-05-04T09:27:48Z</time></trkpt><trkpt lat="39.83703338584427" lon="8.626168178149253"><ele>10.0</ele><time>2026-05-04T09:27:49Z</time></trkpt><trkpt lat="39.83733496157695" lon="8.626004292692116"><ele>10.5</ele><time>2026-05-04T09:27:50Z</time></trkpt><trkpt lat="39.83763901116804" lon="8.625842045791273"><ele>11.0</ele><time>2026-05-04T09:27:51Z</time></trkpt><trkpt lat="39.85683642346737" lon="8.615562921758697"><ele>6.5</ele><time>2026-05-04T09:28:52.001Z</time></trkpt><trkpt lat="39.85714012757805" lon="8.615392122472944"><ele>2.0</ele><time>2026-05-04T09:28:53.001Z</time></trkpt><trkpt lat="39.85744135294251" lon="8.615222206736709"><ele>2.5</ele><time>2026-05-04T09:28:54.001Z</time></trkpt><trkpt lat="39.85774412828172" lon="8.615059164616953"><ele>3.0</ele><time>2026-05-04T09:28:54.997Z</time></trkpt><trkpt lat="39.85804679294503" lon="8.614894319960689"><ele>3.0</ele><time>2026-05-04T09:28:55.997Z</time></trkpt><trkpt lat="39.85834743202536" lon="8.614730404323122"><ele>3.0</ele><time>2026-05-04T09:28:56.997Z</time></trkpt><trkpt lat="39.85864957745871" lon="8.614561156223019"><ele>3.0</ele><time>2026-05-04T09:28:57.997Z</time></trkpt><trkpt lat="39.85895238427294" lon="8.614394916434025"><ele>3.0</ele><time>2026-05-04T09:28:58.997Z</time></trkpt><trkpt lat="39.85925598101628" lon="8.61422840336745"><ele>3.5</ele><time>2026-05-04T09:28:59.997Z</time></trkpt><trkpt lat="39.85956141386385" lon="8.614059812070469"><ele>4.0</ele><time>2026-05-04T09:29:00.997Z</time></trkpt><trkpt lat="39.859868884649025" lon="8.613896733939642"><ele>5.0</ele><time>2026-05-04T09:29:01.997Z</time></trkpt><trkpt lat="39.860178651352136" lon="8.61373630707232"><ele>6.0</ele><time>2026-05-04T09:29:02.997Z</time></trkpt><trkpt lat="39.86048637332646" lon="8.613565882849445"><ele>6.0</ele><time>2026-05-04T09:29:03.997Z</time></trkpt><trkpt lat="39.86079619031666" lon="8.61338929318631"><ele>6.0</ele><time>2026-05-04T09:29:04.997Z</time></trkpt><trkpt lat="39.861105675980326" lon="8.613216712989217"><ele>5.5</ele><time>2026-05-04T09:29:05.997Z</time></trkpt><trkpt lat="39.861416395267184" lon="8.613042559698659"><ele>5.0</ele><time>2026-05-04T09:29:06.997Z</time></trkpt><trkpt lat="39.86173073119169" lon="8.612872152666055"><ele>5.5</ele><time>2026-05-04T09:29:07.997Z</time></trkpt><trkpt lat="39.86204306067307" lon="8.612703763608634"><ele>6.0</ele><time>2026-05-04T09:29:08.997Z</time></trkpt><trkpt lat="39.86236079640148" lon="8.612539696349904"><ele>4.5</ele><time>2026-05-04T09:29:09.997Z</time></trkpt><trkpt lat="39.86268424094397" lon="8.61238276429137"><ele>3.0</ele><time>2026-05-04T09:29:10.997Z</time></trkpt><trkpt lat="39.86301611748016" lon="8.61224809874396"><ele>3.0</ele><time>2026-05-04T09:29:11.998Z</time></trkpt><trkpt lat="39.8633456945402" lon="8.612151388069199"><ele>3.0</ele><time>2026-05-04T09:29:12.998Z</time></trkpt><trkpt lat="39.863684342138626" lon="8.61206393983149"><ele>3.0</ele><time>2026-05-04T09:29:13.998Z</time></trkpt><trkpt lat="39.8640213851199" lon="8.611968012779542"><ele>3.0</ele><time>2026-05-04T09:29:14.998Z</time></trkpt><trkpt lat="39.86435361231257" lon="8.611859452232016"><ele>3.0</ele><time>2026-05-04T09:29:15.998Z</time></trkpt><trkpt lat="39.86468241811948" lon="8.6117486626794"><ele>3.0</ele><time>2026-05-04T09:29:16.998Z</time></trkpt><trkpt lat="39.865011611615316" lon="8.611644400826918"><ele>2.5</ele><time>2026-05-04T09:29:17.998Z</time></trkpt><trkpt lat="39.86534187197075" lon="8.611552645680888"><ele>2.0</ele><time>2026-05-04T09:29:18.998Z</time></trkpt><trkpt lat="39.86567538367698" lon="8.611480415538068"><ele>2.0</ele><time>2026-05-04T09:29:19.998Z</time></trkpt><trkpt lat="39.866009464434796" lon="8.611421994111641"><ele>2.0</ele><time>2026-05-04T09:29:20.998Z</time></trkpt><trkpt lat="39.86634359975765" lon="8.611389725464837"><ele>2.0</ele><time>2026-05-04T09:29:21.998Z</time></trkpt><trkpt lat="39.86668418024073" lon="8.61138472087898"><ele>2.0</ele><time>2026-05-04T09:29:22.998Z</time></trkpt><trkpt lat="39.867023897158234" lon="8.61140793189843"><ele>2.5</ele><time>2026-05-04T09:29:23.998Z</time></trkpt><trkpt lat="39.86736059936514" lon="8.611450685982293"><ele>3.0</ele><time>2026-05-04T09:29:24.998Z</time></trkpt><trkpt lat="39.867698660129115" lon="8.611511541639537"><ele>3.0</ele><time>2026-05-04T09:29:25.998Z</time></trkpt><trkpt lat="39.86803859033526" lon="8.61159182322017"><ele>3.0</ele><time>2026-05-04T09:29:26.999Z</time></trkpt><trkpt lat="39.86836943025667" lon="8.611690447859228"><ele>3.0</ele><time>2026-05-04T09:29:27.999Z</time></trkpt><trkpt lat="39.868698256346185" lon="8.61181740645941"><ele>3.0</ele><time>2026-05-04T09:29:28.999Z</time></trkpt><trkpt lat="39.869019138576355" lon="8.61197368147813"><ele>3.0</ele><time>2026-05-04T09:29:29.999Z</time></trkpt><trkpt lat="39.86933218106998" lon="8.612154738681872"><ele>3.0</ele><time>2026-05-04T09:29:30.999Z</time></trkpt><trkpt lat="39.86964129402851" lon="8.612358572692171"><ele>3.0</ele><time>2026-05-04T09:29:31.999Z</time></trkpt><trkpt lat="39.86995056172921" lon="8.612559811211511"><ele>3.0</ele><time>2026-05-04T09:29:32.999Z</time></trkpt><trkpt lat="39.8702684394771" lon="8.612750767687007"><ele>4.0</ele><time>2026-05-04T09:29:33.999Z</time></trkpt><trkpt lat="39.87058144271137" lon="8.612943328167345"><ele>5.0</ele><time>2026-05-04T09:29:34.999Z</time></trkpt><trkpt lat="39.87086676615036" lon="8.613124806517854"><ele>5.0</ele><time>2026-05-04T09:29:35.999Z</time></trkpt><trkpt lat="39.871127443461994" lon="8.613296307902433"><ele>5.0</ele><time>2026-05-04T09:29:36.999Z</time></trkpt><trkpt lat="39.871376111601684" lon="8.613458899323934"><ele>5.0</ele><time>2026-05-04T09:29:37.999Z</time></trkpt><trkpt lat="39.87162237841464" lon="8.613618640947992"><ele>5.0</ele><time>2026-05-04T09:29:38.999Z</time></trkpt><trkpt lat="39.871868915397556" lon="8.613779952784983"><ele>5.0</ele><time>2026-05-04T09:29:39.999Z</time></trkpt><trkpt lat="39.8721133099359" lon="8.613937041355287"><ele>5.0</ele><time>2026-05-04T09:29:40.999Z</time></trkpt><trkpt lat="39.872366217284245" lon="8.614099554463445"><ele>4.5</ele><time>2026-05-04T09:29:41.999Z</time></trkpt><trkpt lat="39.872620776795515" lon="8.614262529212754"><ele>4.0</ele><time>2026-05-04T09:29:42.999Z</time></trkpt><trkpt lat="39.87287512084354" lon="8.614422708725588"><ele>5.0</ele><time>2026-05-04T09:29:43.999Z</time></trkpt><trkpt lat="39.87313259442647" lon="8.61458037094865"><ele>6.0</ele><time>2026-05-04T09:29:44.999Z</time></trkpt><trkpt lat="39.87338957854414" lon="8.614737209586831"><ele>6.0</ele><time>2026-05-04T09:29:45.999Z</time></trkpt><trkpt lat="39.8736514048614" lon="8.61489314296972"><ele>6.0</ele><time>2026-05-04T09:29:46.999Z</time></trkpt><trkpt lat="39.87392019503179" lon="8.615046988861705"><ele>6.0</ele><time>2026-05-04T09:29:47.999Z</time></trkpt><trkpt lat="39.87419595739576" lon="8.61519822875763"><ele>6.0</ele><time>2026-05-04T09:29:48.999Z</time></trkpt><trkpt lat="39.87447988870395" lon="8.615353757125085"><ele>5.5</ele><time>2026-05-04T09:29:49.999Z</time></trkpt><trkpt lat="39.8747693332718" lon="8.615507305002895"><ele>5.0</ele><time>2026-05-04T09:29:50.999Z</time></trkpt><trkpt lat="39.89258921868859" lon="8.62427467096941"><ele>6.5</ele><time>2026-05-04T09:30:52.001Z</time></trkpt><trkpt lat="39.892931799600056" lon="8.624460198824691"><ele>8.0</ele><time>2026-05-04T09:30:53.001Z</time></trkpt><trkpt lat="39.89327175291063" lon="8.6246494835126"><ele>8.5</ele><time>2026-05-04T09:30:54.001Z</time></trkpt><trkpt lat="39.893611124743394" lon="8.624839618854942"><ele>9.0</ele><time>2026-05-04T09:30:55.001Z</time></trkpt><trkpt lat="39.893952604427575" lon="8.625027780642897"><ele>9.0</ele><time>2026-05-04T09:30:56.001Z</time></trkpt><trkpt lat="39.89429402839008" lon="8.625215116885059"><ele>9.0</ele><time>2026-05-04T09:30:57.001Z</time></trkpt><trkpt lat="39.89463543900656" lon="8.625396697192961"><ele>9.0</ele><time>2026-05-04T09:30:58.001Z</time></trkpt><trkpt lat="39.89498117582138" lon="8.625573128385858"><ele>9.0</ele><time>2026-05-04T09:30:59.001Z</time></trkpt><trkpt lat="39.895324054306364" lon="8.62573771577663"><ele>9.5</ele><time>2026-05-04T09:31:00.001Z</time></trkpt><trkpt lat="39.89566664034824" lon="8.625891043390439"><ele>10.0</ele><time>2026-05-04T09:31:00.998Z</time></trkpt><trkpt lat="39.896015337313365" lon="8.626034240621724"><ele>9.5</ele><time>2026-05-04T09:31:01.999Z</time></trkpt><trkpt lat="39.896364219769865" lon="8.626175836265544"><ele>9.0</ele><time>2026-05-04T09:31:02.999Z</time></trkpt><trkpt lat="39.896713260926994" lon="8.62631195190406"><ele>9.0</ele><time>2026-05-04T09:31:03.999Z</time></trkpt><trkpt lat="39.89706315565228" lon="8.626447898961436"><ele>9.0</ele><time>2026-05-04T09:31:04.999Z</time></trkpt><trkpt lat="39.89741214344731" lon="8.626585174876917"><ele>10.0</ele><time>2026-05-04T09:31:05.999Z</time></trkpt><trkpt lat="39.89776002519314" lon="8.626720208677185"><ele>11.0</ele><time>2026-05-04T09:31:06.999Z</time></trkpt><trkpt lat="39.898107972443135" lon="8.626857906481826"><ele>11.0</ele><time>2026-05-04T09:31:07.999Z</time></trkpt><trkpt lat="39.89845494037107" lon="8.627002756137074"><ele>11.0</ele><time>2026-05-04T09:31:08.999Z</time></trkpt><trkpt lat="39.898799146354904" lon="8.62715372968505"><ele>11.0</ele><time>2026-05-04T09:31:09.999Z</time></trkpt><trkpt lat="39.899141212322924" lon="8.627315345892892"><ele>11.0</ele><time>2026-05-04T09:31:10.999Z</time></trkpt><trkpt lat="39.8994798387801" lon="8.627490403765504"><ele>11.5</ele><time>2026-05-04T09:31:11.999Z</time></trkpt><trkpt lat="39.89981922476926" lon="8.627666487394755"><ele>12.0</ele><time>2026-05-04T09:31:12.999Z</time></trkpt><trkpt lat="39.90016070262599" lon="8.627837994532591"><ele>12.0</ele><time>2026-05-04T09:31:13.999Z</time></trkpt><trkpt lat="39.90050223679283" lon="8.628010082214598"><ele>12.0</ele><time>2026-05-04T09:31:14.999Z</time></trkpt><trkpt lat="39.90084267131283" lon="8.62818074622567"><ele>13.0</ele><time>2026-05-04T09:31:15.999Z</time></trkpt><trkpt lat="39.901186522252196" lon="8.628349050466035"><ele>14.0</ele><time>2026-05-04T09:31:16.999Z</time></trkpt><trkpt lat="39.90153168253441" lon="8.628515610902197"><ele>13.5</ele><time>2026-05-04T09:31:17.999Z</time></trkpt><trkpt lat="39.90187504747915" lon="8.628681529062762"><ele>13.0</ele><time>2026-05-04T09:31:18.999Z</time></trkpt><trkpt lat="39.90222095790876" lon="8.62884842781668"><ele>13.0</ele><time>2026-05-04T09:31:19.999Z</time></trkpt><trkpt lat="39.902566854225036" lon="8.629016483899187"><ele>13.0</ele><time>2026-05-04T09:31:20.999Z</time></trkpt><trkpt lat="39.90291060741323" lon="8.629184281455737"><ele>13.0</ele><time>2026-05-04T09:31:22Z</time></trkpt><trkpt lat="39.90325164820793" lon="8.629354342216393"><ele>13.0</ele><time>2026-05-04T09:31:23Z</time></trkpt><trkpt lat="39.90359364107057" lon="8.629524318338603"><ele>13.0</ele><time>2026-05-04T09:31:24Z</time></trkpt><trkpt lat="39.903933267431604" lon="8.629698088940183"><ele>13.0</ele><time>2026-05-04T09:31:25Z</time></trkpt><trkpt lat="39.90427240705238" lon="8.629871860970852"><ele>14.0</ele><time>2026-05-04T09:31:26Z</time></trkpt><trkpt lat="39.9046142947273" lon="8.630044885667308"><ele>15.0</ele><time>2026-05-04T09:31:27Z</time></trkpt><trkpt lat="39.90495789334456" lon="8.630213511343461"><ele>14.0</ele><time>2026-05-04T09:31:28Z</time></trkpt><trkpt lat="39.905301204837066" lon="8.630383455747165"><ele>13.0</ele><time>2026-05-04T09:31:29Z</time></trkpt><trkpt lat="39.905644439801236" lon="8.630548626252699"><ele>14.0</ele><time>2026-05-04T09:31:30Z</time></trkpt><trkpt lat="39.90598845103431" lon="8.63071520277012"><ele>15.0</ele><time>2026-05-04T09:31:31Z</time></trkpt><trkpt lat="39.90632480644718" lon="8.630879238848426"><ele>15.0</ele><time>2026-05-04T09:31:32Z</time></trkpt><trkpt lat="39.90664509178405" lon="8.631037789363921"><ele>15.0</ele><time>2026-05-04T09:31:33Z</time></trkpt><trkpt lat="39.906965189033066" lon="8.631194801965806"><ele>14.0</ele><time>2026-05-04T09:31:34Z</time></trkpt><trkpt lat="39.90728113762258" lon="8.631349973502083"><ele>13.0</ele><time>2026-05-04T09:31:35Z</time></trkpt><trkpt lat="39.90759376696121" lon="8.631505846073566"><ele>13.0</ele><time>2026-05-04T09:31:36Z</time></trkpt><trkpt lat="39.90790361868323" lon="8.631667226878509"><ele>13.0</ele><time>2026-05-04T09:31:37Z</time></trkpt><trkpt lat="39.90821065503913" lon="8.631824127273783"><ele>12.0</ele><time>2026-05-04T09:31:38Z</time></trkpt><trkpt lat="39.90852035239978" lon="8.631977722856854"><ele>11.0</ele><time>2026-05-04T09:31:39Z</time></trkpt><trkpt lat="39.908828679221465" lon="8.63212776343103"><ele>11.0</ele><time>2026-05-04T09:31:40Z</time></trkpt><trkpt lat="39.90913908889989" lon="8.632281292369317"><ele>11.0</ele><time>2026-05-04T09:31:41Z</time></trkpt><trkpt lat="39.9094481556096" lon="8.632432616475988"><ele>12.5</ele><time>2026-05-04T09:31:42Z</time></trkpt><trkpt lat="39.90975905841333" lon="8.632585893060112"><ele>14.0</ele><time>2026-05-04T09:31:43Z</time></trkpt><trkpt lat="39.91007285884051" lon="8.632739672415155"><ele>14.0</ele><time>2026-05-04T09:31:44Z</time></trkpt><trkpt lat="39.91038904091126" lon="8.632892785761781"><ele>14.0</ele><time>2026-05-04T09:31:45Z</time></trkpt><trkpt lat="39.9107096281208" lon="8.633047350311243"><ele>14.0</ele><time>2026-05-04T09:31:46Z</time></trkpt><trkpt lat="39.911033891039324" lon="8.633201398272876"><ele>14.0</ele><time>2026-05-04T09:31:47Z</time></trkpt><trkpt lat="39.911360141424176" lon="8.633352890959094"><ele>14.0</ele><time>2026-05-04T09:31:48Z</time></trkpt><trkpt lat="39.91168478286978" lon="8.633498728404685"><ele>14.0</ele><time>2026-05-04T09:31:49.001Z</time></trkpt><trkpt lat="39.912009570204575" lon="8.633625870486858"><ele>14.0</ele><time>2026-05-04T09:31:50.001Z</time></trkpt><trkpt lat="39.91234618655987" lon="8.633787595706966"><ele>14.0</ele><time>2026-05-04T09:31:51.001Z</time></trkpt><trkpt lat="39.93375233578785" lon="8.628178372589312"><ele>11.0</ele><time>2026-05-04T09:32:52.002Z</time></trkpt><trkpt lat="39.93410256410682" lon="8.628022681274702"><ele>8.0</ele><time>2026-05-04T09:32:53.002Z</time></trkpt><trkpt lat="39.934458128384705" lon="8.627873084735393"><ele>8.0</ele><time>2026-05-04T09:32:54.002Z</time></trkpt><trkpt lat="39.93481477435176" lon="8.627729686313316"><ele>8.0</ele><time>2026-05-04T09:32:55.002Z</time></trkpt><trkpt lat="39.9351729609042" lon="8.62758800863543"><ele>8.0</ele><time>2026-05-04T09:32:56.002Z</time></trkpt><trkpt lat="39.93552864772301" lon="8.627437211996565"><ele>8.0</ele><time>2026-05-04T09:32:57.002Z</time></trkpt><trkpt lat="39.935883071515704" lon="8.62727388166797"><ele>7.5</ele><time>2026-05-04T09:32:58.002Z</time></trkpt><trkpt lat="39.93623580772003" lon="8.627107049358615"><ele>7.0</ele><time>2026-05-04T09:32:59.002Z</time></trkpt><trkpt lat="39.93658825753331" lon="8.626941938649539"><ele>7.5</ele><time>2026-05-04T09:33:00.002Z</time></trkpt><trkpt lat="39.93694022805745" lon="8.62677951598119"><ele>8.0</ele><time>2026-05-04T09:33:01.002Z</time></trkpt><trkpt lat="39.93728822282362" lon="8.626611446700117"><ele>7.5</ele><time>2026-05-04T09:33:02.002Z</time></trkpt><trkpt lat="39.93763833631804" lon="8.626443809989546"><ele>7.0</ele><time>2026-05-04T09:33:03.003Z</time></trkpt><trkpt lat="39.9379883819519" lon="8.626280147773599"><ele>7.0</ele><time>2026-05-04T09:33:04.003Z</time></trkpt><trkpt lat="39.93833888717892" lon="8.626119388212903"><ele>7.0</ele><time>2026-05-04T09:33:05.003Z</time></trkpt><trkpt lat="39.93868190713434" lon="8.62596566240837"><ele>7.0</ele><time>2026-05-04T09:33:06.003Z</time></trkpt><trkpt lat="39.939025598873606" lon="8.625820987415594"><ele>7.0</ele><time>2026-05-04T09:33:07.001Z</time></trkpt><trkpt lat="39.93937093981074" lon="8.625677108573312"><ele>8.0</ele><time>2026-05-04T09:33:08.001Z</time></trkpt><trkpt lat="39.93972705321162" lon="8.62553723581797"><ele>9.0</ele><time>2026-05-04T09:33:09.001Z</time></trkpt><trkpt lat="39.940084285651" lon="8.625391798561305"><ele>9.0</ele><time>2026-05-04T09:33:10.001Z</time></trkpt><trkpt lat="39.94043875881626" lon="8.625247686107725"><ele>9.0</ele><time>2026-05-04T09:33:11.001Z</time></trkpt><trkpt lat="39.94079121957159" lon="8.625093007561581"><ele>8.5</ele><time>2026-05-04T09:33:12.001Z</time></trkpt><trkpt lat="39.94114086195675" lon="8.624930358763105"><ele>8.0</ele><time>2026-05-04T09:33:13.001Z</time></trkpt><trkpt lat="39.94149361527022" lon="8.6247648835486"><ele>7.5</ele><time>2026-05-04T09:33:14.001Z</time></trkpt><trkpt lat="39.941847635071596" lon="8.62460258914616"><ele>7.0</ele><time>2026-05-04T09:33:15.001Z</time></trkpt><trkpt lat="39.942197317490546" lon="8.62444009790684"><ele>7.0</ele><time>2026-05-04T09:33:16.001Z</time></trkpt><trkpt lat="39.94254589863644" lon="8.624275812785658"><ele>7.0</ele><time>2026-05-04T09:33:17.001Z</time></trkpt><trkpt lat="39.942895478316885" lon="8.624112473309664"><ele>7.0</ele><time>2026-05-04T09:33:18.001Z</time></trkpt><trkpt lat="39.94324197855258" lon="8.62394915350882"><ele>7.0</ele><time>2026-05-04T09:33:19.001Z</time></trkpt><trkpt lat="39.94359198589349" lon="8.623786117392058"><ele>7.0</ele><time>2026-05-04T09:33:20.001Z</time></trkpt><trkpt lat="39.943945216208725" lon="8.623623125164675"><ele>7.0</ele><time>2026-05-04T09:33:21.001Z</time></trkpt><trkpt lat="39.94429429644085" lon="8.623464332170022"><ele>7.0</ele><time>2026-05-04T09:33:22.001Z</time></trkpt><trkpt lat="39.94464623613301" lon="8.623308546917757"><ele>7.0</ele><time>2026-05-04T09:33:23.001Z</time></trkpt><trkpt lat="39.9449966613829" lon="8.623149950994366"><ele>6.5</ele><time>2026-05-04T09:33:24.001Z</time></trkpt><trkpt lat="39.94534663147335" lon="8.622989957397246"><ele>6.0</ele><time>2026-05-04T09:33:25.001Z</time></trkpt><trkpt lat="39.94569346053471" lon="8.622831100032224"><ele>7.0</ele><time>2026-05-04T09:33:26.001Z</time></trkpt><trkpt lat="39.94603525761984" lon="8.622679399242099"><ele>8.0</ele><time>2026-05-04T09:33:27.001Z</time></trkpt><trkpt lat="39.94635876809187" lon="8.62253952900789"><ele>8.0</ele><time>2026-05-04T09:33:28.001Z</time></trkpt><trkpt lat="39.946665650414786" lon="8.622407699931923"><ele>8.0</ele><time>2026-05-04T09:33:29.001Z</time></trkpt><trkpt lat="39.94695961347882" lon="8.62227834537948"><ele>8.5</ele><time>2026-05-04T09:33:30.001Z</time></trkpt><trkpt lat="39.94724120215539" lon="8.622150394832873"><ele>9.0</ele><time>2026-05-04T09:33:31.001Z</time></trkpt><trkpt lat="39.947523222663364" lon="8.622022856694677"><ele>12.0</ele><time>2026-05-04T09:33:32.001Z</time></trkpt><trkpt lat="39.94780142063879" lon="8.621898419771568"><ele>15.0</ele><time>2026-05-04T09:33:33.001Z</time></trkpt><trkpt lat="39.94807990532277" lon="8.62177370655622"><ele>15.0</ele><time>2026-05-04T09:33:34.001Z</time></trkpt><trkpt lat="39.94835885685481" lon="8.62164819627057"><ele>15.0</ele><time>2026-05-04T09:33:35.001Z</time></trkpt><trkpt lat="39.948630975331184" lon="8.621525238670785"><ele>18.0</ele><time>2026-05-04T09:33:36.001Z</time></trkpt><trkpt lat="39.94890340291992" lon="8.621403465927282"><ele>21.0</ele><time>2026-05-04T09:33:37.001Z</time></trkpt><trkpt lat="39.94918079262363" lon="8.621284645406956"><ele>21.5</ele><time>2026-05-04T09:33:38.001Z</time></trkpt><trkpt lat="39.94946628780208" lon="8.621156414953475"><ele>22.0</ele><time>2026-05-04T09:33:39.001Z</time></trkpt><trkpt lat="39.949748472271914" lon="8.621028770446943"><ele>22.0</ele><time>2026-05-04T09:33:40.001Z</time></trkpt><trkpt lat="39.950032547254956" lon="8.620903606266925"><ele>22.0</ele><time>2026-05-04T09:33:41.001Z</time></trkpt><trkpt lat="39.950318076892145" lon="8.620775325118807"><ele>23.0</ele><time>2026-05-04T09:33:42.001Z</time></trkpt><trkpt lat="39.9506110526753" lon="8.62065642691833"><ele>24.0</ele><time>2026-05-04T09:33:43.001Z</time></trkpt><trkpt lat="39.95089508567572" lon="8.620531704657562"><ele>24.0</ele><time>2026-05-04T09:33:44.001Z</time></trkpt><trkpt lat="39.95117624496341" lon="8.620394914372728"><ele>24.0</ele><time>2026-05-04T09:33:45.001Z</time></trkpt><trkpt lat="39.95144072881389" lon="8.62023853768027"><ele>23.5</ele><time>2026-05-04T09:33:46.001Z</time></trkpt><trkpt lat="39.95168108904366" lon="8.620076668900136"><ele>23.0</ele><time>2026-05-04T09:33:47.001Z</time></trkpt><trkpt lat="39.95191335275396" lon="8.619908698380705"><ele>23.0</ele><time>2026-05-04T09:33:48.001Z</time></trkpt><trkpt lat="39.952138119862745" lon="8.619744691744097"><ele>23.0</ele><time>2026-05-04T09:33:49.001Z</time></trkpt><trkpt lat="39.95236109513473" lon="8.619574810805055"><ele>22.0</ele><time>2026-05-04T09:33:50.001Z</time></trkpt><trkpt lat="39.95259107163476" lon="8.619404741671998"><ele>21.0</ele><time>2026-05-04T09:33:51.001Z</time></trkpt><trkpt lat="39.96849076750998" lon="8.623776514352727"><ele>26.5</ele><time>2026-05-04T09:34:52.003Z</time></trkpt><trkpt lat="39.96874591441844" lon="8.623998400066005"><ele>32.0</ele><time>2026-05-04T09:34:53.003Z</time></trkpt><trkpt lat="39.96899703988244" lon="8.624214101274362"><ele>31.5</ele><time>2026-05-04T09:34:54.003Z</time></trkpt><trkpt lat="39.969250129865735" lon="8.62442784882112"><ele>31.0</ele><time>2026-05-04T09:34:55.003Z</time></trkpt><trkpt lat="39.96950223270376" lon="8.62464187479596"><ele>30.5</ele><time>2026-05-04T09:34:56.003Z</time></trkpt><trkpt lat="39.9697496865855" lon="8.624854734852985"><ele>30.0</ele><time>2026-05-04T09:34:57.003Z</time></trkpt><trkpt lat="39.97000211952955" lon="8.625072764253266"><ele>29.0</ele><time>2026-05-04T09:34:58.003Z</time></trkpt><trkpt lat="39.97025628000508" lon="8.625289050350753"><ele>28.0</ele><time>2026-05-04T09:34:59.003Z</time></trkpt><trkpt lat="39.970500862983585" lon="8.625501726991265"><ele>28.0</ele><time>2026-05-04T09:35:00.003Z</time></trkpt><trkpt lat="39.970766177863226" lon="8.625703772681469"><ele>28.0</ele><time>2026-05-04T09:35:01.003Z</time></trkpt><trkpt lat="39.971031601439535" lon="8.625900324770948"><ele>28.0</ele><time>2026-05-04T09:35:02.003Z</time></trkpt><trkpt lat="39.97130620218044" lon="8.626084308194844"><ele>28.0</ele><time>2026-05-04T09:35:03.003Z</time></trkpt><trkpt lat="39.97157826194293" lon="8.626255861098699"><ele>27.5</ele><time>2026-05-04T09:35:04.003Z</time></trkpt><trkpt lat="39.971860713363625" lon="8.62641206397199"><ele>27.0</ele><time>2026-05-04T09:35:05.003Z</time></trkpt><trkpt lat="39.97214355198325" lon="8.626558827846585"><ele>27.0</ele><time>2026-05-04T09:35:06.003Z</time></trkpt><trkpt lat="39.97242833357131" lon="8.626700839166281"><ele>27.0</ele><time>2026-05-04T09:35:07.003Z</time></trkpt><trkpt lat="39.97271583444024" lon="8.626839802905156"><ele>26.5</ele><time>2026-05-04T09:35:08.003Z</time></trkpt><trkpt lat="39.9730013304336" lon="8.626974643284397"><ele>26.0</ele><time>2026-05-04T09:35:09.003Z</time></trkpt><trkpt lat="39.973284983971745" lon="8.627114360583263"><ele>25.0</ele><time>2026-05-04T09:35:10.003Z</time></trkpt><trkpt lat="39.97356496534572" lon="8.6272557334202"><ele>24.0</ele><time>2026-05-04T09:35:11.003Z</time></trkpt><trkpt lat="39.973848601261786" lon="8.627394425328628"><ele>24.0</ele><time>2026-05-04T09:35:12.003Z</time></trkpt><trkpt lat="39.974138856828546" lon="8.627536567441254"><ele>24.0</ele><time>2026-05-04T09:35:13.001Z</time></trkpt><trkpt lat="39.97444427860336" lon="8.62769897640753"><ele>23.0</ele><time>2026-05-04T09:35:14.001Z</time></trkpt><trkpt lat="39.974758537038376" lon="8.627879218720278"><ele>22.0</ele><time>2026-05-04T09:35:15.001Z</time></trkpt><trkpt lat="39.97508945533374" lon="8.628053106265265"><ele>20.0</ele><time>2026-05-04T09:35:16.001Z</time></trkpt><trkpt lat="39.97542257658422" lon="8.62821153371097"><ele>18.0</ele><time>2026-05-04T09:35:17.001Z</time></trkpt><trkpt lat="39.97573321674659" lon="8.628358118135182"><ele>16.5</ele><time>2026-05-04T09:35:18.001Z</time></trkpt><trkpt lat="39.97602526157261" lon="8.628490344388236"><ele>15.0</ele><time>2026-05-04T09:35:19.001Z</time></trkpt><trkpt lat="39.97632199984489" lon="8.628628823731061"><ele>15.5</ele><time>2026-05-04T09:35:20.001Z</time></trkpt><trkpt lat="39.97661691106604" lon="8.628767716174943"><ele>16.0</ele><time>2026-05-04T09:35:21.001Z</time></trkpt><trkpt lat="39.976915990827685" lon="8.62890910420221"><ele>17.0</ele><time>2026-05-04T09:35:22.001Z</time></trkpt><trkpt lat="39.977210030437675" lon="8.629050059528202"><ele>18.0</ele><time>2026-05-04T09:35:23.001Z</time></trkpt><trkpt lat="39.97750328814996" lon="8.629193107741125"><ele>18.5</ele><time>2026-05-04T09:35:24.001Z</time></trkpt><trkpt lat="39.9777982759122" lon="8.629339344064705"><ele>19.0</ele><time>2026-05-04T09:35:25.001Z</time></trkpt><trkpt lat="39.97809936358704" lon="8.629488028282614"><ele>20.0</ele><time>2026-05-04T09:35:26.001Z</time></trkpt><trkpt lat="39.97840735282658" lon="8.629637519103323"><ele>21.0</ele><time>2026-05-04T09:35:27.001Z</time></trkpt><trkpt lat="39.97872549701893" lon="8.6297928389801"><ele>21.0</ele><time>2026-05-04T09:35:28.001Z</time></trkpt><trkpt lat="39.979047514378344" lon="8.629962311723686"><ele>21.0</ele><time>2026-05-04T09:35:29.001Z</time></trkpt><trkpt lat="39.979365043262256" lon="8.630155290637907"><ele>22.0</ele><time>2026-05-04T09:35:30.001Z</time></trkpt><trkpt lat="39.97968369780576" lon="8.630339516641067"><ele>23.0</ele><time>2026-05-04T09:35:31.001Z</time></trkpt><trkpt lat="39.97999842514546" lon="8.630512444703408"><ele>22.0</ele><time>2026-05-04T09:35:32.001Z</time></trkpt><trkpt lat="39.98031414572529" lon="8.630688353535218"><ele>21.0</ele><time>2026-05-04T09:35:33.001Z</time></trkpt><trkpt lat="39.98061910685505" lon="8.630879935562522"><ele>20.5</ele><time>2026-05-04T09:35:34.001Z</time></trkpt><trkpt lat="39.98091728811276" lon="8.631085574051259"><ele>20.0</ele><time>2026-05-04T09:35:35.001Z</time></trkpt><trkpt lat="39.981210767394685" lon="8.63130100109032"><ele>20.0</ele><time>2026-05-04T09:35:36.001Z</time></trkpt><trkpt lat="39.98149603828348" lon="8.63152857855038"><ele>20.0</ele><time>2026-05-04T09:35:37.001Z</time></trkpt><trkpt lat="39.98177933094837" lon="8.6317725472278"><ele>20.5</ele><time>2026-05-04T09:35:38.001Z</time></trkpt><trkpt lat="39.98206579870319" lon="8.632036636943328"><ele>21.0</ele><time>2026-05-04T09:35:39.001Z</time></trkpt><trkpt lat="39.98235749634584" lon="8.632327722278191"><ele>20.0</ele><time>2026-05-04T09:35:40.001Z</time></trkpt><trkpt lat="39.982662670335685" lon="8.632646916647186"><ele>19.0</ele><time>2026-05-04T09:35:41.001Z</time></trkpt><trkpt lat="39.98296920515238" lon="8.63298679148888"><ele>19.0</ele><time>2026-05-04T09:35:42.001Z</time></trkpt><trkpt lat="39.98324740368022" lon="8.633321445222695"><ele>19.0</ele><time>2026-05-04T09:35:43.001Z</time></trkpt><trkpt lat="39.983495254547606" lon="8.633631947539401"><ele>19.0</ele><time>2026-05-04T09:35:44.001Z</time></trkpt><trkpt lat="39.983730789247566" lon="8.633930051937968"><ele>19.0</ele><time>2026-05-04T09:35:45.001Z</time></trkpt><trkpt lat="39.98397593387366" lon="8.634236091021783"><ele>18.0</ele><time>2026-05-04T09:35:46.001Z</time></trkpt><trkpt lat="39.9842225522369" lon="8.63454772012783"><ele>17.0</ele><time>2026-05-04T09:35:47.001Z</time></trkpt><trkpt lat="39.98447229007487" lon="8.63486690593152"><ele>17.0</ele><time>2026-05-04T09:35:48.001Z</time></trkpt><trkpt lat="39.9847083815692" lon="8.635165354084126"><ele>17.0</ele><time>2026-05-04T09:35:49.001Z</time></trkpt><trkpt lat="39.984938063474566" lon="8.635457150048886"><ele>17.5</ele><time>2026-05-04T09:35:50.001Z</time></trkpt><trkpt lat="39.985165796113755" lon="8.635743961911453"><ele>18.0</ele><time>2026-05-04T09:35:51.001Z</time></trkpt><trkpt lat="39.997374662433415" lon="8.655861495149432"><ele>16.5</ele><time>2026-05-04T09:36:52.002Z</time></trkpt><trkpt lat="39.99759492370472" lon="8.65618225584494"><ele>15.0</ele><time>2026-05-04T09:36:53.002Z</time></trkpt><trkpt lat="39.99781734271801" lon="8.656499377466728"><ele>15.0</ele><time>2026-05-04T09:36:54.002Z</time></trkpt><trkpt lat="39.998039866830204" lon="8.656808755301816"><ele>15.0</ele><time>2026-05-04T09:36:55.002Z</time></trkpt><trkpt lat="39.99827970921165" lon="8.657117580080316"><ele>14.0</ele><time>2026-05-04T09:36:56.002Z</time></trkpt><trkpt lat="39.99852897449645" lon="8.657419396556866"><ele>13.0</ele><time>2026-05-04T09:36:57.002Z</time></trkpt><trkpt lat="39.99878587967362" lon="8.657718918372042"><ele>13.5</ele><time>2026-05-04T09:36:58.002Z</time></trkpt><trkpt lat="39.99904583116145" lon="8.6580032802071"><ele>14.0</ele><time>2026-05-04T09:36:59.002Z</time></trkpt><trkpt lat="39.99931934223891" lon="8.658275553182063"><ele>14.0</ele><time>2026-05-04T09:37:00.002Z</time></trkpt><trkpt lat="39.99959069300403" lon="8.658533646284795"><ele>14.0</ele><time>2026-05-04T09:37:01.002Z</time></trkpt><trkpt lat="39.99986501358103" lon="8.658789085188898"><ele>16.0</ele><time>2026-05-04T09:37:02.002Z</time></trkpt><trkpt lat="40.00014143754887" lon="8.659037553903643"><ele>18.0</ele><time>2026-05-04T09:37:03.002Z</time></trkpt><trkpt lat="40.0004175992175" lon="8.659279260662233"><ele>19.0</ele><time>2026-05-04T09:37:04.003Z</time></trkpt><trkpt lat="40.000697090225934" lon="8.659509274915264"><ele>20.0</ele><time>2026-05-04T09:37:05.003Z</time></trkpt><trkpt lat="40.00097543325374" lon="8.65973817198928"><ele>20.0</ele><time>2026-05-04T09:37:06.003Z</time></trkpt><trkpt lat="40.001252381773014" lon="8.659966479459676"><ele>20.0</ele><time>2026-05-04T09:37:07.003Z</time></trkpt><trkpt lat="40.00153178352884" lon="8.660199178712237"><ele>20.5</ele><time>2026-05-04T09:37:08.003Z</time></trkpt><trkpt lat="40.0018132588482" lon="8.660422939221078"><ele>21.0</ele><time>2026-05-04T09:37:09.003Z</time></trkpt><trkpt lat="40.002090833642654" lon="8.660642225109084"><ele>21.0</ele><time>2026-05-04T09:37:10.003Z</time></trkpt><trkpt lat="40.002373323384006" lon="8.660864844712517"><ele>21.0</ele><time>2026-05-04T09:37:11.003Z</time></trkpt><trkpt lat="40.00265053747076" lon="8.66109812090702"><ele>22.0</ele><time>2026-05-04T09:37:12.003Z</time></trkpt><trkpt lat="40.002929341578174" lon="8.66131774655223"><ele>23.0</ele><time>2026-05-04T09:37:13.003Z</time></trkpt><trkpt lat="40.003212818246375" lon="8.661545630642374"><ele>22.5</ele><time>2026-05-04T09:37:14.003Z</time></trkpt><trkpt lat="40.00348477152624" lon="8.661767433445819"><ele>22.0</ele><time>2026-05-04T09:37:15.003Z</time></trkpt><trkpt lat="40.00376907282277" lon="8.661997556498372"><ele>22.0</ele><time>2026-05-04T09:37:16.003Z</time></trkpt><trkpt lat="40.004052580799986" lon="8.662231179405952"><ele>22.0</ele><time>2026-05-04T09:37:17.003Z</time></trkpt><trkpt lat="40.00434560854318" lon="8.66246700589695"><ele>22.0</ele><time>2026-05-04T09:37:18.003Z</time></trkpt><trkpt lat="40.004639163358554" lon="8.662696755464435"><ele>22.0</ele><time>2026-05-04T09:37:19.001Z</time></trkpt><trkpt lat="40.00494217243742" lon="8.662913103826064"><ele>22.5</ele><time>2026-05-04T09:37:20.001Z</time></trkpt><trkpt lat="40.00524733335662" lon="8.663113077343224"><ele>23.0</ele><time>2026-05-04T09:37:21.001Z</time></trkpt><trkpt lat="40.00556399264545" lon="8.66330789840962"><ele>22.5</ele><time>2026-05-04T09:37:22.001Z</time></trkpt><trkpt lat="40.00588757798703" lon="8.663498748185999"><ele>22.0</ele><time>2026-05-04T09:37:23.001Z</time></trkpt><trkpt lat="40.00621405863186" lon="8.663681618302325"><ele>22.0</ele><time>2026-05-04T09:37:24.001Z</time></trkpt><trkpt lat="40.006543924226804" lon="8.663846923593855"><ele>22.0</ele><time>2026-05-04T09:37:25.001Z</time></trkpt><trkpt lat="40.00687395725099" lon="8.663998904958756"><ele>21.0</ele><time>2026-05-04T09:37:26.001Z</time></trkpt><trkpt lat="40.00720944864956" lon="8.66413787994386"><ele>20.0</ele><time>2026-05-04T09:37:27.001Z</time></trkpt><trkpt lat="40.0075457572009" lon="8.664266187811169"><ele>20.0</ele><time>2026-05-04T09:37:28.001Z</time></trkpt><trkpt lat="40.00789025675904" lon="8.664387621317024"><ele>20.0</ele><time>2026-05-04T09:37:29.001Z</time></trkpt><trkpt lat="40.008228043161246" lon="8.664505318149201"><ele>19.5</ele><time>2026-05-04T09:37:30.001Z</time></trkpt><trkpt lat="40.008569459772964" lon="8.664617184145987"><ele>19.0</ele><time>2026-05-04T09:37:31.001Z</time></trkpt><trkpt lat="40.00891372968374" lon="8.664734859262266"><ele>20.0</ele><time>2026-05-04T09:37:32.001Z</time></trkpt><trkpt lat="40.00925745671316" lon="8.664849182192475"><ele>21.0</ele><time>2026-05-04T09:37:33.001Z</time></trkpt><trkpt lat="40.00959812249394" lon="8.664965301416132"><ele>21.0</ele><time>2026-05-04T09:37:34.001Z</time></trkpt><trkpt lat="40.00993968943485" lon="8.6650864038517"><ele>21.0</ele><time>2026-05-04T09:37:35.001Z</time></trkpt><trkpt lat="40.01028962455065" lon="8.665215091292119"><ele>21.0</ele><time>2026-05-04T09:37:36.001Z</time></trkpt><trkpt lat="40.010644644291766" lon="8.66533999960202"><ele>21.0</ele><time>2026-05-04T09:37:37.001Z</time></trkpt><trkpt lat="40.01100512393437" lon="8.665455211712807"><ele>21.0</ele><time>2026-05-04T09:37:38.001Z</time></trkpt><trkpt lat="40.01137256165722" lon="8.66557115784164"><ele>21.0</ele><time>2026-05-04T09:37:39.001Z</time></trkpt><trkpt lat="40.01174113101176" lon="8.665693515652434"><ele>22.0</ele><time>2026-05-04T09:37:40.001Z</time></trkpt><trkpt lat="40.01210933025" lon="8.665815544207433"><ele>23.0</ele><time>2026-05-04T09:37:41.001Z</time></trkpt><trkpt lat="40.01247635629249" lon="8.665936665538716"><ele>22.5</ele><time>2026-05-04T09:37:42.001Z</time></trkpt><trkpt lat="40.012843519509495" lon="8.666057603337723"><ele>22.0</ele><time>2026-05-04T09:37:43.001Z</time></trkpt><trkpt lat="40.01320937533441" lon="8.66616806742271"><ele>23.5</ele><time>2026-05-04T09:37:44.001Z</time></trkpt><trkpt lat="40.01357943783121" lon="8.666276427693703"><ele>25.0</ele><time>2026-05-04T09:37:45.001Z</time></trkpt><trkpt lat="40.013943968810985" lon="8.666384779258372"><ele>24.5</ele><time>2026-05-04T09:37:46.001Z</time></trkpt><trkpt lat="40.01429463720085" lon="8.666490325238739"><ele>24.0</ele><time>2026-05-04T09:37:47.001Z</time></trkpt><trkpt lat="40.01461488976834" lon="8.666588610680686"><ele>24.0</ele><time>2026-05-04T09:37:48.001Z</time></trkpt><trkpt lat="40.014915207645124" lon="8.666680290478102"><ele>24.0</ele><time>2026-05-04T09:37:49.001Z</time></trkpt><trkpt lat="40.0151920341605" lon="8.666765126050512"><ele>24.0</ele><time>2026-05-04T09:37:50.001Z</time></trkpt><trkpt lat="40.01545590704546" lon="8.666847175487781"><ele>24.0</ele><time>2026-05-04T09:37:51.001Z</time></trkpt><trkpt lat="40.03485159405669" lon="8.676991686072768"><ele>37.0</ele><time>2026-05-04T09:38:52.002Z</time></trkpt><trkpt lat="40.03503926337546" lon="8.677358905924429"><ele>50.0</ele><time>2026-05-04T09:38:53.002Z</time></trkpt><trkpt lat="40.03520258331967" lon="8.677742650015789"><ele>52.0</ele><time>2026-05-04T09:38:54.002Z</time></trkpt><trkpt lat="40.03534873238715" lon="8.67815355777278"><ele>54.0</ele><time>2026-05-04T09:38:55.002Z</time></trkpt><trkpt lat="40.03547626331232" lon="8.678576967723581"><ele>55.0</ele><time>2026-05-04T09:38:56.002Z</time></trkpt><trkpt lat="40.03558868253128" lon="8.679012988752536"><ele>56.0</ele><time>2026-05-04T09:38:57.002Z</time></trkpt><trkpt lat="40.03569306801309" lon="8.67944939424558"><ele>58.0</ele><time>2026-05-04T09:38:58.002Z</time></trkpt><trkpt lat="40.0358014231296" lon="8.679889348111242"><ele>60.0</ele><time>2026-05-04T09:38:59.002Z</time></trkpt><trkpt lat="40.035915637238354" lon="8.680319796743259"><ele>60.0</ele><time>2026-05-04T09:39:00.002Z</time></trkpt><trkpt lat="40.03603177581811" lon="8.680747246556159"><ele>60.0</ele><time>2026-05-04T09:39:01.002Z</time></trkpt><trkpt lat="40.036147016239106" lon="8.681167199304936"><ele>60.5</ele><time>2026-05-04T09:39:02.002Z</time></trkpt><trkpt lat="40.03626302901077" lon="8.68158664264982"><ele>61.0</ele><time>2026-05-04T09:39:03.002Z</time></trkpt><trkpt lat="40.03637556048915" lon="8.681999588834854"><ele>62.0</ele><time>2026-05-04T09:39:04.002Z</time></trkpt><trkpt lat="40.036484893738525" lon="8.682414974478766"><ele>63.0</ele><time>2026-05-04T09:39:05.002Z</time></trkpt><trkpt lat="40.03659714819109" lon="8.68283107590805"><ele>63.5</ele><time>2026-05-04T09:39:06.002Z</time></trkpt><trkpt lat="40.03670806865787" lon="8.683246516246353"><ele>64.0</ele><time>2026-05-04T09:39:07.002Z</time></trkpt><trkpt lat="40.03681315842469" lon="8.683661591726514"><ele>65.0</ele><time>2026-05-04T09:39:08.002Z</time></trkpt><trkpt lat="40.03692632889763" lon="8.684077740684252"><ele>66.0</ele><time>2026-05-04T09:39:09.002Z</time></trkpt><trkpt lat="40.03703775320199" lon="8.684492792622008"><ele>66.0</ele><time>2026-05-04T09:39:10.002Z</time></trkpt><trkpt lat="40.03714836875567" lon="8.684905532749497"><ele>66.0</ele><time>2026-05-04T09:39:11.002Z</time></trkpt><trkpt lat="40.037256582488325" lon="8.685316292659705"><ele>67.5</ele><time>2026-05-04T09:39:12.002Z</time></trkpt><trkpt lat="40.03736635267834" lon="8.685722849550533"><ele>69.0</ele><time>2026-05-04T09:39:13.002Z</time></trkpt><trkpt lat="40.037470174962046" lon="8.68612604084152"><ele>69.0</ele><time>2026-05-04T09:39:14.002Z</time></trkpt><trkpt lat="40.0375778698643" lon="8.68653341276966"><ele>69.0</ele><time>2026-05-04T09:39:15.002Z</time></trkpt><trkpt lat="40.03768293043861" lon="8.686939650289641"><ele>70.0</ele><time>2026-05-04T09:39:16.002Z</time></trkpt><trkpt lat="40.03778607803693" lon="8.687343172802027"><ele>71.0</ele><time>2026-05-04T09:39:17.002Z</time></trkpt><trkpt lat="40.03789695876924" lon="8.687754483337734"><ele>71.5</ele><time>2026-05-04T09:39:18.002Z</time></trkpt><trkpt lat="40.03800926409264" lon="8.68816149524077"><ele>72.0</ele><time>2026-05-04T09:39:19.002Z</time></trkpt><trkpt lat="40.038118426568424" lon="8.688567462001105"><ele>73.5</ele><time>2026-05-04T09:39:20.002Z</time></trkpt><trkpt lat="40.038225924490526" lon="8.688972447356102"><ele>75.0</ele><time>2026-05-04T09:39:21.003Z</time></trkpt><trkpt lat="40.03833325512474" lon="8.689376228620413"><ele>76.5</ele><time>2026-05-04T09:39:22.003Z</time></trkpt><trkpt lat="40.038441728863084" lon="8.689774905634785"><ele>78.0</ele><time>2026-05-04T09:39:23.003Z</time></trkpt><trkpt lat="40.03854826273917" lon="8.69017129695531"><ele>80.5</ele><time>2026-05-04T09:39:24.003Z</time></trkpt><trkpt lat="40.03865284809123" lon="8.690564770018089"><ele>83.0</ele><time>2026-05-04T09:39:25.001Z</time></trkpt><trkpt lat="40.03875799316432" lon="8.690963736028088"><ele>83.0</ele><time>2026-05-04T09:39:26.001Z</time></trkpt><trkpt lat="40.03886048151951" lon="8.691356457067808"><ele>83.0</ele><time>2026-05-04T09:39:27.001Z</time></trkpt><trkpt lat="40.03896414078671" lon="8.691750111455045"><ele>83.5</ele><time>2026-05-04T09:39:28.001Z</time></trkpt><trkpt lat="40.03907370978847" lon="8.692148746309591"><ele>84.0</ele><time>2026-05-04T09:39:29.001Z</time></trkpt><trkpt lat="40.039180960937415" lon="8.692542739159473"><ele>85.5</ele><time>2026-05-04T09:39:30.001Z</time></trkpt><trkpt lat="40.03928628425261" lon="8.692938902574458"><ele>87.0</ele><time>2026-05-04T09:39:31.001Z</time></trkpt><trkpt lat="40.039390164434955" lon="8.6933358495898"><ele>90.5</ele><time>2026-05-04T09:39:32.001Z</time></trkpt><trkpt lat="40.03949450736037" lon="8.693734280937244"><ele>94.0</ele><time>2026-05-04T09:39:33.001Z</time></trkpt><trkpt lat="40.039603617086065" lon="8.69413654774319"><ele>98.5</ele><time>2026-05-04T09:39:34.001Z</time></trkpt><trkpt lat="40.03971515539745" lon="8.694537108879258"><ele>103.0</ele><time>2026-05-04T09:39:35.001Z</time></trkpt><trkpt lat="40.03982590188463" lon="8.694938526013727"><ele>107.5</ele><time>2026-05-04T09:39:36.001Z</time></trkpt><trkpt lat="40.03993680861848" lon="8.695346614942833"><ele>112.0</ele><time>2026-05-04T09:39:37.001Z</time></trkpt><trkpt lat="40.040045024699715" lon="8.695758441630835"><ele>105.0</ele><time>2026-05-04T09:39:38.001Z</time></trkpt><trkpt lat="40.04015565061748" lon="8.69617933878477"><ele>98.0</ele><time>2026-05-04T09:39:39.001Z</time></trkpt><trkpt lat="40.04026832851413" lon="8.696601656441626"><ele>98.5</ele><time>2026-05-04T09:39:40.001Z</time></trkpt><trkpt lat="40.04038145688728" lon="8.697024695678431"><ele>99.0</ele><time>2026-05-04T09:39:41.001Z</time></trkpt><trkpt lat="40.040482996578085" lon="8.697452290645854"><ele>98.0</ele><time>2026-05-04T09:39:42.001Z</time></trkpt><trkpt lat="40.04056581032112" lon="8.697888929294741"><ele>97.0</ele><time>2026-05-04T09:39:43.001Z</time></trkpt><trkpt lat="40.04062669945256" lon="8.698336789671409"><ele>95.5</ele><time>2026-05-04T09:39:44.001Z</time></trkpt><trkpt lat="40.040671658362406" lon="8.698784697762228"><ele>94.0</ele><time>2026-05-04T09:39:45.001Z</time></trkpt><trkpt lat="40.040717384218205" lon="8.699229509437318"><ele>92.0</ele><time>2026-05-04T09:39:46.001Z</time></trkpt><trkpt lat="40.04078400524977" lon="8.6996721027581"><ele>90.0</ele><time>2026-05-04T09:39:47.001Z</time></trkpt><trkpt lat="40.04085188127193" lon="8.700107253339484"><ele>85.5</ele><time>2026-05-04T09:39:48.001Z</time></trkpt><trkpt lat="40.04091271143334" lon="8.700537568023092"><ele>81.0</ele><time>2026-05-04T09:39:49.001Z</time></trkpt><trkpt lat="40.04097411706953" lon="8.700967277595694"><ele>84.0</ele><time>2026-05-04T09:39:50.001Z</time></trkpt><trkpt lat="40.04103382067344" lon="8.701394765417396"><ele>87.0</ele><time>2026-05-04T09:39:51.001Z</time></trkpt><trkpt lat="40.05493896940845" lon="8.714729245049492"><ele>125.0</ele><time>2026-05-04T09:40:52.002Z</time></trkpt><trkpt lat="40.05517180871957" lon="8.714990502429794"><ele>163.0</ele><time>2026-05-04T09:40:53.002Z</time></trkpt><trkpt lat="40.05540804196699" lon="8.715258081556124"><ele>162.5</ele><time>2026-05-04T09:40:54.002Z</time></trkpt><trkpt lat="40.05563870469811" lon="8.715528217972441"><ele>162.0</ele><time>2026-05-04T09:40:55.002Z</time></trkpt><trkpt lat="40.055870930131015" lon="8.715803748261973"><ele>167.5</ele><time>2026-05-04T09:40:56.002Z</time></trkpt><trkpt lat="40.056104075342006" lon="8.716083096862258"><ele>173.0</ele><time>2026-05-04T09:40:57.002Z</time></trkpt><trkpt lat="40.05633999796404" lon="8.71635624476819"><ele>173.0</ele><time>2026-05-04T09:40:58.002Z</time></trkpt><trkpt lat="40.056577822982" lon="8.71662674414424"><ele>173.0</ele><time>2026-05-04T09:40:59.002Z</time></trkpt><trkpt lat="40.056812459004036" lon="8.716898206344633"><ele>174.5</ele><time>2026-05-04T09:41:00.002Z</time></trkpt><trkpt lat="40.05704498750062" lon="8.717167594487748"><ele>176.0</ele><time>2026-05-04T09:41:01.002Z</time></trkpt><trkpt lat="40.057273277673325" lon="8.717436055812021"><ele>175.0</ele><time>2026-05-04T09:41:02.002Z</time></trkpt><trkpt lat="40.05750328321076" lon="8.717704811963776"><ele>174.0</ele><time>2026-05-04T09:41:03.002Z</time></trkpt><trkpt lat="40.05773157854268" lon="8.717971463440406"><ele>177.5</ele><time>2026-05-04T09:41:04.002Z</time></trkpt><trkpt lat="40.057959407835476" lon="8.718236824420337"><ele>181.0</ele><time>2026-05-04T09:41:05.002Z</time></trkpt><trkpt lat="40.05818326603196" lon="8.718504357795988"><ele>183.0</ele><time>2026-05-04T09:41:06.002Z</time></trkpt><trkpt lat="40.058401562062315" lon="8.718783792122645"><ele>185.0</ele><time>2026-05-04T09:41:07.002Z</time></trkpt><trkpt lat="40.05860211337108" lon="8.719079636809488"><ele>188.0</ele><time>2026-05-04T09:41:08.002Z</time></trkpt><trkpt lat="40.05878696697585" lon="8.719404052705965"><ele>191.0</ele><time>2026-05-04T09:41:09.002Z</time></trkpt><trkpt lat="40.05895668229437" lon="8.71973972509915"><ele>191.0</ele><time>2026-05-04T09:41:10.002Z</time></trkpt><trkpt lat="40.0591106777893" lon="8.72009832230732"><ele>191.0</ele><time>2026-05-04T09:41:11.002Z</time></trkpt><trkpt lat="40.05924303505085" lon="8.7204728551629"><ele>192.5</ele><time>2026-05-04T09:41:12.002Z</time></trkpt><trkpt lat="40.05935043554082" lon="8.720868686729805"><ele>194.0</ele><time>2026-05-04T09:41:13.002Z</time></trkpt><trkpt lat="40.05944899657454" lon="8.721269134719215"><ele>195.0</ele><time>2026-05-04T09:41:14.002Z</time></trkpt><trkpt lat="40.059541896068886" lon="8.721667763433294"><ele>196.0</ele><time>2026-05-04T09:41:15.002Z</time></trkpt><trkpt lat="40.059655128142495" lon="8.722085975624685"><ele>197.0</ele><time>2026-05-04T09:41:16.002Z</time></trkpt><trkpt lat="40.059766579765714" lon="8.722478498105506"><ele>198.0</ele><time>2026-05-04T09:41:17.002Z</time></trkpt><trkpt lat="40.05987388071715" lon="8.722877762134337"><ele>199.0</ele><time>2026-05-04T09:41:18.002Z</time></trkpt><trkpt lat="40.059976312703355" lon="8.723284896032032"><ele>200.0</ele><time>2026-05-04T09:41:19.002Z</time></trkpt><trkpt lat="40.06007521127935" lon="8.723692118805632"><ele>201.0</ele><time>2026-05-04T09:41:20.002Z</time></trkpt><trkpt lat="40.06016842352028" lon="8.724095223430684"><ele>202.0</ele><time>2026-05-04T09:41:21.002Z</time></trkpt><trkpt lat="40.0602713721601" lon="8.724504709567084"><ele>202.5</ele><time>2026-05-04T09:41:22.002Z</time></trkpt><trkpt lat="40.060373091733524" lon="8.724915770119877"><ele>203.0</ele><time>2026-05-04T09:41:23.002Z</time></trkpt><trkpt lat="40.060478786494414" lon="8.72532615665304"><ele>202.0</ele><time>2026-05-04T09:41:24.002Z</time></trkpt><trkpt lat="40.0605848302497" lon="8.725739205518794"><ele>201.0</ele><time>2026-05-04T09:41:25.002Z</time></trkpt><trkpt lat="40.060691017442295" lon="8.726155252038161"><ele>201.0</ele><time>2026-05-04T09:41:26.002Z</time></trkpt><trkpt lat="40.060799393189825" lon="8.72656515789254"><ele>201.0</ele><time>2026-05-04T09:41:27.002Z</time></trkpt><trkpt lat="40.0609063999492" lon="8.726977358514832"><ele>200.0</ele><time>2026-05-04T09:41:28.002Z</time></trkpt><trkpt lat="40.06101092799005" lon="8.727390632358594"><ele>199.0</ele><time>2026-05-04T09:41:29.002Z</time></trkpt><trkpt lat="40.061113906691816" lon="8.727795432375341"><ele>199.0</ele><time>2026-05-04T09:41:30.002Z</time></trkpt><trkpt lat="40.06121755543322" lon="8.728199054448893"><ele>199.0</ele><time>2026-05-04T09:41:31.001Z</time></trkpt><trkpt lat="40.06132044891687" lon="8.728601967215042"><ele>202.0</ele><time>2026-05-04T09:41:32.001Z</time></trkpt><trkpt lat="40.061423661543174" lon="8.729003995325973"><ele>205.0</ele><time>2026-05-04T09:41:33.001Z</time></trkpt><trkpt lat="40.06152353372305" lon="8.729401778028162"><ele>206.5</ele><time>2026-05-04T09:41:34.001Z</time></trkpt><trkpt lat="40.06161958899403" lon="8.729802549925543"><ele>208.0</ele><time>2026-05-04T09:41:35.001Z</time></trkpt><trkpt lat="40.06171337575421" lon="8.73020330900556"><ele>209.5</ele><time>2026-05-04T09:41:36.001Z</time></trkpt><trkpt lat="40.0618083108809" lon="8.730603411984454"><ele>211.0</ele><time>2026-05-04T09:41:37.001Z</time></trkpt><trkpt lat="40.06190313659312" lon="8.731003254020578"><ele>212.0</ele><time>2026-05-04T09:41:38.001Z</time></trkpt><trkpt lat="40.062001316270454" lon="8.731407388335429"><ele>213.0</ele><time>2026-05-04T09:41:39.001Z</time></trkpt><trkpt lat="40.06210193718416" lon="8.731816651572029"><ele>213.0</ele><time>2026-05-04T09:41:40.001Z</time></trkpt><trkpt lat="40.062207656341116" lon="8.73222626028627"><ele>213.0</ele><time>2026-05-04T09:41:41.001Z</time></trkpt><trkpt lat="40.06232033269706" lon="8.732636613424033"><ele>214.0</ele><time>2026-05-04T09:41:42.001Z</time></trkpt><trkpt lat="40.06243515380039" lon="8.73305117839503"><ele>215.0</ele><time>2026-05-04T09:41:43.001Z</time></trkpt><trkpt lat="40.06254254709215" lon="8.733462116877007"><ele>217.0</ele><time>2026-05-04T09:41:44.001Z</time></trkpt><trkpt lat="40.06265448712818" lon="8.733872333790382"><ele>219.0</ele><time>2026-05-04T09:41:45.001Z</time></trkpt><trkpt lat="40.06275550071553" lon="8.7342806092332"><ele>220.5</ele><time>2026-05-04T09:41:46.001Z</time></trkpt><trkpt lat="40.06285943461547" lon="8.734691966353274"><ele>222.0</ele><time>2026-05-04T09:41:47.001Z</time></trkpt><trkpt lat="40.06296044880986" lon="8.73510007554532"><ele>222.0</ele><time>2026-05-04T09:41:48.001Z</time></trkpt><trkpt lat="40.06306215178756" lon="8.7355077435465"><ele>222.0</ele><time>2026-05-04T09:41:49.001Z</time></trkpt><trkpt lat="40.06316301626867" lon="8.735917221120696"><ele>221.0</ele><time>2026-05-04T09:41:50.001Z</time></trkpt><trkpt lat="40.06327142660367" lon="8.736322043157445"><ele>220.0</ele><time>2026-05-04T09:41:51.001Z</time></trkpt><trkpt lat="40.07906212900904" lon="8.75176670917384"><ele>245.5</ele><time>2026-05-04T09:42:52.001Z</time></trkpt><trkpt lat="40.079393037808515" lon="8.751772890940446"><ele>271.0</ele><time>2026-05-04T09:42:53.001Z</time></trkpt><trkpt lat="40.07972204294485" lon="8.75178482487814"><ele>271.0</ele><time>2026-05-04T09:42:54.001Z</time></trkpt><trkpt lat="40.08005561583612" lon="8.75179270665905"><ele>271.0</ele><time>2026-05-04T09:42:55.001Z</time></trkpt><trkpt lat="40.08038710062771" lon="8.751795437802766"><ele>271.0</ele><time>2026-05-04T09:42:56.001Z</time></trkpt><trkpt lat="40.080719977264096" lon="8.7518005020785"><ele>271.0</ele><time>2026-05-04T09:42:57.001Z</time></trkpt><trkpt lat="40.081052037237576" lon="8.751806154821448"><ele>271.0</ele><time>2026-05-04T09:42:58.001Z</time></trkpt><trkpt lat="40.081390641683385" lon="8.751810832315817"><ele>271.0</ele><time>2026-05-04T09:42:59.001Z</time></trkpt><trkpt lat="40.08172653208613" lon="8.751820360912163"><ele>271.0</ele><time>2026-05-04T09:43:00.001Z</time></trkpt><trkpt lat="40.08206275616332" lon="8.751836827626137"><ele>271.0</ele><time>2026-05-04T09:43:01.001Z</time></trkpt><trkpt lat="40.08240461330395" lon="8.751875705890285"><ele>266.0</ele><time>2026-05-04T09:43:02.001Z</time></trkpt><trkpt lat="40.08274098948251" lon="8.751955869454198"><ele>261.0</ele><time>2026-05-04T09:43:03.001Z</time></trkpt><trkpt lat="40.08307407637148" lon="8.752070787622579"><ele>262.5</ele><time>2026-05-04T09:43:04.001Z</time></trkpt><trkpt lat="40.08339505147836" lon="8.752219514867395"><ele>264.0</ele><time>2026-05-04T09:43:05.001Z</time></trkpt><trkpt lat="40.08370661598716" lon="8.752391602685867"><ele>264.0</ele><time>2026-05-04T09:43:06.001Z</time></trkpt><trkpt lat="40.08400748248757" lon="8.752586460597646"><ele>264.0</ele><time>2026-05-04T09:43:07.001Z</time></trkpt><trkpt lat="40.08430469723636" lon="8.752788639960976"><ele>263.5</ele><time>2026-05-04T09:43:08.001Z</time></trkpt><trkpt lat="40.08459731156639" lon="8.7529833513415"><ele>263.0</ele><time>2026-05-04T09:43:09.001Z</time></trkpt><trkpt lat="40.084894102640085" lon="8.753166101491958"><ele>267.5</ele><time>2026-05-04T09:43:10.001Z</time></trkpt><trkpt lat="40.08519843213514" lon="8.753346470224177"><ele>272.0</ele><time>2026-05-04T09:43:11.001Z</time></trkpt><trkpt lat="40.08549775392798" lon="8.753529420465528"><ele>276.0</ele><time>2026-05-04T09:43:12.001Z</time></trkpt><trkpt lat="40.08579342532551" lon="8.753716234662043"><ele>280.0</ele><time>2026-05-04T09:43:13.001Z</time></trkpt><trkpt lat="40.086089217190235" lon="8.7539013009791"><ele>280.0</ele><time>2026-05-04T09:43:14.001Z</time></trkpt><trkpt lat="40.08637826170361" lon="8.754082265151245"><ele>280.0</ele><time>2026-05-04T09:43:15.001Z</time></trkpt><trkpt lat="40.086671538445664" lon="8.754261604890866"><ele>281.5</ele><time>2026-05-04T09:43:16.001Z</time></trkpt><trkpt lat="40.08695742165235" lon="8.754439233143772"><ele>283.0</ele><time>2026-05-04T09:43:17.002Z</time></trkpt><trkpt lat="40.08725318795551" lon="8.754618472044394"><ele>284.0</ele><time>2026-05-04T09:43:18.002Z</time></trkpt><trkpt lat="40.08754828047892" lon="8.754798553451332"><ele>285.0</ele><time>2026-05-04T09:43:19.002Z</time></trkpt><trkpt lat="40.087849927034064" lon="8.754982846287758"><ele>285.0</ele><time>2026-05-04T09:43:20.002Z</time></trkpt><trkpt lat="40.08815103028793" lon="8.755176602227584"><ele>285.0</ele><time>2026-05-04T09:43:21.002Z</time></trkpt><trkpt lat="40.08845483952664" lon="8.755376730245288"><ele>286.5</ele><time>2026-05-04T09:43:22.002Z</time></trkpt><trkpt lat="40.08875796469406" lon="8.755583476926624"><ele>288.0</ele><time>2026-05-04T09:43:23.002Z</time></trkpt><trkpt lat="40.08905509327609" lon="8.755803676185526"><ele>289.0</ele><time>2026-05-04T09:43:24.002Z</time></trkpt><trkpt lat="40.089334847091166" lon="8.756050887724076"><ele>290.0</ele><time>2026-05-04T09:43:25.002Z</time></trkpt><trkpt lat="40.08959947197834" lon="8.756321510366403"><ele>290.0</ele><time>2026-05-04T09:43:26.002Z</time></trkpt><trkpt lat="40.089850683600396" lon="8.75661707955832"><ele>290.0</ele><time>2026-05-04T09:43:27.002Z</time></trkpt><trkpt lat="40.09008676876656" lon="8.756929135354572"><ele>291.5</ele><time>2026-05-04T09:43:28.002Z</time></trkpt><trkpt lat="40.090305459480874" lon="8.757256650922505"><ele>293.0</ele><time>2026-05-04T09:43:29.002Z</time></trkpt><trkpt lat="40.09051624187003" lon="8.7575942335343"><ele>293.5</ele><time>2026-05-04T09:43:30.002Z</time></trkpt><trkpt lat="40.09070533921708" lon="8.757947417799235"><ele>294.0</ele><time>2026-05-04T09:43:31.002Z</time></trkpt><trkpt lat="40.09087940473409" lon="8.758318940413778"><ele>295.5</ele><time>2026-05-04T09:43:32.002Z</time></trkpt><trkpt lat="40.09102931272537" lon="8.758702412749221"><ele>297.0</ele><time>2026-05-04T09:43:33.002Z</time></trkpt><trkpt lat="40.091169476921955" lon="8.759096968694033"><ele>297.5</ele><time>2026-05-04T09:43:34.002Z</time></trkpt><trkpt lat="40.091291437850685" lon="8.759502112693383"><ele>298.0</ele><time>2026-05-04T09:43:35.002Z</time></trkpt><trkpt lat="40.09139878131032" lon="8.759912772758975"><ele>298.0</ele><time>2026-05-04T09:43:36.002Z</time></trkpt><trkpt lat="40.091509694249524" lon="8.760319816214752"><ele>298.0</ele><time>2026-05-04T09:43:37Z</time></trkpt><trkpt lat="40.09162364285106" lon="8.760724387880453"><ele>298.0</ele><time>2026-05-04T09:43:38Z</time></trkpt><trkpt lat="40.09173667475152" lon="8.761129971013284"><ele>298.0</ele><time>2026-05-04T09:43:39Z</time></trkpt><trkpt lat="40.09184719070728" lon="8.761538072968236"><ele>298.5</ele><time>2026-05-04T09:43:40Z</time></trkpt><trkpt lat="40.09195185480372" lon="8.761943427481475"><ele>299.0</ele><time>2026-05-04T09:43:41Z</time></trkpt><trkpt lat="40.09205713026493" lon="8.7623490280501"><ele>299.0</ele><time>2026-05-04T09:43:42Z</time></trkpt><trkpt lat="40.09216561550113" lon="8.762756058668405"><ele>299.0</ele><time>2026-05-04T09:43:43Z</time></trkpt><trkpt lat="40.092275736430715" lon="8.76315890231438"><ele>298.5</ele><time>2026-05-04T09:43:44Z</time></trkpt><trkpt lat="40.0923820614798" lon="8.763559332449118"><ele>298.0</ele><time>2026-05-04T09:43:45Z</time></trkpt><trkpt lat="40.092489805673026" lon="8.763954352362141"><ele>298.5</ele><time>2026-05-04T09:43:46Z</time></trkpt><trkpt lat="40.09260060223945" lon="8.764344855641783"><ele>299.0</ele><time>2026-05-04T09:43:47Z</time></trkpt><trkpt lat="40.09270897853614" lon="8.764733639895503"><ele>299.0</ele><time>2026-05-04T09:43:48Z</time></trkpt><trkpt lat="40.092816291074065" lon="8.765124953634128"><ele>299.0</ele><time>2026-05-04T09:43:49Z</time></trkpt><trkpt lat="40.09292117205559" lon="8.76550880949622"><ele>299.5</ele><time>2026-05-04T09:43:50Z</time></trkpt><trkpt lat="40.0930274527765" lon="8.765897112747526"><ele>300.0</ele><time>2026-05-04T09:43:51Z</time></trkpt><trkpt lat="40.099971663878854" lon="8.782194055071571"><ele>287.5</ele><time>2026-05-04T09:44:52.001Z</time></trkpt><trkpt lat="40.10014160574113" lon="8.782458810415635"><ele>275.0</ele><time>2026-05-04T09:44:53.001Z</time></trkpt><trkpt lat="40.10031392669555" lon="8.782728460998095"><ele>275.0</ele><time>2026-05-04T09:44:54.001Z</time></trkpt><trkpt lat="40.100481847367426" lon="8.78299579099302"><ele>275.0</ele><time>2026-05-04T09:44:55.001Z</time></trkpt><trkpt lat="40.100646710417095" lon="8.78326225440489"><ele>276.0</ele><time>2026-05-04T09:44:56.001Z</time></trkpt><trkpt lat="40.100810010742045" lon="8.783519030529854"><ele>277.0</ele><time>2026-05-04T09:44:57.001Z</time></trkpt><trkpt lat="40.10096602039695" lon="8.783767798641843"><ele>277.0</ele><time>2026-05-04T09:44:58.001Z</time></trkpt><trkpt lat="40.10112462474965" lon="8.784013178032739"><ele>277.0</ele><time>2026-05-04T09:44:59.001Z</time></trkpt><trkpt lat="40.1012759406762" lon="8.784248353491652"><ele>277.3333333333333</ele><time>2026-05-04T09:45:00.001Z</time></trkpt><trkpt lat="40.101424344085565" lon="8.784477901443251"><ele>277.6666666666667</ele><time>2026-05-04T09:45:01.001Z</time></trkpt><trkpt lat="40.101567570027846" lon="8.784692198752385"><ele>278.0</ele><time>2026-05-04T09:45:02.001Z</time></trkpt><trkpt lat="40.101704077188046" lon="8.78489662192595"><ele>278.33333333333337</ele><time>2026-05-04T09:45:03.001Z</time></trkpt><trkpt lat="40.10184233482358" lon="8.785101647856276"><ele>278.6666666666667</ele><time>2026-05-04T09:45:04.001Z</time></trkpt><trkpt lat="40.10199322354322" lon="8.785303356469191"><ele>279.0</ele><time>2026-05-04T09:45:05.001Z</time></trkpt><trkpt lat="40.102148491107194" lon="8.785496716588302"><ele>279.0</ele><time>2026-05-04T09:45:06.001Z</time></trkpt><trkpt lat="40.10229672577685" lon="8.785669848486107"><ele>279.0</ele><time>2026-05-04T09:45:07.001Z</time></trkpt><trkpt lat="40.10244460068271" lon="8.78584221907734"><ele>279.0</ele><time>2026-05-04T09:45:08.001Z</time></trkpt><trkpt lat="40.10259406279119" lon="8.78601153758329"><ele>279.3333333333333</ele><time>2026-05-04T09:45:09.001Z</time></trkpt><trkpt lat="40.102738848836225" lon="8.78616823372195"><ele>279.66666666666663</ele><time>2026-05-04T09:45:10.001Z</time></trkpt><trkpt lat="40.10287240835238" lon="8.786313667253923"><ele>280.0</ele><time>2026-05-04T09:45:11.001Z</time></trkpt><trkpt lat="40.1029907540195" lon="8.786450345290428"><ele>280.0</ele><time>2026-05-04T09:45:12.001Z</time></trkpt><trkpt lat="40.10310117930449" lon="8.78657776955485"><ele>280.0</ele><time>2026-05-04T09:45:13.001Z</time></trkpt><trkpt lat="40.10320753895444" lon="8.786696437249189"><ele>280.0</ele><time>2026-05-04T09:45:14.001Z</time></trkpt><trkpt lat="40.103310070835114" lon="8.786807392230616"><ele>280.0</ele><time>2026-05-04T09:45:15.001Z</time></trkpt><trkpt lat="40.10341306150941" lon="8.786916734434286"><ele>279.75</ele><time>2026-05-04T09:45:16.001Z</time></trkpt><trkpt lat="40.10352712092797" lon="8.787035605471155"><ele>279.5</ele><time>2026-05-04T09:45:17.001Z</time></trkpt><trkpt lat="40.10364315130521" lon="8.787149148151679"><ele>279.25</ele><time>2026-05-04T09:45:18.001Z</time></trkpt><trkpt lat="40.10376374370322" lon="8.787252768083736"><ele>279.0</ele><time>2026-05-04T09:45:19.001Z</time></trkpt><trkpt lat="40.10388209919713" lon="8.787369874615628"><ele>279.0</ele><time>2026-05-04T09:45:20.001Z</time></trkpt><trkpt lat="40.104002684921625" lon="8.787503571386948"><ele>279.0</ele><time>2026-05-04T09:45:21.001Z</time></trkpt><trkpt lat="40.104132113023084" lon="8.787641570046759"><ele>279.0</ele><time>2026-05-04T09:45:22.001Z</time></trkpt><trkpt lat="40.10426490468709" lon="8.78777872151357"><ele>280.3333333333333</ele><time>2026-05-04T09:45:23.001Z</time></trkpt><trkpt lat="40.10438423097548" lon="8.787907865332887"><ele>281.66666666666663</ele><time>2026-05-04T09:45:24.001Z</time></trkpt><trkpt lat="40.1045077732194" lon="8.788040660755579"><ele>283.0</ele><time>2026-05-04T09:45:25.001Z</time></trkpt><trkpt lat="40.104635608702566" lon="8.788187911457635"><ele>283.0</ele><time>2026-05-04T09:45:26.001Z</time></trkpt><trkpt lat="40.104769617422036" lon="8.788335920579966"><ele>283.0</ele><time>2026-05-04T09:45:27.001Z</time></trkpt><trkpt lat="40.104908592196516" lon="8.788492007295865"><ele>283.0</ele><time>2026-05-04T09:45:28.001Z</time></trkpt><trkpt lat="40.10504745331158" lon="8.788647071275062"><ele>283.3333333333333</ele><time>2026-05-04T09:45:29.001Z</time></trkpt><trkpt lat="40.105180057318314" lon="8.788793663690063"><ele>283.6666666666667</ele><time>2026-05-04T09:45:30.001Z</time></trkpt><trkpt lat="40.10531546776818" lon="8.788933530871427"><ele>284.0</ele><time>2026-05-04T09:45:31.001Z</time></trkpt><trkpt lat="40.10544697877788" lon="8.789083189494281"><ele>284.0</ele><time>2026-05-04T09:45:32.001Z</time></trkpt><trkpt lat="40.10556927612898" lon="8.789216620950805"><ele>284.0</ele><time>2026-05-04T09:45:33.001Z</time></trkpt><trkpt lat="40.10569805855852" lon="8.789347148730117"><ele>284.0</ele><time>2026-05-04T09:45:34.001Z</time></trkpt><trkpt lat="40.105832004348095" lon="8.789483449140965"><ele>284.0</ele><time>2026-05-04T09:45:35.001Z</time></trkpt><trkpt lat="40.10594957108179" lon="8.789642936743888"><ele>284.0</ele><time>2026-05-04T09:45:36.001Z</time></trkpt><trkpt lat="40.10607357873735" lon="8.789780937125295"><ele>284.0</ele><time>2026-05-04T09:45:37.001Z</time></trkpt><trkpt lat="40.10619649313094" lon="8.789915552364647"><ele>284.0</ele><time>2026-05-04T09:45:38.001Z</time></trkpt><trkpt lat="40.106312508646084" lon="8.790047425381111"><ele>284.0</ele><time>2026-05-04T09:45:39.001Z</time></trkpt><trkpt lat="40.10643987785549" lon="8.790183607179086"><ele>284.0</ele><time>2026-05-04T09:45:40.001Z</time></trkpt><trkpt lat="40.106580174514974" lon="8.790335364420832"><ele>284.33333333333337</ele><time>2026-05-04T09:45:41.001Z</time></trkpt><trkpt lat="40.10670103044624" lon="8.79046705745715"><ele>284.6666666666667</ele><time>2026-05-04T09:45:42.001Z</time></trkpt><trkpt lat="40.10681871255682" lon="8.790597026046017"><ele>285.0</ele><time>2026-05-04T09:45:43Z</time></trkpt><trkpt lat="40.10696012294862" lon="8.790749843787982"><ele>285.0</ele><time>2026-05-04T09:45:44Z</time></trkpt><trkpt lat="40.10707951739322" lon="8.790885575782859"><ele>285.0</ele><time>2026-05-04T09:45:45Z</time></trkpt><trkpt lat="40.10720128608204" lon="8.791021891692875"><ele>285.0</ele><time>2026-05-04T09:45:46Z</time></trkpt><trkpt lat="40.10731764777277" lon="8.79116100161664"><ele>285.3333333333333</ele><time>2026-05-04T09:45:47Z</time></trkpt><trkpt lat="40.1074313629743" lon="8.791303085328789"><ele>285.66666666666663</ele><time>2026-05-04T09:45:48Z</time></trkpt><trkpt lat="40.10754887966127" lon="8.791439775296043"><ele>286.0</ele><time>2026-05-04T09:45:49Z</time></trkpt><trkpt lat="40.107680889321536" lon="8.791561998078297"><ele>286.0</ele><time>2026-05-04T09:45:50Z</time></trkpt><trkpt lat="40.10781440974989" lon="8.791669206546198"><ele>286.0</ele><time>2026-05-04T09:45:51Z</time></trkpt><trkpt lat="40.11375624278385" lon="8.799058294815712"><ele>292.3333333333333</ele><time>2026-05-04T09:46:52.001Z</time></trkpt><trkpt lat="40.113741272574806" lon="8.799323000242692"><ele>298.6666666666667</ele><time>2026-05-04T09:46:53.001Z</time></trkpt><trkpt lat="40.11372104085863" lon="8.799601679939"><ele>305.0</ele><time>2026-05-04T09:46:54.001Z</time></trkpt><trkpt lat="40.1137028119921" lon="8.799901451656869"><ele>306.0</ele><time>2026-05-04T09:46:55.001Z</time></trkpt><trkpt lat="40.11368029076755" lon="8.800220052740098"><ele>307.0</ele><time>2026-05-04T09:46:56.001Z</time></trkpt><trkpt lat="40.11364960453978" lon="8.800547955527579"><ele>307.0</ele><time>2026-05-04T09:46:57.001Z</time></trkpt><trkpt lat="40.11362439744196" lon="8.800888296499515"><ele>307.0</ele><time>2026-05-04T09:46:58.001Z</time></trkpt><trkpt lat="40.11360407123675" lon="8.8012285025667"><ele>307.0</ele><time>2026-05-04T09:46:59.001Z</time></trkpt><trkpt lat="40.11359007997781" lon="8.801577793193506"><ele>307.0</ele><time>2026-05-04T09:47:00.001Z</time></trkpt><trkpt lat="40.11357199968976" lon="8.801937864259598"><ele>308.0</ele><time>2026-05-04T09:47:01.001Z</time></trkpt><trkpt lat="40.1135527158988" lon="8.802302703959198"><ele>309.0</ele><time>2026-05-04T09:47:02.001Z</time></trkpt><trkpt lat="40.11354175312615" lon="8.802679070362908"><ele>309.0</ele><time>2026-05-04T09:47:03.001Z</time></trkpt><trkpt lat="40.11353934195942" lon="8.803077525808233"><ele>309.0</ele><time>2026-05-04T09:47:04.001Z</time></trkpt><trkpt lat="40.113545396534626" lon="8.80346207039498"><ele>308.5</ele><time>2026-05-04T09:47:05.001Z</time></trkpt><trkpt lat="40.11355865969893" lon="8.803851410017085"><ele>308.0</ele><time>2026-05-04T09:47:06.001Z</time></trkpt><trkpt lat="40.11358283090214" lon="8.804254733700509"><ele>308.5</ele><time>2026-05-04T09:47:07.001Z</time></trkpt><trkpt lat="40.11361665951099" lon="8.804666099078805"><ele>309.0</ele><time>2026-05-04T09:47:08.001Z</time></trkpt><trkpt lat="40.11365675114001" lon="8.805089886919983"><ele>308.0</ele><time>2026-05-04T09:47:09.001Z</time></trkpt><trkpt lat="40.11369252022491" lon="8.805510317493086"><ele>307.0</ele><time>2026-05-04T09:47:10.001Z</time></trkpt><trkpt lat="40.11372482509372" lon="8.805941854980441"><ele>307.0</ele><time>2026-05-04T09:47:11.001Z</time></trkpt><trkpt lat="40.11375929156617" lon="8.806383238945736"><ele>307.0</ele><time>2026-05-04T09:47:12.001Z</time></trkpt><trkpt lat="40.113795199696355" lon="8.806828677026687"><ele>308.0</ele><time>2026-05-04T09:47:13.001Z</time></trkpt><trkpt lat="40.113832783590674" lon="8.807270496491832"><ele>309.0</ele><time>2026-05-04T09:47:14.001Z</time></trkpt><trkpt lat="40.11387135508311" lon="8.807706375742331"><ele>309.5</ele><time>2026-05-04T09:47:15.001Z</time></trkpt><trkpt lat="40.113903908178" lon="8.808136182770482"><ele>310.0</ele><time>2026-05-04T09:47:16.001Z</time></trkpt><trkpt lat="40.11393652111574" lon="8.808572349070111"><ele>311.5</ele><time>2026-05-04T09:47:17.001Z</time></trkpt><trkpt lat="40.1139719284026" lon="8.809008487838797"><ele>313.0</ele><time>2026-05-04T09:47:18.001Z</time></trkpt><trkpt lat="40.11401061987651" lon="8.809450539831369"><ele>313.5</ele><time>2026-05-04T09:47:19.001Z</time></trkpt><trkpt lat="40.11404555524401" lon="8.809889210129763"><ele>314.0</ele><time>2026-05-04T09:47:20.001Z</time></trkpt><trkpt lat="40.1140758986524" lon="8.810328615210311"><ele>314.0</ele><time>2026-05-04T09:47:21.001Z</time></trkpt><trkpt lat="40.114112201183296" lon="8.810767617895271"><ele>314.0</ele><time>2026-05-04T09:47:22.001Z</time></trkpt><trkpt lat="40.114147443235524" lon="8.811202092349417"><ele>315.5</ele><time>2026-05-04T09:47:23.001Z</time></trkpt><trkpt lat="40.11418032826212" lon="8.811634601048281"><ele>317.0</ele><time>2026-05-04T09:47:24.001Z</time></trkpt><trkpt lat="40.11421179565394" lon="8.812064761450873"><ele>317.0</ele><time>2026-05-04T09:47:25.001Z</time></trkpt><trkpt lat="40.11424491358603" lon="8.812488774915202"><ele>317.0</ele><time>2026-05-04T09:47:26.001Z</time></trkpt><trkpt lat="40.114275469585245" lon="8.812907242550294"><ele>317.0</ele><time>2026-05-04T09:47:27.001Z</time></trkpt><trkpt lat="40.11430969298279" lon="8.813322850290193"><ele>317.0</ele><time>2026-05-04T09:47:28.001Z</time></trkpt><trkpt lat="40.11434256564385" lon="8.813735438223768"><ele>317.0</ele><time>2026-05-04T09:47:29.001Z</time></trkpt><trkpt lat="40.1143708646282" lon="8.814147456330206"><ele>317.0</ele><time>2026-05-04T09:47:30.001Z</time></trkpt><trkpt lat="40.114395243102855" lon="8.814553405502377"><ele>315.5</ele><time>2026-05-04T09:47:31.001Z</time></trkpt><trkpt lat="40.11441945761226" lon="8.8149614581818"><ele>314.0</ele><time>2026-05-04T09:47:32.001Z</time></trkpt><trkpt lat="40.114448061736304" lon="8.815363853334283"><ele>312.5</ele><time>2026-05-04T09:47:33.001Z</time></trkpt><trkpt lat="40.11447757791967" lon="8.815764032282358"><ele>311.0</ele><time>2026-05-04T09:47:34.001Z</time></trkpt><trkpt lat="40.11450749082791" lon="8.816167143064417"><ele>310.0</ele><time>2026-05-04T09:47:35.001Z</time></trkpt><trkpt lat="40.11453453098541" lon="8.816571033510087"><ele>309.0</ele><time>2026-05-04T09:47:36.001Z</time></trkpt><trkpt lat="40.11455915338437" lon="8.81697784610401"><ele>309.0</ele><time>2026-05-04T09:47:37.001Z</time></trkpt><trkpt lat="40.11458116891894" lon="8.817387746447235"><ele>309.0</ele><time>2026-05-04T09:47:38.001Z</time></trkpt><trkpt lat="40.11460989172583" lon="8.817807887266017"><ele>308.0</ele><time>2026-05-04T09:47:39.001Z</time></trkpt><trkpt lat="40.11463479164722" lon="8.818224159591393"><ele>307.0</ele><time>2026-05-04T09:47:40.001Z</time></trkpt><trkpt lat="40.11466334784673" lon="8.81865215794101"><ele>307.0</ele><time>2026-05-04T09:47:41.001Z</time></trkpt><trkpt lat="40.114694872482886" lon="8.819071407417033"><ele>307.0</ele><time>2026-05-04T09:47:42.001Z</time></trkpt><trkpt lat="40.11472775539034" lon="8.819491577858372"><ele>306.5</ele><time>2026-05-04T09:47:43.001Z</time></trkpt><trkpt lat="40.11476444571162" lon="8.819912052511569"><ele>306.0</ele><time>2026-05-04T09:47:44.001Z</time></trkpt><trkpt lat="40.11479528274266" lon="8.820332912732637"><ele>306.0</ele><time>2026-05-04T09:47:45.001Z</time></trkpt><trkpt lat="40.11482615520639" lon="8.820754999668003"><ele>306.0</ele><time>2026-05-04T09:47:46.001Z</time></trkpt><trkpt lat="40.11485892392676" lon="8.82118031658937"><ele>306.5</ele><time>2026-05-04T09:47:47.001Z</time></trkpt><trkpt lat="40.114887851019226" lon="8.821607358982686"><ele>307.0</ele><time>2026-05-04T09:47:48.001Z</time></trkpt><trkpt lat="40.11491859433424" lon="8.822036928474954"><ele>305.0</ele><time>2026-05-04T09:47:48.999Z</time></trkpt><trkpt lat="40.114939864859586" lon="8.822464078806616"><ele>303.0</ele><time>2026-05-04T09:47:49.999Z</time></trkpt><trkpt lat="40.11496446292403" lon="8.822891723874575"><ele>270.0</ele><time>2026-05-04T09:47:50.999Z</time></trkpt><trkpt lat="40.11959926247648" lon="8.84588670585108"><ele>269.5</ele><time>2026-05-04T09:48:52Z</time></trkpt><trkpt lat="40.11982655947545" lon="8.846177294449946"><ele>269.0</ele><time>2026-05-04T09:48:53Z</time></trkpt><trkpt lat="40.120053632829304" lon="8.84645798996578"><ele>269.0</ele><time>2026-05-04T09:48:54Z</time></trkpt><trkpt lat="40.120288466172056" lon="8.846735506029814"><ele>269.0</ele><time>2026-05-04T09:48:55Z</time></trkpt><trkpt lat="40.12051640888529" lon="8.847005395222965"><ele>268.0</ele><time>2026-05-04T09:48:56.001Z</time></trkpt><trkpt lat="40.120748698105366" lon="8.847270209134383"><ele>267.0</ele><time>2026-05-04T09:48:57.001Z</time></trkpt><trkpt lat="40.120974594891344" lon="8.847524440226783"><ele>267.0</ele><time>2026-05-04T09:48:58.001Z</time></trkpt><trkpt lat="40.121205133028134" lon="8.847780436791648"><ele>267.0</ele><time>2026-05-04T09:48:59.001Z</time></trkpt><trkpt lat="40.121436619985836" lon="8.848037165557374"><ele>268.0</ele><time>2026-05-04T09:49:00.001Z</time></trkpt><trkpt lat="40.12167295034119" lon="8.848292090451503"><ele>269.0</ele><time>2026-05-04T09:49:01.001Z</time></trkpt><trkpt lat="40.12191595501035" lon="8.848545310502931"><ele>267.5</ele><time>2026-05-04T09:49:02.001Z</time></trkpt><trkpt lat="40.12215437584584" lon="8.848803953586422"><ele>266.0</ele><time>2026-05-04T09:49:03.001Z</time></trkpt><trkpt lat="40.12239878384908" lon="8.849070647941348"><ele>265.0</ele><time>2026-05-04T09:49:04.001Z</time></trkpt><trkpt lat="40.122645418504035" lon="8.84933691591922"><ele>264.0</ele><time>2026-05-04T09:49:05.001Z</time></trkpt><trkpt lat="40.122900017472226" lon="8.849616317063987"><ele>264.0</ele><time>2026-05-04T09:49:06.001Z</time></trkpt><trkpt lat="40.123151647764715" lon="8.849893535491807"><ele>264.0</ele><time>2026-05-04T09:49:07.001Z</time></trkpt><trkpt lat="40.12340375721759" lon="8.850169670823407"><ele>264.0</ele><time>2026-05-04T09:49:08.001Z</time></trkpt><trkpt lat="40.123669742067094" lon="8.850441385207956"><ele>264.0</ele><time>2026-05-04T09:49:09.001Z</time></trkpt><trkpt lat="40.12391743291745" lon="8.850719893139724"><ele>265.0</ele><time>2026-05-04T09:49:10.001Z</time></trkpt><trkpt lat="40.12417170410478" lon="8.85099320952324"><ele>266.0</ele><time>2026-05-04T09:49:11.001Z</time></trkpt><trkpt lat="40.124419686873566" lon="8.85126120485567"><ele>266.0</ele><time>2026-05-04T09:49:12.001Z</time></trkpt><trkpt lat="40.12466722225289" lon="8.851526602058465"><ele>266.0</ele><time>2026-05-04T09:49:13.001Z</time></trkpt><trkpt lat="40.12491203977281" lon="8.851794085463569"><ele>265.5</ele><time>2026-05-04T09:49:14.001Z</time></trkpt><trkpt lat="40.125153667658275" lon="8.852060887936778"><ele>265.0</ele><time>2026-05-04T09:49:15.001Z</time></trkpt><trkpt lat="40.125391216213615" lon="8.85233202882252"><ele>265.0</ele><time>2026-05-04T09:49:16.001Z</time></trkpt><trkpt lat="40.12561913133438" lon="8.852620983716509"><ele>265.0</ele><time>2026-05-04T09:49:17.001Z</time></trkpt><trkpt lat="40.12583537414528" lon="8.852925620538178"><ele>263.5</ele><time>2026-05-04T09:49:18.001Z</time></trkpt><trkpt lat="40.1260434041804" lon="8.853249980201776"><ele>262.0</ele><time>2026-05-04T09:49:19.001Z</time></trkpt><trkpt lat="40.126241240107" lon="8.853584550158931"><ele>262.0</ele><time>2026-05-04T09:49:20.001Z</time></trkpt><trkpt lat="40.12642741480803" lon="8.853942881722435"><ele>262.0</ele><time>2026-05-04T09:49:21.001Z</time></trkpt><trkpt lat="40.12660319669086" lon="8.85431910240356"><ele>256.0</ele><time>2026-05-04T09:49:22.001Z</time></trkpt><trkpt lat="40.1267773160507" lon="8.854711053875969"><ele>250.0</ele><time>2026-05-04T09:49:23.001Z</time></trkpt><trkpt lat="40.12694474953011" lon="8.855103302558486"><ele>248.5</ele><time>2026-05-04T09:49:24.001Z</time></trkpt><trkpt lat="40.127111989607435" lon="8.855498503988974"><ele>247.0</ele><time>2026-05-04T09:49:25.001Z</time></trkpt><trkpt lat="40.12726464642753" lon="8.855864783175386"><ele>244.5</ele><time>2026-05-04T09:49:26.001Z</time></trkpt><trkpt lat="40.12740637342898" lon="8.856212311601219"><ele>242.0</ele><time>2026-05-04T09:49:27.001Z</time></trkpt><trkpt lat="40.12754637530807" lon="8.856536959933685"><ele>240.5</ele><time>2026-05-04T09:49:28.001Z</time></trkpt><trkpt lat="40.12767825093452" lon="8.856845489715974"><ele>239.0</ele><time>2026-05-04T09:49:29.001Z</time></trkpt><trkpt lat="40.1278069440917" lon="8.857148441036387"><ele>239.0</ele><time>2026-05-04T09:49:30.001Z</time></trkpt><trkpt lat="40.12792891096717" lon="8.857433664747852"><ele>239.0</ele><time>2026-05-04T09:49:31.001Z</time></trkpt><trkpt lat="40.12804725998872" lon="8.857716019009164"><ele>240.5</ele><time>2026-05-04T09:49:32.001Z</time></trkpt><trkpt lat="40.128166885412014" lon="8.857994267772535"><ele>242.0</ele><time>2026-05-04T09:49:33.001Z</time></trkpt><trkpt lat="40.128294968009946" lon="8.858295411967454"><ele>234.5</ele><time>2026-05-04T09:49:34.001Z</time></trkpt><trkpt lat="40.128412115754564" lon="8.858563519497114"><ele>227.0</ele><time>2026-05-04T09:49:35.001Z</time></trkpt><trkpt lat="40.1285455767914" lon="8.858856756274962"><ele>227.0</ele><time>2026-05-04T09:49:36.001Z</time></trkpt><trkpt lat="40.128691460804326" lon="8.859160359011684"><ele>227.0</ele><time>2026-05-04T09:49:37.001Z</time></trkpt><trkpt lat="40.1288566359577" lon="8.85945707625982"><ele>227.5</ele><time>2026-05-04T09:49:38.001Z</time></trkpt><trkpt lat="40.129032998531144" lon="8.859750839021341"><ele>228.0</ele><time>2026-05-04T09:49:39.001Z</time></trkpt><trkpt lat="40.12922770669307" lon="8.860043235111256"><ele>223.0</ele><time>2026-05-04T09:49:40.001Z</time></trkpt><trkpt lat="40.129428996643796" lon="8.860330897187234"><ele>218.0</ele><time>2026-05-04T09:49:41.001Z</time></trkpt><trkpt lat="40.129644787988056" lon="8.860621899795827"><ele>218.0</ele><time>2026-05-04T09:49:42.001Z</time></trkpt><trkpt lat="40.12985706726473" lon="8.86091150073776"><ele>218.0</ele><time>2026-05-04T09:49:43.001Z</time></trkpt><trkpt lat="40.130073391330335" lon="8.861206606719096"><ele>218.0</ele><time>2026-05-04T09:49:44.001Z</time></trkpt><trkpt lat="40.13028885799964" lon="8.861508422233303"><ele>218.0</ele><time>2026-05-04T09:49:45.001Z</time></trkpt><trkpt lat="40.1305027826007" lon="8.861815022642732"><ele>218.0</ele><time>2026-05-04T09:49:46.001Z</time></trkpt><trkpt lat="40.13071931338038" lon="8.86213174485948"><ele>218.0</ele><time>2026-05-04T09:49:47.001Z</time></trkpt><trkpt lat="40.13094214629097" lon="8.862443815409025"><ele>214.0</ele><time>2026-05-04T09:49:48.001Z</time></trkpt><trkpt lat="40.13116514036529" lon="8.86275333816556"><ele>210.0</ele><time>2026-05-04T09:49:49.001Z</time></trkpt><trkpt lat="40.1313911618048" lon="8.863071847879874"><ele>211.0</ele><time>2026-05-04T09:49:50.001Z</time></trkpt><trkpt lat="40.131616681373956" lon="8.863379578338867"><ele>212.0</ele><time>2026-05-04T09:49:51.001Z</time></trkpt><trkpt lat="40.14623959095536" lon="8.879096410583477"><ele>163.5</ele><time>2026-05-04T09:50:52.001Z</time></trkpt><trkpt lat="40.14642708939177" lon="8.879429209531052"><ele>115.0</ele><time>2026-05-04T09:50:53.001Z</time></trkpt><trkpt lat="40.14660932273078" lon="8.879754333633713"><ele>115.0</ele><time>2026-05-04T09:50:54.001Z</time></trkpt><trkpt lat="40.14678764792489" lon="8.880082095001914"><ele>115.0</ele><time>2026-05-04T09:50:55.001Z</time></trkpt><trkpt lat="40.146953032607854" lon="8.880411508489926"><ele>116.5</ele><time>2026-05-04T09:50:56.001Z</time></trkpt><trkpt lat="40.14710436695651" lon="8.880731568390802"><ele>118.0</ele><time>2026-05-04T09:50:57.001Z</time></trkpt><trkpt lat="40.14723926872704" lon="8.88105868063344"><ele>121.0</ele><time>2026-05-04T09:50:58.001Z</time></trkpt><trkpt lat="40.147370472648" lon="8.881393329177074"><ele>124.0</ele><time>2026-05-04T09:50:59.001Z</time></trkpt><trkpt lat="40.14749397325539" lon="8.881728188499508"><ele>126.0</ele><time>2026-05-04T09:51:00.001Z</time></trkpt><trkpt lat="40.147605794850094" lon="8.882071871337367"><ele>128.0</ele><time>2026-05-04T09:51:01.001Z</time></trkpt><trkpt lat="40.147714099281856" lon="8.882431695571098"><ele>129.0</ele><time>2026-05-04T09:51:02.001Z</time></trkpt><trkpt lat="40.14781075739404" lon="8.882801297668907"><ele>130.0</ele><time>2026-05-04T09:51:03.001Z</time></trkpt><trkpt lat="40.147893305940094" lon="8.88318346803449"><ele>131.0</ele><time>2026-05-04T09:51:04.001Z</time></trkpt><trkpt lat="40.14796789825336" lon="8.883576068283773"><ele>132.0</ele><time>2026-05-04T09:51:05.001Z</time></trkpt><trkpt lat="40.148030955974725" lon="8.883957657116907"><ele>130.5</ele><time>2026-05-04T09:51:06.001Z</time></trkpt><trkpt lat="40.14808846384394" lon="8.884333720305403"><ele>129.0</ele><time>2026-05-04T09:51:07.001Z</time></trkpt><trkpt lat="40.148148483827" lon="8.884710080290997"><ele>129.0</ele><time>2026-05-04T09:51:08.001Z</time></trkpt><trkpt lat="40.148208763809954" lon="8.8850935405204"><ele>129.0</ele><time>2026-05-04T09:51:09.001Z</time></trkpt><trkpt lat="40.148275377442" lon="8.885478816103202"><ele>131.0</ele><time>2026-05-04T09:51:10.001Z</time></trkpt><trkpt lat="40.14835126899176" lon="8.885863840165106"><ele>133.0</ele><time>2026-05-04T09:51:11.001Z</time></trkpt><trkpt lat="40.14841253024151" lon="8.886247942400205"><ele>133.0</ele><time>2026-05-04T09:51:12.001Z</time></trkpt><trkpt lat="40.148471600014254" lon="8.88664725646502"><ele>133.0</ele><time>2026-05-04T09:51:13.001Z</time></trkpt><trkpt lat="40.14853009577458" lon="8.887041572892597"><ele>130.5</ele><time>2026-05-04T09:51:14.001Z</time></trkpt><trkpt lat="40.14858732732649" lon="8.887439613764002"><ele>128.0</ele><time>2026-05-04T09:51:15.001Z</time></trkpt><trkpt lat="40.14864517574232" lon="8.887833803793788"><ele>125.0</ele><time>2026-05-04T09:51:16.001Z</time></trkpt><trkpt lat="40.14869832111364" lon="8.88823003722701"><ele>122.0</ele><time>2026-05-04T09:51:17.001Z</time></trkpt><trkpt lat="40.14873994147872" lon="8.888635460392523"><ele>122.0</ele><time>2026-05-04T09:51:18.001Z</time></trkpt><trkpt lat="40.14876190108764" lon="8.889056609185781"><ele>122.0</ele><time>2026-05-04T09:51:19.001Z</time></trkpt><trkpt lat="40.14878182467642" lon="8.889460349758693"><ele>124.0</ele><time>2026-05-04T09:51:20.001Z</time></trkpt><trkpt lat="40.148796298358526" lon="8.889873585628063"><ele>126.0</ele><time>2026-05-04T09:51:21.001Z</time></trkpt><trkpt lat="40.148802242002205" lon="8.890290783558676"><ele>130.5</ele><time>2026-05-04T09:51:22.001Z</time></trkpt><trkpt lat="40.14879642552625" lon="8.890710185096493"><ele>135.0</ele><time>2026-05-04T09:51:23.001Z</time></trkpt><trkpt lat="40.14879166598515" lon="8.891125541968389"><ele>139.5</ele><time>2026-05-04T09:51:24.001Z</time></trkpt><trkpt lat="40.14878354482399" lon="8.89154044506766"><ele>144.0</ele><time>2026-05-04T09:51:25.001Z</time></trkpt><trkpt lat="40.14877916233413" lon="8.89196164046126"><ele>144.0</ele><time>2026-05-04T09:51:26.001Z</time></trkpt><trkpt lat="40.1487855339214" lon="8.892376831524484"><ele>144.0</ele><time>2026-05-04T09:51:27.001Z</time></trkpt><trkpt lat="40.14880402114431" lon="8.892794838048609"><ele>144.5</ele><time>2026-05-04T09:51:28.001Z</time></trkpt><trkpt lat="40.14884233204641" lon="8.893207647241"><ele>145.0</ele><time>2026-05-04T09:51:29.001Z</time></trkpt><trkpt lat="40.14890601572393" lon="8.893621354359906"><ele>143.0</ele><time>2026-05-04T09:51:30.001Z</time></trkpt><trkpt lat="40.14898994880383" lon="8.894029983168949"><ele>141.0</ele><time>2026-05-04T09:51:31.001Z</time></trkpt><trkpt lat="40.149088357345384" lon="8.894433848751754"><ele>141.0</ele><time>2026-05-04T09:51:32.001Z</time></trkpt><trkpt lat="40.14920511288501" lon="8.894828876829637"><ele>141.0</ele><time>2026-05-04T09:51:33.001Z</time></trkpt><trkpt lat="40.14934414267293" lon="8.89521651899085"><ele>138.0</ele><time>2026-05-04T09:51:34.001Z</time></trkpt><trkpt lat="40.14950166814592" lon="8.895598936011218"><ele>135.0</ele><time>2026-05-04T09:51:35.001Z</time></trkpt><trkpt lat="40.14966439129269" lon="8.895974511105102"><ele>135.0</ele><time>2026-05-04T09:51:36.001Z</time></trkpt><trkpt lat="40.14984519723363" lon="8.8963585167229"><ele>135.0</ele><time>2026-05-04T09:51:37.001Z</time></trkpt><trkpt lat="40.15001892014179" lon="8.89673189878214"><ele>133.0</ele><time>2026-05-04T09:51:38.001Z</time></trkpt><trkpt lat="40.150191942631736" lon="8.897111422072783"><ele>131.0</ele><time>2026-05-04T09:51:39.001Z</time></trkpt><trkpt lat="40.15036487683936" lon="8.89749745469712"><ele>126.5</ele><time>2026-05-04T09:51:40.001Z</time></trkpt><trkpt lat="40.15053833313507" lon="8.897886321214344"><ele>122.0</ele><time>2026-05-04T09:51:41.001Z</time></trkpt><trkpt lat="40.150714422276764" lon="8.898283675942485"><ele>122.0</ele><time>2026-05-04T09:51:42.001Z</time></trkpt><trkpt lat="40.150891243106656" lon="8.898676066103997"><ele>122.0</ele><time>2026-05-04T09:51:43.001Z</time></trkpt><trkpt lat="40.151065048279854" lon="8.899064107090485"><ele>119.5</ele><time>2026-05-04T09:51:44.001Z</time></trkpt><trkpt lat="40.15123380325324" lon="8.899439656845994"><ele>117.0</ele><time>2026-05-04T09:51:45.001Z</time></trkpt><trkpt lat="40.15139608818422" lon="8.899803542786524"><ele>123.0</ele><time>2026-05-04T09:51:46.001Z</time></trkpt><trkpt lat="40.15156456821207" lon="8.900159829852525"><ele>129.0</ele><time>2026-05-04T09:51:47.001Z</time></trkpt><trkpt lat="40.151739408873176" lon="8.900503339903349"><ele>129.0</ele><time>2026-05-04T09:51:48.001Z</time></trkpt><trkpt lat="40.15193182322061" lon="8.900841603879307"><ele>129.0</ele><time>2026-05-04T09:51:49.001Z</time></trkpt><trkpt lat="40.15214289469369" lon="8.90115518719974"><ele>131.0</ele><time>2026-05-04T09:51:50.001Z</time></trkpt><trkpt lat="40.15236988923486" lon="8.901449717071005"><ele>133.0</ele><time>2026-05-04T09:51:51.001Z</time></trkpt><trkpt lat="40.16364426756581" lon="8.920515638147585"><ele>166.0</ele><time>2026-05-04T09:52:52.001Z</time></trkpt><trkpt lat="40.16366511437356" lon="8.920937996025566"><ele>199.0</ele><time>2026-05-04T09:52:53.001Z</time></trkpt><trkpt lat="40.1636654655554" lon="8.921359452603204"><ele>201.0</ele><time>2026-05-04T09:52:54.001Z</time></trkpt><trkpt lat="40.16365855844367" lon="8.921778940460113"><ele>203.0</ele><time>2026-05-04T09:52:55.001Z</time></trkpt><trkpt lat="40.16366996053968" lon="8.922195401710056"><ele>202.5</ele><time>2026-05-04T09:52:56.001Z</time></trkpt><trkpt lat="40.1636933367471" lon="8.922585725926695"><ele>202.0</ele><time>2026-05-04T09:52:57.001Z</time></trkpt><trkpt lat="40.16372981937607" lon="8.922962232233248"><ele>202.0</ele><time>2026-05-04T09:52:58.001Z</time></trkpt><trkpt lat="40.16377644026643" lon="8.923333695289196"><ele>202.0</ele><time>2026-05-04T09:52:59.001Z</time></trkpt><trkpt lat="40.16384231281323" lon="8.923688467006205"><ele>203.0</ele><time>2026-05-04T09:53:00.001Z</time></trkpt><trkpt lat="40.16391722689925" lon="8.924023550932043"><ele>204.0</ele><time>2026-05-04T09:53:01.001Z</time></trkpt><trkpt lat="40.1639969855631" lon="8.924347444176142"><ele>205.5</ele><time>2026-05-04T09:53:02.001Z</time></trkpt><trkpt lat="40.16408044020029" lon="8.924644610962764"><ele>207.0</ele><time>2026-05-04T09:53:03.001Z</time></trkpt><trkpt lat="40.164166959928146" lon="8.924931172604929"><ele>206.5</ele><time>2026-05-04T09:53:04.001Z</time></trkpt><trkpt lat="40.16426460325513" lon="8.925213321367467"><ele>206.0</ele><time>2026-05-04T09:53:05.001Z</time></trkpt><trkpt lat="40.1643673721911" lon="8.925495121481278"><ele>206.0</ele><time>2026-05-04T09:53:06.001Z</time></trkpt><trkpt lat="40.1644699965325" lon="8.925765387468171"><ele>206.0</ele><time>2026-05-04T09:53:07.001Z</time></trkpt><trkpt lat="40.1645811777293" lon="8.92603429685017"><ele>205.5</ele><time>2026-05-04T09:53:08.001Z</time></trkpt><trkpt lat="40.16470718464748" lon="8.926298384720209"><ele>205.0</ele><time>2026-05-04T09:53:09.001Z</time></trkpt><trkpt lat="40.16483448326996" lon="8.926544070442686"><ele>204.33333333333331</ele><time>2026-05-04T09:53:10.001Z</time></trkpt><trkpt lat="40.164959080205776" lon="8.926776080413742"><ele>203.66666666666669</ele><time>2026-05-04T09:53:11.001Z</time></trkpt><trkpt lat="40.16507614249407" lon="8.926991719780139"><ele>203.0</ele><time>2026-05-04T09:53:12.001Z</time></trkpt><trkpt lat="40.165190907210615" lon="8.927191424714207"><ele>203.0</ele><time>2026-05-04T09:53:13.001Z</time></trkpt><trkpt lat="40.16529976851409" lon="8.927376978749178"><ele>203.0</ele><time>2026-05-04T09:53:14.001Z</time></trkpt><trkpt lat="40.1654062987035" lon="8.927550825732474"><ele>203.0</ele><time>2026-05-04T09:53:15.001Z</time></trkpt><trkpt lat="40.16551393073155" lon="8.927712996305175"><ele>202.66666666666669</ele><time>2026-05-04T09:53:16.001Z</time></trkpt><trkpt lat="40.165635574552866" lon="8.92786624145443"><ele>202.33333333333331</ele><time>2026-05-04T09:53:17.001Z</time></trkpt><trkpt lat="40.16577465454369" lon="8.92801643087241"><ele>202.0</ele><time>2026-05-04T09:53:18.001Z</time></trkpt><trkpt lat="40.165901641804204" lon="8.92820317204806"><ele>198.66666666666666</ele><time>2026-05-04T09:53:19.001Z</time></trkpt><trkpt lat="40.16604393285157" lon="8.928395648411191"><ele>195.33333333333331</ele><time>2026-05-04T09:53:20.001Z</time></trkpt><trkpt lat="40.16620034129142" lon="8.928593247611078"><ele>192.0</ele><time>2026-05-04T09:53:21.001Z</time></trkpt><trkpt lat="40.1663642488683" lon="8.928789089260764"><ele>197.0</ele><time>2026-05-04T09:53:22.001Z</time></trkpt><trkpt lat="40.1665376873369" lon="8.928982015336276"><ele>202.0</ele><time>2026-05-04T09:53:23.001Z</time></trkpt><trkpt lat="40.16672710863118" lon="8.929169587164346"><ele>200.0</ele><time>2026-05-04T09:53:24.001Z</time></trkpt><trkpt lat="40.16692320235829" lon="8.929354641906407"><ele>198.0</ele><time>2026-05-04T09:53:25.001Z</time></trkpt><trkpt lat="40.167122267465004" lon="8.929539059131669"><ele>198.0</ele><time>2026-05-04T09:53:26.001Z</time></trkpt><trkpt lat="40.167322107017014" lon="8.929722275148608"><ele>198.0</ele><time>2026-05-04T09:53:27.001Z</time></trkpt><trkpt lat="40.167513409278634" lon="8.929909670417583"><ele>208.0</ele><time>2026-05-04T09:53:28.001Z</time></trkpt><trkpt lat="40.16769376246766" lon="8.930087482811414"><ele>218.0</ele><time>2026-05-04T09:53:29.001Z</time></trkpt><trkpt lat="40.1678765713025" lon="8.930267716261422"><ele>218.0</ele><time>2026-05-04T09:53:30.001Z</time></trkpt><trkpt lat="40.1680650200026" lon="8.930447208281574"><ele>218.0</ele><time>2026-05-04T09:53:31.02Z</time></trkpt><trkpt lat="40.16829083634421" lon="8.930555947375733"><ele>227.5</ele><time>2026-05-04T09:53:32.02Z</time></trkpt><trkpt lat="40.16847466159578" lon="8.93074110425782"><ele>237.0</ele><time>2026-05-04T09:53:33.018Z</time></trkpt><trkpt lat="40.168662839173024" lon="8.930927455896528"><ele>237.5</ele><time>2026-05-04T09:53:34.02Z</time></trkpt><trkpt lat="40.1688431066628" lon="8.931110234430076"><ele>238.0</ele><time>2026-05-04T09:53:35.015Z</time></trkpt><trkpt lat="40.17989084192414" lon="8.943891484433927"><ele>214.0</ele><time>2026-05-04T09:54:28Z</time></trkpt><trkpt lat="40.18000405634992" lon="8.944250704668391"><ele>190.0</ele><time>2026-05-04T09:54:29Z</time></trkpt><trkpt lat="40.18009923931054" lon="8.944614744783452"><ele>158.0</ele><time>2026-05-04T09:54:30Z</time></trkpt><trkpt lat="40.17949802942043" lon="8.95300483377072"><ele>159.0</ele><time>2026-05-04T09:54:52.001Z</time></trkpt><trkpt lat="40.17943791969039" lon="8.953416026107165"><ele>160.0</ele><time>2026-05-04T09:54:53.001Z</time></trkpt><trkpt lat="40.179378383201126" lon="8.95382647394986"><ele>160.5</ele><time>2026-05-04T09:54:54.001Z</time></trkpt><trkpt lat="40.17931971275142" lon="8.95423088523666"><ele>161.0</ele><time>2026-05-04T09:54:55.001Z</time></trkpt><trkpt lat="40.17926489302278" lon="8.954643602898765"><ele>160.5</ele><time>2026-05-04T09:54:56.001Z</time></trkpt><trkpt lat="40.17922877418325" lon="8.955056166876371"><ele>160.0</ele><time>2026-05-04T09:54:57.001Z</time></trkpt><trkpt lat="40.179216140616475" lon="8.955474316447164"><ele>156.5</ele><time>2026-05-04T09:54:58.001Z</time></trkpt><trkpt lat="40.179225946537386" lon="8.955890462156804"><ele>153.0</ele><time>2026-05-04T09:54:59.001Z</time></trkpt><trkpt lat="40.1792571792223" lon="8.956304064265993"><ele>149.5</ele><time>2026-05-04T09:55:00.001Z</time></trkpt><trkpt lat="40.1793004071071" lon="8.956711646913496"><ele>146.0</ele><time>2026-05-04T09:55:01.001Z</time></trkpt><trkpt lat="40.17936602431663" lon="8.957116998820318"><ele>146.0</ele><time>2026-05-04T09:55:02.001Z</time></trkpt><trkpt lat="40.1794521636551" lon="8.957512897115427"><ele>146.0</ele><time>2026-05-04T09:55:03.001Z</time></trkpt><trkpt lat="40.179560325564346" lon="8.957900600971037"><ele>143.0</ele><time>2026-05-04T09:55:04.001Z</time></trkpt><trkpt lat="40.17968381588052" lon="8.958287206876584"><ele>140.0</ele><time>2026-05-04T09:55:05.001Z</time></trkpt><trkpt lat="40.17982494464182" lon="8.958662646622386"><ele>140.5</ele><time>2026-05-04T09:55:06.001Z</time></trkpt><trkpt lat="40.179977573557984" lon="8.959026737834716"><ele>141.0</ele><time>2026-05-04T09:55:07.001Z</time></trkpt><trkpt lat="40.18014472435279" lon="8.959384658281744"><ele>138.0</ele><time>2026-05-04T09:55:08.001Z</time></trkpt><trkpt lat="40.18032797786715" lon="8.959718732407646"><ele>135.0</ele><time>2026-05-04T09:55:09.001Z</time></trkpt><trkpt lat="40.18052673872884" lon="8.960040276131593"><ele>135.0</ele><time>2026-05-04T09:55:10.001Z</time></trkpt><trkpt lat="40.18071477570921" lon="8.960358262452479"><ele>135.0</ele><time>2026-05-04T09:55:11.001Z</time></trkpt><trkpt lat="40.18089359795403" lon="8.960683750796258"><ele>135.5</ele><time>2026-05-04T09:55:12.001Z</time></trkpt><trkpt lat="40.18106816365932" lon="8.961000015271754"><ele>136.0</ele><time>2026-05-04T09:55:13.001Z</time></trkpt><trkpt lat="40.181244407854585" lon="8.961334386358645"><ele>136.0</ele><time>2026-05-04T09:55:14.001Z</time></trkpt><trkpt lat="40.18142706237037" lon="8.961652292817194"><ele>136.0</ele><time>2026-05-04T09:55:15.001Z</time></trkpt><trkpt lat="40.18161736891049" lon="8.961977902380434"><ele>137.5</ele><time>2026-05-04T09:55:16.001Z</time></trkpt><trkpt lat="40.18181021283385" lon="8.962298261024793"><ele>139.0</ele><time>2026-05-04T09:55:17.001Z</time></trkpt><trkpt lat="40.1820008705271" lon="8.962620569597412"><ele>139.0</ele><time>2026-05-04T09:55:18.001Z</time></trkpt><trkpt lat="40.18218772479424" lon="8.962953705213414"><ele>139.0</ele><time>2026-05-04T09:55:19.001Z</time></trkpt><trkpt lat="40.182378579507635" lon="8.963282298049245"><ele>139.5</ele><time>2026-05-04T09:55:20.001Z</time></trkpt><trkpt lat="40.18256643406462" lon="8.96360695273552"><ele>140.0</ele><time>2026-05-04T09:55:21.001Z</time></trkpt><trkpt lat="40.18275362674044" lon="8.963935646848139"><ele>141.5</ele><time>2026-05-04T09:55:22.001Z</time></trkpt><trkpt lat="40.18294204550226" lon="8.964262314679416"><ele>143.0</ele><time>2026-05-04T09:55:23.001Z</time></trkpt><trkpt lat="40.18312809734499" lon="8.964592108019568"><ele>142.5</ele><time>2026-05-04T09:55:24.001Z</time></trkpt><trkpt lat="40.18331613824584" lon="8.964918466831067"><ele>142.0</ele><time>2026-05-04T09:55:25.001Z</time></trkpt><trkpt lat="40.18350429657328" lon="8.965244740068044"><ele>142.0</ele><time>2026-05-04T09:55:26.001Z</time></trkpt><trkpt lat="40.18369356503436" lon="8.965574309579255"><ele>142.0</ele><time>2026-05-04T09:55:27.001Z</time></trkpt><trkpt lat="40.183883423094684" lon="8.965904483532904"><ele>143.0</ele><time>2026-05-04T09:55:28.001Z</time></trkpt><trkpt lat="40.184074745879016" lon="8.966229476555418"><ele>144.0</ele><time>2026-05-04T09:55:29.001Z</time></trkpt><trkpt lat="40.18426662326075" lon="8.966550826125822"><ele>144.0</ele><time>2026-05-04T09:55:30.001Z</time></trkpt><trkpt lat="40.18446106277294" lon="8.96688104883806"><ele>144.0</ele><time>2026-05-04T09:55:31.001Z</time></trkpt><trkpt lat="40.184643075074035" lon="8.967212596362728"><ele>144.5</ele><time>2026-05-04T09:55:32.001Z</time></trkpt><trkpt lat="40.18482651385387" lon="8.96754805556874"><ele>145.0</ele><time>2026-05-04T09:55:33.001Z</time></trkpt><trkpt lat="40.18500837478473" lon="8.967886817292243"><ele>145.0</ele><time>2026-05-04T09:55:34.001Z</time></trkpt><trkpt lat="40.18518824859795" lon="8.968231647945293"><ele>145.0</ele><time>2026-05-04T09:55:35.001Z</time></trkpt><trkpt lat="40.18534840385582" lon="8.968580274942283"><ele>146.5</ele><time>2026-05-04T09:55:36.001Z</time></trkpt><trkpt lat="40.18551223517935" lon="8.968941996163288"><ele>148.0</ele><time>2026-05-04T09:55:37.001Z</time></trkpt><trkpt lat="40.18568008440763" lon="8.969314144430472"><ele>148.0</ele><time>2026-05-04T09:55:38.001Z</time></trkpt><trkpt lat="40.18584975255392" lon="8.969681832920246"><ele>148.0</ele><time>2026-05-04T09:55:39.001Z</time></trkpt><trkpt lat="40.18602298219444" lon="8.97004678729028"><ele>149.0</ele><time>2026-05-04T09:55:40.001Z</time></trkpt><trkpt lat="40.18619507913024" lon="8.970420514049243"><ele>150.0</ele><time>2026-05-04T09:55:41.001Z</time></trkpt><trkpt lat="40.18635782567269" lon="8.970796087874952"><ele>150.0</ele><time>2026-05-04T09:55:42.001Z</time></trkpt><trkpt lat="40.18652826061078" lon="8.971173501008181"><ele>150.0</ele><time>2026-05-04T09:55:43.001Z</time></trkpt><trkpt lat="40.18670041065437" lon="8.971542238938113"><ele>149.5</ele><time>2026-05-04T09:55:44.001Z</time></trkpt><trkpt lat="40.18687320069372" lon="8.97191671582179"><ele>149.0</ele><time>2026-05-04T09:55:45.001Z</time></trkpt><trkpt lat="40.187044343243436" lon="8.97228960197692"><ele>148.5</ele><time>2026-05-04T09:55:46.001Z</time></trkpt><trkpt lat="40.187215991975414" lon="8.97266471515069"><ele>148.0</ele><time>2026-05-04T09:55:47.001Z</time></trkpt><trkpt lat="40.18738838368708" lon="8.9730371036831"><ele>147.0</ele><time>2026-05-04T09:55:48.001Z</time></trkpt><trkpt lat="40.18756193524338" lon="8.973414071184683"><ele>146.0</ele><time>2026-05-04T09:55:49.001Z</time></trkpt><trkpt lat="40.18773388600627" lon="8.973788814966685"><ele>146.0</ele><time>2026-05-04T09:55:50.001Z</time></trkpt><trkpt lat="40.18790642024494" lon="8.974169752342684"><ele>146.0</ele><time>2026-05-04T09:55:51.001Z</time></trkpt><trkpt lat="40.203176496606375" lon="8.99343066256351"><ele>145.0</ele><time>2026-05-04T09:56:52Z</time></trkpt><trkpt lat="40.20352177267534" lon="8.993637501708895"><ele>144.0</ele><time>2026-05-04T09:56:53Z</time></trkpt><trkpt lat="40.2038559600411" lon="8.993853307756462"><ele>144.0</ele><time>2026-05-04T09:56:54Z</time></trkpt><trkpt lat="40.204198015602174" lon="8.994069026004194"><ele>144.0</ele><time>2026-05-04T09:56:55Z</time></trkpt><trkpt lat="40.20453690538811" lon="8.994292392518961"><ele>145.5</ele><time>2026-05-04T09:56:56Z</time></trkpt><trkpt lat="40.20486652369252" lon="8.994530268284088"><ele>147.0</ele><time>2026-05-04T09:56:57Z</time></trkpt><trkpt lat="40.20518689638231" lon="8.994779595508726"><ele>146.5</ele><time>2026-05-04T09:56:58Z</time></trkpt><trkpt lat="40.20550613681427" lon="8.99503818417062"><ele>146.0</ele><time>2026-05-04T09:56:59Z</time></trkpt><trkpt lat="40.20582026289024" lon="8.995305354036779"><ele>146.0</ele><time>2026-05-04T09:57:00Z</time></trkpt><trkpt lat="40.20612712399047" lon="8.995584985029803"><ele>146.0</ele><time>2026-05-04T09:57:01Z</time></trkpt><trkpt lat="40.206425130869945" lon="8.995878195841067"><ele>147.5</ele><time>2026-05-04T09:57:02Z</time></trkpt><trkpt lat="40.206716935862495" lon="8.996179039125764"><ele>149.0</ele><time>2026-05-04T09:57:03Z</time></trkpt><trkpt lat="40.207006328127385" lon="8.99649201651277"><ele>149.0</ele><time>2026-05-04T09:57:04Z</time></trkpt><trkpt lat="40.207290260158466" lon="8.996816386930364"><ele>149.0</ele><time>2026-05-04T09:57:05Z</time></trkpt><trkpt lat="40.20757025093258" lon="8.997143447436613"><ele>148.5</ele><time>2026-05-04T09:57:06Z</time></trkpt><trkpt lat="40.207845946555786" lon="8.997475938821053"><ele>148.0</ele><time>2026-05-04T09:57:07Z</time></trkpt><trkpt lat="40.208113783214365" lon="8.997821973872265"><ele>150.0</ele><time>2026-05-04T09:57:08Z</time></trkpt><trkpt lat="40.20837421650025" lon="8.99817443703474"><ele>152.0</ele><time>2026-05-04T09:57:09Z</time></trkpt><trkpt lat="40.20863144041948" lon="8.998534638357818"><ele>152.5</ele><time>2026-05-04T09:57:10Z</time></trkpt><trkpt lat="40.20888083898994" lon="8.998901958190444"><ele>153.0</ele><time>2026-05-04T09:57:11Z</time></trkpt><trkpt lat="40.20912428350344" lon="8.999279605355524"><ele>155.0</ele><time>2026-05-04T09:57:12Z</time></trkpt><trkpt lat="40.20936255335534" lon="8.999661663372029"><ele>157.0</ele><time>2026-05-04T09:57:13Z</time></trkpt><trkpt lat="40.209602858019366" lon="9.000038556706391"><ele>156.5</ele><time>2026-05-04T09:57:14Z</time></trkpt><trkpt lat="40.209845434961224" lon="9.000411825802558"><ele>156.0</ele><time>2026-05-04T09:57:15Z</time></trkpt><trkpt lat="40.21009049115311" lon="9.000786295597468"><ele>158.5</ele><time>2026-05-04T09:57:16Z</time></trkpt><trkpt lat="40.210328497546165" lon="9.001160879830218"><ele>161.0</ele><time>2026-05-04T09:57:17Z</time></trkpt><trkpt lat="40.21056679181289" lon="9.001541545975059"><ele>161.5</ele><time>2026-05-04T09:57:18Z</time></trkpt><trkpt lat="40.2108038978289" lon="9.00192531602246"><ele>162.0</ele><time>2026-05-04T09:57:19Z</time></trkpt><trkpt lat="40.21102803966694" lon="9.002303630964962"><ele>164.5</ele><time>2026-05-04T09:57:20Z</time></trkpt><trkpt lat="40.21123704666541" lon="9.002664993894818"><ele>167.0</ele><time>2026-05-04T09:57:21Z</time></trkpt><trkpt lat="40.21144319684839" lon="9.003004338650166"><ele>166.5</ele><time>2026-05-04T09:57:22Z</time></trkpt><trkpt lat="40.211647350163545" lon="9.003335806196587"><ele>166.0</ele><time>2026-05-04T09:57:23Z</time></trkpt><trkpt lat="40.211857066110376" lon="9.003657913205105"><ele>166.0</ele><time>2026-05-04T09:57:24Z</time></trkpt><trkpt lat="40.21206299583014" lon="9.003982497001207"><ele>166.0</ele><time>2026-05-04T09:57:25Z</time></trkpt><trkpt lat="40.21226782677376" lon="9.004303737844008"><ele>166.0</ele><time>2026-05-04T09:57:26Z</time></trkpt><trkpt lat="40.212474339393516" lon="9.00462719051727"><ele>166.0</ele><time>2026-05-04T09:57:27Z</time></trkpt><trkpt lat="40.21268540567665" lon="9.0049586543394"><ele>168.0</ele><time>2026-05-04T09:57:28Z</time></trkpt><trkpt lat="40.21288462287735" lon="9.005275660680478"><ele>170.0</ele><time>2026-05-04T09:57:29.001Z</time></trkpt><trkpt lat="40.213087422034576" lon="9.005598407522397"><ele>169.0</ele><time>2026-05-04T09:57:30.001Z</time></trkpt><trkpt lat="40.2132876577305" lon="9.005913545049857"><ele>168.0</ele><time>2026-05-04T09:57:31.001Z</time></trkpt><trkpt lat="40.213487615029194" lon="9.006227948083389"><ele>168.0</ele><time>2026-05-04T09:57:32.001Z</time></trkpt><trkpt lat="40.213689697700815" lon="9.006542574941479"><ele>168.0</ele><time>2026-05-04T09:57:33.001Z</time></trkpt><trkpt lat="40.213888970395026" lon="9.006862073806104"><ele>167.0</ele><time>2026-05-04T09:57:34.001Z</time></trkpt><trkpt lat="40.21408850760564" lon="9.007180045447493"><ele>166.0</ele><time>2026-05-04T09:57:35.001Z</time></trkpt><trkpt lat="40.214288514988326" lon="9.007501501313712"><ele>165.5</ele><time>2026-05-04T09:57:36.001Z</time></trkpt><trkpt lat="40.21448738079999" lon="9.007823289567808"><ele>165.0</ele><time>2026-05-04T09:57:37.001Z</time></trkpt><trkpt lat="40.21468986117504" lon="9.00814655343606"><ele>165.5</ele><time>2026-05-04T09:57:38.001Z</time></trkpt><trkpt lat="40.214900507163634" lon="9.008475941186859"><ele>166.0</ele><time>2026-05-04T09:57:39.001Z</time></trkpt><trkpt lat="40.21511484930179" lon="9.008805082377624"><ele>166.0</ele><time>2026-05-04T09:57:40.001Z</time></trkpt><trkpt lat="40.21532011806173" lon="9.009130902203406"><ele>166.0</ele><time>2026-05-04T09:57:41.001Z</time></trkpt><trkpt lat="40.21552920433249" lon="9.009463583978166"><ele>166.0</ele><time>2026-05-04T09:57:42.001Z</time></trkpt><trkpt lat="40.21573567980688" lon="9.0097945705146"><ele>166.0</ele><time>2026-05-04T09:57:43.001Z</time></trkpt><trkpt lat="40.215946085234705" lon="9.010124925309416"><ele>166.0</ele><time>2026-05-04T09:57:44.001Z</time></trkpt><trkpt lat="40.21615466229723" lon="9.010457856516982"><ele>166.0</ele><time>2026-05-04T09:57:45.001Z</time></trkpt><trkpt lat="40.21635961158073" lon="9.01078822555731"><ele>164.5</ele><time>2026-05-04T09:57:46.001Z</time></trkpt><trkpt lat="40.21656597455882" lon="9.01111541372789"><ele>163.0</ele><time>2026-05-04T09:57:47.001Z</time></trkpt><trkpt lat="40.21677531988931" lon="9.011445681334775"><ele>164.5</ele><time>2026-05-04T09:57:48.001Z</time></trkpt><trkpt lat="40.21698117054022" lon="9.011770944025825"><ele>166.0</ele><time>2026-05-04T09:57:49.001Z</time></trkpt><trkpt lat="40.21719036192177" lon="9.012097764270608"><ele>166.0</ele><time>2026-05-04T09:57:50.001Z</time></trkpt><trkpt lat="40.21739476178739" lon="9.01241810680636"><ele>166.0</ele><time>2026-05-04T09:57:51.001Z</time></trkpt><trkpt lat="40.23046426999202" lon="9.031685920798974"><ele>171.0</ele><time>2026-05-04T09:58:52Z</time></trkpt><trkpt lat="40.23067393309882" lon="9.032003445804666"><ele>176.0</ele><time>2026-05-04T09:58:53Z</time></trkpt><trkpt lat="40.23089949990489" lon="9.032294224271478"><ele>176.0</ele><time>2026-05-04T09:58:54Z</time></trkpt><trkpt lat="40.23111798901218" lon="9.032598137897821"><ele>176.0</ele><time>2026-05-04T09:58:55Z</time></trkpt><trkpt lat="40.231341221328265" lon="9.03290062514514"><ele>179.0</ele><time>2026-05-04T09:58:56Z</time></trkpt><trkpt lat="40.23156568108045" lon="9.033200857086001"><ele>182.0</ele><time>2026-05-04T09:58:57Z</time></trkpt><trkpt lat="40.23179065768908" lon="9.033506719172253"><ele>182.0</ele><time>2026-05-04T09:58:58Z</time></trkpt><trkpt lat="40.23200970076531" lon="9.033818887163916"><ele>182.0</ele><time>2026-05-04T09:58:59Z</time></trkpt><trkpt lat="40.2322330011377" lon="9.034123044643588"><ele>182.0</ele><time>2026-05-04T09:59:00Z</time></trkpt><trkpt lat="40.23245581953135" lon="9.034430012063291"><ele>182.0</ele><time>2026-05-04T09:59:01Z</time></trkpt><trkpt lat="40.232674332440304" lon="9.034730980948295"><ele>182.0</ele><time>2026-05-04T09:59:02Z</time></trkpt><trkpt lat="40.232901466912566" lon="9.035039457913205"><ele>182.0</ele><time>2026-05-04T09:59:03Z</time></trkpt><trkpt lat="40.23311741911261" lon="9.035354710570047"><ele>182.0</ele><time>2026-05-04T09:59:04Z</time></trkpt><trkpt lat="40.233324711925036" lon="9.035672219783729"><ele>182.0</ele><time>2026-05-04T09:59:05Z</time></trkpt><trkpt lat="40.23352601309016" lon="9.035999013984425"><ele>182.0</ele><time>2026-05-04T09:59:06Z</time></trkpt><trkpt lat="40.23371783217011" lon="9.036330075787223"><ele>182.0</ele><time>2026-05-04T09:59:07Z</time></trkpt><trkpt lat="40.23391154142232" lon="9.03666482854343"><ele>183.0</ele><time>2026-05-04T09:59:08Z</time></trkpt><trkpt lat="40.23410129997406" lon="9.036996319819904"><ele>184.0</ele><time>2026-05-04T09:59:09Z</time></trkpt><trkpt lat="40.23429891731102" lon="9.037321198613293"><ele>183.5</ele><time>2026-05-04T09:59:10Z</time></trkpt><trkpt lat="40.234490221712754" lon="9.037649381877316"><ele>183.0</ele><time>2026-05-04T09:59:11Z</time></trkpt><trkpt lat="40.23468093355209" lon="9.037971555685466"><ele>183.0</ele><time>2026-05-04T09:59:12Z</time></trkpt><trkpt lat="40.2348734029505" lon="9.038295788654068"><ele>183.0</ele><time>2026-05-04T09:59:13Z</time></trkpt><trkpt lat="40.23506697717756" lon="9.038623649232676"><ele>183.5</ele><time>2026-05-04T09:59:14Z</time></trkpt><trkpt lat="40.235255394404895" lon="9.038947273733637"><ele>184.0</ele><time>2026-05-04T09:59:15Z</time></trkpt><trkpt lat="40.235452385597064" lon="9.03927860798209"><ele>185.5</ele><time>2026-05-04T09:59:16Z</time></trkpt><trkpt lat="40.23565147998377" lon="9.039614667903473"><ele>187.0</ele><time>2026-05-04T09:59:17Z</time></trkpt><trkpt lat="40.23585021693886" lon="9.039946991532116"><ele>185.5</ele><time>2026-05-04T09:59:18Z</time></trkpt><trkpt lat="40.23604287716503" lon="9.040274948461999"><ele>184.0</ele><time>2026-05-04T09:59:19Z</time></trkpt><trkpt lat="40.23624013633923" lon="9.040602306203768"><ele>183.5</ele><time>2026-05-04T09:59:20Z</time></trkpt><trkpt lat="40.236433022391715" lon="9.040932011795055"><ele>183.0</ele><time>2026-05-04T09:59:21Z</time></trkpt><trkpt lat="40.23662588972705" lon="9.04126318121027"><ele>184.0</ele><time>2026-05-04T09:59:22Z</time></trkpt><trkpt lat="40.236820327073616" lon="9.041593895969628"><ele>185.0</ele><time>2026-05-04T09:59:23Z</time></trkpt><trkpt lat="40.23701371108954" lon="9.041917541298744"><ele>185.5</ele><time>2026-05-04T09:59:24.001Z</time></trkpt><trkpt lat="40.23721404207276" lon="9.04224403941642"><ele>186.0</ele><time>2026-05-04T09:59:25.001Z</time></trkpt><trkpt lat="40.23739984039775" lon="9.042560694755906"><ele>186.0</ele><time>2026-05-04T09:59:26.001Z</time></trkpt><trkpt lat="40.23759025946" lon="9.04288071364637"><ele>186.0</ele><time>2026-05-04T09:59:27.001Z</time></trkpt><trkpt lat="40.237772845994996" lon="9.043185113303332"><ele>186.0</ele><time>2026-05-04T09:59:28.001Z</time></trkpt><trkpt lat="40.23795695857439" lon="9.043498178745834"><ele>186.0</ele><time>2026-05-04T09:59:29.001Z</time></trkpt><trkpt lat="40.238132640080636" lon="9.043807669591814"><ele>186.5</ele><time>2026-05-04T09:59:30.001Z</time></trkpt><trkpt lat="40.23831136609128" lon="9.04411115718876"><ele>187.0</ele><time>2026-05-04T09:59:31.001Z</time></trkpt><trkpt lat="40.238489009194495" lon="9.044416005776418"><ele>186.0</ele><time>2026-05-04T09:59:32.001Z</time></trkpt><trkpt lat="40.23866819204004" lon="9.044723125178775"><ele>185.0</ele><time>2026-05-04T09:59:33.001Z</time></trkpt><trkpt lat="40.23884618644794" lon="9.045028849508531"><ele>186.5</ele><time>2026-05-04T09:59:34.001Z</time></trkpt><trkpt lat="40.2390241101066" lon="9.045338256053128"><ele>188.0</ele><time>2026-05-04T09:59:35.001Z</time></trkpt><trkpt lat="40.23919639044796" lon="9.045657917302336"><ele>190.0</ele><time>2026-05-04T09:59:36.001Z</time></trkpt><trkpt lat="40.23936949069624" lon="9.045973929378217"><ele>192.0</ele><time>2026-05-04T09:59:37.001Z</time></trkpt><trkpt lat="40.239554093400095" lon="9.046283997243213"><ele>192.0</ele><time>2026-05-04T09:59:38.001Z</time></trkpt><trkpt lat="40.23974115987166" lon="9.04658945369617"><ele>192.0</ele><time>2026-05-04T09:59:39.001Z</time></trkpt><trkpt lat="40.23992646398196" lon="9.046898293437918"><ele>193.5</ele><time>2026-05-04T09:59:40.001Z</time></trkpt><trkpt lat="40.240113140972795" lon="9.047213380983942"><ele>195.0</ele><time>2026-05-04T09:59:41.001Z</time></trkpt><trkpt lat="40.24029562534392" lon="9.047531874698711"><ele>195.0</ele><time>2026-05-04T09:59:42.001Z</time></trkpt><trkpt lat="40.240474540002175" lon="9.047841291564469"><ele>195.0</ele><time>2026-05-04T09:59:43.001Z</time></trkpt><trkpt lat="40.24064182350451" lon="9.04813247497571"><ele>199.5</ele><time>2026-05-04T09:59:44.001Z</time></trkpt><trkpt lat="40.240814510716" lon="9.04842410852852"><ele>204.0</ele><time>2026-05-04T09:59:45.001Z</time></trkpt><trkpt lat="40.24098399570507" lon="9.048715605192934"><ele>204.0</ele><time>2026-05-04T09:59:46.001Z</time></trkpt><trkpt lat="40.24116157730541" lon="9.04901655284956"><ele>204.0</ele><time>2026-05-04T09:59:47.001Z</time></trkpt><trkpt lat="40.24133390302739" lon="9.049310292135468"><ele>206.5</ele><time>2026-05-04T09:59:48.001Z</time></trkpt><trkpt lat="40.24150804693889" lon="9.049600500896364"><ele>209.0</ele><time>2026-05-04T09:59:49.001Z</time></trkpt><trkpt lat="40.241684474962426" lon="9.049888001506597"><ele>207.0</ele><time>2026-05-04T09:59:50.001Z</time></trkpt><trkpt lat="40.24186281910345" lon="9.050175020703312"><ele>205.0</ele><time>2026-05-04T09:59:51.001Z</time></trkpt><trkpt lat="40.247779320513466" lon="9.071521816146904"><ele>235.5</ele><time>2026-05-04T10:00:52Z</time></trkpt><trkpt lat="40.2478393124648" lon="9.071850948218518"><ele>266.0</ele><time>2026-05-04T10:00:53Z</time></trkpt><trkpt lat="40.24789900112845" lon="9.07219254628179"><ele>267.5</ele><time>2026-05-04T10:00:54Z</time></trkpt><trkpt lat="40.24796825220275" lon="9.072550424842502"><ele>269.0</ele><time>2026-05-04T10:00:55Z</time></trkpt><trkpt lat="40.24803502932422" lon="9.072907001119097"><ele>269.0</ele><time>2026-05-04T10:00:56Z</time></trkpt><trkpt lat="40.24809649062621" lon="9.073254050180852"><ele>269.0</ele><time>2026-05-04T10:00:57Z</time></trkpt><trkpt lat="40.24816564128602" lon="9.073610117106439"><ele>266.5</ele><time>2026-05-04T10:00:58Z</time></trkpt><trkpt lat="40.24823075992364" lon="9.07396529672466"><ele>264.0</ele><time>2026-05-04T10:00:59Z</time></trkpt><trkpt lat="40.24829482790676" lon="9.074324813855709"><ele>264.0</ele><time>2026-05-04T10:01:00Z</time></trkpt><trkpt lat="40.24836031185679" lon="9.074684394444791"><ele>264.0</ele><time>2026-05-04T10:01:01Z</time></trkpt><trkpt lat="40.24842759017571" lon="9.075038834548105"><ele>266.5</ele><time>2026-05-04T10:01:02Z</time></trkpt><trkpt lat="40.24849115536417" lon="9.075395719411864"><ele>269.0</ele><time>2026-05-04T10:01:03Z</time></trkpt><trkpt lat="40.248551341640685" lon="9.075751299462429"><ele>269.5</ele><time>2026-05-04T10:01:04Z</time></trkpt><trkpt lat="40.248613131768906" lon="9.076091296442545"><ele>270.0</ele><time>2026-05-04T10:01:05Z</time></trkpt><trkpt lat="40.24867734204634" lon="9.076432669142934"><ele>271.0</ele><time>2026-05-04T10:01:06.001Z</time></trkpt><trkpt lat="40.24873724373681" lon="9.076770908050886"><ele>272.0</ele><time>2026-05-04T10:01:07.001Z</time></trkpt><trkpt lat="40.24880046749935" lon="9.077101979705827"><ele>272.0</ele><time>2026-05-04T10:01:08.001Z</time></trkpt><trkpt lat="40.24886263580891" lon="9.077434386378217"><ele>272.0</ele><time>2026-05-04T10:01:09.001Z</time></trkpt><trkpt lat="40.248924495448314" lon="9.077761855705502"><ele>269.0</ele><time>2026-05-04T10:01:10.001Z</time></trkpt><trkpt lat="40.24898618608425" lon="9.07809148497253"><ele>266.0</ele><time>2026-05-04T10:01:11.001Z</time></trkpt><trkpt lat="40.2490412777834" lon="9.078419489588365"><ele>266.0</ele><time>2026-05-04T10:01:12.001Z</time></trkpt><trkpt lat="40.249100307570814" lon="9.078750102420512"><ele>266.0</ele><time>2026-05-04T10:01:13.001Z</time></trkpt><trkpt lat="40.249160065861375" lon="9.079080195898984"><ele>267.5</ele><time>2026-05-04T10:01:14.001Z</time></trkpt><trkpt lat="40.24922442484459" lon="9.079426997375553"><ele>269.0</ele><time>2026-05-04T10:01:15.001Z</time></trkpt><trkpt lat="40.249289260955365" lon="9.079788709714933"><ele>268.5</ele><time>2026-05-04T10:01:16.001Z</time></trkpt><trkpt lat="40.24935227648824" lon="9.080161413367883"><ele>268.0</ele><time>2026-05-04T10:01:17.001Z</time></trkpt><trkpt lat="40.249423601247734" lon="9.08055429055075"><ele>267.5</ele><time>2026-05-04T10:01:18.001Z</time></trkpt><trkpt lat="40.24949947256694" lon="9.080945243828925"><ele>267.0</ele><time>2026-05-04T10:01:19.001Z</time></trkpt><trkpt lat="40.249575439394576" lon="9.081339491550454"><ele>268.5</ele><time>2026-05-04T10:01:20.001Z</time></trkpt><trkpt lat="40.24964799630486" lon="9.081736418263372"><ele>270.0</ele><time>2026-05-04T10:01:21.001Z</time></trkpt><trkpt lat="40.249721180516175" lon="9.082136780061912"><ele>261.5</ele><time>2026-05-04T10:01:22.001Z</time></trkpt><trkpt lat="40.24979546373521" lon="9.082543180406947"><ele>253.0</ele><time>2026-05-04T10:01:23.001Z</time></trkpt><trkpt lat="40.249870371659874" lon="9.082950786531951"><ele>249.0</ele><time>2026-05-04T10:01:24.001Z</time></trkpt><trkpt lat="40.24994627364273" lon="9.08335409854901"><ele>245.0</ele><time>2026-05-04T10:01:25.001Z</time></trkpt><trkpt lat="40.25002230020268" lon="9.083762986858694"><ele>243.5</ele><time>2026-05-04T10:01:26.001Z</time></trkpt><trkpt lat="40.25010423318389" lon="9.08417477870694"><ele>242.0</ele><time>2026-05-04T10:01:27.001Z</time></trkpt><trkpt lat="40.250200978107536" lon="9.084579945996705"><ele>245.5</ele><time>2026-05-04T10:01:28.001Z</time></trkpt><trkpt lat="40.2503073884184" lon="9.084974873109289"><ele>249.0</ele><time>2026-05-04T10:01:29.001Z</time></trkpt><trkpt lat="40.250433234880525" lon="9.08536711424784"><ele>249.0</ele><time>2026-05-04T10:01:30.001Z</time></trkpt><trkpt lat="40.25057724385776" lon="9.085747397217416"><ele>249.0</ele><time>2026-05-04T10:01:31.001Z</time></trkpt><trkpt lat="40.25073526717501" lon="9.086121904209666"><ele>250.5</ele><time>2026-05-04T10:01:32.001Z</time></trkpt><trkpt lat="40.25090820674565" lon="9.086489535596145"><ele>252.0</ele><time>2026-05-04T10:01:33.001Z</time></trkpt><trkpt lat="40.251094097093954" lon="9.086850676052467"><ele>254.0</ele><time>2026-05-04T10:01:34.001Z</time></trkpt><trkpt lat="40.25129483844133" lon="9.0872052122757"><ele>256.0</ele><time>2026-05-04T10:01:35.001Z</time></trkpt><trkpt lat="40.251512485192826" lon="9.087555784518726"><ele>256.0</ele><time>2026-05-04T10:01:36.001Z</time></trkpt><trkpt lat="40.251736611162336" lon="9.087881929847267"><ele>256.0</ele><time>2026-05-04T10:01:37.001Z</time></trkpt><trkpt lat="40.25196508832061" lon="9.088194771922572"><ele>256.0</ele><time>2026-05-04T10:01:38.001Z</time></trkpt><trkpt lat="40.25219247968426" lon="9.088510611192858"><ele>256.0</ele><time>2026-05-04T10:01:39.001Z</time></trkpt><trkpt lat="40.25241979079944" lon="9.088826799115912"><ele>260.0</ele><time>2026-05-04T10:01:40.001Z</time></trkpt><trkpt lat="40.2526511027489" lon="9.089146124726918"><ele>264.0</ele><time>2026-05-04T10:01:41.001Z</time></trkpt><trkpt lat="40.25287896384993" lon="9.089470764988075"><ele>264.0</ele><time>2026-05-04T10:01:42.001Z</time></trkpt><trkpt lat="40.25310776183732" lon="9.089799833584443"><ele>264.0</ele><time>2026-05-04T10:01:43.001Z</time></trkpt><trkpt lat="40.25334081859631" lon="9.090127314120327"><ele>264.0</ele><time>2026-05-04T10:01:44.001Z</time></trkpt><trkpt lat="40.25357885539786" lon="9.090457627393096"><ele>264.0</ele><time>2026-05-04T10:01:45.001Z</time></trkpt><trkpt lat="40.25381516670798" lon="9.090786739076236"><ele>263.5</ele><time>2026-05-04T10:01:46.001Z</time></trkpt><trkpt lat="40.254053418273266" lon="9.091115420179285"><ele>263.0</ele><time>2026-05-04T10:01:47.001Z</time></trkpt><trkpt lat="40.254289874399554" lon="9.091443978935773"><ele>264.5</ele><time>2026-05-04T10:01:48.001Z</time></trkpt><trkpt lat="40.2545227383485" lon="9.091767982680802"><ele>266.0</ele><time>2026-05-04T10:01:49.001Z</time></trkpt><trkpt lat="40.254757266938164" lon="9.092095894468914"><ele>263.5</ele><time>2026-05-04T10:01:50.001Z</time></trkpt><trkpt lat="40.25498760010992" lon="9.09242160301285"><ele>261.0</ele><time>2026-05-04T10:01:51.001Z</time></trkpt><trkpt lat="40.26424062842818" lon="9.115229058852941"><ele>261.0</ele><time>2026-05-04T10:02:52.001Z</time></trkpt><trkpt lat="40.26430741481411" lon="9.115668586933362"><ele>261.0</ele><time>2026-05-04T10:02:53.001Z</time></trkpt><trkpt lat="40.264388266059186" lon="9.116098201304883"><ele>262.0</ele><time>2026-05-04T10:02:54.001Z</time></trkpt><trkpt lat="40.26448360885081" lon="9.11652740886334"><ele>263.0</ele><time>2026-05-04T10:02:55.001Z</time></trkpt><trkpt lat="40.26459526251521" lon="9.116949728488132"><ele>263.0</ele><time>2026-05-04T10:02:56.001Z</time></trkpt><trkpt lat="40.2647158337092" lon="9.117364025187829"><ele>263.0</ele><time>2026-05-04T10:02:57.001Z</time></trkpt><trkpt lat="40.2648472235814" lon="9.117771564911111"><ele>263.0</ele><time>2026-05-04T10:02:58.001Z</time></trkpt><trkpt lat="40.26499194667609" lon="9.118170666519791"><ele>263.0</ele><time>2026-05-04T10:02:59.001Z</time></trkpt><trkpt lat="40.26514893436184" lon="9.11855767601142"><ele>263.0</ele><time>2026-05-04T10:03:00.001Z</time></trkpt><trkpt lat="40.26531909825784" lon="9.118936187155851"><ele>263.0</ele><time>2026-05-04T10:03:01.001Z</time></trkpt><trkpt lat="40.2654981704432" lon="9.119306539700736"><ele>264.0</ele><time>2026-05-04T10:03:02.001Z</time></trkpt><trkpt lat="40.265686469194236" lon="9.119669982563092"><ele>265.0</ele><time>2026-05-04T10:03:03.001Z</time></trkpt><trkpt lat="40.2658743538328" lon="9.1200311793279"><ele>265.0</ele><time>2026-05-04T10:03:04.001Z</time></trkpt><trkpt lat="40.26606866306294" lon="9.120391689397604"><ele>265.0</ele><time>2026-05-04T10:03:05.001Z</time></trkpt><trkpt lat="40.2662575505989" lon="9.120754550927819"><ele>263.5</ele><time>2026-05-04T10:03:06.001Z</time></trkpt><trkpt lat="40.26644433992941" lon="9.12111483731626"><ele>262.0</ele><time>2026-05-04T10:03:07.001Z</time></trkpt><trkpt lat="40.2666316864184" lon="9.121480180371156"><ele>266.0</ele><time>2026-05-04T10:03:08.001Z</time></trkpt><trkpt lat="40.266822099170895" lon="9.12184632372172"><ele>270.0</ele><time>2026-05-04T10:03:09.001Z</time></trkpt><trkpt lat="40.267017112767235" lon="9.122208702058808"><ele>272.5</ele><time>2026-05-04T10:03:10.001Z</time></trkpt><trkpt lat="40.26721581584432" lon="9.122566784916762"><ele>275.0</ele><time>2026-05-04T10:03:11.001Z</time></trkpt><trkpt lat="40.26741682858575" lon="9.122923494451507"><ele>278.0</ele><time>2026-05-04T10:03:12.001Z</time></trkpt><trkpt lat="40.26763378838477" lon="9.123268695604848"><ele>281.0</ele><time>2026-05-04T10:03:13.001Z</time></trkpt><trkpt lat="40.26786364026876" lon="9.123593218188017"><ele>281.0</ele><time>2026-05-04T10:03:14.001Z</time></trkpt><trkpt lat="40.26810419386495" lon="9.123909176201707"><ele>281.0</ele><time>2026-05-04T10:03:15.001Z</time></trkpt><trkpt lat="40.26835994547392" lon="9.124212594439378"><ele>279.0</ele><time>2026-05-04T10:03:16.001Z</time></trkpt><trkpt lat="40.26861613036916" lon="9.124511445221398"><ele>277.0</ele><time>2026-05-04T10:03:17.001Z</time></trkpt><trkpt lat="40.26887832021571" lon="9.124838867830464"><ele>276.5</ele><time>2026-05-04T10:03:18.001Z</time></trkpt><trkpt lat="40.26912230873427" lon="9.125118701276817"><ele>276.0</ele><time>2026-05-04T10:03:19.001Z</time></trkpt><trkpt lat="40.26936800137804" lon="9.125421210432263"><ele>276.0</ele><time>2026-05-04T10:03:20.001Z</time></trkpt><trkpt lat="40.269611012320915" lon="9.125726557142867"><ele>276.0</ele><time>2026-05-04T10:03:21.001Z</time></trkpt><trkpt lat="40.26985870580774" lon="9.12603081645124"><ele>281.0</ele><time>2026-05-04T10:03:22.001Z</time></trkpt><trkpt lat="40.270096316111726" lon="9.126325421525104"><ele>286.0</ele><time>2026-05-04T10:03:23.001Z</time></trkpt><trkpt lat="40.27033426667414" lon="9.12661586252355"><ele>287.5</ele><time>2026-05-04T10:03:24.001Z</time></trkpt><trkpt lat="40.27056043443852" lon="9.126896227210176"><ele>289.0</ele><time>2026-05-04T10:03:25.001Z</time></trkpt><trkpt lat="40.27078578805708" lon="9.127172938935281"><ele>293.5</ele><time>2026-05-04T10:03:26.001Z</time></trkpt><trkpt lat="40.27100760248623" lon="9.127439778081929"><ele>298.0</ele><time>2026-05-04T10:03:27.001Z</time></trkpt><trkpt lat="40.27121894435005" lon="9.127694000861036"><ele>298.0</ele><time>2026-05-04T10:03:28.001Z</time></trkpt><trkpt lat="40.27142732941663" lon="9.127945072355732"><ele>298.0</ele><time>2026-05-04T10:03:29.001Z</time></trkpt><trkpt lat="40.27162458224844" lon="9.128207014559967"><ele>297.5</ele><time>2026-05-04T10:03:30.001Z</time></trkpt><trkpt lat="40.27181667749311" lon="9.128482067848228"><ele>297.0</ele><time>2026-05-04T10:03:31.001Z</time></trkpt><trkpt lat="40.27199977031109" lon="9.128768727970625"><ele>299.5</ele><time>2026-05-04T10:03:32.001Z</time></trkpt><trkpt lat="40.27217439530477" lon="9.129071098909947"><ele>302.0</ele><time>2026-05-04T10:03:33.001Z</time></trkpt><trkpt lat="40.27234452689778" lon="9.12937660936599"><ele>296.5</ele><time>2026-05-04T10:03:34.001Z</time></trkpt><trkpt lat="40.27250087520544" lon="9.129689321967188"><ele>291.0</ele><time>2026-05-04T10:03:35.001Z</time></trkpt><trkpt lat="40.27265960477171" lon="9.12999643917993"><ele>291.0</ele><time>2026-05-04T10:03:36.001Z</time></trkpt><trkpt lat="40.27282065502715" lon="9.13030953619084"><ele>291.0</ele><time>2026-05-04T10:03:37.001Z</time></trkpt><trkpt lat="40.2729827140745" lon="9.130626321107714"><ele>290.0</ele><time>2026-05-04T10:03:38.001Z</time></trkpt><trkpt lat="40.273148573300126" lon="9.130937876095667"><ele>289.0</ele><time>2026-05-04T10:03:39.001Z</time></trkpt><trkpt lat="40.27331422975552" lon="9.131247214727493"><ele>290.5</ele><time>2026-05-04T10:03:40.001Z</time></trkpt><trkpt lat="40.273477535298376" lon="9.131559868380805"><ele>292.0</ele><time>2026-05-04T10:03:41.001Z</time></trkpt><trkpt lat="40.27364449261105" lon="9.131876785992855"><ele>292.0</ele><time>2026-05-04T10:03:42.001Z</time></trkpt><trkpt lat="40.27380773058349" lon="9.132191265747762"><ele>292.0</ele><time>2026-05-04T10:03:43.001Z</time></trkpt><trkpt lat="40.273977727529164" lon="9.13250707603543"><ele>292.0</ele><time>2026-05-04T10:03:44.001Z</time></trkpt><trkpt lat="40.27415133634747" lon="9.132818559178743"><ele>292.0</ele><time>2026-05-04T10:03:45.001Z</time></trkpt><trkpt lat="40.274341066102295" lon="9.133120823972225"><ele>295.0</ele><time>2026-05-04T10:03:46.001Z</time></trkpt><trkpt lat="40.2745435585669" lon="9.133409518790677"><ele>298.0</ele><time>2026-05-04T10:03:47.001Z</time></trkpt><trkpt lat="40.274759422251314" lon="9.133689714404605"><ele>297.0</ele><time>2026-05-04T10:03:48.001Z</time></trkpt><trkpt lat="40.2749845577685" lon="9.13395485886296"><ele>296.0</ele><time>2026-05-04T10:03:49.001Z</time></trkpt><trkpt lat="40.27522216052544" lon="9.134209173051437"><ele>296.0</ele><time>2026-05-04T10:03:50.001Z</time></trkpt><trkpt lat="40.27546862494736" lon="9.13444868919927"><ele>296.0</ele><time>2026-05-04T10:03:51.001Z</time></trkpt><trkpt lat="40.286605344146885" lon="9.15304508703055"><ele>306.0</ele><time>2026-05-04T10:04:52.001Z</time></trkpt><trkpt lat="40.286722714419135" lon="9.153406155625461"><ele>316.0</ele><time>2026-05-04T10:04:53.001Z</time></trkpt><trkpt lat="40.28683804419972" lon="9.153765784186689"><ele>315.5</ele><time>2026-05-04T10:04:54.001Z</time></trkpt><trkpt lat="40.28695047206415" lon="9.154113204031042"><ele>315.0</ele><time>2026-05-04T10:04:55.001Z</time></trkpt><trkpt lat="40.287067050291625" lon="9.15447298738044"><ele>315.0</ele><time>2026-05-04T10:04:56.001Z</time></trkpt><trkpt lat="40.287177881602375" lon="9.154858573197341"><ele>315.0</ele><time>2026-05-04T10:04:57.001Z</time></trkpt><trkpt lat="40.28727740473528" lon="9.155243235037814"><ele>309.0</ele><time>2026-05-04T10:04:58.001Z</time></trkpt><trkpt lat="40.287359905348126" lon="9.155636512310892"><ele>303.0</ele><time>2026-05-04T10:04:59.001Z</time></trkpt><trkpt lat="40.28742555979753" lon="9.15603708150351"><ele>303.0</ele><time>2026-05-04T10:05:00.001Z</time></trkpt><trkpt lat="40.28747976945851" lon="9.156446537289442"><ele>303.0</ele><time>2026-05-04T10:05:01.001Z</time></trkpt><trkpt lat="40.287526907819085" lon="9.156862508475301"><ele>304.0</ele><time>2026-05-04T10:05:02.001Z</time></trkpt><trkpt lat="40.287564200270744" lon="9.157281340091759"><ele>305.0</ele><time>2026-05-04T10:05:03.001Z</time></trkpt><trkpt lat="40.28759732454158" lon="9.157700178546817"><ele>305.5</ele><time>2026-05-04T10:05:04.001Z</time></trkpt><trkpt lat="40.28762627200718" lon="9.158121365827622"><ele>306.0</ele><time>2026-05-04T10:05:05.001Z</time></trkpt><trkpt lat="40.2876613740484" lon="9.158545537798139"><ele>306.0</ele><time>2026-05-04T10:05:06.001Z</time></trkpt><trkpt lat="40.28769904301849" lon="9.158969846488196"><ele>306.0</ele><time>2026-05-04T10:05:07.001Z</time></trkpt><trkpt lat="40.2877346171237" lon="9.159391315350998"><ele>306.0</ele><time>2026-05-04T10:05:08.001Z</time></trkpt><trkpt lat="40.287765907561294" lon="9.159814537896162"><ele>306.0</ele><time>2026-05-04T10:05:09.001Z</time></trkpt><trkpt lat="40.28779579167408" lon="9.16023297744611"><ele>306.5</ele><time>2026-05-04T10:05:10.001Z</time></trkpt><trkpt lat="40.28783036376613" lon="9.160658060307213"><ele>307.0</ele><time>2026-05-04T10:05:11.001Z</time></trkpt><trkpt lat="40.287860494915904" lon="9.161077601653611"><ele>311.0</ele><time>2026-05-04T10:05:12.001Z</time></trkpt><trkpt lat="40.287892436020286" lon="9.16149879568409"><ele>315.0</ele><time>2026-05-04T10:05:13.001Z</time></trkpt><trkpt lat="40.28792035448962" lon="9.161914140088632"><ele>321.0</ele><time>2026-05-04T10:05:14.001Z</time></trkpt><trkpt lat="40.28794292721176" lon="9.162330525693703"><ele>327.0</ele><time>2026-05-04T10:05:15.001Z</time></trkpt><trkpt lat="40.28796724007407" lon="9.162748327754738"><ele>328.0</ele><time>2026-05-04T10:05:16.001Z</time></trkpt><trkpt lat="40.28801125537578" lon="9.163167971788608"><ele>329.0</ele><time>2026-05-04T10:05:17.001Z</time></trkpt><trkpt lat="40.288072278998925" lon="9.163581163073607"><ele>321.5</ele><time>2026-05-04T10:05:18.001Z</time></trkpt><trkpt lat="40.28815399367627" lon="9.163992598267459"><ele>314.0</ele><time>2026-05-04T10:05:19.001Z</time></trkpt><trkpt lat="40.288256305047874" lon="9.164393026187705"><ele>314.0</ele><time>2026-05-04T10:05:20.001Z</time></trkpt><trkpt lat="40.288372030362225" lon="9.164792430604539"><ele>314.0</ele><time>2026-05-04T10:05:21.001Z</time></trkpt><trkpt lat="40.288505849040526" lon="9.165186437664701"><ele>315.5</ele><time>2026-05-04T10:05:22.001Z</time></trkpt><trkpt lat="40.28864864079198" lon="9.165571537336172"><ele>317.0</ele><time>2026-05-04T10:05:23.001Z</time></trkpt><trkpt lat="40.288804149196324" lon="9.165947691546725"><ele>320.5</ele><time>2026-05-04T10:05:24.001Z</time></trkpt><trkpt lat="40.288979014820846" lon="9.166312929460029"><ele>324.0</ele><time>2026-05-04T10:05:25.001Z</time></trkpt><trkpt lat="40.28917139139717" lon="9.166670554977463"><ele>324.0</ele><time>2026-05-04T10:05:26.001Z</time></trkpt><trkpt lat="40.28937641899498" lon="9.167011351944836"><ele>324.0</ele><time>2026-05-04T10:05:27.001Z</time></trkpt><trkpt lat="40.28958893230594" lon="9.16734100033557"><ele>327.5</ele><time>2026-05-04T10:05:28.001Z</time></trkpt><trkpt lat="40.289810364631904" lon="9.167654153205932"><ele>331.0</ele><time>2026-05-04T10:05:29.001Z</time></trkpt><trkpt lat="40.290034570478774" lon="9.167965019506674"><ele>330.5</ele><time>2026-05-04T10:05:30.001Z</time></trkpt><trkpt lat="40.290254614853595" lon="9.168279807265597"><ele>330.0</ele><time>2026-05-04T10:05:31.001Z</time></trkpt><trkpt lat="40.29047482096644" lon="9.168592687468216"><ele>332.5</ele><time>2026-05-04T10:05:32.001Z</time></trkpt><trkpt lat="40.29069067098866" lon="9.168899879541213"><ele>335.0</ele><time>2026-05-04T10:05:33.001Z</time></trkpt><trkpt lat="40.29090861999584" lon="9.169206355609576"><ele>335.0</ele><time>2026-05-04T10:05:34.001Z</time></trkpt><trkpt lat="40.29112078888737" lon="9.169511041205345"><ele>335.0</ele><time>2026-05-04T10:05:35.001Z</time></trkpt><trkpt lat="40.29133035536489" lon="9.169815900175461"><ele>340.0</ele><time>2026-05-04T10:05:36.001Z</time></trkpt><trkpt lat="40.29153879064184" lon="9.17012067489897"><ele>345.0</ele><time>2026-05-04T10:05:37.001Z</time></trkpt><trkpt lat="40.291741577903764" lon="9.170429509005892"><ele>346.5</ele><time>2026-05-04T10:05:38.001Z</time></trkpt><trkpt lat="40.291940534716026" lon="9.170749976967599"><ele>348.0</ele><time>2026-05-04T10:05:39.001Z</time></trkpt><trkpt lat="40.29212590098719" lon="9.171076947851358"><ele>348.0</ele><time>2026-05-04T10:05:40.001Z</time></trkpt><trkpt lat="40.29229179968479" lon="9.171424778685681"><ele>348.0</ele><time>2026-05-04T10:05:41.001Z</time></trkpt><trkpt lat="40.29242979671287" lon="9.171785257261151"><ele>348.0</ele><time>2026-05-04T10:05:42.001Z</time></trkpt><trkpt lat="40.29256252480907" lon="9.172156991022693"><ele>348.0</ele><time>2026-05-04T10:05:43.001Z</time></trkpt><trkpt lat="40.292682381839086" lon="9.172535656668238"><ele>349.5</ele><time>2026-05-04T10:05:44.001Z</time></trkpt><trkpt lat="40.29278859035871" lon="9.172922882865604"><ele>351.0</ele><time>2026-05-04T10:05:45.001Z</time></trkpt><trkpt lat="40.29287340425346" lon="9.173318511228695"><ele>352.0</ele><time>2026-05-04T10:05:46.001Z</time></trkpt><trkpt lat="40.29294585896758" lon="9.17372034821389"><ele>353.0</ele><time>2026-05-04T10:05:47.001Z</time></trkpt><trkpt lat="40.293004978275945" lon="9.174132493642395"><ele>353.0</ele><time>2026-05-04T10:05:48.001Z</time></trkpt><trkpt lat="40.29304359098443" lon="9.174543746126218"><ele>353.0</ele><time>2026-05-04T10:05:49.001Z</time></trkpt><trkpt lat="40.29307073738614" lon="9.17496266987786"><ele>354.5</ele><time>2026-05-04T10:05:50.001Z</time></trkpt><trkpt lat="40.29308595727742" lon="9.175380057459952"><ele>356.0</ele><time>2026-05-04T10:05:51.001Z</time></trkpt><trkpt lat="40.30460787317862" lon="9.190720496885616"><ele>370.5</ele><time>2026-05-04T10:06:52.001Z</time></trkpt><trkpt lat="40.30484334992628" lon="9.191023085117992"><ele>385.0</ele><time>2026-05-04T10:06:53.001Z</time></trkpt><trkpt lat="40.30506574770229" lon="9.191340324909689"><ele>383.0</ele><time>2026-05-04T10:06:54.001Z</time></trkpt><trkpt lat="40.30528190708779" lon="9.19168673284885"><ele>381.0</ele><time>2026-05-04T10:06:55.001Z</time></trkpt><trkpt lat="40.30548142688818" lon="9.192038006947206"><ele>380.0</ele><time>2026-05-04T10:06:56.001Z</time></trkpt><trkpt lat="40.30568481589" lon="9.19238665957393"><ele>379.0</ele><time>2026-05-04T10:06:57.001Z</time></trkpt><trkpt lat="40.30588364621423" lon="9.19274154377573"><ele>379.0</ele><time>2026-05-04T10:06:58.001Z</time></trkpt><trkpt lat="40.30607008020681" lon="9.193106370470684"><ele>379.0</ele><time>2026-05-04T10:06:59.001Z</time></trkpt><trkpt lat="40.30624511509577" lon="9.193482558268467"><ele>379.0</ele><time>2026-05-04T10:07:00.001Z</time></trkpt><trkpt lat="40.30642235734552" lon="9.19385657695802"><ele>379.0</ele><time>2026-05-04T10:07:01.001Z</time></trkpt><trkpt lat="40.30659559291368" lon="9.194228084120033"><ele>375.0</ele><time>2026-05-04T10:07:02.001Z</time></trkpt><trkpt lat="40.30676741818259" lon="9.194599471950369"><ele>371.0</ele><time>2026-05-04T10:07:03.001Z</time></trkpt><trkpt lat="40.30693926343839" lon="9.19497256217211"><ele>369.0</ele><time>2026-05-04T10:07:04.001Z</time></trkpt><trkpt lat="40.30710948499808" lon="9.195342523820829"><ele>367.0</ele><time>2026-05-04T10:07:05.001Z</time></trkpt><trkpt lat="40.30728125890742" lon="9.195713085111363"><ele>365.0</ele><time>2026-05-04T10:07:06.001Z</time></trkpt><trkpt lat="40.30744708021659" lon="9.196075777255585"><ele>363.0</ele><time>2026-05-04T10:07:07.001Z</time></trkpt><trkpt lat="40.30760868578859" lon="9.19644119748961"><ele>363.0</ele><time>2026-05-04T10:07:08.001Z</time></trkpt><trkpt lat="40.30776855594162" lon="9.196809320067299"><ele>363.0</ele><time>2026-05-04T10:07:09.001Z</time></trkpt><trkpt lat="40.30794457740789" lon="9.197161020962795"><ele>364.0</ele><time>2026-05-04T10:07:10.001Z</time></trkpt><trkpt lat="40.30812199042595" lon="9.197515079767664"><ele>365.0</ele><time>2026-05-04T10:07:11.001Z</time></trkpt><trkpt lat="40.30829264241175" lon="9.19787196896877"><ele>365.0</ele><time>2026-05-04T10:07:12.001Z</time></trkpt><trkpt lat="40.308461819430065" lon="9.198227700000047"><ele>365.0</ele><time>2026-05-04T10:07:13.001Z</time></trkpt><trkpt lat="40.30862839386801" lon="9.198591282768811"><ele>365.0</ele><time>2026-05-04T10:07:14.001Z</time></trkpt><trkpt lat="40.30879699285719" lon="9.198955191327178"><ele>365.0</ele><time>2026-05-04T10:07:15.001Z</time></trkpt><trkpt lat="40.30896735471359" lon="9.199316591734577"><ele>365.5</ele><time>2026-05-04T10:07:16.001Z</time></trkpt><trkpt lat="40.30913928194072" lon="9.199675513925014"><ele>366.0</ele><time>2026-05-04T10:07:17.001Z</time></trkpt><trkpt lat="40.30931074245022" lon="9.200040799477769"><ele>365.0</ele><time>2026-05-04T10:07:18.001Z</time></trkpt><trkpt lat="40.30947981075474" lon="9.200404581170666"><ele>364.0</ele><time>2026-05-04T10:07:19.001Z</time></trkpt><trkpt lat="40.30964857213806" lon="9.200771210123635"><ele>364.5</ele><time>2026-05-04T10:07:20.001Z</time></trkpt><trkpt lat="40.309821939315206" lon="9.201137593525644"><ele>365.0</ele><time>2026-05-04T10:07:21.001Z</time></trkpt><trkpt lat="40.30998955718001" lon="9.201506041068617"><ele>365.0</ele><time>2026-05-04T10:07:22.001Z</time></trkpt><trkpt lat="40.310153083743124" lon="9.20187418987652"><ele>365.0</ele><time>2026-05-04T10:07:23.001Z</time></trkpt><trkpt lat="40.310310961058505" lon="9.202262093741227"><ele>365.0</ele><time>2026-05-04T10:07:24.001Z</time></trkpt><trkpt lat="40.310451037440394" lon="9.202663681827296"><ele>365.0</ele><time>2026-05-04T10:07:25.001Z</time></trkpt><trkpt lat="40.31057581587409" lon="9.203068963533184"><ele>365.5</ele><time>2026-05-04T10:07:26.001Z</time></trkpt><trkpt lat="40.31068891962133" lon="9.203484460608278"><ele>366.0</ele><time>2026-05-04T10:07:27.001Z</time></trkpt><trkpt lat="40.310786185151485" lon="9.203907422236716"><ele>365.5</ele><time>2026-05-04T10:07:28.001Z</time></trkpt><trkpt lat="40.31087303561726" lon="9.204335576219526"><ele>365.0</ele><time>2026-05-04T10:07:29.001Z</time></trkpt><trkpt lat="40.31094867225973" lon="9.204769793345758"><ele>365.0</ele><time>2026-05-04T10:07:30.001Z</time></trkpt><trkpt lat="40.3110284190738" lon="9.20520331110462"><ele>365.0</ele><time>2026-05-04T10:07:31.001Z</time></trkpt><trkpt lat="40.31111209674647" lon="9.205633860653618"><ele>365.5</ele><time>2026-05-04T10:07:32.001Z</time></trkpt><trkpt lat="40.31119853616004" lon="9.206067019810996"><ele>366.0</ele><time>2026-05-04T10:07:33.001Z</time></trkpt><trkpt lat="40.31128459024538" lon="9.206496206981825"><ele>366.0</ele><time>2026-05-04T10:07:34.001Z</time></trkpt><trkpt lat="40.31136678128695" lon="9.206919908429995"><ele>366.0</ele><time>2026-05-04T10:07:35.001Z</time></trkpt><trkpt lat="40.31144304056871" lon="9.20734411919327"><ele>367.0</ele><time>2026-05-04T10:07:36.001Z</time></trkpt><trkpt lat="40.31150333515284" lon="9.20777651922361"><ele>368.0</ele><time>2026-05-04T10:07:37.001Z</time></trkpt><trkpt lat="40.31153651299023" lon="9.208209811444982"><ele>369.0</ele><time>2026-05-04T10:07:38.001Z</time></trkpt><trkpt lat="40.311551277903675" lon="9.208639712492682"><ele>370.0</ele><time>2026-05-04T10:07:39.001Z</time></trkpt><trkpt lat="40.311551623876554" lon="9.209067642366366"><ele>370.0</ele><time>2026-05-04T10:07:40.001Z</time></trkpt><trkpt lat="40.311545016197776" lon="9.209498797414419"><ele>370.0</ele><time>2026-05-04T10:07:41.001Z</time></trkpt><trkpt lat="40.3115343485419" lon="9.209927323087559"><ele>370.0</ele><time>2026-05-04T10:07:42.001Z</time></trkpt><trkpt lat="40.31152578286658" lon="9.210361422039828"><ele>370.0</ele><time>2026-05-04T10:07:43.001Z</time></trkpt><trkpt lat="40.31151775846118" lon="9.21076439195296"><ele>369.5</ele><time>2026-05-04T10:07:44.001Z</time></trkpt><trkpt lat="40.31151122082088" lon="9.21113810832147"><ele>369.0</ele><time>2026-05-04T10:07:45.001Z</time></trkpt><trkpt lat="40.311503647966305" lon="9.211512162203991"><ele>369.0</ele><time>2026-05-04T10:07:46.001Z</time></trkpt><trkpt lat="40.31150832279038" lon="9.211899235194846"><ele>369.0</ele><time>2026-05-04T10:07:47.001Z</time></trkpt><trkpt lat="40.31152869774311" lon="9.212299278269553"><ele>369.0</ele><time>2026-05-04T10:07:48.001Z</time></trkpt><trkpt lat="40.3115722174604" lon="9.212693150084458"><ele>369.0</ele><time>2026-05-04T10:07:49.001Z</time></trkpt><trkpt lat="40.311628316374716" lon="9.213087423661348"><ele>369.0</ele><time>2026-05-04T10:07:50.001Z</time></trkpt><trkpt lat="40.311703298465545" lon="9.213477170637026"><ele>369.0</ele><time>2026-05-04T10:07:51.001Z</time></trkpt><trkpt lat="40.313219513451614" lon="9.237026775709678"><ele>387.0</ele><time>2026-05-04T10:08:52.001Z</time></trkpt><trkpt lat="40.31315079840189" lon="9.237449919363407"><ele>405.0</ele><time>2026-05-04T10:08:53.001Z</time></trkpt><trkpt lat="40.31308753894649" lon="9.237879812696283"><ele>402.5</ele><time>2026-05-04T10:08:54.001Z</time></trkpt><trkpt lat="40.31303952982241" lon="9.238310333592073"><ele>400.0</ele><time>2026-05-04T10:08:55.001Z</time></trkpt><trkpt lat="40.31301055103046" lon="9.23872111594732"><ele>401.0</ele><time>2026-05-04T10:08:56.001Z</time></trkpt><trkpt lat="40.312997933649896" lon="9.239125026877469"><ele>402.0</ele><time>2026-05-04T10:08:57.001Z</time></trkpt><trkpt lat="40.31300121572831" lon="9.239518800712863"><ele>404.0</ele><time>2026-05-04T10:08:58.001Z</time></trkpt><trkpt lat="40.31301505761296" lon="9.23991135487508"><ele>406.0</ele><time>2026-05-04T10:08:59.001Z</time></trkpt><trkpt lat="40.31304336219199" lon="9.240306721973376"><ele>406.0</ele><time>2026-05-04T10:09:00.001Z</time></trkpt><trkpt lat="40.31308087357034" lon="9.240702626953626"><ele>406.0</ele><time>2026-05-04T10:09:01.001Z</time></trkpt><trkpt lat="40.31313204326609" lon="9.241098040649463"><ele>406.5</ele><time>2026-05-04T10:09:02Z</time></trkpt><trkpt lat="40.31319236872543" lon="9.24149938296576"><ele>407.0</ele><time>2026-05-04T10:09:03Z</time></trkpt><trkpt lat="40.31327297631373" lon="9.241882411554398"><ele>407.0</ele><time>2026-05-04T10:09:04Z</time></trkpt><trkpt lat="40.31336504847935" lon="9.242269561600567"><ele>407.0</ele><time>2026-05-04T10:09:05Z</time></trkpt><trkpt lat="40.31346881057783" lon="9.242658932252668"><ele>407.0</ele><time>2026-05-04T10:09:06Z</time></trkpt><trkpt lat="40.31358366669314" lon="9.243043938734509"><ele>407.0</ele><time>2026-05-04T10:09:07Z</time></trkpt><trkpt lat="40.313692382599314" lon="9.24342698098434"><ele>407.0</ele><time>2026-05-04T10:09:08Z</time></trkpt><trkpt lat="40.313795597556336" lon="9.243816725503276"><ele>407.0</ele><time>2026-05-04T10:09:09Z</time></trkpt><trkpt lat="40.31389063032917" lon="9.244201731859045"><ele>414.5</ele><time>2026-05-04T10:09:10Z</time></trkpt><trkpt lat="40.31398386694192" lon="9.244589203058649"><ele>422.0</ele><time>2026-05-04T10:09:11Z</time></trkpt><trkpt lat="40.31408686778379" lon="9.24496963676819"><ele>422.0</ele><time>2026-05-04T10:09:12Z</time></trkpt><trkpt lat="40.31419825369218" lon="9.245342949021044"><ele>422.0</ele><time>2026-05-04T10:09:13Z</time></trkpt><trkpt lat="40.3143094222863" lon="9.245717888466363"><ele>424.0</ele><time>2026-05-04T10:09:14Z</time></trkpt><trkpt lat="40.31441656076242" lon="9.246094388705894"><ele>426.0</ele><time>2026-05-04T10:09:15Z</time></trkpt><trkpt lat="40.314522128196856" lon="9.246468103887787"><ele>429.5</ele><time>2026-05-04T10:09:16Z</time></trkpt><trkpt lat="40.31462455029352" lon="9.246840847643993"><ele>433.0</ele><time>2026-05-04T10:09:17Z</time></trkpt><trkpt lat="40.31472618525813" lon="9.247208994889187"><ele>428.5</ele><time>2026-05-04T10:09:18Z</time></trkpt><trkpt lat="40.31482694517383" lon="9.247573118893419"><ele>424.0</ele><time>2026-05-04T10:09:19Z</time></trkpt><trkpt lat="40.3149289458361" lon="9.247941084977906"><ele>427.0</ele><time>2026-05-04T10:09:20Z</time></trkpt><trkpt lat="40.315026642391" lon="9.24830308268774"><ele>430.0</ele><time>2026-05-04T10:09:21.001Z</time></trkpt><trkpt lat="40.31512629348781" lon="9.248661055423968"><ele>433.0</ele><time>2026-05-04T10:09:22.001Z</time></trkpt><trkpt lat="40.315226086653425" lon="9.249018823060398"><ele>436.0</ele><time>2026-05-04T10:09:23.001Z</time></trkpt><trkpt lat="40.315324833807445" lon="9.249377991808432"><ele>436.0</ele><time>2026-05-04T10:09:24.001Z</time></trkpt><trkpt lat="40.31542823209458" lon="9.249734743263923"><ele>436.0</ele><time>2026-05-04T10:09:25.001Z</time></trkpt><trkpt lat="40.31552052492925" lon="9.250085126921954"><ele>441.0</ele><time>2026-05-04T10:09:26.001Z</time></trkpt><trkpt lat="40.31561210025029" lon="9.250436869648603"><ele>446.0</ele><time>2026-05-04T10:09:27.001Z</time></trkpt><trkpt lat="40.31570442301336" lon="9.250797844606746"><ele>446.0</ele><time>2026-05-04T10:09:28.018Z</time></trkpt><trkpt lat="40.315795822369694" lon="9.251152623474551"><ele>446.0</ele><time>2026-05-04T10:09:29.019Z</time></trkpt><trkpt lat="40.31588714491229" lon="9.251504753362052"><ele>442.0</ele><time>2026-05-04T10:09:30.022Z</time></trkpt><trkpt lat="40.315970640007066" lon="9.25184294194331"><ele>438.0</ele><time>2026-05-04T10:09:31.001Z</time></trkpt><trkpt lat="40.316083198447934" lon="9.252267799739261"><ele>436.5</ele><time>2026-05-04T10:09:32.001Z</time></trkpt><trkpt lat="40.31620292598168" lon="9.252649651284347"><ele>435.0</ele><time>2026-05-04T10:09:33.001Z</time></trkpt><trkpt lat="40.316317320253496" lon="9.253040709026546"><ele>429.5</ele><time>2026-05-04T10:09:34.001Z</time></trkpt><trkpt lat="40.31643373216083" lon="9.253433472431912"><ele>424.0</ele><time>2026-05-04T10:09:35.001Z</time></trkpt><trkpt lat="40.316544154275114" lon="9.253828318865958"><ele>423.5</ele><time>2026-05-04T10:09:36.001Z</time></trkpt><trkpt lat="40.3166598812708" lon="9.25422333973998"><ele>423.0</ele><time>2026-05-04T10:09:37.001Z</time></trkpt><trkpt lat="40.31677022584775" lon="9.254615663391426"><ele>421.5</ele><time>2026-05-04T10:09:38.001Z</time></trkpt><trkpt lat="40.316874687142715" lon="9.255010033504323"><ele>420.0</ele><time>2026-05-04T10:09:39.001Z</time></trkpt><trkpt lat="40.31697540191512" lon="9.25539639970627"><ele>422.5</ele><time>2026-05-04T10:09:40.001Z</time></trkpt><trkpt lat="40.31707742443064" lon="9.255786722115808"><ele>425.0</ele><time>2026-05-04T10:09:41.001Z</time></trkpt><trkpt lat="40.31718473260108" lon="9.256167164938535"><ele>424.5</ele><time>2026-05-04T10:09:42.001Z</time></trkpt><trkpt lat="40.3172984846101" lon="9.25655377178017"><ele>424.0</ele><time>2026-05-04T10:09:43.001Z</time></trkpt><trkpt lat="40.3174265263011" lon="9.25693073913549"><ele>427.0</ele><time>2026-05-04T10:09:44.001Z</time></trkpt><trkpt lat="40.31756521602645" lon="9.257304729129883"><ele>430.0</ele><time>2026-05-04T10:09:45.001Z</time></trkpt><trkpt lat="40.31770853085237" lon="9.257687670759154"><ele>430.0</ele><time>2026-05-04T10:09:46.001Z</time></trkpt><trkpt lat="40.3178525085373" lon="9.258072957407038"><ele>430.0</ele><time>2026-05-04T10:09:47.001Z</time></trkpt><trkpt lat="40.317983057926966" lon="9.258472576278463"><ele>430.5</ele><time>2026-05-04T10:09:48.001Z</time></trkpt><trkpt lat="40.31813342421618" lon="9.25884374042793"><ele>431.0</ele><time>2026-05-04T10:09:49.001Z</time></trkpt><trkpt lat="40.318286564728545" lon="9.25923247843081"><ele>431.5</ele><time>2026-05-04T10:09:50.001Z</time></trkpt><trkpt lat="40.31842693289958" lon="9.25962182088474"><ele>432.0</ele><time>2026-05-04T10:09:51.001Z</time></trkpt><trkpt lat="40.32273582774438" lon="9.281820078735738"><ele>453.66666666666663</ele><time>2026-05-04T10:10:52.001Z</time></trkpt><trkpt lat="40.322728961402774" lon="9.282085185588626"><ele>475.3333333333333</ele><time>2026-05-04T10:10:53.001Z</time></trkpt><trkpt lat="40.322722269385096" lon="9.282343561855438"><ele>497.0</ele><time>2026-05-04T10:10:54.001Z</time></trkpt><trkpt lat="40.322719766376466" lon="9.282592746397244"><ele>498.66666666666663</ele><time>2026-05-04T10:10:55Z</time></trkpt><trkpt lat="40.32280350085425" lon="9.282817011259892"><ele>500.33333333333337</ele><time>2026-05-04T10:10:56Z</time></trkpt><trkpt lat="40.32281850708763" lon="9.283010850468779"><ele>502.0</ele><time>2026-05-04T10:10:57Z</time></trkpt><trkpt lat="40.32282915504188" lon="9.283186253251767"><ele>503.75</ele><time>2026-05-04T10:10:58Z</time></trkpt><trkpt lat="40.32282402746804" lon="9.283358623665633"><ele>505.5</ele><time>2026-05-04T10:10:59Z</time></trkpt><trkpt lat="40.32279748302842" lon="9.28353313047232"><ele>507.25</ele><time>2026-05-04T10:11:00Z</time></trkpt><trkpt lat="40.32275234365732" lon="9.283696146293968"><ele>509.0</ele><time>2026-05-04T10:11:01Z</time></trkpt><trkpt lat="40.322688712632875" lon="9.283832334369476"><ele>510.0</ele><time>2026-05-04T10:11:02Z</time></trkpt><trkpt lat="40.32260727091699" lon="9.28395173029882"><ele>511.0</ele><time>2026-05-04T10:11:03Z</time></trkpt><trkpt lat="40.32249038192367" lon="9.28405029682166"><ele>512.0</ele><time>2026-05-04T10:11:04Z</time></trkpt><trkpt lat="40.32236882025321" lon="9.284123598240894"><ele>513.0</ele><time>2026-05-04T10:11:05Z</time></trkpt><trkpt lat="40.32224011917111" lon="9.284152053461831"><ele>515.0</ele><time>2026-05-04T10:11:06Z</time></trkpt><trkpt lat="40.32210257426548" lon="9.284138540397135"><ele>517.0</ele><time>2026-05-04T10:11:07Z</time></trkpt><trkpt lat="40.32197679215306" lon="9.28410436479782"><ele>519.0</ele><time>2026-05-04T10:11:08Z</time></trkpt><trkpt lat="40.321860960575115" lon="9.284080847181743"><ele>521.0</ele><time>2026-05-04T10:11:09Z</time></trkpt><trkpt lat="40.321748628261204" lon="9.284068972296682"><ele>521.0</ele><time>2026-05-04T10:11:10Z</time></trkpt><trkpt lat="40.32163739459277" lon="9.284055887008384"><ele>521.0</ele><time>2026-05-04T10:11:11Z</time></trkpt><trkpt lat="40.32152799670692" lon="9.284048249264957"><ele>521.0</ele><time>2026-05-04T10:11:12Z</time></trkpt><trkpt lat="40.321410091893824" lon="9.284038434083975"><ele>521.0</ele><time>2026-05-04T10:11:13Z</time></trkpt><trkpt lat="40.321288440245205" lon="9.284029716679331"><ele>527.75</ele><time>2026-05-04T10:11:14Z</time></trkpt><trkpt lat="40.32115782103834" lon="9.284019393922968"><ele>534.5</ele><time>2026-05-04T10:11:15.021Z</time></trkpt><trkpt lat="40.321014990641544" lon="9.284002453864474"><ele>541.25</ele><time>2026-05-04T10:11:16.022Z</time></trkpt><trkpt lat="40.3208622542558" lon="9.283978564610864"><ele>548.0</ele><time>2026-05-04T10:11:17.022Z</time></trkpt><trkpt lat="40.32073263842686" lon="9.28396726475162"><ele>548.0</ele><time>2026-05-04T10:11:18.021Z</time></trkpt><trkpt lat="40.32060957464499" lon="9.283953244233935"><ele>548.0</ele><time>2026-05-04T10:11:19.022Z</time></trkpt><trkpt lat="40.320479069857285" lon="9.283933241229036"><ele>548.0</ele><time>2026-05-04T10:11:20.02Z</time></trkpt><trkpt lat="40.31109011870475" lon="9.281358027843094"><ele>545.0</ele><time>2026-05-04T10:12:04.001Z</time></trkpt><trkpt lat="40.31083320155844" lon="9.28133875056154"><ele>542.0</ele><time>2026-05-04T10:12:05.001Z</time></trkpt><trkpt lat="40.3105794425349" lon="9.281270118979728"><ele>540.0</ele><time>2026-05-04T10:12:06.001Z</time></trkpt><trkpt lat="40.31032584444638" lon="9.281193192394152"><ele>538.0</ele><time>2026-05-04T10:12:07.001Z</time></trkpt><trkpt lat="40.31005742133614" lon="9.281116629695314"><ele>538.0</ele><time>2026-05-04T10:12:08.001Z</time></trkpt><trkpt lat="40.30978626455154" lon="9.281061870493064"><ele>538.0</ele><time>2026-05-04T10:12:09.001Z</time></trkpt><trkpt lat="40.309514806837385" lon="9.280979631834896"><ele>536.5</ele><time>2026-05-04T10:12:10.001Z</time></trkpt><trkpt lat="40.30924602117876" lon="9.280911575534601"><ele>535.0</ele><time>2026-05-04T10:12:11.001Z</time></trkpt><trkpt lat="40.308969680103345" lon="9.280840195710025"><ele>533.5</ele><time>2026-05-04T10:12:12.001Z</time></trkpt><trkpt lat="40.30869315212016" lon="9.280768954780859"><ele>532.0</ele><time>2026-05-04T10:12:13.001Z</time></trkpt><trkpt lat="40.30842569739745" lon="9.28069724030941"><ele>532.0</ele><time>2026-05-04T10:12:14.001Z</time></trkpt><trkpt lat="40.30817525149885" lon="9.280625601801752"><ele>532.0</ele><time>2026-05-04T10:12:15.001Z</time></trkpt><trkpt lat="40.30792551427631" lon="9.28054562683133"><ele>533.0</ele><time>2026-05-04T10:12:16.001Z</time></trkpt><trkpt lat="40.3076799511654" lon="9.280441736258629"><ele>534.0</ele><time>2026-05-04T10:12:17.001Z</time></trkpt><trkpt lat="40.30743914609083" lon="9.280318536224502"><ele>534.5</ele><time>2026-05-04T10:12:18.001Z</time></trkpt><trkpt lat="40.3072042381575" lon="9.280188250215852"><ele>535.0</ele><time>2026-05-04T10:12:19.001Z</time></trkpt><trkpt lat="40.306977639593846" lon="9.280040544296398"><ele>535.0</ele><time>2026-05-04T10:12:20.001Z</time></trkpt><trkpt lat="40.30676048775873" lon="9.279884300216798"><ele>535.0</ele><time>2026-05-04T10:12:21.001Z</time></trkpt><trkpt lat="40.306543085666405" lon="9.27972023558128"><ele>535.5</ele><time>2026-05-04T10:12:22.001Z</time></trkpt><trkpt lat="40.30631962473836" lon="9.279549151963156"><ele>536.0</ele><time>2026-05-04T10:12:23.001Z</time></trkpt><trkpt lat="40.306086891318316" lon="9.279373072042487"><ele>536.0</ele><time>2026-05-04T10:12:24.001Z</time></trkpt><trkpt lat="40.30584875684751" lon="9.279194346076308"><ele>536.0</ele><time>2026-05-04T10:12:25.001Z</time></trkpt><trkpt lat="40.30560714904811" lon="9.279013242763595"><ele>532.5</ele><time>2026-05-04T10:12:26.001Z</time></trkpt><trkpt lat="40.30532628355962" lon="9.278802712875402"><ele>529.0</ele><time>2026-05-04T10:12:27.001Z</time></trkpt><trkpt lat="40.30501295186069" lon="9.27856686143882"><ele>527.5</ele><time>2026-05-04T10:12:28.001Z</time></trkpt><trkpt lat="40.304732956373684" lon="9.278356048095432"><ele>526.0</ele><time>2026-05-04T10:12:29.001Z</time></trkpt><trkpt lat="40.30445446431007" lon="9.278150937090734"><ele>525.0</ele><time>2026-05-04T10:12:30.001Z</time></trkpt><trkpt lat="40.30418072788923" lon="9.277930649813873"><ele>524.0</ele><time>2026-05-04T10:12:31.001Z</time></trkpt><trkpt lat="40.30390928340867" lon="9.277726190371025"><ele>523.5</ele><time>2026-05-04T10:12:32.001Z</time></trkpt><trkpt lat="40.30364166522699" lon="9.27753075582867"><ele>523.0</ele><time>2026-05-04T10:12:33.001Z</time></trkpt><trkpt lat="40.303384370108155" lon="9.277336228141753"><ele>522.0</ele><time>2026-05-04T10:12:34.001Z</time></trkpt><trkpt lat="40.303123308472806" lon="9.277142712453456"><ele>521.0</ele><time>2026-05-04T10:12:35.001Z</time></trkpt><trkpt lat="40.302861303981054" lon="9.276947134057913"><ele>521.0</ele><time>2026-05-04T10:12:36.001Z</time></trkpt><trkpt lat="40.30260403746445" lon="9.276752402484206"><ele>521.0</ele><time>2026-05-04T10:12:37.001Z</time></trkpt><trkpt lat="40.302346060027425" lon="9.276560477460468"><ele>520.0</ele><time>2026-05-04T10:12:38.001Z</time></trkpt><trkpt lat="40.30209047681295" lon="9.276364082281091"><ele>519.0</ele><time>2026-05-04T10:12:39.001Z</time></trkpt><trkpt lat="40.30183449680681" lon="9.276172990753107"><ele>519.0</ele><time>2026-05-04T10:12:40.001Z</time></trkpt><trkpt lat="40.30158094094606" lon="9.275985065525893"><ele>519.0</ele><time>2026-05-04T10:12:41.001Z</time></trkpt><trkpt lat="40.301331778600975" lon="9.275796491845952"><ele>519.0</ele><time>2026-05-04T10:12:42.001Z</time></trkpt><trkpt lat="40.30108717366045" lon="9.275598430538173"><ele>519.0</ele><time>2026-05-04T10:12:43.001Z</time></trkpt><trkpt lat="40.3008467267714" lon="9.275396480154248"><ele>519.0</ele><time>2026-05-04T10:12:44.001Z</time></trkpt><trkpt lat="40.30060979366104" lon="9.275182281348744"><ele>519.0</ele><time>2026-05-04T10:12:45.001Z</time></trkpt><trkpt lat="40.300383257173245" lon="9.274961874258503"><ele>518.0</ele><time>2026-05-04T10:12:46.001Z</time></trkpt><trkpt lat="40.300161516451176" lon="9.27472534210425"><ele>517.0</ele><time>2026-05-04T10:12:47.001Z</time></trkpt><trkpt lat="40.29995063420858" lon="9.27447785824609"><ele>516.5</ele><time>2026-05-04T10:12:48.001Z</time></trkpt><trkpt lat="40.29974698123618" lon="9.274220667035"><ele>516.0</ele><time>2026-05-04T10:12:49.001Z</time></trkpt><trkpt lat="40.299545095438454" lon="9.273956927626278"><ele>516.0</ele><time>2026-05-04T10:12:50.001Z</time></trkpt><trkpt lat="40.299340996037415" lon="9.273692625385575"><ele>516.0</ele><time>2026-05-04T10:12:51.001Z</time></trkpt><trkpt lat="40.29704270049984" lon="9.27015696789497"><ele>523.0</ele><time>2026-05-04T10:13:55Z</time></trkpt><trkpt lat="40.30351794500662" lon="9.277468630571311"><ele>523.0</ele><time>2026-05-04T10:25:51.998Z</time></trkpt><trkpt lat="40.30376984168864" lon="9.277659517514659"><ele>523.0</ele><time>2026-05-04T10:25:52.998Z</time></trkpt><trkpt lat="40.304017395622274" lon="9.277849964487544"><ele>523.5</ele><time>2026-05-04T10:25:53.998Z</time></trkpt><trkpt lat="40.30426180514284" lon="9.27803576079897"><ele>524.0</ele><time>2026-05-04T10:25:54.998Z</time></trkpt><trkpt lat="40.30450373907955" lon="9.27822277860937"><ele>526.5</ele><time>2026-05-04T10:25:55.998Z</time></trkpt><trkpt lat="40.30475026370158" lon="9.278413830339773"><ele>529.0</ele><time>2026-05-04T10:25:56.998Z</time></trkpt><trkpt lat="40.30499745735687" lon="9.278602370197616"><ele>529.0</ele><time>2026-05-04T10:25:57.999Z</time></trkpt><trkpt lat="40.30522761247621" lon="9.278777481653293"><ele>529.0</ele><time>2026-05-04T10:25:58.999Z</time></trkpt><trkpt lat="40.30545262087751" lon="9.278942484254154"><ele>532.5</ele><time>2026-05-04T10:25:59.999Z</time></trkpt><trkpt lat="40.30567793538624" lon="9.279107995430696"><ele>536.0</ele><time>2026-05-04T10:26:00.999Z</time></trkpt><trkpt lat="40.30589620390213" lon="9.279281918474164"><ele>536.0</ele><time>2026-05-04T10:26:01.999Z</time></trkpt><trkpt lat="40.306116972406485" lon="9.279449803938608"><ele>536.0</ele><time>2026-05-04T10:26:02.999Z</time></trkpt><trkpt lat="40.30632389895247" lon="9.279615763614682"><ele>535.6666666666666</ele><time>2026-05-04T10:26:03.999Z</time></trkpt><trkpt lat="40.30652361628372" lon="9.279767863265768"><ele>535.3333333333334</ele><time>2026-05-04T10:26:04.999Z</time></trkpt><trkpt lat="40.30669593942513" lon="9.279907929922926"><ele>535.0</ele><time>2026-05-04T10:26:05.999Z</time></trkpt><trkpt lat="40.30687155376626" lon="9.280065543526034"><ele>535.0</ele><time>2026-05-04T10:26:06.999Z</time></trkpt><trkpt lat="40.307069500391265" lon="9.280206343620721"><ele>535.0</ele><time>2026-05-04T10:26:07.999Z</time></trkpt><trkpt lat="40.30726319559785" lon="9.280316939047836"><ele>535.0</ele><time>2026-05-04T10:26:08.999Z</time></trkpt><trkpt lat="40.30746082843329" lon="9.280420313709683"><ele>534.6666666666667</ele><time>2026-05-04T10:26:09.999Z</time></trkpt><trkpt lat="40.3076583761208" lon="9.280514645383368"><ele>534.3333333333334</ele><time>2026-05-04T10:26:10.999Z</time></trkpt><trkpt lat="40.30786260663982" lon="9.280603885960527"><ele>534.0</ele><time>2026-05-04T10:26:11.999Z</time></trkpt><trkpt lat="40.308072970566165" lon="9.280689184401398"><ele>533.3333333333334</ele><time>2026-05-04T10:26:12.999Z</time></trkpt><trkpt lat="40.308292530051325" lon="9.280755602018669"><ele>532.6666666666667</ele><time>2026-05-04T10:26:13.999Z</time></trkpt><trkpt lat="40.30851202983431" lon="9.280814245932177"><ele>532.0</ele><time>2026-05-04T10:26:14.999Z</time></trkpt><trkpt lat="40.30871845382218" lon="9.280873609393042"><ele>532.0</ele><time>2026-05-04T10:26:15.999Z</time></trkpt><trkpt lat="40.30890351947472" lon="9.280929212600252"><ele>532.0</ele><time>2026-05-04T10:26:16.999Z</time></trkpt><trkpt lat="40.30907588090037" lon="9.280975108745551"><ele>532.0</ele><time>2026-05-04T10:26:17.999Z</time></trkpt><trkpt lat="40.30924821833411" lon="9.281018454515412"><ele>533.0</ele><time>2026-05-04T10:26:18.999Z</time></trkpt><trkpt lat="40.309414289328" lon="9.281069498065868"><ele>534.0</ele><time>2026-05-04T10:26:20Z</time></trkpt><trkpt lat="40.309576927274755" lon="9.28114364716948"><ele>535.0</ele><time>2026-05-04T10:26:21Z</time></trkpt><trkpt lat="40.30973398408774" lon="9.281230393658568"><ele>536.0</ele><time>2026-05-04T10:26:22Z</time></trkpt><trkpt lat="40.309879929758985" lon="9.28133851497164"><ele>537.0</ele><time>2026-05-04T10:26:23Z</time></trkpt><trkpt lat="40.3100141297754" lon="9.28147681111849"><ele>538.0</ele><time>2026-05-04T10:26:24Z</time></trkpt><trkpt lat="40.310143178233936" lon="9.281628634276384"><ele>538.3333333333334</ele><time>2026-05-04T10:26:25Z</time></trkpt><trkpt lat="40.310282838438084" lon="9.281800990884"><ele>538.6666666666666</ele><time>2026-05-04T10:26:26Z</time></trkpt><trkpt lat="40.310395976620114" lon="9.282010676669715"><ele>539.0</ele><time>2026-05-04T10:26:27Z</time></trkpt><trkpt lat="40.310493662631686" lon="9.282226032468413"><ele>539.3333333333333</ele><time>2026-05-04T10:26:28Z</time></trkpt><trkpt lat="40.31056665126824" lon="9.282453764742986"><ele>539.6666666666666</ele><time>2026-05-04T10:26:29Z</time></trkpt><trkpt lat="40.31062735238161" lon="9.282686184128497"><ele>540.0</ele><time>2026-05-04T10:26:30Z</time></trkpt><trkpt lat="40.31070099200963" lon="9.282917903955193"><ele>542.0</ele><time>2026-05-04T10:26:31Z</time></trkpt><trkpt lat="40.310741266685305" lon="9.283188203903766"><ele>544.0</ele><time>2026-05-04T10:26:32Z</time></trkpt><trkpt lat="40.31080164820194" lon="9.283442235122005"><ele>546.0</ele><time>2026-05-04T10:26:33Z</time></trkpt><trkpt lat="40.31087102189638" lon="9.283705750299545"><ele>546.5</ele><time>2026-05-04T10:26:34Z</time></trkpt><trkpt lat="40.310953105367865" lon="9.283980671101586"><ele>547.0</ele><time>2026-05-04T10:26:35Z</time></trkpt><trkpt lat="40.31103170209826" lon="9.284260640494038"><ele>547.0</ele><time>2026-05-04T10:26:36Z</time></trkpt><trkpt lat="40.31108882565726" lon="9.284553681758007"><ele>547.0</ele><time>2026-05-04T10:26:37Z</time></trkpt><trkpt lat="40.31115858036367" lon="9.28485242482666"><ele>547.5</ele><time>2026-05-04T10:26:38Z</time></trkpt><trkpt lat="40.31123532083387" lon="9.285149163396799"><ele>548.0</ele><time>2026-05-04T10:26:39Z</time></trkpt><trkpt lat="40.31130425849572" lon="9.285451522306564"><ele>548.5</ele><time>2026-05-04T10:26:40Z</time></trkpt><trkpt lat="40.31136899588761" lon="9.285757452405713"><ele>549.0</ele><time>2026-05-04T10:26:41Z</time></trkpt><trkpt lat="40.31143506759174" lon="9.286058380441313"><ele>549.0</ele><time>2026-05-04T10:26:42Z</time></trkpt><trkpt lat="40.31150253409473" lon="9.28636700616286"><ele>549.0</ele><time>2026-05-04T10:26:43Z</time></trkpt><trkpt lat="40.31156577374689" lon="9.286681573396605"><ele>548.5</ele><time>2026-05-04T10:26:44Z</time></trkpt><trkpt lat="40.311623693358555" lon="9.287003309044815"><ele>548.0</ele><time>2026-05-04T10:26:45Z</time></trkpt><trkpt lat="40.311672288244175" lon="9.287320866174145"><ele>547.0</ele><time>2026-05-04T10:26:46Z</time></trkpt><trkpt lat="40.311713500776705" lon="9.287652204033037"><ele>546.0</ele><time>2026-05-04T10:26:47Z</time></trkpt><trkpt lat="40.31174842392318" lon="9.287988294964139"><ele>545.0</ele><time>2026-05-04T10:26:48Z</time></trkpt><trkpt lat="40.311770451692134" lon="9.288318616631578"><ele>544.0</ele><time>2026-05-04T10:26:49Z</time></trkpt><trkpt lat="40.31178367769509" lon="9.288656547227067"><ele>543.0</ele><time>2026-05-04T10:26:50Z</time></trkpt><trkpt lat="40.31178506783965" lon="9.288989289786073"><ele>542.0</ele><time>2026-05-04T10:26:51Z</time></trkpt><trkpt lat="40.309893242903165" lon="9.311008686839873"><ele>530.0</ele><time>2026-05-04T10:27:51.999Z</time></trkpt><trkpt lat="40.30990606825669" lon="9.31125950887735"><ele>518.0</ele><time>2026-05-04T10:27:52.999Z</time></trkpt><trkpt lat="40.30990379792369" lon="9.311492133553548"><ele>506.0</ele><time>2026-05-04T10:27:53.999Z</time></trkpt><trkpt lat="40.30984729353639" lon="9.31185242725863"><ele>506.0</ele><time>2026-05-04T10:27:55.999Z</time></trkpt><trkpt lat="40.30977121743431" lon="9.312000749056299"><ele>506.0</ele><time>2026-05-04T10:27:56.999Z</time></trkpt><trkpt lat="40.30964961787733" lon="9.312137661820424"><ele>506.0</ele><time>2026-05-04T10:27:57.999Z</time></trkpt><trkpt lat="40.30951368085315" lon="9.312257721646315"><ele>508.75</ele><time>2026-05-04T10:27:58.999Z</time></trkpt><trkpt lat="40.309376004569" lon="9.312362521698258"><ele>511.5</ele><time>2026-05-04T10:27:59.999Z</time></trkpt><trkpt lat="40.30926716304382" lon="9.312486349849591"><ele>514.25</ele><time>2026-05-04T10:28:00.999Z</time></trkpt><trkpt lat="40.30922206426462" lon="9.312660106220282"><ele>517.0</ele><time>2026-05-04T10:28:01.999Z</time></trkpt><trkpt lat="40.30920244279756" lon="9.312830126688487"><ele>517.0</ele><time>2026-05-04T10:28:02.999Z</time></trkpt><trkpt lat="40.30924544359413" lon="9.312988183812008"><ele>517.0</ele><time>2026-05-04T10:28:03.999Z</time></trkpt><trkpt lat="40.309315983293736" lon="9.313114640880404"><ele>517.0</ele><time>2026-05-04T10:28:05Z</time></trkpt><trkpt lat="40.309418155952656" lon="9.313209828609628"><ele>517.0</ele><time>2026-05-04T10:28:06Z</time></trkpt><trkpt lat="40.309544589119035" lon="9.313262545426475"><ele>517.3333333333334</ele><time>2026-05-04T10:28:07Z</time></trkpt><trkpt lat="40.30968821366788" lon="9.313259983489385"><ele>517.6666666666666</ele><time>2026-05-04T10:28:08Z</time></trkpt><trkpt lat="40.30983625442203" lon="9.313220120060254"><ele>518.0</ele><time>2026-05-04T10:28:09Z</time></trkpt><trkpt lat="40.3099888354355" lon="9.313168043171922"><ele>513.6666666666666</ele><time>2026-05-04T10:28:10Z</time></trkpt><trkpt lat="40.31015116329905" lon="9.313124631793022"><ele>509.33333333333337</ele><time>2026-05-04T10:28:11Z</time></trkpt><trkpt lat="40.31032547368447" lon="9.313075043114955"><ele>505.0</ele><time>2026-05-04T10:28:12Z</time></trkpt><trkpt lat="40.31052632164667" lon="9.313012050201172"><ele>501.33333333333337</ele><time>2026-05-04T10:28:13Z</time></trkpt><trkpt lat="40.310702639415716" lon="9.312954975185677"><ele>497.66666666666663</ele><time>2026-05-04T10:28:14Z</time></trkpt><trkpt lat="40.31086620751862" lon="9.31290220417304"><ele>494.0</ele><time>2026-05-04T10:28:15Z</time></trkpt><trkpt lat="40.311017566810705" lon="9.31286301897986"><ele>494.0</ele><time>2026-05-04T10:28:16Z</time></trkpt><trkpt lat="40.31114968640203" lon="9.312795537341797"><ele>494.0</ele><time>2026-05-04T10:28:17Z</time></trkpt><trkpt lat="40.31128351741749" lon="9.312727206207022"><ele>494.0</ele><time>2026-05-04T10:28:18Z</time></trkpt><trkpt lat="40.311425807713064" lon="9.312665568262274"><ele>494.0</ele><time>2026-05-04T10:28:19Z</time></trkpt><trkpt lat="40.311582406677246" lon="9.312707577686878"><ele>494.25</ele><time>2026-05-04T10:28:20Z</time></trkpt><trkpt lat="40.31171390816782" lon="9.312740100649034"><ele>494.5</ele><time>2026-05-04T10:28:21Z</time></trkpt><trkpt lat="40.31182933839586" lon="9.312792438748717"><ele>494.75</ele><time>2026-05-04T10:28:22Z</time></trkpt><trkpt lat="40.31192509564217" lon="9.31288831534699"><ele>495.0</ele><time>2026-05-04T10:28:23Z</time></trkpt><trkpt lat="40.31201022643567" lon="9.313027107769702"><ele>496.5</ele><time>2026-05-04T10:28:24Z</time></trkpt><trkpt lat="40.31210673172122" lon="9.313164988458821"><ele>498.0</ele><time>2026-05-04T10:28:25Z</time></trkpt><trkpt lat="40.312206728027" lon="9.313301256164106"><ele>499.5</ele><time>2026-05-04T10:28:26Z</time></trkpt><trkpt lat="40.312313129933266" lon="9.313436089161712"><ele>501.0</ele><time>2026-05-04T10:28:27Z</time></trkpt><trkpt lat="40.31242876367766" lon="9.313566157012609"><ele>503.66666666666663</ele><time>2026-05-04T10:28:28Z</time></trkpt><trkpt lat="40.312547127704484" lon="9.313692065082138"><ele>506.3333333333333</ele><time>2026-05-04T10:28:29Z</time></trkpt><trkpt lat="40.31266279410847" lon="9.313810837069923"><ele>509.0</ele><time>2026-05-04T10:28:30Z</time></trkpt><trkpt lat="40.31278503983984" lon="9.31393709948965"><ele>510.3333333333333</ele><time>2026-05-04T10:28:31Z</time></trkpt><trkpt lat="40.31290349965567" lon="9.314075441134428"><ele>511.66666666666663</ele><time>2026-05-04T10:28:32.001Z</time></trkpt><trkpt lat="40.313029284064854" lon="9.314211818642375"><ele>513.0</ele><time>2026-05-04T10:28:33.001Z</time></trkpt><trkpt lat="40.313159043949135" lon="9.31433908025252"><ele>513.0</ele><time>2026-05-04T10:28:34.001Z</time></trkpt><trkpt lat="40.31328252571015" lon="9.314464860736436"><ele>513.0</ele><time>2026-05-04T10:28:35.001Z</time></trkpt><trkpt lat="40.31339308191341" lon="9.314585632444155"><ele>513.0</ele><time>2026-05-04T10:28:36.001Z</time></trkpt><trkpt lat="40.313493604912274" lon="9.314712384031454"><ele>513.0</ele><time>2026-05-04T10:28:37.001Z</time></trkpt><trkpt lat="40.31358460642417" lon="9.31484137430492"><ele>514.0</ele><time>2026-05-04T10:28:38.001Z</time></trkpt><trkpt lat="40.31367163661296" lon="9.314952409874659"><ele>515.0</ele><time>2026-05-04T10:28:39.001Z</time></trkpt><trkpt lat="40.313748245229704" lon="9.315053505180531"><ele>516.0</ele><time>2026-05-04T10:28:40.001Z</time></trkpt><trkpt lat="40.31375964050835" lon="9.315197321927354"><ele>517.0</ele><time>2026-05-04T10:28:41.001Z</time></trkpt><trkpt lat="40.313810229506714" lon="9.315288629373253"><ele>518.0</ele><time>2026-05-04T10:28:42.001Z</time></trkpt><trkpt lat="40.313897914494234" lon="9.315355824043829"><ele>518.5</ele><time>2026-05-04T10:28:43.001Z</time></trkpt><trkpt lat="40.314024318374514" lon="9.315387444630849"><ele>519.0</ele><time>2026-05-04T10:28:44.001Z</time></trkpt><trkpt lat="40.31411296792804" lon="9.315504401876975"><ele>519.5</ele><time>2026-05-04T10:28:45.001Z</time></trkpt><trkpt lat="40.31421979333769" lon="9.31562344673555"><ele>520.0</ele><time>2026-05-04T10:28:46.001Z</time></trkpt><trkpt lat="40.314321587885246" lon="9.31576550447756"><ele>520.75</ele><time>2026-05-04T10:28:47.001Z</time></trkpt><trkpt lat="40.31443488754194" lon="9.315904210632102"><ele>521.5</ele><time>2026-05-04T10:28:48.001Z</time></trkpt><trkpt lat="40.314542433937795" lon="9.31603477728073"><ele>522.25</ele><time>2026-05-04T10:28:49.001Z</time></trkpt><trkpt lat="40.31464297944004" lon="9.316162384287464"><ele>523.0</ele><time>2026-05-04T10:28:50.001Z</time></trkpt><trkpt lat="40.314742103462756" lon="9.316294180629043"><ele>544.0</ele><time>2026-05-04T10:28:51.001Z</time></trkpt><trkpt lat="40.31653507715886" lon="9.321132927484884"><ele>544.0</ele><time>2026-05-04T10:29:52Z</time></trkpt><trkpt lat="40.316440877061396" lon="9.321246023467296"><ele>544.0</ele><time>2026-05-04T10:30:01Z</time></trkpt><trkpt lat="40.31639547104947" lon="9.32131973607324"><ele>544.0</ele><time>2026-05-04T10:30:02Z</time></trkpt><trkpt lat="40.31632920591852" lon="9.321414794829638"><ele>544.0</ele><time>2026-05-04T10:30:03Z</time></trkpt><trkpt lat="40.316256772165644" lon="9.321504961445635"><ele>544.0</ele><time>2026-05-04T10:30:04Z</time></trkpt><trkpt lat="40.31617412296895" lon="9.321606053723736"><ele>543.6</ele><time>2026-05-04T10:30:05Z</time></trkpt><trkpt lat="40.316086316067384" lon="9.321704794115131"><ele>543.2</ele><time>2026-05-04T10:30:06Z</time></trkpt><trkpt lat="40.31599903774637" lon="9.321771248473793"><ele>542.8000000000001</ele><time>2026-05-04T10:30:07Z</time></trkpt><trkpt lat="40.31595511397067" lon="9.321865843689908"><ele>542.4</ele><time>2026-05-04T10:30:08Z</time></trkpt><trkpt lat="40.315908994839226" lon="9.321936173925835"><ele>542.0</ele><time>2026-05-04T10:30:14Z</time></trkpt><trkpt lat="40.31585211194151" lon="9.322011789228876"><ele>542.0</ele><time>2026-05-04T10:30:15Z</time></trkpt><trkpt lat="40.31579236324488" lon="9.322104448697692"><ele>542.0</ele><time>2026-05-04T10:30:16Z</time></trkpt><trkpt lat="40.31571697952902" lon="9.3221995533405"><ele>542.0</ele><time>2026-05-04T10:30:17.001Z</time></trkpt><trkpt lat="40.31564171513621" lon="9.322287794189474"><ele>542.0</ele><time>2026-05-04T10:30:18.001Z</time></trkpt><trkpt lat="40.31556624407493" lon="9.322403024747015"><ele>542.0</ele><time>2026-05-04T10:30:19.001Z</time></trkpt><trkpt lat="40.31546738222453" lon="9.32253665122442"><ele>542.25</ele><time>2026-05-04T10:30:20.001Z</time></trkpt><trkpt lat="40.31537778714581" lon="9.322648551745466"><ele>542.5</ele><time>2026-05-04T10:30:21.001Z</time></trkpt><trkpt lat="40.315280869385255" lon="9.322775711604365"><ele>542.75</ele><time>2026-05-04T10:30:22.001Z</time></trkpt><trkpt lat="40.31519245387259" lon="9.322896229820179"><ele>543.0</ele><time>2026-05-04T10:30:23.001Z</time></trkpt><trkpt lat="40.31509719567354" lon="9.3230110963183"><ele>542.75</ele><time>2026-05-04T10:30:24.001Z</time></trkpt><trkpt lat="40.315009871925504" lon="9.323136569878244"><ele>542.5</ele><time>2026-05-04T10:30:25.001Z</time></trkpt><trkpt lat="40.314925691961655" lon="9.32325225356799"><ele>542.25</ele><time>2026-05-04T10:30:26.001Z</time></trkpt><trkpt lat="40.314838434513625" lon="9.323357154923032"><ele>542.0</ele><time>2026-05-04T10:30:27.001Z</time></trkpt><trkpt lat="40.314754602697" lon="9.323463087229868"><ele>541.8000000000001</ele><time>2026-05-04T10:30:28.001Z</time></trkpt><trkpt lat="40.31468841864598" lon="9.32356431909145"><ele>541.6</ele><time>2026-05-04T10:30:29.001Z</time></trkpt><trkpt lat="40.31460565561559" lon="9.323643122007441"><ele>541.4000000000001</ele><time>2026-05-04T10:30:30.001Z</time></trkpt><trkpt lat="40.31454108884052" lon="9.323730042020369"><ele>541.2</ele><time>2026-05-04T10:30:31.001Z</time></trkpt><trkpt lat="40.31450193524472" lon="9.323820479400991"><ele>541.0</ele><time>2026-05-04T10:30:32.001Z</time></trkpt><trkpt lat="40.31444661986543" lon="9.323962517881785"><ele>539.8</ele><time>2026-05-04T10:30:34.001Z</time></trkpt><trkpt lat="40.31448483973924" lon="9.324077663743557"><ele>538.6</ele><time>2026-05-04T10:30:35.001Z</time></trkpt><trkpt lat="40.314570417599775" lon="9.32416927178224"><ele>537.4</ele><time>2026-05-04T10:30:36.001Z</time></trkpt><trkpt lat="40.31465544288357" lon="9.324268415239134"><ele>536.2</ele><time>2026-05-04T10:30:37.001Z</time></trkpt><trkpt lat="40.31473890700261" lon="9.324384341929909"><ele>535.0</ele><time>2026-05-04T10:30:38.001Z</time></trkpt><trkpt lat="40.31483137681467" lon="9.324509431541145"><ele>535.0</ele><time>2026-05-04T10:30:39.001Z</time></trkpt><trkpt lat="40.31492483318867" lon="9.324625948609377"><ele>535.0</ele><time>2026-05-04T10:30:40.001Z</time></trkpt><trkpt lat="40.31501166561075" lon="9.324747569554718"><ele>535.0</ele><time>2026-05-04T10:30:41.001Z</time></trkpt><trkpt lat="40.31509396850002" lon="9.324860193681408"><ele>535.0</ele><time>2026-05-04T10:30:42.001Z</time></trkpt><trkpt lat="40.31517988930294" lon="9.324970999137657"><ele>533.75</ele><time>2026-05-04T10:30:43.001Z</time></trkpt><trkpt lat="40.3152653673099" lon="9.325092824432035"><ele>532.5</ele><time>2026-05-04T10:30:44.001Z</time></trkpt><trkpt lat="40.31535931688476" lon="9.325216939591467"><ele>531.25</ele><time>2026-05-04T10:30:45.001Z</time></trkpt><trkpt lat="40.315462275396186" lon="9.32533759752756"><ele>530.0</ele><time>2026-05-04T10:30:46.001Z</time></trkpt><trkpt lat="40.31554772717376" lon="9.32544604500137"><ele>530.25</ele><time>2026-05-04T10:30:47.001Z</time></trkpt><trkpt lat="40.31565444389502" lon="9.32550548270589"><ele>530.5</ele><time>2026-05-04T10:30:48.001Z</time></trkpt><trkpt lat="40.31576671380973" lon="9.3255111398151"><ele>530.75</ele><time>2026-05-04T10:30:49.001Z</time></trkpt><trkpt lat="40.31589076054209" lon="9.325530326529448"><ele>531.0</ele><time>2026-05-04T10:30:50.001Z</time></trkpt><trkpt lat="40.31599656890532" lon="9.325561930776352"><ele>479.0</ele><time>2026-05-04T10:30:51.001Z</time></trkpt><trkpt lat="40.313556480642895" lon="9.329956825039288"><ele>479.0</ele><time>2026-05-04T10:31:52.003Z</time></trkpt><trkpt lat="40.313474618385975" lon="9.330039780800012"><ele>479.0</ele><time>2026-05-04T10:31:53.003Z</time></trkpt><trkpt lat="40.31339717231053" lon="9.33013658767847"><ele>479.0</ele><time>2026-05-04T10:31:54.003Z</time></trkpt><trkpt lat="40.31331529006315" lon="9.330218444041053"><ele>479.0</ele><time>2026-05-04T10:31:55.001Z</time></trkpt><trkpt lat="40.31324530252905" lon="9.330305437798753"><ele>479.0</ele><time>2026-05-04T10:31:56.001Z</time></trkpt><trkpt lat="40.31318583494151" lon="9.33038839619753"><ele>479.0</ele><time>2026-05-04T10:31:57.001Z</time></trkpt><trkpt lat="40.31314063694466" lon="9.330507764632145"><ele>479.0</ele><time>2026-05-04T10:31:58.001Z</time></trkpt><trkpt lat="40.31310357454242" lon="9.330656889596082"><ele>479.0</ele><time>2026-05-04T10:31:59.001Z</time></trkpt><trkpt lat="40.3130939322621" lon="9.330803851747127"><ele>479.0</ele><time>2026-05-04T10:32:00.001Z</time></trkpt><trkpt lat="40.31312451897171" lon="9.330931058675766"><ele>479.0</ele><time>2026-05-04T10:32:01.001Z</time></trkpt><trkpt lat="40.313171166770765" lon="9.331039983554005"><ele>475.2</ele><time>2026-05-04T10:32:02.001Z</time></trkpt><trkpt lat="40.31322829633323" lon="9.33113099866287"><ele>471.4</ele><time>2026-05-04T10:32:03.001Z</time></trkpt><trkpt lat="40.313288338696154" lon="9.33123611649252"><ele>467.6</ele><time>2026-05-04T10:32:04.001Z</time></trkpt><trkpt lat="40.31334837756189" lon="9.331350931804153"><ele>463.8</ele><time>2026-05-04T10:32:05.001Z</time></trkpt><trkpt lat="40.31340388944478" lon="9.331458299789785"><ele>460.0</ele><time>2026-05-04T10:32:06.001Z</time></trkpt><trkpt lat="40.31345677791924" lon="9.331558775027283"><ele>458.1666666666667</ele><time>2026-05-04T10:32:07.001Z</time></trkpt><trkpt lat="40.3135062270932" lon="9.33165114618917"><ele>456.33333333333337</ele><time>2026-05-04T10:32:08.001Z</time></trkpt><trkpt lat="40.31355369710651" lon="9.331748940353238"><ele>454.5</ele><time>2026-05-04T10:32:09.001Z</time></trkpt><trkpt lat="40.31360254314657" lon="9.331846993031926"><ele>452.66666666666663</ele><time>2026-05-04T10:32:10.001Z</time></trkpt><trkpt lat="40.313654057667236" lon="9.331944173444942"><ele>450.8333333333333</ele><time>2026-05-04T10:32:11.001Z</time></trkpt><trkpt lat="40.3137047868837" lon="9.332035123884168"><ele>449.0</ele><time>2026-05-04T10:32:12.001Z</time></trkpt><trkpt lat="40.31374868216646" lon="9.332132431605167"><ele>447.75</ele><time>2026-05-04T10:32:13.001Z</time></trkpt><trkpt lat="40.31381992342113" lon="9.33222884151275"><ele>446.5</ele><time>2026-05-04T10:32:14.001Z</time></trkpt><trkpt lat="40.31391647196076" lon="9.332401495477985"><ele>445.25</ele><time>2026-05-04T10:32:15.001Z</time></trkpt><trkpt lat="40.31405204142824" lon="9.332545712558819"><ele>444.0</ele><time>2026-05-04T10:32:16.001Z</time></trkpt><trkpt lat="40.314150677419136" lon="9.332700539751304"><ele>444.0</ele><time>2026-05-04T10:32:17.001Z</time></trkpt><trkpt lat="40.31424963943495" lon="9.332846417928367"><ele>444.0</ele><time>2026-05-04T10:32:18.001Z</time></trkpt><trkpt lat="40.314342393472586" lon="9.332977260502023"><ele>444.0</ele><time>2026-05-04T10:32:19.001Z</time></trkpt><trkpt lat="40.314399947095474" lon="9.333106843664277"><ele>444.0</ele><time>2026-05-04T10:32:20.001Z</time></trkpt><trkpt lat="40.31440575002678" lon="9.333261157727323"><ele>441.0</ele><time>2026-05-04T10:32:21.001Z</time></trkpt><trkpt lat="40.31438976485668" lon="9.333397524864456"><ele>438.0</ele><time>2026-05-04T10:32:22.001Z</time></trkpt><trkpt lat="40.31433880961594" lon="9.333545896611007"><ele>435.0</ele><time>2026-05-04T10:32:23.001Z</time></trkpt><trkpt lat="40.31429040290195" lon="9.333709861592522"><ele>432.0</ele><time>2026-05-04T10:32:24.001Z</time></trkpt><trkpt lat="40.31424945711731" lon="9.333884646449656"><ele>431.25</ele><time>2026-05-04T10:32:25.001Z</time></trkpt><trkpt lat="40.31420429836824" lon="9.334055067432256"><ele>430.5</ele><time>2026-05-04T10:32:26.001Z</time></trkpt><trkpt lat="40.31415745849701" lon="9.334223052504957"><ele>429.75</ele><time>2026-05-04T10:32:27.001Z</time></trkpt><trkpt lat="40.31413809965021" lon="9.334396209543257"><ele>429.0</ele><time>2026-05-04T10:32:28.001Z</time></trkpt><trkpt lat="40.31412750924296" lon="9.334570795991995"><ele>428.75</ele><time>2026-05-04T10:32:29.001Z</time></trkpt><trkpt lat="40.31412273094577" lon="9.334740966336641"><ele>428.5</ele><time>2026-05-04T10:32:30.001Z</time></trkpt><trkpt lat="40.3141145318267" lon="9.334909292375393"><ele>428.25</ele><time>2026-05-04T10:32:31.001Z</time></trkpt><trkpt lat="40.31410516481941" lon="9.335072816669994"><ele>428.0</ele><time>2026-05-04T10:32:32.001Z</time></trkpt><trkpt lat="40.31409586709534" lon="9.335233077716033"><ele>428.0</ele><time>2026-05-04T10:32:33.001Z</time></trkpt><trkpt lat="40.314080345221626" lon="9.335379403198626"><ele>427.99999999999994</ele><time>2026-05-04T10:32:34.001Z</time></trkpt><trkpt lat="40.314036302419645" lon="9.335474219829845"><ele>427.99999999999994</ele><time>2026-05-04T10:32:35.001Z</time></trkpt><trkpt lat="40.31393512808709" lon="9.335549858939713"><ele>428.0</ele><time>2026-05-04T10:32:37.001Z</time></trkpt><trkpt lat="40.31385546856451" lon="9.335465905215921"><ele>428.0</ele><time>2026-05-04T10:32:38.001Z</time></trkpt><trkpt lat="40.313863096421706" lon="9.335201034316503"><ele>428.0</ele><time>2026-05-04T10:32:40.001Z</time></trkpt><trkpt lat="40.31388045702924" lon="9.335022965500086"><ele>428.0</ele><time>2026-05-04T10:32:41.001Z</time></trkpt><trkpt lat="40.31391248550326" lon="9.334850105251126"><ele>428.0</ele><time>2026-05-04T10:32:42.001Z</time></trkpt><trkpt lat="40.31391495920973" lon="9.334701689756287"><ele>428.0</ele><time>2026-05-04T10:32:43.001Z</time></trkpt><trkpt lat="40.31387424676402" lon="9.334593713669936"><ele>423.0</ele><time>2026-05-04T10:32:44.001Z</time></trkpt><trkpt lat="40.31380138313796" lon="9.334527689809557"><ele>417.99999999999994</ele><time>2026-05-04T10:32:45.001Z</time></trkpt><trkpt lat="40.31371087918713" lon="9.334517513908375"><ele>413.0</ele><time>2026-05-04T10:32:46.001Z</time></trkpt><trkpt lat="40.31363423799838" lon="9.334589209020299"><ele>408.0</ele><time>2026-05-04T10:32:47.001Z</time></trkpt><trkpt lat="40.31358602082584" lon="9.334696668894976"><ele>403.0</ele><time>2026-05-04T10:32:48.001Z</time></trkpt><trkpt lat="40.31358082680568" lon="9.33483781874529"><ele>402.0</ele><time>2026-05-04T10:32:49.002Z</time></trkpt><trkpt lat="40.313597602988565" lon="9.334977118367885"><ele>401.0</ele><time>2026-05-04T10:32:50.002Z</time></trkpt><trkpt lat="40.31359857076102" lon="9.33511796074347"><ele>400.0</ele><time>2026-05-04T10:32:51.002Z</time></trkpt><trkpt lat="40.3082276473518" lon="9.346879074256094"><ele>382.4</ele><time>2026-05-04T10:33:52.003Z</time></trkpt><trkpt lat="40.308303498681425" lon="9.346954376233093"><ele>364.8</ele><time>2026-05-04T10:33:53.003Z</time></trkpt><trkpt lat="40.30839751779767" lon="9.347015874211577"><ele>347.2</ele><time>2026-05-04T10:33:54.003Z</time></trkpt><trkpt lat="40.30849932365193" lon="9.347075152086623"><ele>329.6</ele><time>2026-05-04T10:33:55.003Z</time></trkpt><trkpt lat="40.30859880927986" lon="9.347128918421882"><ele>312.0</ele><time>2026-05-04T10:33:56.003Z</time></trkpt><trkpt lat="40.308705910857626" lon="9.347182133833844"><ele>311.0</ele><time>2026-05-04T10:33:57.003Z</time></trkpt><trkpt lat="40.30879498028168" lon="9.347274356048462"><ele>310.0</ele><time>2026-05-04T10:33:58.003Z</time></trkpt><trkpt lat="40.30885509033424" lon="9.347402174088112"><ele>309.0</ele><time>2026-05-04T10:33:59.003Z</time></trkpt><trkpt lat="40.30888973314185" lon="9.347553072929017"><ele>308.0</ele><time>2026-05-04T10:34:00.003Z</time></trkpt><trkpt lat="40.30886998380913" lon="9.347709775886385"><ele>308.0</ele><time>2026-05-04T10:34:01.002Z</time></trkpt><trkpt lat="40.308798630825635" lon="9.347854973155796"><ele>308.0</ele><time>2026-05-04T10:34:02.002Z</time></trkpt><trkpt lat="40.30871515457707" lon="9.347988362256194"><ele>308.0</ele><time>2026-05-04T10:34:03.002Z</time></trkpt><trkpt lat="40.30857583640784" lon="9.348081467251617"><ele>308.0</ele><time>2026-05-04T10:34:04.002Z</time></trkpt><trkpt lat="40.30844887528653" lon="9.34818412301973"><ele>308.0</ele><time>2026-05-04T10:34:05.002Z</time></trkpt><trkpt lat="40.308331627289775" lon="9.348287665146609"><ele>308.0</ele><time>2026-05-04T10:34:06.002Z</time></trkpt><trkpt lat="40.308254628344834" lon="9.348387083760496"><ele>308.0</ele><time>2026-05-04T10:34:07.002Z</time></trkpt><trkpt lat="40.30812633297447" lon="9.348497787873118"><ele>308.0</ele><time>2026-05-04T10:34:08.002Z</time></trkpt><trkpt lat="40.30800466949185" lon="9.348601766185737"><ele>306.33333333333337</ele><time>2026-05-04T10:34:09.002Z</time></trkpt><trkpt lat="40.307892200008254" lon="9.348710990058922"><ele>304.6666666666667</ele><time>2026-05-04T10:34:10.001Z</time></trkpt><trkpt lat="40.30777383988224" lon="9.348830324465322"><ele>303.0</ele><time>2026-05-04T10:34:11.001Z</time></trkpt><trkpt lat="40.307639383922265" lon="9.348950906900617"><ele>303.0</ele><time>2026-05-04T10:34:12.001Z</time></trkpt><trkpt lat="40.30749445345444" lon="9.349066649152654"><ele>303.0</ele><time>2026-05-04T10:34:13.001Z</time></trkpt><trkpt lat="40.3073410363971" lon="9.349185532786004"><ele>303.0</ele><time>2026-05-04T10:34:14.001Z</time></trkpt><trkpt lat="40.307172952465855" lon="9.349300293796105"><ele>299.0</ele><time>2026-05-04T10:34:15.001Z</time></trkpt><trkpt lat="40.30699464806102" lon="9.349408340889608"><ele>295.0</ele><time>2026-05-04T10:34:16.001Z</time></trkpt><trkpt lat="40.3068247924247" lon="9.349518056365428"><ele>291.0</ele><time>2026-05-04T10:34:17.001Z</time></trkpt><trkpt lat="40.306662066869066" lon="9.349615707758769"><ele>291.6666666666667</ele><time>2026-05-04T10:34:18.001Z</time></trkpt><trkpt lat="40.30650618200747" lon="9.349712930272538"><ele>292.33333333333337</ele><time>2026-05-04T10:34:19.001Z</time></trkpt><trkpt lat="40.30635236938644" lon="9.349799481158898"><ele>293.0</ele><time>2026-05-04T10:34:20.001Z</time></trkpt><trkpt lat="40.30619994959032" lon="9.349833574833111"><ele>293.0</ele><time>2026-05-04T10:34:21.001Z</time></trkpt><trkpt lat="40.30603432754446" lon="9.349815866001588"><ele>293.0</ele><time>2026-05-04T10:34:22.001Z</time></trkpt><trkpt lat="40.30585619922433" lon="9.349771751334556"><ele>293.0</ele><time>2026-05-04T10:34:23.001Z</time></trkpt><trkpt lat="40.30568762320349" lon="9.349722280472452"><ele>291.25</ele><time>2026-05-04T10:34:24.001Z</time></trkpt><trkpt lat="40.30553792369815" lon="9.349682501080837"><ele>289.5</ele><time>2026-05-04T10:34:25.001Z</time></trkpt><trkpt lat="40.305397275898265" lon="9.349681388367097"><ele>287.75</ele><time>2026-05-04T10:34:26.001Z</time></trkpt><trkpt lat="40.30527015890207" lon="9.349737324215631"><ele>286.0</ele><time>2026-05-04T10:34:27.001Z</time></trkpt><trkpt lat="40.30517650224952" lon="9.349854505990017"><ele>286.0</ele><time>2026-05-04T10:34:28.001Z</time></trkpt><trkpt lat="40.30512314028683" lon="9.350021858955772"><ele>286.0</ele><time>2026-05-04T10:34:29.001Z</time></trkpt><trkpt lat="40.305133644742746" lon="9.350289367518794"><ele>286.0</ele><time>2026-05-04T10:34:30.001Z</time></trkpt><trkpt lat="40.30514520964477" lon="9.350533799594592"><ele>285.3333333333333</ele><time>2026-05-04T10:34:31.001Z</time></trkpt><trkpt lat="40.30511933148266" lon="9.35078122867881"><ele>284.6666666666667</ele><time>2026-05-04T10:34:32.001Z</time></trkpt><trkpt lat="40.3050804845742" lon="9.350997239116355"><ele>284.0</ele><time>2026-05-04T10:34:33.001Z</time></trkpt><trkpt lat="40.30499198905369" lon="9.351194767336313"><ele>285.33333333333337</ele><time>2026-05-04T10:34:34.001Z</time></trkpt><trkpt lat="40.30485898803219" lon="9.35138771622463"><ele>286.6666666666667</ele><time>2026-05-04T10:34:35.001Z</time></trkpt><trkpt lat="40.30471698038954" lon="9.351592295440708"><ele>288.0</ele><time>2026-05-04T10:34:36.001Z</time></trkpt><trkpt lat="40.304578094671335" lon="9.35179212294735"><ele>284.6666666666667</ele><time>2026-05-04T10:34:37.001Z</time></trkpt><trkpt lat="40.30443682123948" lon="9.3519951655299"><ele>281.33333333333337</ele><time>2026-05-04T10:34:38.001Z</time></trkpt><trkpt lat="40.30429288773356" lon="9.352188626086791"><ele>278.0</ele><time>2026-05-04T10:34:39.001Z</time></trkpt><trkpt lat="40.30413514352203" lon="9.352362845889537"><ele>278.0</ele><time>2026-05-04T10:34:40.001Z</time></trkpt><trkpt lat="40.303975670197836" lon="9.3525319497164"><ele>278.0</ele><time>2026-05-04T10:34:41.001Z</time></trkpt><trkpt lat="40.30382975798595" lon="9.352708943912601"><ele>278.0</ele><time>2026-05-04T10:34:42.001Z</time></trkpt><trkpt lat="40.30367373725483" lon="9.352853003295087"><ele>278.33333333333337</ele><time>2026-05-04T10:34:43.001Z</time></trkpt><trkpt lat="40.30353576504867" lon="9.353024250034814"><ele>278.6666666666667</ele><time>2026-05-04T10:34:44.001Z</time></trkpt><trkpt lat="40.30339126835197" lon="9.353168764492217"><ele>279.0</ele><time>2026-05-04T10:34:45.001Z</time></trkpt><trkpt lat="40.30324889102005" lon="9.353320836444581"><ele>279.0</ele><time>2026-05-04T10:34:46.001Z</time></trkpt><trkpt lat="40.303118226172145" lon="9.35349917248626"><ele>279.0</ele><time>2026-05-04T10:34:47.001Z</time></trkpt><trkpt lat="40.303009468629156" lon="9.35370150951836"><ele>279.0</ele><time>2026-05-04T10:34:48.001Z</time></trkpt><trkpt lat="40.30290792154674" lon="9.353912754606654"><ele>278.6666666666667</ele><time>2026-05-04T10:34:49.001Z</time></trkpt><trkpt lat="40.30278825072134" lon="9.354103444432596"><ele>278.33333333333337</ele><time>2026-05-04T10:34:50.001Z</time></trkpt><trkpt lat="40.30266493504142" lon="9.354281980010047"><ele>278.0</ele><time>2026-05-04T10:34:51.001Z</time></trkpt><trkpt lat="40.30134430354594" lon="9.361688052320421"><ele>279.0</ele><time>2026-05-04T10:35:52.002Z</time></trkpt><trkpt lat="40.30145822212645" lon="9.361591289246098"><ele>280.0</ele><time>2026-05-04T10:35:53.003Z</time></trkpt><trkpt lat="40.30158921408079" lon="9.361549107386853"><ele>281.0</ele><time>2026-05-04T10:35:54.003Z</time></trkpt><trkpt lat="40.301731442424106" lon="9.361589009432025"><ele>282.0</ele><time>2026-05-04T10:35:55.003Z</time></trkpt><trkpt lat="40.30189778397102" lon="9.36160893390681"><ele>282.0</ele><time>2026-05-04T10:35:56.003Z</time></trkpt><trkpt lat="40.302049225816134" lon="9.36164042587542"><ele>282.0</ele><time>2026-05-04T10:35:57.003Z</time></trkpt><trkpt lat="40.3021515423905" lon="9.361679430312732"><ele>282.0</ele><time>2026-05-04T10:35:58.003Z</time></trkpt><trkpt lat="40.302209733636886" lon="9.361760656305728"><ele>282.0</ele><time>2026-05-04T10:35:59.003Z</time></trkpt><trkpt lat="40.302200715702426" lon="9.361879848361063"><ele>282.0</ele><time>2026-05-04T10:36:00.003Z</time></trkpt><trkpt lat="40.3021256187285" lon="9.362019029063369"><ele>281.0</ele><time>2026-05-04T10:36:01.003Z</time></trkpt><trkpt lat="40.302100223602025" lon="9.362199071883005"><ele>280.0</ele><time>2026-05-04T10:36:02.003Z</time></trkpt><trkpt lat="40.30207457401299" lon="9.362373267775848"><ele>279.0</ele><time>2026-05-04T10:36:03.003Z</time></trkpt><trkpt lat="40.30209308434034" lon="9.362508174321315"><ele>278.0</ele><time>2026-05-04T10:36:04.003Z</time></trkpt><trkpt lat="40.30214893619441" lon="9.362582455014305"><ele>278.0</ele><time>2026-05-04T10:36:05.003Z</time></trkpt><trkpt lat="40.30221105024092" lon="9.362612602877347"><ele>278.0</ele><time>2026-05-04T10:36:06.003Z</time></trkpt><trkpt lat="40.302317969463346" lon="9.362505133451753"><ele>278.0</ele><time>2026-05-04T10:36:07.001Z</time></trkpt><trkpt lat="40.302379153422436" lon="9.362381542097726"><ele>278.0</ele><time>2026-05-04T10:36:08.001Z</time></trkpt><trkpt lat="40.302456702748096" lon="9.362226309272346"><ele>282.75</ele><time>2026-05-04T10:36:09.001Z</time></trkpt><trkpt lat="40.30257500789282" lon="9.362158211072813"><ele>287.5</ele><time>2026-05-04T10:36:10.001Z</time></trkpt><trkpt lat="40.30272614344829" lon="9.362092618322611"><ele>292.25</ele><time>2026-05-04T10:36:11.001Z</time></trkpt><trkpt lat="40.30285137525528" lon="9.362045483613148"><ele>297.0</ele><time>2026-05-04T10:36:12.001Z</time></trkpt><trkpt lat="40.3029002506352" lon="9.36193589528035"><ele>297.0</ele><time>2026-05-04T10:36:13.001Z</time></trkpt><trkpt lat="40.30289739097837" lon="9.361777353376958"><ele>297.0</ele><time>2026-05-04T10:36:14.001Z</time></trkpt><trkpt lat="40.302835711341615" lon="9.361554447770692"><ele>297.0</ele><time>2026-05-04T10:36:15.001Z</time></trkpt><trkpt lat="40.302771796646816" lon="9.361290790936389"><ele>300.0</ele><time>2026-05-04T10:36:16.001Z</time></trkpt><trkpt lat="40.30271621270433" lon="9.361029930550714"><ele>303.0</ele><time>2026-05-04T10:36:17.001Z</time></trkpt><trkpt lat="40.30267977417148" lon="9.36080731959496"><ele>306.0</ele><time>2026-05-04T10:36:18.001Z</time></trkpt><trkpt lat="40.302627678444125" lon="9.360634153314008"><ele>306.0</ele><time>2026-05-04T10:36:19.001Z</time></trkpt><trkpt lat="40.302539249676364" lon="9.360542299592788"><ele>306.0</ele><time>2026-05-04T10:36:20.001Z</time></trkpt><trkpt lat="40.302395576653026" lon="9.360507855267187"><ele>306.0</ele><time>2026-05-04T10:36:21.001Z</time></trkpt><trkpt lat="40.3022346301413" lon="9.360480765022169"><ele>306.0</ele><time>2026-05-04T10:36:22.001Z</time></trkpt><trkpt lat="40.3021222251339" lon="9.360409689058718"><ele>303.8</ele><time>2026-05-04T10:36:23.001Z</time></trkpt><trkpt lat="40.302058262337646" lon="9.360315777487404"><ele>301.6</ele><time>2026-05-04T10:36:24.001Z</time></trkpt><trkpt lat="40.3020374532076" lon="9.360193625797491"><ele>299.4</ele><time>2026-05-04T10:36:25.001Z</time></trkpt><trkpt lat="40.30207268280522" lon="9.360060538004742"><ele>297.2</ele><time>2026-05-04T10:36:26.001Z</time></trkpt><trkpt lat="40.30214058547228" lon="9.359962745487495"><ele>295.0</ele><time>2026-05-04T10:36:27.001Z</time></trkpt><trkpt lat="40.30224613028799" lon="9.359909064287528"><ele>299.66666666666663</ele><time>2026-05-04T10:36:28.001Z</time></trkpt><trkpt lat="40.30238573451901" lon="9.35994582591514"><ele>304.3333333333333</ele><time>2026-05-04T10:36:29.001Z</time></trkpt><trkpt lat="40.30257932885585" lon="9.359967689079449"><ele>309.0</ele><time>2026-05-04T10:36:30.001Z</time></trkpt><trkpt lat="40.302734172385684" lon="9.359998769854652"><ele>309.0</ele><time>2026-05-04T10:36:31.001Z</time></trkpt><trkpt lat="40.30284457937138" lon="9.360016135057512"><ele>309.0</ele><time>2026-05-04T10:36:32.001Z</time></trkpt><trkpt lat="40.30290015518843" lon="9.360072703476073"><ele>309.0</ele><time>2026-05-04T10:36:34.001Z</time></trkpt><trkpt lat="40.30288296791509" lon="9.360316937940064"><ele>309.0</ele><time>2026-05-04T10:36:37.001Z</time></trkpt><trkpt lat="40.302879637184176" lon="9.360444857183012"><ele>308.25</ele><time>2026-05-04T10:36:38.001Z</time></trkpt><trkpt lat="40.30291386953078" lon="9.360592189583068"><ele>307.5</ele><time>2026-05-04T10:36:39.001Z</time></trkpt><trkpt lat="40.30296281866039" lon="9.360738489480944"><ele>306.75</ele><time>2026-05-04T10:36:40.001Z</time></trkpt><trkpt lat="40.30301848955861" lon="9.360881368781532"><ele>306.0</ele><time>2026-05-04T10:36:41.001Z</time></trkpt><trkpt lat="40.303068066826796" lon="9.361024906183692"><ele>310.25</ele><time>2026-05-04T10:36:42.001Z</time></trkpt><trkpt lat="40.30311436892586" lon="9.361167084233843"><ele>314.5</ele><time>2026-05-04T10:36:43.001Z</time></trkpt><trkpt lat="40.303160665320576" lon="9.361309639805462"><ele>318.75</ele><time>2026-05-04T10:36:44.001Z</time></trkpt><trkpt lat="40.30320098691974" lon="9.3614532243613"><ele>323.0</ele><time>2026-05-04T10:36:45.001Z</time></trkpt><trkpt lat="40.303243245382575" lon="9.361592150441089"><ele>323.0</ele><time>2026-05-04T10:36:46.001Z</time></trkpt><trkpt lat="40.30327340632966" lon="9.361720623966868"><ele>323.0</ele><time>2026-05-04T10:36:47.001Z</time></trkpt><trkpt lat="40.303293925000276" lon="9.361842557704184"><ele>323.0</ele><time>2026-05-04T10:36:48.001Z</time></trkpt><trkpt lat="40.30330151429402" lon="9.361956220648242"><ele>323.0</ele><time>2026-05-04T10:36:49.001Z</time></trkpt><trkpt lat="40.30330288757232" lon="9.362071987101933"><ele>323.0</ele><time>2026-05-04T10:36:50.001Z</time></trkpt><trkpt lat="40.3032962021035" lon="9.362181110068077"><ele>325.0</ele><time>2026-05-04T10:36:51.001Z</time></trkpt><trkpt lat="40.30414425924165" lon="9.374039726057594"><ele>325.0</ele><time>2026-05-04T10:37:52.002Z</time></trkpt><trkpt lat="40.304311909477036" lon="9.374084232672491"><ele>325.0</ele><time>2026-05-04T10:37:53.002Z</time></trkpt><trkpt lat="40.304470107297355" lon="9.374177951312827"><ele>325.0</ele><time>2026-05-04T10:37:54.002Z</time></trkpt><trkpt lat="40.3045760830827" lon="9.374326261053483"><ele>325.0</ele><time>2026-05-04T10:37:55.002Z</time></trkpt><trkpt lat="40.304731789458685" lon="9.374481303812509"><ele>325.0</ele><time>2026-05-04T10:37:56.002Z</time></trkpt><trkpt lat="40.304833865394684" lon="9.374716747028339"><ele>325.0</ele><time>2026-05-04T10:37:57.002Z</time></trkpt><trkpt lat="40.304976622769075" lon="9.37488813174064"><ele>327.0</ele><time>2026-05-04T10:37:58.002Z</time></trkpt><trkpt lat="40.30509714337056" lon="9.37507996165685"><ele>329.0</ele><time>2026-05-04T10:37:59.002Z</time></trkpt><trkpt lat="40.30519375626515" lon="9.375292520515082"><ele>331.0</ele><time>2026-05-04T10:38:00.002Z</time></trkpt><trkpt lat="40.30528648827178" lon="9.375533273111056"><ele>331.0</ele><time>2026-05-04T10:38:01.002Z</time></trkpt><trkpt lat="40.305384474212836" lon="9.375789105959749"><ele>331.0</ele><time>2026-05-04T10:38:02.002Z</time></trkpt><trkpt lat="40.30549400320123" lon="9.376028522446923"><ele>331.0</ele><time>2026-05-04T10:38:03.002Z</time></trkpt><trkpt lat="40.30561717227783" lon="9.37626664329699"><ele>334.0</ele><time>2026-05-04T10:38:04.002Z</time></trkpt><trkpt lat="40.30576314061363" lon="9.376470851223022"><ele>337.0</ele><time>2026-05-04T10:38:05.002Z</time></trkpt><trkpt lat="40.30594243372344" lon="9.376633905116885"><ele>340.0</ele><time>2026-05-04T10:38:06.002Z</time></trkpt><trkpt lat="40.30611947817619" lon="9.376751771608369"><ele>340.0</ele><time>2026-05-04T10:38:07.002Z</time></trkpt><trkpt lat="40.306298558234154" lon="9.376817202496957"><ele>340.0</ele><time>2026-05-04T10:38:08.002Z</time></trkpt><trkpt lat="40.3064475873397" lon="9.37689002886684"><ele>340.0</ele><time>2026-05-04T10:38:09.002Z</time></trkpt><trkpt lat="40.306545908914174" lon="9.377040214658829"><ele>342.66666666666663</ele><time>2026-05-04T10:38:10.002Z</time></trkpt><trkpt lat="40.30661523110284" lon="9.377237823900906"><ele>345.3333333333333</ele><time>2026-05-04T10:38:11.002Z</time></trkpt><trkpt lat="40.30664338611411" lon="9.377469571632586"><ele>348.0</ele><time>2026-05-04T10:38:12.002Z</time></trkpt><trkpt lat="40.306676517616744" lon="9.377710257158208"><ele>348.0</ele><time>2026-05-04T10:38:13Z</time></trkpt><trkpt lat="40.306718760933" lon="9.377905371845966"><ele>348.0</ele><time>2026-05-04T10:38:14Z</time></trkpt><trkpt lat="40.30679598383636" lon="9.37803618456693"><ele>348.0</ele><time>2026-05-04T10:38:15Z</time></trkpt><trkpt lat="40.30691845227914" lon="9.378094571241387"><ele>348.0</ele><time>2026-05-04T10:38:16Z</time></trkpt><trkpt lat="40.30708008619306" lon="9.37811012947891"><ele>346.3333333333333</ele><time>2026-05-04T10:38:17Z</time></trkpt><trkpt lat="40.3072739570647" lon="9.37807711882475"><ele>344.66666666666663</ele><time>2026-05-04T10:38:18Z</time></trkpt><trkpt lat="40.30746949853088" lon="9.378044842731383"><ele>343.0</ele><time>2026-05-04T10:38:19Z</time></trkpt><trkpt lat="40.30764345563333" lon="9.378040714658647"><ele>343.0</ele><time>2026-05-04T10:38:20Z</time></trkpt><trkpt lat="40.30779259981169" lon="9.378102397885755"><ele>343.0</ele><time>2026-05-04T10:38:21Z</time></trkpt><trkpt lat="40.30789255610432" lon="9.378268520464477"><ele>343.0</ele><time>2026-05-04T10:38:22Z</time></trkpt><trkpt lat="40.30793729171331" lon="9.378464684288883"><ele>343.0</ele><time>2026-05-04T10:38:23Z</time></trkpt><trkpt lat="40.30795477692242" lon="9.37871269307108"><ele>343.0</ele><time>2026-05-04T10:38:24Z</time></trkpt><trkpt lat="40.307985184167734" lon="9.37898612700461"><ele>343.0</ele><time>2026-05-04T10:38:25Z</time></trkpt><trkpt lat="40.3079962702764" lon="9.379290810013384"><ele>340.5</ele><time>2026-05-04T10:38:26Z</time></trkpt><trkpt lat="40.30801737583667" lon="9.379594009157065"><ele>338.0</ele><time>2026-05-04T10:38:27Z</time></trkpt><trkpt lat="40.308043211887224" lon="9.379878724477159"><ele>337.0</ele><time>2026-05-04T10:38:28Z</time></trkpt><trkpt lat="40.308065046855994" lon="9.380135605714838"><ele>336.0</ele><time>2026-05-04T10:38:29Z</time></trkpt><trkpt lat="40.30809502954039" lon="9.38035270937726"><ele>335.0</ele><time>2026-05-04T10:38:30Z</time></trkpt><trkpt lat="40.308166322241384" lon="9.380562128280292"><ele>335.0</ele><time>2026-05-04T10:38:31Z</time></trkpt><trkpt lat="40.30829618979412" lon="9.38077132611662"><ele>335.0</ele><time>2026-05-04T10:38:32Z</time></trkpt><trkpt lat="40.30846947836331" lon="9.380947826278717"><ele>335.0</ele><time>2026-05-04T10:38:33Z</time></trkpt><trkpt lat="40.30865798075881" lon="9.38113883770576"><ele>335.0</ele><time>2026-05-04T10:38:34Z</time></trkpt><trkpt lat="40.308837544439974" lon="9.38134165012729"><ele>335.0</ele><time>2026-05-04T10:38:35Z</time></trkpt><trkpt lat="40.30899061940262" lon="9.381561651746736"><ele>334.33333333333337</ele><time>2026-05-04T10:38:36Z</time></trkpt><trkpt lat="40.30911991837525" lon="9.381769495476748"><ele>333.6666666666667</ele><time>2026-05-04T10:38:37Z</time></trkpt><trkpt lat="40.309208476005516" lon="9.382003525691538"><ele>333.0</ele><time>2026-05-04T10:38:38Z</time></trkpt><trkpt lat="40.309281535047475" lon="9.382275822846244"><ele>330.6666666666667</ele><time>2026-05-04T10:38:39Z</time></trkpt><trkpt lat="40.30935778722894" lon="9.382524011257722"><ele>328.33333333333337</ele><time>2026-05-04T10:38:40Z</time></trkpt><trkpt lat="40.30943281001533" lon="9.382758345816258"><ele>326.0</ele><time>2026-05-04T10:38:41Z</time></trkpt><trkpt lat="40.30955909566394" lon="9.38296148809485"><ele>326.6666666666667</ele><time>2026-05-04T10:38:42Z</time></trkpt><trkpt lat="40.30971228268755" lon="9.383126757923117"><ele>327.3333333333333</ele><time>2026-05-04T10:38:43Z</time></trkpt><trkpt lat="40.30978682865221" lon="9.383345645546013"><ele>328.0</ele><time>2026-05-04T10:38:44Z</time></trkpt><trkpt lat="40.309826334411476" lon="9.383593542923842"><ele>325.0</ele><time>2026-05-04T10:38:45Z</time></trkpt><trkpt lat="40.30987305837286" lon="9.383892752555642"><ele>322.0</ele><time>2026-05-04T10:38:46Z</time></trkpt><trkpt lat="40.309928951882725" lon="9.384186437765575"><ele>322.0</ele><time>2026-05-04T10:38:47Z</time></trkpt><trkpt lat="40.3099749322502" lon="9.384466948228695"><ele>322.0</ele><time>2026-05-04T10:38:48.001Z</time></trkpt><trkpt lat="40.31002921819654" lon="9.384722643322318"><ele>322.0</ele><time>2026-05-04T10:38:49.001Z</time></trkpt><trkpt lat="40.31013140474034" lon="9.384940633978026"><ele>318.0</ele><time>2026-05-04T10:38:50.001Z</time></trkpt><trkpt lat="40.31026798819305" lon="9.385138102899262"><ele>314.0</ele><time>2026-05-04T10:38:51.001Z</time></trkpt><trkpt lat="40.31080355796686" lon="9.399603797229748"><ele>293.6666666666667</ele><time>2026-05-04T10:39:52.001Z</time></trkpt><trkpt lat="40.310913721298775" lon="9.39981982948302"><ele>273.3333333333333</ele><time>2026-05-04T10:39:53.001Z</time></trkpt><trkpt lat="40.31102376039032" lon="9.40004201107255"><ele>253.0</ele><time>2026-05-04T10:39:54.001Z</time></trkpt><trkpt lat="40.31114159361992" lon="9.400273114529401"><ele>253.66666666666666</ele><time>2026-05-04T10:39:55.002Z</time></trkpt><trkpt lat="40.311263909048044" lon="9.40051095532782"><ele>254.33333333333331</ele><time>2026-05-04T10:39:56.002Z</time></trkpt><trkpt lat="40.31138568774467" lon="9.400752602114324"><ele>255.0</ele><time>2026-05-04T10:39:57.002Z</time></trkpt><trkpt lat="40.3115024224706" lon="9.400990188414964"><ele>255.0</ele><time>2026-05-04T10:39:58.002Z</time></trkpt><trkpt lat="40.31162090641501" lon="9.401232121283934"><ele>255.0</ele><time>2026-05-04T10:39:59.002Z</time></trkpt><trkpt lat="40.31174624914978" lon="9.401477312184372"><ele>255.0</ele><time>2026-05-04T10:40:00.002Z</time></trkpt><trkpt lat="40.31188219329267" lon="9.401727823126366"><ele>251.0</ele><time>2026-05-04T10:40:01.002Z</time></trkpt><trkpt lat="40.312038108136115" lon="9.40200997044293"><ele>247.0</ele><time>2026-05-04T10:40:02.002Z</time></trkpt><trkpt lat="40.312208616111334" lon="9.40232949677697"><ele>246.0</ele><time>2026-05-04T10:40:03.002Z</time></trkpt><trkpt lat="40.31237707654875" lon="9.402683012947973"><ele>245.0</ele><time>2026-05-04T10:40:04.002Z</time></trkpt><trkpt lat="40.31253775547127" lon="9.4030413845057"><ele>243.5</ele><time>2026-05-04T10:40:05.002Z</time></trkpt><trkpt lat="40.31270352861823" lon="9.403383221912991"><ele>242.0</ele><time>2026-05-04T10:40:06.002Z</time></trkpt><trkpt lat="40.312871233258115" lon="9.403708167230013"><ele>241.0</ele><time>2026-05-04T10:40:07.002Z</time></trkpt><trkpt lat="40.313038773035345" lon="9.404028404565333"><ele>240.0</ele><time>2026-05-04T10:40:08.002Z</time></trkpt><trkpt lat="40.313201882778884" lon="9.404347884030459"><ele>238.5</ele><time>2026-05-04T10:40:09.002Z</time></trkpt><trkpt lat="40.31335569762254" lon="9.404669250085831"><ele>237.0</ele><time>2026-05-04T10:40:10.002Z</time></trkpt><trkpt lat="40.31350940609156" lon="9.404982988157895"><ele>237.0</ele><time>2026-05-04T10:40:11.002Z</time></trkpt><trkpt lat="40.31366930566113" lon="9.40529578124311"><ele>237.0</ele><time>2026-05-04T10:40:12.002Z</time></trkpt><trkpt lat="40.31383114306741" lon="9.405609670373266"><ele>237.0</ele><time>2026-05-04T10:40:13.002Z</time></trkpt><trkpt lat="40.31398514957476" lon="9.405919330844098"><ele>237.0</ele><time>2026-05-04T10:40:14.002Z</time></trkpt><trkpt lat="40.314144175280866" lon="9.40622937944048"><ele>234.0</ele><time>2026-05-04T10:40:15.002Z</time></trkpt><trkpt lat="40.31430056021595" lon="9.406535641642296"><ele>231.0</ele><time>2026-05-04T10:40:16.002Z</time></trkpt><trkpt lat="40.3144608159578" lon="9.406839788322397"><ele>231.0</ele><time>2026-05-04T10:40:17.002Z</time></trkpt><trkpt lat="40.31461608757872" lon="9.407144952566782"><ele>231.0</ele><time>2026-05-04T10:40:18.002Z</time></trkpt><trkpt lat="40.31476503583886" lon="9.407446290071373"><ele>232.0</ele><time>2026-05-04T10:40:19Z</time></trkpt><trkpt lat="40.3149134785449" lon="9.407751308292156"><ele>233.0</ele><time>2026-05-04T10:40:20Z</time></trkpt><trkpt lat="40.31506212274258" lon="9.40804670152506"><ele>233.0</ele><time>2026-05-04T10:40:21Z</time></trkpt><trkpt lat="40.31520997899142" lon="9.408328449824483"><ele>233.0</ele><time>2026-05-04T10:40:22Z</time></trkpt><trkpt lat="40.31535138286981" lon="9.40859943078658"><ele>234.5</ele><time>2026-05-04T10:40:23Z</time></trkpt><trkpt lat="40.31548607319611" lon="9.408863711266587"><ele>236.0</ele><time>2026-05-04T10:40:24Z</time></trkpt><trkpt lat="40.31561286093722" lon="9.409109130876061"><ele>236.0</ele><time>2026-05-04T10:40:25Z</time></trkpt><trkpt lat="40.31572805208049" lon="9.40934698269733"><ele>236.0</ele><time>2026-05-04T10:40:26Z</time></trkpt><trkpt lat="40.31582489501101" lon="9.409578708999838"><ele>236.0</ele><time>2026-05-04T10:40:27Z</time></trkpt><trkpt lat="40.31590660113841" lon="9.409835019897846"><ele>236.0</ele><time>2026-05-04T10:40:28Z</time></trkpt><trkpt lat="40.315964020484444" lon="9.410117826399258"><ele>236.0</ele><time>2026-05-04T10:40:29Z</time></trkpt><trkpt lat="40.31601021909829" lon="9.41042433090366"><ele>235.0</ele><time>2026-05-04T10:40:30Z</time></trkpt><trkpt lat="40.31605921664122" lon="9.410748414973865"><ele>234.0</ele><time>2026-05-04T10:40:31Z</time></trkpt><trkpt lat="40.31611287312874" lon="9.41107827772483"><ele>233.0</ele><time>2026-05-04T10:40:32Z</time></trkpt><trkpt lat="40.31616844506326" lon="9.411401300034234"><ele>232.0</ele><time>2026-05-04T10:40:33Z</time></trkpt><trkpt lat="40.31622404795064" lon="9.411731865661787"><ele>232.0</ele><time>2026-05-04T10:40:34Z</time></trkpt><trkpt lat="40.316279838543856" lon="9.412051530101415"><ele>232.0</ele><time>2026-05-04T10:40:35Z</time></trkpt><trkpt lat="40.31633540034775" lon="9.412379319624238"><ele>232.0</ele><time>2026-05-04T10:40:36Z</time></trkpt><trkpt lat="40.31639467504706" lon="9.41271360535945"><ele>232.0</ele><time>2026-05-04T10:40:37Z</time></trkpt><trkpt lat="40.316449972564875" lon="9.413045561435432"><ele>229.0</ele><time>2026-05-04T10:40:38Z</time></trkpt><trkpt lat="40.31650669254387" lon="9.413382257692778"><ele>226.0</ele><time>2026-05-04T10:40:39Z</time></trkpt><trkpt lat="40.31656469197112" lon="9.413719482376605"><ele>224.0</ele><time>2026-05-04T10:40:40Z</time></trkpt><trkpt lat="40.31662017699185" lon="9.41405068695371"><ele>222.0</ele><time>2026-05-04T10:40:41Z</time></trkpt><trkpt lat="40.31667582324601" lon="9.414371385897816"><ele>219.5</ele><time>2026-05-04T10:40:42Z</time></trkpt><trkpt lat="40.316724796630325" lon="9.414679367858316"><ele>217.0</ele><time>2026-05-04T10:40:43Z</time></trkpt><trkpt lat="40.31673930380471" lon="9.414999498908728"><ele>217.0</ele><time>2026-05-04T10:40:44Z</time></trkpt><trkpt lat="40.31673889103105" lon="9.415321507392513"><ele>217.0</ele><time>2026-05-04T10:40:45Z</time></trkpt><trkpt lat="40.31672302830036" lon="9.415649769440204"><ele>214.0</ele><time>2026-05-04T10:40:46Z</time></trkpt><trkpt lat="40.31670277909987" lon="9.415972407685393"><ele>211.0</ele><time>2026-05-04T10:40:47Z</time></trkpt><trkpt lat="40.31669188147678" lon="9.41631601478274"><ele>210.5</ele><time>2026-05-04T10:40:48Z</time></trkpt><trkpt lat="40.31666683885847" lon="9.416673333686635"><ele>210.0</ele><time>2026-05-04T10:40:49Z</time></trkpt><trkpt lat="40.31664634798186" lon="9.417040726005148"><ele>210.0</ele><time>2026-05-04T10:40:50Z</time></trkpt><trkpt lat="40.316624360195256" lon="9.417402340469437"><ele>210.0</ele><time>2026-05-04T10:40:51Z</time></trkpt><trkpt lat="40.32067690998983" lon="9.435935264609983"><ele>213.0</ele><time>2026-05-04T10:41:52.001Z</time></trkpt><trkpt lat="40.32082567848725" lon="9.436196623582585"><ele>216.0</ele><time>2026-05-04T10:41:53.001Z</time></trkpt><trkpt lat="40.32098084712416" lon="9.436463867256306"><ele>216.0</ele><time>2026-05-04T10:41:54.001Z</time></trkpt><trkpt lat="40.32113703267937" lon="9.436736608145944"><ele>216.0</ele><time>2026-05-04T10:41:55.001Z</time></trkpt><trkpt lat="40.321293574989326" lon="9.437003102533643"><ele>218.0</ele><time>2026-05-04T10:41:56.001Z</time></trkpt><trkpt lat="40.32144991471101" lon="9.437272084358275"><ele>220.0</ele><time>2026-05-04T10:41:57.001Z</time></trkpt><trkpt lat="40.32160871776711" lon="9.437541618200754"><ele>220.0</ele><time>2026-05-04T10:41:58.001Z</time></trkpt><trkpt lat="40.321778348828616" lon="9.437791887015582"><ele>220.0</ele><time>2026-05-04T10:41:59.001Z</time></trkpt><trkpt lat="40.32198531870429" lon="9.438001091493739"><ele>219.0</ele><time>2026-05-04T10:42:00.001Z</time></trkpt><trkpt lat="40.322210617798184" lon="9.438195604262672"><ele>218.0</ele><time>2026-05-04T10:42:01.001Z</time></trkpt><trkpt lat="40.32239974830341" lon="9.438434515919948"><ele>220.5</ele><time>2026-05-04T10:42:02.001Z</time></trkpt><trkpt lat="40.322558122758736" lon="9.438703265099539"><ele>223.0</ele><time>2026-05-04T10:42:03.001Z</time></trkpt><trkpt lat="40.322692164529265" lon="9.438958164643905"><ele>223.0</ele><time>2026-05-04T10:42:04.001Z</time></trkpt><trkpt lat="40.32282933674481" lon="9.439190192609955"><ele>223.0</ele><time>2026-05-04T10:42:05.001Z</time></trkpt><trkpt lat="40.32298094949959" lon="9.439371614948534"><ele>223.0</ele><time>2026-05-04T10:42:06.002Z</time></trkpt><trkpt lat="40.32317533444589" lon="9.439469826629532"><ele>223.66666666666666</ele><time>2026-05-04T10:42:07.002Z</time></trkpt><trkpt lat="40.32338609051183" lon="9.439545461753143"><ele>224.33333333333331</ele><time>2026-05-04T10:42:08.002Z</time></trkpt><trkpt lat="40.32356722664665" lon="9.43966465328397"><ele>225.0</ele><time>2026-05-04T10:42:09.002Z</time></trkpt><trkpt lat="40.32369973025226" lon="9.439898375451207"><ele>225.0</ele><time>2026-05-04T10:42:10.002Z</time></trkpt><trkpt lat="40.32383730812322" lon="9.440159966209137"><ele>225.0</ele><time>2026-05-04T10:42:11.002Z</time></trkpt><trkpt lat="40.32397057670438" lon="9.440414300531053"><ele>227.0</ele><time>2026-05-04T10:42:12.002Z</time></trkpt><trkpt lat="40.32406718721678" lon="9.44068520230719"><ele>229.0</ele><time>2026-05-04T10:42:13.002Z</time></trkpt><trkpt lat="40.32410279811219" lon="9.440992944884764"><ele>228.5</ele><time>2026-05-04T10:42:14.002Z</time></trkpt><trkpt lat="40.32416720984659" lon="9.441324436617162"><ele>228.0</ele><time>2026-05-04T10:42:15.002Z</time></trkpt><trkpt lat="40.324210689513784" lon="9.441668063162233"><ele>228.0</ele><time>2026-05-04T10:42:16.002Z</time></trkpt><trkpt lat="40.324257817028716" lon="9.442009241003092"><ele>228.0</ele><time>2026-05-04T10:42:17.002Z</time></trkpt><trkpt lat="40.324278344619415" lon="9.442353655931678"><ele>229.5</ele><time>2026-05-04T10:42:18.002Z</time></trkpt><trkpt lat="40.32429588929096" lon="9.442694809178118"><ele>231.0</ele><time>2026-05-04T10:42:19.002Z</time></trkpt><trkpt lat="40.32430081822532" lon="9.44304386883564"><ele>232.5</ele><time>2026-05-04T10:42:20.002Z</time></trkpt><trkpt lat="40.324321082811224" lon="9.443383621313114"><ele>234.0</ele><time>2026-05-04T10:42:21.002Z</time></trkpt><trkpt lat="40.32431916076609" lon="9.443730124840366"><ele>235.5</ele><time>2026-05-04T10:42:22.002Z</time></trkpt><trkpt lat="40.32432237394723" lon="9.444075513820959"><ele>237.0</ele><time>2026-05-04T10:42:23.002Z</time></trkpt><trkpt lat="40.32432508243764" lon="9.444420656585207"><ele>239.5</ele><time>2026-05-04T10:42:24.002Z</time></trkpt><trkpt lat="40.324330430583515" lon="9.444758375471947"><ele>242.0</ele><time>2026-05-04T10:42:25.001Z</time></trkpt><trkpt lat="40.324317438188494" lon="9.445080993791588"><ele>242.0</ele><time>2026-05-04T10:42:26.001Z</time></trkpt><trkpt lat="40.32433554301299" lon="9.445390572491302"><ele>242.0</ele><time>2026-05-04T10:42:27.001Z</time></trkpt><trkpt lat="40.324319042106055" lon="9.445693090004342"><ele>242.0</ele><time>2026-05-04T10:42:28.001Z</time></trkpt><trkpt lat="40.32430556630678" lon="9.445991253501099"><ele>242.0</ele><time>2026-05-04T10:42:29.001Z</time></trkpt><trkpt lat="40.324263599736774" lon="9.446294812912448"><ele>240.5</ele><time>2026-05-04T10:42:30.001Z</time></trkpt><trkpt lat="40.32419391566136" lon="9.446600362048613"><ele>239.0</ele><time>2026-05-04T10:42:31.001Z</time></trkpt><trkpt lat="40.32410871160903" lon="9.44692062175992"><ele>239.5</ele><time>2026-05-04T10:42:32.001Z</time></trkpt><trkpt lat="40.32403965953371" lon="9.447245230466132"><ele>240.0</ele><time>2026-05-04T10:42:33.001Z</time></trkpt><trkpt lat="40.32394254971568" lon="9.44754518036062"><ele>239.66666666666669</ele><time>2026-05-04T10:42:34Z</time></trkpt><trkpt lat="40.32386774844684" lon="9.44783030366608"><ele>239.33333333333334</ele><time>2026-05-04T10:42:35Z</time></trkpt><trkpt lat="40.32381060113412" lon="9.44810753355452"><ele>239.0</ele><time>2026-05-04T10:42:36Z</time></trkpt><trkpt lat="40.32374516821792" lon="9.44836610517902"><ele>237.66666666666669</ele><time>2026-05-04T10:42:37Z</time></trkpt><trkpt lat="40.32370938835783" lon="9.448612121077936"><ele>236.33333333333331</ele><time>2026-05-04T10:42:38Z</time></trkpt><trkpt lat="40.32372223325649" lon="9.448839261028912"><ele>235.0</ele><time>2026-05-04T10:42:39Z</time></trkpt><trkpt lat="40.32379011668634" lon="9.449061660591735"><ele>232.33333333333331</ele><time>2026-05-04T10:42:40Z</time></trkpt><trkpt lat="40.3239372650479" lon="9.449260003288412"><ele>229.66666666666669</ele><time>2026-05-04T10:42:41Z</time></trkpt><trkpt lat="40.324092981428755" lon="9.44946252179151"><ele>227.0</ele><time>2026-05-04T10:42:42Z</time></trkpt><trkpt lat="40.324235747123765" lon="9.449666656888056"><ele>227.0</ele><time>2026-05-04T10:42:43Z</time></trkpt><trkpt lat="40.32436262005637" lon="9.449875987257785"><ele>227.0</ele><time>2026-05-04T10:42:44Z</time></trkpt><trkpt lat="40.324443226248285" lon="9.450115096994457"><ele>227.0</ele><time>2026-05-04T10:42:45Z</time></trkpt><trkpt lat="40.32450182591407" lon="9.450375157628127"><ele>230.5</ele><time>2026-05-04T10:42:46Z</time></trkpt><trkpt lat="40.32452782063402" lon="9.450660178968374"><ele>234.0</ele><time>2026-05-04T10:42:47.001Z</time></trkpt><trkpt lat="40.32453454004231" lon="9.450972320817689"><ele>234.0</ele><time>2026-05-04T10:42:48.001Z</time></trkpt><trkpt lat="40.324523709082875" lon="9.45128639154942"><ele>234.0</ele><time>2026-05-04T10:42:49.001Z</time></trkpt><trkpt lat="40.32449321689098" lon="9.451605213621068"><ele>231.5</ele><time>2026-05-04T10:42:50.001Z</time></trkpt><trkpt lat="40.32444530721353" lon="9.451920322159502"><ele>229.0</ele><time>2026-05-04T10:42:51.001Z</time></trkpt><trkpt lat="40.326449358454475" lon="9.470999357146882"><ele>212.33333333333331</ele><time>2026-05-04T10:43:52.001Z</time></trkpt><trkpt lat="40.326428397138336" lon="9.47126466911904"><ele>195.66666666666666</ele><time>2026-05-04T10:43:53.001Z</time></trkpt><trkpt lat="40.3264083086331" lon="9.471510663225986"><ele>179.0</ele><time>2026-05-04T10:43:54.001Z</time></trkpt><trkpt lat="40.32643369470833" lon="9.471721934192992"><ele>178.0</ele><time>2026-05-04T10:43:55.001Z</time></trkpt><trkpt lat="40.32653120325985" lon="9.471919883665954"><ele>177.0</ele><time>2026-05-04T10:43:56.001Z</time></trkpt><trkpt lat="40.32667457069246" lon="9.472096417186156"><ele>176.0</ele><time>2026-05-04T10:43:57.001Z</time></trkpt><trkpt lat="40.326854112986524" lon="9.472246600442682"><ele>176.0</ele><time>2026-05-04T10:43:58.002Z</time></trkpt><trkpt lat="40.327048790899156" lon="9.472383322829518"><ele>176.0</ele><time>2026-05-04T10:43:59.002Z</time></trkpt><trkpt lat="40.32724148121703" lon="9.47253670242102"><ele>176.0</ele><time>2026-05-04T10:44:00.002Z</time></trkpt><trkpt lat="40.32740962701282" lon="9.472683748982218"><ele>176.0</ele><time>2026-05-04T10:44:01.002Z</time></trkpt><trkpt lat="40.327565310897455" lon="9.472798812345669"><ele>176.0</ele><time>2026-05-04T10:44:02.002Z</time></trkpt><trkpt lat="40.32772414593392" lon="9.472876141633634"><ele>176.0</ele><time>2026-05-04T10:44:03.002Z</time></trkpt><trkpt lat="40.327900380086035" lon="9.472862146559065"><ele>175.66666666666666</ele><time>2026-05-04T10:44:04.002Z</time></trkpt><trkpt lat="40.32806755321597" lon="9.472864201028509"><ele>175.33333333333334</ele><time>2026-05-04T10:44:05.002Z</time></trkpt><trkpt lat="40.32823574936066" lon="9.472950914766578"><ele>175.0</ele><time>2026-05-04T10:44:06.002Z</time></trkpt><trkpt lat="40.32841612084873" lon="9.473113832682715"><ele>175.66666666666669</ele><time>2026-05-04T10:44:07.002Z</time></trkpt><trkpt lat="40.32860490141113" lon="9.473278572288033"><ele>176.33333333333334</ele><time>2026-05-04T10:44:08.002Z</time></trkpt><trkpt lat="40.32878101503617" lon="9.473416894680131"><ele>177.0</ele><time>2026-05-04T10:44:09.002Z</time></trkpt><trkpt lat="40.328958913072476" lon="9.473531860387656"><ele>175.33333333333334</ele><time>2026-05-04T10:44:10.002Z</time></trkpt><trkpt lat="40.32915489270845" lon="9.473607865719373"><ele>173.66666666666669</ele><time>2026-05-04T10:44:11.002Z</time></trkpt><trkpt lat="40.32936758568351" lon="9.473652331412096"><ele>172.0</ele><time>2026-05-04T10:44:12.002Z</time></trkpt><trkpt lat="40.32957866826585" lon="9.473694298897325"><ele>171.33333333333334</ele><time>2026-05-04T10:44:13.002Z</time></trkpt><trkpt lat="40.32979382022036" lon="9.473754943011826"><ele>170.66666666666666</ele><time>2026-05-04T10:44:14.002Z</time></trkpt><trkpt lat="40.33000412740658" lon="9.473859235674897"><ele>170.0</ele><time>2026-05-04T10:44:15.002Z</time></trkpt><trkpt lat="40.33019677254599" lon="9.473995216534394"><ele>170.5</ele><time>2026-05-04T10:44:16.002Z</time></trkpt><trkpt lat="40.33037939146529" lon="9.474168530189015"><ele>171.0</ele><time>2026-05-04T10:44:17.002Z</time></trkpt><trkpt lat="40.330587692643945" lon="9.474372651726137"><ele>171.0</ele><time>2026-05-04T10:44:18.002Z</time></trkpt><trkpt lat="40.33081487446838" lon="9.474601715627474"><ele>171.0</ele><time>2026-05-04T10:44:19.002Z</time></trkpt><trkpt lat="40.33105083459171" lon="9.474840697392292"><ele>170.0</ele><time>2026-05-04T10:44:20.002Z</time></trkpt><trkpt lat="40.33127867316198" lon="9.475051650643756"><ele>169.0</ele><time>2026-05-04T10:44:21.002Z</time></trkpt><trkpt lat="40.331491048754714" lon="9.475267426404693"><ele>172.0</ele><time>2026-05-04T10:44:22.002Z</time></trkpt><trkpt lat="40.331724814618724" lon="9.47544594863088"><ele>175.0</ele><time>2026-05-04T10:44:23.002Z</time></trkpt><trkpt lat="40.33194445991462" lon="9.47558404171312"><ele>175.0</ele><time>2026-05-04T10:44:24.002Z</time></trkpt><trkpt lat="40.33213268336026" lon="9.47570391241488"><ele>175.0</ele><time>2026-05-04T10:44:25.002Z</time></trkpt><trkpt lat="40.33229713634374" lon="9.47581880144834"><ele>175.0</ele><time>2026-05-04T10:44:26.002Z</time></trkpt><trkpt lat="40.33244942481484" lon="9.47594616237111"><ele>175.0</ele><time>2026-05-04T10:44:27.002Z</time></trkpt><trkpt lat="40.33259813851946" lon="9.47608004583834"><ele>175.0</ele><time>2026-05-04T10:44:28.002Z</time></trkpt><trkpt lat="40.33272841285825" lon="9.476212516422596"><ele>175.0</ele><time>2026-05-04T10:44:29.002Z</time></trkpt><trkpt lat="40.33285680452496" lon="9.476354438938143"><ele>175.0</ele><time>2026-05-04T10:44:30.002Z</time></trkpt><trkpt lat="40.33299864983431" lon="9.476501858493709"><ele>175.0</ele><time>2026-05-04T10:44:31.001Z</time></trkpt><trkpt lat="40.33315611946493" lon="9.476651574414715"><ele>175.0</ele><time>2026-05-04T10:44:32.001Z</time></trkpt><trkpt lat="40.33331212027408" lon="9.476796863126857"><ele>175.66666666666669</ele><time>2026-05-04T10:44:33.001Z</time></trkpt><trkpt lat="40.33347722959856" lon="9.476928027684279"><ele>176.33333333333334</ele><time>2026-05-04T10:44:34.001Z</time></trkpt><trkpt lat="40.33365300049429" lon="9.47705519634957"><ele>177.0</ele><time>2026-05-04T10:44:35.001Z</time></trkpt><trkpt lat="40.33383682717231" lon="9.47718883253112"><ele>174.66666666666666</ele><time>2026-05-04T10:44:36.001Z</time></trkpt><trkpt lat="40.334022111953345" lon="9.477329034146015"><ele>172.33333333333331</ele><time>2026-05-04T10:44:37.001Z</time></trkpt><trkpt lat="40.33421622410996" lon="9.477471366836829"><ele>170.0</ele><time>2026-05-04T10:44:38.001Z</time></trkpt><trkpt lat="40.33442059513932" lon="9.477612000111096"><ele>170.0</ele><time>2026-05-04T10:44:39.001Z</time></trkpt><trkpt lat="40.334627419499185" lon="9.477742066325693"><ele>170.0</ele><time>2026-05-04T10:44:40.001Z</time></trkpt><trkpt lat="40.33484893959982" lon="9.47786341421233"><ele>171.5</ele><time>2026-05-04T10:44:41.001Z</time></trkpt><trkpt lat="40.33507425722646" lon="9.477978879385983"><ele>173.0</ele><time>2026-05-04T10:44:42.001Z</time></trkpt><trkpt lat="40.33528349995399" lon="9.478132667035819"><ele>173.0</ele><time>2026-05-04T10:44:43.001Z</time></trkpt><trkpt lat="40.335503927060074" lon="9.478290462305157"><ele>173.0</ele><time>2026-05-04T10:44:44.001Z</time></trkpt><trkpt lat="40.335729243477495" lon="9.47843317085682"><ele>172.5</ele><time>2026-05-04T10:44:45.001Z</time></trkpt><trkpt lat="40.335933498087826" lon="9.478597297766203"><ele>172.0</ele><time>2026-05-04T10:44:46.001Z</time></trkpt><trkpt lat="40.33611653006085" lon="9.478770770711437"><ele>172.0</ele><time>2026-05-04T10:44:47.001Z</time></trkpt><trkpt lat="40.33626115371506" lon="9.47895440669568"><ele>172.0</ele><time>2026-05-04T10:44:48.001Z</time></trkpt><trkpt lat="40.336406598713495" lon="9.479183376567619"><ele>172.0</ele><time>2026-05-04T10:44:49.001Z</time></trkpt><trkpt lat="40.33656150984628" lon="9.479423639796915"><ele>169.5</ele><time>2026-05-04T10:44:50.001Z</time></trkpt><trkpt lat="40.336715682103154" lon="9.479677442294735"><ele>167.0</ele><time>2026-05-04T10:44:51.001Z</time></trkpt><trkpt lat="40.34182666874533" lon="9.494551557109581"><ele>162.5</ele><time>2026-05-04T10:45:52.001Z</time></trkpt><trkpt lat="40.34192740377499" lon="9.494829718741371"><ele>158.0</ele><time>2026-05-04T10:45:53.001Z</time></trkpt><trkpt lat="40.34199842514072" lon="9.495112673385275"><ele>158.0</ele><time>2026-05-04T10:45:54.001Z</time></trkpt><trkpt lat="40.34201190305686" lon="9.495396296024571"><ele>158.0</ele><time>2026-05-04T10:45:55.001Z</time></trkpt><trkpt lat="40.34202938200777" lon="9.495662820196527"><ele>158.0</ele><time>2026-05-04T10:45:56.001Z</time></trkpt><trkpt lat="40.3420232744972" lon="9.495923658037828"><ele>158.33333333333331</ele><time>2026-05-04T10:45:57.001Z</time></trkpt><trkpt lat="40.34203984817432" lon="9.496148628397304"><ele>158.66666666666666</ele><time>2026-05-04T10:45:58.001Z</time></trkpt><trkpt lat="40.342107446152376" lon="9.496361004227767"><ele>159.0</ele><time>2026-05-04T10:45:59.001Z</time></trkpt><trkpt lat="40.34223816033578" lon="9.496548506898137"><ele>160.33333333333334</ele><time>2026-05-04T10:46:00.001Z</time></trkpt><trkpt lat="40.342392820372005" lon="9.49673424116438"><ele>161.66666666666669</ele><time>2026-05-04T10:46:01.001Z</time></trkpt><trkpt lat="40.34250815727682" lon="9.496981299449766"><ele>163.0</ele><time>2026-05-04T10:46:02.001Z</time></trkpt><trkpt lat="40.34260403122092" lon="9.497204110332603"><ele>166.5</ele><time>2026-05-04T10:46:03.001Z</time></trkpt><trkpt lat="40.34274177249599" lon="9.497494000445105"><ele>170.0</ele><time>2026-05-04T10:46:04.001Z</time></trkpt><trkpt lat="40.34285113478117" lon="9.497758888438709"><ele>171.66666666666666</ele><time>2026-05-04T10:46:05.001Z</time></trkpt><trkpt lat="40.34293682411651" lon="9.498020312997252"><ele>173.33333333333334</ele><time>2026-05-04T10:46:06.001Z</time></trkpt><trkpt lat="40.34299672266681" lon="9.498279706052113"><ele>175.0</ele><time>2026-05-04T10:46:07.001Z</time></trkpt><trkpt lat="40.34300473995763" lon="9.49854937661666"><ele>176.5</ele><time>2026-05-04T10:46:08.001Z</time></trkpt><trkpt lat="40.342981684372596" lon="9.498861157929696"><ele>178.0</ele><time>2026-05-04T10:46:09.001Z</time></trkpt><trkpt lat="40.34296209406443" lon="9.499198044187631"><ele>178.0</ele><time>2026-05-04T10:46:10.001Z</time></trkpt><trkpt lat="40.342941977160415" lon="9.499525695660624"><ele>178.0</ele><time>2026-05-04T10:46:11.001Z</time></trkpt><trkpt lat="40.34293038173064" lon="9.499820127136493"><ele>178.66666666666669</ele><time>2026-05-04T10:46:12.001Z</time></trkpt><trkpt lat="40.34294554871335" lon="9.500076685363693"><ele>179.33333333333334</ele><time>2026-05-04T10:46:13.001Z</time></trkpt><trkpt lat="40.343019644026676" lon="9.50029631513266"><ele>180.0</ele><time>2026-05-04T10:46:14.002Z</time></trkpt><trkpt lat="40.34314550847384" lon="9.500472441550958"><ele>176.33333333333334</ele><time>2026-05-04T10:46:15.002Z</time></trkpt><trkpt lat="40.343316478044684" lon="9.500608829478933"><ele>172.66666666666669</ele><time>2026-05-04T10:46:16.002Z</time></trkpt><trkpt lat="40.34347096233942" lon="9.500759437517345"><ele>169.0</ele><time>2026-05-04T10:46:17.002Z</time></trkpt><trkpt lat="40.34357480135961" lon="9.500967503543452"><ele>169.0</ele><time>2026-05-04T10:46:18.002Z</time></trkpt><trkpt lat="40.34364096831398" lon="9.501228034110149"><ele>169.0</ele><time>2026-05-04T10:46:19.002Z</time></trkpt><trkpt lat="40.34370134294408" lon="9.501535711899978"><ele>174.5</ele><time>2026-05-04T10:46:20.002Z</time></trkpt><trkpt lat="40.343752240084584" lon="9.501831407505705"><ele>180.0</ele><time>2026-05-04T10:46:21.002Z</time></trkpt><trkpt lat="40.343776610970544" lon="9.502144729124085"><ele>181.5</ele><time>2026-05-04T10:46:22.002Z</time></trkpt><trkpt lat="40.343792895002906" lon="9.502469452018136"><ele>183.0</ele><time>2026-05-04T10:46:23.002Z</time></trkpt><trkpt lat="40.34384914368896" lon="9.502787681805762"><ele>177.0</ele><time>2026-05-04T10:46:24.002Z</time></trkpt><trkpt lat="40.34393613403598" lon="9.503113844493274"><ele>171.0</ele><time>2026-05-04T10:46:25.002Z</time></trkpt><trkpt lat="40.344029690682554" lon="9.50344850295042"><ele>173.0</ele><time>2026-05-04T10:46:26.002Z</time></trkpt><trkpt lat="40.34406604438152" lon="9.503796235825046"><ele>175.0</ele><time>2026-05-04T10:46:27.002Z</time></trkpt><trkpt lat="40.344165350852315" lon="9.50413237650376"><ele>175.0</ele><time>2026-05-04T10:46:28.002Z</time></trkpt><trkpt lat="40.34418038607039" lon="9.50452741389366"><ele>175.0</ele><time>2026-05-04T10:46:29.002Z</time></trkpt><trkpt lat="40.344294395318684" lon="9.504899277894127"><ele>175.0</ele><time>2026-05-04T10:46:30.002Z</time></trkpt><trkpt lat="40.34439800047762" lon="9.50528294786134"><ele>175.0</ele><time>2026-05-04T10:46:31.002Z</time></trkpt><trkpt lat="40.34448411872545" lon="9.505632998621811"><ele>176.5</ele><time>2026-05-04T10:46:32.002Z</time></trkpt><trkpt lat="40.34456521050967" lon="9.505954562901373"><ele>178.0</ele><time>2026-05-04T10:46:33.002Z</time></trkpt><trkpt lat="40.344641069123924" lon="9.50625127316275"><ele>176.33333333333334</ele><time>2026-05-04T10:46:34.002Z</time></trkpt><trkpt lat="40.34471292315384" lon="9.506531033075442"><ele>174.66666666666666</ele><time>2026-05-04T10:46:35.002Z</time></trkpt><trkpt lat="40.34478034440581" lon="9.506783330408531"><ele>173.0</ele><time>2026-05-04T10:46:36.002Z</time></trkpt><trkpt lat="40.344841816088504" lon="9.507002937293782"><ele>175.0</ele><time>2026-05-04T10:46:37.001Z</time></trkpt><trkpt lat="40.344942532110316" lon="9.50717104750348"><ele>177.0</ele><time>2026-05-04T10:46:38.001Z</time></trkpt><trkpt lat="40.345089609579404" lon="9.507291344801516"><ele>179.0</ele><time>2026-05-04T10:46:39.001Z</time></trkpt><trkpt lat="40.34524355716902" lon="9.507352609180876"><ele>179.0</ele><time>2026-05-04T10:46:40.001Z</time></trkpt><trkpt lat="40.34538208599208" lon="9.507396422500937"><ele>179.0</ele><time>2026-05-04T10:46:41.001Z</time></trkpt><trkpt lat="40.34549579512515" lon="9.50745935445748"><ele>179.0</ele><time>2026-05-04T10:46:42.001Z</time></trkpt><trkpt lat="40.34559772037564" lon="9.507556656740569"><ele>179.0</ele><time>2026-05-04T10:46:43.001Z</time></trkpt><trkpt lat="40.34569217050752" lon="9.507657523358231"><ele>179.5</ele><time>2026-05-04T10:46:44.001Z</time></trkpt><trkpt lat="40.34577361945136" lon="9.507770393566908"><ele>180.0</ele><time>2026-05-04T10:46:45.001Z</time></trkpt><trkpt lat="40.34586199259744" lon="9.50789852584245"><ele>180.5</ele><time>2026-05-04T10:46:46.001Z</time></trkpt><trkpt lat="40.345940075481515" lon="9.50802050007143"><ele>181.0</ele><time>2026-05-04T10:46:47.001Z</time></trkpt><trkpt lat="40.34602709153849" lon="9.508141299238684"><ele>181.0</ele><time>2026-05-04T10:46:48.001Z</time></trkpt><trkpt lat="40.34611191195856" lon="9.508248557691193"><ele>181.0</ele><time>2026-05-04T10:46:49.001Z</time></trkpt><trkpt lat="40.34619020545741" lon="9.50835437288711"><ele>181.0</ele><time>2026-05-04T10:46:50.001Z</time></trkpt><trkpt lat="40.3462586221893" lon="9.508455497725949"><ele>181.0</ele><time>2026-05-04T10:46:51.001Z</time></trkpt><trkpt lat="40.34422103940377" lon="9.51532605556628"><ele>188.5</ele><time>2026-05-04T10:47:52.001Z</time></trkpt><trkpt lat="40.34428938198428" lon="9.515638668295164"><ele>196.0</ele><time>2026-05-04T10:47:53.001Z</time></trkpt><trkpt lat="40.3443554359876" lon="9.515957879643413"><ele>196.0</ele><time>2026-05-04T10:47:54.001Z</time></trkpt><trkpt lat="40.34440716176523" lon="9.516244447162329"><ele>196.0</ele><time>2026-05-04T10:47:55.001Z</time></trkpt><trkpt lat="40.344429313232105" lon="9.51651451886402"><ele>196.0</ele><time>2026-05-04T10:47:56.001Z</time></trkpt><trkpt lat="40.34439645667829" lon="9.516770508125827"><ele>196.0</ele><time>2026-05-04T10:47:57.001Z</time></trkpt><trkpt lat="40.344329554875436" lon="9.517012822414705"><ele>196.0</ele><time>2026-05-04T10:47:58.001Z</time></trkpt><trkpt lat="40.34423517892987" lon="9.517241711443074"><ele>196.0</ele><time>2026-05-04T10:47:59.001Z</time></trkpt><trkpt lat="40.34411729333683" lon="9.517443353335521"><ele>195.66666666666666</ele><time>2026-05-04T10:48:00.001Z</time></trkpt><trkpt lat="40.343966225205826" lon="9.51763423369399"><ele>195.33333333333331</ele><time>2026-05-04T10:48:01.001Z</time></trkpt><trkpt lat="40.3438057096332" lon="9.517834412257963"><ele>195.0</ele><time>2026-05-04T10:48:02.001Z</time></trkpt><trkpt lat="40.34365305294206" lon="9.518043952785094"><ele>194.5</ele><time>2026-05-04T10:48:03.001Z</time></trkpt><trkpt lat="40.34348480101407" lon="9.51823982611993"><ele>194.0</ele><time>2026-05-04T10:48:04.001Z</time></trkpt><trkpt lat="40.34331881297939" lon="9.518449806022419"><ele>194.0</ele><time>2026-05-04T10:48:05.001Z</time></trkpt><trkpt lat="40.34315264834307" lon="9.518660515548637"><ele>194.0</ele><time>2026-05-04T10:48:06.001Z</time></trkpt><trkpt lat="40.34298197919119" lon="9.518868260559287"><ele>193.5</ele><time>2026-05-04T10:48:07.001Z</time></trkpt><trkpt lat="40.34280342796233" lon="9.519079353178823"><ele>193.0</ele><time>2026-05-04T10:48:08.001Z</time></trkpt><trkpt lat="40.34262790567232" lon="9.519298202793083"><ele>193.0</ele><time>2026-05-04T10:48:09.001Z</time></trkpt><trkpt lat="40.34245478248569" lon="9.519530978748417"><ele>193.0</ele><time>2026-05-04T10:48:10.001Z</time></trkpt><trkpt lat="40.34227269208999" lon="9.519766110489586"><ele>193.0</ele><time>2026-05-04T10:48:11.001Z</time></trkpt><trkpt lat="40.342093176637384" lon="9.519981429980048"><ele>193.0</ele><time>2026-05-04T10:48:12.001Z</time></trkpt><trkpt lat="40.341902490719754" lon="9.52017835750072"><ele>193.0</ele><time>2026-05-04T10:48:13.001Z</time></trkpt><trkpt lat="40.34170849923364" lon="9.520360426456804"><ele>193.0</ele><time>2026-05-04T10:48:14.001Z</time></trkpt><trkpt lat="40.341503475667814" lon="9.520539282075829"><ele>191.5</ele><time>2026-05-04T10:48:15.001Z</time></trkpt><trkpt lat="40.341296267255125" lon="9.520717440558297"><ele>190.0</ele><time>2026-05-04T10:48:16.001Z</time></trkpt><trkpt lat="40.34108854229213" lon="9.520894445546347"><ele>190.0</ele><time>2026-05-04T10:48:17.001Z</time></trkpt><trkpt lat="40.34087585682787" lon="9.521076954131628"><ele>190.0</ele><time>2026-05-04T10:48:18.001Z</time></trkpt><trkpt lat="40.34066867470117" lon="9.521245469341954"><ele>191.0</ele><time>2026-05-04T10:48:19.001Z</time></trkpt><trkpt lat="40.34045874194152" lon="9.521411834223695"><ele>192.0</ele><time>2026-05-04T10:48:20.001Z</time></trkpt><trkpt lat="40.34026177753068" lon="9.521581428950972"><ele>192.0</ele><time>2026-05-04T10:48:21.001Z</time></trkpt><trkpt lat="40.34005718654971" lon="9.521759817092603"><ele>192.0</ele><time>2026-05-04T10:48:22.001Z</time></trkpt><trkpt lat="40.33985191267883" lon="9.52193639945416"><ele>193.0</ele><time>2026-05-04T10:48:23.001Z</time></trkpt><trkpt lat="40.33965004498718" lon="9.522106089370633"><ele>194.0</ele><time>2026-05-04T10:48:24.001Z</time></trkpt><trkpt lat="40.33944517865379" lon="9.522276095418245"><ele>194.0</ele><time>2026-05-04T10:48:25.001Z</time></trkpt><trkpt lat="40.339243369570816" lon="9.522443863117594"><ele>194.0</ele><time>2026-05-04T10:48:26.001Z</time></trkpt><trkpt lat="40.339044433444684" lon="9.522618905238312"><ele>193.5</ele><time>2026-05-04T10:48:27.001Z</time></trkpt><trkpt lat="40.338831231373646" lon="9.522773308619621"><ele>193.0</ele><time>2026-05-04T10:48:28.001Z</time></trkpt><trkpt lat="40.33863876381942" lon="9.522960247036986"><ele>193.0</ele><time>2026-05-04T10:48:29.001Z</time></trkpt><trkpt lat="40.33842714428083" lon="9.52312028440616"><ele>193.0</ele><time>2026-05-04T10:48:30.001Z</time></trkpt><trkpt lat="40.33822945847634" lon="9.523283629822402"><ele>193.5</ele><time>2026-05-04T10:48:31.001Z</time></trkpt><trkpt lat="40.338027801809176" lon="9.523451296140527"><ele>194.0</ele><time>2026-05-04T10:48:32.001Z</time></trkpt><trkpt lat="40.33782239274055" lon="9.523627057790753"><ele>195.0</ele><time>2026-05-04T10:48:33.001Z</time></trkpt><trkpt lat="40.337622270734556" lon="9.523797622572403"><ele>196.0</ele><time>2026-05-04T10:48:34.001Z</time></trkpt><trkpt lat="40.337424759996374" lon="9.52396535266516"><ele>196.0</ele><time>2026-05-04T10:48:35.001Z</time></trkpt><trkpt lat="40.337221275194935" lon="9.524134565868529"><ele>196.0</ele><time>2026-05-04T10:48:36.001Z</time></trkpt><trkpt lat="40.33702533870346" lon="9.524304981427969"><ele>196.0</ele><time>2026-05-04T10:48:37.001Z</time></trkpt><trkpt lat="40.33685823732196" lon="9.524493187786586"><ele>196.0</ele><time>2026-05-04T10:48:38.001Z</time></trkpt><trkpt lat="40.336704714433125" lon="9.524707730076598"><ele>196.0</ele><time>2026-05-04T10:48:39.001Z</time></trkpt><trkpt lat="40.336571445979615" lon="9.52494912577233"><ele>195.0</ele><time>2026-05-04T10:48:40.001Z</time></trkpt><trkpt lat="40.33646404631682" lon="9.525223803345249"><ele>194.0</ele><time>2026-05-04T10:48:41.001Z</time></trkpt><trkpt lat="40.33637029033364" lon="9.52552405374514"><ele>193.0</ele><time>2026-05-04T10:48:42.001Z</time></trkpt><trkpt lat="40.336281273893825" lon="9.52582245994526"><ele>192.0</ele><time>2026-05-04T10:48:43Z</time></trkpt><trkpt lat="40.33618336509439" lon="9.526118398153743"><ele>191.0</ele><time>2026-05-04T10:48:44Z</time></trkpt><trkpt lat="40.3360775202814" lon="9.526415209461632"><ele>190.0</ele><time>2026-05-04T10:48:45Z</time></trkpt><trkpt lat="40.33597771913547" lon="9.526716007106454"><ele>190.0</ele><time>2026-05-04T10:48:46Z</time></trkpt><trkpt lat="40.33587928200271" lon="9.52701326882515"><ele>190.0</ele><time>2026-05-04T10:48:47Z</time></trkpt><trkpt lat="40.335773314960264" lon="9.527308521817153"><ele>190.0</ele><time>2026-05-04T10:48:48Z</time></trkpt><trkpt lat="40.33567181700847" lon="9.527586205978023"><ele>190.0</ele><time>2026-05-04T10:48:49Z</time></trkpt><trkpt lat="40.33557812266763" lon="9.52786652350257"><ele>187.0</ele><time>2026-05-04T10:48:50Z</time></trkpt><trkpt lat="40.33548668338123" lon="9.528148863304535"><ele>184.0</ele><time>2026-05-04T10:48:51Z</time></trkpt><trkpt lat="40.32276545732647" lon="9.534287178476967"><ele>184.0</ele><time>2026-05-04T10:49:52.001Z</time></trkpt><trkpt lat="40.322549138088505" lon="9.53427669141566"><ele>184.0</ele><time>2026-05-04T10:49:53.001Z</time></trkpt><trkpt lat="40.32237388983984" lon="9.534274227205167"><ele>184.0</ele><time>2026-05-04T10:49:54.001Z</time></trkpt><trkpt lat="40.32223610113797" lon="9.534329049563697"><ele>183.66666666666669</ele><time>2026-05-04T10:49:55.001Z</time></trkpt><trkpt lat="40.32211735406703" lon="9.534456263663527"><ele>183.33333333333334</ele><time>2026-05-04T10:49:56.001Z</time></trkpt><trkpt lat="40.32202010559053" lon="9.534655282296509"><ele>183.0</ele><time>2026-05-04T10:49:57.001Z</time></trkpt><trkpt lat="40.32193571273955" lon="9.534864321402116"><ele>183.0</ele><time>2026-05-04T10:49:58.001Z</time></trkpt><trkpt lat="40.3218453867647" lon="9.535041758957185"><ele>183.0</ele><time>2026-05-04T10:49:59.001Z</time></trkpt><trkpt lat="40.32172377504331" lon="9.535141338404085"><ele>183.0</ele><time>2026-05-04T10:50:00.001Z</time></trkpt><trkpt lat="40.32158148346897" lon="9.535198537592422"><ele>183.0</ele><time>2026-05-04T10:50:01.001Z</time></trkpt><trkpt lat="40.3214238578947" lon="9.535199025290598"><ele>183.0</ele><time>2026-05-04T10:50:02.001Z</time></trkpt><trkpt lat="40.321277217196936" lon="9.535122171658507"><ele>183.0</ele><time>2026-05-04T10:50:03.001Z</time></trkpt><trkpt lat="40.32114720096517" lon="9.534988410141578"><ele>181.66666666666666</ele><time>2026-05-04T10:50:04.001Z</time></trkpt><trkpt lat="40.32099456524568" lon="9.534869658185947"><ele>180.33333333333331</ele><time>2026-05-04T10:50:05.001Z</time></trkpt><trkpt lat="40.32083123149424" lon="9.534747661877539"><ele>179.0</ele><time>2026-05-04T10:50:06.001Z</time></trkpt><trkpt lat="40.32065686714853" lon="9.534667757438704"><ele>178.0</ele><time>2026-05-04T10:50:07.001Z</time></trkpt><trkpt lat="40.32049032655374" lon="9.534570735603543"><ele>177.0</ele><time>2026-05-04T10:50:08.001Z</time></trkpt><trkpt lat="40.320328379665156" lon="9.534487097726242"><ele>176.0</ele><time>2026-05-04T10:50:09.001Z</time></trkpt><trkpt lat="40.32017217700134" lon="9.5344088479477"><ele>176.0</ele><time>2026-05-04T10:50:10.001Z</time></trkpt><trkpt lat="40.320017078734686" lon="9.534362186357555"><ele>176.0</ele><time>2026-05-04T10:50:11.001Z</time></trkpt><trkpt lat="40.31987081610792" lon="9.53433304276769"><ele>176.0</ele><time>2026-05-04T10:50:12.001Z</time></trkpt><trkpt lat="40.31972736428444" lon="9.534386025524215"><ele>176.0</ele><time>2026-05-04T10:50:13.001Z</time></trkpt><trkpt lat="40.31961925590736" lon="9.534496247961203"><ele>176.0</ele><time>2026-05-04T10:50:14.001Z</time></trkpt><trkpt lat="40.31955560297826" lon="9.534697370754351"><ele>176.0</ele><time>2026-05-04T10:50:15.001Z</time></trkpt><trkpt lat="40.319480628016294" lon="9.534905394552537"><ele>174.33333333333331</ele><time>2026-05-04T10:50:16.001Z</time></trkpt><trkpt lat="40.31940198723933" lon="9.535092955923837"><ele>172.66666666666666</ele><time>2026-05-04T10:50:17.001Z</time></trkpt><trkpt lat="40.31931400089077" lon="9.535281407033462"><ele>171.0</ele><time>2026-05-04T10:50:18.001Z</time></trkpt><trkpt lat="40.319220312373474" lon="9.53547729039318"><ele>171.0</ele><time>2026-05-04T10:50:19.001Z</time></trkpt><trkpt lat="40.31912797074073" lon="9.53562696732871"><ele>171.0</ele><time>2026-05-04T10:50:20.001Z</time></trkpt><trkpt lat="40.31903441718175" lon="9.535774892118924"><ele>171.0</ele><time>2026-05-04T10:50:21.001Z</time></trkpt><trkpt lat="40.31891816933717" lon="9.53586590546673"><ele>171.0</ele><time>2026-05-04T10:50:22.001Z</time></trkpt><trkpt lat="40.31877787293706" lon="9.53588252787444"><ele>169.66666666666666</ele><time>2026-05-04T10:50:23.001Z</time></trkpt><trkpt lat="40.31865388393253" lon="9.535890286920683"><ele>168.33333333333331</ele><time>2026-05-04T10:50:24.001Z</time></trkpt><trkpt lat="40.31846736625316" lon="9.535900052810977"><ele>167.0</ele><time>2026-05-04T10:50:25.001Z</time></trkpt><trkpt lat="40.318283409123374" lon="9.5358975042334"><ele>167.0</ele><time>2026-05-04T10:50:26.001Z</time></trkpt><trkpt lat="40.3181172133979" lon="9.535864262990554"><ele>167.0</ele><time>2026-05-04T10:50:27.001Z</time></trkpt><trkpt lat="40.317966549566925" lon="9.535786268565214"><ele>167.0</ele><time>2026-05-04T10:50:28.001Z</time></trkpt><trkpt lat="40.31783335823197" lon="9.53565429584944"><ele>168.33333333333331</ele><time>2026-05-04T10:50:29.001Z</time></trkpt><trkpt lat="40.317702833907674" lon="9.535497199864633"><ele>169.66666666666666</ele><time>2026-05-04T10:50:30.001Z</time></trkpt><trkpt lat="40.31756189110917" lon="9.535345261573326"><ele>171.0</ele><time>2026-05-04T10:50:31.001Z</time></trkpt><trkpt lat="40.31743194862298" lon="9.53518030439864"><ele>168.66666666666666</ele><time>2026-05-04T10:50:32.001Z</time></trkpt><trkpt lat="40.31729624682091" lon="9.535007178080088"><ele>166.33333333333331</ele><time>2026-05-04T10:50:33.001Z</time></trkpt><trkpt lat="40.317160100898015" lon="9.534837957009664"><ele>164.0</ele><time>2026-05-04T10:50:34.001Z</time></trkpt><trkpt lat="40.31701941929893" lon="9.534670398362682"><ele>161.33333333333331</ele><time>2026-05-04T10:50:35.001Z</time></trkpt><trkpt lat="40.31688952431715" lon="9.534506805726362"><ele>158.66666666666666</ele><time>2026-05-04T10:50:36.001Z</time></trkpt><trkpt lat="40.31677619011894" lon="9.534384642773743"><ele>156.0</ele><time>2026-05-04T10:50:37.001Z</time></trkpt><trkpt lat="40.31664630594136" lon="9.534343530530688"><ele>156.0</ele><time>2026-05-04T10:50:38.001Z</time></trkpt><trkpt lat="40.316484233351574" lon="9.534349482743256"><ele>156.0</ele><time>2026-05-04T10:50:39.001Z</time></trkpt><trkpt lat="40.316297982406" lon="9.534364361782107"><ele>156.0</ele><time>2026-05-04T10:50:40.001Z</time></trkpt><trkpt lat="40.316129208714756" lon="9.534341410570931"><ele>154.66666666666666</ele><time>2026-05-04T10:50:41.001Z</time></trkpt><trkpt lat="40.31594359987012" lon="9.534305512198436"><ele>153.33333333333331</ele><time>2026-05-04T10:50:42.001Z</time></trkpt><trkpt lat="40.315790605264915" lon="9.534278416411697"><ele>152.0</ele><time>2026-05-04T10:50:43.001Z</time></trkpt><trkpt lat="40.31565507313971" lon="9.534286261301014"><ele>151.66666666666666</ele><time>2026-05-04T10:50:44.001Z</time></trkpt><trkpt lat="40.31552472774051" lon="9.534369534573633"><ele>151.33333333333334</ele><time>2026-05-04T10:50:45.001Z</time></trkpt><trkpt lat="40.315409081542654" lon="9.534536673071697"><ele>151.0</ele><time>2026-05-04T10:50:46.001Z</time></trkpt><trkpt lat="40.31533531256774" lon="9.534731123963088"><ele>151.0</ele><time>2026-05-04T10:50:47.001Z</time></trkpt><trkpt lat="40.31523825938194" lon="9.534880191597095"><ele>151.0</ele><time>2026-05-04T10:50:48.001Z</time></trkpt><trkpt lat="40.31513728293359" lon="9.535008953416241"><ele>151.0</ele><time>2026-05-04T10:50:49Z</time></trkpt><trkpt lat="40.31502082255203" lon="9.535079647395971"><ele>151.0</ele><time>2026-05-04T10:50:50Z</time></trkpt><trkpt lat="40.31491589737114" lon="9.535058175860009"><ele>107.0</ele><time>2026-05-04T10:50:51Z</time></trkpt><trkpt lat="40.306613656254186" lon="9.539042982788207"><ele>107.0</ele><time>2026-05-04T10:51:52.001Z</time></trkpt><trkpt lat="40.30658625656854" lon="9.539194471469118"><ele>107.0</ele><time>2026-05-04T10:51:53.001Z</time></trkpt><trkpt lat="40.30655556566156" lon="9.539348239734828"><ele>107.0</ele><time>2026-05-04T10:51:54.001Z</time></trkpt><trkpt lat="40.30652407667009" lon="9.53950490713133"><ele>107.0</ele><time>2026-05-04T10:51:55.001Z</time></trkpt><trkpt lat="40.30649134952354" lon="9.539666814917686"><ele>106.0</ele><time>2026-05-04T10:51:56.001Z</time></trkpt><trkpt lat="40.3064602932815" lon="9.539840802468374"><ele>105.0</ele><time>2026-05-04T10:51:57.001Z</time></trkpt><trkpt lat="40.30643014063545" lon="9.540027428977355"><ele>104.0</ele><time>2026-05-04T10:51:58.001Z</time></trkpt><trkpt lat="40.306393618339676" lon="9.540227358462849"><ele>103.0</ele><time>2026-05-04T10:51:59.001Z</time></trkpt><trkpt lat="40.306353230330004" lon="9.540427952172779"><ele>108.66666666666667</ele><time>2026-05-04T10:52:00.001Z</time></trkpt><trkpt lat="40.306310222811206" lon="9.540624567872545"><ele>114.33333333333334</ele><time>2026-05-04T10:52:01.001Z</time></trkpt><trkpt lat="40.30627556514164" lon="9.540821666781993"><ele>120.0</ele><time>2026-05-04T10:52:02.001Z</time></trkpt><trkpt lat="40.30621834786622" lon="9.541030393407045"><ele>130.66666666666666</ele><time>2026-05-04T10:52:03.001Z</time></trkpt><trkpt lat="40.30615726021923" lon="9.54124743662816"><ele>141.33333333333331</ele><time>2026-05-04T10:52:04.001Z</time></trkpt><trkpt lat="40.30608841115415" lon="9.541433705812228"><ele>152.0</ele><time>2026-05-04T10:52:05.001Z</time></trkpt><trkpt lat="40.30599045150648" lon="9.541556420741026"><ele>152.0</ele><time>2026-05-04T10:52:06.001Z</time></trkpt><trkpt lat="40.305856957224165" lon="9.54161046343783"><ele>152.0</ele><time>2026-05-04T10:52:07.001Z</time></trkpt><trkpt lat="40.30571258842061" lon="9.541577132326173"><ele>152.0</ele><time>2026-05-04T10:52:08.001Z</time></trkpt><trkpt lat="40.30554361818182" lon="9.54149677288144"><ele>155.0</ele><time>2026-05-04T10:52:09.001Z</time></trkpt><trkpt lat="40.30536720964861" lon="9.541364109671116"><ele>158.0</ele><time>2026-05-04T10:52:10.001Z</time></trkpt><trkpt lat="40.30518731335464" lon="9.541213792631732"><ele>161.0</ele><time>2026-05-04T10:52:11.001Z</time></trkpt><trkpt lat="40.305005415590905" lon="9.541017207308338"><ele>158.0</ele><time>2026-05-04T10:52:12.001Z</time></trkpt><trkpt lat="40.30482158373096" lon="9.54083841775139"><ele>155.0</ele><time>2026-05-04T10:52:13.001Z</time></trkpt><trkpt lat="40.304663673626095" lon="9.540700961741148"><ele>152.0</ele><time>2026-05-04T10:52:14.001Z</time></trkpt><trkpt lat="40.30451711362394" lon="9.540601861162008"><ele>152.0</ele><time>2026-05-04T10:52:15.001Z</time></trkpt><trkpt lat="40.30435028874396" lon="9.540562464811432"><ele>152.0</ele><time>2026-05-04T10:52:16.001Z</time></trkpt><trkpt lat="40.30417513207966" lon="9.540600897978582"><ele>152.0</ele><time>2026-05-04T10:52:17.001Z</time></trkpt><trkpt lat="40.30400526676982" lon="9.540711177083672"><ele>143.5</ele><time>2026-05-04T10:52:18.001Z</time></trkpt><trkpt lat="40.30383461635565" lon="9.540886260755011"><ele>135.0</ele><time>2026-05-04T10:52:19.001Z</time></trkpt><trkpt lat="40.30368778191795" lon="9.541146066209954"><ele>145.5</ele><time>2026-05-04T10:52:20.001Z</time></trkpt><trkpt lat="40.303499063006676" lon="9.541403118231987"><ele>156.0</ele><time>2026-05-04T10:52:21.001Z</time></trkpt><trkpt lat="40.303307003707964" lon="9.541653722583069"><ele>156.0</ele><time>2026-05-04T10:52:22.001Z</time></trkpt><trkpt lat="40.303096587326934" lon="9.54191820499333"><ele>156.0</ele><time>2026-05-04T10:52:23.001Z</time></trkpt><trkpt lat="40.302910121554" lon="9.542151559701068"><ele>157.0</ele><time>2026-05-04T10:52:24.001Z</time></trkpt><trkpt lat="40.3027467543536" lon="9.542357373861009"><ele>158.0</ele><time>2026-05-04T10:52:25.001Z</time></trkpt><trkpt lat="40.302601082072904" lon="9.542559631458515"><ele>159.0</ele><time>2026-05-04T10:52:26.001Z</time></trkpt><trkpt lat="40.3024898925177" lon="9.54280012699564"><ele>165.0</ele><time>2026-05-04T10:52:27.001Z</time></trkpt><trkpt lat="40.30241235486187" lon="9.543098371620605"><ele>171.0</ele><time>2026-05-04T10:52:28.001Z</time></trkpt><trkpt lat="40.30238001316992" lon="9.543385069510945"><ele>171.0</ele><time>2026-05-04T10:52:29.001Z</time></trkpt><trkpt lat="40.3023802104093" lon="9.543686662054137"><ele>171.0</ele><time>2026-05-04T10:52:30.001Z</time></trkpt><trkpt lat="40.30243650061508" lon="9.54399244557722"><ele>172.0</ele><time>2026-05-04T10:52:31.001Z</time></trkpt><trkpt lat="40.30255128973955" lon="9.544250849657818"><ele>173.0</ele><time>2026-05-04T10:52:32.001Z</time></trkpt><trkpt lat="40.30269952626168" lon="9.544490462220262"><ele>173.0</ele><time>2026-05-04T10:52:33.001Z</time></trkpt><trkpt lat="40.30289309586689" lon="9.544737272988534"><ele>173.0</ele><time>2026-05-04T10:52:34.001Z</time></trkpt><trkpt lat="40.30308618989965" lon="9.54501305339379"><ele>174.5</ele><time>2026-05-04T10:52:35.001Z</time></trkpt><trkpt lat="40.30324707541908" lon="9.545268163763449"><ele>176.0</ele><time>2026-05-04T10:52:36.001Z</time></trkpt><trkpt lat="40.30339897048601" lon="9.545508356066973"><ele>177.0</ele><time>2026-05-04T10:52:37.001Z</time></trkpt><trkpt lat="40.303542715864026" lon="9.545742103093366"><ele>178.0</ele><time>2026-05-04T10:52:38.001Z</time></trkpt><trkpt lat="40.30369679106835" lon="9.545975546433835"><ele>178.0</ele><time>2026-05-04T10:52:39.001Z</time></trkpt><trkpt lat="40.30384120247041" lon="9.546200664970199"><ele>178.0</ele><time>2026-05-04T10:52:40.001Z</time></trkpt><trkpt lat="40.30397823188414" lon="9.54640378465123"><ele>178.0</ele><time>2026-05-04T10:52:41.001Z</time></trkpt><trkpt lat="40.30410478996847" lon="9.546599671078777"><ele>179.0</ele><time>2026-05-04T10:52:42.001Z</time></trkpt><trkpt lat="40.30423193080693" lon="9.54679667520788"><ele>180.0</ele><time>2026-05-04T10:52:43.001Z</time></trkpt><trkpt lat="40.30436482453935" lon="9.5469963976853"><ele>181.0</ele><time>2026-05-04T10:52:44.001Z</time></trkpt><trkpt lat="40.3045165511986" lon="9.547180233491012"><ele>183.0</ele><time>2026-05-04T10:52:45.001Z</time></trkpt><trkpt lat="40.30467799355982" lon="9.547338476357817"><ele>185.0</ele><time>2026-05-04T10:52:46.001Z</time></trkpt><trkpt lat="40.30482139276598" lon="9.547470132686996"><ele>187.0</ele><time>2026-05-04T10:52:47.001Z</time></trkpt><trkpt lat="40.304939654288496" lon="9.547609467463383"><ele>187.25</ele><time>2026-05-04T10:52:48.001Z</time></trkpt><trkpt lat="40.30502721363746" lon="9.547763265258414"><ele>187.5</ele><time>2026-05-04T10:52:49.001Z</time></trkpt><trkpt lat="40.30509593531227" lon="9.547934259248544"><ele>187.75</ele><time>2026-05-04T10:52:50.001Z</time></trkpt><trkpt lat="40.305156601543366" lon="9.548120328873487"><ele>188.0</ele><time>2026-05-04T10:52:51.001Z</time></trkpt><trkpt lat="40.30421636274832" lon="9.565097198372541"><ele>207.66666666666666</ele><time>2026-05-04T10:53:52Z</time></trkpt><trkpt lat="40.304221033167664" lon="9.565340855934487"><ele>227.33333333333331</ele><time>2026-05-04T10:53:53Z</time></trkpt><trkpt lat="40.30426505664278" lon="9.56559161238728"><ele>247.0</ele><time>2026-05-04T10:53:54Z</time></trkpt><trkpt lat="40.304320226124034" lon="9.565826680361374"><ele>248.33333333333331</ele><time>2026-05-04T10:53:55Z</time></trkpt><trkpt lat="40.304313194503976" lon="9.566059918892668"><ele>249.66666666666669</ele><time>2026-05-04T10:53:56Z</time></trkpt><trkpt lat="40.30425428157153" lon="9.566309128944765"><ele>251.0</ele><time>2026-05-04T10:53:57Z</time></trkpt><trkpt lat="40.30415951184621" lon="9.566578007083406"><ele>253.0</ele><time>2026-05-04T10:53:58Z</time></trkpt><trkpt lat="40.30405673893524" lon="9.566854789085058"><ele>255.0</ele><time>2026-05-04T10:53:59Z</time></trkpt><trkpt lat="40.30397485912656" lon="9.567135100244647"><ele>259.0</ele><time>2026-05-04T10:54:00Z</time></trkpt><trkpt lat="40.30389922738261" lon="9.56741836672174"><ele>263.0</ele><time>2026-05-04T10:54:01Z</time></trkpt><trkpt lat="40.30379636920594" lon="9.567736887409328"><ele>264.5</ele><time>2026-05-04T10:54:02Z</time></trkpt><trkpt lat="40.30369411482046" lon="9.568046701831516"><ele>266.0</ele><time>2026-05-04T10:54:03.001Z</time></trkpt><trkpt lat="40.3036100895057" lon="9.568366147350481"><ele>266.0</ele><time>2026-05-04T10:54:04.001Z</time></trkpt><trkpt lat="40.30351063204666" lon="9.56866714629158"><ele>266.0</ele><time>2026-05-04T10:54:05.001Z</time></trkpt><trkpt lat="40.30341771273701" lon="9.568958019861947"><ele>267.33333333333337</ele><time>2026-05-04T10:54:06.001Z</time></trkpt><trkpt lat="40.30333797020814" lon="9.569232105784804"><ele>268.6666666666667</ele><time>2026-05-04T10:54:07.001Z</time></trkpt><trkpt lat="40.30326146541219" lon="9.569485934514796"><ele>270.0</ele><time>2026-05-04T10:54:08.001Z</time></trkpt><trkpt lat="40.303193783067066" lon="9.569724380694304"><ele>270.3333333333333</ele><time>2026-05-04T10:54:09.001Z</time></trkpt><trkpt lat="40.303138523974404" lon="9.569932379429012"><ele>270.66666666666663</ele><time>2026-05-04T10:54:10.001Z</time></trkpt><trkpt lat="40.30312804361079" lon="9.570134028520679"><ele>271.0</ele><time>2026-05-04T10:54:11.001Z</time></trkpt><trkpt lat="40.30317683415352" lon="9.570347589382708"><ele>273.3333333333333</ele><time>2026-05-04T10:54:12.001Z</time></trkpt><trkpt lat="40.303276765846924" lon="9.57057502164137"><ele>275.6666666666667</ele><time>2026-05-04T10:54:13.001Z</time></trkpt><trkpt lat="40.30335263995617" lon="9.570777824768465"><ele>278.0</ele><time>2026-05-04T10:54:14.001Z</time></trkpt><trkpt lat="40.3033741425225" lon="9.570947591294834"><ele>278.0</ele><time>2026-05-04T10:54:15.001Z</time></trkpt><trkpt lat="40.303363809752284" lon="9.57109996305495"><ele>278.0</ele><time>2026-05-04T10:54:16.001Z</time></trkpt><trkpt lat="40.30333643257346" lon="9.571221611539494"><ele>278.0</ele><time>2026-05-04T10:54:17.001Z</time></trkpt><trkpt lat="40.303319146250246" lon="9.571330663820115"><ele>278.0</ele><time>2026-05-04T10:54:18.001Z</time></trkpt><trkpt lat="40.30330255839147" lon="9.571451961470089"><ele>278.0</ele><time>2026-05-04T10:54:19.001Z</time></trkpt><trkpt lat="40.30328365933685" lon="9.571583423702242"><ele>278.0</ele><time>2026-05-04T10:54:20.001Z</time></trkpt><trkpt lat="40.30326367010224" lon="9.571704778129833"><ele>278.0</ele><time>2026-05-04T10:54:21.001Z</time></trkpt><trkpt lat="40.30323904231878" lon="9.571806622693188"><ele>278.0</ele><time>2026-05-04T10:54:22.001Z</time></trkpt><trkpt lat="40.30321944074331" lon="9.57188754848447"><ele>278.0</ele><time>2026-05-04T10:54:23.001Z</time></trkpt><trkpt lat="40.30317636093982" lon="9.57201709501485"><ele>278.0</ele><time>2026-05-04T10:54:25.001Z</time></trkpt><trkpt lat="40.30312853491223" lon="9.572080064805792"><ele>278.0</ele><time>2026-05-04T10:54:27.001Z</time></trkpt><trkpt lat="40.30306084330466" lon="9.572108484630268"><ele>276.0</ele><time>2026-05-04T10:54:31.001Z</time></trkpt><trkpt lat="40.306959666627456" lon="9.571579639322858"><ele>276.0</ele><time>2026-05-04T10:55:52Z</time></trkpt><trkpt lat="40.30708062097734" lon="9.571794759479538"><ele>276.0</ele><time>2026-05-04T10:55:53Z</time></trkpt><trkpt lat="40.30721342773181" lon="9.572021861457698"><ele>276.0</ele><time>2026-05-04T10:55:54Z</time></trkpt><trkpt lat="40.30732937319149" lon="9.572269029057727"><ele>275.0</ele><time>2026-05-04T10:55:55Z</time></trkpt><trkpt lat="40.307458848552805" lon="9.572503007433424"><ele>274.0</ele><time>2026-05-04T10:55:56Z</time></trkpt><trkpt lat="40.307590035701224" lon="9.572744053019298"><ele>273.0</ele><time>2026-05-04T10:55:57Z</time></trkpt><trkpt lat="40.307714050917575" lon="9.572981642379416"><ele>273.0</ele><time>2026-05-04T10:55:58Z</time></trkpt><trkpt lat="40.30782404265998" lon="9.573195655000543"><ele>273.0</ele><time>2026-05-04T10:55:59Z</time></trkpt><trkpt lat="40.30793625497139" lon="9.573394424424059"><ele>273.0</ele><time>2026-05-04T10:56:00Z</time></trkpt><trkpt lat="40.30804674593285" lon="9.573551337034841"><ele>272.0</ele><time>2026-05-04T10:56:01Z</time></trkpt><trkpt lat="40.308178336610645" lon="9.573677707843007"><ele>271.0</ele><time>2026-05-04T10:56:02Z</time></trkpt><trkpt lat="40.308319315191" lon="9.573775386084634"><ele>270.0</ele><time>2026-05-04T10:56:03.001Z</time></trkpt><trkpt lat="40.30849288542637" lon="9.57382111963675"><ele>270.0</ele><time>2026-05-04T10:56:04.001Z</time></trkpt><trkpt lat="40.30868445622104" lon="9.573832456099401"><ele>270.0</ele><time>2026-05-04T10:56:05.001Z</time></trkpt><trkpt lat="40.308879854088794" lon="9.573842633233749"><ele>270.0</ele><time>2026-05-04T10:56:06.001Z</time></trkpt><trkpt lat="40.30907734960818" lon="9.573855495968678"><ele>269.0</ele><time>2026-05-04T10:56:07.001Z</time></trkpt><trkpt lat="40.30929100684354" lon="9.573879318924021"><ele>268.0</ele><time>2026-05-04T10:56:08.001Z</time></trkpt><trkpt lat="40.309524922583364" lon="9.57390274238861"><ele>267.0</ele><time>2026-05-04T10:56:09.001Z</time></trkpt><trkpt lat="40.30975869642799" lon="9.573935280248095"><ele>266.0</ele><time>2026-05-04T10:56:10.001Z</time></trkpt><trkpt lat="40.30999127014568" lon="9.573959219178386"><ele>265.0</ele><time>2026-05-04T10:56:11.001Z</time></trkpt><trkpt lat="40.310222509701525" lon="9.573986101021994"><ele>265.0</ele><time>2026-05-04T10:56:12.001Z</time></trkpt><trkpt lat="40.31045953947212" lon="9.574011745498218"><ele>265.0</ele><time>2026-05-04T10:56:13.001Z</time></trkpt><trkpt lat="40.31069299269315" lon="9.574032898184164"><ele>264.3333333333333</ele><time>2026-05-04T10:56:14.001Z</time></trkpt><trkpt lat="40.31091700673143" lon="9.574033700922028"><ele>263.6666666666667</ele><time>2026-05-04T10:56:15.001Z</time></trkpt><trkpt lat="40.311123035424814" lon="9.573977396989365"><ele>263.0</ele><time>2026-05-04T10:56:16.001Z</time></trkpt><trkpt lat="40.31132698895868" lon="9.57391144227413"><ele>263.0</ele><time>2026-05-04T10:56:17.001Z</time></trkpt><trkpt lat="40.311508598479314" lon="9.573880570155577"><ele>263.0</ele><time>2026-05-04T10:56:18.001Z</time></trkpt><trkpt lat="40.31169068869966" lon="9.573937374853001"><ele>263.0</ele><time>2026-05-04T10:56:19.001Z</time></trkpt><trkpt lat="40.311872945911446" lon="9.574024384121003"><ele>263.0</ele><time>2026-05-04T10:56:20.001Z</time></trkpt><trkpt lat="40.31203377995565" lon="9.57417279775421"><ele>263.0</ele><time>2026-05-04T10:56:21.001Z</time></trkpt><trkpt lat="40.312187875769105" lon="9.574349577569617"><ele>263.0</ele><time>2026-05-04T10:56:22.001Z</time></trkpt><trkpt lat="40.312308130953" lon="9.574573944645437"><ele>262.0</ele><time>2026-05-04T10:56:23.001Z</time></trkpt><trkpt lat="40.31239897387261" lon="9.574824144831576"><ele>261.0</ele><time>2026-05-04T10:56:24.001Z</time></trkpt><trkpt lat="40.31245082547076" lon="9.575082342126219"><ele>260.0</ele><time>2026-05-04T10:56:25.001Z</time></trkpt><trkpt lat="40.31248532435035" lon="9.575321488782288"><ele>260.0</ele><time>2026-05-04T10:56:26.001Z</time></trkpt><trkpt lat="40.31252305895466" lon="9.57554903892497"><ele>260.0</ele><time>2026-05-04T10:56:27.001Z</time></trkpt><trkpt lat="40.31257142157574" lon="9.575753268120689"><ele>260.0</ele><time>2026-05-04T10:56:28.001Z</time></trkpt><trkpt lat="40.31263697706547" lon="9.575943203908663"><ele>260.0</ele><time>2026-05-04T10:56:29.001Z</time></trkpt><trkpt lat="40.312749439964584" lon="9.576101757321473"><ele>260.0</ele><time>2026-05-04T10:56:30.001Z</time></trkpt><trkpt lat="40.312912915235756" lon="9.576227304538572"><ele>260.0</ele><time>2026-05-04T10:56:31.001Z</time></trkpt><trkpt lat="40.31311855312207" lon="9.576294425966744"><ele>258.33333333333337</ele><time>2026-05-04T10:56:32.001Z</time></trkpt><trkpt lat="40.31332814855166" lon="9.576384389768734"><ele>256.6666666666667</ele><time>2026-05-04T10:56:33.001Z</time></trkpt><trkpt lat="40.313541236600585" lon="9.576485161820752"><ele>255.0</ele><time>2026-05-04T10:56:34.001Z</time></trkpt><trkpt lat="40.31376256575081" lon="9.576619145043516"><ele>252.0</ele><time>2026-05-04T10:56:35.001Z</time></trkpt><trkpt lat="40.313973536755775" lon="9.576782808314645"><ele>249.0</ele><time>2026-05-04T10:56:36.001Z</time></trkpt><trkpt lat="40.3141739104543" lon="9.576959032337166"><ele>250.0</ele><time>2026-05-04T10:56:37.001Z</time></trkpt><trkpt lat="40.31437418999925" lon="9.577116157896002"><ele>251.0</ele><time>2026-05-04T10:56:38.001Z</time></trkpt><trkpt lat="40.314574644978606" lon="9.577276778168656"><ele>248.0</ele><time>2026-05-04T10:56:39.001Z</time></trkpt><trkpt lat="40.31476288975853" lon="9.577460549798758"><ele>245.0</ele><time>2026-05-04T10:56:40.001Z</time></trkpt><trkpt lat="40.31494085885565" lon="9.577678413305625"><ele>246.0</ele><time>2026-05-04T10:56:41.001Z</time></trkpt><trkpt lat="40.31507820105023" lon="9.577933188540175"><ele>247.0</ele><time>2026-05-04T10:56:42.001Z</time></trkpt><trkpt lat="40.3151834626014" lon="9.578190665520687"><ele>247.0</ele><time>2026-05-04T10:56:43.001Z</time></trkpt><trkpt lat="40.315261671908786" lon="9.578470587522375"><ele>247.0</ele><time>2026-05-04T10:56:44.001Z</time></trkpt><trkpt lat="40.31534407250393" lon="9.57875569575686"><ele>246.0</ele><time>2026-05-04T10:56:45.001Z</time></trkpt><trkpt lat="40.31541792018478" lon="9.579038477706655"><ele>245.0</ele><time>2026-05-04T10:56:46.001Z</time></trkpt><trkpt lat="40.31550122267938" lon="9.579318778332299"><ele>242.5</ele><time>2026-05-04T10:56:47.001Z</time></trkpt><trkpt lat="40.31562245668519" lon="9.579581758002531"><ele>240.0</ele><time>2026-05-04T10:56:48.001Z</time></trkpt><trkpt lat="40.315744907428076" lon="9.579845824400241"><ele>240.0</ele><time>2026-05-04T10:56:49.001Z</time></trkpt><trkpt lat="40.315864430115774" lon="9.580109908886206"><ele>240.0</ele><time>2026-05-04T10:56:50.001Z</time></trkpt><trkpt lat="40.315974043163045" lon="9.580361532707041"><ele>250.0</ele><time>2026-05-04T10:56:51.001Z</time></trkpt><trkpt lat="40.322383085310655" lon="9.592730165459715"><ele>250.0</ele><time>2026-05-04T10:57:52Z</time></trkpt><trkpt lat="40.3224936081663" lon="9.59301091961464"><ele>250.0</ele><time>2026-05-04T10:57:53Z</time></trkpt><trkpt lat="40.32260870124305" lon="9.593278292174281"><ele>250.0</ele><time>2026-05-04T10:57:54Z</time></trkpt><trkpt lat="40.32272839136487" lon="9.593527184298624"><ele>250.0</ele><time>2026-05-04T10:57:55Z</time></trkpt><trkpt lat="40.32287066794939" lon="9.593745032356482"><ele>250.0</ele><time>2026-05-04T10:57:56Z</time></trkpt><trkpt lat="40.32302386638052" lon="9.593929320527902"><ele>250.0</ele><time>2026-05-04T10:57:57Z</time></trkpt><trkpt lat="40.32320274240098" lon="9.594092209765869"><ele>250.0</ele><time>2026-05-04T10:57:58Z</time></trkpt><trkpt lat="40.32338327729324" lon="9.594223628320927"><ele>250.0</ele><time>2026-05-04T10:57:59Z</time></trkpt><trkpt lat="40.32357876001063" lon="9.594321192190945"><ele>250.0</ele><time>2026-05-04T10:58:00Z</time></trkpt><trkpt lat="40.32380043571106" lon="9.594413657830636"><ele>250.0</ele><time>2026-05-04T10:58:01Z</time></trkpt><trkpt lat="40.324033824067406" lon="9.5945138836008"><ele>247.5</ele><time>2026-05-04T10:58:02Z</time></trkpt><trkpt lat="40.32427422662654" lon="9.594629526175469"><ele>245.0</ele><time>2026-05-04T10:58:03Z</time></trkpt><trkpt lat="40.32450142255345" lon="9.594746990535622"><ele>245.0</ele><time>2026-05-04T10:58:04Z</time></trkpt><trkpt lat="40.324718543237346" lon="9.59486326165603"><ele>245.0</ele><time>2026-05-04T10:58:05Z</time></trkpt><trkpt lat="40.32493203274459" lon="9.594976734778587"><ele>245.5</ele><time>2026-05-04T10:58:06Z</time></trkpt><trkpt lat="40.3251518099465" lon="9.595094644881359"><ele>246.0</ele><time>2026-05-04T10:58:07Z</time></trkpt><trkpt lat="40.32537420027169" lon="9.59520766209623"><ele>245.5</ele><time>2026-05-04T10:58:08Z</time></trkpt><trkpt lat="40.32560732276868" lon="9.595326126984444"><ele>245.0</ele><time>2026-05-04T10:58:09.001Z</time></trkpt><trkpt lat="40.32583422813852" lon="9.595440000326523"><ele>244.5</ele><time>2026-05-04T10:58:10.001Z</time></trkpt><trkpt lat="40.32606633520569" lon="9.595554544181319"><ele>244.0</ele><time>2026-05-04T10:58:11.001Z</time></trkpt><trkpt lat="40.32629161783658" lon="9.595662296853423"><ele>242.0</ele><time>2026-05-04T10:58:12.001Z</time></trkpt><trkpt lat="40.326519952739936" lon="9.595778078824662"><ele>240.0</ele><time>2026-05-04T10:58:13.001Z</time></trkpt><trkpt lat="40.32675656946265" lon="9.595893921807242"><ele>240.0</ele><time>2026-05-04T10:58:14.001Z</time></trkpt><trkpt lat="40.3269866123943" lon="9.596010554308604"><ele>240.0</ele><time>2026-05-04T10:58:15.001Z</time></trkpt><trkpt lat="40.327214071647965" lon="9.596124712797407"><ele>237.5</ele><time>2026-05-04T10:58:16.001Z</time></trkpt><trkpt lat="40.32743798682722" lon="9.596239347707227"><ele>235.0</ele><time>2026-05-04T10:58:17.001Z</time></trkpt><trkpt lat="40.327660047840126" lon="9.596355059409786"><ele>235.0</ele><time>2026-05-04T10:58:18.001Z</time></trkpt><trkpt lat="40.3278990096964" lon="9.596469998523961"><ele>235.0</ele><time>2026-05-04T10:58:19.001Z</time></trkpt><trkpt lat="40.32812590817082" lon="9.596586232062192"><ele>234.0</ele><time>2026-05-04T10:58:20.001Z</time></trkpt><trkpt lat="40.32836041066158" lon="9.596702268906451"><ele>233.0</ele><time>2026-05-04T10:58:21.001Z</time></trkpt><trkpt lat="40.3285998013349" lon="9.596818514230563"><ele>233.0</ele><time>2026-05-04T10:58:22.001Z</time></trkpt><trkpt lat="40.32883908549412" lon="9.596940809737024"><ele>233.0</ele><time>2026-05-04T10:58:23.001Z</time></trkpt><trkpt lat="40.32908086324307" lon="9.597066178864564"><ele>230.5</ele><time>2026-05-04T10:58:24.001Z</time></trkpt><trkpt lat="40.329340442287034" lon="9.597184217984982"><ele>228.0</ele><time>2026-05-04T10:58:25.001Z</time></trkpt><trkpt lat="40.329575392429234" lon="9.597303273554779"><ele>225.5</ele><time>2026-05-04T10:58:26.001Z</time></trkpt><trkpt lat="40.32981270665516" lon="9.59742409128877"><ele>223.0</ele><time>2026-05-04T10:58:27.001Z</time></trkpt><trkpt lat="40.33005255895148" lon="9.597547898929932"><ele>223.0</ele><time>2026-05-04T10:58:28.001Z</time></trkpt><trkpt lat="40.33029837010551" lon="9.597668342661988"><ele>223.0</ele><time>2026-05-04T10:58:29.001Z</time></trkpt><trkpt lat="40.33054878031433" lon="9.597788526171412"><ele>221.5</ele><time>2026-05-04T10:58:30.001Z</time></trkpt><trkpt lat="40.33079632591504" lon="9.597914920602024"><ele>220.0</ele><time>2026-05-04T10:58:31.001Z</time></trkpt><trkpt lat="40.33104198014218" lon="9.598032700595638"><ele>220.0</ele><time>2026-05-04T10:58:32.001Z</time></trkpt><trkpt lat="40.331296970676426" lon="9.598128572080636"><ele>220.0</ele><time>2026-05-04T10:58:33.001Z</time></trkpt><trkpt lat="40.33155513546247" lon="9.598192858869588"><ele>218.5</ele><time>2026-05-04T10:58:34.001Z</time></trkpt><trkpt lat="40.33181713449937" lon="9.598217785640196"><ele>217.0</ele><time>2026-05-04T10:58:35.001Z</time></trkpt><trkpt lat="40.33207699162016" lon="9.598244063216567"><ele>216.0</ele><time>2026-05-04T10:58:36.001Z</time></trkpt><trkpt lat="40.33232641439267" lon="9.598278704711968"><ele>215.0</ele><time>2026-05-04T10:58:37.001Z</time></trkpt><trkpt lat="40.332569953793815" lon="9.598316019889209"><ele>215.0</ele><time>2026-05-04T10:58:38.001Z</time></trkpt><trkpt lat="40.3328035532083" lon="9.598398211756864"><ele>215.0</ele><time>2026-05-04T10:58:39.001Z</time></trkpt><trkpt lat="40.33301382379099" lon="9.598529750984127"><ele>215.5</ele><time>2026-05-04T10:58:40.001Z</time></trkpt><trkpt lat="40.33321157102886" lon="9.598718337129675"><ele>216.0</ele><time>2026-05-04T10:58:41.001Z</time></trkpt><trkpt lat="40.33340765100166" lon="9.59892343217288"><ele>216.0</ele><time>2026-05-04T10:58:42.001Z</time></trkpt><trkpt lat="40.33361486197767" lon="9.599122152426254"><ele>216.0</ele><time>2026-05-04T10:58:43.001Z</time></trkpt><trkpt lat="40.33383255669495" lon="9.599306967386841"><ele>218.5</ele><time>2026-05-04T10:58:44.001Z</time></trkpt><trkpt lat="40.33404249756598" lon="9.599489525435757"><ele>221.0</ele><time>2026-05-04T10:58:45.001Z</time></trkpt><trkpt lat="40.33424296409443" lon="9.599671888241323"><ele>221.0</ele><time>2026-05-04T10:58:46.001Z</time></trkpt><trkpt lat="40.334437554356846" lon="9.599836282576016"><ele>221.0</ele><time>2026-05-04T10:58:47.001Z</time></trkpt><trkpt lat="40.334624439901475" lon="9.599996487250918"><ele>222.66666666666669</ele><time>2026-05-04T10:58:48.001Z</time></trkpt><trkpt lat="40.33479983818949" lon="9.600147486689744"><ele>224.33333333333331</ele><time>2026-05-04T10:58:49.001Z</time></trkpt><trkpt lat="40.334970234266265" lon="9.60030125719634"><ele>226.0</ele><time>2026-05-04T10:58:50.001Z</time></trkpt><trkpt lat="40.335142442051804" lon="9.600453781651296"><ele>259.0</ele><time>2026-05-04T10:58:51.001Z</time></trkpt><trkpt lat="40.33807855860291" lon="9.616516996804606"><ele>253.0</ele><time>2026-05-04T10:59:52Z</time></trkpt><trkpt lat="40.33801651370408" lon="9.616836136103966"><ele>247.0</ele><time>2026-05-04T10:59:53Z</time></trkpt><trkpt lat="40.337954634503504" lon="9.617152162534888"><ele>247.0</ele><time>2026-05-04T10:59:54Z</time></trkpt><trkpt lat="40.33789299072929" lon="9.617455902719074"><ele>247.0</ele><time>2026-05-04T10:59:55Z</time></trkpt><trkpt lat="40.33783192507122" lon="9.61774903878724"><ele>248.5</ele><time>2026-05-04T10:59:56Z</time></trkpt><trkpt lat="40.33777231804381" lon="9.618046220183146"><ele>250.0</ele><time>2026-05-04T10:59:57Z</time></trkpt><trkpt lat="40.337712575156104" lon="9.618348558265938"><ele>250.0</ele><time>2026-05-04T10:59:58Z</time></trkpt><trkpt lat="40.33764845342073" lon="9.61864499387213"><ele>250.0</ele><time>2026-05-04T10:59:59Z</time></trkpt><trkpt lat="40.337591235922055" lon="9.618930096627398"><ele>250.66666666666666</ele><time>2026-05-04T11:00:00Z</time></trkpt><trkpt lat="40.337539500644354" lon="9.61920724155561"><ele>251.33333333333331</ele><time>2026-05-04T11:00:01Z</time></trkpt><trkpt lat="40.337504327277" lon="9.619482250435414"><ele>252.0</ele><time>2026-05-04T11:00:02Z</time></trkpt><trkpt lat="40.3375048939913" lon="9.619762154461789"><ele>252.0</ele><time>2026-05-04T11:00:03Z</time></trkpt><trkpt lat="40.337550486083906" lon="9.620058512707462"><ele>252.0</ele><time>2026-05-04T11:00:04Z</time></trkpt><trkpt lat="40.33762528280941" lon="9.62036099853657"><ele>252.0</ele><time>2026-05-04T11:00:05Z</time></trkpt><trkpt lat="40.337696433980604" lon="9.62066157880965"><ele>252.0</ele><time>2026-05-04T11:00:06Z</time></trkpt><trkpt lat="40.337755889592735" lon="9.620968794280955"><ele>251.0</ele><time>2026-05-04T11:00:07Z</time></trkpt><trkpt lat="40.337811970988575" lon="9.621255153180538"><ele>250.0</ele><time>2026-05-04T11:00:08Z</time></trkpt><trkpt lat="40.337866915804184" lon="9.621529945996159"><ele>249.0</ele><time>2026-05-04T11:00:09Z</time></trkpt><trkpt lat="40.33791749336236" lon="9.621785771516539"><ele>249.66666666666669</ele><time>2026-05-04T11:00:10Z</time></trkpt><trkpt lat="40.33797465381505" lon="9.622009483438413"><ele>250.33333333333334</ele><time>2026-05-04T11:00:11Z</time></trkpt><trkpt lat="40.33806045267562" lon="9.622168356034926"><ele>251.0</ele><time>2026-05-04T11:00:12Z</time></trkpt><trkpt lat="40.338196435079375" lon="9.622257351000528"><ele>251.0</ele><time>2026-05-04T11:00:13Z</time></trkpt><trkpt lat="40.33834233160427" lon="9.62229398900835"><ele>251.00000000000003</ele><time>2026-05-04T11:00:14Z</time></trkpt><trkpt lat="40.33845726580354" lon="9.622302641431306"><ele>251.00000000000003</ele><time>2026-05-04T11:00:15Z</time></trkpt><trkpt lat="40.33854428468897" lon="9.622330022641734"><ele>251.0</ele><time>2026-05-04T11:00:16Z</time></trkpt><trkpt lat="40.33861241882423" lon="9.622374549523053"><ele>251.0</ele><time>2026-05-04T11:00:17Z</time></trkpt><trkpt lat="40.3386815663701" lon="9.622506145683557"><ele>251.00000000000003</ele><time>2026-05-04T11:00:19Z</time></trkpt><trkpt lat="40.338698526431955" lon="9.6225924467321"><ele>251.0</ele><time>2026-05-04T11:00:20Z</time></trkpt><trkpt lat="40.33872853270991" lon="9.622702466833848"><ele>251.0</ele><time>2026-05-04T11:00:21Z</time></trkpt><trkpt lat="40.3387219981426" lon="9.622805388019238"><ele>251.0</ele><time>2026-05-04T11:00:23Z</time></trkpt><trkpt lat="40.33872136039194" lon="9.622901795699086"><ele>251.00000000000003</ele><time>2026-05-04T11:00:25Z</time></trkpt><trkpt lat="40.33871179531092" lon="9.622996168868974"><ele>251.0</ele><time>2026-05-04T11:00:28Z</time></trkpt><trkpt lat="40.338702269708804" lon="9.623093147607054"><ele>249.5</ele><time>2026-05-04T11:00:32Z</time></trkpt><trkpt lat="40.3387209949852" lon="9.623205234196286"><ele>248.0</ele><time>2026-05-04T11:01:15.001Z</time></trkpt><trkpt lat="40.33874618703108" lon="9.62337904600402"><ele>246.5</ele><time>2026-05-04T11:01:17.001Z</time></trkpt><trkpt lat="40.33874568456272" lon="9.623517878870983"><ele>245.0</ele><time>2026-05-04T11:01:18.001Z</time></trkpt><trkpt lat="40.33877755341638" lon="9.62370287622366"><ele>244.33333333333334</ele><time>2026-05-04T11:01:19Z</time></trkpt><trkpt lat="40.33884290289181" lon="9.623877998777294"><ele>243.66666666666669</ele><time>2026-05-04T11:01:20Z</time></trkpt><trkpt lat="40.3389432557042" lon="9.624090751395416"><ele>243.0</ele><time>2026-05-04T11:01:21Z</time></trkpt><trkpt lat="40.33903145358532" lon="9.624288177986193"><ele>245.33333333333331</ele><time>2026-05-04T11:01:22Z</time></trkpt><trkpt lat="40.33912252135267" lon="9.624506365625132"><ele>247.66666666666666</ele><time>2026-05-04T11:01:23Z</time></trkpt><trkpt lat="40.33922368449388" lon="9.624731894106574"><ele>250.0</ele><time>2026-05-04T11:01:24Z</time></trkpt><trkpt lat="40.33933807190258" lon="9.624957378220019"><ele>250.0</ele><time>2026-05-04T11:01:25Z</time></trkpt><trkpt lat="40.33946352680211" lon="9.625183636336406"><ele>250.0</ele><time>2026-05-04T11:01:26Z</time></trkpt><trkpt lat="40.33958725289219" lon="9.625404821701862"><ele>250.0</ele><time>2026-05-04T11:01:27Z</time></trkpt><trkpt lat="40.33971788922283" lon="9.625620623453838"><ele>250.66666666666666</ele><time>2026-05-04T11:01:28Z</time></trkpt><trkpt lat="40.33984665366527" lon="9.625815464158297"><ele>251.33333333333331</ele><time>2026-05-04T11:01:29Z</time></trkpt><trkpt lat="40.339982799039696" lon="9.6259953778378"><ele>252.0</ele><time>2026-05-04T11:01:30Z</time></trkpt><trkpt lat="40.34012119831087" lon="9.626135713894307"><ele>249.0</ele><time>2026-05-04T11:01:31Z</time></trkpt><trkpt lat="40.34026842191479" lon="9.626239978614814"><ele>246.0</ele><time>2026-05-04T11:01:32Z</time></trkpt><trkpt lat="40.3404209689316" lon="9.626308816598346"><ele>243.0</ele><time>2026-05-04T11:01:33Z</time></trkpt><trkpt lat="40.34054872184051" lon="9.626406887036755"><ele>243.75</ele><time>2026-05-04T11:01:34Z</time></trkpt><trkpt lat="40.34067531774149" lon="9.626542154852073"><ele>244.5</ele><time>2026-05-04T11:01:35Z</time></trkpt><trkpt lat="40.34075080483175" lon="9.626700380241406"><ele>245.25</ele><time>2026-05-04T11:01:36Z</time></trkpt><trkpt lat="40.34076988615467" lon="9.626880292817965"><ele>246.0</ele><time>2026-05-04T11:01:37Z</time></trkpt><trkpt lat="40.340754156500914" lon="9.627080476631933"><ele>246.0</ele><time>2026-05-04T11:01:38Z</time></trkpt><trkpt lat="40.340743969334326" lon="9.627303168709457"><ele>246.0</ele><time>2026-05-04T11:01:39Z</time></trkpt><trkpt lat="40.34073820180215" lon="9.627511147599618"><ele>246.0</ele><time>2026-05-04T11:01:40Z</time></trkpt><trkpt lat="40.34077663576935" lon="9.627726925497582"><ele>244.33333333333331</ele><time>2026-05-04T11:01:41Z</time></trkpt><trkpt lat="40.34089349309461" lon="9.62791757717436"><ele>242.66666666666666</ele><time>2026-05-04T11:01:42Z</time></trkpt><trkpt lat="40.34100800173371" lon="9.628109278025775"><ele>241.0</ele><time>2026-05-04T11:01:43Z</time></trkpt><trkpt lat="40.341135509541246" lon="9.628327701317227"><ele>241.0</ele><time>2026-05-04T11:01:44Z</time></trkpt><trkpt lat="40.34122859345213" lon="9.628555602211756"><ele>241.0</ele><time>2026-05-04T11:01:45Z</time></trkpt><trkpt lat="40.34128845456459" lon="9.628791475543526"><ele>241.0</ele><time>2026-05-04T11:01:46Z</time></trkpt><trkpt lat="40.34132833068793" lon="9.629048040341125"><ele>242.0</ele><time>2026-05-04T11:01:47Z</time></trkpt><trkpt lat="40.34138341060405" lon="9.62933265188585"><ele>243.0</ele><time>2026-05-04T11:01:48Z</time></trkpt><trkpt lat="40.341443511341645" lon="9.629652482861829"><ele>243.0</ele><time>2026-05-04T11:01:49Z</time></trkpt><trkpt lat="40.34149441257832" lon="9.629927648768783"><ele>243.0</ele><time>2026-05-04T11:01:50Z</time></trkpt><trkpt lat="40.34154175924955" lon="9.630146829804147"><ele>243.0</ele><time>2026-05-04T11:01:51Z</time></trkpt><trkpt lat="40.35198106911193" lon="9.633900561219004"><ele>235.0</ele><time>2026-05-04T11:02:52.001Z</time></trkpt><trkpt lat="40.35211824069621" lon="9.634025580557582"><ele>227.0</ele><time>2026-05-04T11:02:53.001Z</time></trkpt><trkpt lat="40.35227877815017" lon="9.634096580677458"><ele>219.0</ele><time>2026-05-04T11:02:54.001Z</time></trkpt><trkpt lat="40.35248877434523" lon="9.634129414577"><ele>219.0</ele><time>2026-05-04T11:02:55.001Z</time></trkpt><trkpt lat="40.35271970910936" lon="9.634135882986818"><ele>219.0</ele><time>2026-05-04T11:02:56.001Z</time></trkpt><trkpt lat="40.35292161999214" lon="9.634141446559756"><ele>219.0</ele><time>2026-05-04T11:02:57.001Z</time></trkpt><trkpt lat="40.353097592590366" lon="9.634167425567542"><ele>218.33333333333331</ele><time>2026-05-04T11:02:58.001Z</time></trkpt><trkpt lat="40.3532199066317" lon="9.634257891095627"><ele>217.66666666666666</ele><time>2026-05-04T11:02:59.001Z</time></trkpt><trkpt lat="40.35330974945756" lon="9.634399507300207"><ele>217.0</ele><time>2026-05-04T11:03:00.001Z</time></trkpt><trkpt lat="40.353377670821374" lon="9.634611273845673"><ele>215.5</ele><time>2026-05-04T11:03:01.001Z</time></trkpt><trkpt lat="40.35346517471934" lon="9.634894716554046"><ele>214.0</ele><time>2026-05-04T11:03:02.001Z</time></trkpt><trkpt lat="40.35355647684558" lon="9.63521261929547"><ele>212.5</ele><time>2026-05-04T11:03:03.001Z</time></trkpt><trkpt lat="40.35367324545188" lon="9.635559201174322"><ele>211.0</ele><time>2026-05-04T11:03:04.001Z</time></trkpt><trkpt lat="40.353796332698145" lon="9.635913945517949"><ele>209.0</ele><time>2026-05-04T11:03:05.001Z</time></trkpt><trkpt lat="40.35390514425411" lon="9.636273219058724"><ele>207.0</ele><time>2026-05-04T11:03:06.001Z</time></trkpt><trkpt lat="40.35400512072247" lon="9.63661100716069"><ele>207.0</ele><time>2026-05-04T11:03:07.001Z</time></trkpt><trkpt lat="40.35409933641207" lon="9.636921190899274"><ele>207.0</ele><time>2026-05-04T11:03:08.001Z</time></trkpt><trkpt lat="40.35418542685954" lon="9.6372135407703"><ele>207.0</ele><time>2026-05-04T11:03:09.002Z</time></trkpt><trkpt lat="40.354268417137654" lon="9.637484742611523"><ele>207.0</ele><time>2026-05-04T11:03:10.002Z</time></trkpt><trkpt lat="40.354352075379886" lon="9.63775934645031"><ele>207.0</ele><time>2026-05-04T11:03:11.002Z</time></trkpt><trkpt lat="40.35443133389466" lon="9.638018795520868"><ele>207.0</ele><time>2026-05-04T11:03:12.002Z</time></trkpt><trkpt lat="40.354489998087644" lon="9.638278677923243"><ele>207.0</ele><time>2026-05-04T11:03:13.002Z</time></trkpt><trkpt lat="40.35449271325855" lon="9.638544613333078"><ele>207.0</ele><time>2026-05-04T11:03:14.002Z</time></trkpt><trkpt lat="40.354459616088036" lon="9.638793293186803"><ele>207.33333333333331</ele><time>2026-05-04T11:03:15.002Z</time></trkpt><trkpt lat="40.35439223155859" lon="9.639024155612958"><ele>207.66666666666666</ele><time>2026-05-04T11:03:16.002Z</time></trkpt><trkpt lat="40.35428349611969" lon="9.63923626451782"><ele>208.0</ele><time>2026-05-04T11:03:17.002Z</time></trkpt><trkpt lat="40.35413938130265" lon="9.639433420260747"><ele>209.0</ele><time>2026-05-04T11:03:18.002Z</time></trkpt><trkpt lat="40.35396320457242" lon="9.639569860872323"><ele>210.0</ele><time>2026-05-04T11:03:19.002Z</time></trkpt><trkpt lat="40.35376084552101" lon="9.639643786127403"><ele>211.0</ele><time>2026-05-04T11:03:20.002Z</time></trkpt><trkpt lat="40.35355404364122" lon="9.639635336943693"><ele>211.0</ele><time>2026-05-04T11:03:21.002Z</time></trkpt><trkpt lat="40.35336278047271" lon="9.639631169993006"><ele>211.0</ele><time>2026-05-04T11:03:22.002Z</time></trkpt><trkpt lat="40.35321673603731" lon="9.639649665261434"><ele>211.0</ele><time>2026-05-04T11:03:23.002Z</time></trkpt><trkpt lat="40.353079829584836" lon="9.639674556745353"><ele>207.66666666666666</ele><time>2026-05-04T11:03:24.002Z</time></trkpt><trkpt lat="40.35294184189481" lon="9.639731234908428"><ele>204.33333333333331</ele><time>2026-05-04T11:03:25.001Z</time></trkpt><trkpt lat="40.35280223940595" lon="9.639821161854407"><ele>201.0</ele><time>2026-05-04T11:03:26.001Z</time></trkpt><trkpt lat="40.352641239323184" lon="9.639964706642449"><ele>201.0</ele><time>2026-05-04T11:03:27.001Z</time></trkpt><trkpt lat="40.35240801281788" lon="9.640129291051869"><ele>201.0</ele><time>2026-05-04T11:03:28.001Z</time></trkpt><trkpt lat="40.352151725923335" lon="9.6403308762824"><ele>202.5</ele><time>2026-05-04T11:03:29.001Z</time></trkpt><trkpt lat="40.35189883287483" lon="9.640530398556436"><ele>204.0</ele><time>2026-05-04T11:03:30.001Z</time></trkpt><trkpt lat="40.35169242309401" lon="9.640693332145164"><ele>204.0</ele><time>2026-05-04T11:03:31.001Z</time></trkpt><trkpt lat="40.35149953554366" lon="9.640844459037647"><ele>204.0</ele><time>2026-05-04T11:03:32Z</time></trkpt><trkpt lat="40.3513250510271" lon="9.641009369464609"><ele>204.0</ele><time>2026-05-04T11:03:33Z</time></trkpt><trkpt lat="40.35116343392951" lon="9.641149288952255"><ele>202.5</ele><time>2026-05-04T11:03:34Z</time></trkpt><trkpt lat="40.35105872553508" lon="9.64129124035203"><ele>201.0</ele><time>2026-05-04T11:03:35Z</time></trkpt><trkpt lat="40.35100932956048" lon="9.641451518749573"><ele>199.5</ele><time>2026-05-04T11:03:36Z</time></trkpt><trkpt lat="40.351007493416" lon="9.641646609772813"><ele>198.0</ele><time>2026-05-04T11:03:37Z</time></trkpt><trkpt lat="40.35105553200824" lon="9.641870567730487"><ele>197.0</ele><time>2026-05-04T11:03:38Z</time></trkpt><trkpt lat="40.351118804328514" lon="9.642097343992026"><ele>196.0</ele><time>2026-05-04T11:03:39Z</time></trkpt><trkpt lat="40.35118509849508" lon="9.642329712795611"><ele>195.0</ele><time>2026-05-04T11:03:40Z</time></trkpt><trkpt lat="40.35125098177818" lon="9.6425820387702"><ele>194.33333333333331</ele><time>2026-05-04T11:03:41Z</time></trkpt><trkpt lat="40.35131958467579" lon="9.64284926971739"><ele>193.66666666666666</ele><time>2026-05-04T11:03:42Z</time></trkpt><trkpt lat="40.351388367982864" lon="9.643137205700125"><ele>193.0</ele><time>2026-05-04T11:03:43Z</time></trkpt><trkpt lat="40.351461630156344" lon="9.643427862361872"><ele>193.33333333333331</ele><time>2026-05-04T11:03:44Z</time></trkpt><trkpt lat="40.351528763374134" lon="9.6436977532617"><ele>193.66666666666669</ele><time>2026-05-04T11:03:45Z</time></trkpt><trkpt lat="40.35158473832897" lon="9.643940699338943"><ele>194.0</ele><time>2026-05-04T11:03:46Z</time></trkpt><trkpt lat="40.35160485455018" lon="9.644138028449927"><ele>194.0</ele><time>2026-05-04T11:03:47Z</time></trkpt><trkpt lat="40.35152988942049" lon="9.644288801626379"><ele>194.0</ele><time>2026-05-04T11:03:48Z</time></trkpt><trkpt lat="40.351403414262144" lon="9.644419150753757"><ele>194.0</ele><time>2026-05-04T11:03:49Z</time></trkpt><trkpt lat="40.35124323917015" lon="9.644575991555387"><ele>192.0</ele><time>2026-05-04T11:03:50Z</time></trkpt><trkpt lat="40.35103235110373" lon="9.644774033382538"><ele>190.0</ele><time>2026-05-04T11:03:51Z</time></trkpt><trkpt lat="40.35128806151176" lon="9.656629318461455"><ele>177.5</ele><time>2026-05-04T11:04:52.001Z</time></trkpt><trkpt lat="40.35143062448845" lon="9.656595490707248"><ele>165.0</ele><time>2026-05-04T11:04:53.001Z</time></trkpt><trkpt lat="40.35154896930531" lon="9.656657805473412"><ele>152.5</ele><time>2026-05-04T11:04:54.001Z</time></trkpt><trkpt lat="40.351635064709" lon="9.656771635352152"><ele>140.0</ele><time>2026-05-04T11:04:55.001Z</time></trkpt><trkpt lat="40.3517065246046" lon="9.656931251104503"><ele>138.33333333333331</ele><time>2026-05-04T11:04:56.001Z</time></trkpt><trkpt lat="40.35180405351688" lon="9.657173680520884"><ele>136.66666666666666</ele><time>2026-05-04T11:04:57.001Z</time></trkpt><trkpt lat="40.35189453543397" lon="9.657437711226594"><ele>135.0</ele><time>2026-05-04T11:04:58.001Z</time></trkpt><trkpt lat="40.35200139721248" lon="9.657692160422256"><ele>135.0</ele><time>2026-05-04T11:04:59.001Z</time></trkpt><trkpt lat="40.35209807297511" lon="9.65792302062936"><ele>135.0</ele><time>2026-05-04T11:05:00.001Z</time></trkpt><trkpt lat="40.35218438344765" lon="9.658138286009681"><ele>135.0</ele><time>2026-05-04T11:05:01.001Z</time></trkpt><trkpt lat="40.352272855125065" lon="9.658349406815034"><ele>135.0</ele><time>2026-05-04T11:05:02.001Z</time></trkpt><trkpt lat="40.352390470413184" lon="9.658554715754011"><ele>135.0</ele><time>2026-05-04T11:05:03.001Z</time></trkpt><trkpt lat="40.35256945615021" lon="9.658716595757582"><ele>135.0</ele><time>2026-05-04T11:05:04.001Z</time></trkpt><trkpt lat="40.3527846559516" lon="9.658846539222434"><ele>134.0</ele><time>2026-05-04T11:05:05.001Z</time></trkpt><trkpt lat="40.35302004029257" lon="9.65899773528739"><ele>133.0</ele><time>2026-05-04T11:05:06.001Z</time></trkpt><trkpt lat="40.35327108721085" lon="9.659162126209168"><ele>133.0</ele><time>2026-05-04T11:05:07.001Z</time></trkpt><trkpt lat="40.3535204772632" lon="9.659340099186572"><ele>133.0</ele><time>2026-05-04T11:05:08.001Z</time></trkpt><trkpt lat="40.353771427147144" lon="9.659521447379605"><ele>131.0</ele><time>2026-05-04T11:05:09.002Z</time></trkpt><trkpt lat="40.35401903192017" lon="9.659691537581645"><ele>129.0</ele><time>2026-05-04T11:05:10.002Z</time></trkpt><trkpt lat="40.354261501237104" lon="9.65985546338967"><ele>129.0</ele><time>2026-05-04T11:05:11.002Z</time></trkpt><trkpt lat="40.35449251942741" lon="9.660024679805193"><ele>129.0</ele><time>2026-05-04T11:05:12.002Z</time></trkpt><trkpt lat="40.35470952816759" lon="9.660182331074997"><ele>127.0</ele><time>2026-05-04T11:05:13.002Z</time></trkpt><trkpt lat="40.35490927297013" lon="9.660316156322875"><ele>125.0</ele><time>2026-05-04T11:05:14.002Z</time></trkpt><trkpt lat="40.35510223131342" lon="9.660392658983211"><ele>123.0</ele><time>2026-05-04T11:05:15.002Z</time></trkpt><trkpt lat="40.35529344027558" lon="9.660373909081617"><ele>124.0</ele><time>2026-05-04T11:05:16.002Z</time></trkpt><trkpt lat="40.35546452213033" lon="9.660255604486393"><ele>125.0</ele><time>2026-05-04T11:05:17.002Z</time></trkpt><trkpt lat="40.3556452041942" lon="9.66007218722185"><ele>126.0</ele><time>2026-05-04T11:05:18.002Z</time></trkpt><trkpt lat="40.35580077363547" lon="9.659871860576576"><ele>126.0</ele><time>2026-05-04T11:05:19.002Z</time></trkpt><trkpt lat="40.35590726649895" lon="9.659668505851169"><ele>126.0</ele><time>2026-05-04T11:05:20.002Z</time></trkpt><trkpt lat="40.35594871674504" lon="9.659448185587776"><ele>126.0</ele><time>2026-05-04T11:05:21.002Z</time></trkpt><trkpt lat="40.3559524978167" lon="9.659199478542384"><ele>126.66666666666666</ele><time>2026-05-04T11:05:22.002Z</time></trkpt><trkpt lat="40.35592445186225" lon="9.65893352954195"><ele>127.33333333333333</ele><time>2026-05-04T11:05:23.002Z</time></trkpt><trkpt lat="40.35593406012088" lon="9.658673903912117"><ele>128.0</ele><time>2026-05-04T11:05:24.002Z</time></trkpt><trkpt lat="40.35593771660583" lon="9.658459093926922"><ele>128.5</ele><time>2026-05-04T11:05:25.002Z</time></trkpt><trkpt lat="40.35595889897003" lon="9.658292405145053"><ele>129.0</ele><time>2026-05-04T11:05:26.002Z</time></trkpt><trkpt lat="40.35602686264334" lon="9.65818221758237"><ele>129.5</ele><time>2026-05-04T11:05:27.002Z</time></trkpt><trkpt lat="40.356122209783265" lon="9.658092090714987"><ele>130.0</ele><time>2026-05-04T11:05:28.002Z</time></trkpt><trkpt lat="40.35625648171559" lon="9.658046310499424"><ele>126.33333333333334</ele><time>2026-05-04T11:05:29.002Z</time></trkpt><trkpt lat="40.356390771009856" lon="9.657975734796885"><ele>122.66666666666666</ele><time>2026-05-04T11:05:30.002Z</time></trkpt><trkpt lat="40.35653595663115" lon="9.657907947468955"><ele>119.0</ele><time>2026-05-04T11:05:31.001Z</time></trkpt><trkpt lat="40.356654780659966" lon="9.657785781949427"><ele>120.5</ele><time>2026-05-04T11:05:32.001Z</time></trkpt><trkpt lat="40.35671357836107" lon="9.657619119542439"><ele>122.0</ele><time>2026-05-04T11:05:33.001Z</time></trkpt><trkpt lat="40.35671909770112" lon="9.657430834305531"><ele>123.5</ele><time>2026-05-04T11:05:34.001Z</time></trkpt><trkpt lat="40.35667072039269" lon="9.657242540241015"><ele>125.0</ele><time>2026-05-04T11:05:35.001Z</time></trkpt><trkpt lat="40.356595642763885" lon="9.657063983075107"><ele>126.6</ele><time>2026-05-04T11:05:36.001Z</time></trkpt><trkpt lat="40.356550182931315" lon="9.656908232650036"><ele>128.2</ele><time>2026-05-04T11:05:37.001Z</time></trkpt><trkpt lat="40.35653751978035" lon="9.656787970452925"><ele>129.8</ele><time>2026-05-04T11:05:38.001Z</time></trkpt><trkpt lat="40.35659891976195" lon="9.656716731104364"><ele>131.4</ele><time>2026-05-04T11:05:39.001Z</time></trkpt><trkpt lat="40.35669420521434" lon="9.656696867510046"><ele>133.0</ele><time>2026-05-04T11:05:40.001Z</time></trkpt><trkpt lat="40.35682800412337" lon="9.656676063661305"><ele>133.0</ele><time>2026-05-04T11:05:41.001Z</time></trkpt><trkpt lat="40.356957711439456" lon="9.656663217533458"><ele>133.0</ele><time>2026-05-04T11:05:42.001Z</time></trkpt><trkpt lat="40.357079118651185" lon="9.656713208432317"><ele>133.0</ele><time>2026-05-04T11:05:43.001Z</time></trkpt><trkpt lat="40.35716270460947" lon="9.656865202381827"><ele>133.0</ele><time>2026-05-04T11:05:44.001Z</time></trkpt><trkpt lat="40.357301377039484" lon="9.657037142530097"><ele>131.66666666666669</ele><time>2026-05-04T11:05:45.001Z</time></trkpt><trkpt lat="40.357419788671734" lon="9.657245397300413"><ele>130.33333333333334</ele><time>2026-05-04T11:05:46.001Z</time></trkpt><trkpt lat="40.357488565081674" lon="9.6574677382228"><ele>129.0</ele><time>2026-05-04T11:05:47.001Z</time></trkpt><trkpt lat="40.35755571546992" lon="9.657661064901674"><ele>128.25</ele><time>2026-05-04T11:05:48.001Z</time></trkpt><trkpt lat="40.3575877278561" lon="9.657833732150955"><ele>127.5</ele><time>2026-05-04T11:05:49.001Z</time></trkpt><trkpt lat="40.3576488195389" lon="9.657974586402185"><ele>126.75</ele><time>2026-05-04T11:05:50.001Z</time></trkpt><trkpt lat="40.35774796971909" lon="9.658087431008585"><ele>126.0</ele><time>2026-05-04T11:05:51.001Z</time></trkpt><trkpt lat="40.362072092800986" lon="9.66496699486335"><ele>124.25</ele><time>2026-05-04T11:06:52.001Z</time></trkpt><trkpt lat="40.362123622932764" lon="9.665137953254108"><ele>122.5</ele><time>2026-05-04T11:06:53.001Z</time></trkpt><trkpt lat="40.362188350108475" lon="9.66529774266452"><ele>120.75</ele><time>2026-05-04T11:06:54.001Z</time></trkpt><trkpt lat="40.362265674106006" lon="9.665450273768997"><ele>119.0</ele><time>2026-05-04T11:06:55.001Z</time></trkpt><trkpt lat="40.36234976414733" lon="9.665596261449679"><ele>118.5</ele><time>2026-05-04T11:06:56.001Z</time></trkpt><trkpt lat="40.36242669696701" lon="9.665739975160555"><ele>118.0</ele><time>2026-05-04T11:06:57.001Z</time></trkpt><trkpt lat="40.36249053807686" lon="9.665883239644929"><ele>117.5</ele><time>2026-05-04T11:06:58.001Z</time></trkpt><trkpt lat="40.36251281067534" lon="9.666029861563128"><ele>117.0</ele><time>2026-05-04T11:06:59.001Z</time></trkpt><trkpt lat="40.36250650011706" lon="9.666154620022454"><ele>114.6</ele><time>2026-05-04T11:07:00.001Z</time></trkpt><trkpt lat="40.36246727225127" lon="9.666265492804147"><ele>112.19999999999999</ele><time>2026-05-04T11:07:01.001Z</time></trkpt><trkpt lat="40.36240900145037" lon="9.666359557081373"><ele>109.8</ele><time>2026-05-04T11:07:02.001Z</time></trkpt><trkpt lat="40.36235208996035" lon="9.666441258697901"><ele>107.4</ele><time>2026-05-04T11:07:03.001Z</time></trkpt><trkpt lat="40.36231545587963" lon="9.666552443065505"><ele>105.0</ele><time>2026-05-04T11:07:04.001Z</time></trkpt><trkpt lat="40.362317288520615" lon="9.666672573425137"><ele>105.0</ele><time>2026-05-04T11:07:05.001Z</time></trkpt><trkpt lat="40.36236220558595" lon="9.666807812173705"><ele>105.0</ele><time>2026-05-04T11:07:06.001Z</time></trkpt><trkpt lat="40.3624395005852" lon="9.66695928572296"><ele>105.0</ele><time>2026-05-04T11:07:07.001Z</time></trkpt><trkpt lat="40.36251010290937" lon="9.667117794240191"><ele>105.0</ele><time>2026-05-04T11:07:08.001Z</time></trkpt><trkpt lat="40.36257988889961" lon="9.667295673268418"><ele>104.75</ele><time>2026-05-04T11:07:09.001Z</time></trkpt><trkpt lat="40.362649975507345" lon="9.667468502539327"><ele>104.5</ele><time>2026-05-04T11:07:10.001Z</time></trkpt><trkpt lat="40.362719208321074" lon="9.667636597479062"><ele>104.25</ele><time>2026-05-04T11:07:11.001Z</time></trkpt><trkpt lat="40.36278346113264" lon="9.667789207955392"><ele>104.0</ele><time>2026-05-04T11:07:12.002Z</time></trkpt><trkpt lat="40.362842177559976" lon="9.667935678722532"><ele>104.0</ele><time>2026-05-04T11:07:13.002Z</time></trkpt><trkpt lat="40.36290740739201" lon="9.66806107185177"><ele>104.0</ele><time>2026-05-04T11:07:14.002Z</time></trkpt><trkpt lat="40.36298604457277" lon="9.66817228673663"><ele>104.0</ele><time>2026-05-04T11:07:15.002Z</time></trkpt><trkpt lat="40.36308752156954" lon="9.668284162211016"><ele>104.0</ele><time>2026-05-04T11:07:16.002Z</time></trkpt><trkpt lat="40.36320460547439" lon="9.668390476907984"><ele>107.0</ele><time>2026-05-04T11:07:17.002Z</time></trkpt><trkpt lat="40.3633448260801" lon="9.668468230170621"><ele>110.0</ele><time>2026-05-04T11:07:18.002Z</time></trkpt><trkpt lat="40.36349377640548" lon="9.668541221323068"><ele>113.0</ele><time>2026-05-04T11:07:19.002Z</time></trkpt><trkpt lat="40.36363202958215" lon="9.668613420407292"><ele>113.0</ele><time>2026-05-04T11:07:20.002Z</time></trkpt><trkpt lat="40.363761005157684" lon="9.668689433303772"><ele>113.0</ele><time>2026-05-04T11:07:21.002Z</time></trkpt><trkpt lat="40.363888209148236" lon="9.668765474995299"><ele>113.0</ele><time>2026-05-04T11:07:22.002Z</time></trkpt><trkpt lat="40.364000929305035" lon="9.668859995083077"><ele>113.0</ele><time>2026-05-04T11:07:23.002Z</time></trkpt><trkpt lat="40.36409883770261" lon="9.668981913113143"><ele>113.0</ele><time>2026-05-04T11:07:24.002Z</time></trkpt><trkpt lat="40.36418783601176" lon="9.669119585769112"><ele>113.0</ele><time>2026-05-04T11:07:25.002Z</time></trkpt><trkpt lat="40.364267904657154" lon="9.669275719086317"><ele>113.0</ele><time>2026-05-04T11:07:26.002Z</time></trkpt><trkpt lat="40.36433697364743" lon="9.669440516776309"><ele>113.0</ele><time>2026-05-04T11:07:27.002Z</time></trkpt><trkpt lat="40.36440438077218" lon="9.669604271504745"><ele>111.66666666666666</ele><time>2026-05-04T11:07:28.002Z</time></trkpt><trkpt lat="40.36448299360961" lon="9.669772610166918"><ele>110.33333333333334</ele><time>2026-05-04T11:07:29.002Z</time></trkpt><trkpt lat="40.36456811358419" lon="9.66994322099589"><ele>109.0</ele><time>2026-05-04T11:07:30.002Z</time></trkpt><trkpt lat="40.3646742362091" lon="9.670112025544874"><ele>108.33333333333334</ele><time>2026-05-04T11:07:31.002Z</time></trkpt><trkpt lat="40.36479235385036" lon="9.67026924189487"><ele>107.66666666666666</ele><time>2026-05-04T11:07:32.002Z</time></trkpt><trkpt lat="40.364928912939234" lon="9.670412922391565"><ele>107.0</ele><time>2026-05-04T11:07:33.002Z</time></trkpt><trkpt lat="40.36507387929184" lon="9.670522448606341"><ele>107.0</ele><time>2026-05-04T11:07:34.002Z</time></trkpt><trkpt lat="40.3652126681411" lon="9.670635175852423"><ele>107.0</ele><time>2026-05-04T11:07:35.002Z</time></trkpt><trkpt lat="40.36536306105458" lon="9.670717554670475"><ele>107.0</ele><time>2026-05-04T11:07:36.002Z</time></trkpt><trkpt lat="40.36551121632446" lon="9.670789076228766"><ele>105.33333333333333</ele><time>2026-05-04T11:07:37.001Z</time></trkpt><trkpt lat="40.36565521373011" lon="9.67085822966494"><ele>103.66666666666666</ele><time>2026-05-04T11:07:38.001Z</time></trkpt><trkpt lat="40.36580845606925" lon="9.670934739447487"><ele>102.0</ele><time>2026-05-04T11:07:39.001Z</time></trkpt><trkpt lat="40.36596039563796" lon="9.671008001656286"><ele>102.0</ele><time>2026-05-04T11:07:40.001Z</time></trkpt><trkpt lat="40.366100470399516" lon="9.671080945194703"><ele>102.0</ele><time>2026-05-04T11:07:41.001Z</time></trkpt><trkpt lat="40.36623968940715" lon="9.671150333475179"><ele>102.0</ele><time>2026-05-04T11:07:42.001Z</time></trkpt><trkpt lat="40.36636917370102" lon="9.671212396128324"><ele>102.0</ele><time>2026-05-04T11:07:43.001Z</time></trkpt><trkpt lat="40.36649019969237" lon="9.671277322795294"><ele>99.66666666666667</ele><time>2026-05-04T11:07:44.001Z</time></trkpt><trkpt lat="40.366625309184805" lon="9.671346409890935"><ele>97.33333333333334</ele><time>2026-05-04T11:07:45.001Z</time></trkpt><trkpt lat="40.36680385273231" lon="9.671444154615347"><ele>95.0</ele><time>2026-05-04T11:07:46.001Z</time></trkpt><trkpt lat="40.36704433711637" lon="9.671568815080063"><ele>95.0</ele><time>2026-05-04T11:07:47.001Z</time></trkpt><trkpt lat="40.3673154814147" lon="9.671708592935703"><ele>95.0</ele><time>2026-05-04T11:07:48.001Z</time></trkpt><trkpt lat="40.36759526043396" lon="9.671866585675819"><ele>91.5</ele><time>2026-05-04T11:07:49.001Z</time></trkpt><trkpt lat="40.367841408810435" lon="9.672012207296628"><ele>88.0</ele><time>2026-05-04T11:07:50.001Z</time></trkpt><trkpt lat="40.36806246242513" lon="9.672179100356429"><ele>42.0</ele><time>2026-05-04T11:07:51.001Z</time></trkpt><trkpt lat="40.37565240851045" lon="9.683452956250065"><ele>41.666666666666664</ele><time>2026-05-04T11:08:52.001Z</time></trkpt><trkpt lat="40.37570177802271" lon="9.683685411194574"><ele>41.33333333333333</ele><time>2026-05-04T11:08:53.001Z</time></trkpt><trkpt lat="40.375746330964155" lon="9.683913164633262"><ele>41.0</ele><time>2026-05-04T11:08:54.001Z</time></trkpt><trkpt lat="40.37579614369746" lon="9.684144367024913"><ele>41.0</ele><time>2026-05-04T11:08:55.001Z</time></trkpt><trkpt lat="40.37584697529227" lon="9.684389433155713"><ele>41.0</ele><time>2026-05-04T11:08:56.001Z</time></trkpt><trkpt lat="40.375896486432474" lon="9.684636491051794"><ele>41.0</ele><time>2026-05-04T11:08:57.001Z</time></trkpt><trkpt lat="40.375943190984096" lon="9.684875649528504"><ele>40.33333333333333</ele><time>2026-05-04T11:08:58.001Z</time></trkpt><trkpt lat="40.37599712198073" lon="9.685117679880479"><ele>39.666666666666664</ele><time>2026-05-04T11:08:59.001Z</time></trkpt><trkpt lat="40.37604975201479" lon="9.685358420262341"><ele>39.0</ele><time>2026-05-04T11:09:00.001Z</time></trkpt><trkpt lat="40.37608964092634" lon="9.685587003717059"><ele>38.0</ele><time>2026-05-04T11:09:01.001Z</time></trkpt><trkpt lat="40.37613540886238" lon="9.685787451306664"><ele>37.0</ele><time>2026-05-04T11:09:02.001Z</time></trkpt><trkpt lat="40.37617510112766" lon="9.685981083067121"><ele>36.0</ele><time>2026-05-04T11:09:03.001Z</time></trkpt><trkpt lat="40.37621061597758" lon="9.686166665343858"><ele>34.5</ele><time>2026-05-04T11:09:04.001Z</time></trkpt><trkpt lat="40.37624673715605" lon="9.686340479509484"><ele>33.0</ele><time>2026-05-04T11:09:05.001Z</time></trkpt><trkpt lat="40.37627158822352" lon="9.686521104455366"><ele>31.5</ele><time>2026-05-04T11:09:06.001Z</time></trkpt><trkpt lat="40.3762817486825" lon="9.686717389004672"><ele>30.0</ele><time>2026-05-04T11:09:07.001Z</time></trkpt><trkpt lat="40.37626819401771" lon="9.686914476767619"><ele>29.5</ele><time>2026-05-04T11:09:08.001Z</time></trkpt><trkpt lat="40.376242812739605" lon="9.687107256266117"><ele>29.0</ele><time>2026-05-04T11:09:09.001Z</time></trkpt><trkpt lat="40.376215292731935" lon="9.687290922024797"><ele>28.5</ele><time>2026-05-04T11:09:10.001Z</time></trkpt><trkpt lat="40.37619625649596" lon="9.687471903218473"><ele>28.0</ele><time>2026-05-04T11:09:11.001Z</time></trkpt><trkpt lat="40.37617173273685" lon="9.687649487183709"><ele>27.0</ele><time>2026-05-04T11:09:12.001Z</time></trkpt><trkpt lat="40.376154401571085" lon="9.687828019198259"><ele>26.0</ele><time>2026-05-04T11:09:13.001Z</time></trkpt><trkpt lat="40.37615145929433" lon="9.68800676392166"><ele>25.0</ele><time>2026-05-04T11:09:14.001Z</time></trkpt><trkpt lat="40.37612226695074" lon="9.68816152179532"><ele>24.0</ele><time>2026-05-04T11:09:15.001Z</time></trkpt><trkpt lat="40.37609344553218" lon="9.688313844210207"><ele>24.0</ele><time>2026-05-04T11:09:16.001Z</time></trkpt><trkpt lat="40.37607219019562" lon="9.688460706757564"><ele>24.0</ele><time>2026-05-04T11:09:17.001Z</time></trkpt><trkpt lat="40.376059076621054" lon="9.688597012297063"><ele>24.0</ele><time>2026-05-04T11:09:18.001Z</time></trkpt><trkpt lat="40.37604303738916" lon="9.688730122116791"><ele>24.0</ele><time>2026-05-04T11:09:19.001Z</time></trkpt><trkpt lat="40.376018386608756" lon="9.68887365594861"><ele>24.0</ele><time>2026-05-04T11:09:20.001Z</time></trkpt><trkpt lat="40.3759955814148" lon="9.689036213107366"><ele>23.4</ele><time>2026-05-04T11:09:21.001Z</time></trkpt><trkpt lat="40.37598052861897" lon="9.689198367446387"><ele>22.799999999999997</ele><time>2026-05-04T11:09:22.001Z</time></trkpt><trkpt lat="40.375964698471385" lon="9.689346078550548"><ele>22.200000000000003</ele><time>2026-05-04T11:09:23.001Z</time></trkpt><trkpt lat="40.37594827941156" lon="9.689479220242424"><ele>21.6</ele><time>2026-05-04T11:09:24.001Z</time></trkpt><trkpt lat="40.375932659403716" lon="9.689601755994945"><ele>21.0</ele><time>2026-05-04T11:09:25.001Z</time></trkpt><trkpt lat="40.37592196506694" lon="9.68971416153613"><ele>20.666666666666668</ele><time>2026-05-04T11:09:26.001Z</time></trkpt><trkpt lat="40.37589293123733" lon="9.689816053498971"><ele>20.333333333333332</ele><time>2026-05-04T11:09:27.001Z</time></trkpt><trkpt lat="40.37587918753768" lon="9.689913126514613"><ele>20.0</ele><time>2026-05-04T11:09:28.001Z</time></trkpt><trkpt lat="40.37586654533755" lon="9.690011428475927"><ele>19.666666666666664</ele><time>2026-05-04T11:09:29.001Z</time></trkpt><trkpt lat="40.37586606878047" lon="9.6901192909752"><ele>19.333333333333332</ele><time>2026-05-04T11:09:30.001Z</time></trkpt><trkpt lat="40.375854334330114" lon="9.690234811526992"><ele>19.0</ele><time>2026-05-04T11:09:31.001Z</time></trkpt><trkpt lat="40.37585453248141" lon="9.69035207668607"><ele>18.599999999999998</ele><time>2026-05-04T11:09:32.001Z</time></trkpt><trkpt lat="40.375862399067444" lon="9.690486840968758"><ele>18.2</ele><time>2026-05-04T11:09:33.001Z</time></trkpt><trkpt lat="40.375884396085226" lon="9.690631049431715"><ele>17.799999999999997</ele><time>2026-05-04T11:09:34.001Z</time></trkpt><trkpt lat="40.37592571230015" lon="9.690765702320023"><ele>17.4</ele><time>2026-05-04T11:09:35.001Z</time></trkpt><trkpt lat="40.37599173706734" lon="9.690888643902209"><ele>17.0</ele><time>2026-05-04T11:09:36.001Z</time></trkpt><trkpt lat="40.37608228154843" lon="9.691012834415355"><ele>17.0</ele><time>2026-05-04T11:09:37.001Z</time></trkpt><trkpt lat="40.37617609190668" lon="9.691128160119124"><ele>17.0</ele><time>2026-05-04T11:09:38.001Z</time></trkpt><trkpt lat="40.376260727387944" lon="9.691250792431191"><ele>17.0</ele><time>2026-05-04T11:09:39.001Z</time></trkpt><trkpt lat="40.37634439160226" lon="9.691394054446034"><ele>17.0</ele><time>2026-05-04T11:09:40.001Z</time></trkpt><trkpt lat="40.37641549269813" lon="9.69153617359073"><ele>17.0</ele><time>2026-05-04T11:09:41.001Z</time></trkpt><trkpt lat="40.37647520996652" lon="9.691680009622793"><ele>17.0</ele><time>2026-05-04T11:09:42.001Z</time></trkpt><trkpt lat="40.37653519488091" lon="9.691821587576639"><ele>17.0</ele><time>2026-05-04T11:09:43.001Z</time></trkpt><trkpt lat="40.376587530742306" lon="9.691959861882145"><ele>17.0</ele><time>2026-05-04T11:09:44.001Z</time></trkpt><trkpt lat="40.37663067823814" lon="9.692095584926573"><ele>16.25</ele><time>2026-05-04T11:09:45.001Z</time></trkpt><trkpt lat="40.37667652874523" lon="9.692241345249595"><ele>15.5</ele><time>2026-05-04T11:09:46.001Z</time></trkpt><trkpt lat="40.37672672540136" lon="9.692389036949733"><ele>14.75</ele><time>2026-05-04T11:09:47.001Z</time></trkpt><trkpt lat="40.37678185143907" lon="9.692539073133881"><ele>14.0</ele><time>2026-05-04T11:09:48.001Z</time></trkpt><trkpt lat="40.376823690187344" lon="9.692689300675932"><ele>13.666666666666668</ele><time>2026-05-04T11:09:49.001Z</time></trkpt><trkpt lat="40.37686682622601" lon="9.692849377485494"><ele>13.333333333333332</ele><time>2026-05-04T11:09:50.001Z</time></trkpt><trkpt lat="40.376905549277545" lon="9.693019361711617"><ele>13.0</ele><time>2026-05-04T11:09:51.001Z</time></trkpt><trkpt lat="40.37396727606116" lon="9.695700300235687"><ele>11.8</ele><time>2026-05-04T11:10:52.001Z</time></trkpt><trkpt lat="40.37385615595266" lon="9.695703366281379"><ele>10.600000000000001</ele><time>2026-05-04T11:10:53.001Z</time></trkpt><trkpt lat="40.373725301576" lon="9.69572486173709"><ele>9.399999999999999</ele><time>2026-05-04T11:10:54.001Z</time></trkpt><trkpt lat="40.37362793875199" lon="9.695723022321946"><ele>8.2</ele><time>2026-05-04T11:10:55.001Z</time></trkpt><trkpt lat="40.373520339055986" lon="9.695720786591474"><ele>7.0</ele><time>2026-05-04T11:10:56.001Z</time></trkpt><trkpt lat="40.37340560985973" lon="9.695708693119082"><ele>7.0</ele><time>2026-05-04T11:10:57.001Z</time></trkpt><trkpt lat="40.37328365517271" lon="9.69569650940039"><ele>7.0</ele><time>2026-05-04T11:10:58.001Z</time></trkpt><trkpt lat="40.3731693881253" lon="9.695669583074052"><ele>7.0</ele><time>2026-05-04T11:10:59.001Z</time></trkpt><trkpt lat="40.37305772223717" lon="9.695665940456722"><ele>7.0</ele><time>2026-05-04T11:11:00.001Z</time></trkpt><trkpt lat="40.37295188319277" lon="9.695662487917126"><ele>7.199999999999999</ele><time>2026-05-04T11:11:01.001Z</time></trkpt><trkpt lat="40.37283916121658" lon="9.695658810849208"><ele>7.3999999999999995</ele><time>2026-05-04T11:11:02.001Z</time></trkpt><trkpt lat="40.37273225309607" lon="9.695655323429099"><ele>7.6000000000000005</ele><time>2026-05-04T11:11:03.001Z</time></trkpt><trkpt lat="40.372637984669204" lon="9.695653764000717"><ele>7.800000000000001</ele><time>2026-05-04T11:11:04.001Z</time></trkpt><trkpt lat="40.3725505633463" lon="9.695652000552633"><ele>8.0</ele><time>2026-05-04T11:11:05.001Z</time></trkpt><trkpt lat="40.37246515224979" lon="9.695650815762352"><ele>8.0</ele><time>2026-05-04T11:11:06.001Z</time></trkpt><trkpt lat="40.372366026368354" lon="9.695650815762667"><ele>8.0</ele><time>2026-05-04T11:11:07.001Z</time></trkpt><trkpt lat="40.37225973085922" lon="9.695654613982372"><ele>8.0</ele><time>2026-05-04T11:11:08.001Z</time></trkpt><trkpt lat="40.3721534733457" lon="9.695683893741505"><ele>8.0</ele><time>2026-05-04T11:11:09.001Z</time></trkpt><trkpt lat="40.37203390498064" lon="9.695687301912928"><ele>8.0</ele><time>2026-05-04T11:11:10.001Z</time></trkpt><trkpt lat="40.37190907626188" lon="9.695706541988867"><ele>8.0</ele><time>2026-05-04T11:11:11.001Z</time></trkpt><trkpt lat="40.37179861901521" lon="9.695729603044592"><ele>8.0</ele><time>2026-05-04T11:11:12.001Z</time></trkpt><trkpt lat="40.3716938386607" lon="9.69575260811713"><ele>8.0</ele><time>2026-05-04T11:11:13.001Z</time></trkpt><trkpt lat="40.371595185922665" lon="9.695776612053265"><ele>8.0</ele><time>2026-05-04T11:11:14.001Z</time></trkpt><trkpt lat="40.37148559507796" lon="9.695800735324756"><ele>8.0</ele><time>2026-05-04T11:11:15.001Z</time></trkpt><trkpt lat="40.37137179024539" lon="9.695819351092913"><ele>7.75</ele><time>2026-05-04T11:11:16.001Z</time></trkpt><trkpt lat="40.371263418936806" lon="9.695830175822547"><ele>7.5</ele><time>2026-05-04T11:11:17.001Z</time></trkpt><trkpt lat="40.37114874147264" lon="9.695826570269338"><ele>7.25</ele><time>2026-05-04T11:11:18.001Z</time></trkpt><trkpt lat="40.371029751335676" lon="9.695783040708386"><ele>7.0</ele><time>2026-05-04T11:11:19.001Z</time></trkpt><trkpt lat="40.37091407277107" lon="9.695744901848268"><ele>7.0</ele><time>2026-05-04T11:11:20.001Z</time></trkpt><trkpt lat="40.37079417341065" lon="9.695697726414512"><ele>7.0</ele><time>2026-05-04T11:11:21.001Z</time></trkpt><trkpt lat="40.3706686067771" lon="9.6956469955065"><ele>7.0</ele><time>2026-05-04T11:11:22.001Z</time></trkpt><trkpt lat="40.37054452109693" lon="9.695598717572977"><ele>7.0</ele><time>2026-05-04T11:11:23.001Z</time></trkpt><trkpt lat="40.37041561046713" lon="9.695569568534884"><ele>7.0</ele><time>2026-05-04T11:11:24.001Z</time></trkpt><trkpt lat="40.37026788754848" lon="9.695510754213213"><ele>7.0</ele><time>2026-05-04T11:11:25.001Z</time></trkpt><trkpt lat="40.37011951221973" lon="9.695460889811931"><ele>7.0</ele><time>2026-05-04T11:11:26.001Z</time></trkpt><trkpt lat="40.369981444233034" lon="9.695445457774689"><ele>7.0</ele><time>2026-05-04T11:11:27.001Z</time></trkpt><trkpt lat="40.36985185934513" lon="9.695446232142382"><ele>7.0</ele><time>2026-05-04T11:11:28.001Z</time></trkpt><trkpt lat="40.36972294095837" lon="9.69544343520786"><ele>7.0</ele><time>2026-05-04T11:11:29.001Z</time></trkpt><trkpt lat="40.36959553165698" lon="9.695441550621798"><ele>7.0</ele><time>2026-05-04T11:11:30.001Z</time></trkpt><trkpt lat="40.369474315258856" lon="9.695442551729407"><ele>7.0</ele><time>2026-05-04T11:11:31.001Z</time></trkpt><trkpt lat="40.36935995940233" lon="9.695404344684608"><ele>7.0</ele><time>2026-05-04T11:11:32.001Z</time></trkpt><trkpt lat="40.369242565016336" lon="9.695379878894522"><ele>7.0</ele><time>2026-05-04T11:11:33.001Z</time></trkpt><trkpt lat="40.36912250714175" lon="9.695346906354073"><ele>7.0</ele><time>2026-05-04T11:11:34.001Z</time></trkpt><trkpt lat="40.36899424314807" lon="9.69532936436235"><ele>7.0</ele><time>2026-05-04T11:11:35.001Z</time></trkpt><trkpt lat="40.368867265186715" lon="9.695281358437848"><ele>6.75</ele><time>2026-05-04T11:11:36.001Z</time></trkpt><trkpt lat="40.36874387158668" lon="9.695205971802386"><ele>6.5</ele><time>2026-05-04T11:11:37.001Z</time></trkpt><trkpt lat="40.368607675314834" lon="9.695159107589182"><ele>6.25</ele><time>2026-05-04T11:11:38.001Z</time></trkpt><trkpt lat="40.36846883418311" lon="9.695073998102444"><ele>6.0</ele><time>2026-05-04T11:11:39.001Z</time></trkpt><trkpt lat="40.36832343077605" lon="9.694981555424786"><ele>6.0</ele><time>2026-05-04T11:11:40.001Z</time></trkpt><trkpt lat="40.368163714571736" lon="9.694888581039926"><ele>6.0</ele><time>2026-05-04T11:11:41.001Z</time></trkpt><trkpt lat="40.36798861167361" lon="9.694784839648337"><ele>6.0</ele><time>2026-05-04T11:11:42.001Z</time></trkpt><trkpt lat="40.367819828340586" lon="9.69470988407407"><ele>6.333333333333334</ele><time>2026-05-04T11:11:43.001Z</time></trkpt><trkpt lat="40.367635742607604" lon="9.694664439654344"><ele>6.666666666666667</ele><time>2026-05-04T11:11:44.001Z</time></trkpt><trkpt lat="40.36744281810387" lon="9.694639076731997"><ele>7.0</ele><time>2026-05-04T11:11:45.001Z</time></trkpt><trkpt lat="40.36727377067305" lon="9.694587037812774"><ele>6.333333333333334</ele><time>2026-05-04T11:11:46.001Z</time></trkpt><trkpt lat="40.367120834629574" lon="9.694558640613335"><ele>5.666666666666667</ele><time>2026-05-04T11:11:47.001Z</time></trkpt><trkpt lat="40.36697343413617" lon="9.694535119550743"><ele>5.0</ele><time>2026-05-04T11:11:48.001Z</time></trkpt><trkpt lat="40.366825099687446" lon="9.694545603589763"><ele>5.0</ele><time>2026-05-04T11:11:49Z</time></trkpt><trkpt lat="40.36665665723106" lon="9.694533004273673"><ele>5.0</ele><time>2026-05-04T11:11:50Z</time></trkpt><trkpt lat="40.36650379802908" lon="9.694541196458552"><ele>5.0</ele><time>2026-05-04T11:11:51Z</time></trkpt><trkpt lat="40.36672209112039" lon="9.70353558340012"><ele>4.0</ele><time>2026-05-04T11:12:52.001Z</time></trkpt><trkpt lat="40.36675342973635" lon="9.703704898336946"><ele>3.0</ele><time>2026-05-04T11:12:53.001Z</time></trkpt><trkpt lat="40.36678293536775" lon="9.703869572815625"><ele>2.0</ele><time>2026-05-04T11:12:54.001Z</time></trkpt><trkpt lat="40.366815955870216" lon="9.704030705007964"><ele>1.0</ele><time>2026-05-04T11:12:55.001Z</time></trkpt><trkpt lat="40.366861922725704" lon="9.704180592117817"><ele>1.0</ele><time>2026-05-04T11:12:56.001Z</time></trkpt><trkpt lat="40.36692755033838" lon="9.704316247426673"><ele>1.0</ele><time>2026-05-04T11:12:57.001Z</time></trkpt><trkpt lat="40.36700358863924" lon="9.704426922596417"><ele>1.0</ele><time>2026-05-04T11:12:58.001Z</time></trkpt><trkpt lat="40.36709298487905" lon="9.704523288418505"><ele>1.0</ele><time>2026-05-04T11:12:59.001Z</time></trkpt><trkpt lat="40.36719793479472" lon="9.704597271292645"><ele>0.75</ele><time>2026-05-04T11:13:00.001Z</time></trkpt><trkpt lat="40.367325549419625" lon="9.704655091262888"><ele>0.5</ele><time>2026-05-04T11:13:01.001Z</time></trkpt><trkpt lat="40.36746303710963" lon="9.704719069239072"><ele>0.25</ele><time>2026-05-04T11:13:02.001Z</time></trkpt><trkpt lat="40.36760677454853" lon="9.70479272233889"><ele>0.0</ele><time>2026-05-04T11:13:03.001Z</time></trkpt><trkpt lat="40.36775104243387" lon="9.704871809835566"><ele>0.0</ele><time>2026-05-04T11:13:04.001Z</time></trkpt><trkpt lat="40.36790070655202" lon="9.704960721244793"><ele>0.0</ele><time>2026-05-04T11:13:05.001Z</time></trkpt><trkpt lat="40.368055771371424" lon="9.705059514899556"><ele>0.0</ele><time>2026-05-04T11:13:06.001Z</time></trkpt><trkpt lat="40.36820572899222" lon="9.705149688051938"><ele>0.0</ele><time>2026-05-04T11:13:07.001Z</time></trkpt><trkpt lat="40.368360169039036" lon="9.705239022511195"><ele>0.0</ele><time>2026-05-04T11:13:08.001Z</time></trkpt><trkpt lat="40.368511226104616" lon="9.705324208287232"><ele>0.0</ele><time>2026-05-04T11:13:09.001Z</time></trkpt><trkpt lat="40.368652554890375" lon="9.705399418023482"><ele>0.0</ele><time>2026-05-04T11:13:10.001Z</time></trkpt><trkpt lat="40.368783526426554" lon="9.705468346546471"><ele>0.0</ele><time>2026-05-04T11:13:11.001Z</time></trkpt><trkpt lat="40.368914418173176" lon="9.705545671094614"><ele>0.0</ele><time>2026-05-04T11:13:12.001Z</time></trkpt><trkpt lat="40.369035080783796" lon="9.705616798943286"><ele>0.0</ele><time>2026-05-04T11:13:13.001Z</time></trkpt><trkpt lat="40.36912609486215" lon="9.70566942902605"><ele>0.0</ele><time>2026-05-04T11:13:14.001Z</time></trkpt><trkpt lat="40.36920490834028" lon="9.705712456955144"><ele>0.0</ele><time>2026-05-04T11:13:16.001Z</time></trkpt><trkpt lat="40.36930444827684" lon="9.705772183725328"><ele>0.0</ele><time>2026-05-04T11:13:19.001Z</time></trkpt><trkpt lat="40.369365505986515" lon="9.705802195680787"><ele>0.0</ele><time>2026-05-04T11:13:20.001Z</time></trkpt><trkpt lat="40.36944810077906" lon="9.705841379903458"><ele>0.0</ele><time>2026-05-04T11:13:21.001Z</time></trkpt><trkpt lat="40.36954184904255" lon="9.7058913325724"><ele>0.0</ele><time>2026-05-04T11:13:22.001Z</time></trkpt><trkpt lat="40.36962696163146" lon="9.7059381315295"><ele>0.2</ele><time>2026-05-04T11:13:23.001Z</time></trkpt><trkpt lat="40.36970655250472" lon="9.705989678347356"><ele>0.4</ele><time>2026-05-04T11:13:24.001Z</time></trkpt><trkpt lat="40.36978843921138" lon="9.706037501083646"><ele>0.6000000000000001</ele><time>2026-05-04T11:13:25.001Z</time></trkpt><trkpt lat="40.36988901735278" lon="9.706088083155572"><ele>0.8</ele><time>2026-05-04T11:13:26.001Z</time></trkpt><trkpt lat="40.3699826883067" lon="9.706139523496626"><ele>1.0</ele><time>2026-05-04T11:13:27.001Z</time></trkpt><trkpt lat="40.37005831905914" lon="9.706184847308457"><ele>1.0</ele><time>2026-05-04T11:13:28.001Z</time></trkpt><trkpt lat="40.37011872877011" lon="9.706223400800539"><ele>1.0</ele><time>2026-05-04T11:13:29.001Z</time></trkpt><trkpt lat="40.37022944206377" lon="9.706286167429916"><ele>1.0</ele><time>2026-05-04T11:13:31.001Z</time></trkpt><trkpt lat="40.37029743595146" lon="9.706326859397238"><ele>1.0</ele><time>2026-05-04T11:13:32.001Z</time></trkpt><trkpt lat="40.370417452343304" lon="9.706398493148269"><ele>1.0</ele><time>2026-05-04T11:13:33.001Z</time></trkpt><trkpt lat="40.370540952718095" lon="9.706478050209263"><ele>1.25</ele><time>2026-05-04T11:13:34.001Z</time></trkpt><trkpt lat="40.370635426248285" lon="9.706537234074945"><ele>1.5</ele><time>2026-05-04T11:13:35.001Z</time></trkpt><trkpt lat="40.37073046798571" lon="9.706592838780386"><ele>1.75</ele><time>2026-05-04T11:13:36.001Z</time></trkpt><trkpt lat="40.370868791845965" lon="9.706658982288559"><ele>2.0</ele><time>2026-05-04T11:13:37.001Z</time></trkpt><trkpt lat="40.37105262021907" lon="9.706757004589289"><ele>2.0</ele><time>2026-05-04T11:13:38.001Z</time></trkpt><trkpt lat="40.371242807075504" lon="9.706856297456563"><ele>2.0</ele><time>2026-05-04T11:13:39.001Z</time></trkpt><trkpt lat="40.37138691449788" lon="9.706949734276472"><ele>2.0</ele><time>2026-05-04T11:13:40.001Z</time></trkpt><trkpt lat="40.37151374946091" lon="9.707034057050151"><ele>2.0</ele><time>2026-05-04T11:13:41.001Z</time></trkpt><trkpt lat="40.37163871035031" lon="9.707095219195814"><ele>2.0</ele><time>2026-05-04T11:13:42.001Z</time></trkpt><trkpt lat="40.37175351017163" lon="9.707155821661456"><ele>2.0</ele><time>2026-05-04T11:13:43.001Z</time></trkpt><trkpt lat="40.371863249747356" lon="9.707217768580975"><ele>2.0</ele><time>2026-05-04T11:13:44.001Z</time></trkpt><trkpt lat="40.37198136834855" lon="9.70728217348438"><ele>2.0</ele><time>2026-05-04T11:13:45.001Z</time></trkpt><trkpt lat="40.372094094872445" lon="9.707355298721229"><ele>2.0</ele><time>2026-05-04T11:13:46.001Z</time></trkpt><trkpt lat="40.37220962986604" lon="9.707440395805852"><ele>2.0</ele><time>2026-05-04T11:13:47.001Z</time></trkpt><trkpt lat="40.37230473495221" lon="9.70755850345525"><ele>2.0</ele><time>2026-05-04T11:13:48.001Z</time></trkpt><trkpt lat="40.372373214852885" lon="9.70771098980186"><ele>2.0</ele><time>2026-05-04T11:13:49.001Z</time></trkpt><trkpt lat="40.37243617475806" lon="9.707848976031883"><ele>2.0</ele><time>2026-05-04T11:13:50.001Z</time></trkpt><trkpt lat="40.37250997231957" lon="9.707957320807708"><ele>2.0</ele><time>2026-05-04T11:13:51.001Z</time></trkpt><trkpt lat="40.376014953330106" lon="9.715392744226293"><ele>2.0</ele><time>2026-05-04T11:14:52Z</time></trkpt><trkpt lat="40.375974566253426" lon="9.715572217442014"><ele>2.0</ele><time>2026-05-04T11:14:53Z</time></trkpt><trkpt lat="40.375915996534935" lon="9.715751170237318"><ele>2.0</ele><time>2026-05-04T11:14:54.001Z</time></trkpt><trkpt lat="40.37586341793469" lon="9.715937084558298"><ele>2.0</ele><time>2026-05-04T11:14:55.001Z</time></trkpt><trkpt lat="40.37581383796396" lon="9.716117841736718"><ele>1.6666666666666665</ele><time>2026-05-04T11:14:56.001Z</time></trkpt><trkpt lat="40.37576470596217" lon="9.716295384632064"><ele>1.3333333333333333</ele><time>2026-05-04T11:14:57.001Z</time></trkpt><trkpt lat="40.375715873985584" lon="9.716482028231423"><ele>1.0</ele><time>2026-05-04T11:14:58.001Z</time></trkpt><trkpt lat="40.37566687626681" lon="9.716676232643428"><ele>1.0</ele><time>2026-05-04T11:14:59.001Z</time></trkpt><trkpt lat="40.37561511850756" lon="9.716876276185376"><ele>1.0</ele><time>2026-05-04T11:15:00.001Z</time></trkpt><trkpt lat="40.375560254244405" lon="9.717084244583436"><ele>1.0</ele><time>2026-05-04T11:15:01.001Z</time></trkpt><trkpt lat="40.37550399768782" lon="9.717301960229198"><ele>1.0</ele><time>2026-05-04T11:15:02.001Z</time></trkpt><trkpt lat="40.3754514955111" lon="9.717511229141124"><ele>1.0</ele><time>2026-05-04T11:15:03.001Z</time></trkpt><trkpt lat="40.37540131828648" lon="9.717715157989737"><ele>1.0</ele><time>2026-05-04T11:15:04.001Z</time></trkpt><trkpt lat="40.375344235672955" lon="9.717919892862483"><ele>1.3333333333333333</ele><time>2026-05-04T11:15:05.001Z</time></trkpt><trkpt lat="40.375291077788205" lon="9.718120087124491"><ele>1.6666666666666665</ele><time>2026-05-04T11:15:06.001Z</time></trkpt><trkpt lat="40.375240864342814" lon="9.718323201948"><ele>2.0</ele><time>2026-05-04T11:15:07.001Z</time></trkpt><trkpt lat="40.37519064623091" lon="9.718527216082753"><ele>2.0</ele><time>2026-05-04T11:15:08.001Z</time></trkpt><trkpt lat="40.37513778815871" lon="9.718728897557328"><ele>2.0</ele><time>2026-05-04T11:15:09.001Z</time></trkpt><trkpt lat="40.375080647712565" lon="9.71892945281367"><ele>2.0</ele><time>2026-05-04T11:15:10.001Z</time></trkpt><trkpt lat="40.375027492670256" lon="9.71912745777115"><ele>2.0</ele><time>2026-05-04T11:15:11.001Z</time></trkpt><trkpt lat="40.37497364592905" lon="9.719327580497552"><ele>2.0</ele><time>2026-05-04T11:15:12.001Z</time></trkpt><trkpt lat="40.37491856214081" lon="9.719528309209833"><ele>2.0</ele><time>2026-05-04T11:15:13.001Z</time></trkpt><trkpt lat="40.37486929906634" lon="9.71974322536507"><ele>2.0</ele><time>2026-05-04T11:15:14.001Z</time></trkpt><trkpt lat="40.374811534350265" lon="9.71995249016638"><ele>2.0</ele><time>2026-05-04T11:15:15.001Z</time></trkpt><trkpt lat="40.37475564106636" lon="9.72016008090272"><ele>2.0</ele><time>2026-05-04T11:15:16.001Z</time></trkpt><trkpt lat="40.37470410633557" lon="9.720375205180146"><ele>1.3333333333333333</ele><time>2026-05-04T11:15:17.001Z</time></trkpt><trkpt lat="40.37465080812953" lon="9.720597793905082"><ele>0.6666666666666666</ele><time>2026-05-04T11:15:18.001Z</time></trkpt><trkpt lat="40.37459660424415" lon="9.720816662549579"><ele>0.0</ele><time>2026-05-04T11:15:19.001Z</time></trkpt><trkpt lat="40.37453844923513" lon="9.721039726837018"><ele>0.3333333333333333</ele><time>2026-05-04T11:15:20.001Z</time></trkpt><trkpt lat="40.37447638636001" lon="9.72126059481888"><ele>0.6666666666666666</ele><time>2026-05-04T11:15:21.001Z</time></trkpt><trkpt lat="40.37441368568834" lon="9.721475691227148"><ele>1.0</ele><time>2026-05-04T11:15:22.001Z</time></trkpt><trkpt lat="40.374346837080154" lon="9.721692557884934"><ele>1.3333333333333333</ele><time>2026-05-04T11:15:23.001Z</time></trkpt><trkpt lat="40.374285753048824" lon="9.721912849402791"><ele>1.6666666666666665</ele><time>2026-05-04T11:15:24.001Z</time></trkpt><trkpt lat="40.37422876122121" lon="9.722133948930761"><ele>2.0</ele><time>2026-05-04T11:15:25.001Z</time></trkpt><trkpt lat="40.37418141597263" lon="9.722351774552587"><ele>2.0</ele><time>2026-05-04T11:15:26.001Z</time></trkpt><trkpt lat="40.37413417625666" lon="9.722560226713858"><ele>2.0</ele><time>2026-05-04T11:15:27.001Z</time></trkpt><trkpt lat="40.37408642272139" lon="9.722768070658338"><ele>2.0</ele><time>2026-05-04T11:15:28.001Z</time></trkpt><trkpt lat="40.374037897241976" lon="9.7229600734973"><ele>2.0</ele><time>2026-05-04T11:15:29.001Z</time></trkpt><trkpt lat="40.373988941258695" lon="9.723133395041756"><ele>2.0</ele><time>2026-05-04T11:15:30.001Z</time></trkpt><trkpt lat="40.37394890386301" lon="9.72328245355298"><ele>2.0</ele><time>2026-05-04T11:15:31.001Z</time></trkpt><trkpt lat="40.37391752339424" lon="9.72340320609298"><ele>2.0</ele><time>2026-05-04T11:15:32.001Z</time></trkpt><trkpt lat="40.37388620567067" lon="9.7235180394295"><ele>2.0</ele><time>2026-05-04T11:15:33.001Z</time></trkpt><trkpt lat="40.37385563610575" lon="9.723649469531246"><ele>2.0</ele><time>2026-05-04T11:15:34.001Z</time></trkpt><trkpt lat="40.373819145994304" lon="9.723787372091836"><ele>2.0</ele><time>2026-05-04T11:15:35.001Z</time></trkpt><trkpt lat="40.37377616959455" lon="9.723932056083363"><ele>2.0</ele><time>2026-05-04T11:15:36.001Z</time></trkpt><trkpt lat="40.373743991396836" lon="9.724079877326673"><ele>1.9999999999999998</ele><time>2026-05-04T11:15:37.001Z</time></trkpt><trkpt lat="40.37370658380582" lon="9.724215014893396"><ele>2.0</ele><time>2026-05-04T11:15:38.001Z</time></trkpt><trkpt lat="40.37367637292211" lon="9.724337151998604"><ele>2.0</ele><time>2026-05-04T11:15:39.001Z</time></trkpt><trkpt lat="40.37363780692282" lon="9.7244483080922"><ele>2.0</ele><time>2026-05-04T11:15:40.001Z</time></trkpt><trkpt lat="40.37361368957504" lon="9.724540397182004"><ele>1.9999999999999998</ele><time>2026-05-04T11:15:41.001Z</time></trkpt><trkpt lat="40.37359776911018" lon="9.724624756068346"><ele>2.0</ele><time>2026-05-04T11:15:42.001Z</time></trkpt><trkpt lat="40.37357241003655" lon="9.724703278610512"><ele>2.0</ele><time>2026-05-04T11:15:43.001Z</time></trkpt><trkpt lat="40.37353952160808" lon="9.724849091689052"><ele>2.0</ele><time>2026-05-04T11:15:45.001Z</time></trkpt><trkpt lat="40.3735010685129" lon="9.724957500011465"><ele>2.0</ele><time>2026-05-04T11:15:47.001Z</time></trkpt><trkpt lat="40.37347989882013" lon="9.725036790088698"><ele>2.0</ele><time>2026-05-04T11:15:49.001Z</time></trkpt><trkpt lat="40.373319240932055" lon="9.725365017663911"><ele>2.0</ele><time>2026-05-04T11:16:52Z</time></trkpt><trkpt lat="40.373358932703546" lon="9.725284611397539"><ele>2.0</ele><time>2026-05-04T11:20:16.999Z</time></trkpt><trkpt lat="40.373288044517004" lon="9.725154691484429"><ele>2.0</ele><time>2026-05-04T11:20:17.999Z</time></trkpt><trkpt lat="40.37350325863145" lon="9.725035154407847"><ele>2.0</ele><time>2026-05-04T11:20:19.999Z</time></trkpt><trkpt lat="40.37353848020497" lon="9.724902643572104"><ele>2.0</ele><time>2026-05-04T11:20:21.999Z</time></trkpt><trkpt lat="40.373592627272295" lon="9.724795659646746"><ele>2.0</ele><time>2026-05-04T11:20:23.999Z</time></trkpt><trkpt lat="40.37361361767257" lon="9.724715050476874"><ele>2.0</ele><time>2026-05-04T11:20:24.999Z</time></trkpt><trkpt lat="40.373637404770975" lon="9.724623701184255"><ele>2.0</ele><time>2026-05-04T11:20:25.999Z</time></trkpt><trkpt lat="40.37366613664853" lon="9.724513362944876"><ele>2.0</ele><time>2026-05-04T11:20:26.999Z</time></trkpt><trkpt lat="40.373707171585906" lon="9.724346868771333"><ele>2.0</ele><time>2026-05-04T11:20:27.999Z</time></trkpt><trkpt lat="40.37373265376704" lon="9.724247946242473"><ele>2.0</ele><time>2026-05-04T11:20:28.999Z</time></trkpt><trkpt lat="40.37376868307495" lon="9.724110547188548"><ele>2.0</ele><time>2026-05-04T11:20:29.999Z</time></trkpt><trkpt lat="40.37380479723379" lon="9.723972824546536"><ele>2.0</ele><time>2026-05-04T11:20:30.999Z</time></trkpt><trkpt lat="40.37384399459693" lon="9.723823343960404"><ele>2.0</ele><time>2026-05-04T11:20:31.999Z</time></trkpt><trkpt lat="40.37388185250097" lon="9.723678971469608"><ele>2.0</ele><time>2026-05-04T11:20:32.999Z</time></trkpt><trkpt lat="40.373924072046606" lon="9.7235179656854"><ele>2.0</ele><time>2026-05-04T11:20:33.999Z</time></trkpt><trkpt lat="40.373968252538155" lon="9.72334948178411"><ele>2.0</ele><time>2026-05-04T11:20:34.999Z</time></trkpt><trkpt lat="40.37401064320408" lon="9.723187823442164"><ele>2.0</ele><time>2026-05-04T11:20:35.999Z</time></trkpt><trkpt lat="40.37405417148479" lon="9.723021826773776"><ele>2.0</ele><time>2026-05-04T11:20:36.999Z</time></trkpt><trkpt lat="40.37410231303488" lon="9.72283866804217"><ele>2.0</ele><time>2026-05-04T11:20:37.999Z</time></trkpt><trkpt lat="40.37415604033231" lon="9.722635051835946"><ele>2.0</ele><time>2026-05-04T11:20:38.999Z</time></trkpt><trkpt lat="40.374211826026816" lon="9.72242363477689"><ele>2.0</ele><time>2026-05-04T11:20:40Z</time></trkpt><trkpt lat="40.37427017859957" lon="9.722201353999834"><ele>2.0</ele><time>2026-05-04T11:20:41Z</time></trkpt><trkpt lat="40.37432883724381" lon="9.721974044327862"><ele>2.0</ele><time>2026-05-04T11:20:42Z</time></trkpt><trkpt lat="40.374389784547546" lon="9.721737865816364"><ele>1.6666666666666665</ele><time>2026-05-04T11:20:43Z</time></trkpt><trkpt lat="40.37446195106495" lon="9.721458211476804"><ele>1.3333333333333333</ele><time>2026-05-04T11:20:44Z</time></trkpt><trkpt lat="40.37452720959062" lon="9.721205326340463"><ele>1.0</ele><time>2026-05-04T11:20:45Z</time></trkpt><trkpt lat="40.37459082515974" lon="9.720960477567305"><ele>0.6666666666666666</ele><time>2026-05-04T11:20:46Z</time></trkpt><trkpt lat="40.37465895593325" lon="9.720699483588362"><ele>0.3333333333333333</ele><time>2026-05-04T11:20:47Z</time></trkpt><trkpt lat="40.37472815638714" lon="9.720434391931812"><ele>0.0</ele><time>2026-05-04T11:20:48Z</time></trkpt><trkpt lat="40.37479689797051" lon="9.720171058036165"><ele>0.6666666666666666</ele><time>2026-05-04T11:20:49Z</time></trkpt><trkpt lat="40.37486542641122" lon="9.719908540655112"><ele>1.3333333333333333</ele><time>2026-05-04T11:20:50Z</time></trkpt><trkpt lat="40.374931396194356" lon="9.719655824912891"><ele>2.0</ele><time>2026-05-04T11:20:51Z</time></trkpt><trkpt lat="40.37598647175543" lon="9.714850559659052"><ele>2.0</ele><time>2026-05-04T11:21:53Z</time></trkpt></trkseg><trkseg><trkpt lat="40.37589878188774" lon="9.712584303251576"><ele>3.9999999999999996</ele><time>2026-05-04T13:07:30.999Z</time></trkpt><trkpt lat="40.375922104777196" lon="9.712442123649396"><ele>4.0</ele><time>2026-05-04T13:07:32.999Z</time></trkpt><trkpt lat="40.37591177032899" lon="9.712358466830198"><ele>4.0</ele><time>2026-05-04T13:07:33.999Z</time></trkpt><trkpt lat="40.37593060573691" lon="9.712277870827368"><ele>4.0</ele><time>2026-05-04T13:07:34.999Z</time></trkpt><trkpt lat="40.3759243442254" lon="9.712165804188484"><ele>3.9999999999999996</ele><time>2026-05-04T13:07:36Z</time></trkpt><trkpt lat="40.37594230974683" lon="9.712051729680839"><ele>4.0</ele><time>2026-05-04T13:07:37Z</time></trkpt><trkpt lat="40.37594950275225" lon="9.711912749130098"><ele>3.6</ele><time>2026-05-04T13:07:38Z</time></trkpt><trkpt lat="40.37595591342437" lon="9.711780236198633"><ele>3.2</ele><time>2026-05-04T13:07:39Z</time></trkpt><trkpt lat="40.375962389926876" lon="9.711636322744159"><ele>2.8000000000000003</ele><time>2026-05-04T13:07:40Z</time></trkpt><trkpt lat="40.3759683599165" lon="9.711507946282827"><ele>2.4000000000000004</ele><time>2026-05-04T13:07:41Z</time></trkpt><trkpt lat="40.37597614024697" lon="9.711349992925127"><ele>2.0</ele><time>2026-05-04T13:07:42Z</time></trkpt><trkpt lat="40.375983608856885" lon="9.711198367937351"><ele>2.25</ele><time>2026-05-04T13:07:43Z</time></trkpt><trkpt lat="40.375990389530244" lon="9.711060709219417"><ele>2.5</ele><time>2026-05-04T13:07:44Z</time></trkpt><trkpt lat="40.37599889002582" lon="9.710888135300367"><ele>2.75</ele><time>2026-05-04T13:07:45Z</time></trkpt><trkpt lat="40.37600801731805" lon="9.710708988368832"><ele>3.0</ele><time>2026-05-04T13:07:46Z</time></trkpt><trkpt lat="40.376004406729734" lon="9.710555479610125"><ele>3.0</ele><time>2026-05-04T13:07:47Z</time></trkpt><trkpt lat="40.37600998352063" lon="9.710419317424362"><ele>3.0</ele><time>2026-05-04T13:07:48Z</time></trkpt><trkpt lat="40.376014368762974" lon="9.71026960500084"><ele>3.0</ele><time>2026-05-04T13:07:49Z</time></trkpt><trkpt lat="40.37602394521883" lon="9.710118342291821"><ele>3.0</ele><time>2026-05-04T13:07:50Z</time></trkpt><trkpt lat="40.376046672860085" lon="9.709970905936618"><ele>3.0</ele><time>2026-05-04T13:07:51Z</time></trkpt><trkpt lat="40.376038247491536" lon="9.70981862844114"><ele>3.2</ele><time>2026-05-04T13:07:52Z</time></trkpt><trkpt lat="40.376062663535706" lon="9.709665582650508"><ele>3.4</ele><time>2026-05-04T13:07:53Z</time></trkpt><trkpt lat="40.37607045919268" lon="9.709516733652077"><ele>3.6000000000000005</ele><time>2026-05-04T13:07:54Z</time></trkpt><trkpt lat="40.37606792547181" lon="9.709374576337574"><ele>3.8000000000000003</ele><time>2026-05-04T13:07:55Z</time></trkpt><trkpt lat="40.37607233768054" lon="9.709235912608458"><ele>4.0</ele><time>2026-05-04T13:07:56Z</time></trkpt><trkpt lat="40.37607560097591" lon="9.709104372053945"><ele>4.0</ele><time>2026-05-04T13:07:57Z</time></trkpt><trkpt lat="40.3760984687597" lon="9.708949224095992"><ele>4.0</ele><time>2026-05-04T13:07:58Z</time></trkpt><trkpt lat="40.37610571826083" lon="9.708796662334215"><ele>4.0</ele><time>2026-05-04T13:07:59Z</time></trkpt><trkpt lat="40.376114728771924" lon="9.708629275818547"><ele>4.0</ele><time>2026-05-04T13:08:00Z</time></trkpt><trkpt lat="40.37612132041186" lon="9.708497005876774"><ele>4.25</ele><time>2026-05-04T13:08:01Z</time></trkpt><trkpt lat="40.37612550642373" lon="9.708352334549328"><ele>4.5</ele><time>2026-05-04T13:08:02Z</time></trkpt><trkpt lat="40.37613203238555" lon="9.708174616576535"><ele>4.75</ele><time>2026-05-04T13:08:03Z</time></trkpt><trkpt lat="40.37614648103052" lon="9.707964276259926"><ele>5.0</ele><time>2026-05-04T13:08:04Z</time></trkpt><trkpt lat="40.37615672743112" lon="9.707758157227826"><ele>4.8</ele><time>2026-05-04T13:08:05Z</time></trkpt><trkpt lat="40.37616295656654" lon="9.70761440142327"><ele>4.6</ele><time>2026-05-04T13:08:06Z</time></trkpt><trkpt lat="40.37616271511587" lon="9.707484298354235"><ele>4.4</ele><time>2026-05-04T13:08:07Z</time></trkpt><trkpt lat="40.3761808700515" lon="9.707350044559902"><ele>4.2</ele><time>2026-05-04T13:08:08Z</time></trkpt><trkpt lat="40.37617080196431" lon="9.707212641515959"><ele>4.0</ele><time>2026-05-04T13:08:09Z</time></trkpt><trkpt lat="40.37618486769662" lon="9.70701761819273"><ele>4.2</ele><time>2026-05-04T13:08:10Z</time></trkpt><trkpt lat="40.37619289172096" lon="9.70682907923798"><ele>4.4</ele><time>2026-05-04T13:08:11Z</time></trkpt><trkpt lat="40.37620679871523" lon="9.706692101154282"><ele>4.6</ele><time>2026-05-04T13:08:12Z</time></trkpt><trkpt lat="40.37621212080989" lon="9.70658384548403"><ele>4.8</ele><time>2026-05-04T13:08:13Z</time></trkpt><trkpt lat="40.37621627490323" lon="9.706493823832417"><ele>5.0</ele><time>2026-05-04T13:08:14Z</time></trkpt><trkpt lat="40.37622042365236" lon="9.706365536636323"><ele>5.0</ele><time>2026-05-04T13:08:16Z</time></trkpt><trkpt lat="40.37622549846881" lon="9.706266855878077"><ele>5.0</ele><time>2026-05-04T13:08:21Z</time></trkpt><trkpt lat="40.37624313023936" lon="9.706151365379744"><ele>5.0</ele><time>2026-05-04T13:08:24Z</time></trkpt><trkpt lat="40.37624548097621" lon="9.706050266214685"><ele>5.0</ele><time>2026-05-04T13:08:26Z</time></trkpt><trkpt lat="40.37624290404927" lon="9.705924965844705"><ele>5.0</ele><time>2026-05-04T13:08:28Z</time></trkpt><trkpt lat="40.37625408641234" lon="9.705748179920711"><ele>5.2</ele><time>2026-05-04T13:08:30Z</time></trkpt><trkpt lat="40.37626085177376" lon="9.705577558045306"><ele>5.4</ele><time>2026-05-04T13:08:32Z</time></trkpt><trkpt lat="40.376267316261135" lon="9.70548512262574"><ele>5.6</ele><time>2026-05-04T13:08:33Z</time></trkpt><trkpt lat="40.376274670016535" lon="9.705377889635205"><ele>5.8</ele><time>2026-05-04T13:08:34Z</time></trkpt><trkpt lat="40.37628715663779" lon="9.705208017406317"><ele>6.0</ele><time>2026-05-04T13:08:35Z</time></trkpt><trkpt lat="40.37629635887061" lon="9.705037910068619"><ele>6.0</ele><time>2026-05-04T13:08:36Z</time></trkpt><trkpt lat="40.37631047647658" lon="9.704901334016407"><ele>6.0</ele><time>2026-05-04T13:08:37Z</time></trkpt><trkpt lat="40.376325329727884" lon="9.704772060913415"><ele>6.0</ele><time>2026-05-04T13:08:38Z</time></trkpt><trkpt lat="40.37634502743061" lon="9.704633941617592"><ele>6.0</ele><time>2026-05-04T13:08:39Z</time></trkpt><trkpt lat="40.376376409716386" lon="9.704487509485173"><ele>6.0</ele><time>2026-05-04T13:08:40Z</time></trkpt><trkpt lat="40.37640662893175" lon="9.70433389998663"><ele>5.75</ele><time>2026-05-04T13:08:41Z</time></trkpt><trkpt lat="40.376442069558884" lon="9.704178509935925"><ele>5.5</ele><time>2026-05-04T13:08:42Z</time></trkpt><trkpt lat="40.37648472624716" lon="9.704030311638217"><ele>5.25</ele><time>2026-05-04T13:08:43Z</time></trkpt><trkpt lat="40.37652751233928" lon="9.7038875526107"><ele>5.0</ele><time>2026-05-04T13:08:44Z</time></trkpt><trkpt lat="40.37657040088324" lon="9.703764749511555"><ele>5.0</ele><time>2026-05-04T13:08:45Z</time></trkpt><trkpt lat="40.376607026543674" lon="9.703650770615342"><ele>5.0</ele><time>2026-05-04T13:08:46Z</time></trkpt><trkpt lat="40.37663548490627" lon="9.70354718475705"><ele>5.0</ele><time>2026-05-04T13:08:47Z</time></trkpt><trkpt lat="40.3766664252356" lon="9.703451435407796"><ele>5.0</ele><time>2026-05-04T13:08:48Z</time></trkpt><trkpt lat="40.3766910653544" lon="9.703367765985838"><ele>5.0</ele><time>2026-05-04T13:08:49.001Z</time></trkpt><trkpt lat="40.37672876208338" lon="9.703251777838753"><ele>5.0</ele><time>2026-05-04T13:08:51.001Z</time></trkpt><trkpt lat="40.37676235289588" lon="9.703150747402693"><ele>5.2</ele><time>2026-05-04T13:08:57.001Z</time></trkpt><trkpt lat="40.37679473812141" lon="9.703046322346086"><ele>5.4</ele><time>2026-05-04T13:08:59.001Z</time></trkpt><trkpt lat="40.37684926562172" lon="9.702895931359032"><ele>5.6</ele><time>2026-05-04T13:09:01.001Z</time></trkpt><trkpt lat="40.376880660323444" lon="9.702802127161902"><ele>5.8</ele><time>2026-05-04T13:09:02.001Z</time></trkpt><trkpt lat="40.37691735553272" lon="9.702695092089474"><ele>6.0</ele><time>2026-05-04T13:09:03.001Z</time></trkpt><trkpt lat="40.37695382238274" lon="9.702586895862185"><ele>5.666666666666667</ele><time>2026-05-04T13:09:04.001Z</time></trkpt><trkpt lat="40.37698768778035" lon="9.702475684942183"><ele>5.333333333333333</ele><time>2026-05-04T13:09:05.001Z</time></trkpt><trkpt lat="40.37702256369025" lon="9.702370147778822"><ele>5.0</ele><time>2026-05-04T13:09:05.998Z</time></trkpt><trkpt lat="40.3770610340044" lon="9.702271930668939"><ele>4.666666666666666</ele><time>2026-05-04T13:09:06.998Z</time></trkpt><trkpt lat="40.377089582130615" lon="9.702174693672742"><ele>4.333333333333333</ele><time>2026-05-04T13:09:07.998Z</time></trkpt><trkpt lat="40.37711705202377" lon="9.702067566885272"><ele>4.0</ele><time>2026-05-04T13:09:08.998Z</time></trkpt><trkpt lat="40.377157845819475" lon="9.701932229614352"><ele>4.0</ele><time>2026-05-04T13:09:09.998Z</time></trkpt><trkpt lat="40.377195755668225" lon="9.70179990962946"><ele>4.0</ele><time>2026-05-04T13:09:10.998Z</time></trkpt><trkpt lat="40.37723759534522" lon="9.70166674406578"><ele>4.0</ele><time>2026-05-04T13:09:11.998Z</time></trkpt><trkpt lat="40.37728534557218" lon="9.701520106235938"><ele>4.0</ele><time>2026-05-04T13:09:12.998Z</time></trkpt><trkpt lat="40.37733922763817" lon="9.701366512039291"><ele>4.0</ele><time>2026-05-04T13:09:13.998Z</time></trkpt><trkpt lat="40.377386973578396" lon="9.701198767711137"><ele>4.0</ele><time>2026-05-04T13:09:14.998Z</time></trkpt><trkpt lat="40.377439331753216" lon="9.70104082511407"><ele>4.0</ele><time>2026-05-04T13:09:15.998Z</time></trkpt><trkpt lat="40.37749169838095" lon="9.700888964221974"><ele>4.0</ele><time>2026-05-04T13:09:16.998Z</time></trkpt><trkpt lat="40.37754613886226" lon="9.7007489465183"><ele>4.5</ele><time>2026-05-04T13:09:17.998Z</time></trkpt><trkpt lat="40.377594942588225" lon="9.700601287443753"><ele>5.0</ele><time>2026-05-04T13:09:18.998Z</time></trkpt><trkpt lat="40.37764852291254" lon="9.700461845966554"><ele>5.5</ele><time>2026-05-04T13:09:19.999Z</time></trkpt><trkpt lat="40.377707199680266" lon="9.700329233172104"><ele>6.0</ele><time>2026-05-04T13:09:20.999Z</time></trkpt><trkpt lat="40.37776583783311" lon="9.70020008157226"><ele>6.199999999999999</ele><time>2026-05-04T13:09:21.999Z</time></trkpt><trkpt lat="40.37781919850887" lon="9.700072834026528"><ele>6.3999999999999995</ele><time>2026-05-04T13:09:22.999Z</time></trkpt><trkpt lat="40.377873184535" lon="9.699958108094968"><ele>6.6</ele><time>2026-05-04T13:09:23.999Z</time></trkpt><trkpt lat="40.37791348459544" lon="9.699852747338584"><ele>6.8</ele><time>2026-05-04T13:09:24.999Z</time></trkpt><trkpt lat="40.3779717981208" lon="9.699715177448338"><ele>7.0</ele><time>2026-05-04T13:09:26.999Z</time></trkpt><trkpt lat="40.37800375262199" lon="9.69964046710976"><ele>7.000000000000001</ele><time>2026-05-04T13:09:27.999Z</time></trkpt><trkpt lat="40.37804325445347" lon="9.699560159765264"><ele>7.0</ele><time>2026-05-04T13:09:28.999Z</time></trkpt><trkpt lat="40.37809161390831" lon="9.699466397147242"><ele>7.0</ele><time>2026-05-04T13:09:29.999Z</time></trkpt><trkpt lat="40.37813814015253" lon="9.699364482619583"><ele>7.0</ele><time>2026-05-04T13:09:30.999Z</time></trkpt><trkpt lat="40.37818069597923" lon="9.699262319718397"><ele>7.000000000000001</ele><time>2026-05-04T13:09:31.999Z</time></trkpt><trkpt lat="40.37822307632447" lon="9.699151037073001"><ele>7.0</ele><time>2026-05-04T13:09:32.999Z</time></trkpt><trkpt lat="40.378277301173966" lon="9.699053083496038"><ele>7.000000000000001</ele><time>2026-05-04T13:09:33.999Z</time></trkpt><trkpt lat="40.378307236057196" lon="9.698950192590576"><ele>7.0</ele><time>2026-05-04T13:09:34.999Z</time></trkpt><trkpt lat="40.37834373558425" lon="9.698865572038187"><ele>7.0</ele><time>2026-05-04T13:09:35.999Z</time></trkpt><trkpt lat="40.378377870371814" lon="9.698789776621844"><ele>7.0</ele><time>2026-05-04T13:09:36.999Z</time></trkpt><trkpt lat="40.37841285398253" lon="9.698714317380778"><ele>7.000000000000001</ele><time>2026-05-04T13:09:37.999Z</time></trkpt><trkpt lat="40.37848121513016" lon="9.6985928656993"><ele>7.0</ele><time>2026-05-04T13:09:39.999Z</time></trkpt><trkpt lat="40.378516150460776" lon="9.698519120476941"><ele>6.666666666666667</ele><time>2026-05-04T13:09:43Z</time></trkpt><trkpt lat="40.37855169519941" lon="9.698446096983655"><ele>6.333333333333334</ele><time>2026-05-04T13:09:46Z</time></trkpt><trkpt lat="40.378592734463794" lon="9.69835192654963"><ele>6.0</ele><time>2026-05-04T13:09:49Z</time></trkpt><trkpt lat="40.378634950821755" lon="9.698280007870997"><ele>5.666666666666667</ele><time>2026-05-04T13:09:55Z</time></trkpt><trkpt lat="40.378662308756965" lon="9.698204401501105"><ele>5.333333333333334</ele><time>2026-05-04T13:10:02Z</time></trkpt><trkpt lat="40.37869811369646" lon="9.698126119126108"><ele>5.0</ele><time>2026-05-04T13:10:04Z</time></trkpt><trkpt lat="40.378773700334236" lon="9.698212539001233"><ele>5.0</ele><time>2026-05-04T13:10:05Z</time></trkpt><trkpt lat="40.378839119511966" lon="9.69831373821241"><ele>5.0</ele><time>2026-05-04T13:10:06Z</time></trkpt><trkpt lat="40.37893147610398" lon="9.698413567477337"><ele>5.0</ele><time>2026-05-04T13:10:07Z</time></trkpt><trkpt lat="40.379011272876255" lon="9.698505544450764"><ele>5.0</ele><time>2026-05-04T13:10:08Z</time></trkpt><trkpt lat="40.37907383444431" lon="9.698585890632954"><ele>5.0</ele><time>2026-05-04T13:10:09Z</time></trkpt><trkpt lat="40.37914904387906" lon="9.698666513358566"><ele>5.4</ele><time>2026-05-04T13:10:10Z</time></trkpt><trkpt lat="40.37921832278564" lon="9.698753747097838"><ele>5.8</ele><time>2026-05-04T13:10:11Z</time></trkpt><trkpt lat="40.37929515380606" lon="9.698850156801933"><ele>6.199999999999999</ele><time>2026-05-04T13:10:12Z</time></trkpt><trkpt lat="40.37937196232735" lon="9.698944616700874"><ele>6.6</ele><time>2026-05-04T13:10:13Z</time></trkpt><trkpt lat="40.37945209086675" lon="9.699042242296398"><ele>7.0</ele><time>2026-05-04T13:10:14Z</time></trkpt><trkpt lat="40.37952072728483" lon="9.699131443583227"><ele>7.0</ele><time>2026-05-04T13:10:15Z</time></trkpt><trkpt lat="40.37958233732318" lon="9.69920223144876"><ele>6.999999999999999</ele><time>2026-05-04T13:10:16Z</time></trkpt><trkpt lat="40.3796584060772" lon="9.699286623428327"><ele>6.999999999999999</ele><time>2026-05-04T13:10:18Z</time></trkpt><trkpt lat="40.3797291381575" lon="9.699373146376448"><ele>7.0</ele><time>2026-05-04T13:10:20Z</time></trkpt><trkpt lat="40.37982362287502" lon="9.699493828333516"><ele>7.0</ele><time>2026-05-04T13:10:22Z</time></trkpt><trkpt lat="40.37988324954962" lon="9.699569278168095"><ele>7.0</ele><time>2026-05-04T13:10:23Z</time></trkpt><trkpt lat="40.3799501276368" lon="9.699655029768993"><ele>6.999999999999999</ele><time>2026-05-04T13:10:24Z</time></trkpt><trkpt lat="40.38001312172706" lon="9.699749823231175"><ele>6.999999999999999</ele><time>2026-05-04T13:10:25Z</time></trkpt><trkpt lat="40.380106433" lon="9.699832370177838"><ele>7.0</ele><time>2026-05-04T13:10:26Z</time></trkpt><trkpt lat="40.38019641867033" lon="9.699904039600419"><ele>7.0</ele><time>2026-05-04T13:10:27Z</time></trkpt><trkpt lat="40.380288047795325" lon="9.699982447771028"><ele>7.0</ele><time>2026-05-04T13:10:28.001Z</time></trkpt><trkpt lat="40.380380398928075" lon="9.700049514459455"><ele>6.999999999999999</ele><time>2026-05-04T13:10:29.001Z</time></trkpt><trkpt lat="40.38047647744531" lon="9.700122920270955"><ele>6.999999999999999</ele><time>2026-05-04T13:10:30.001Z</time></trkpt><trkpt lat="40.38057565075855" lon="9.700202329282545"><ele>7.0</ele><time>2026-05-04T13:10:31.001Z</time></trkpt><trkpt lat="40.380667382991135" lon="9.700269485153566"><ele>7.0</ele><time>2026-05-04T13:10:32.001Z</time></trkpt><trkpt lat="40.380756028978254" lon="9.700339096826346"><ele>6.333333333333334</ele><time>2026-05-04T13:10:33.001Z</time></trkpt><trkpt lat="40.38084374771399" lon="9.700401440706438"><ele>5.666666666666667</ele><time>2026-05-04T13:10:34.001Z</time></trkpt><trkpt lat="40.38092604706267" lon="9.700464279913891"><ele>5.0</ele><time>2026-05-04T13:10:35.001Z</time></trkpt><trkpt lat="40.38100354050269" lon="9.700518455670025"><ele>4.333333333333334</ele><time>2026-05-04T13:10:36.001Z</time></trkpt><trkpt lat="40.38107404299552" lon="9.700564703790214"><ele>3.666666666666667</ele><time>2026-05-04T13:10:37.001Z</time></trkpt><trkpt lat="40.38114354760862" lon="9.700621113273188"><ele>3.0</ele><time>2026-05-04T13:10:38.001Z</time></trkpt><trkpt lat="40.381219195736826" lon="9.700685548314373"><ele>3.0</ele><time>2026-05-04T13:10:39.001Z</time></trkpt><trkpt lat="40.38129857020823" lon="9.700742254844895"><ele>3.0</ele><time>2026-05-04T13:10:40.001Z</time></trkpt><trkpt lat="40.38138982673193" lon="9.700805970732304"><ele>3.0</ele><time>2026-05-04T13:10:41.001Z</time></trkpt><trkpt lat="40.38147268890195" lon="9.700870986380878"><ele>3.0</ele><time>2026-05-04T13:10:42.001Z</time></trkpt><trkpt lat="40.3815612590715" lon="9.700939685632378"><ele>3.0</ele><time>2026-05-04T13:10:43.001Z</time></trkpt><trkpt lat="40.3816506455927" lon="9.701008006733796"><ele>3.0</ele><time>2026-05-04T13:10:44.001Z</time></trkpt><trkpt lat="40.381745060908116" lon="9.701080783198247"><ele>3.0</ele><time>2026-05-04T13:10:45.001Z</time></trkpt><trkpt lat="40.38183983541302" lon="9.701149956505141"><ele>3.0</ele><time>2026-05-04T13:10:46.001Z</time></trkpt><trkpt lat="40.38193278217397" lon="9.701217963965204"><ele>3.0</ele><time>2026-05-04T13:10:47.001Z</time></trkpt><trkpt lat="40.38202946808415" lon="9.701289252960184"><ele>3.0</ele><time>2026-05-04T13:10:48.001Z</time></trkpt><trkpt lat="40.38212740152072" lon="9.701363996884504"><ele>3.5</ele><time>2026-05-04T13:10:49.001Z</time></trkpt><trkpt lat="40.38222851395601" lon="9.701438157255081"><ele>4.0</ele><time>2026-05-04T13:10:50.001Z</time></trkpt><trkpt lat="40.382324263598164" lon="9.701512486593618"><ele>4.5</ele><time>2026-05-04T13:10:51.001Z</time></trkpt><trkpt lat="40.38243155235697" lon="9.701589220548502"><ele>5.0</ele><time>2026-05-04T13:10:52.001Z</time></trkpt><trkpt lat="40.38254897890136" lon="9.701674992704529"><ele>5.0</ele><time>2026-05-04T13:10:53.001Z</time></trkpt><trkpt lat="40.38265192559116" lon="9.701757647322625"><ele>5.0</ele><time>2026-05-04T13:10:54.001Z</time></trkpt><trkpt lat="40.382759672125516" lon="9.701843474387271"><ele>5.0</ele><time>2026-05-04T13:10:55.001Z</time></trkpt><trkpt lat="40.38288665981585" lon="9.70194277259325"><ele>5.0</ele><time>2026-05-04T13:10:56.001Z</time></trkpt><trkpt lat="40.38301210972393" lon="9.702039320556947"><ele>5.0</ele><time>2026-05-04T13:10:57.001Z</time></trkpt><trkpt lat="40.383138214081164" lon="9.702132138212002"><ele>5.0</ele><time>2026-05-04T13:10:58.001Z</time></trkpt><trkpt lat="40.38326831332097" lon="9.702227252443084"><ele>5.0</ele><time>2026-05-04T13:10:59.001Z</time></trkpt><trkpt lat="40.38339939449232" lon="9.702319644984447"><ele>5.0</ele><time>2026-05-04T13:11:00.001Z</time></trkpt><trkpt lat="40.38352855148107" lon="9.702415886938544"><ele>5.0</ele><time>2026-05-04T13:11:01.001Z</time></trkpt><trkpt lat="40.38366634608783" lon="9.702515951979938"><ele>5.0</ele><time>2026-05-04T13:11:02.001Z</time></trkpt><trkpt lat="40.38377451081358" lon="9.702613010608815"><ele>5.0</ele><time>2026-05-04T13:11:03.001Z</time></trkpt><trkpt lat="40.38391166763359" lon="9.702699682238729"><ele>5.0</ele><time>2026-05-04T13:11:04.001Z</time></trkpt><trkpt lat="40.38403488145871" lon="9.702780987808609"><ele>5.0</ele><time>2026-05-04T13:11:05.001Z</time></trkpt><trkpt lat="40.384141457874414" lon="9.702856980392637"><ele>5.0</ele><time>2026-05-04T13:11:06.001Z</time></trkpt><trkpt lat="40.38424533675163" lon="9.702924887077192"><ele>5.0</ele><time>2026-05-04T13:11:07.001Z</time></trkpt><trkpt lat="40.384336930537415" lon="9.703003903975041"><ele>5.0</ele><time>2026-05-04T13:11:08.001Z</time></trkpt><trkpt lat="40.38442120733801" lon="9.703075238609536"><ele>5.0</ele><time>2026-05-04T13:11:09.001Z</time></trkpt><trkpt lat="40.38452516641832" lon="9.703137388481334"><ele>5.0</ele><time>2026-05-04T13:11:10.001Z</time></trkpt><trkpt lat="40.38461996523204" lon="9.703212832232447"><ele>5.0</ele><time>2026-05-04T13:11:11.001Z</time></trkpt><trkpt lat="40.38472369947077" lon="9.703284917579648"><ele>5.0</ele><time>2026-05-04T13:11:11.999Z</time></trkpt><trkpt lat="40.384831403477925" lon="9.70335954135319"><ele>5.0</ele><time>2026-05-04T13:11:12.999Z</time></trkpt><trkpt lat="40.384946205524905" lon="9.703442482062087"><ele>4.5</ele><time>2026-05-04T13:11:13.999Z</time></trkpt><trkpt lat="40.38505766059989" lon="9.703534484368058"><ele>4.0</ele><time>2026-05-04T13:11:14.999Z</time></trkpt><trkpt lat="40.38518047845063" lon="9.703616615874585"><ele>3.5</ele><time>2026-05-04T13:11:15.999Z</time></trkpt><trkpt lat="40.38531123765923" lon="9.70371017851866"><ele>3.0</ele><time>2026-05-04T13:11:16.999Z</time></trkpt><trkpt lat="40.385438980411436" lon="9.703814468470558"><ele>3.0</ele><time>2026-05-04T13:11:17.999Z</time></trkpt><trkpt lat="40.38558128307783" lon="9.703918767565561"><ele>3.0</ele><time>2026-05-04T13:11:18.999Z</time></trkpt><trkpt lat="40.385721587418814" lon="9.704029053903373"><ele>3.0</ele><time>2026-05-04T13:11:19.999Z</time></trkpt><trkpt lat="40.38586706621808" lon="9.704139120948266"><ele>3.0</ele><time>2026-05-04T13:11:20.999Z</time></trkpt><trkpt lat="40.38601411790489" lon="9.704252084091282"><ele>3.0</ele><time>2026-05-04T13:11:22Z</time></trkpt><trkpt lat="40.38617192721917" lon="9.704359559526859"><ele>3.0</ele><time>2026-05-04T13:11:23Z</time></trkpt><trkpt lat="40.386319095481994" lon="9.704472291302027"><ele>3.0</ele><time>2026-05-04T13:11:24Z</time></trkpt><trkpt lat="40.386481452327885" lon="9.7045947658182"><ele>3.0</ele><time>2026-05-04T13:11:25Z</time></trkpt><trkpt lat="40.386665573385464" lon="9.704731787501588"><ele>3.0</ele><time>2026-05-04T13:11:26Z</time></trkpt><trkpt lat="40.3868348406014" lon="9.704864777190108"><ele>3.0</ele><time>2026-05-04T13:11:27Z</time></trkpt><trkpt lat="40.38700621745036" lon="9.704989068859707"><ele>3.0</ele><time>2026-05-04T13:11:28Z</time></trkpt><trkpt lat="40.38717998207329" lon="9.705120990553825"><ele>3.0</ele><time>2026-05-04T13:11:29Z</time></trkpt><trkpt lat="40.387351820223024" lon="9.705255521497879"><ele>2.6666666666666665</ele><time>2026-05-04T13:11:30Z</time></trkpt><trkpt lat="40.38753184765032" lon="9.705384410074439"><ele>2.333333333333333</ele><time>2026-05-04T13:11:31Z</time></trkpt><trkpt lat="40.387708957628384" lon="9.705513110434175"><ele>2.0</ele><time>2026-05-04T13:11:32Z</time></trkpt><trkpt lat="40.38788546618987" lon="9.705640378879782"><ele>2.0</ele><time>2026-05-04T13:11:33Z</time></trkpt><trkpt lat="40.3880607393282" lon="9.705773769706935"><ele>2.0</ele><time>2026-05-04T13:11:34Z</time></trkpt><trkpt lat="40.38824130757409" lon="9.705898561248729"><ele>2.0</ele><time>2026-05-04T13:11:35Z</time></trkpt><trkpt lat="40.388427885538064" lon="9.706031949331685"><ele>2.0</ele><time>2026-05-04T13:11:36Z</time></trkpt><trkpt lat="40.38861083158974" lon="9.706169964848309"><ele>2.0</ele><time>2026-05-04T13:11:37Z</time></trkpt><trkpt lat="40.3887955009543" lon="9.706315345952067"><ele>2.0</ele><time>2026-05-04T13:11:38Z</time></trkpt><trkpt lat="40.38898346411357" lon="9.706454360967266"><ele>2.333333333333333</ele><time>2026-05-04T13:11:39Z</time></trkpt><trkpt lat="40.38917080200912" lon="9.706599341789884"><ele>2.6666666666666665</ele><time>2026-05-04T13:11:40Z</time></trkpt><trkpt lat="40.389364410127506" lon="9.706731303899574"><ele>3.0</ele><time>2026-05-04T13:11:41Z</time></trkpt><trkpt lat="40.38954860490895" lon="9.70687111450957"><ele>2.6666666666666665</ele><time>2026-05-04T13:11:42Z</time></trkpt><trkpt lat="40.38973315271276" lon="9.707004598758436"><ele>2.333333333333333</ele><time>2026-05-04T13:11:43Z</time></trkpt><trkpt lat="40.38991952858204" lon="9.707140526474413"><ele>2.0</ele><time>2026-05-04T13:11:44Z</time></trkpt><trkpt lat="40.39009609683912" lon="9.707272451754493"><ele>2.0</ele><time>2026-05-04T13:11:45Z</time></trkpt><trkpt lat="40.39027028757909" lon="9.707411525559971"><ele>2.0</ele><time>2026-05-04T13:11:46Z</time></trkpt><trkpt lat="40.39044374943687" lon="9.707543930833003"><ele>2.0</ele><time>2026-05-04T13:11:47Z</time></trkpt><trkpt lat="40.39061657271277" lon="9.707671378725149"><ele>2.333333333333333</ele><time>2026-05-04T13:11:48Z</time></trkpt><trkpt lat="40.39079068596579" lon="9.707793417455687"><ele>2.6666666666666665</ele><time>2026-05-04T13:11:49Z</time></trkpt><trkpt lat="40.390968226240425" lon="9.707927329283311"><ele>3.0</ele><time>2026-05-04T13:11:50Z</time></trkpt><trkpt lat="40.3911362056879" lon="9.70806900555945"><ele>3.0</ele><time>2026-05-04T13:11:51Z</time></trkpt><trkpt lat="40.3912771926396" lon="9.708277850848795"><ele>3.0</ele><time>2026-05-04T13:11:52Z</time></trkpt><trkpt lat="40.39139332102665" lon="9.708522098129166"><ele>3.0</ele><time>2026-05-04T13:11:53Z</time></trkpt><trkpt lat="40.39148673759686" lon="9.708781809861822"><ele>6.0</ele><time>2026-05-04T13:11:54Z</time></trkpt><trkpt lat="40.391553452722825" lon="9.708980213685077"><ele>9.0</ele><time>2026-05-04T13:11:55Z</time></trkpt><trkpt lat="40.39159071323749" lon="9.709181148655514"><ele>12.0</ele><time>2026-05-04T13:11:56Z</time></trkpt><trkpt lat="40.39156694632689" lon="9.709394927543034"><ele>16.0</ele><time>2026-05-04T13:11:57Z</time></trkpt><trkpt lat="40.39151015398734" lon="9.709631060584893"><ele>20.0</ele><time>2026-05-04T13:11:58Z</time></trkpt><trkpt lat="40.39146068957029" lon="9.709859334425033"><ele>24.0</ele><time>2026-05-04T13:11:59Z</time></trkpt><trkpt lat="40.39143603274213" lon="9.710085845343476"><ele>27.0</ele><time>2026-05-04T13:12:00Z</time></trkpt><trkpt lat="40.391417947853846" lon="9.710295695078543"><ele>30.0</ele><time>2026-05-04T13:12:01Z</time></trkpt><trkpt lat="40.39139583649955" lon="9.71049054363086"><ele>33.0</ele><time>2026-05-04T13:12:02Z</time></trkpt><trkpt lat="40.391367272688676" lon="9.710693609402934"><ele>29.333333333333332</ele><time>2026-05-04T13:12:03Z</time></trkpt><trkpt lat="40.39132830272398" lon="9.710895838273878"><ele>25.666666666666664</ele><time>2026-05-04T13:12:04.001Z</time></trkpt><trkpt lat="40.39128225602407" lon="9.711094536593617"><ele>22.0</ele><time>2026-05-04T13:12:05.001Z</time></trkpt><trkpt lat="40.391202802818455" lon="9.71127548753711"><ele>22.0</ele><time>2026-05-04T13:12:06.001Z</time></trkpt><trkpt lat="40.39107536475375" lon="9.711394580045248"><ele>22.0</ele><time>2026-05-04T13:12:07.001Z</time></trkpt><trkpt lat="40.390949568093085" lon="9.71151943992658"><ele>22.0</ele><time>2026-05-04T13:12:08.001Z</time></trkpt><trkpt lat="40.390840858977825" lon="9.711636626671329"><ele>22.0</ele><time>2026-05-04T13:12:09.001Z</time></trkpt><trkpt lat="40.39075738330308" lon="9.711778957837721"><ele>22.0</ele><time>2026-05-04T13:12:10.001Z</time></trkpt><trkpt lat="40.39070109776325" lon="9.711966232072879"><ele>22.0</ele><time>2026-05-04T13:12:11.001Z</time></trkpt><trkpt lat="40.39066259362629" lon="9.712174701835428"><ele>26.333333333333332</ele><time>2026-05-04T13:12:12.001Z</time></trkpt><trkpt lat="40.39062290896371" lon="9.71237954650846"><ele>30.666666666666664</ele><time>2026-05-04T13:12:13.001Z</time></trkpt><trkpt lat="40.39058681641171" lon="9.712587827204642"><ele>35.0</ele><time>2026-05-04T13:12:14.001Z</time></trkpt><trkpt lat="40.39056589405697" lon="9.712806869531038"><ele>38.0</ele><time>2026-05-04T13:12:15.001Z</time></trkpt><trkpt lat="40.390558125768955" lon="9.71302277882822"><ele>41.0</ele><time>2026-05-04T13:12:16.001Z</time></trkpt><trkpt lat="40.39053820663239" lon="9.71322221414897"><ele>44.0</ele><time>2026-05-04T13:12:17.001Z</time></trkpt><trkpt lat="40.39047134233402" lon="9.713409146392493"><ele>42.5</ele><time>2026-05-04T13:12:18.001Z</time></trkpt><trkpt lat="40.39042937040466" lon="9.713600227897622"><ele>41.0</ele><time>2026-05-04T13:12:19.001Z</time></trkpt><trkpt lat="40.390373996767515" lon="9.713763734641743"><ele>39.5</ele><time>2026-05-04T13:12:20.001Z</time></trkpt><trkpt lat="40.39032302286823" lon="9.71391241000056"><ele>38.0</ele><time>2026-05-04T13:12:21.001Z</time></trkpt><trkpt lat="40.39027387321312" lon="9.714061634276515"><ele>38.0</ele><time>2026-05-04T13:12:22.001Z</time></trkpt><trkpt lat="40.39018597405909" lon="9.714163487876347"><ele>38.0</ele><time>2026-05-04T13:12:23.001Z</time></trkpt><trkpt lat="40.390083848831345" lon="9.71421734863604"><ele>38.0</ele><time>2026-05-04T13:12:24.001Z</time></trkpt><trkpt lat="40.38997234320133" lon="9.714212371324573"><ele>38.0</ele><time>2026-05-04T13:12:25.001Z</time></trkpt><trkpt lat="40.38986692860259" lon="9.714154376119534"><ele>38.0</ele><time>2026-05-04T13:12:26.001Z</time></trkpt><trkpt lat="40.38975342569892" lon="9.714083585038262"><ele>38.0</ele><time>2026-05-04T13:12:27.001Z</time></trkpt><trkpt lat="40.38963817463405" lon="9.71403282276698"><ele>38.0</ele><time>2026-05-04T13:12:28.001Z</time></trkpt><trkpt lat="40.389522725075075" lon="9.714054921919148"><ele>38.0</ele><time>2026-05-04T13:12:29.001Z</time></trkpt><trkpt lat="40.389413325334864" lon="9.714099668944728"><ele>39.75</ele><time>2026-05-04T13:12:30.001Z</time></trkpt><trkpt lat="40.389317623152614" lon="9.714203389216115"><ele>41.5</ele><time>2026-05-04T13:12:31.001Z</time></trkpt><trkpt lat="40.389234415685806" lon="9.714327694991983"><ele>43.25</ele><time>2026-05-04T13:12:32.001Z</time></trkpt><trkpt lat="40.38914367855038" lon="9.714437173845672"><ele>45.0</ele><time>2026-05-04T13:12:33.001Z</time></trkpt><trkpt lat="40.389050100927115" lon="9.714541707412321"><ele>45.0</ele><time>2026-05-04T13:12:34.001Z</time></trkpt><trkpt lat="40.38895427791051" lon="9.714647694888704"><ele>45.0</ele><time>2026-05-04T13:12:35.001Z</time></trkpt><trkpt lat="40.38886462411975" lon="9.714769452341539"><ele>45.0</ele><time>2026-05-04T13:12:36.001Z</time></trkpt><trkpt lat="40.38880130692863" lon="9.7149068714005"><ele>45.0</ele><time>2026-05-04T13:12:37.001Z</time></trkpt><trkpt lat="40.38876744673819" lon="9.71505871936296"><ele>45.5</ele><time>2026-05-04T13:12:38.001Z</time></trkpt><trkpt lat="40.38876887981272" lon="9.71522081961654"><ele>46.0</ele><time>2026-05-04T13:12:39.001Z</time></trkpt><trkpt lat="40.388812133233095" lon="9.71538443678957"><ele>46.5</ele><time>2026-05-04T13:12:40.001Z</time></trkpt><trkpt lat="40.38887684354983" lon="9.715540645996073"><ele>47.0</ele><time>2026-05-04T13:12:41.001Z</time></trkpt><trkpt lat="40.38895187828536" lon="9.715698663443245"><ele>47.0</ele><time>2026-05-04T13:12:42.001Z</time></trkpt><trkpt lat="40.38902786422633" lon="9.715864300445247"><ele>47.0</ele><time>2026-05-04T13:12:43.001Z</time></trkpt><trkpt lat="40.389106670967365" lon="9.716046997792326"><ele>47.0</ele><time>2026-05-04T13:12:44.001Z</time></trkpt><trkpt lat="40.389199381160246" lon="9.716226516367824"><ele>48.0</ele><time>2026-05-04T13:12:45.001Z</time></trkpt><trkpt lat="40.38930696501803" lon="9.716385681461983"><ele>49.0</ele><time>2026-05-04T13:12:46.001Z</time></trkpt><trkpt lat="40.38943500684385" lon="9.716534999705525"><ele>50.0</ele><time>2026-05-04T13:12:47.001Z</time></trkpt><trkpt lat="40.38958560101521" lon="9.716674086133974"><ele>51.333333333333336</ele><time>2026-05-04T13:12:48.001Z</time></trkpt><trkpt lat="40.3897512586444" lon="9.716792979221923"><ele>52.66666666666667</ele><time>2026-05-04T13:12:49.001Z</time></trkpt><trkpt lat="40.38993396330707" lon="9.71689532254216"><ele>54.0</ele><time>2026-05-04T13:12:50.001Z</time></trkpt><trkpt lat="40.39013312266196" lon="9.716972544293265"><ele>54.66666666666667</ele><time>2026-05-04T13:12:51.001Z</time></trkpt><trkpt lat="40.39033801895533" lon="9.717025438116046"><ele>55.333333333333336</ele><time>2026-05-04T13:12:52.001Z</time></trkpt><trkpt lat="40.3905489014023" lon="9.717073054984041"><ele>56.0</ele><time>2026-05-04T13:12:53.001Z</time></trkpt><trkpt lat="40.39075277970868" lon="9.7171265810766"><ele>56.333333333333336</ele><time>2026-05-04T13:12:54.001Z</time></trkpt><trkpt lat="40.39096302482417" lon="9.717195172530966"><ele>56.66666666666667</ele><time>2026-05-04T13:12:55.001Z</time></trkpt><trkpt lat="40.39117200793838" lon="9.717268209461192"><ele>57.0</ele><time>2026-05-04T13:12:56.001Z</time></trkpt><trkpt lat="40.391396632717246" lon="9.717346263762115"><ele>57.5</ele><time>2026-05-04T13:12:57.002Z</time></trkpt><trkpt lat="40.39163187586812" lon="9.71742884574549"><ele>58.0</ele><time>2026-05-04T13:12:58.002Z</time></trkpt><trkpt lat="40.391862038710954" lon="9.717495652576403"><ele>58.0</ele><time>2026-05-04T13:12:59.002Z</time></trkpt><trkpt lat="40.392085050393966" lon="9.717560542853684"><ele>58.0</ele><time>2026-05-04T13:13:00.002Z</time></trkpt><trkpt lat="40.392305184877515" lon="9.717629306699903"><ele>59.0</ele><time>2026-05-04T13:13:01.002Z</time></trkpt><trkpt lat="40.39252124172827" lon="9.71770215891763"><ele>60.0</ele><time>2026-05-04T13:13:02.002Z</time></trkpt><trkpt lat="40.392743916819974" lon="9.71777889446985"><ele>60.5</ele><time>2026-05-04T13:13:03.002Z</time></trkpt><trkpt lat="40.392971730416946" lon="9.717845884003655"><ele>61.0</ele><time>2026-05-04T13:13:04.002Z</time></trkpt><trkpt lat="40.39320962389089" lon="9.717911220293699"><ele>61.0</ele><time>2026-05-04T13:13:05.002Z</time></trkpt><trkpt lat="40.393451254686454" lon="9.717963563621774"><ele>61.0</ele><time>2026-05-04T13:13:06.002Z</time></trkpt><trkpt lat="40.393704147964556" lon="9.717986198276174"><ele>61.0</ele><time>2026-05-04T13:13:07.002Z</time></trkpt><trkpt lat="40.39396310401708" lon="9.718002319145443"><ele>61.0</ele><time>2026-05-04T13:13:08.002Z</time></trkpt><trkpt lat="40.39422833101637" lon="9.718025564074894"><ele>61.0</ele><time>2026-05-04T13:13:09.002Z</time></trkpt><trkpt lat="40.39448976183224" lon="9.718054283714638"><ele>61.0</ele><time>2026-05-04T13:13:10.002Z</time></trkpt><trkpt lat="40.39475818386133" lon="9.718088019052118"><ele>61.5</ele><time>2026-05-04T13:13:11.002Z</time></trkpt><trkpt lat="40.39502256006437" lon="9.718120631959756"><ele>62.0</ele><time>2026-05-04T13:13:12.002Z</time></trkpt><trkpt lat="40.39529343848783" lon="9.718146681069834"><ele>62.0</ele><time>2026-05-04T13:13:13.002Z</time></trkpt><trkpt lat="40.39555989135682" lon="9.718176011847543"><ele>62.0</ele><time>2026-05-04T13:13:14.002Z</time></trkpt><trkpt lat="40.395829607153395" lon="9.718206076962886"><ele>62.0</ele><time>2026-05-04T13:13:15.002Z</time></trkpt><trkpt lat="40.39610178639913" lon="9.718236188166522"><ele>62.0</ele><time>2026-05-04T13:13:16.002Z</time></trkpt><trkpt lat="40.39636738263686" lon="9.71827046069042"><ele>62.0</ele><time>2026-05-04T13:13:17.002Z</time></trkpt><trkpt lat="40.396634462751805" lon="9.718302914316686"><ele>62.0</ele><time>2026-05-04T13:13:18Z</time></trkpt><trkpt lat="40.396904619884936" lon="9.718333770029925"><ele>63.0</ele><time>2026-05-04T13:13:19Z</time></trkpt><trkpt lat="40.397173682264594" lon="9.7183650169471"><ele>64.0</ele><time>2026-05-04T13:13:20Z</time></trkpt><trkpt lat="40.39743592579482" lon="9.718392609439643"><ele>64.0</ele><time>2026-05-04T13:13:21Z</time></trkpt><trkpt lat="40.39770420877651" lon="9.718419624589407"><ele>64.0</ele><time>2026-05-04T13:13:22Z</time></trkpt><trkpt lat="40.397963953618174" lon="9.718451777373335"><ele>64.5</ele><time>2026-05-04T13:13:23Z</time></trkpt><trkpt lat="40.39820968434381" lon="9.718483930213242"><ele>65.0</ele><time>2026-05-04T13:13:24Z</time></trkpt><trkpt lat="40.39845969476019" lon="9.71851106588675"><ele>65.0</ele><time>2026-05-04T13:13:25Z</time></trkpt><trkpt lat="40.398706015657446" lon="9.718540641194046"><ele>65.0</ele><time>2026-05-04T13:13:26Z</time></trkpt><trkpt lat="40.39895208925693" lon="9.718568717501554"><ele>65.5</ele><time>2026-05-04T13:13:27Z</time></trkpt><trkpt lat="40.399191818288315" lon="9.7185958232251"><ele>66.0</ele><time>2026-05-04T13:13:28Z</time></trkpt><trkpt lat="40.39943570793477" lon="9.718621126849252"><ele>66.5</ele><time>2026-05-04T13:13:29Z</time></trkpt><trkpt lat="40.39967812134714" lon="9.7186520160166"><ele>67.0</ele><time>2026-05-04T13:13:30Z</time></trkpt><trkpt lat="40.39991628932259" lon="9.71867571968581"><ele>67.0</ele><time>2026-05-04T13:13:31Z</time></trkpt><trkpt lat="40.40015275666797" lon="9.718702586154842"><ele>67.0</ele><time>2026-05-04T13:13:32Z</time></trkpt><trkpt lat="40.40039164866906" lon="9.718730258255974"><ele>67.5</ele><time>2026-05-04T13:13:33Z</time></trkpt><trkpt lat="40.400628741873376" lon="9.718763224849578"><ele>68.0</ele><time>2026-05-04T13:13:34Z</time></trkpt><trkpt lat="40.40086648452702" lon="9.718790915012915"><ele>68.0</ele><time>2026-05-04T13:13:35Z</time></trkpt><trkpt lat="40.40110080573933" lon="9.718816651987398"><ele>68.0</ele><time>2026-05-04T13:13:36Z</time></trkpt><trkpt lat="40.4013398767941" lon="9.718845089067182"><ele>68.5</ele><time>2026-05-04T13:13:37Z</time></trkpt><trkpt lat="40.401578983795986" lon="9.718871679078475"><ele>69.0</ele><time>2026-05-04T13:13:38Z</time></trkpt><trkpt lat="40.40181061784649" lon="9.718898060617555"><ele>69.0</ele><time>2026-05-04T13:13:39Z</time></trkpt><trkpt lat="40.40204316001054" lon="9.718924433441106"><ele>69.0</ele><time>2026-05-04T13:13:40Z</time></trkpt><trkpt lat="40.40227523120815" lon="9.718957592390053"><ele>69.5</ele><time>2026-05-04T13:13:41Z</time></trkpt><trkpt lat="40.402506690685634" lon="9.718983176691037"><ele>70.0</ele><time>2026-05-04T13:13:42Z</time></trkpt><trkpt lat="40.40272577579244" lon="9.719010378370376"><ele>70.0</ele><time>2026-05-04T13:13:43Z</time></trkpt><trkpt lat="40.40293834992862" lon="9.71903625697837"><ele>70.0</ele><time>2026-05-04T13:13:44Z</time></trkpt><trkpt lat="40.403150862991914" lon="9.719051953100786"><ele>70.0</ele><time>2026-05-04T13:13:45Z</time></trkpt><trkpt lat="40.40337095949244" lon="9.719071335956494"><ele>70.66666666666666</ele><time>2026-05-04T13:13:46Z</time></trkpt><trkpt lat="40.403596023932245" lon="9.719100005716067"><ele>71.33333333333333</ele><time>2026-05-04T13:13:47Z</time></trkpt><trkpt lat="40.403815150195356" lon="9.719125072767403"><ele>72.0</ele><time>2026-05-04T13:13:48Z</time></trkpt><trkpt lat="40.40404653027156" lon="9.719140267667596"><ele>72.0</ele><time>2026-05-04T13:13:49Z</time></trkpt><trkpt lat="40.40432018694838" lon="9.71915860004402"><ele>72.0</ele><time>2026-05-04T13:13:50Z</time></trkpt><trkpt lat="40.40462329147645" lon="9.719194341327208"><ele>72.0</ele><time>2026-05-04T13:13:51Z</time></trkpt><trkpt lat="40.404912023630494" lon="9.719245404295306"><ele>72.0</ele><time>2026-05-04T13:13:52Z</time></trkpt><trkpt lat="40.40516702191488" lon="9.719252175049345"><ele>72.0</ele><time>2026-05-04T13:13:53Z</time></trkpt><trkpt lat="40.40538562858886" lon="9.719332995142874"><ele>72.0</ele><time>2026-05-04T13:13:54Z</time></trkpt><trkpt lat="40.40558257807823" lon="9.719473977209814"><ele>72.0</ele><time>2026-05-04T13:13:55Z</time></trkpt><trkpt lat="40.40573497673774" lon="9.719687101786162"><ele>72.0</ele><time>2026-05-04T13:13:56Z</time></trkpt><trkpt lat="40.40586600189073" lon="9.7199521258591"><ele>72.0</ele><time>2026-05-04T13:13:57Z</time></trkpt><trkpt lat="40.4060210051607" lon="9.720239456376207"><ele>72.0</ele><time>2026-05-04T13:13:58Z</time></trkpt><trkpt lat="40.40619573118075" lon="9.7205085864908"><ele>74.0</ele><time>2026-05-04T13:13:59Z</time></trkpt><trkpt lat="40.40637051848955" lon="9.720802450978823"><ele>76.0</ele><time>2026-05-04T13:14:00Z</time></trkpt><trkpt lat="40.40654113181493" lon="9.721088699041976"><ele>76.0</ele><time>2026-05-04T13:14:01.001Z</time></trkpt><trkpt lat="40.406712901217" lon="9.721358339560433"><ele>76.0</ele><time>2026-05-04T13:14:02.001Z</time></trkpt><trkpt lat="40.40688206186628" lon="9.72161970879533"><ele>76.0</ele><time>2026-05-04T13:14:03.001Z</time></trkpt><trkpt lat="40.40704996436818" lon="9.72189409187188"><ele>76.0</ele><time>2026-05-04T13:14:04.001Z</time></trkpt><trkpt lat="40.407216427050955" lon="9.722161553670336"><ele>77.0</ele><time>2026-05-04T13:14:05.001Z</time></trkpt><trkpt lat="40.40738219811962" lon="9.722418352363167"><ele>78.0</ele><time>2026-05-04T13:14:06.001Z</time></trkpt><trkpt lat="40.4075480144185" lon="9.72267933948573"><ele>78.0</ele><time>2026-05-04T13:14:07.001Z</time></trkpt><trkpt lat="40.40770798560011" lon="9.722940404539003"><ele>78.0</ele><time>2026-05-04T13:14:08.001Z</time></trkpt><trkpt lat="40.40787142770467" lon="9.72320412011208"><ele>79.5</ele><time>2026-05-04T13:14:09.001Z</time></trkpt><trkpt lat="40.40803553543688" lon="9.723468521802944"><ele>81.0</ele><time>2026-05-04T13:14:10.001Z</time></trkpt><trkpt lat="40.40819699779022" lon="9.723734518290991"><ele>81.5</ele><time>2026-05-04T13:14:11.001Z</time></trkpt><trkpt lat="40.408363951424434" lon="9.723995368822038"><ele>82.0</ele><time>2026-05-04T13:14:12.001Z</time></trkpt><trkpt lat="40.40852402732086" lon="9.724254893203135"><ele>82.0</ele><time>2026-05-04T13:14:13.001Z</time></trkpt><trkpt lat="40.408693188225165" lon="9.724512632265087"><ele>82.0</ele><time>2026-05-04T13:14:14.001Z</time></trkpt><trkpt lat="40.408863636095816" lon="9.724776119046664"><ele>83.5</ele><time>2026-05-04T13:14:15.001Z</time></trkpt><trkpt lat="40.409039027851755" lon="9.725058573408244"><ele>85.0</ele><time>2026-05-04T13:14:16.001Z</time></trkpt><trkpt lat="40.409231193542254" lon="9.725355030344888"><ele>85.0</ele><time>2026-05-04T13:14:17.001Z</time></trkpt><trkpt lat="40.40942460261115" lon="9.725665840943556"><ele>85.0</ele><time>2026-05-04T13:14:18.001Z</time></trkpt><trkpt lat="40.40958838085272" lon="9.725950761156122"><ele>86.5</ele><time>2026-05-04T13:14:19.001Z</time></trkpt><trkpt lat="40.40974969696854" lon="9.726220365444432"><ele>88.0</ele><time>2026-05-04T13:14:20.001Z</time></trkpt><trkpt lat="40.409906589102725" lon="9.726476458913972"><ele>88.0</ele><time>2026-05-04T13:14:21.001Z</time></trkpt><trkpt lat="40.410062142840765" lon="9.72673498073137"><ele>88.0</ele><time>2026-05-04T13:14:22.001Z</time></trkpt><trkpt lat="40.41021380870042" lon="9.726988348704111"><ele>88.0</ele><time>2026-05-04T13:14:23.001Z</time></trkpt><trkpt lat="40.410363225731096" lon="9.727245684300886"><ele>88.0</ele><time>2026-05-04T13:14:24.001Z</time></trkpt><trkpt lat="40.410513492652534" lon="9.727504222665827"><ele>87.5</ele><time>2026-05-04T13:14:25.001Z</time></trkpt><trkpt lat="40.4106612598594" lon="9.72775200280975"><ele>87.0</ele><time>2026-05-04T13:14:26.001Z</time></trkpt><trkpt lat="40.410815557838745" lon="9.728000418749605"><ele>87.0</ele><time>2026-05-04T13:14:27.001Z</time></trkpt><trkpt lat="40.41096550614897" lon="9.728242975650078"><ele>87.0</ele><time>2026-05-04T13:14:28.001Z</time></trkpt><trkpt lat="40.41112465807712" lon="9.728491628199366"><ele>87.0</ele><time>2026-05-04T13:14:29.001Z</time></trkpt><trkpt lat="40.41127975652621" lon="9.728743216257277"><ele>87.0</ele><time>2026-05-04T13:14:30.001Z</time></trkpt><trkpt lat="40.41143840121071" lon="9.729001497676295"><ele>87.5</ele><time>2026-05-04T13:14:31.001Z</time></trkpt><trkpt lat="40.41159447711082" lon="9.729269132862598"><ele>88.0</ele><time>2026-05-04T13:14:32.001Z</time></trkpt><trkpt lat="40.41173889897743" lon="9.72955222821045"><ele>87.0</ele><time>2026-05-04T13:14:33.001Z</time></trkpt><trkpt lat="40.41188670210001" lon="9.729844557182298"><ele>86.0</ele><time>2026-05-04T13:14:34.001Z</time></trkpt><trkpt lat="40.41202924443499" lon="9.730138839748228"><ele>87.0</ele><time>2026-05-04T13:14:35.001Z</time></trkpt><trkpt lat="40.412168609556225" lon="9.7304404934226"><ele>88.0</ele><time>2026-05-04T13:14:36.001Z</time></trkpt><trkpt lat="40.412306097751056" lon="9.730739715271543"><ele>88.0</ele><time>2026-05-04T13:14:37.001Z</time></trkpt><trkpt lat="40.41244246994468" lon="9.731028919424695"><ele>88.0</ele><time>2026-05-04T13:14:38.001Z</time></trkpt><trkpt lat="40.41257600461524" lon="9.731322204439978"><ele>88.0</ele><time>2026-05-04T13:14:39.001Z</time></trkpt><trkpt lat="40.4127120046416" lon="9.731619157267085"><ele>88.0</ele><time>2026-05-04T13:14:40.001Z</time></trkpt><trkpt lat="40.412845640531934" lon="9.7319113163474"><ele>86.5</ele><time>2026-05-04T13:14:41.001Z</time></trkpt><trkpt lat="40.41298416615118" lon="9.732205614844862"><ele>85.0</ele><time>2026-05-04T13:14:42.001Z</time></trkpt><trkpt lat="40.41312469611053" lon="9.732504350216006"><ele>84.5</ele><time>2026-05-04T13:14:43.001Z</time></trkpt><trkpt lat="40.413265172608895" lon="9.73280865286194"><ele>84.0</ele><time>2026-05-04T13:14:44.001Z</time></trkpt><trkpt lat="40.41340089943464" lon="9.733102799461141"><ele>84.0</ele><time>2026-05-04T13:14:45.001Z</time></trkpt><trkpt lat="40.41354189542039" lon="9.733408959492877"><ele>84.0</ele><time>2026-05-04T13:14:46.001Z</time></trkpt><trkpt lat="40.41368422996861" lon="9.733712177146785"><ele>84.5</ele><time>2026-05-04T13:14:47.001Z</time></trkpt><trkpt lat="40.41382310528917" lon="9.734011843259767"><ele>85.0</ele><time>2026-05-04T13:14:48.001Z</time></trkpt><trkpt lat="40.413966277016215" lon="9.734317706572861"><ele>84.5</ele><time>2026-05-04T13:14:49.001Z</time></trkpt><trkpt lat="40.414108436665025" lon="9.734623709168112"><ele>84.0</ele><time>2026-05-04T13:14:50.001Z</time></trkpt><trkpt lat="40.414251651692695" lon="9.734931078361273"><ele>82.5</ele><time>2026-05-04T13:14:51.001Z</time></trkpt><trkpt lat="40.41439545657482" lon="9.735243242725987"><ele>81.0</ele><time>2026-05-04T13:14:52.001Z</time></trkpt><trkpt lat="40.41454299482967" lon="9.73554589997695"><ele>82.0</ele><time>2026-05-04T13:14:53.001Z</time></trkpt><trkpt lat="40.41468430209563" lon="9.735847858880742"><ele>83.0</ele><time>2026-05-04T13:14:54.002Z</time></trkpt><trkpt lat="40.41482583009977" lon="9.736151780990825"><ele>83.0</ele><time>2026-05-04T13:14:55.002Z</time></trkpt><trkpt lat="40.41496794479956" lon="9.73645790352222"><ele>83.0</ele><time>2026-05-04T13:14:56.002Z</time></trkpt><trkpt lat="40.415109852471474" lon="9.736764399774922"><ele>82.0</ele><time>2026-05-04T13:14:57.002Z</time></trkpt><trkpt lat="40.415254460014566" lon="9.737072941671284"><ele>81.0</ele><time>2026-05-04T13:14:58.002Z</time></trkpt><trkpt lat="40.41539611124062" lon="9.737378569578121"><ele>81.5</ele><time>2026-05-04T13:14:59.002Z</time></trkpt><trkpt lat="40.4155410960684" lon="9.737689933585907"><ele>82.0</ele><time>2026-05-04T13:15:00.002Z</time></trkpt><trkpt lat="40.41568437252471" lon="9.737997799238657"><ele>81.0</ele><time>2026-05-04T13:15:01.002Z</time></trkpt><trkpt lat="40.41582851357316" lon="9.738310955100975"><ele>80.0</ele><time>2026-05-04T13:15:02.002Z</time></trkpt><trkpt lat="40.41597188144688" lon="9.738619521419539"><ele>79.5</ele><time>2026-05-04T13:15:03.002Z</time></trkpt><trkpt lat="40.41610921030586" lon="9.738928582395175"><ele>79.0</ele><time>2026-05-04T13:15:04.002Z</time></trkpt><trkpt lat="40.41625112740002" lon="9.739234393294359"><ele>79.0</ele><time>2026-05-04T13:15:05.002Z</time></trkpt><trkpt lat="40.4163895946411" lon="9.739535356860792"><ele>79.0</ele><time>2026-05-04T13:15:06.002Z</time></trkpt><trkpt lat="40.41652937171563" lon="9.739836479431089"><ele>79.0</ele><time>2026-05-04T13:15:07.002Z</time></trkpt><trkpt lat="40.4166650128865" lon="9.740137295494355"><ele>79.0</ele><time>2026-05-04T13:15:08.002Z</time></trkpt><trkpt lat="40.416801288512275" lon="9.740434072203577"><ele>78.0</ele><time>2026-05-04T13:15:09.002Z</time></trkpt><trkpt lat="40.416940911466575" lon="9.74073043131546"><ele>77.0</ele><time>2026-05-04T13:15:10.002Z</time></trkpt><trkpt lat="40.4170822380206" lon="9.741028401692128"><ele>77.0</ele><time>2026-05-04T13:15:11.002Z</time></trkpt><trkpt lat="40.41722707345888" lon="9.74132877765604"><ele>77.0</ele><time>2026-05-04T13:15:12.002Z</time></trkpt><trkpt lat="40.41736379748545" lon="9.741623420268898"><ele>76.0</ele><time>2026-05-04T13:15:13.002Z</time></trkpt><trkpt lat="40.41750241488977" lon="9.741926152797452"><ele>75.0</ele><time>2026-05-04T13:15:14.002Z</time></trkpt><trkpt lat="40.41763838282045" lon="9.74222005857693"><ele>75.0</ele><time>2026-05-04T13:15:15.002Z</time></trkpt><trkpt lat="40.41777520548455" lon="9.742509806595493"><ele>75.0</ele><time>2026-05-04T13:15:16.002Z</time></trkpt><trkpt lat="40.417906451997645" lon="9.742798902324072"><ele>75.5</ele><time>2026-05-04T13:15:17.002Z</time></trkpt><trkpt lat="40.41804097703943" lon="9.743090521010027"><ele>76.0</ele><time>2026-05-04T13:15:18.002Z</time></trkpt><trkpt lat="40.41817441885401" lon="9.743385978643353"><ele>75.5</ele><time>2026-05-04T13:15:19.002Z</time></trkpt><trkpt lat="40.418306130773175" lon="9.743674836164308"><ele>75.0</ele><time>2026-05-04T13:15:20.002Z</time></trkpt><trkpt lat="40.418441088957394" lon="9.743966583651531"><ele>75.0</ele><time>2026-05-04T13:15:21.002Z</time></trkpt><trkpt lat="40.41857557319583" lon="9.744252787271202"><ele>75.0</ele><time>2026-05-04T13:15:22.002Z</time></trkpt><trkpt lat="40.41870573588788" lon="9.744546382293414"><ele>75.5</ele><time>2026-05-04T13:15:23.002Z</time></trkpt><trkpt lat="40.41884006895941" lon="9.744832959349152"><ele>76.0</ele><time>2026-05-04T13:15:24.001Z</time></trkpt><trkpt lat="40.41897991561419" lon="9.745104624901971"><ele>75.0</ele><time>2026-05-04T13:15:25.001Z</time></trkpt><trkpt lat="40.4191418023845" lon="9.745364704821327"><ele>74.0</ele><time>2026-05-04T13:15:26.001Z</time></trkpt><trkpt lat="40.41931827353752" lon="9.745607602653614"><ele>74.0</ele><time>2026-05-04T13:15:27.001Z</time></trkpt><trkpt lat="40.41951052257585" lon="9.74584525316526"><ele>74.0</ele><time>2026-05-04T13:15:28.001Z</time></trkpt><trkpt lat="40.41970436996497" lon="9.74608349683727"><ele>72.0</ele><time>2026-05-04T13:15:29.001Z</time></trkpt><trkpt lat="40.4198806915558" lon="9.746318268720815"><ele>70.0</ele><time>2026-05-04T13:15:30.001Z</time></trkpt><trkpt lat="40.420056697663654" lon="9.74654486799456"><ele>70.0</ele><time>2026-05-04T13:15:31.001Z</time></trkpt><trkpt lat="40.42022477164737" lon="9.746764730476905"><ele>70.0</ele><time>2026-05-04T13:15:32.001Z</time></trkpt><trkpt lat="40.42038725651275" lon="9.746984384483016"><ele>67.0</ele><time>2026-05-04T13:15:33.001Z</time></trkpt><trkpt lat="40.42051679370596" lon="9.74722453739956"><ele>64.0</ele><time>2026-05-04T13:15:34.001Z</time></trkpt><trkpt lat="40.42062251148783" lon="9.747474559163217"><ele>61.0</ele><time>2026-05-04T13:15:35.001Z</time></trkpt><trkpt lat="40.42072921946534" lon="9.747690202506694"><ele>62.0</ele><time>2026-05-04T13:15:36.001Z</time></trkpt><trkpt lat="40.420864703759676" lon="9.747842465325364"><ele>63.0</ele><time>2026-05-04T13:15:37.001Z</time></trkpt><trkpt lat="40.42101088541439" lon="9.747941187827164"><ele>64.0</ele><time>2026-05-04T13:15:38.001Z</time></trkpt><trkpt lat="40.421147950725135" lon="9.74800271211973"><ele>64.0</ele><time>2026-05-04T13:15:39.001Z</time></trkpt><trkpt lat="40.42127041124126" lon="9.748055687284054"><ele>64.0</ele><time>2026-05-04T13:15:40.001Z</time></trkpt><trkpt lat="40.42137746157619" lon="9.74816797570719"><ele>64.0</ele><time>2026-05-04T13:15:41.001Z</time></trkpt><trkpt lat="40.421436914674956" lon="9.748309641380827"><ele>64.0</ele><time>2026-05-04T13:15:42.001Z</time></trkpt><trkpt lat="40.42139941316855" lon="9.748495369497718"><ele>62.33333333333333</ele><time>2026-05-04T13:15:43.001Z</time></trkpt><trkpt lat="40.42136313972005" lon="9.748699252590654"><ele>60.66666666666667</ele><time>2026-05-04T13:15:44.001Z</time></trkpt><trkpt lat="40.42129255885332" lon="9.748926035277082"><ele>59.0</ele><time>2026-05-04T13:15:45.001Z</time></trkpt><trkpt lat="40.42127775658997" lon="9.749155348337997"><ele>58.0</ele><time>2026-05-04T13:15:46.001Z</time></trkpt><trkpt lat="40.42129903950499" lon="9.749392200610176"><ele>57.0</ele><time>2026-05-04T13:15:47.001Z</time></trkpt><trkpt lat="40.4213481364728" lon="9.749641595973623"><ele>56.0</ele><time>2026-05-04T13:15:48.001Z</time></trkpt><trkpt lat="40.42140980189909" lon="9.749908019104396"><ele>56.0</ele><time>2026-05-04T13:15:49.001Z</time></trkpt><trkpt lat="40.42149613795918" lon="9.75016174898933"><ele>56.0</ele><time>2026-05-04T13:15:50.001Z</time></trkpt><trkpt lat="40.42160430374715" lon="9.750409122425017"><ele>56.0</ele><time>2026-05-04T13:15:51.001Z</time></trkpt><trkpt lat="40.42171560670962" lon="9.750664622134346"><ele>54.66666666666667</ele><time>2026-05-04T13:15:52.001Z</time></trkpt><trkpt lat="40.42181450665055" lon="9.750923523411087"><ele>53.33333333333333</ele><time>2026-05-04T13:15:53.001Z</time></trkpt><trkpt lat="40.42191305052887" lon="9.751183781565981"><ele>52.0</ele><time>2026-05-04T13:15:54.001Z</time></trkpt><trkpt lat="40.42200475423068" lon="9.751441105659316"><ele>53.666666666666664</ele><time>2026-05-04T13:15:55.001Z</time></trkpt><trkpt lat="40.42208794835024" lon="9.751711591694153"><ele>55.33333333333333</ele><time>2026-05-04T13:15:56.001Z</time></trkpt><trkpt lat="40.4221439726502" lon="9.751987155990271"><ele>57.0</ele><time>2026-05-04T13:15:57.001Z</time></trkpt><trkpt lat="40.42218423149672" lon="9.752260780802844"><ele>57.0</ele><time>2026-05-04T13:15:58.001Z</time></trkpt><trkpt lat="40.4222146270218" lon="9.752541085215196"><ele>57.0</ele><time>2026-05-04T13:15:59.001Z</time></trkpt><trkpt lat="40.422225708151494" lon="9.752824125755653"><ele>57.0</ele><time>2026-05-04T13:16:00.001Z</time></trkpt><trkpt lat="40.42222510696354" lon="9.75311629311075"><ele>56.5</ele><time>2026-05-04T13:16:01.001Z</time></trkpt><trkpt lat="40.42222869616696" lon="9.753416787230242"><ele>56.0</ele><time>2026-05-04T13:16:02.001Z</time></trkpt><trkpt lat="40.422241091376556" lon="9.753728845360309"><ele>56.0</ele><time>2026-05-04T13:16:03.001Z</time></trkpt><trkpt lat="40.42224143654717" lon="9.754038375193135"><ele>56.0</ele><time>2026-05-04T13:16:04.001Z</time></trkpt><trkpt lat="40.42225577269786" lon="9.754359071128887"><ele>54.5</ele><time>2026-05-04T13:16:05.001Z</time></trkpt><trkpt lat="40.422261441142005" lon="9.754680983835243"><ele>53.0</ele><time>2026-05-04T13:16:06.001Z</time></trkpt><trkpt lat="40.42227035185416" lon="9.754991328157212"><ele>52.0</ele><time>2026-05-04T13:16:07.001Z</time></trkpt><trkpt lat="40.42228199812679" lon="9.755319133316204"><ele>51.0</ele><time>2026-05-04T13:16:08.001Z</time></trkpt><trkpt lat="40.42228855564059" lon="9.755639639654996"><ele>51.0</ele><time>2026-05-04T13:16:09.001Z</time></trkpt><trkpt lat="40.422300748198815" lon="9.755972169139978"><ele>51.0</ele><time>2026-05-04T13:16:10.001Z</time></trkpt><trkpt lat="40.42230660379849" lon="9.756300939551474"><ele>51.0</ele><time>2026-05-04T13:16:11.001Z</time></trkpt><trkpt lat="40.42231340983135" lon="9.756630906423052"><ele>51.0</ele><time>2026-05-04T13:16:12.001Z</time></trkpt><trkpt lat="40.422320956225136" lon="9.756966636443295"><ele>50.0</ele><time>2026-05-04T13:16:13.001Z</time></trkpt><trkpt lat="40.42233110952915" lon="9.757305633834177"><ele>49.0</ele><time>2026-05-04T13:16:14.001Z</time></trkpt><trkpt lat="40.42234005604993" lon="9.757640011089"><ele>49.0</ele><time>2026-05-04T13:16:15.001Z</time></trkpt><trkpt lat="40.422352157607314" lon="9.757979786005018"><ele>49.0</ele><time>2026-05-04T13:16:16.001Z</time></trkpt><trkpt lat="40.42235788971315" lon="9.758312243906982"><ele>49.0</ele><time>2026-05-04T13:16:17.001Z</time></trkpt><trkpt lat="40.42236232200983" lon="9.758654376482031"><ele>49.0</ele><time>2026-05-04T13:16:18.001Z</time></trkpt><trkpt lat="40.422367440648046" lon="9.758999606398872"><ele>49.0</ele><time>2026-05-04T13:16:19.001Z</time></trkpt><trkpt lat="40.422378488022964" lon="9.75933622481957"><ele>49.0</ele><time>2026-05-04T13:16:20.001Z</time></trkpt><trkpt lat="40.4223888589012" lon="9.75967250219787"><ele>49.0</ele><time>2026-05-04T13:16:21.001Z</time></trkpt><trkpt lat="40.42239784840628" lon="9.760008492780736"><ele>49.0</ele><time>2026-05-04T13:16:22.001Z</time></trkpt><trkpt lat="40.422405670835374" lon="9.760335734163773"><ele>49.0</ele><time>2026-05-04T13:16:23.001Z</time></trkpt><trkpt lat="40.42241184711138" lon="9.760658094041176"><ele>49.0</ele><time>2026-05-04T13:16:24.001Z</time></trkpt><trkpt lat="40.42242181814046" lon="9.760952066608567"><ele>49.33333333333333</ele><time>2026-05-04T13:16:25.001Z</time></trkpt><trkpt lat="40.4224295644533" lon="9.76123307298925"><ele>49.66666666666667</ele><time>2026-05-04T13:16:26.001Z</time></trkpt><trkpt lat="40.42244057408783" lon="9.761509603122688"><ele>50.0</ele><time>2026-05-04T13:16:27.001Z</time></trkpt><trkpt lat="40.422451818141404" lon="9.761791081463683"><ele>50.0</ele><time>2026-05-04T13:16:28.001Z</time></trkpt><trkpt lat="40.42247696614667" lon="9.762079657644625"><ele>50.0</ele><time>2026-05-04T13:16:29.001Z</time></trkpt><trkpt lat="40.42254197668613" lon="9.76235719882373"><ele>50.0</ele><time>2026-05-04T13:16:30.001Z</time></trkpt><trkpt lat="40.4226480332102" lon="9.762618218427273"><ele>49.0</ele><time>2026-05-04T13:16:31.001Z</time></trkpt><trkpt lat="40.4227854486853" lon="9.762864585764154"><ele>48.0</ele><time>2026-05-04T13:16:32.001Z</time></trkpt><trkpt lat="40.42294754699819" lon="9.763094570543231"><ele>48.0</ele><time>2026-05-04T13:16:33.001Z</time></trkpt><trkpt lat="40.42310913819349" lon="9.763334189963087"><ele>48.0</ele><time>2026-05-04T13:16:34.001Z</time></trkpt><trkpt lat="40.423268128467086" lon="9.763570173088942"><ele>48.0</ele><time>2026-05-04T13:16:35.001Z</time></trkpt><trkpt lat="40.42343391645939" lon="9.763814224687907"><ele>48.0</ele><time>2026-05-04T13:16:36.001Z</time></trkpt><trkpt lat="40.4235992927124" lon="9.764061718925202"><ele>48.0</ele><time>2026-05-04T13:16:37.001Z</time></trkpt><trkpt lat="40.4237645350326" lon="9.764308026871513"><ele>48.0</ele><time>2026-05-04T13:16:38.001Z</time></trkpt><trkpt lat="40.423931239050006" lon="9.764553563117648"><ele>46.5</ele><time>2026-05-04T13:16:39.001Z</time></trkpt><trkpt lat="40.42409515982422" lon="9.764813479604639"><ele>45.0</ele><time>2026-05-04T13:16:40.001Z</time></trkpt><trkpt lat="40.424261003717" lon="9.765066733007012"><ele>45.0</ele><time>2026-05-04T13:16:41.001Z</time></trkpt><trkpt lat="40.42442626022963" lon="9.765317149778825"><ele>45.0</ele><time>2026-05-04T13:16:42.001Z</time></trkpt><trkpt lat="40.424578544140495" lon="9.765548939400446"><ele>44.0</ele><time>2026-05-04T13:16:43.001Z</time></trkpt><trkpt lat="40.424735979444954" lon="9.765793193295314"><ele>43.0</ele><time>2026-05-04T13:16:44.001Z</time></trkpt><trkpt lat="40.424897309257176" lon="9.766043474162146"><ele>43.0</ele><time>2026-05-04T13:16:45.001Z</time></trkpt><trkpt lat="40.42505756735157" lon="9.766291193061463"><ele>43.0</ele><time>2026-05-04T13:16:46.001Z</time></trkpt><trkpt lat="40.425218542411024" lon="9.76654059388138"><ele>43.0</ele><time>2026-05-04T13:16:47.001Z</time></trkpt><trkpt lat="40.4253847687351" lon="9.766791293969241"><ele>43.0</ele><time>2026-05-04T13:16:48.002Z</time></trkpt><trkpt lat="40.425549400978134" lon="9.767041528154527"><ele>43.0</ele><time>2026-05-04T13:16:49.002Z</time></trkpt><trkpt lat="40.425701102113685" lon="9.767280214874148"><ele>43.0</ele><time>2026-05-04T13:16:50.002Z</time></trkpt><trkpt lat="40.42585427258361" lon="9.767508461933359"><ele>42.66666666666667</ele><time>2026-05-04T13:16:51.002Z</time></trkpt><trkpt lat="40.42600398957524" lon="9.767728646280656"><ele>42.333333333333336</ele><time>2026-05-04T13:16:52.002Z</time></trkpt><trkpt lat="40.426162608475146" lon="9.767918538429585"><ele>42.0</ele><time>2026-05-04T13:16:53.002Z</time></trkpt><trkpt lat="40.426346079141034" lon="9.768090368090727"><ele>41.0</ele><time>2026-05-04T13:16:54.002Z</time></trkpt><trkpt lat="40.426543302467245" lon="9.76824615455582"><ele>40.0</ele><time>2026-05-04T13:16:55.002Z</time></trkpt><trkpt lat="40.426729488639296" lon="9.768386947849244"><ele>39.0</ele><time>2026-05-04T13:16:56.002Z</time></trkpt><trkpt lat="40.42690337467266" lon="9.76851359806644"><ele>38.25</ele><time>2026-05-04T13:16:57.002Z</time></trkpt><trkpt lat="40.42705189959722" lon="9.768612875664648"><ele>37.5</ele><time>2026-05-04T13:16:58.002Z</time></trkpt><trkpt lat="40.42718344630615" lon="9.768650599218216"><ele>36.75</ele><time>2026-05-04T13:16:59.002Z</time></trkpt><trkpt lat="40.427301491637365" lon="9.768624293836137"><ele>36.0</ele><time>2026-05-04T13:17:00.002Z</time></trkpt><trkpt lat="40.427396393571804" lon="9.76851361038459"><ele>36.0</ele><time>2026-05-04T13:17:01.002Z</time></trkpt><trkpt lat="40.42746982983729" lon="9.768327427189073"><ele>36.0</ele><time>2026-05-04T13:17:02.002Z</time></trkpt><trkpt lat="40.427572317641875" lon="9.768141892555331"><ele>36.0</ele><time>2026-05-04T13:17:03.002Z</time></trkpt><trkpt lat="40.427728896244375" lon="9.768007628985206"><ele>36.0</ele><time>2026-05-04T13:17:04.002Z</time></trkpt><trkpt lat="40.427932930498734" lon="9.767911817339407"><ele>36.0</ele><time>2026-05-04T13:17:05.002Z</time></trkpt><trkpt lat="40.42812120060724" lon="9.767843360025513"><ele>36.0</ele><time>2026-05-04T13:17:06.002Z</time></trkpt><trkpt lat="40.42832143540351" lon="9.76781643855358"><ele>33.0</ele><time>2026-05-04T13:17:07.002Z</time></trkpt><trkpt lat="40.428541423323146" lon="9.767839154580608"><ele>30.0</ele><time>2026-05-04T13:17:08.002Z</time></trkpt><trkpt lat="40.42876614653717" lon="9.76789000411024"><ele>27.0</ele><time>2026-05-04T13:17:09.002Z</time></trkpt><trkpt lat="40.4289928525845" lon="9.767927966879043"><ele>25.666666666666668</ele><time>2026-05-04T13:17:10.002Z</time></trkpt><trkpt lat="40.42921360042586" lon="9.767936519318761"><ele>24.333333333333336</ele><time>2026-05-04T13:17:11.002Z</time></trkpt><trkpt lat="40.429425458621154" lon="9.767904324408288"><ele>23.0</ele><time>2026-05-04T13:17:12.002Z</time></trkpt><trkpt lat="40.429631738055726" lon="9.767832544165522"><ele>22.5</ele><time>2026-05-04T13:17:13.002Z</time></trkpt><trkpt lat="40.42983705437283" lon="9.767726111689583"><ele>22.0</ele><time>2026-05-04T13:17:14.002Z</time></trkpt><trkpt lat="40.43004546361983" lon="9.767593872998537"><ele>22.0</ele><time>2026-05-04T13:17:15.002Z</time></trkpt><trkpt lat="40.43025905719935" lon="9.767456905199055"><ele>22.0</ele><time>2026-05-04T13:17:16.002Z</time></trkpt><trkpt lat="40.43046824860157" lon="9.767303444611445"><ele>16.5</ele><time>2026-05-04T13:17:17.002Z</time></trkpt><trkpt lat="40.43066305222592" lon="9.767128263133547"><ele>11.0</ele><time>2026-05-04T13:17:18.002Z</time></trkpt><trkpt lat="40.430855736205125" lon="9.766931902701302"><ele>15.5</ele><time>2026-05-04T13:17:19.002Z</time></trkpt><trkpt lat="40.43105020913749" lon="9.766727530453148"><ele>20.0</ele><time>2026-05-04T13:17:20.002Z</time></trkpt><trkpt lat="40.43123772106369" lon="9.766510702800248"><ele>16.0</ele><time>2026-05-04T13:17:21.002Z</time></trkpt><trkpt lat="40.431420952787754" lon="9.766294135830638"><ele>12.0</ele><time>2026-05-04T13:17:22.002Z</time></trkpt><trkpt lat="40.431629909236015" lon="9.766106557737006"><ele>12.5</ele><time>2026-05-04T13:17:23.002Z</time></trkpt><trkpt lat="40.431856474090175" lon="9.765974297113718"><ele>13.0</ele><time>2026-05-04T13:17:24.002Z</time></trkpt><trkpt lat="40.43210203727361" lon="9.765875778962087"><ele>13.0</ele><time>2026-05-04T13:17:25.002Z</time></trkpt><trkpt lat="40.43232706896786" lon="9.765779904722761"><ele>13.0</ele><time>2026-05-04T13:17:26.002Z</time></trkpt><trkpt lat="40.4325519490328" lon="9.76567472163995"><ele>13.0</ele><time>2026-05-04T13:17:27.002Z</time></trkpt><trkpt lat="40.432774543799106" lon="9.765576091826233"><ele>13.0</ele><time>2026-05-04T13:17:28.002Z</time></trkpt><trkpt lat="40.433005763785616" lon="9.765469621508899"><ele>11.5</ele><time>2026-05-04T13:17:29.002Z</time></trkpt><trkpt lat="40.43324429795803" lon="9.765372168051446"><ele>10.0</ele><time>2026-05-04T13:17:30Z</time></trkpt><trkpt lat="40.43347086658621" lon="9.765278530647192"><ele>10.333333333333334</ele><time>2026-05-04T13:17:31Z</time></trkpt><trkpt lat="40.433688927258935" lon="9.765184735820888"><ele>10.666666666666666</ele><time>2026-05-04T13:17:32Z</time></trkpt><trkpt lat="40.433891933518915" lon="9.765089291932334"><ele>11.0</ele><time>2026-05-04T13:17:33Z</time></trkpt><trkpt lat="40.43408865485891" lon="9.765001650681164"><ele>11.0</ele><time>2026-05-04T13:17:34Z</time></trkpt><trkpt lat="40.43427708828951" lon="9.76493208230895"><ele>11.0</ele><time>2026-05-04T13:17:35Z</time></trkpt><trkpt lat="40.43446411671749" lon="9.764892067360513"><ele>11.0</ele><time>2026-05-04T13:17:36Z</time></trkpt><trkpt lat="40.4346451175064" lon="9.764890299516"><ele>10.666666666666666</ele><time>2026-05-04T13:17:37Z</time></trkpt><trkpt lat="40.43482708923611" lon="9.7649160037717"><ele>10.333333333333334</ele><time>2026-05-04T13:17:38Z</time></trkpt><trkpt lat="40.43500164946011" lon="9.76497086124101"><ele>10.0</ele><time>2026-05-04T13:17:39Z</time></trkpt><trkpt lat="40.43515486439595" lon="9.765044245586271"><ele>10.0</ele><time>2026-05-04T13:17:40Z</time></trkpt><trkpt lat="40.43529386318721" lon="9.765118240777099"><ele>10.0</ele><time>2026-05-04T13:17:41Z</time></trkpt><trkpt lat="40.43542394402003" lon="9.765179262906905"><ele>10.0</ele><time>2026-05-04T13:17:42Z</time></trkpt><trkpt lat="40.43554664827921" lon="9.765229418453238"><ele>10.0</ele><time>2026-05-04T13:17:43Z</time></trkpt><trkpt lat="40.43565547714665" lon="9.765237557132071"><ele>9.5</ele><time>2026-05-04T13:17:44Z</time></trkpt><trkpt lat="40.43575341804877" lon="9.765190416877132"><ele>9.0</ele><time>2026-05-04T13:17:45Z</time></trkpt><trkpt lat="40.43584239358792" lon="9.765100044251065"><ele>8.5</ele><time>2026-05-04T13:17:46Z</time></trkpt><trkpt lat="40.435923476647616" lon="9.764950661381253"><ele>8.0</ele><time>2026-05-04T13:17:47Z</time></trkpt><trkpt lat="40.436008981557286" lon="9.764776797892807"><ele>8.0</ele><time>2026-05-04T13:17:48Z</time></trkpt><trkpt lat="40.43610764750362" lon="9.764609102463874"><ele>8.0</ele><time>2026-05-04T13:17:49Z</time></trkpt><trkpt lat="40.436201291786126" lon="9.764424617734974"><ele>8.0</ele><time>2026-05-04T13:17:50Z</time></trkpt><trkpt lat="40.4363034774569" lon="9.764252506852587"><ele>7.5</ele><time>2026-05-04T13:17:51Z</time></trkpt><trkpt lat="40.43641353106977" lon="9.764121964599418"><ele>7.0</ele><time>2026-05-04T13:17:52Z</time></trkpt><trkpt lat="40.43654263673717" lon="9.764036281422488"><ele>6.5</ele><time>2026-05-04T13:17:53Z</time></trkpt><trkpt lat="40.43668086610733" lon="9.764017245460831"><ele>6.0</ele><time>2026-05-04T13:17:54Z</time></trkpt><trkpt lat="40.43680974436849" lon="9.764059071615417"><ele>6.0</ele><time>2026-05-04T13:17:55Z</time></trkpt><trkpt lat="40.436949774899134" lon="9.764148149872332"><ele>6.0</ele><time>2026-05-04T13:17:56Z</time></trkpt><trkpt lat="40.43709336082957" lon="9.764263983006858"><ele>6.0</ele><time>2026-05-04T13:17:57Z</time></trkpt><trkpt lat="40.43724346971786" lon="9.764367150293204"><ele>5.666666666666667</ele><time>2026-05-04T13:17:58Z</time></trkpt><trkpt lat="40.4374045662842" lon="9.764478160501083"><ele>5.333333333333334</ele><time>2026-05-04T13:17:59Z</time></trkpt><trkpt lat="40.43756425415968" lon="9.764583275924872"><ele>5.0</ele><time>2026-05-04T13:18:00Z</time></trkpt><trkpt lat="40.43771174612347" lon="9.764681959134915"><ele>5.0</ele><time>2026-05-04T13:18:01Z</time></trkpt><trkpt lat="40.43784450503874" lon="9.76477880363641"><ele>5.0</ele><time>2026-05-04T13:18:02Z</time></trkpt><trkpt lat="40.437983039358535" lon="9.764871653438005"><ele>5.0</ele><time>2026-05-04T13:18:03Z</time></trkpt><trkpt lat="40.43812932396141" lon="9.764966782258867"><ele>5.666666666666667</ele><time>2026-05-04T13:18:04.001Z</time></trkpt><trkpt lat="40.438270820963496" lon="9.7650651355384"><ele>6.333333333333334</ele><time>2026-05-04T13:18:05.001Z</time></trkpt><trkpt lat="40.4384102703642" lon="9.765164750810357"><ele>7.0</ele><time>2026-05-04T13:18:06.001Z</time></trkpt><trkpt lat="40.43855148789013" lon="9.765259657329025"><ele>8.0</ele><time>2026-05-04T13:18:07.001Z</time></trkpt><trkpt lat="40.43868992930193" lon="9.765349572754067"><ele>9.0</ele><time>2026-05-04T13:18:08.001Z</time></trkpt><trkpt lat="40.43883048059092" lon="9.765440649511081"><ele>10.0</ele><time>2026-05-04T13:18:09.001Z</time></trkpt><trkpt lat="40.4389801272598" lon="9.765531321550132"><ele>10.666666666666668</ele><time>2026-05-04T13:18:10.001Z</time></trkpt><trkpt lat="40.43914825663843" lon="9.765615744276957"><ele>11.333333333333334</ele><time>2026-05-04T13:18:11.001Z</time></trkpt><trkpt lat="40.43932480901181" lon="9.765685022975282"><ele>12.0</ele><time>2026-05-04T13:18:12.001Z</time></trkpt><trkpt lat="40.4395018078148" lon="9.765755105319077"><ele>13.0</ele><time>2026-05-04T13:18:13.001Z</time></trkpt><trkpt lat="40.439667277906494" lon="9.765818930984285"><ele>14.0</ele><time>2026-05-04T13:18:14.001Z</time></trkpt><trkpt lat="40.43983130200881" lon="9.765877231329695"><ele>15.0</ele><time>2026-05-04T13:18:15.001Z</time></trkpt><trkpt lat="40.439990679288584" lon="9.765934230805476"><ele>15.0</ele><time>2026-05-04T13:18:16.001Z</time></trkpt><trkpt lat="40.44015411563772" lon="9.765995189317023"><ele>15.0</ele><time>2026-05-04T13:18:17.001Z</time></trkpt><trkpt lat="40.44032032849059" lon="9.766057264830865"><ele>15.0</ele><time>2026-05-04T13:18:18.001Z</time></trkpt><trkpt lat="40.44048977159488" lon="9.766121404628562"><ele>14.666666666666668</ele><time>2026-05-04T13:18:19.001Z</time></trkpt><trkpt lat="40.44066050819677" lon="9.766186354364258"><ele>14.333333333333334</ele><time>2026-05-04T13:18:20.001Z</time></trkpt><trkpt lat="40.44083598357397" lon="9.76624581026287"><ele>14.0</ele><time>2026-05-04T13:18:21.001Z</time></trkpt><trkpt lat="40.44101706211307" lon="9.766314103334818"><ele>14.0</ele><time>2026-05-04T13:18:22.001Z</time></trkpt><trkpt lat="40.44120783923053" lon="9.766386188174083"><ele>14.0</ele><time>2026-05-04T13:18:23.001Z</time></trkpt><trkpt lat="40.441407628743605" lon="9.766460814762384"><ele>14.0</ele><time>2026-05-04T13:18:24.001Z</time></trkpt><trkpt lat="40.44160342437068" lon="9.766533525944876"><ele>15.0</ele><time>2026-05-04T13:18:25.001Z</time></trkpt><trkpt lat="40.44179867805172" lon="9.766604612142242"><ele>16.0</ele><time>2026-05-04T13:18:26.001Z</time></trkpt><trkpt lat="40.44200101906421" lon="9.766679822130783"><ele>17.0</ele><time>2026-05-04T13:18:27.001Z</time></trkpt><trkpt lat="40.44220397866528" lon="9.766752272539316"><ele>17.666666666666668</ele><time>2026-05-04T13:18:28.001Z</time></trkpt><trkpt lat="40.442417476398695" lon="9.766828855402254"><ele>18.333333333333332</ele><time>2026-05-04T13:18:29.001Z</time></trkpt><trkpt lat="40.442633789730216" lon="9.766912188144754"><ele>19.0</ele><time>2026-05-04T13:18:30.001Z</time></trkpt><trkpt lat="40.44284963782215" lon="9.766993913832284"><ele>20.0</ele><time>2026-05-04T13:18:31.001Z</time></trkpt><trkpt lat="40.44306913977209" lon="9.767074885298976"><ele>21.0</ele><time>2026-05-04T13:18:32.001Z</time></trkpt><trkpt lat="40.44328859233885" lon="9.767158760312375"><ele>21.0</ele><time>2026-05-04T13:18:33.001Z</time></trkpt><trkpt lat="40.44350883057807" lon="9.767238623827431"><ele>21.0</ele><time>2026-05-04T13:18:34.001Z</time></trkpt><trkpt lat="40.443732633189654" lon="9.767316666671286"><ele>23.5</ele><time>2026-05-04T13:18:35.001Z</time></trkpt><trkpt lat="40.44396662418175" lon="9.767395955980737"><ele>26.0</ele><time>2026-05-04T13:18:36.001Z</time></trkpt><trkpt lat="40.444202173139004" lon="9.767485169410119"><ele>26.0</ele><time>2026-05-04T13:18:37.001Z</time></trkpt><trkpt lat="40.444440496525964" lon="9.767572498273067"><ele>26.0</ele><time>2026-05-04T13:18:38.001Z</time></trkpt><trkpt lat="40.44467807228203" lon="9.767662056187007"><ele>25.0</ele><time>2026-05-04T13:18:39.001Z</time></trkpt><trkpt lat="40.44490847431313" lon="9.767748356191532"><ele>24.0</ele><time>2026-05-04T13:18:40.001Z</time></trkpt><trkpt lat="40.44514332573836" lon="9.767846282559507"><ele>24.0</ele><time>2026-05-04T13:18:41.001Z</time></trkpt><trkpt lat="40.44538690630252" lon="9.76795072543167"><ele>24.0</ele><time>2026-05-04T13:18:42.001Z</time></trkpt><trkpt lat="40.44563322130031" lon="9.768056801534549"><ele>24.0</ele><time>2026-05-04T13:18:43.001Z</time></trkpt><trkpt lat="40.44588178844471" lon="9.768155934266428"><ele>24.0</ele><time>2026-05-04T13:18:44.001Z</time></trkpt><trkpt lat="40.44612815821662" lon="9.768256071995568"><ele>23.0</ele><time>2026-05-04T13:18:45.001Z</time></trkpt><trkpt lat="40.44636994347651" lon="9.768358338218459"><ele>22.0</ele><time>2026-05-04T13:18:46.001Z</time></trkpt><trkpt lat="40.446608997035064" lon="9.768459576136943"><ele>21.5</ele><time>2026-05-04T13:18:47.001Z</time></trkpt><trkpt lat="40.44684519872103" lon="9.768556969524694"><ele>21.0</ele><time>2026-05-04T13:18:48.001Z</time></trkpt><trkpt lat="40.44707086785152" lon="9.768648675729443"><ele>21.0</ele><time>2026-05-04T13:18:49.001Z</time></trkpt><trkpt lat="40.44729386226202" lon="9.768740365633542"><ele>21.0</ele><time>2026-05-04T13:18:50.001Z</time></trkpt><trkpt lat="40.44751344730524" lon="9.768831229610976"><ele>21.0</ele><time>2026-05-04T13:18:51.001Z</time></trkpt><trkpt lat="40.44773788056062" lon="9.768927683790594"><ele>21.0</ele><time>2026-05-04T13:18:52.001Z</time></trkpt><trkpt lat="40.44796331826529" lon="9.769021572775856"><ele>21.0</ele><time>2026-05-04T13:18:53.001Z</time></trkpt><trkpt lat="40.44817933198098" lon="9.769109601379162"><ele>21.0</ele><time>2026-05-04T13:18:54.001Z</time></trkpt><trkpt lat="40.44838192434143" lon="9.769198581725588"><ele>21.0</ele><time>2026-05-04T13:18:55.001Z</time></trkpt><trkpt lat="40.448560297897345" lon="9.76927678536332"><ele>21.0</ele><time>2026-05-04T13:18:56.001Z</time></trkpt><trkpt lat="40.448726018612795" lon="9.769347593309009"><ele>21.0</ele><time>2026-05-04T13:18:57.001Z</time></trkpt><trkpt lat="40.44890943645388" lon="9.769424624701879"><ele>21.0</ele><time>2026-05-04T13:18:58.001Z</time></trkpt><trkpt lat="40.44910106008995" lon="9.769503608544563"><ele>21.0</ele><time>2026-05-04T13:18:59.001Z</time></trkpt><trkpt lat="40.449303631749224" lon="9.769586073937507"><ele>21.0</ele><time>2026-05-04T13:19:00.001Z</time></trkpt><trkpt lat="40.44952184227278" lon="9.769675013710906"><ele>21.0</ele><time>2026-05-04T13:19:01.001Z</time></trkpt><trkpt lat="40.449746014278986" lon="9.769765081150403"><ele>21.5</ele><time>2026-05-04T13:19:02.001Z</time></trkpt><trkpt lat="40.44997186677854" lon="9.769859949519027"><ele>22.0</ele><time>2026-05-04T13:19:03.001Z</time></trkpt><trkpt lat="40.45020093640412" lon="9.769954751861743"><ele>22.0</ele><time>2026-05-04T13:19:04.001Z</time></trkpt><trkpt lat="40.45043008765397" lon="9.770046891235808"><ele>22.0</ele><time>2026-05-04T13:19:05.001Z</time></trkpt><trkpt lat="40.450658913404126" lon="9.770143550204228"><ele>21.0</ele><time>2026-05-04T13:19:06.001Z</time></trkpt><trkpt lat="40.45088881768848" lon="9.770238158714793"><ele>20.0</ele><time>2026-05-04T13:19:07.001Z</time></trkpt><trkpt lat="40.451109637757014" lon="9.770330814760522"><ele>20.0</ele><time>2026-05-04T13:19:08.001Z</time></trkpt><trkpt lat="40.45133745214251" lon="9.770428122799446"><ele>20.0</ele><time>2026-05-04T13:19:09.001Z</time></trkpt><trkpt lat="40.45156433419807" lon="9.770519762308583"><ele>20.0</ele><time>2026-05-04T13:19:10.001Z</time></trkpt><trkpt lat="40.451795527085814" lon="9.770615170298685"><ele>20.0</ele><time>2026-05-04T13:19:11.001Z</time></trkpt><trkpt lat="40.45202978987227" lon="9.770709718845266"><ele>20.5</ele><time>2026-05-04T13:19:12.001Z</time></trkpt><trkpt lat="40.45226598028524" lon="9.770808130906365"><ele>21.0</ele><time>2026-05-04T13:19:13.001Z</time></trkpt><trkpt lat="40.45249721013541" lon="9.77090704727287"><ele>21.0</ele><time>2026-05-04T13:19:14.002Z</time></trkpt><trkpt lat="40.45273797135188" lon="9.771009490055688"><ele>21.0</ele><time>2026-05-04T13:19:15.002Z</time></trkpt><trkpt lat="40.452967294609266" lon="9.771114550284956"><ele>23.0</ele><time>2026-05-04T13:19:16.002Z</time></trkpt><trkpt lat="40.45319283263213" lon="9.771214540837462"><ele>25.0</ele><time>2026-05-04T13:19:17.002Z</time></trkpt><trkpt lat="40.453424768903936" lon="9.771308480142087"><ele>25.0</ele><time>2026-05-04T13:19:18.002Z</time></trkpt><trkpt lat="40.453640907925774" lon="9.771397517103813"><ele>25.0</ele><time>2026-05-04T13:19:19.002Z</time></trkpt><trkpt lat="40.45385889263035" lon="9.771486070206246"><ele>26.333333333333336</ele><time>2026-05-04T13:19:20.002Z</time></trkpt><trkpt lat="40.45405664668584" lon="9.771578423798482"><ele>27.666666666666664</ele><time>2026-05-04T13:19:21.002Z</time></trkpt><trkpt lat="40.454243979045984" lon="9.771645065214908"><ele>29.0</ele><time>2026-05-04T13:19:22.002Z</time></trkpt><trkpt lat="40.454436116180176" lon="9.77166974938708"><ele>30.0</ele><time>2026-05-04T13:19:23.002Z</time></trkpt><trkpt lat="40.454641404272415" lon="9.77164257026832"><ele>31.0</ele><time>2026-05-04T13:19:24.002Z</time></trkpt><trkpt lat="40.45483783298632" lon="9.771578491539643"><ele>32.0</ele><time>2026-05-04T13:19:25.002Z</time></trkpt><trkpt lat="40.45503310083197" lon="9.771517166008344"><ele>32.0</ele><time>2026-05-04T13:19:26.002Z</time></trkpt><trkpt lat="40.455217864789375" lon="9.771505682255377"><ele>32.0</ele><time>2026-05-04T13:19:27.002Z</time></trkpt><trkpt lat="40.455378431843634" lon="9.77157018588174"><ele>32.0</ele><time>2026-05-04T13:19:28.002Z</time></trkpt><trkpt lat="40.455527850848995" lon="9.771719162184093"><ele>31.333333333333332</ele><time>2026-05-04T13:19:29.002Z</time></trkpt><trkpt lat="40.45565084497783" lon="9.77190065349894"><ele>30.666666666666664</ele><time>2026-05-04T13:19:30.002Z</time></trkpt><trkpt lat="40.45576662520231" lon="9.772056303871526"><ele>30.0</ele><time>2026-05-04T13:19:31.002Z</time></trkpt><trkpt lat="40.45590499200317" lon="9.772137744192491"><ele>30.0</ele><time>2026-05-04T13:19:32.002Z</time></trkpt><trkpt lat="40.45605614842756" lon="9.772141391892776"><ele>30.0</ele><time>2026-05-04T13:19:33.002Z</time></trkpt><trkpt lat="40.45621932560838" lon="9.772083624564027"><ele>30.0</ele><time>2026-05-04T13:19:34.002Z</time></trkpt><trkpt lat="40.45638915990672" lon="9.771981224681117"><ele>29.666666666666664</ele><time>2026-05-04T13:19:35.002Z</time></trkpt><trkpt lat="40.456565429616944" lon="9.771882569444395"><ele>29.333333333333332</ele><time>2026-05-04T13:19:36Z</time></trkpt><trkpt lat="40.456760568262624" lon="9.771803591580502"><ele>29.0</ele><time>2026-05-04T13:19:37Z</time></trkpt><trkpt lat="40.45696777402662" lon="9.771728982441902"><ele>28.333333333333332</ele><time>2026-05-04T13:19:38Z</time></trkpt><trkpt lat="40.45717284607914" lon="9.771638510648671"><ele>27.666666666666664</ele><time>2026-05-04T13:19:39Z</time></trkpt><trkpt lat="40.457380210131895" lon="9.77155666855494"><ele>27.0</ele><time>2026-05-04T13:19:40Z</time></trkpt><trkpt lat="40.457584984715695" lon="9.771467320197374"><ele>27.0</ele><time>2026-05-04T13:19:41Z</time></trkpt><trkpt lat="40.457780827129255" lon="9.77138678154852"><ele>27.0</ele><time>2026-05-04T13:19:42Z</time></trkpt><trkpt lat="40.45796842835236" lon="9.771343034320386"><ele>27.0</ele><time>2026-05-04T13:19:43Z</time></trkpt><trkpt lat="40.45815228680295" lon="9.771359511878806"><ele>26.0</ele><time>2026-05-04T13:19:44Z</time></trkpt><trkpt lat="40.45834645872037" lon="9.771421630076595"><ele>25.0</ele><time>2026-05-04T13:19:45Z</time></trkpt><trkpt lat="40.45854100229937" lon="9.77150759558436"><ele>24.0</ele><time>2026-05-04T13:19:46Z</time></trkpt><trkpt lat="40.458742098001174" lon="9.771595826484752"><ele>25.0</ele><time>2026-05-04T13:19:47Z</time></trkpt><trkpt lat="40.45894421046716" lon="9.77168315292458"><ele>26.0</ele><time>2026-05-04T13:19:48Z</time></trkpt><trkpt lat="40.459157460401556" lon="9.77176977233952"><ele>27.0</ele><time>2026-05-04T13:19:49Z</time></trkpt><trkpt lat="40.459371229495076" lon="9.771854398159057"><ele>28.0</ele><time>2026-05-04T13:19:50Z</time></trkpt><trkpt lat="40.45959295434216" lon="9.771939113483185"><ele>29.0</ele><time>2026-05-04T13:19:51Z</time></trkpt><trkpt lat="40.45981783157329" lon="9.772035849839234"><ele>29.5</ele><time>2026-05-04T13:19:52Z</time></trkpt><trkpt lat="40.46004660984898" lon="9.772127980717913"><ele>30.0</ele><time>2026-05-04T13:19:53Z</time></trkpt><trkpt lat="40.46027795230147" lon="9.77221965431374"><ele>28.5</ele><time>2026-05-04T13:19:54Z</time></trkpt><trkpt lat="40.460511407246095" lon="9.772318008962896"><ele>27.0</ele><time>2026-05-04T13:19:55Z</time></trkpt><trkpt lat="40.46075089254317" lon="9.772419964121273"><ele>27.0</ele><time>2026-05-04T13:19:56Z</time></trkpt><trkpt lat="40.46098627200328" lon="9.772514797113084"><ele>27.0</ele><time>2026-05-04T13:19:57Z</time></trkpt><trkpt lat="40.46123106463982" lon="9.772608408581805"><ele>29.5</ele><time>2026-05-04T13:19:58Z</time></trkpt><trkpt lat="40.46147377374401" lon="9.772703841490408"><ele>32.0</ele><time>2026-05-04T13:19:59Z</time></trkpt><trkpt lat="40.46171514501135" lon="9.772805136262946"><ele>32.0</ele><time>2026-05-04T13:20:00Z</time></trkpt><trkpt lat="40.461960984761575" lon="9.772905981126275"><ele>32.0</ele><time>2026-05-04T13:20:01Z</time></trkpt><trkpt lat="40.46220391124493" lon="9.773003133219289"><ele>31.5</ele><time>2026-05-04T13:20:02Z</time></trkpt><trkpt lat="40.4624506816197" lon="9.773089515505578"><ele>31.0</ele><time>2026-05-04T13:20:03Z</time></trkpt><trkpt lat="40.462705029415126" lon="9.773137655442634"><ele>32.0</ele><time>2026-05-04T13:20:04Z</time></trkpt><trkpt lat="40.46296072441954" lon="9.773160366328154"><ele>33.0</ele><time>2026-05-04T13:20:05Z</time></trkpt><trkpt lat="40.46320952087041" lon="9.773175272865148"><ele>33.0</ele><time>2026-05-04T13:20:06Z</time></trkpt><trkpt lat="40.46346368329002" lon="9.773208008092608"><ele>33.0</ele><time>2026-05-04T13:20:07Z</time></trkpt><trkpt lat="40.463710391997125" lon="9.773294092153137"><ele>33.0</ele><time>2026-05-04T13:20:08Z</time></trkpt><trkpt lat="40.46395511641944" lon="9.77343256337124"><ele>33.0</ele><time>2026-05-04T13:20:09Z</time></trkpt><trkpt lat="40.4641931964422" lon="9.77358483893581"><ele>36.5</ele><time>2026-05-04T13:20:10Z</time></trkpt><trkpt lat="40.464434013140966" lon="9.773733362828796"><ele>40.0</ele><time>2026-05-04T13:20:11Z</time></trkpt><trkpt lat="40.46468057510924" lon="9.773874470609233"><ele>40.0</ele><time>2026-05-04T13:20:12Z</time></trkpt><trkpt lat="40.4649273260984" lon="9.774015453433778"><ele>40.0</ele><time>2026-05-04T13:20:13Z</time></trkpt><trkpt lat="40.46516193479642" lon="9.774152250822526"><ele>40.0</ele><time>2026-05-04T13:20:14Z</time></trkpt><trkpt lat="40.46539285442394" lon="9.774282417947386"><ele>40.0</ele><time>2026-05-04T13:20:15Z</time></trkpt><trkpt lat="40.46562454179682" lon="9.77441681324518"><ele>44.5</ele><time>2026-05-04T13:20:16.001Z</time></trkpt><trkpt lat="40.4658537769076" lon="9.774550327143473"><ele>49.0</ele><time>2026-05-04T13:20:17.001Z</time></trkpt><trkpt lat="40.466076925950226" lon="9.774681810811856"><ele>48.5</ele><time>2026-05-04T13:20:18.001Z</time></trkpt><trkpt lat="40.466301585151975" lon="9.77481039290196"><ele>48.0</ele><time>2026-05-04T13:20:19.001Z</time></trkpt><trkpt lat="40.466532875085676" lon="9.774930151944291"><ele>48.0</ele><time>2026-05-04T13:20:20.001Z</time></trkpt><trkpt lat="40.46676106354849" lon="9.77501258637313"><ele>48.0</ele><time>2026-05-04T13:20:21.001Z</time></trkpt><trkpt lat="40.467002664620374" lon="9.775059433735827"><ele>47.5</ele><time>2026-05-04T13:20:22.001Z</time></trkpt><trkpt lat="40.467253518459636" lon="9.77508945907813"><ele>47.0</ele><time>2026-05-04T13:20:23.001Z</time></trkpt><trkpt lat="40.46750038249806" lon="9.775123734892455"><ele>47.0</ele><time>2026-05-04T13:20:24.001Z</time></trkpt><trkpt lat="40.46773064240407" lon="9.775145086409477"><ele>47.0</ele><time>2026-05-04T13:20:25.001Z</time></trkpt><trkpt lat="40.46795353975475" lon="9.775151003042854"><ele>45.666666666666664</ele><time>2026-05-04T13:20:26.001Z</time></trkpt><trkpt lat="40.46816504875116" lon="9.775129445537335"><ele>44.333333333333336</ele><time>2026-05-04T13:20:27.001Z</time></trkpt><trkpt lat="40.46835216576205" lon="9.775142457191397"><ele>43.0</ele><time>2026-05-04T13:20:28.001Z</time></trkpt><trkpt lat="40.46849886952807" lon="9.77525263359607"><ele>41.66666666666667</ele><time>2026-05-04T13:20:29.001Z</time></trkpt><trkpt lat="40.468650911093626" lon="9.775427232646607"><ele>40.333333333333336</ele><time>2026-05-04T13:20:30.001Z</time></trkpt><trkpt lat="40.46881630288731" lon="9.775564465285175"><ele>39.0</ele><time>2026-05-04T13:20:31.001Z</time></trkpt><trkpt lat="40.46898372268235" lon="9.775651029013785"><ele>37.333333333333336</ele><time>2026-05-04T13:20:32.001Z</time></trkpt><trkpt lat="40.469135449353956" lon="9.77571567851004"><ele>35.66666666666667</ele><time>2026-05-04T13:20:33.001Z</time></trkpt><trkpt lat="40.46928569756085" lon="9.775709770692181"><ele>34.0</ele><time>2026-05-04T13:20:34.001Z</time></trkpt><trkpt lat="40.469456089294276" lon="9.775622085193573"><ele>32.66666666666667</ele><time>2026-05-04T13:20:35.001Z</time></trkpt><trkpt lat="40.46962247257442" lon="9.775519939148335"><ele>31.333333333333336</ele><time>2026-05-04T13:20:36.001Z</time></trkpt><trkpt lat="40.46981473267899" lon="9.775495743405495"><ele>30.0</ele><time>2026-05-04T13:20:37.001Z</time></trkpt><trkpt lat="40.47001607898883" lon="9.775577705959769"><ele>30.0</ele><time>2026-05-04T13:20:38.001Z</time></trkpt><trkpt lat="40.470197635221176" lon="9.775674773209307"><ele>30.0</ele><time>2026-05-04T13:20:39.001Z</time></trkpt><trkpt lat="40.470370175987036" lon="9.775758503812776"><ele>30.0</ele><time>2026-05-04T13:20:40.001Z</time></trkpt><trkpt lat="40.47053000131159" lon="9.7758401520838"><ele>29.0</ele><time>2026-05-04T13:20:41.001Z</time></trkpt><trkpt lat="40.47066318891128" lon="9.775953310034296"><ele>28.0</ele><time>2026-05-04T13:20:42.001Z</time></trkpt><trkpt lat="40.4707607227273" lon="9.776135140365932"><ele>27.0</ele><time>2026-05-04T13:20:43.001Z</time></trkpt><trkpt lat="40.4708394235228" lon="9.77638259903705"><ele>27.0</ele><time>2026-05-04T13:20:44.001Z</time></trkpt><trkpt lat="40.470928073881815" lon="9.776677391462744"><ele>27.0</ele><time>2026-05-04T13:20:45.001Z</time></trkpt><trkpt lat="40.471043358070276" lon="9.77696023619"><ele>26.333333333333336</ele><time>2026-05-04T13:20:46.001Z</time></trkpt><trkpt lat="40.47113372815938" lon="9.7772225711246"><ele>25.666666666666668</ele><time>2026-05-04T13:20:47.001Z</time></trkpt><trkpt lat="40.47123181717318" lon="9.777452042719656"><ele>25.0</ele><time>2026-05-04T13:20:48.001Z</time></trkpt><trkpt lat="40.47132174929943" lon="9.777677033830253"><ele>26.0</ele><time>2026-05-04T13:20:49.001Z</time></trkpt><trkpt lat="40.47141377419753" lon="9.777901552821236"><ele>27.0</ele><time>2026-05-04T13:20:50.001Z</time></trkpt><trkpt lat="40.47149500691285" lon="9.778120929633292"><ele>28.0</ele><time>2026-05-04T13:20:51.001Z</time></trkpt><trkpt lat="40.47158700175089" lon="9.778308443923681"><ele>28.0</ele><time>2026-05-04T13:20:52.001Z</time></trkpt><trkpt lat="40.4717091105428" lon="9.778432892302115"><ele>28.0</ele><time>2026-05-04T13:20:53.001Z</time></trkpt><trkpt lat="40.471855571600884" lon="9.77849294546275"><ele>28.0</ele><time>2026-05-04T13:20:54.001Z</time></trkpt><trkpt lat="40.472038118287976" lon="9.778494525893068"><ele>27.333333333333336</ele><time>2026-05-04T13:20:55.001Z</time></trkpt><trkpt lat="40.47223479410699" lon="9.778496210872468"><ele>26.666666666666664</ele><time>2026-05-04T13:20:56.001Z</time></trkpt><trkpt lat="40.47244888531224" lon="9.778519445987639"><ele>26.0</ele><time>2026-05-04T13:20:57.001Z</time></trkpt><trkpt lat="40.472672677728305" lon="9.778556818120567"><ele>22.5</ele><time>2026-05-04T13:20:58.001Z</time></trkpt><trkpt lat="40.4729161917954" lon="9.778602437922835"><ele>19.0</ele><time>2026-05-04T13:20:59.001Z</time></trkpt><trkpt lat="40.473166846602766" lon="9.778654648707265"><ele>19.0</ele><time>2026-05-04T13:21:00.001Z</time></trkpt><trkpt lat="40.47342261802882" lon="9.778695767338451"><ele>19.0</ele><time>2026-05-04T13:21:01.001Z</time></trkpt><trkpt lat="40.47367337931041" lon="9.77873885008763"><ele>19.0</ele><time>2026-05-04T13:21:02.001Z</time></trkpt><trkpt lat="40.47391541309774" lon="9.778781118982272"><ele>19.0</ele><time>2026-05-04T13:21:03.001Z</time></trkpt><trkpt lat="40.474150761299136" lon="9.77882384016152"><ele>19.0</ele><time>2026-05-04T13:21:04.001Z</time></trkpt><trkpt lat="40.47438983298561" lon="9.778860417093139"><ele>19.0</ele><time>2026-05-04T13:21:05.001Z</time></trkpt><trkpt lat="40.47462810472974" lon="9.778898370077203"><ele>19.5</ele><time>2026-05-04T13:21:06.001Z</time></trkpt><trkpt lat="40.47486689467328" lon="9.778941088508095"><ele>20.0</ele><time>2026-05-04T13:21:07.001Z</time></trkpt><trkpt lat="40.475117246829946" lon="9.778970919557866"><ele>20.0</ele><time>2026-05-04T13:21:08.001Z</time></trkpt><trkpt lat="40.47537797092554" lon="9.778960294516"><ele>20.0</ele><time>2026-05-04T13:21:09.001Z</time></trkpt><trkpt lat="40.47564170833185" lon="9.778918478055068"><ele>20.5</ele><time>2026-05-04T13:21:10.001Z</time></trkpt><trkpt lat="40.475912554541495" lon="9.778881213703944"><ele>21.0</ele><time>2026-05-04T13:21:11.001Z</time></trkpt><trkpt lat="40.47618543063205" lon="9.778853030214432"><ele>23.0</ele><time>2026-05-04T13:21:12.001Z</time></trkpt><trkpt lat="40.476460137816474" lon="9.778827623105583"><ele>25.0</ele><time>2026-05-04T13:21:13.001Z</time></trkpt><trkpt lat="40.47672999980681" lon="9.778795778116907"><ele>25.0</ele><time>2026-05-04T13:21:14.001Z</time></trkpt><trkpt lat="40.4769913298397" lon="9.778766044284504"><ele>25.0</ele><time>2026-05-04T13:21:15.001Z</time></trkpt><trkpt lat="40.477257921891734" lon="9.778727901826914"><ele>26.0</ele><time>2026-05-04T13:21:16.001Z</time></trkpt><trkpt lat="40.47752176569255" lon="9.778650040629058"><ele>27.0</ele><time>2026-05-04T13:21:17.001Z</time></trkpt><trkpt lat="40.47779013710707" lon="9.77856368574964"><ele>30.0</ele><time>2026-05-04T13:21:18.001Z</time></trkpt><trkpt lat="40.47805599168635" lon="9.778481389450105"><ele>33.0</ele><time>2026-05-04T13:21:19.001Z</time></trkpt><trkpt lat="40.47832556718812" lon="9.778404842219317"><ele>33.0</ele><time>2026-05-04T13:21:20.001Z</time></trkpt><trkpt lat="40.47858118169611" lon="9.778318490981922"><ele>33.0</ele><time>2026-05-04T13:21:21.001Z</time></trkpt><trkpt lat="40.47883594981075" lon="9.778236556859436"><ele>32.0</ele><time>2026-05-04T13:21:22.001Z</time></trkpt><trkpt lat="40.47909366621618" lon="9.778158116726049"><ele>31.0</ele><time>2026-05-04T13:21:23.001Z</time></trkpt><trkpt lat="40.479351949267084" lon="9.778087357276828"><ele>30.0</ele><time>2026-05-04T13:21:24.001Z</time></trkpt><trkpt lat="40.479610925271146" lon="9.778013794874385"><ele>29.0</ele><time>2026-05-04T13:21:25.002Z</time></trkpt><trkpt lat="40.479885267308525" lon="9.777968771012844"><ele>29.0</ele><time>2026-05-04T13:21:26.002Z</time></trkpt><trkpt lat="40.48017940856652" lon="9.777949393318558"><ele>29.0</ele><time>2026-05-04T13:21:27.002Z</time></trkpt><trkpt lat="40.48049267050103" lon="9.77790689071155"><ele>27.5</ele><time>2026-05-04T13:21:28.002Z</time></trkpt><trkpt lat="40.48079315634334" lon="9.777839393625266"><ele>26.0</ele><time>2026-05-04T13:21:29.002Z</time></trkpt><trkpt lat="40.48108894998345" lon="9.777747936104959"><ele>27.0</ele><time>2026-05-04T13:21:30.002Z</time></trkpt><trkpt lat="40.481371466869355" lon="9.777664011323909"><ele>28.0</ele><time>2026-05-04T13:21:31.002Z</time></trkpt><trkpt lat="40.48164428411429" lon="9.777591708955544"><ele>28.0</ele><time>2026-05-04T13:21:32.002Z</time></trkpt><trkpt lat="40.481898734985066" lon="9.777521778109262"><ele>28.0</ele><time>2026-05-04T13:21:33.002Z</time></trkpt><trkpt lat="40.48214124475421" lon="9.777455847036098"><ele>31.0</ele><time>2026-05-04T13:21:34.002Z</time></trkpt><trkpt lat="40.48238566931236" lon="9.777390668659683"><ele>34.0</ele><time>2026-05-04T13:21:35.002Z</time></trkpt><trkpt lat="40.48263136892388" lon="9.777318931134552"><ele>34.0</ele><time>2026-05-04T13:21:36.002Z</time></trkpt><trkpt lat="40.48287332323492" lon="9.777249821800691"><ele>34.0</ele><time>2026-05-04T13:21:37.002Z</time></trkpt><trkpt lat="40.483118888624595" lon="9.77720051589257"><ele>36.0</ele><time>2026-05-04T13:21:38.002Z</time></trkpt><trkpt lat="40.48337374097101" lon="9.77717596328466"><ele>38.0</ele><time>2026-05-04T13:21:39.002Z</time></trkpt><trkpt lat="40.48361224858272" lon="9.777174816156656"><ele>38.666666666666664</ele><time>2026-05-04T13:21:40.002Z</time></trkpt><trkpt lat="40.483835145162956" lon="9.777180148015013"><ele>39.333333333333336</ele><time>2026-05-04T13:21:41.002Z</time></trkpt><trkpt lat="40.48404045012522" lon="9.777181579494659"><ele>40.0</ele><time>2026-05-04T13:21:41.998Z</time></trkpt><trkpt lat="40.4842142435162" lon="9.777164408602335"><ele>40.0</ele><time>2026-05-04T13:21:42.998Z</time></trkpt><trkpt lat="40.48437883346932" lon="9.777081352911678"><ele>40.0</ele><time>2026-05-04T13:21:43.998Z</time></trkpt><trkpt lat="40.48453424198093" lon="9.776947156294066"><ele>40.0</ele><time>2026-05-04T13:21:44.998Z</time></trkpt><trkpt lat="40.48468635519822" lon="9.776801811327527"><ele>39.333333333333336</ele><time>2026-05-04T13:21:45.998Z</time></trkpt><trkpt lat="40.484859773822286" lon="9.776690276660958"><ele>38.666666666666664</ele><time>2026-05-04T13:21:46.999Z</time></trkpt><trkpt lat="40.48506052276942" lon="9.776623009585743"><ele>38.0</ele><time>2026-05-04T13:21:47.999Z</time></trkpt><trkpt lat="40.48529032662114" lon="9.776619195660366"><ele>38.0</ele><time>2026-05-04T13:21:48.999Z</time></trkpt><trkpt lat="40.48553288124201" lon="9.776616181669104"><ele>38.0</ele><time>2026-05-04T13:21:49.999Z</time></trkpt><trkpt lat="40.48578403232446" lon="9.776596496448395"><ele>38.0</ele><time>2026-05-04T13:21:50.999Z</time></trkpt><trkpt lat="40.48604434418038" lon="9.776561475298347"><ele>38.0</ele><time>2026-05-04T13:21:51.999Z</time></trkpt><trkpt lat="40.48631704903095" lon="9.776538949709208"><ele>38.0</ele><time>2026-05-04T13:21:52.999Z</time></trkpt><trkpt lat="40.486589761887075" lon="9.776516067381646"><ele>38.0</ele><time>2026-05-04T13:21:53.999Z</time></trkpt><trkpt lat="40.48685669400691" lon="9.776490778688558"><ele>38.5</ele><time>2026-05-04T13:21:54.999Z</time></trkpt><trkpt lat="40.487121425128535" lon="9.776467247308862"><ele>39.0</ele><time>2026-05-04T13:21:55.999Z</time></trkpt><trkpt lat="40.4873849017614" lon="9.77645271928613"><ele>39.0</ele><time>2026-05-04T13:21:56.999Z</time></trkpt><trkpt lat="40.4876562382952" lon="9.776449671190568"><ele>39.0</ele><time>2026-05-04T13:21:57.999Z</time></trkpt><trkpt lat="40.48792271969599" lon="9.776450045396384"><ele>40.5</ele><time>2026-05-04T13:21:58.999Z</time></trkpt><trkpt lat="40.48819202484735" lon="9.77644743214174"><ele>42.0</ele><time>2026-05-04T13:21:59.999Z</time></trkpt><trkpt lat="40.488460204832215" lon="9.776439112689257"><ele>42.0</ele><time>2026-05-04T13:22:00.999Z</time></trkpt><trkpt lat="40.4887242832762" lon="9.77643400872186"><ele>42.0</ele><time>2026-05-04T13:22:01.999Z</time></trkpt><trkpt lat="40.48897998496997" lon="9.776433400420766"><ele>43.5</ele><time>2026-05-04T13:22:02.999Z</time></trkpt><trkpt lat="40.48922982412774" lon="9.776428244915662"><ele>45.0</ele><time>2026-05-04T13:22:03.999Z</time></trkpt><trkpt lat="40.489478648965594" lon="9.776430115430715"><ele>46.5</ele><time>2026-05-04T13:22:04.999Z</time></trkpt><trkpt lat="40.489733684215615" lon="9.776457070443866"><ele>48.0</ele><time>2026-05-04T13:22:05.999Z</time></trkpt><trkpt lat="40.4899910723676" lon="9.776502919131254"><ele>48.0</ele><time>2026-05-04T13:22:06.999Z</time></trkpt><trkpt lat="40.490252433087335" lon="9.776551937091547"><ele>48.0</ele><time>2026-05-04T13:22:07.999Z</time></trkpt><trkpt lat="40.490521713259575" lon="9.776596241532213"><ele>46.5</ele><time>2026-05-04T13:22:08.999Z</time></trkpt><trkpt lat="40.490792566236806" lon="9.77663422756023"><ele>45.0</ele><time>2026-05-04T13:22:10Z</time></trkpt><trkpt lat="40.49106303972279" lon="9.776673485431587"><ele>43.0</ele><time>2026-05-04T13:22:11Z</time></trkpt><trkpt lat="40.4913368499757" lon="9.776716041490626"><ele>41.0</ele><time>2026-05-04T13:22:12Z</time></trkpt><trkpt lat="40.49160898662779" lon="9.776755980779928"><ele>41.0</ele><time>2026-05-04T13:22:13Z</time></trkpt><trkpt lat="40.491885524539725" lon="9.77679694477762"><ele>41.0</ele><time>2026-05-04T13:22:14Z</time></trkpt><trkpt lat="40.49216297993729" lon="9.776833402841572"><ele>41.5</ele><time>2026-05-04T13:22:15Z</time></trkpt><trkpt lat="40.49245165871875" lon="9.776872162551788"><ele>42.0</ele><time>2026-05-04T13:22:16Z</time></trkpt><trkpt lat="40.49273695685592" lon="9.776909530613462"><ele>41.0</ele><time>2026-05-04T13:22:17Z</time></trkpt><trkpt lat="40.49301481863079" lon="9.776946586274947"><ele>40.0</ele><time>2026-05-04T13:22:18Z</time></trkpt><trkpt lat="40.49328672286865" lon="9.776978497437542"><ele>40.0</ele><time>2026-05-04T13:22:19Z</time></trkpt><trkpt lat="40.49355300146844" lon="9.777016564411081"><ele>40.0</ele><time>2026-05-04T13:22:20Z</time></trkpt><trkpt lat="40.493825167674686" lon="9.777058868345568"><ele>37.5</ele><time>2026-05-04T13:22:21Z</time></trkpt><trkpt lat="40.49408627725713" lon="9.77712289013287"><ele>35.0</ele><time>2026-05-04T13:22:22Z</time></trkpt><trkpt lat="40.49433757389758" lon="9.777200486399057"><ele>33.0</ele><time>2026-05-04T13:22:23Z</time></trkpt><trkpt lat="40.49458872533273" lon="9.77727456613794"><ele>31.0</ele><time>2026-05-04T13:22:24Z</time></trkpt><trkpt lat="40.49482230485784" lon="9.777342100191197"><ele>31.0</ele><time>2026-05-04T13:22:25Z</time></trkpt><trkpt lat="40.495045378083844" lon="9.777415122655276"><ele>31.0</ele><time>2026-05-04T13:22:26Z</time></trkpt><trkpt lat="40.495254019573856" lon="9.777530210769681"><ele>31.0</ele><time>2026-05-04T13:22:27Z</time></trkpt><trkpt lat="40.495445566728925" lon="9.777689697262545"><ele>31.0</ele><time>2026-05-04T13:22:28Z</time></trkpt><trkpt lat="40.495636055281715" lon="9.777858285870268"><ele>31.0</ele><time>2026-05-04T13:22:29Z</time></trkpt><trkpt lat="40.49584187617832" lon="9.778011696961112"><ele>31.0</ele><time>2026-05-04T13:22:30Z</time></trkpt><trkpt lat="40.496040155410476" lon="9.778162058598376"><ele>31.0</ele><time>2026-05-04T13:22:31Z</time></trkpt><trkpt lat="40.49622900029084" lon="9.778304343053478"><ele>31.0</ele><time>2026-05-04T13:22:32Z</time></trkpt><trkpt lat="40.496407976121304" lon="9.778434532074492"><ele>31.0</ele><time>2026-05-04T13:22:33Z</time></trkpt><trkpt lat="40.496562594568445" lon="9.778555627702572"><ele>29.0</ele><time>2026-05-04T13:22:34Z</time></trkpt><trkpt lat="40.49670997934321" lon="9.778678904980934"><ele>27.0</ele><time>2026-05-04T13:22:35Z</time></trkpt><trkpt lat="40.496856730512434" lon="9.778795616319552"><ele>25.0</ele><time>2026-05-04T13:22:36Z</time></trkpt><trkpt lat="40.497020237742376" lon="9.778903010018935"><ele>24.666666666666668</ele><time>2026-05-04T13:22:37Z</time></trkpt><trkpt lat="40.49721051377717" lon="9.778976474178226"><ele>24.333333333333336</ele><time>2026-05-04T13:22:38Z</time></trkpt><trkpt lat="40.49742710630596" lon="9.779020511165655"><ele>24.0</ele><time>2026-05-04T13:22:39Z</time></trkpt><trkpt lat="40.497646446958825" lon="9.77908104942068"><ele>24.0</ele><time>2026-05-04T13:22:40Z</time></trkpt><trkpt lat="40.49787032336623" lon="9.779194656034921"><ele>24.0</ele><time>2026-05-04T13:22:41Z</time></trkpt><trkpt lat="40.498094835296676" lon="9.779344686481013"><ele>23.0</ele><time>2026-05-04T13:22:42Z</time></trkpt><trkpt lat="40.498313761870115" lon="9.77950817262567"><ele>22.0</ele><time>2026-05-04T13:22:43Z</time></trkpt><trkpt lat="40.49853530588722" lon="9.779675144035693"><ele>22.0</ele><time>2026-05-04T13:22:44Z</time></trkpt><trkpt lat="40.49874917469259" lon="9.779840816163107"><ele>22.0</ele><time>2026-05-04T13:22:45Z</time></trkpt><trkpt lat="40.498969958794675" lon="9.780004278965874"><ele>21.0</ele><time>2026-05-04T13:22:46Z</time></trkpt><trkpt lat="40.49919161522233" lon="9.780163622292728"><ele>20.0</ele><time>2026-05-04T13:22:47Z</time></trkpt><trkpt lat="40.49941777368942" lon="9.780328842372791"><ele>19.0</ele><time>2026-05-04T13:22:48Z</time></trkpt><trkpt lat="40.49964243576127" lon="9.780523281367733"><ele>18.0</ele><time>2026-05-04T13:22:49Z</time></trkpt><trkpt lat="40.49986067160819" lon="9.780728307231845"><ele>18.0</ele><time>2026-05-04T13:22:50Z</time></trkpt><trkpt lat="40.50006546747488" lon="9.780948476080493"><ele>18.0</ele><time>2026-05-04T13:22:51.001Z</time></trkpt><trkpt lat="40.50026845097695" lon="9.781171093918296"><ele>17.5</ele><time>2026-05-04T13:22:52.001Z</time></trkpt><trkpt lat="40.5004853566813" lon="9.781397453421482"><ele>17.0</ele><time>2026-05-04T13:22:53.001Z</time></trkpt><trkpt lat="40.50071119289257" lon="9.781637513432596"><ele>16.5</ele><time>2026-05-04T13:22:54.001Z</time></trkpt><trkpt lat="40.500942166234196" lon="9.78191164629013"><ele>16.0</ele><time>2026-05-04T13:22:55.001Z</time></trkpt><trkpt lat="40.50118225079514" lon="9.782216729610369"><ele>14.5</ele><time>2026-05-04T13:22:56.001Z</time></trkpt><trkpt lat="40.501409076545904" lon="9.782527296376237"><ele>13.0</ele><time>2026-05-04T13:22:57.001Z</time></trkpt><trkpt lat="40.50163520120464" lon="9.78282432061963"><ele>13.0</ele><time>2026-05-04T13:22:58.001Z</time></trkpt><trkpt lat="40.50185978893071" lon="9.783106016769187"><ele>13.0</ele><time>2026-05-04T13:22:59.001Z</time></trkpt><trkpt lat="40.50208138334024" lon="9.78337217714831"><ele>16.0</ele><time>2026-05-04T13:23:00.001Z</time></trkpt><trkpt lat="40.502308316618986" lon="9.783625751943413"><ele>19.0</ele><time>2026-05-04T13:23:01.001Z</time></trkpt><trkpt lat="40.50253323474822" lon="9.783862140608342"><ele>19.0</ele><time>2026-05-04T13:23:02.001Z</time></trkpt><trkpt lat="40.50275106368406" lon="9.78410328890915"><ele>19.0</ele><time>2026-05-04T13:23:03.001Z</time></trkpt><trkpt lat="40.50296453898402" lon="9.784337849553383"><ele>19.5</ele><time>2026-05-04T13:23:04.001Z</time></trkpt><trkpt lat="40.50316555735186" lon="9.784557652585669"><ele>20.0</ele><time>2026-05-04T13:23:05.001Z</time></trkpt><trkpt lat="40.50336894109115" lon="9.784782162830139"><ele>20.0</ele><time>2026-05-04T13:23:06.001Z</time></trkpt><trkpt lat="40.503566817984954" lon="9.785004386196412"><ele>20.0</ele><time>2026-05-04T13:23:07.001Z</time></trkpt><trkpt lat="40.50376920262376" lon="9.785219584184206"><ele>19.0</ele><time>2026-05-04T13:23:08.001Z</time></trkpt><trkpt lat="40.503997749216374" lon="9.785447519434234"><ele>18.0</ele><time>2026-05-04T13:23:09.001Z</time></trkpt><trkpt lat="40.504256037368286" lon="9.785688232739806"><ele>18.0</ele><time>2026-05-04T13:23:10.001Z</time></trkpt><trkpt lat="40.50452157261925" lon="9.785934717652312"><ele>18.0</ele><time>2026-05-04T13:23:11.001Z</time></trkpt><trkpt lat="40.50477993655816" lon="9.786184080755307"><ele>17.5</ele><time>2026-05-04T13:23:12.001Z</time></trkpt><trkpt lat="40.50503380503315" lon="9.786431381401158"><ele>17.0</ele><time>2026-05-04T13:23:13.001Z</time></trkpt><trkpt lat="40.505270079124706" lon="9.786658656463661"><ele>18.0</ele><time>2026-05-04T13:23:14.001Z</time></trkpt><trkpt lat="40.50549040156105" lon="9.786869647450256"><ele>19.0</ele><time>2026-05-04T13:23:15.001Z</time></trkpt><trkpt lat="40.50570477707314" lon="9.787076863021845"><ele>19.0</ele><time>2026-05-04T13:23:16.001Z</time></trkpt><trkpt lat="40.50592087729704" lon="9.787285256554558"><ele>19.0</ele><time>2026-05-04T13:23:17.001Z</time></trkpt><trkpt lat="40.50614174802963" lon="9.787495357445287"><ele>18.5</ele><time>2026-05-04T13:23:18.001Z</time></trkpt><trkpt lat="40.5063574470832" lon="9.787708076489247"><ele>18.0</ele><time>2026-05-04T13:23:19.001Z</time></trkpt><trkpt lat="40.50656759687698" lon="9.787914622776434"><ele>18.0</ele><time>2026-05-04T13:23:20.001Z</time></trkpt><trkpt lat="40.50678060569119" lon="9.788117533058722"><ele>18.0</ele><time>2026-05-04T13:23:21.001Z</time></trkpt><trkpt lat="40.50698467010188" lon="9.788312626194234"><ele>17.5</ele><time>2026-05-04T13:23:22.001Z</time></trkpt><trkpt lat="40.50717300597143" lon="9.78849270515007"><ele>17.0</ele><time>2026-05-04T13:23:23.001Z</time></trkpt><trkpt lat="40.50735851415066" lon="9.788664558496775"><ele>17.666666666666668</ele><time>2026-05-04T13:23:24.001Z</time></trkpt><trkpt lat="40.5075393898357" lon="9.78882490956279"><ele>18.333333333333332</ele><time>2026-05-04T13:23:25.001Z</time></trkpt><trkpt lat="40.50774241710725" lon="9.788966391463726"><ele>19.0</ele><time>2026-05-04T13:23:26.001Z</time></trkpt><trkpt lat="40.507968046221706" lon="9.789059773970992"><ele>19.0</ele><time>2026-05-04T13:23:27.001Z</time></trkpt><trkpt lat="40.508208890918446" lon="9.789135894717582"><ele>19.0</ele><time>2026-05-04T13:23:28.001Z</time></trkpt><trkpt lat="40.508448390279845" lon="9.789226522729203"><ele>19.0</ele><time>2026-05-04T13:23:29.001Z</time></trkpt><trkpt lat="40.508688430087226" lon="9.78932844112025"><ele>19.0</ele><time>2026-05-04T13:23:30.001Z</time></trkpt><trkpt lat="40.508930459236424" lon="9.78943260656156"><ele>21.5</ele><time>2026-05-04T13:23:31.001Z</time></trkpt><trkpt lat="40.50917620977639" lon="9.789535515999132"><ele>24.0</ele><time>2026-05-04T13:23:32.001Z</time></trkpt><trkpt lat="40.50943246425508" lon="9.789638897742389"><ele>24.5</ele><time>2026-05-04T13:23:33.001Z</time></trkpt><trkpt lat="40.50969637786689" lon="9.78974429139185"><ele>25.0</ele><time>2026-05-04T13:23:34.001Z</time></trkpt><trkpt lat="40.5099484440939" lon="9.789848767556482"><ele>25.0</ele><time>2026-05-04T13:23:35.001Z</time></trkpt><trkpt lat="40.5101918291893" lon="9.789946177357088"><ele>25.0</ele><time>2026-05-04T13:23:36.001Z</time></trkpt><trkpt lat="40.5104221879506" lon="9.790037687776659"><ele>25.5</ele><time>2026-05-04T13:23:37.001Z</time></trkpt><trkpt lat="40.51063957953164" lon="9.790137861243238"><ele>26.0</ele><time>2026-05-04T13:23:38.001Z</time></trkpt><trkpt lat="40.51086049102867" lon="9.79025987419356"><ele>26.0</ele><time>2026-05-04T13:23:39.001Z</time></trkpt><trkpt lat="40.511087232832836" lon="9.790395779445397"><ele>26.0</ele><time>2026-05-04T13:23:40.001Z</time></trkpt><trkpt lat="40.51133389957865" lon="9.790515862364643"><ele>26.0</ele><time>2026-05-04T13:23:41.001Z</time></trkpt><trkpt lat="40.511585998079255" lon="9.790611564655212"><ele>26.0</ele><time>2026-05-04T13:23:42.001Z</time></trkpt><trkpt lat="40.511841943068646" lon="9.790708045547209"><ele>26.5</ele><time>2026-05-04T13:23:43.001Z</time></trkpt><trkpt lat="40.512115924538584" lon="9.790843634265674"><ele>27.0</ele><time>2026-05-04T13:23:44.002Z</time></trkpt><trkpt lat="40.51239836320777" lon="9.791004675226677"><ele>27.5</ele><time>2026-05-04T13:23:45.002Z</time></trkpt><trkpt lat="40.512687339781756" lon="9.791169588554746"><ele>28.0</ele><time>2026-05-04T13:23:46.002Z</time></trkpt><trkpt lat="40.51298587951971" lon="9.791324275865254"><ele>28.0</ele><time>2026-05-04T13:23:47.002Z</time></trkpt><trkpt lat="40.51327766102894" lon="9.79147763008405"><ele>28.0</ele><time>2026-05-04T13:23:47.999Z</time></trkpt><trkpt lat="40.51355341358211" lon="9.791629694643683"><ele>28.5</ele><time>2026-05-04T13:23:48.999Z</time></trkpt><trkpt lat="40.51382036354915" lon="9.791775743082589"><ele>29.0</ele><time>2026-05-04T13:23:49.999Z</time></trkpt><trkpt lat="40.51408023580431" lon="9.791916629877468"><ele>29.5</ele><time>2026-05-04T13:23:50.999Z</time></trkpt><trkpt lat="40.51433669690624" lon="9.792053619155825"><ele>30.0</ele><time>2026-05-04T13:23:51.999Z</time></trkpt><trkpt lat="40.51459228018795" lon="9.79219195071989"><ele>31.5</ele><time>2026-05-04T13:23:52.999Z</time></trkpt><trkpt lat="40.51483549259637" lon="9.79232511094335"><ele>33.0</ele><time>2026-05-04T13:23:53.999Z</time></trkpt><trkpt lat="40.51507399496456" lon="9.792463427476685"><ele>33.0</ele><time>2026-05-04T13:23:54.999Z</time></trkpt><trkpt lat="40.51530504014955" lon="9.792609879416052"><ele>33.0</ele><time>2026-05-04T13:23:55.999Z</time></trkpt><trkpt lat="40.51553044742964" lon="9.792769995031678"><ele>34.0</ele><time>2026-05-04T13:23:56.999Z</time></trkpt><trkpt lat="40.51575715009325" lon="9.792932612183112"><ele>35.0</ele><time>2026-05-04T13:23:57.999Z</time></trkpt><trkpt lat="40.51597132689469" lon="9.793100175506238"><ele>35.0</ele><time>2026-05-04T13:23:58.999Z</time></trkpt><trkpt lat="40.51618493513732" lon="9.79327431319505"><ele>35.0</ele><time>2026-05-04T13:23:59.999Z</time></trkpt><trkpt lat="40.51639953492142" lon="9.79344826979879"><ele>36.5</ele><time>2026-05-04T13:24:00.999Z</time></trkpt><trkpt lat="40.516631496536206" lon="9.793634585244636"><ele>38.0</ele><time>2026-05-04T13:24:01.999Z</time></trkpt><trkpt lat="40.516863289256854" lon="9.79381801148194"><ele>39.5</ele><time>2026-05-04T13:24:02.999Z</time></trkpt><trkpt lat="40.51709799886929" lon="9.794004669180248"><ele>41.0</ele><time>2026-05-04T13:24:03.999Z</time></trkpt><trkpt lat="40.51732369739993" lon="9.794189676167042"><ele>43.5</ele><time>2026-05-04T13:24:04.999Z</time></trkpt><trkpt lat="40.51753929655135" lon="9.794365151303111"><ele>46.0</ele><time>2026-05-04T13:24:05.999Z</time></trkpt><trkpt lat="40.517738879228816" lon="9.794527044931138"><ele>46.333333333333336</ele><time>2026-05-04T13:24:06.999Z</time></trkpt><trkpt lat="40.51793007167989" lon="9.794680501641004"><ele>46.666666666666664</ele><time>2026-05-04T13:24:07.999Z</time></trkpt><trkpt lat="40.518117894853816" lon="9.79483691338004"><ele>47.0</ele><time>2026-05-04T13:24:08.999Z</time></trkpt><trkpt lat="40.51828830450436" lon="9.79501560955131"><ele>46.33333333333333</ele><time>2026-05-04T13:24:09.999Z</time></trkpt><trkpt lat="40.51842220948866" lon="9.795220037012104"><ele>45.666666666666664</ele><time>2026-05-04T13:24:11Z</time></trkpt><trkpt lat="40.51851929630446" lon="9.795414616052792"><ele>45.0</ele><time>2026-05-04T13:24:12Z</time></trkpt><trkpt lat="40.51863402916918" lon="9.79554785320576"><ele>43.666666666666664</ele><time>2026-05-04T13:24:13Z</time></trkpt><trkpt lat="40.51881389006711" lon="9.795601876095391"><ele>42.33333333333333</ele><time>2026-05-04T13:24:14Z</time></trkpt><trkpt lat="40.519036964886254" lon="9.795644958748834"><ele>41.0</ele><time>2026-05-04T13:24:15Z</time></trkpt><trkpt lat="40.51928308885929" lon="9.795723816854432"><ele>41.0</ele><time>2026-05-04T13:24:16Z</time></trkpt><trkpt lat="40.51951430198238" lon="9.795850434313458"><ele>41.0</ele><time>2026-05-04T13:24:17Z</time></trkpt><trkpt lat="40.519728111015546" lon="9.795973304886324"><ele>37.0</ele><time>2026-05-04T13:24:18Z</time></trkpt><trkpt lat="40.51993615746197" lon="9.79607171233525"><ele>33.0</ele><time>2026-05-04T13:24:19Z</time></trkpt><trkpt lat="40.520154662462694" lon="9.796176401329557"><ele>33.0</ele><time>2026-05-04T13:24:20Z</time></trkpt><trkpt lat="40.520352398283535" lon="9.79628941678447"><ele>33.0</ele><time>2026-05-04T13:24:21Z</time></trkpt><trkpt lat="40.52052619560163" lon="9.796398354430227"><ele>33.0</ele><time>2026-05-04T13:24:22Z</time></trkpt><trkpt lat="40.52070040065832" lon="9.796475232399771"><ele>32.0</ele><time>2026-05-04T13:24:23Z</time></trkpt><trkpt lat="40.52087416533527" lon="9.796492458440063"><ele>31.0</ele><time>2026-05-04T13:24:24Z</time></trkpt><trkpt lat="40.52103096592822" lon="9.79650051688034"><ele>30.0</ele><time>2026-05-04T13:24:25Z</time></trkpt><trkpt lat="40.52118632713811" lon="9.79653895802928"><ele>28.666666666666664</ele><time>2026-05-04T13:24:26Z</time></trkpt><trkpt lat="40.521339487719985" lon="9.796641497974662"><ele>27.333333333333332</ele><time>2026-05-04T13:24:27Z</time></trkpt><trkpt lat="40.52147630647462" lon="9.796783443210305"><ele>26.0</ele><time>2026-05-04T13:24:28Z</time></trkpt><trkpt lat="40.52159883387253" lon="9.796928529054803"><ele>25.666666666666664</ele><time>2026-05-04T13:24:29Z</time></trkpt><trkpt lat="40.521720186743096" lon="9.797054006786981"><ele>25.333333333333336</ele><time>2026-05-04T13:24:30Z</time></trkpt><trkpt lat="40.52185744923349" lon="9.79716554307403"><ele>25.0</ele><time>2026-05-04T13:24:31Z</time></trkpt><trkpt lat="40.522014664483144" lon="9.797228914101861"><ele>24.333333333333336</ele><time>2026-05-04T13:24:32Z</time></trkpt><trkpt lat="40.52218997037198" lon="9.797244514641854"><ele>23.666666666666668</ele><time>2026-05-04T13:24:33Z</time></trkpt><trkpt lat="40.52239035099108" lon="9.797207650560127"><ele>23.0</ele><time>2026-05-04T13:24:34Z</time></trkpt><trkpt lat="40.52259751155783" lon="9.797149039499802"><ele>23.0</ele><time>2026-05-04T13:24:35Z</time></trkpt><trkpt lat="40.5228121111953" lon="9.797098416276873"><ele>23.0</ele><time>2026-05-04T13:24:36Z</time></trkpt><trkpt lat="40.523028269229144" lon="9.797066359919592"><ele>23.0</ele><time>2026-05-04T13:24:37Z</time></trkpt><trkpt lat="40.52323596172974" lon="9.797040322849794"><ele>22.666666666666668</ele><time>2026-05-04T13:24:38Z</time></trkpt><trkpt lat="40.523432349906436" lon="9.79701185249716"><ele>22.333333333333332</ele><time>2026-05-04T13:24:39Z</time></trkpt><trkpt lat="40.5236187942998" lon="9.796982134840762"><ele>22.0</ele><time>2026-05-04T13:24:40Z</time></trkpt><trkpt lat="40.52379081990662" lon="9.796941576011818"><ele>22.666666666666664</ele><time>2026-05-04T13:24:41Z</time></trkpt><trkpt lat="40.523957120604024" lon="9.79688059099325"><ele>23.333333333333332</ele><time>2026-05-04T13:24:42Z</time></trkpt><trkpt lat="40.52410472080002" lon="9.796805830747976"><ele>24.0</ele><time>2026-05-04T13:24:43Z</time></trkpt><trkpt lat="40.524245107817194" lon="9.796724179096344"><ele>24.0</ele><time>2026-05-04T13:24:44.001Z</time></trkpt><trkpt lat="40.52439856631237" lon="9.796611845084943"><ele>24.0</ele><time>2026-05-04T13:24:45.001Z</time></trkpt><trkpt lat="40.52457949237301" lon="9.796445216737437"><ele>24.0</ele><time>2026-05-04T13:24:46.001Z</time></trkpt><trkpt lat="40.52478216282813" lon="9.796253895643583"><ele>23.5</ele><time>2026-05-04T13:24:47.001Z</time></trkpt><trkpt lat="40.52500817682575" lon="9.796051108803896"><ele>23.0</ele><time>2026-05-04T13:24:48.001Z</time></trkpt><trkpt lat="40.52524749609965" lon="9.795822394309795"><ele>22.0</ele><time>2026-05-04T13:24:49.001Z</time></trkpt><trkpt lat="40.52549085473423" lon="9.795592158732834"><ele>21.0</ele><time>2026-05-04T13:24:50.001Z</time></trkpt><trkpt lat="40.52572455969657" lon="9.795366436046866"><ele>21.0</ele><time>2026-05-04T13:24:51.001Z</time></trkpt><trkpt lat="40.52596315005817" lon="9.795118443659435"><ele>21.0</ele><time>2026-05-04T13:24:52.001Z</time></trkpt><trkpt lat="40.52618760680147" lon="9.794854675154738"><ele>20.0</ele><time>2026-05-04T13:24:53.001Z</time></trkpt><trkpt lat="40.5263994853009" lon="9.794602833758784"><ele>19.0</ele><time>2026-05-04T13:24:54.001Z</time></trkpt><trkpt lat="40.526642141374694" lon="9.794403663521216"><ele>19.5</ele><time>2026-05-04T13:24:55.001Z</time></trkpt><trkpt lat="40.52687763552946" lon="9.794175145040805"><ele>20.0</ele><time>2026-05-04T13:24:56.001Z</time></trkpt><trkpt lat="40.527125082027965" lon="9.793961951315682"><ele>18.5</ele><time>2026-05-04T13:24:57.001Z</time></trkpt><trkpt lat="40.527367105994216" lon="9.793750860754447"><ele>17.0</ele><time>2026-05-04T13:24:58.001Z</time></trkpt><trkpt lat="40.52760740270408" lon="9.793540922142489"><ele>17.5</ele><time>2026-05-04T13:24:59.001Z</time></trkpt><trkpt lat="40.52784740266854" lon="9.79332608899499"><ele>18.0</ele><time>2026-05-04T13:25:00.001Z</time></trkpt><trkpt lat="40.52807939066688" lon="9.793115712215377"><ele>18.0</ele><time>2026-05-04T13:25:01.001Z</time></trkpt><trkpt lat="40.528302797191145" lon="9.792916582119895"><ele>18.0</ele><time>2026-05-04T13:25:02.001Z</time></trkpt><trkpt lat="40.52851804223594" lon="9.792733999590757"><ele>19.0</ele><time>2026-05-04T13:25:03.001Z</time></trkpt><trkpt lat="40.528744600004146" lon="9.792614518070048"><ele>20.0</ele><time>2026-05-04T13:25:04.001Z</time></trkpt><trkpt lat="40.52896879689856" lon="9.792483897172655"><ele>20.0</ele><time>2026-05-04T13:25:05.001Z</time></trkpt><trkpt lat="40.529209707564924" lon="9.79238828507774"><ele>20.0</ele><time>2026-05-04T13:25:06.001Z</time></trkpt><trkpt lat="40.52943168364041" lon="9.792283686258271"><ele>18.0</ele><time>2026-05-04T13:25:07.001Z</time></trkpt><trkpt lat="40.52964251262232" lon="9.792188575622115"><ele>16.0</ele><time>2026-05-04T13:25:08.001Z</time></trkpt><trkpt lat="40.52985666721705" lon="9.792088292630513"><ele>16.0</ele><time>2026-05-04T13:25:09.001Z</time></trkpt><trkpt lat="40.53006970081223" lon="9.79198955223114"><ele>16.0</ele><time>2026-05-04T13:25:10.001Z</time></trkpt><trkpt lat="40.53028736782606" lon="9.791885621586731"><ele>18.0</ele><time>2026-05-04T13:25:11.001Z</time></trkpt><trkpt lat="40.53050397742426" lon="9.791789573928295"><ele>20.0</ele><time>2026-05-04T13:25:12.001Z</time></trkpt><trkpt lat="40.530724403839045" lon="9.791678505267631"><ele>20.0</ele><time>2026-05-04T13:25:13.001Z</time></trkpt><trkpt lat="40.530941043779784" lon="9.791564803598897"><ele>20.0</ele><time>2026-05-04T13:25:14.001Z</time></trkpt><trkpt lat="40.53115472194109" lon="9.791459469975461"><ele>20.5</ele><time>2026-05-04T13:25:15.001Z</time></trkpt><trkpt lat="40.53137263824994" lon="9.791352965700476"><ele>21.0</ele><time>2026-05-04T13:25:16.001Z</time></trkpt><trkpt lat="40.53160045465899" lon="9.791258985145797"><ele>21.0</ele><time>2026-05-04T13:25:17.001Z</time></trkpt><trkpt lat="40.53182260303802" lon="9.791172962961346"><ele>21.0</ele><time>2026-05-04T13:25:18.001Z</time></trkpt><trkpt lat="40.53204597019166" lon="9.791090343600759"><ele>20.0</ele><time>2026-05-04T13:25:19.001Z</time></trkpt><trkpt lat="40.53227299477437" lon="9.790995277848246"><ele>19.0</ele><time>2026-05-04T13:25:20.001Z</time></trkpt><trkpt lat="40.53249382751123" lon="9.79090333494118"><ele>19.0</ele><time>2026-05-04T13:25:21.001Z</time></trkpt><trkpt lat="40.532721503321476" lon="9.790816343376251"><ele>19.0</ele><time>2026-05-04T13:25:22.001Z</time></trkpt><trkpt lat="40.53295187314414" lon="9.7907254944932"><ele>18.0</ele><time>2026-05-04T13:25:23.001Z</time></trkpt><trkpt lat="40.533179299306255" lon="9.790637042825844"><ele>17.0</ele><time>2026-05-04T13:25:24.001Z</time></trkpt><trkpt lat="40.5334114157574" lon="9.79055102940641"><ele>17.0</ele><time>2026-05-04T13:25:25.001Z</time></trkpt><trkpt lat="40.533637331202044" lon="9.79046414035014"><ele>17.0</ele><time>2026-05-04T13:25:26.001Z</time></trkpt><trkpt lat="40.53386879612237" lon="9.790377703118105"><ele>18.0</ele><time>2026-05-04T13:25:27.001Z</time></trkpt><trkpt lat="40.534098467857724" lon="9.790287193346794"><ele>19.0</ele><time>2026-05-04T13:25:28.002Z</time></trkpt><trkpt lat="40.53433506074766" lon="9.790196459172524"><ele>20.0</ele><time>2026-05-04T13:25:29.002Z</time></trkpt><trkpt lat="40.53456612086871" lon="9.790073738246509"><ele>21.0</ele><time>2026-05-04T13:25:30.002Z</time></trkpt><trkpt lat="40.534800622784154" lon="9.789910983446418"><ele>21.0</ele><time>2026-05-04T13:25:31.002Z</time></trkpt><trkpt lat="40.535058030259684" lon="9.78972217749531"><ele>21.0</ele><time>2026-05-04T13:25:32.002Z</time></trkpt><trkpt lat="40.53528969975607" lon="9.78954422525847"><ele>18.0</ele><time>2026-05-04T13:25:33.002Z</time></trkpt><trkpt lat="40.53550442139964" lon="9.789396429067784"><ele>15.0</ele><time>2026-05-04T13:25:34.002Z</time></trkpt><trkpt lat="40.53571715498502" lon="9.789255539138015"><ele>13.5</ele><time>2026-05-04T13:25:35.002Z</time></trkpt><trkpt lat="40.53594041131426" lon="9.789099323493266"><ele>12.0</ele><time>2026-05-04T13:25:36.002Z</time></trkpt><trkpt lat="40.53617395618095" lon="9.788940824182728"><ele>10.5</ele><time>2026-05-04T13:25:37.002Z</time></trkpt><trkpt lat="40.53640577445221" lon="9.788769532137934"><ele>9.0</ele><time>2026-05-04T13:25:38.002Z</time></trkpt><trkpt lat="40.5366441267008" lon="9.78860457494477"><ele>9.0</ele><time>2026-05-04T13:25:39.002Z</time></trkpt><trkpt lat="40.53687838446491" lon="9.788441636224894"><ele>9.0</ele><time>2026-05-04T13:25:40.002Z</time></trkpt><trkpt lat="40.537103439417535" lon="9.788277704010028"><ele>8.5</ele><time>2026-05-04T13:25:41.002Z</time></trkpt><trkpt lat="40.5373218114785" lon="9.788126134845708"><ele>8.0</ele><time>2026-05-04T13:25:42.002Z</time></trkpt><trkpt lat="40.5375397232968" lon="9.787973935014469"><ele>8.0</ele><time>2026-05-04T13:25:43.002Z</time></trkpt><trkpt lat="40.53775292438131" lon="9.787830961796049"><ele>8.0</ele><time>2026-05-04T13:25:44.002Z</time></trkpt><trkpt lat="40.537963610916016" lon="9.787682985396561"><ele>9.0</ele><time>2026-05-04T13:25:45.002Z</time></trkpt><trkpt lat="40.538175122118425" lon="9.787533639011013"><ele>10.0</ele><time>2026-05-04T13:25:46.002Z</time></trkpt><trkpt lat="40.53839051058858" lon="9.787385912171745"><ele>10.0</ele><time>2026-05-04T13:25:47.002Z</time></trkpt><trkpt lat="40.5386082984562" lon="9.787241542656911"><ele>10.0</ele><time>2026-05-04T13:25:48.002Z</time></trkpt><trkpt lat="40.538827519976465" lon="9.7870927894025"><ele>10.5</ele><time>2026-05-04T13:25:49.002Z</time></trkpt><trkpt lat="40.53904843770874" lon="9.786939980323892"><ele>11.0</ele><time>2026-05-04T13:25:50.002Z</time></trkpt><trkpt lat="40.539268876701044" lon="9.78679040383447"><ele>10.5</ele><time>2026-05-04T13:25:51.002Z</time></trkpt><trkpt lat="40.539485277835205" lon="9.786638104136054"><ele>10.0</ele><time>2026-05-04T13:25:52.002Z</time></trkpt><trkpt lat="40.5396990650662" lon="9.786488708227338"><ele>10.0</ele><time>2026-05-04T13:25:53.002Z</time></trkpt><trkpt lat="40.53992096379924" lon="9.786328281405387"><ele>10.0</ele><time>2026-05-04T13:25:54Z</time></trkpt><trkpt lat="40.540139267599784" lon="9.786158847951132"><ele>10.0</ele><time>2026-05-04T13:25:55Z</time></trkpt><trkpt lat="40.54035993911367" lon="9.785997102538996"><ele>10.0</ele><time>2026-05-04T13:25:56.001Z</time></trkpt><trkpt lat="40.54058817691676" lon="9.78584299233946"><ele>9.5</ele><time>2026-05-04T13:25:57.001Z</time></trkpt><trkpt lat="40.540815320611706" lon="9.785686880280315"><ele>9.0</ele><time>2026-05-04T13:25:58Z</time></trkpt><trkpt lat="40.54104420731386" lon="9.785524460670931"><ele>9.0</ele><time>2026-05-04T13:25:59.001Z</time></trkpt><trkpt lat="40.541267084333846" lon="9.785362544065446"><ele>9.0</ele><time>2026-05-04T13:26:00.001Z</time></trkpt><trkpt lat="40.54147562114042" lon="9.78522124082756"><ele>9.0</ele><time>2026-05-04T13:26:01Z</time></trkpt><trkpt lat="40.54167975270434" lon="9.785080041493872"><ele>9.0</ele><time>2026-05-04T13:26:02.001Z</time></trkpt><trkpt lat="40.541891396226895" lon="9.784949959262232"><ele>8.0</ele><time>2026-05-04T13:26:03Z</time></trkpt><trkpt lat="40.542108715270224" lon="9.784820185801868"><ele>7.0</ele><time>2026-05-04T13:26:04Z</time></trkpt><trkpt lat="40.54232177977546" lon="9.784685853671498"><ele>7.0</ele><time>2026-05-04T13:26:05Z</time></trkpt><trkpt lat="40.542542127998075" lon="9.784544943375408"><ele>7.0</ele><time>2026-05-04T13:26:06Z</time></trkpt><trkpt lat="40.54275465317759" lon="9.784415223389647"><ele>5.0</ele><time>2026-05-04T13:26:07Z</time></trkpt><trkpt lat="40.54296466800611" lon="9.78428431111136"><ele>3.0</ele><time>2026-05-04T13:26:08Z</time></trkpt><trkpt lat="40.54316417614251" lon="9.78415716924244"><ele>3.0</ele><time>2026-05-04T13:26:09.001Z</time></trkpt><trkpt lat="40.54334905463463" lon="9.784037685128785"><ele>3.0</ele><time>2026-05-04T13:26:10.001Z</time></trkpt><trkpt lat="40.543522660267755" lon="9.783929532111596"><ele>3.0</ele><time>2026-05-04T13:26:11.001Z</time></trkpt><trkpt lat="40.54368693862155" lon="9.783821576645584"><ele>5.0</ele><time>2026-05-04T13:26:12.001Z</time></trkpt><trkpt lat="40.54383935469763" lon="9.783723712582292"><ele>7.0</ele><time>2026-05-04T13:26:13.001Z</time></trkpt><trkpt lat="40.54398890508304" lon="9.78364606171739"><ele>9.0</ele><time>2026-05-04T13:26:14.001Z</time></trkpt><trkpt lat="40.54413394841632" lon="9.783555388682299"><ele>8.75</ele><time>2026-05-04T13:26:15.001Z</time></trkpt><trkpt lat="40.54426582443451" lon="9.783477105180701"><ele>8.5</ele><time>2026-05-04T13:26:16.001Z</time></trkpt><trkpt lat="40.54438755709052" lon="9.783400690543921"><ele>8.25</ele><time>2026-05-04T13:26:17.001Z</time></trkpt><trkpt lat="40.544514065778756" lon="9.783340208824495"><ele>8.0</ele><time>2026-05-04T13:26:18.001Z</time></trkpt><trkpt lat="40.54465621963279" lon="9.783295778124197"><ele>8.75</ele><time>2026-05-04T13:26:19.001Z</time></trkpt><trkpt lat="40.54480173719025" lon="9.783291448099618"><ele>9.5</ele><time>2026-05-04T13:26:20.001Z</time></trkpt><trkpt lat="40.54494585523961" lon="9.783314903439512"><ele>10.25</ele><time>2026-05-04T13:26:21.001Z</time></trkpt><trkpt lat="40.545070999026436" lon="9.783359437831152"><ele>11.0</ele><time>2026-05-04T13:26:22.001Z</time></trkpt><trkpt lat="40.54519183735511" lon="9.783409384161942"><ele>11.0</ele><time>2026-05-04T13:26:23.001Z</time></trkpt><trkpt lat="40.54528880432349" lon="9.783461865139516"><ele>11.0</ele><time>2026-05-04T13:26:24.001Z</time></trkpt><trkpt lat="40.54536773360971" lon="9.783503428841538"><ele>11.0</ele><time>2026-05-04T13:26:25.001Z</time></trkpt><trkpt lat="40.54545065698194" lon="9.783526117235782"><ele>11.0</ele><time>2026-05-04T13:26:27.001Z</time></trkpt><trkpt lat="40.54555798472747" lon="9.783619982727668"><ele>11.0</ele><time>2026-05-04T13:26:29.001Z</time></trkpt><trkpt lat="40.54563893879509" lon="9.783666594631367"><ele>11.200000000000001</ele><time>2026-05-04T13:26:31.001Z</time></trkpt><trkpt lat="40.54573238399923" lon="9.783711198599645"><ele>11.4</ele><time>2026-05-04T13:26:33.001Z</time></trkpt><trkpt lat="40.545867217781506" lon="9.783764774493651"><ele>11.6</ele><time>2026-05-04T13:26:35.001Z</time></trkpt><trkpt lat="40.54596032843341" lon="9.783809340048423"><ele>11.8</ele><time>2026-05-04T13:26:36.001Z</time></trkpt><trkpt lat="40.54605234648103" lon="9.783853698280678"><ele>12.0</ele><time>2026-05-04T13:26:37.001Z</time></trkpt><trkpt lat="40.5461544615015" lon="9.78390256159935"><ele>11.5</ele><time>2026-05-04T13:26:38.001Z</time></trkpt><trkpt lat="40.54625219809829" lon="9.783955120940481"><ele>11.0</ele><time>2026-05-04T13:26:39.001Z</time></trkpt><trkpt lat="40.546388506415" lon="9.784015404313317"><ele>10.5</ele><time>2026-05-04T13:26:40.001Z</time></trkpt><trkpt lat="40.54653994499877" lon="9.784097797528995"><ele>10.0</ele><time>2026-05-04T13:26:41.001Z</time></trkpt><trkpt lat="40.54670472678435" lon="9.784175315157968"><ele>10.0</ele><time>2026-05-04T13:26:42.001Z</time></trkpt><trkpt lat="40.54688086422603" lon="9.784255559628685"><ele>10.0</ele><time>2026-05-04T13:26:43.001Z</time></trkpt><trkpt lat="40.547070502740816" lon="9.784338839996547"><ele>10.0</ele><time>2026-05-04T13:26:44.001Z</time></trkpt><trkpt lat="40.54727222327148" lon="9.784427592713982"><ele>10.0</ele><time>2026-05-04T13:26:45.001Z</time></trkpt><trkpt lat="40.54748640723841" lon="9.78454984638465"><ele>10.0</ele><time>2026-05-04T13:26:46.001Z</time></trkpt><trkpt lat="40.54771841965424" lon="9.784664160159814"><ele>8.5</ele><time>2026-05-04T13:26:47.001Z</time></trkpt><trkpt lat="40.54796654172381" lon="9.784763199638151"><ele>7.0</ele><time>2026-05-04T13:26:48.001Z</time></trkpt><trkpt lat="40.548199018656895" lon="9.784900953894018"><ele>7.0</ele><time>2026-05-04T13:26:49.001Z</time></trkpt><trkpt lat="40.548446231400796" lon="9.785008734801876"><ele>7.0</ele><time>2026-05-04T13:26:50.001Z</time></trkpt><trkpt lat="40.54868836754895" lon="9.785155149776935"><ele>6.5</ele><time>2026-05-04T13:26:51.001Z</time></trkpt><trkpt lat="40.54890497117832" lon="9.78526218421665"><ele>6.0</ele><time>2026-05-04T13:26:52.001Z</time></trkpt><trkpt lat="40.54911613142516" lon="9.785364613837855"><ele>6.0</ele><time>2026-05-04T13:26:53.001Z</time></trkpt><trkpt lat="40.54932481826268" lon="9.78547037003171"><ele>6.0</ele><time>2026-05-04T13:26:54.001Z</time></trkpt><trkpt lat="40.54952947900788" lon="9.785571574773341"><ele>6.0</ele><time>2026-05-04T13:26:55.001Z</time></trkpt><trkpt lat="40.54973140468347" lon="9.785657778786897"><ele>6.0</ele><time>2026-05-04T13:26:56.001Z</time></trkpt><trkpt lat="40.549940119190424" lon="9.785725072656815"><ele>6.0</ele><time>2026-05-04T13:26:57.001Z</time></trkpt><trkpt lat="40.55015327846177" lon="9.785771382452221"><ele>6.0</ele><time>2026-05-04T13:26:58.001Z</time></trkpt><trkpt lat="40.550370131856674" lon="9.785804601467904"><ele>6.0</ele><time>2026-05-04T13:26:59.001Z</time></trkpt><trkpt lat="40.550619557990416" lon="9.78584694899539"><ele>6.0</ele><time>2026-05-04T13:27:00.001Z</time></trkpt><trkpt lat="40.55082196067431" lon="9.785914707468013"><ele>6.333333333333334</ele><time>2026-05-04T13:27:01.001Z</time></trkpt><trkpt lat="40.55100608704076" lon="9.786057601349661"><ele>6.666666666666667</ele><time>2026-05-04T13:27:02.001Z</time></trkpt><trkpt lat="40.55118985751701" lon="9.786220968528657"><ele>7.0</ele><time>2026-05-04T13:27:03.001Z</time></trkpt><trkpt lat="40.55136247297487" lon="9.786368661007788"><ele>7.333333333333334</ele><time>2026-05-04T13:27:04.001Z</time></trkpt><trkpt lat="40.55151395897688" lon="9.786537740225247"><ele>7.666666666666666</ele><time>2026-05-04T13:27:05.002Z</time></trkpt><trkpt lat="40.55166674372937" lon="9.786681804238079"><ele>8.0</ele><time>2026-05-04T13:27:06.002Z</time></trkpt><trkpt lat="40.551848220055064" lon="9.786775611271407"><ele>8.333333333333332</ele><time>2026-05-04T13:27:07.002Z</time></trkpt><trkpt lat="40.5520506329655" lon="9.786809075745241"><ele>8.666666666666666</ele><time>2026-05-04T13:27:08.002Z</time></trkpt><trkpt lat="40.55225157317588" lon="9.786841108625609"><ele>9.0</ele><time>2026-05-04T13:27:09.002Z</time></trkpt><trkpt lat="40.55243918179471" lon="9.78687541914952"><ele>8.0</ele><time>2026-05-04T13:27:10.002Z</time></trkpt><trkpt lat="40.55262085083133" lon="9.786914555490437"><ele>7.0</ele><time>2026-05-04T13:27:11.002Z</time></trkpt><trkpt lat="40.55280177061425" lon="9.786953109315547"><ele>6.0</ele><time>2026-05-04T13:27:12.002Z</time></trkpt><trkpt lat="40.55298802639039" lon="9.787025088535744"><ele>6.0</ele><time>2026-05-04T13:27:13.002Z</time></trkpt><trkpt lat="40.55318991784614" lon="9.787166555934423"><ele>6.0</ele><time>2026-05-04T13:27:14.002Z</time></trkpt><trkpt lat="40.553419425370926" lon="9.78731345922464"><ele>6.0</ele><time>2026-05-04T13:27:15.002Z</time></trkpt><trkpt lat="40.55366624281641" lon="9.787471114391657"><ele>6.0</ele><time>2026-05-04T13:27:16.002Z</time></trkpt><trkpt lat="40.55394731666747" lon="9.78765007805073"><ele>7.0</ele><time>2026-05-04T13:27:17.002Z</time></trkpt><trkpt lat="40.55426971510441" lon="9.787834043887079"><ele>8.0</ele><time>2026-05-04T13:27:18.002Z</time></trkpt><trkpt lat="40.554569486518346" lon="9.788049199785442"><ele>9.5</ele><time>2026-05-04T13:27:19.002Z</time></trkpt><trkpt lat="40.55482993447584" lon="9.78822200505687"><ele>11.0</ele><time>2026-05-04T13:27:20.002Z</time></trkpt><trkpt lat="40.55505717389372" lon="9.78831360787858"><ele>11.0</ele><time>2026-05-04T13:27:21.002Z</time></trkpt><trkpt lat="40.55530042444686" lon="9.788349905665905"><ele>11.0</ele><time>2026-05-04T13:27:22.002Z</time></trkpt><trkpt lat="40.55558351213728" lon="9.788354543237984"><ele>10.0</ele><time>2026-05-04T13:27:23.002Z</time></trkpt><trkpt lat="40.555889156614256" lon="9.788385717242829"><ele>9.0</ele><time>2026-05-04T13:27:24.002Z</time></trkpt><trkpt lat="40.55618962538167" lon="9.78843481663544"><ele>8.0</ele><time>2026-05-04T13:27:25.002Z</time></trkpt><trkpt lat="40.55647600147957" lon="9.78855214115337"><ele>7.0</ele><time>2026-05-04T13:27:26.002Z</time></trkpt><trkpt lat="40.556769639218814" lon="9.788662473374675"><ele>9.0</ele><time>2026-05-04T13:27:27.002Z</time></trkpt><trkpt lat="40.557043499368625" lon="9.788797059838286"><ele>11.0</ele><time>2026-05-04T13:27:28.002Z</time></trkpt><trkpt lat="40.557307103315964" lon="9.788917628129626"><ele>11.0</ele><time>2026-05-04T13:27:29.002Z</time></trkpt><trkpt lat="40.55755396406794" lon="9.789024614091176"><ele>11.0</ele><time>2026-05-04T13:27:30.002Z</time></trkpt><trkpt lat="40.55778972634827" lon="9.789122903396798"><ele>12.0</ele><time>2026-05-04T13:27:31.002Z</time></trkpt><trkpt lat="40.5580152205466" lon="9.789217630800406"><ele>13.0</ele><time>2026-05-04T13:27:32.002Z</time></trkpt><trkpt lat="40.55824449724551" lon="9.789306992229072"><ele>12.0</ele><time>2026-05-04T13:27:33.002Z</time></trkpt><trkpt lat="40.558493131898345" lon="9.789348146408628"><ele>11.0</ele><time>2026-05-04T13:27:34.002Z</time></trkpt><trkpt lat="40.558752613221586" lon="9.789345464137234"><ele>11.0</ele><time>2026-05-04T13:27:35.002Z</time></trkpt><trkpt lat="40.559014245035435" lon="9.789333105080123"><ele>11.0</ele><time>2026-05-04T13:27:36.002Z</time></trkpt><trkpt lat="40.55927169220713" lon="9.78934548545781"><ele>11.0</ele><time>2026-05-04T13:27:37.002Z</time></trkpt><trkpt lat="40.55952677874612" lon="9.789371252876267"><ele>11.0</ele><time>2026-05-04T13:27:38.002Z</time></trkpt><trkpt lat="40.55977734207512" lon="9.78945221919406"><ele>11.5</ele><time>2026-05-04T13:27:39.002Z</time></trkpt><trkpt lat="40.56001632975551" lon="9.789581124823632"><ele>12.0</ele><time>2026-05-04T13:27:40.002Z</time></trkpt><trkpt lat="40.560236142651966" lon="9.78971158119188"><ele>12.5</ele><time>2026-05-04T13:27:41.002Z</time></trkpt><trkpt lat="40.56045823046849" lon="9.789821691903011"><ele>13.0</ele><time>2026-05-04T13:27:42.002Z</time></trkpt><trkpt lat="40.56068688273423" lon="9.789911085508567"><ele>13.0</ele><time>2026-05-04T13:27:43.002Z</time></trkpt><trkpt lat="40.56091069476464" lon="9.789981323976118"><ele>13.0</ele><time>2026-05-04T13:27:44.002Z</time></trkpt><trkpt lat="40.56113067112952" lon="9.790035298211556"><ele>14.333333333333332</ele><time>2026-05-04T13:27:45.002Z</time></trkpt><trkpt lat="40.561340144559885" lon="9.790095335157154"><ele>15.666666666666668</ele><time>2026-05-04T13:27:46.002Z</time></trkpt><trkpt lat="40.56154686515946" lon="9.790137071658704"><ele>17.0</ele><time>2026-05-04T13:27:47.002Z</time></trkpt><trkpt lat="40.5617535008414" lon="9.790134113242528"><ele>17.0</ele><time>2026-05-04T13:27:48.002Z</time></trkpt><trkpt lat="40.56196009588954" lon="9.790095942471517"><ele>17.0</ele><time>2026-05-04T13:27:49.002Z</time></trkpt><trkpt lat="40.562156801954" lon="9.790052021014255"><ele>17.0</ele><time>2026-05-04T13:27:50.003Z</time></trkpt><trkpt lat="40.5623538674513" lon="9.78996506395544"><ele>16.666666666666668</ele><time>2026-05-04T13:27:51.002Z</time></trkpt><trkpt lat="40.56252875207975" lon="9.78983449167598"><ele>16.333333333333332</ele><time>2026-05-04T13:27:52.003Z</time></trkpt><trkpt lat="40.562683738849074" lon="9.789706431329074"><ele>16.0</ele><time>2026-05-04T13:27:53.003Z</time></trkpt><trkpt lat="40.56284426545427" lon="9.789621406965056"><ele>15.666666666666666</ele><time>2026-05-04T13:27:54.003Z</time></trkpt><trkpt lat="40.563011463465756" lon="9.789512291255548"><ele>15.333333333333332</ele><time>2026-05-04T13:27:55.003Z</time></trkpt><trkpt lat="40.56319250520111" lon="9.789399903466078"><ele>15.0</ele><time>2026-05-04T13:27:56.003Z</time></trkpt><trkpt lat="40.56337033666388" lon="9.789299270709103"><ele>15.0</ele><time>2026-05-04T13:27:57.003Z</time></trkpt><trkpt lat="40.56352513140844" lon="9.789187369628406"><ele>15.0</ele><time>2026-05-04T13:27:58.003Z</time></trkpt><trkpt lat="40.56368183545284" lon="9.789098618015267"><ele>15.0</ele><time>2026-05-04T13:27:59.003Z</time></trkpt><trkpt lat="40.56384204555776" lon="9.788996426358109"><ele>14.0</ele><time>2026-05-04T13:28:00.001Z</time></trkpt><trkpt lat="40.56401230089297" lon="9.788902185961842"><ele>13.0</ele><time>2026-05-04T13:28:01.001Z</time></trkpt><trkpt lat="40.56418815389569" lon="9.78878438634889"><ele>12.0</ele><time>2026-05-04T13:28:02.001Z</time></trkpt><trkpt lat="40.56436634228602" lon="9.788665026639025"><ele>11.0</ele><time>2026-05-04T13:28:03.001Z</time></trkpt><trkpt lat="40.56447655842675" lon="9.788366157949364"><ele>10.0</ele><time>2026-05-04T13:28:04.001Z</time></trkpt><trkpt lat="40.564641871552226" lon="9.78822261831574"><ele>10.0</ele><time>2026-05-04T13:28:05.001Z</time></trkpt><trkpt lat="40.564811883500454" lon="9.788107637364082"><ele>10.0</ele><time>2026-05-04T13:28:06.001Z</time></trkpt><trkpt lat="40.56500228327065" lon="9.787985992631322"><ele>10.0</ele><time>2026-05-04T13:28:07.001Z</time></trkpt><trkpt lat="40.56521511131401" lon="9.78784422156333"><ele>10.0</ele><time>2026-05-04T13:28:08.001Z</time></trkpt><trkpt lat="40.56543796779553" lon="9.787688840826139"><ele>10.0</ele><time>2026-05-04T13:28:09.001Z</time></trkpt><trkpt lat="40.56569403591794" lon="9.787507717799334"><ele>10.0</ele><time>2026-05-04T13:28:10.001Z</time></trkpt><trkpt lat="40.56597849051385" lon="9.787303976770094"><ele>10.0</ele><time>2026-05-04T13:28:11.001Z</time></trkpt><trkpt lat="40.566262206716225" lon="9.787104591312604"><ele>13.0</ele><time>2026-05-04T13:28:12.001Z</time></trkpt><trkpt lat="40.566540813660424" lon="9.786897776893127"><ele>16.0</ele><time>2026-05-04T13:28:13.001Z</time></trkpt><trkpt lat="40.56682994438757" lon="9.786695515155778"><ele>18.5</ele><time>2026-05-04T13:28:14.001Z</time></trkpt><trkpt lat="40.56710658768258" lon="9.786505118268025"><ele>21.0</ele><time>2026-05-04T13:28:15.001Z</time></trkpt><trkpt lat="40.56737183622769" lon="9.786345877110175"><ele>21.0</ele><time>2026-05-04T13:28:16.001Z</time></trkpt><trkpt lat="40.567621998715" lon="9.786194599122968"><ele>21.0</ele><time>2026-05-04T13:28:17.001Z</time></trkpt><trkpt lat="40.56786277663626" lon="9.786022922159795"><ele>24.0</ele><time>2026-05-04T13:28:18.001Z</time></trkpt><trkpt lat="40.56810286744441" lon="9.785855182454824"><ele>27.0</ele><time>2026-05-04T13:28:19.001Z</time></trkpt><trkpt lat="40.568336159534574" lon="9.785681772203924"><ele>27.0</ele><time>2026-05-04T13:28:20.001Z</time></trkpt><trkpt lat="40.568548064405064" lon="9.785500069441728"><ele>27.0</ele><time>2026-05-04T13:28:21.001Z</time></trkpt><trkpt lat="40.568730307925144" lon="9.78529778367377"><ele>25.0</ele><time>2026-05-04T13:28:22.001Z</time></trkpt><trkpt lat="40.56890039869511" lon="9.785079202892655"><ele>23.0</ele><time>2026-05-04T13:28:23.001Z</time></trkpt><trkpt lat="40.56907021708114" lon="9.784867790507652"><ele>23.0</ele><time>2026-05-04T13:28:24.001Z</time></trkpt><trkpt lat="40.569241415524985" lon="9.784669245174742"><ele>23.0</ele><time>2026-05-04T13:28:25.001Z</time></trkpt><trkpt lat="40.56941859166702" lon="9.784458681739999"><ele>18.5</ele><time>2026-05-04T13:28:26.001Z</time></trkpt><trkpt lat="40.56957763110673" lon="9.784225365038958"><ele>14.0</ele><time>2026-05-04T13:28:27.001Z</time></trkpt><trkpt lat="40.56973287812036" lon="9.783976970063236"><ele>14.0</ele><time>2026-05-04T13:28:28.001Z</time></trkpt><trkpt lat="40.56990066869357" lon="9.7837301574411"><ele>14.0</ele><time>2026-05-04T13:28:29.001Z</time></trkpt><trkpt lat="40.570101234355164" lon="9.78351228279791"><ele>13.5</ele><time>2026-05-04T13:28:30.001Z</time></trkpt><trkpt lat="40.57032806110777" lon="9.783312754236068"><ele>13.0</ele><time>2026-05-04T13:28:31.001Z</time></trkpt><trkpt lat="40.57056977229112" lon="9.783125728835602"><ele>13.0</ele><time>2026-05-04T13:28:32.001Z</time></trkpt><trkpt lat="40.57079899030231" lon="9.782937201432754"><ele>13.0</ele><time>2026-05-04T13:28:33.001Z</time></trkpt><trkpt lat="40.57101319301918" lon="9.782749112193276"><ele>13.0</ele><time>2026-05-04T13:28:34.001Z</time></trkpt><trkpt lat="40.57121219011999" lon="9.782566010904612"><ele>13.0</ele><time>2026-05-04T13:28:35.001Z</time></trkpt><trkpt lat="40.571405529519225" lon="9.782401194883477"><ele>13.0</ele><time>2026-05-04T13:28:36.001Z</time></trkpt><trkpt lat="40.57158855786078" lon="9.782241357416144"><ele>13.0</ele><time>2026-05-04T13:28:37.001Z</time></trkpt><trkpt lat="40.57176469615987" lon="9.782087836348518"><ele>13.0</ele><time>2026-05-04T13:28:38.001Z</time></trkpt><trkpt lat="40.57193387017192" lon="9.781945531396877"><ele>12.333333333333332</ele><time>2026-05-04T13:28:39.001Z</time></trkpt><trkpt lat="40.57207514282604" lon="9.781821099832676"><ele>11.666666666666666</ele><time>2026-05-04T13:28:40.001Z</time></trkpt><trkpt lat="40.572190575111954" lon="9.78168757970784"><ele>11.0</ele><time>2026-05-04T13:28:41.001Z</time></trkpt><trkpt lat="40.572284003741494" lon="9.781510855728968"><ele>11.0</ele><time>2026-05-04T13:28:42.001Z</time></trkpt><trkpt lat="40.5723390638875" lon="9.781300608442523"><ele>11.0</ele><time>2026-05-04T13:28:43.001Z</time></trkpt><trkpt lat="40.57236288154038" lon="9.781050511222446"><ele>11.0</ele><time>2026-05-04T13:28:44.001Z</time></trkpt><trkpt lat="40.572379553157305" lon="9.780798735148702"><ele>13.666666666666666</ele><time>2026-05-04T13:28:45.001Z</time></trkpt><trkpt lat="40.57240634408349" lon="9.780555318085204"><ele>16.333333333333332</ele><time>2026-05-04T13:28:46.001Z</time></trkpt><trkpt lat="40.57244084956574" lon="9.780341482724188"><ele>19.0</ele><time>2026-05-04T13:28:47.001Z</time></trkpt><trkpt lat="40.572500695404344" lon="9.780131304751214"><ele>18.333333333333332</ele><time>2026-05-04T13:28:48.001Z</time></trkpt><trkpt lat="40.57258869407193" lon="9.779927121071593"><ele>17.666666666666668</ele><time>2026-05-04T13:28:49.001Z</time></trkpt><trkpt lat="40.57270760738406" lon="9.779758572486278"><ele>17.0</ele><time>2026-05-04T13:28:50.001Z</time></trkpt><trkpt lat="40.57285864806156" lon="9.779623929039937"><ele>17.0</ele><time>2026-05-04T13:28:51.001Z</time></trkpt><trkpt lat="40.57300487712431" lon="9.779505198268051"><ele>17.0</ele><time>2026-05-04T13:28:52.001Z</time></trkpt><trkpt lat="40.57315230049402" lon="9.779404308219375"><ele>17.0</ele><time>2026-05-04T13:28:53.001Z</time></trkpt><trkpt lat="40.573305135942675" lon="9.779318072037247"><ele>20.666666666666668</ele><time>2026-05-04T13:28:54.001Z</time></trkpt><trkpt lat="40.573470865258734" lon="9.779247388473477"><ele>24.333333333333336</ele><time>2026-05-04T13:28:55.001Z</time></trkpt><trkpt lat="40.57364162205704" lon="9.779211238261563"><ele>28.0</ele><time>2026-05-04T13:28:56.001Z</time></trkpt><trkpt lat="40.57379348750648" lon="9.779186520390146"><ele>28.0</ele><time>2026-05-04T13:28:57.001Z</time></trkpt><trkpt lat="40.57394210273881" lon="9.779150347651793"><ele>28.0</ele><time>2026-05-04T13:28:58.001Z</time></trkpt><trkpt lat="40.5740912813161" lon="9.779103639551595"><ele>28.0</ele><time>2026-05-04T13:28:59.001Z</time></trkpt><trkpt lat="40.57425062913506" lon="9.779051595861343"><ele>28.0</ele><time>2026-05-04T13:29:00.001Z</time></trkpt><trkpt lat="40.57441142205136" lon="9.779014863898372"><ele>28.0</ele><time>2026-05-04T13:29:01.001Z</time></trkpt><trkpt lat="40.574574322600164" lon="9.778991044084718"><ele>28.0</ele><time>2026-05-04T13:29:02.001Z</time></trkpt><trkpt lat="40.57472124507674" lon="9.778969328585324"><ele>26.25</ele><time>2026-05-04T13:29:03.001Z</time></trkpt><trkpt lat="40.57484653213231" lon="9.778914526978088"><ele>24.5</ele><time>2026-05-04T13:29:04.001Z</time></trkpt><trkpt lat="40.57494446481691" lon="9.778812284548872"><ele>22.75</ele><time>2026-05-04T13:29:05.001Z</time></trkpt><trkpt lat="40.575030909888696" lon="9.778679652893324"><ele>21.0</ele><time>2026-05-04T13:29:06.001Z</time></trkpt><trkpt lat="40.575104692732005" lon="9.778518528590027"><ele>22.0</ele><time>2026-05-04T13:29:07.001Z</time></trkpt><trkpt lat="40.575183312339746" lon="9.77836498000059"><ele>23.0</ele><time>2026-05-04T13:29:08.002Z</time></trkpt><trkpt lat="40.57526563037882" lon="9.778223878246237"><ele>24.0</ele><time>2026-05-04T13:29:09.002Z</time></trkpt><trkpt lat="40.575348242824234" lon="9.778091417726008"><ele>25.0</ele><time>2026-05-04T13:29:10.002Z</time></trkpt><trkpt lat="40.5754201540577" lon="9.777936862161393"><ele>25.0</ele><time>2026-05-04T13:29:11.002Z</time></trkpt><trkpt lat="40.57544765677707" lon="9.777754636546565"><ele>25.0</ele><time>2026-05-04T13:29:12.002Z</time></trkpt><trkpt lat="40.57542592873637" lon="9.777574188083394"><ele>25.0</ele><time>2026-05-04T13:29:13.002Z</time></trkpt><trkpt lat="40.57538200185878" lon="9.777385037430504"><ele>25.0</ele><time>2026-05-04T13:29:14.002Z</time></trkpt><trkpt lat="40.57533402214924" lon="9.777204726005154"><ele>30.666666666666668</ele><time>2026-05-04T13:29:15.002Z</time></trkpt><trkpt lat="40.57525855354989" lon="9.777023462630623"><ele>36.333333333333336</ele><time>2026-05-04T13:29:16.002Z</time></trkpt><trkpt lat="40.575187073626395" lon="9.776839790425008"><ele>42.0</ele><time>2026-05-04T13:29:17.002Z</time></trkpt><trkpt lat="40.57511654582989" lon="9.776657910506188"><ele>42.0</ele><time>2026-05-04T13:29:18.002Z</time></trkpt><trkpt lat="40.57505060308602" lon="9.776487874117855"><ele>42.0</ele><time>2026-05-04T13:29:19.002Z</time></trkpt><trkpt lat="40.57498426255857" lon="9.776318171846606"><ele>42.0</ele><time>2026-05-04T13:29:20.002Z</time></trkpt><trkpt lat="40.57491747453597" lon="9.776147324855284"><ele>42.0</ele><time>2026-05-04T13:29:21.002Z</time></trkpt><trkpt lat="40.57485422927404" lon="9.775985540423667"><ele>40.0</ele><time>2026-05-04T13:29:22.002Z</time></trkpt><trkpt lat="40.574799116791574" lon="9.775840242632384"><ele>38.0</ele><time>2026-05-04T13:29:23.002Z</time></trkpt><trkpt lat="40.57474965049461" lon="9.775694899539324"><ele>36.0</ele><time>2026-05-04T13:29:24.002Z</time></trkpt><trkpt lat="40.57472843915776" lon="9.775542567361203"><ele>34.0</ele><time>2026-05-04T13:29:25.002Z</time></trkpt><trkpt lat="40.57474186219825" lon="9.775380032240356"><ele>34.0</ele><time>2026-05-04T13:29:26.002Z</time></trkpt><trkpt lat="40.57477176053762" lon="9.775206324751991"><ele>34.0</ele><time>2026-05-04T13:29:27.002Z</time></trkpt><trkpt lat="40.5748184572692" lon="9.775053186131952"><ele>34.0</ele><time>2026-05-04T13:29:28.002Z</time></trkpt><trkpt lat="40.57486731354637" lon="9.77490846542445"><ele>34.0</ele><time>2026-05-04T13:29:29.002Z</time></trkpt><trkpt lat="40.57487483315215" lon="9.774765328292832"><ele>32.75</ele><time>2026-05-04T13:29:30.002Z</time></trkpt><trkpt lat="40.57488990094358" lon="9.774613305666922"><ele>31.5</ele><time>2026-05-04T13:29:31.002Z</time></trkpt><trkpt lat="40.5748545738387" lon="9.774465147858708"><ele>30.25</ele><time>2026-05-04T13:29:32.002Z</time></trkpt><trkpt lat="40.57480183547788" lon="9.774323826200987"><ele>29.0</ele><time>2026-05-04T13:29:33.002Z</time></trkpt><trkpt lat="40.5747401270758" lon="9.77419559334801"><ele>29.0</ele><time>2026-05-04T13:29:34.002Z</time></trkpt><trkpt lat="40.574669460476194" lon="9.774085989768977"><ele>29.0</ele><time>2026-05-04T13:29:35.002Z</time></trkpt><trkpt lat="40.5745779484596" lon="9.774003211436693"><ele>29.0</ele><time>2026-05-04T13:29:36.002Z</time></trkpt><trkpt lat="40.574452283808014" lon="9.7739653217575"><ele>29.0</ele><time>2026-05-04T13:29:37.002Z</time></trkpt><trkpt lat="40.57433162760326" lon="9.774000719046374"><ele>29.0</ele><time>2026-05-04T13:29:38.002Z</time></trkpt><trkpt lat="40.574226105528396" lon="9.774026740891143"><ele>29.0</ele><time>2026-05-04T13:29:39.002Z</time></trkpt><trkpt lat="40.57412802699536" lon="9.774040277698958"><ele>29.0</ele><time>2026-05-04T13:29:40.002Z</time></trkpt><trkpt lat="40.57404642148022" lon="9.773976286279096"><ele>29.0</ele><time>2026-05-04T13:29:41.002Z</time></trkpt><trkpt lat="40.5739703889758" lon="9.773899986634605"><ele>29.0</ele><time>2026-05-04T13:29:42.002Z</time></trkpt><trkpt lat="40.57390901227882" lon="9.773777947846673"><ele>29.0</ele><time>2026-05-04T13:29:43.002Z</time></trkpt><trkpt lat="40.573870951234944" lon="9.77361891910891"><ele>29.0</ele><time>2026-05-04T13:29:44.002Z</time></trkpt><trkpt lat="40.573858022225195" lon="9.773456649262831"><ele>29.0</ele><time>2026-05-04T13:29:45.002Z</time></trkpt><trkpt lat="40.57384139362781" lon="9.773294625695812"><ele>29.0</ele><time>2026-05-04T13:29:46.002Z</time></trkpt><trkpt lat="40.57382546538996" lon="9.773143951931441"><ele>28.0</ele><time>2026-05-04T13:29:47.002Z</time></trkpt><trkpt lat="40.57379757279511" lon="9.77300267148968"><ele>27.0</ele><time>2026-05-04T13:29:48.002Z</time></trkpt><trkpt lat="40.57382040054649" lon="9.772850374189193"><ele>26.0</ele><time>2026-05-04T13:29:49.002Z</time></trkpt><trkpt lat="40.57388949128741" lon="9.772713880108936"><ele>25.0</ele><time>2026-05-04T13:29:50.002Z</time></trkpt><trkpt lat="40.5739942397412" lon="9.772627929408518"><ele>25.0</ele><time>2026-05-04T13:29:51.002Z</time></trkpt><trkpt lat="40.574100035271336" lon="9.77250698093231"><ele>25.0</ele><time>2026-05-04T13:29:52.002Z</time></trkpt><trkpt lat="40.57420204857007" lon="9.772354337636473"><ele>25.0</ele><time>2026-05-04T13:29:53.002Z</time></trkpt><trkpt lat="40.57429036138925" lon="9.772181359233175"><ele>25.0</ele><time>2026-05-04T13:29:54.002Z</time></trkpt><trkpt lat="40.57439198549536" lon="9.772014975487618"><ele>25.0</ele><time>2026-05-04T13:29:55.002Z</time></trkpt><trkpt lat="40.574495549271425" lon="9.771856255031588"><ele>25.0</ele><time>2026-05-04T13:29:56.002Z</time></trkpt><trkpt lat="40.57459798014348" lon="9.771706353887968"><ele>22.666666666666668</ele><time>2026-05-04T13:29:57.002Z</time></trkpt><trkpt lat="40.57470014004214" lon="9.771552102636665"><ele>20.333333333333336</ele><time>2026-05-04T13:29:58.002Z</time></trkpt><trkpt lat="40.574783688043205" lon="9.77135036188266"><ele>18.0</ele><time>2026-05-04T13:29:59.002Z</time></trkpt><trkpt lat="40.574885481349476" lon="9.771138716257177"><ele>20.0</ele><time>2026-05-04T13:30:00.002Z</time></trkpt><trkpt lat="40.57497101747039" lon="9.770864804777494"><ele>22.0</ele><time>2026-05-04T13:30:01.002Z</time></trkpt><trkpt lat="40.57506068520627" lon="9.770586124073214"><ele>22.0</ele><time>2026-05-04T13:30:02.002Z</time></trkpt><trkpt lat="40.57515948626007" lon="9.770301321681156"><ele>22.0</ele><time>2026-05-04T13:30:03.002Z</time></trkpt><trkpt lat="40.57525124555714" lon="9.769997100329078"><ele>23.0</ele><time>2026-05-04T13:30:04.002Z</time></trkpt><trkpt lat="40.57534403417947" lon="9.769689466327367"><ele>24.0</ele><time>2026-05-04T13:30:05.002Z</time></trkpt><trkpt lat="40.57542447708127" lon="9.76938777928011"><ele>21.0</ele><time>2026-05-04T13:30:06.001Z</time></trkpt><trkpt lat="40.57553625891896" lon="9.76912601957782"><ele>18.0</ele><time>2026-05-04T13:30:07.001Z</time></trkpt><trkpt lat="40.575639254294025" lon="9.768888931987172"><ele>15.0</ele><time>2026-05-04T13:30:08.001Z</time></trkpt><trkpt lat="40.57567960713941" lon="9.76864633200043"><ele>15.0</ele><time>2026-05-04T13:30:09.001Z</time></trkpt><trkpt lat="40.57567702320667" lon="9.768348098455618"><ele>15.0</ele><time>2026-05-04T13:30:10.001Z</time></trkpt><trkpt lat="40.575685234219875" lon="9.768025862873866"><ele>15.0</ele><time>2026-05-04T13:30:11.001Z</time></trkpt><trkpt lat="40.57568118426839" lon="9.767656536927966"><ele>15.0</ele><time>2026-05-04T13:30:12.001Z</time></trkpt><trkpt lat="40.57567890807255" lon="9.767285016805626"><ele>15.0</ele><time>2026-05-04T13:30:13.001Z</time></trkpt><trkpt lat="40.57565630377965" lon="9.766911453714899"><ele>15.0</ele><time>2026-05-04T13:30:14.001Z</time></trkpt><trkpt lat="40.57564067545992" lon="9.766550234764821"><ele>14.0</ele><time>2026-05-04T13:30:15.001Z</time></trkpt><trkpt lat="40.575613275282514" lon="9.766220946567662"><ele>13.0</ele><time>2026-05-04T13:30:16.001Z</time></trkpt><trkpt lat="40.57560805841008" lon="9.765906144498313"><ele>10.5</ele><time>2026-05-04T13:30:17.001Z</time></trkpt><trkpt lat="40.57558771464358" lon="9.765595731262842"><ele>8.0</ele><time>2026-05-04T13:30:18.001Z</time></trkpt><trkpt lat="40.57556742214344" lon="9.765293168392475"><ele>7.0</ele><time>2026-05-04T13:30:19.001Z</time></trkpt><trkpt lat="40.575547906966406" lon="9.764984284120803"><ele>6.0</ele><time>2026-05-04T13:30:20.001Z</time></trkpt><trkpt lat="40.57552965849028" lon="9.764686449566096"><ele>6.0</ele><time>2026-05-04T13:30:21.001Z</time></trkpt><trkpt lat="40.575512357000036" lon="9.764404070878483"><ele>6.0</ele><time>2026-05-04T13:30:22.001Z</time></trkpt><trkpt lat="40.575472351435955" lon="9.76413920408541"><ele>6.0</ele><time>2026-05-04T13:30:23.001Z</time></trkpt><trkpt lat="40.575415663469485" lon="9.7639021267698"><ele>5.666666666666667</ele><time>2026-05-04T13:30:24.001Z</time></trkpt><trkpt lat="40.57534540356178" lon="9.763691284942391"><ele>5.333333333333334</ele><time>2026-05-04T13:30:25.001Z</time></trkpt><trkpt lat="40.5753330668705" lon="9.76350056707613"><ele>5.0</ele><time>2026-05-04T13:30:26.001Z</time></trkpt><trkpt lat="40.57538678466751" lon="9.763326184853263"><ele>5.0</ele><time>2026-05-04T13:30:27.001Z</time></trkpt><trkpt lat="40.57543747796412" lon="9.763159870625438"><ele>5.0</ele><time>2026-05-04T13:30:28.001Z</time></trkpt><trkpt lat="40.57547712683124" lon="9.763039468973144"><ele>5.0</ele><time>2026-05-04T13:30:29.001Z</time></trkpt><trkpt lat="40.57554125005048" lon="9.762935044911895"><ele>5.0</ele><time>2026-05-04T13:30:30.001Z</time></trkpt><trkpt lat="40.57562716833072" lon="9.762866855753515"><ele>5.0</ele><time>2026-05-04T13:30:31.001Z</time></trkpt><trkpt lat="40.57575515893266" lon="9.762884295686797"><ele>5.0</ele><time>2026-05-04T13:30:32.001Z</time></trkpt><trkpt lat="40.57589267009871" lon="9.762894322802472"><ele>5.0</ele><time>2026-05-04T13:30:33.001Z</time></trkpt><trkpt lat="40.576035165539245" lon="9.762935764707754"><ele>5.0</ele><time>2026-05-04T13:30:34.001Z</time></trkpt><trkpt lat="40.57617136864251" lon="9.762970185510632"><ele>5.0</ele><time>2026-05-04T13:30:35.001Z</time></trkpt><trkpt lat="40.576306098967265" lon="9.762992716496234"><ele>4.75</ele><time>2026-05-04T13:30:36.001Z</time></trkpt><trkpt lat="40.57643916286338" lon="9.763012138919146"><ele>4.5</ele><time>2026-05-04T13:30:37.001Z</time></trkpt><trkpt lat="40.57657855813725" lon="9.763032850393941"><ele>4.25</ele><time>2026-05-04T13:30:38.001Z</time></trkpt><trkpt lat="40.576729708934465" lon="9.76304872874825"><ele>4.0</ele><time>2026-05-04T13:30:39.001Z</time></trkpt><trkpt lat="40.57693702331973" lon="9.76309440236863"><ele>5.0</ele><time>2026-05-04T13:30:40.001Z</time></trkpt><trkpt lat="40.57718687046429" lon="9.76313740083313"><ele>6.0</ele><time>2026-05-04T13:30:41.001Z</time></trkpt><trkpt lat="40.57747051665549" lon="9.763186176308837"><ele>6.0</ele><time>2026-05-04T13:30:42.001Z</time></trkpt><trkpt lat="40.57775429961669" lon="9.763234975301149"><ele>6.0</ele><time>2026-05-04T13:30:43.001Z</time></trkpt><trkpt lat="40.57801219608494" lon="9.763271168994823"><ele>7.0</ele><time>2026-05-04T13:30:44.001Z</time></trkpt><trkpt lat="40.578258811964496" lon="9.7633276915605"><ele>8.0</ele><time>2026-05-04T13:30:45.001Z</time></trkpt><trkpt lat="40.57850784459631" lon="9.763368931805742"><ele>10.0</ele><time>2026-05-04T13:30:46.001Z</time></trkpt><trkpt lat="40.578763949624474" lon="9.76340461629608"><ele>12.0</ele><time>2026-05-04T13:30:47.001Z</time></trkpt><trkpt lat="40.57903569109173" lon="9.76345352528652"><ele>12.0</ele><time>2026-05-04T13:30:48.001Z</time></trkpt><trkpt lat="40.5793140248807" lon="9.76349975201635"><ele>12.0</ele><time>2026-05-04T13:30:49.001Z</time></trkpt><trkpt lat="40.57959190794823" lon="9.763550354526528"><ele>10.0</ele><time>2026-05-04T13:30:50.001Z</time></trkpt><trkpt lat="40.57985107478275" lon="9.763588750731703"><ele>8.0</ele><time>2026-05-04T13:30:51.001Z</time></trkpt><trkpt lat="40.580088378353366" lon="9.763626914202554"><ele>8.0</ele><time>2026-05-04T13:30:52.001Z</time></trkpt><trkpt lat="40.58031321776562" lon="9.763667385267235"><ele>8.0</ele><time>2026-05-04T13:30:53.001Z</time></trkpt><trkpt lat="40.58051968499906" lon="9.763707638942115"><ele>8.0</ele><time>2026-05-04T13:30:54.001Z</time></trkpt><trkpt lat="40.58071037164665" lon="9.763741313175036"><ele>8.666666666666666</ele><time>2026-05-04T13:30:55.001Z</time></trkpt><trkpt lat="40.580880032573006" lon="9.763771645998533"><ele>9.333333333333334</ele><time>2026-05-04T13:30:56.001Z</time></trkpt><trkpt lat="40.58103039263508" lon="9.76376271595485"><ele>10.0</ele><time>2026-05-04T13:30:57.001Z</time></trkpt><trkpt lat="40.58115896194992" lon="9.763689567760283"><ele>10.0</ele><time>2026-05-04T13:30:58.001Z</time></trkpt><trkpt lat="40.58126142872126" lon="9.763543578480476"><ele>10.0</ele><time>2026-05-04T13:30:59.001Z</time></trkpt><trkpt lat="40.58132413147982" lon="9.763331775879324"><ele>10.0</ele><time>2026-05-04T13:31:00.001Z</time></trkpt><trkpt lat="40.58137664574561" lon="9.76312981095515"><ele>10.333333333333334</ele><time>2026-05-04T13:31:01.001Z</time></trkpt><trkpt lat="40.58146705969421" lon="9.762938082979392"><ele>10.666666666666666</ele><time>2026-05-04T13:31:02.001Z</time></trkpt><trkpt lat="40.581539870827385" lon="9.762748107485825"><ele>11.0</ele><time>2026-05-04T13:31:03.001Z</time></trkpt><trkpt lat="40.58160693526565" lon="9.76257312591062"><ele>11.25</ele><time>2026-05-04T13:31:04.001Z</time></trkpt><trkpt lat="40.581669840611816" lon="9.762408996285057"><ele>11.5</ele><time>2026-05-04T13:31:05.001Z</time></trkpt><trkpt lat="40.581722453236" lon="9.762256314478279"><ele>11.75</ele><time>2026-05-04T13:31:06.001Z</time></trkpt><trkpt lat="40.58178206635236" lon="9.762128504531738"><ele>12.0</ele><time>2026-05-04T13:31:07.001Z</time></trkpt><trkpt lat="40.58184346975577" lon="9.76200625505385"><ele>12.0</ele><time>2026-05-04T13:31:08.001Z</time></trkpt><trkpt lat="40.581903034641456" lon="9.76189969534663"><ele>12.0</ele><time>2026-05-04T13:31:09.001Z</time></trkpt><trkpt lat="40.581957739833" lon="9.761809860570844"><ele>12.0</ele><time>2026-05-04T13:31:10.001Z</time></trkpt><trkpt lat="40.582018411189395" lon="9.76174892280456"><ele>12.0</ele><time>2026-05-04T13:31:11.001Z</time></trkpt><trkpt lat="40.58207977236679" lon="9.761691106144376"><ele>12.0</ele><time>2026-05-04T13:31:12.001Z</time></trkpt><trkpt lat="40.58213719528396" lon="9.761620162730646"><ele>12.0</ele><time>2026-05-04T13:31:13.001Z</time></trkpt><trkpt lat="40.58216309057513" lon="9.761524810999672"><ele>11.4</ele><time>2026-05-04T13:31:14.001Z</time></trkpt><trkpt lat="40.58215524866416" lon="9.761386045337042"><ele>10.799999999999999</ele><time>2026-05-04T13:31:15.001Z</time></trkpt><trkpt lat="40.58214555720247" lon="9.761253482253986"><ele>10.2</ele><time>2026-05-04T13:31:16.001Z</time></trkpt><trkpt lat="40.582153956744925" lon="9.761110649540791"><ele>9.6</ele><time>2026-05-04T13:31:17.001Z</time></trkpt><trkpt lat="40.58222556143877" lon="9.760987481495635"><ele>9.0</ele><time>2026-05-04T13:31:18.001Z</time></trkpt><trkpt lat="40.58227545011124" lon="9.760842122039161"><ele>9.0</ele><time>2026-05-04T13:31:19.001Z</time></trkpt><trkpt lat="40.582334980256476" lon="9.760691959170767"><ele>9.0</ele><time>2026-05-04T13:31:20.001Z</time></trkpt><trkpt lat="40.58240012475457" lon="9.760520426464726"><ele>9.0</ele><time>2026-05-04T13:31:21.001Z</time></trkpt><trkpt lat="40.582474933682754" lon="9.76032344681686"><ele>9.0</ele><time>2026-05-04T13:31:22.001Z</time></trkpt><trkpt lat="40.58255529152242" lon="9.760117802580377"><ele>10.666666666666668</ele><time>2026-05-04T13:31:23.001Z</time></trkpt><trkpt lat="40.58260819309288" lon="9.759896071557767"><ele>12.333333333333334</ele><time>2026-05-04T13:31:24.002Z</time></trkpt><trkpt lat="40.582683351693426" lon="9.759699829632051"><ele>14.0</ele><time>2026-05-04T13:31:25.002Z</time></trkpt><trkpt lat="40.58275515384986" lon="9.759518803475896"><ele>13.25</ele><time>2026-05-04T13:31:26.002Z</time></trkpt><trkpt lat="40.58282792600106" lon="9.759347318742407"><ele>12.5</ele><time>2026-05-04T13:31:27.002Z</time></trkpt><trkpt lat="40.58287690144555" lon="9.759200296249013"><ele>11.75</ele><time>2026-05-04T13:31:28.002Z</time></trkpt><trkpt lat="40.58293724456251" lon="9.759064646338144"><ele>11.0</ele><time>2026-05-04T13:31:29.002Z</time></trkpt><trkpt lat="40.58296632493374" lon="9.758912810838526"><ele>11.0</ele><time>2026-05-04T13:31:30.002Z</time></trkpt><trkpt lat="40.582957205210114" lon="9.758740697729898"><ele>11.0</ele><time>2026-05-04T13:31:31.002Z</time></trkpt><trkpt lat="40.58295840620983" lon="9.758574585678272"><ele>11.0</ele><time>2026-05-04T13:31:32.002Z</time></trkpt><trkpt lat="40.58295955802633" lon="9.758415275951844"><ele>11.0</ele><time>2026-05-04T13:31:33.002Z</time></trkpt><trkpt lat="40.58296063101698" lon="9.758266869370424"><ele>10.75</ele><time>2026-05-04T13:31:34.002Z</time></trkpt><trkpt lat="40.58296183213353" lon="9.758100741164702"><ele>10.5</ele><time>2026-05-04T13:31:35.002Z</time></trkpt><trkpt lat="40.58296317409419" lon="9.757915133026763"><ele>10.25</ele><time>2026-05-04T13:31:36.002Z</time></trkpt><trkpt lat="40.58296424723331" lon="9.757707618275463"><ele>10.0</ele><time>2026-05-04T13:31:37.002Z</time></trkpt><trkpt lat="40.58296543809981" lon="9.757501224206136"><ele>10.0</ele><time>2026-05-04T13:31:38.002Z</time></trkpt><trkpt lat="40.58296665254452" lon="9.757290744328854"><ele>10.0</ele><time>2026-05-04T13:31:39.002Z</time></trkpt><trkpt lat="40.582967659741726" lon="9.757069593071416"><ele>10.0</ele><time>2026-05-04T13:31:40.002Z</time></trkpt><trkpt lat="40.58296060440005" lon="9.756840371565042"><ele>9.666666666666668</ele><time>2026-05-04T13:31:41.002Z</time></trkpt><trkpt lat="40.58293278763993" lon="9.756629313956752"><ele>9.333333333333334</ele><time>2026-05-04T13:31:42.002Z</time></trkpt><trkpt lat="40.5828771239474" lon="9.756409571218535"><ele>9.0</ele><time>2026-05-04T13:31:43.002Z</time></trkpt><trkpt lat="40.58277856303335" lon="9.756201125691991"><ele>13.666666666666668</ele><time>2026-05-04T13:31:44.002Z</time></trkpt><trkpt lat="40.58270849097601" lon="9.755988081737856"><ele>18.333333333333336</ele><time>2026-05-04T13:31:45.002Z</time></trkpt><trkpt lat="40.582651823105586" lon="9.755779776455995"><ele>23.0</ele><time>2026-05-04T13:31:46.002Z</time></trkpt><trkpt lat="40.58262508604853" lon="9.755553713483332"><ele>23.0</ele><time>2026-05-04T13:31:47.002Z</time></trkpt><trkpt lat="40.582605942488925" lon="9.755320725182072"><ele>23.0</ele><time>2026-05-04T13:31:48.002Z</time></trkpt><trkpt lat="40.58258838688799" lon="9.755088469335188"><ele>23.0</ele><time>2026-05-04T13:31:49.002Z</time></trkpt><trkpt lat="40.58257023857858" lon="9.754856273488647"><ele>21.666666666666668</ele><time>2026-05-04T13:31:50.002Z</time></trkpt><trkpt lat="40.5825514454342" lon="9.754616734741768"><ele>20.333333333333332</ele><time>2026-05-04T13:31:51.002Z</time></trkpt><trkpt lat="40.582532326109245" lon="9.75437303842233"><ele>19.0</ele><time>2026-05-04T13:31:52.002Z</time></trkpt><trkpt lat="40.58251400251807" lon="9.754139484595608"><ele>18.333333333333332</ele><time>2026-05-04T13:31:53.002Z</time></trkpt><trkpt lat="40.58248961489386" lon="9.75390413657893"><ele>17.666666666666668</ele><time>2026-05-04T13:31:54.002Z</time></trkpt><trkpt lat="40.5824478349484" lon="9.753657403888205"><ele>17.0</ele><time>2026-05-04T13:31:55.002Z</time></trkpt><trkpt lat="40.5823931133098" lon="9.75340376641132"><ele>16.333333333333336</ele><time>2026-05-04T13:31:56.002Z</time></trkpt><trkpt lat="40.582335033562366" lon="9.753149989891927"><ele>15.666666666666668</ele><time>2026-05-04T13:31:57.002Z</time></trkpt><trkpt lat="40.58227723602495" lon="9.752897867653449"><ele>15.0</ele><time>2026-05-04T13:31:58.002Z</time></trkpt><trkpt lat="40.582219380511184" lon="9.752645639589211"><ele>14.0</ele><time>2026-05-04T13:31:59.002Z</time></trkpt><trkpt lat="40.582161884570695" lon="9.752395077538246"><ele>13.0</ele><time>2026-05-04T13:32:00.002Z</time></trkpt><trkpt lat="40.58210526887126" lon="9.752148351525989"><ele>12.0</ele><time>2026-05-04T13:32:01.002Z</time></trkpt><trkpt lat="40.582048893033466" lon="9.751902670771832"><ele>14.0</ele><time>2026-05-04T13:32:02.002Z</time></trkpt><trkpt lat="40.58199170472063" lon="9.751649147908383"><ele>16.0</ele><time>2026-05-04T13:32:03.002Z</time></trkpt><trkpt lat="40.5819229183556" lon="9.751401593402491"><ele>18.0</ele><time>2026-05-04T13:32:04.002Z</time></trkpt><trkpt lat="40.58185863816211" lon="9.75114264482277"><ele>17.333333333333332</ele><time>2026-05-04T13:32:05.002Z</time></trkpt><trkpt lat="40.58180192907278" lon="9.750898617013922"><ele>16.666666666666664</ele><time>2026-05-04T13:32:06.002Z</time></trkpt><trkpt lat="40.58174096878252" lon="9.750637231988192"><ele>16.0</ele><time>2026-05-04T13:32:07.002Z</time></trkpt><trkpt lat="40.58170449543409" lon="9.750364279796052"><ele>15.333333333333332</ele><time>2026-05-04T13:32:08.002Z</time></trkpt><trkpt lat="40.581664134278505" lon="9.750084962894485"><ele>14.666666666666668</ele><time>2026-05-04T13:32:09.002Z</time></trkpt><trkpt lat="40.581637948799695" lon="9.749823623749533"><ele>14.0</ele><time>2026-05-04T13:32:10.002Z</time></trkpt><trkpt lat="40.58159813711544" lon="9.749566700585564"><ele>13.666666666666668</ele><time>2026-05-04T13:32:11.002Z</time></trkpt><trkpt lat="40.58157473186124" lon="9.749317601583002"><ele>13.333333333333332</ele><time>2026-05-04T13:32:12.001Z</time></trkpt><trkpt lat="40.58155240663502" lon="9.749073576085234"><ele>13.0</ele><time>2026-05-04T13:32:13.001Z</time></trkpt><trkpt lat="40.58152893484303" lon="9.748837740664046"><ele>13.0</ele><time>2026-05-04T13:32:14.001Z</time></trkpt><trkpt lat="40.58148452168262" lon="9.74861170214178"><ele>13.0</ele><time>2026-05-04T13:32:15.001Z</time></trkpt><trkpt lat="40.58140272615263" lon="9.748397593074245"><ele>13.0</ele><time>2026-05-04T13:32:16.001Z</time></trkpt><trkpt lat="40.581273258791796" lon="9.748201526527797"><ele>13.333333333333332</ele><time>2026-05-04T13:32:17.001Z</time></trkpt><trkpt lat="40.581132706003636" lon="9.748013027119756"><ele>13.666666666666668</ele><time>2026-05-04T13:32:18.001Z</time></trkpt><trkpt lat="40.58103351276888" lon="9.74779421435191"><ele>14.0</ele><time>2026-05-04T13:32:19.001Z</time></trkpt><trkpt lat="40.58096080234867" lon="9.747572271410855"><ele>13.333333333333334</ele><time>2026-05-04T13:32:20.001Z</time></trkpt><trkpt lat="40.580894257055306" lon="9.747327450463935"><ele>12.666666666666668</ele><time>2026-05-04T13:32:21.001Z</time></trkpt><trkpt lat="40.58082382051914" lon="9.747075610097486"><ele>12.0</ele><time>2026-05-04T13:32:22.001Z</time></trkpt><trkpt lat="40.58075414207556" lon="9.746826480204367"><ele>12.0</ele><time>2026-05-04T13:32:23.001Z</time></trkpt><trkpt lat="40.58068494472648" lon="9.746579070420982"><ele>12.0</ele><time>2026-05-04T13:32:24.001Z</time></trkpt><trkpt lat="40.58061558918178" lon="9.74633109504267"><ele>12.0</ele><time>2026-05-04T13:32:25.001Z</time></trkpt><trkpt lat="40.58055158748056" lon="9.746092861437694"><ele>12.0</ele><time>2026-05-04T13:32:26.001Z</time></trkpt><trkpt lat="40.580486905682285" lon="9.745856353202043"><ele>12.0</ele><time>2026-05-04T13:32:27.001Z</time></trkpt><trkpt lat="40.58042238463302" lon="9.74562162329982"><ele>12.0</ele><time>2026-05-04T13:32:28.001Z</time></trkpt><trkpt lat="40.580359774171505" lon="9.74539783361841"><ele>12.6</ele><time>2026-05-04T13:32:29.001Z</time></trkpt><trkpt lat="40.580309630977226" lon="9.745220024628754"><ele>13.2</ele><time>2026-05-04T13:32:30.001Z</time></trkpt><trkpt lat="40.5802743439328" lon="9.745092314864403"><ele>13.8</ele><time>2026-05-04T13:32:31.001Z</time></trkpt><trkpt lat="40.580248122126875" lon="9.744993405007023"><ele>14.4</ele><time>2026-05-04T13:32:32.001Z</time></trkpt><trkpt lat="40.58020869854204" lon="9.74491012854189"><ele>15.0</ele><time>2026-05-04T13:32:33.001Z</time></trkpt><trkpt lat="40.58019834574279" lon="9.744790706637058"><ele>15.2</ele><time>2026-05-04T13:32:35.001Z</time></trkpt><trkpt lat="40.58019756187737" lon="9.74470320130233"><ele>15.4</ele><time>2026-05-04T13:32:39.001Z</time></trkpt><trkpt lat="40.58016543748443" lon="9.744618187926397"><ele>15.600000000000001</ele><time>2026-05-04T13:32:42.001Z</time></trkpt><trkpt lat="40.58016823877653" lon="9.744703187363555"><ele>15.8</ele><time>2026-05-04T13:32:49.001Z</time></trkpt><trkpt lat="40.58020230138457" lon="9.744826025239673"><ele>16.0</ele><time>2026-05-04T13:32:51.001Z</time></trkpt><trkpt lat="40.58020158687347" lon="9.745038777999715"><ele>16.0</ele><time>2026-05-04T13:32:52.001Z</time></trkpt><trkpt lat="40.58024946421961" lon="9.745186575983011"><ele>16.0</ele><time>2026-05-04T13:32:53.001Z</time></trkpt><trkpt lat="40.58029253774567" lon="9.745350048333737"><ele>16.0</ele><time>2026-05-04T13:32:54.001Z</time></trkpt><trkpt lat="40.580349607021425" lon="9.745532210381148"><ele>16.0</ele><time>2026-05-04T13:32:55.001Z</time></trkpt><trkpt lat="40.58040895391869" lon="9.745735240378234"><ele>14.666666666666666</ele><time>2026-05-04T13:32:56.001Z</time></trkpt><trkpt lat="40.58046215448613" lon="9.74594933920987"><ele>13.333333333333332</ele><time>2026-05-04T13:32:57.001Z</time></trkpt><trkpt lat="40.580525574165925" lon="9.746171844713908"><ele>12.0</ele><time>2026-05-04T13:32:58.001Z</time></trkpt><trkpt lat="40.58059552424569" lon="9.74640624514164"><ele>12.0</ele><time>2026-05-04T13:32:59.001Z</time></trkpt><trkpt lat="40.58066672355031" lon="9.746655413296766"><ele>12.0</ele><time>2026-05-04T13:33:00.001Z</time></trkpt><trkpt lat="40.580733363950486" lon="9.746908365930521"><ele>12.0</ele><time>2026-05-04T13:33:01.001Z</time></trkpt><trkpt lat="40.58079494372154" lon="9.747153982539666"><ele>12.0</ele><time>2026-05-04T13:33:02.001Z</time></trkpt><trkpt lat="40.58086227209956" lon="9.74737422751825"><ele>12.0</ele><time>2026-05-04T13:33:03.001Z</time></trkpt><trkpt lat="40.580921719863106" lon="9.747581838105578"><ele>12.0</ele><time>2026-05-04T13:33:04.001Z</time></trkpt><trkpt lat="40.580976346666255" lon="9.747781011349042"><ele>12.666666666666668</ele><time>2026-05-04T13:33:05.001Z</time></trkpt><trkpt lat="40.58105475959071" lon="9.747961915293791"><ele>13.333333333333334</ele><time>2026-05-04T13:33:06.001Z</time></trkpt><trkpt lat="40.58115986066643" lon="9.748118869622468"><ele>14.0</ele><time>2026-05-04T13:33:07.001Z</time></trkpt><trkpt lat="40.58127105538702" lon="9.748287523589168"><ele>13.666666666666668</ele><time>2026-05-04T13:33:08.001Z</time></trkpt><trkpt lat="40.58137216725859" lon="9.748457556240075"><ele>13.333333333333332</ele><time>2026-05-04T13:33:09.001Z</time></trkpt><trkpt lat="40.58145181993156" lon="9.748655138695923"><ele>13.0</ele><time>2026-05-04T13:33:10.001Z</time></trkpt><trkpt lat="40.58150391790425" lon="9.748864885900225"><ele>13.0</ele><time>2026-05-04T13:33:11.001Z</time></trkpt><trkpt lat="40.58153375672179" lon="9.749059522540895"><ele>13.0</ele><time>2026-05-04T13:33:12.001Z</time></trkpt><trkpt lat="40.58155200147534" lon="9.749273391401319"><ele>13.0</ele><time>2026-05-04T13:33:13.001Z</time></trkpt><trkpt lat="40.58157102018056" lon="9.749472551825766"><ele>13.333333333333332</ele><time>2026-05-04T13:33:14.001Z</time></trkpt><trkpt lat="40.581605925763725" lon="9.74966374161577"><ele>13.666666666666668</ele><time>2026-05-04T13:33:15.001Z</time></trkpt><trkpt lat="40.58160882588862" lon="9.749868445371078"><ele>14.0</ele><time>2026-05-04T13:33:16.001Z</time></trkpt><trkpt lat="40.58164158885669" lon="9.75007421932525"><ele>14.666666666666668</ele><time>2026-05-04T13:33:17.001Z</time></trkpt><trkpt lat="40.581661438261804" lon="9.750282121482291"><ele>15.333333333333332</ele><time>2026-05-04T13:33:18.001Z</time></trkpt><trkpt lat="40.58169158004928" lon="9.750502432913242"><ele>16.0</ele><time>2026-05-04T13:33:19.001Z</time></trkpt><trkpt lat="40.581736214807776" lon="9.750733304070497"><ele>16.0</ele><time>2026-05-04T13:33:20.001Z</time></trkpt><trkpt lat="40.58178698651705" lon="9.750972225660451"><ele>16.0</ele><time>2026-05-04T13:33:21.001Z</time></trkpt><trkpt lat="40.581847303922025" lon="9.751204770401797"><ele>16.0</ele><time>2026-05-04T13:33:22.001Z</time></trkpt><trkpt lat="40.58190559965695" lon="9.751449288900293"><ele>16.666666666666664</ele><time>2026-05-04T13:33:23.001Z</time></trkpt><trkpt lat="40.58195748067648" lon="9.75169323220736"><ele>17.333333333333332</ele><time>2026-05-04T13:33:24.001Z</time></trkpt><trkpt lat="40.58202508010035" lon="9.751948882307527"><ele>18.0</ele><time>2026-05-04T13:33:25.001Z</time></trkpt><trkpt lat="40.58207963217975" lon="9.752206028321389"><ele>17.0</ele><time>2026-05-04T13:33:26.001Z</time></trkpt><trkpt lat="40.58213431125033" lon="9.752468475762736"><ele>16.0</ele><time>2026-05-04T13:33:27.001Z</time></trkpt><trkpt lat="40.58219063820291" lon="9.752734195239968"><ele>15.0</ele><time>2026-05-04T13:33:28.001Z</time></trkpt><trkpt lat="40.5822522229536" lon="9.75300229174809"><ele>15.0</ele><time>2026-05-04T13:33:29.001Z</time></trkpt><trkpt lat="40.5823137780181" lon="9.753256855782906"><ele>15.0</ele><time>2026-05-04T13:33:30.001Z</time></trkpt><trkpt lat="40.58236873903639" lon="9.753495025120968"><ele>15.0</ele><time>2026-05-04T13:33:31.001Z</time></trkpt><trkpt lat="40.58242043763097" lon="9.753727834676129"><ele>15.666666666666668</ele><time>2026-05-04T13:33:32.001Z</time></trkpt><trkpt lat="40.58247016275634" lon="9.75395995347464"><ele>16.333333333333336</ele><time>2026-05-04T13:33:33.001Z</time></trkpt><trkpt lat="40.58248666558118" lon="9.754217980891282"><ele>17.0</ele><time>2026-05-04T13:33:34.001Z</time></trkpt><trkpt lat="40.582507297448146" lon="9.754503714559283"><ele>18.0</ele><time>2026-05-04T13:33:35.001Z</time></trkpt><trkpt lat="40.58251825345983" lon="9.754816360788064"><ele>19.0</ele><time>2026-05-04T13:33:36.001Z</time></trkpt><trkpt lat="40.58253322874192" lon="9.755124385176705"><ele>20.333333333333332</ele><time>2026-05-04T13:33:37.001Z</time></trkpt><trkpt lat="40.5825573420336" lon="9.755410372490562"><ele>21.666666666666668</ele><time>2026-05-04T13:33:38.001Z</time></trkpt><trkpt lat="40.582592495602" lon="9.7556826077973"><ele>23.0</ele><time>2026-05-04T13:33:39.001Z</time></trkpt><trkpt lat="40.582635410372326" lon="9.755925413311184"><ele>24.666666666666668</ele><time>2026-05-04T13:33:40.001Z</time></trkpt><trkpt lat="40.582707445937636" lon="9.756141057917276"><ele>26.333333333333336</ele><time>2026-05-04T13:33:41.001Z</time></trkpt><trkpt lat="40.582796359336655" lon="9.75634139885122"><ele>28.0</ele><time>2026-05-04T13:33:42.001Z</time></trkpt><trkpt lat="40.58287999042359" lon="9.756556633188632"><ele>22.0</ele><time>2026-05-04T13:33:43.001Z</time></trkpt><trkpt lat="40.58292626673007" lon="9.756782133203638"><ele>16.0</ele><time>2026-05-04T13:33:44.001Z</time></trkpt><trkpt lat="40.58294060484723" lon="9.757037015546858"><ele>10.0</ele><time>2026-05-04T13:33:45.001Z</time></trkpt><trkpt lat="40.58292579435616" lon="9.757274529695565"><ele>10.0</ele><time>2026-05-04T13:33:46.001Z</time></trkpt><trkpt lat="40.58291441429835" lon="9.757484200065445"><ele>10.0</ele><time>2026-05-04T13:33:47.001Z</time></trkpt><trkpt lat="40.5829152454836" lon="9.757693738830232"><ele>10.0</ele><time>2026-05-04T13:33:48.001Z</time></trkpt><trkpt lat="40.58292354305654" lon="9.757914333894096"><ele>10.0</ele><time>2026-05-04T13:33:49.001Z</time></trkpt><trkpt lat="40.582921661099085" lon="9.758134712793522"><ele>10.0</ele><time>2026-05-04T13:33:50.001Z</time></trkpt><trkpt lat="40.58292177816597" lon="9.75833184385722"><ele>10.0</ele><time>2026-05-04T13:33:51.001Z</time></trkpt><trkpt lat="40.582924171788655" lon="9.758513472656166"><ele>10.2</ele><time>2026-05-04T13:33:52.001Z</time></trkpt><trkpt lat="40.582925585457495" lon="9.75868525742157"><ele>10.4</ele><time>2026-05-04T13:33:53.001Z</time></trkpt><trkpt lat="40.58291834287102" lon="9.75881843230303"><ele>10.600000000000001</ele><time>2026-05-04T13:33:54.001Z</time></trkpt><trkpt lat="40.58291268832616" lon="9.758917344701395"><ele>10.8</ele><time>2026-05-04T13:33:55.001Z</time></trkpt><trkpt lat="40.582913271760496" lon="9.759051060850071"><ele>11.0</ele><time>2026-05-04T13:33:57.001Z</time></trkpt><trkpt lat="40.58307155082881" lon="9.759086274196525"><ele>11.0</ele><time>2026-05-04T13:34:00.001Z</time></trkpt><trkpt lat="40.58316756031453" lon="9.759035399088791"><ele>11.0</ele><time>2026-05-04T13:34:01.001Z</time></trkpt><trkpt lat="40.583294300803715" lon="9.758965705418214"><ele>11.0</ele><time>2026-05-04T13:34:02.001Z</time></trkpt><trkpt lat="40.583433906854815" lon="9.758902941785284"><ele>11.0</ele><time>2026-05-04T13:34:03.001Z</time></trkpt><trkpt lat="40.58358543315463" lon="9.758837960605057"><ele>10.0</ele><time>2026-05-04T13:34:04.001Z</time></trkpt><trkpt lat="40.58374164373006" lon="9.75877182305352"><ele>9.0</ele><time>2026-05-04T13:34:05.001Z</time></trkpt><trkpt lat="40.58389542304121" lon="9.758706140523236"><ele>8.0</ele><time>2026-05-04T13:34:06.001Z</time></trkpt><trkpt lat="40.58405708711627" lon="9.758641723841023"><ele>8.0</ele><time>2026-05-04T13:34:07.001Z</time></trkpt><trkpt lat="40.58422325344131" lon="9.758572798779861"><ele>8.0</ele><time>2026-05-04T13:34:08.002Z</time></trkpt><trkpt lat="40.58438301053146" lon="9.75850237305428"><ele>8.0</ele><time>2026-05-04T13:34:09.002Z</time></trkpt><trkpt lat="40.584546572651135" lon="9.758432449692398"><ele>5.333333333333333</ele><time>2026-05-04T13:34:10.002Z</time></trkpt><trkpt lat="40.58470787704022" lon="9.7583583147252"><ele>2.6666666666666665</ele><time>2026-05-04T13:34:11.002Z</time></trkpt><trkpt lat="40.584873489329745" lon="9.75828464416958"><ele>0.0</ele><time>2026-05-04T13:34:12.002Z</time></trkpt><trkpt lat="40.5850359111283" lon="9.758214789319117"><ele>0.0</ele><time>2026-05-04T13:34:13.002Z</time></trkpt><trkpt lat="40.58520662206492" lon="9.758140754753544"><ele>0.0</ele><time>2026-05-04T13:34:14.002Z</time></trkpt><trkpt lat="40.58538549625099" lon="9.758066441784507"><ele>0.0</ele><time>2026-05-04T13:34:15.002Z</time></trkpt><trkpt lat="40.585556312952285" lon="9.757995335650893"><ele>-0.3333333333333333</ele><time>2026-05-04T13:34:16.002Z</time></trkpt><trkpt lat="40.58572698118367" lon="9.757913912325032"><ele>-0.6666666666666666</ele><time>2026-05-04T13:34:17.002Z</time></trkpt><trkpt lat="40.585909039303104" lon="9.75783399623982"><ele>-1.0</ele><time>2026-05-04T13:34:18Z</time></trkpt><trkpt lat="40.58607757723703" lon="9.757760384561683"><ele>-1.0</ele><time>2026-05-04T13:34:19Z</time></trkpt><trkpt lat="40.58625369183249" lon="9.75768231386936"><ele>-1.0</ele><time>2026-05-04T13:34:20Z</time></trkpt><trkpt lat="40.58644772952135" lon="9.75760318881949"><ele>-1.0</ele><time>2026-05-04T13:34:21Z</time></trkpt><trkpt lat="40.58669724715371" lon="9.75749679428742"><ele>-1.0</ele><time>2026-05-04T13:34:22Z</time></trkpt><trkpt lat="40.58699568088704" lon="9.757373335809543"><ele>-1.0</ele><time>2026-05-04T13:34:23Z</time></trkpt><trkpt lat="40.58730112510711" lon="9.757244208555413"><ele>-1.5</ele><time>2026-05-04T13:34:24Z</time></trkpt><trkpt lat="40.5875837136925" lon="9.757121013648653"><ele>-2.0</ele><time>2026-05-04T13:34:25Z</time></trkpt><trkpt lat="40.58787874320194" lon="9.75699348615183"><ele>-1.5</ele><time>2026-05-04T13:34:26Z</time></trkpt><trkpt lat="40.58819496639152" lon="9.756863587441043"><ele>-1.0</ele><time>2026-05-04T13:34:27Z</time></trkpt><trkpt lat="40.58850334508356" lon="9.756734624673376"><ele>-1.0</ele><time>2026-05-04T13:34:28Z</time></trkpt><trkpt lat="40.58878697669158" lon="9.756608830608107"><ele>-1.0</ele><time>2026-05-04T13:34:29Z</time></trkpt><trkpt lat="40.589058088022824" lon="9.756489516542048"><ele>-1.0</ele><time>2026-05-04T13:34:30Z</time></trkpt><trkpt lat="40.58932615687822" lon="9.756377839232579"><ele>-1.0</ele><time>2026-05-04T13:34:31Z</time></trkpt><trkpt lat="40.58959338532397" lon="9.756268367228632"><ele>-0.5</ele><time>2026-05-04T13:34:32Z</time></trkpt><trkpt lat="40.58986015254409" lon="9.756158533751448"><ele>0.0</ele><time>2026-05-04T13:34:33Z</time></trkpt><trkpt lat="40.59011510433761" lon="9.756050349684994"><ele>-1.0</ele><time>2026-05-04T13:34:34Z</time></trkpt><trkpt lat="40.590364469373036" lon="9.755944043540138"><ele>-2.0</ele><time>2026-05-04T13:34:35Z</time></trkpt><trkpt lat="40.5905997159163" lon="9.755839523782615"><ele>-2.0</ele><time>2026-05-04T13:34:36Z</time></trkpt><trkpt lat="40.590833389595296" lon="9.755740563909926"><ele>-2.0</ele><time>2026-05-04T13:34:37Z</time></trkpt><trkpt lat="40.59107271273853" lon="9.755636071506526"><ele>-0.5</ele><time>2026-05-04T13:34:38Z</time></trkpt><trkpt lat="40.59132035557885" lon="9.755532828298465"><ele>1.0</ele><time>2026-05-04T13:34:39Z</time></trkpt><trkpt lat="40.59154900367873" lon="9.755440624394891"><ele>1.0</ele><time>2026-05-04T13:34:40Z</time></trkpt><trkpt lat="40.59177988073709" lon="9.755343840529976"><ele>1.0</ele><time>2026-05-04T13:34:41Z</time></trkpt><trkpt lat="40.5920196363915" lon="9.755227901359284"><ele>2.0</ele><time>2026-05-04T13:34:42Z</time></trkpt><trkpt lat="40.59225987969394" lon="9.755083465900258"><ele>3.0</ele><time>2026-05-04T13:34:43Z</time></trkpt><trkpt lat="40.59250243654306" lon="9.75492275142692"><ele>3.0</ele><time>2026-05-04T13:34:44Z</time></trkpt><trkpt lat="40.592740575360686" lon="9.754766605024004"><ele>3.0</ele><time>2026-05-04T13:34:45Z</time></trkpt><trkpt lat="40.59297867465358" lon="9.75460707337335"><ele>1.5</ele><time>2026-05-04T13:34:46Z</time></trkpt><trkpt lat="40.59320834853031" lon="9.754452316115483"><ele>0.0</ele><time>2026-05-04T13:34:47Z</time></trkpt><trkpt lat="40.593432118242646" lon="9.754303786667517"><ele>0.0</ele><time>2026-05-04T13:34:48Z</time></trkpt><trkpt lat="40.59366004580456" lon="9.754162547463395"><ele>0.0</ele><time>2026-05-04T13:34:49Z</time></trkpt><trkpt lat="40.593891610161066" lon="9.754017949784176"><ele>0.0</ele><time>2026-05-04T13:34:50Z</time></trkpt><trkpt lat="40.59412298008273" lon="9.75387000216114"><ele>0.0</ele><time>2026-05-04T13:34:51Z</time></trkpt><trkpt lat="40.594347165913895" lon="9.753720641403856"><ele>0.0</ele><time>2026-05-04T13:34:52Z</time></trkpt><trkpt lat="40.594574326168214" lon="9.753569021429682"><ele>0.0</ele><time>2026-05-04T13:34:53Z</time></trkpt><trkpt lat="40.59479309736529" lon="9.75338702743413"><ele>0.0</ele><time>2026-05-04T13:34:54Z</time></trkpt><trkpt lat="40.595005619685104" lon="9.753203691233711"><ele>0.0</ele><time>2026-05-04T13:34:55Z</time></trkpt><trkpt lat="40.59521957101476" lon="9.753026874141842"><ele>0.0</ele><time>2026-05-04T13:34:56Z</time></trkpt><trkpt lat="40.59543317241648" lon="9.752858306068342"><ele>0.0</ele><time>2026-05-04T13:34:57Z</time></trkpt><trkpt lat="40.595658629783394" lon="9.752721010456952"><ele>0.0</ele><time>2026-05-04T13:34:58Z</time></trkpt><trkpt lat="40.59586483087256" lon="9.752556763930153"><ele>0.0</ele><time>2026-05-04T13:34:59Z</time></trkpt><trkpt lat="40.59606905647437" lon="9.752394192844452"><ele>0.0</ele><time>2026-05-04T13:35:00Z</time></trkpt><trkpt lat="40.59627343142143" lon="9.752233304821276"><ele>0.0</ele><time>2026-05-04T13:35:01Z</time></trkpt><trkpt lat="40.596474459687" lon="9.752075051368925"><ele>0.0</ele><time>2026-05-04T13:35:02Z</time></trkpt><trkpt lat="40.59667286835581" lon="9.751918860122755"><ele>0.0</ele><time>2026-05-04T13:35:03Z</time></trkpt><trkpt lat="40.59687154414905" lon="9.751761642976803"><ele>0.0</ele><time>2026-05-04T13:35:04.001Z</time></trkpt><trkpt lat="40.5970664054376" lon="9.751605753921321"><ele>0.0</ele><time>2026-05-04T13:35:05.001Z</time></trkpt><trkpt lat="40.59726479192544" lon="9.751447044775913"><ele>0.0</ele><time>2026-05-04T13:35:06.001Z</time></trkpt><trkpt lat="40.59746625360274" lon="9.751285879730444"><ele>0.0</ele><time>2026-05-04T13:35:07.001Z</time></trkpt><trkpt lat="40.59766641207173" lon="9.75112575751875"><ele>-0.5</ele><time>2026-05-04T13:35:08.001Z</time></trkpt><trkpt lat="40.59786830938037" lon="9.750962759924668"><ele>-1.0</ele><time>2026-05-04T13:35:09.001Z</time></trkpt><trkpt lat="40.598067069294885" lon="9.750776823008712"><ele>-1.0</ele><time>2026-05-04T13:35:10.001Z</time></trkpt><trkpt lat="40.598284323480996" lon="9.750626619351287"><ele>-1.0</ele><time>2026-05-04T13:35:11.001Z</time></trkpt><trkpt lat="40.59850860199069" lon="9.750499008345903"><ele>-0.5</ele><time>2026-05-04T13:35:12.001Z</time></trkpt><trkpt lat="40.59874139612464" lon="9.750381353896742"><ele>0.0</ele><time>2026-05-04T13:35:13.001Z</time></trkpt><trkpt lat="40.59897898287411" lon="9.750275453302205"><ele>-1.0</ele><time>2026-05-04T13:35:14.001Z</time></trkpt><trkpt lat="40.59922294019823" lon="9.750173268483032"><ele>-2.0</ele><time>2026-05-04T13:35:15.001Z</time></trkpt><trkpt lat="40.59946653303739" lon="9.750071654592844"><ele>-1.3333333333333333</ele><time>2026-05-04T13:35:16.001Z</time></trkpt><trkpt lat="40.5996930280015" lon="9.749977565914735"><ele>-0.6666666666666666</ele><time>2026-05-04T13:35:17.001Z</time></trkpt><trkpt lat="40.599889253696766" lon="9.749894513104044"><ele>0.0</ele><time>2026-05-04T13:35:18.001Z</time></trkpt><trkpt lat="40.600072346184646" lon="9.749815385277605"><ele>0.0</ele><time>2026-05-04T13:35:19.001Z</time></trkpt><trkpt lat="40.600239188444704" lon="9.749741045657121"><ele>0.0</ele><time>2026-05-04T13:35:20.001Z</time></trkpt><trkpt lat="40.60038756637688" lon="9.74968320130127"><ele>0.0</ele><time>2026-05-04T13:35:21.001Z</time></trkpt><trkpt lat="40.6005127258812" lon="9.749640190117727"><ele>0.2</ele><time>2026-05-04T13:35:22.001Z</time></trkpt><trkpt lat="40.60062699750228" lon="9.749590452452878"><ele>0.4</ele><time>2026-05-04T13:35:23.001Z</time></trkpt><trkpt lat="40.60071661646453" lon="9.749537608515066"><ele>0.6000000000000001</ele><time>2026-05-04T13:35:24.001Z</time></trkpt><trkpt lat="40.600801305285856" lon="9.749473961481902"><ele>0.8</ele><time>2026-05-04T13:35:25.001Z</time></trkpt><trkpt lat="40.60085212928023" lon="9.74938489323935"><ele>1.0</ele><time>2026-05-04T13:35:26.001Z</time></trkpt><trkpt lat="40.60087892645989" lon="9.749255572616999"><ele>0.6000000000000001</ele><time>2026-05-04T13:35:27.001Z</time></trkpt><trkpt lat="40.60086141236899" lon="9.749119016863036"><ele>0.20000000000000007</ele><time>2026-05-04T13:35:28.001Z</time></trkpt><trkpt lat="40.600801520068366" lon="9.749000124344198"><ele>-0.20000000000000007</ele><time>2026-05-04T13:35:29.001Z</time></trkpt><trkpt lat="40.60070800035976" lon="9.748906624204805"><ele>-0.6000000000000001</ele><time>2026-05-04T13:35:30.001Z</time></trkpt><trkpt lat="40.600617481780006" lon="9.748818290607643"><ele>-1.0</ele><time>2026-05-04T13:35:31.001Z</time></trkpt><trkpt lat="40.60056310907572" lon="9.748703898967829"><ele>-1.0</ele><time>2026-05-04T13:35:32.001Z</time></trkpt><trkpt lat="40.60054378106407" lon="9.748551775952931"><ele>-1.0</ele><time>2026-05-04T13:35:33.001Z</time></trkpt><trkpt lat="40.60055034368116" lon="9.748380689091809"><ele>-1.0</ele><time>2026-05-04T13:35:34.001Z</time></trkpt><trkpt lat="40.60055468118133" lon="9.748198683553282"><ele>-1.0</ele><time>2026-05-04T13:35:35.001Z</time></trkpt><trkpt lat="40.600556208355954" lon="9.748011624718545"><ele>-0.6666666666666666</ele><time>2026-05-04T13:35:36.001Z</time></trkpt><trkpt lat="40.60056110737918" lon="9.747818943254542"><ele>-0.3333333333333333</ele><time>2026-05-04T13:35:37.001Z</time></trkpt><trkpt lat="40.60056783361704" lon="9.747614572000732"><ele>0.0</ele><time>2026-05-04T13:35:38.001Z</time></trkpt><trkpt lat="40.60057157398795" lon="9.74740271915423"><ele>0.0</ele><time>2026-05-04T13:35:39.001Z</time></trkpt><trkpt lat="40.60057050840201" lon="9.747179462187216"><ele>0.0</ele><time>2026-05-04T13:35:40.001Z</time></trkpt><trkpt lat="40.60057153938402" lon="9.746944314579142"><ele>0.0</ele><time>2026-05-04T13:35:41.001Z</time></trkpt><trkpt lat="40.60057501948412" lon="9.746682807220836"><ele>0.0</ele><time>2026-05-04T13:35:42.001Z</time></trkpt><trkpt lat="40.60057911338502" lon="9.746431892021983"><ele>0.0</ele><time>2026-05-04T13:35:43.001Z</time></trkpt><trkpt lat="40.60057710942803" lon="9.746185354784808"><ele>0.0</ele><time>2026-05-04T13:35:44.001Z</time></trkpt><trkpt lat="40.600580384441265" lon="9.745937291768316"><ele>0.6666666666666666</ele><time>2026-05-04T13:35:45.001Z</time></trkpt><trkpt lat="40.600584797302375" lon="9.7456890530277"><ele>1.3333333333333333</ele><time>2026-05-04T13:35:46.001Z</time></trkpt><trkpt lat="40.60058778826676" lon="9.745447745317504"><ele>2.0</ele><time>2026-05-04T13:35:47.001Z</time></trkpt><trkpt lat="40.600588397485986" lon="9.745230858792885"><ele>2.5</ele><time>2026-05-04T13:35:48.001Z</time></trkpt><trkpt lat="40.600586798060185" lon="9.745045508380775"><ele>3.0</ele><time>2026-05-04T13:35:49.001Z</time></trkpt><trkpt lat="40.600587177164954" lon="9.74489669009724"><ele>3.5</ele><time>2026-05-04T13:35:50.001Z</time></trkpt><trkpt lat="40.60058634316853" lon="9.744763433892263"><ele>4.0</ele><time>2026-05-04T13:35:51.001Z</time></trkpt><trkpt lat="40.600583368639214" lon="9.744634246881171"><ele>3.9999999999999996</ele><time>2026-05-04T13:35:52.001Z</time></trkpt><trkpt lat="40.60058005025936" lon="9.744519348597759"><ele>4.0</ele><time>2026-05-04T13:35:53.001Z</time></trkpt><trkpt lat="40.60058188435567" lon="9.744405535772438"><ele>4.0</ele><time>2026-05-04T13:35:54.001Z</time></trkpt><trkpt lat="40.600585653987665" lon="9.744300846157406"><ele>4.0</ele><time>2026-05-04T13:35:55.001Z</time></trkpt><trkpt lat="40.600616801984565" lon="9.744211482549552"><ele>3.9999999999999996</ele><time>2026-05-04T13:35:56.001Z</time></trkpt><trkpt lat="40.60068000338765" lon="9.744173107012493"><ele>4.0</ele><time>2026-05-04T13:35:57.001Z</time></trkpt><trkpt lat="40.60077452782382" lon="9.744155853433382"><ele>4.0</ele><time>2026-05-04T13:35:58.001Z</time></trkpt><trkpt lat="40.60086926950408" lon="9.744153777620097"><ele>4.0</ele><time>2026-05-04T13:35:59.001Z</time></trkpt><trkpt lat="40.60102582841409" lon="9.744153055049281"><ele>4.0</ele><time>2026-05-04T13:36:00.001Z</time></trkpt><trkpt lat="40.601232224093934" lon="9.744152005688743"><ele>3.333333333333333</ele><time>2026-05-04T13:36:01.001Z</time></trkpt><trkpt lat="40.60141252715063" lon="9.744153155789235"><ele>2.6666666666666665</ele><time>2026-05-04T13:36:02.001Z</time></trkpt><trkpt lat="40.60157625442196" lon="9.744153390855336"><ele>2.0</ele><time>2026-05-04T13:36:03.001Z</time></trkpt><trkpt lat="40.6017404134942" lon="9.744156924893558"><ele>2.0</ele><time>2026-05-04T13:36:04.001Z</time></trkpt><trkpt lat="40.60190314385804" lon="9.744170012310004"><ele>2.0</ele><time>2026-05-04T13:36:05.001Z</time></trkpt><trkpt lat="40.60207288408258" lon="9.744179794441946"><ele>2.0</ele><time>2026-05-04T13:36:06.001Z</time></trkpt><trkpt lat="40.60224464821833" lon="9.74417638996254"><ele>1.6666666666666665</ele><time>2026-05-04T13:36:07.001Z</time></trkpt><trkpt lat="40.6024195744385" lon="9.744169140377878"><ele>1.3333333333333333</ele><time>2026-05-04T13:36:08.001Z</time></trkpt><trkpt lat="40.602577579588264" lon="9.744163373239244"><ele>1.0</ele><time>2026-05-04T13:36:09.001Z</time></trkpt><trkpt lat="40.60274296516862" lon="9.74416062181644"><ele>1.0</ele><time>2026-05-04T13:36:10.001Z</time></trkpt><trkpt lat="40.602907004502505" lon="9.74416256840157"><ele>1.0</ele><time>2026-05-04T13:36:11.001Z</time></trkpt><trkpt lat="40.603065255182074" lon="9.744143415728333"><ele>1.0</ele><time>2026-05-04T13:36:12.001Z</time></trkpt><trkpt lat="40.60322801424958" lon="9.744094621801421"><ele>1.0</ele><time>2026-05-04T13:36:13.001Z</time></trkpt><trkpt lat="40.60336515937906" lon="9.74401844207017"><ele>1.0</ele><time>2026-05-04T13:36:14.001Z</time></trkpt><trkpt lat="40.603488965336474" lon="9.743917520874223"><ele>1.0</ele><time>2026-05-04T13:36:15.001Z</time></trkpt><trkpt lat="40.603601771397095" lon="9.743806947474782"><ele>1.0</ele><time>2026-05-04T13:36:16.001Z</time></trkpt><trkpt lat="40.60370097267677" lon="9.743699759513369"><ele>1.0</ele><time>2026-05-04T13:36:17.001Z</time></trkpt><trkpt lat="40.603816985972045" lon="9.743590462025585"><ele>1.0</ele><time>2026-05-04T13:36:18.001Z</time></trkpt><trkpt lat="40.603937781687854" lon="9.743483411277548"><ele>1.0</ele><time>2026-05-04T13:36:19.001Z</time></trkpt><trkpt lat="40.604063691316334" lon="9.74337324629996"><ele>1.0</ele><time>2026-05-04T13:36:20.001Z</time></trkpt><trkpt lat="40.604178756038706" lon="9.743268607089878"><ele>1.0</ele><time>2026-05-04T13:36:21.001Z</time></trkpt><trkpt lat="40.604283762329935" lon="9.743164627619192"><ele>1.0</ele><time>2026-05-04T13:36:22.001Z</time></trkpt><trkpt lat="40.604377239390594" lon="9.74307071583146"><ele>1.0</ele><time>2026-05-04T13:36:23.001Z</time></trkpt><trkpt lat="40.604453344944666" lon="9.743002053338419"><ele>1.0</ele><time>2026-05-04T13:36:24Z</time></trkpt><trkpt lat="40.604512813445574" lon="9.74296413362783"><ele>1.0</ele><time>2026-05-04T13:36:25Z</time></trkpt><trkpt lat="40.60458144347464" lon="9.742959718539188"><ele>1.4</ele><time>2026-05-04T13:36:26Z</time></trkpt><trkpt lat="40.60464513122285" lon="9.742954846262174"><ele>1.8</ele><time>2026-05-04T13:36:27Z</time></trkpt><trkpt lat="40.60470673347703" lon="9.743097267490395"><ele>2.1999999999999997</ele><time>2026-05-04T13:36:28Z</time></trkpt><trkpt lat="40.60474800663091" lon="9.743210213759001"><ele>2.6</ele><time>2026-05-04T13:36:29Z</time></trkpt><trkpt lat="40.60480904302317" lon="9.74332706403383"><ele>3.0</ele><time>2026-05-04T13:36:30Z</time></trkpt><trkpt lat="40.60488663167981" lon="9.743447684749464"><ele>3.25</ele><time>2026-05-04T13:36:31Z</time></trkpt><trkpt lat="40.604959230926475" lon="9.743566801477655"><ele>3.5</ele><time>2026-05-04T13:36:32Z</time></trkpt><trkpt lat="40.60503146750245" lon="9.743687869560334"><ele>3.75</ele><time>2026-05-04T13:36:33Z</time></trkpt><trkpt lat="40.60510582870862" lon="9.743814310510944"><ele>4.0</ele><time>2026-05-04T13:36:34Z</time></trkpt><trkpt lat="40.60517745210929" lon="9.743949764819407"><ele>4.0</ele><time>2026-05-04T13:36:35Z</time></trkpt><trkpt lat="40.60525849969117" lon="9.744092540387419"><ele>4.0</ele><time>2026-05-04T13:36:36Z</time></trkpt><trkpt lat="40.605334426989494" lon="9.744233092284555"><ele>4.0</ele><time>2026-05-04T13:36:37Z</time></trkpt><trkpt lat="40.60541445271303" lon="9.744377912852835"><ele>4.0</ele><time>2026-05-04T13:36:38Z</time></trkpt><trkpt lat="40.60549331833081" lon="9.74452423639627"><ele>3.5</ele><time>2026-05-04T13:36:39Z</time></trkpt><trkpt lat="40.60557621411049" lon="9.744673876135847"><ele>3.0</ele><time>2026-05-04T13:36:40Z</time></trkpt><trkpt lat="40.60565759726844" lon="9.744827227195145"><ele>2.5</ele><time>2026-05-04T13:36:41Z</time></trkpt><trkpt lat="40.6057393452468" lon="9.744974418232209"><ele>2.0</ele><time>2026-05-04T13:36:42Z</time></trkpt><trkpt lat="40.605817070112465" lon="9.745117322778402"><ele>2.0</ele><time>2026-05-04T13:36:43Z</time></trkpt><trkpt lat="40.60589444432414" lon="9.745254030125611"><ele>2.0</ele><time>2026-05-04T13:36:44Z</time></trkpt><trkpt lat="40.60597530332279" lon="9.745388757159642"><ele>2.0</ele><time>2026-05-04T13:36:45Z</time></trkpt><trkpt lat="40.60606049289831" lon="9.74552798791892"><ele>2.0</ele><time>2026-05-04T13:36:46Z</time></trkpt><trkpt lat="40.60613235399164" lon="9.745666880825805"><ele>2.25</ele><time>2026-05-04T13:36:47Z</time></trkpt><trkpt lat="40.60620202924121" lon="9.74580338562915"><ele>2.5</ele><time>2026-05-04T13:36:48Z</time></trkpt><trkpt lat="40.60626705987724" lon="9.745945313526986"><ele>2.75</ele><time>2026-05-04T13:36:49Z</time></trkpt><trkpt lat="40.6063366615368" lon="9.746082021754061"><ele>3.0</ele><time>2026-05-04T13:36:50Z</time></trkpt><trkpt lat="40.606408926987605" lon="9.746214480976395"><ele>3.0</ele><time>2026-05-04T13:36:51Z</time></trkpt><trkpt lat="40.60647222100741" lon="9.746341311952035"><ele>3.0</ele><time>2026-05-04T13:36:52Z</time></trkpt><trkpt lat="40.60652939499746" lon="9.746455283170024"><ele>3.0</ele><time>2026-05-04T13:36:53Z</time></trkpt><trkpt lat="40.60660304573871" lon="9.746556613855885"><ele>3.0</ele><time>2026-05-04T13:36:54Z</time></trkpt><trkpt lat="40.606690697516505" lon="9.74666118443998"><ele>3.0</ele><time>2026-05-04T13:36:55Z</time></trkpt><trkpt lat="40.60678135909351" lon="9.746748534801053"><ele>3.1666666666666665</ele><time>2026-05-04T13:36:56Z</time></trkpt><trkpt lat="40.60679610016012" lon="9.746889259982003"><ele>3.333333333333333</ele><time>2026-05-04T13:36:57Z</time></trkpt><trkpt lat="40.6068382532019" lon="9.746967795990177"><ele>3.5</ele><time>2026-05-04T13:36:58Z</time></trkpt><trkpt lat="40.60687777950356" lon="9.747040634767961"><ele>3.6666666666666665</ele><time>2026-05-04T13:36:59Z</time></trkpt><trkpt lat="40.606930580885944" lon="9.747137936772898"><ele>3.833333333333333</ele><time>2026-05-04T13:37:01Z</time></trkpt><trkpt lat="40.60697914439955" lon="9.747227429266209"><ele>4.0</ele><time>2026-05-04T13:37:03Z</time></trkpt><trkpt lat="40.607051339649104" lon="9.74736023799079"><ele>4.0</ele><time>2026-05-04T13:37:05Z</time></trkpt><trkpt lat="40.607088801565496" lon="9.747429242915064"><ele>4.0</ele><time>2026-05-04T13:37:06Z</time></trkpt><trkpt lat="40.60713726071253" lon="9.747518504758439"><ele>4.0</ele><time>2026-05-04T13:37:08Z</time></trkpt><trkpt lat="40.607313398920155" lon="9.747388857802962"><ele>4.0</ele><time>2026-05-04T13:37:10Z</time></trkpt><trkpt lat="40.60739453577529" lon="9.747284032268974"><ele>4.0</ele><time>2026-05-04T13:37:11Z</time></trkpt><trkpt lat="40.60748469890042" lon="9.747190805590323"><ele>4.0</ele><time>2026-05-04T13:37:12Z</time></trkpt><trkpt lat="40.607568842760394" lon="9.747108867027128"><ele>4.0</ele><time>2026-05-04T13:37:13Z</time></trkpt><trkpt lat="40.60764950081695" lon="9.747035476842024"><ele>4.0</ele><time>2026-05-04T13:37:14Z</time></trkpt><trkpt lat="40.60772185487072" lon="9.746961743269548"><ele>4.0</ele><time>2026-05-04T13:37:15Z</time></trkpt><trkpt lat="40.60780518731892" lon="9.746892712274335"><ele>4.0</ele><time>2026-05-04T13:37:16Z</time></trkpt><trkpt lat="40.60790212567498" lon="9.746846995751639"><ele>4.0</ele><time>2026-05-04T13:37:17Z</time></trkpt><trkpt lat="40.608014153297106" lon="9.746788581128266"><ele>4.0</ele><time>2026-05-04T13:37:18Z</time></trkpt><trkpt lat="40.60811543414438" lon="9.746731572495273"><ele>4.0</ele><time>2026-05-04T13:37:19Z</time></trkpt><trkpt lat="40.6082122936448" lon="9.746685389713896"><ele>4.0</ele><time>2026-05-04T13:37:20Z</time></trkpt><trkpt lat="40.6083058239545" lon="9.746624472400036"><ele>4.0</ele><time>2026-05-04T13:37:21Z</time></trkpt><trkpt lat="40.60840798280776" lon="9.74657335817802"><ele>4.0</ele><time>2026-05-04T13:37:22Z</time></trkpt><trkpt lat="40.60851305480052" lon="9.746518286538246"><ele>4.0</ele><time>2026-05-04T13:37:23Z</time></trkpt><trkpt lat="40.60862914089537" lon="9.746498120084155"><ele>4.0</ele><time>2026-05-04T13:37:24.001Z</time></trkpt><trkpt lat="40.608748159601866" lon="9.74655841054626"><ele>4.0</ele><time>2026-05-04T13:37:25.001Z</time></trkpt><trkpt lat="40.608870537975065" lon="9.746593105294524"><ele>4.0</ele><time>2026-05-04T13:37:26.001Z</time></trkpt><trkpt lat="40.608991211134324" lon="9.746629420699623"><ele>4.0</ele><time>2026-05-04T13:37:27.001Z</time></trkpt><trkpt lat="40.60911419386518" lon="9.7466574217732"><ele>4.0</ele><time>2026-05-04T13:37:28.001Z</time></trkpt><trkpt lat="40.60923427041537" lon="9.746691427078622"><ele>4.0</ele><time>2026-05-04T13:37:29.001Z</time></trkpt><trkpt lat="40.609355343934325" lon="9.746697377460473"><ele>4.0</ele><time>2026-05-04T13:37:30.001Z</time></trkpt><trkpt lat="40.609467400236916" lon="9.746657923148208"><ele>4.0</ele><time>2026-05-04T13:37:31.001Z</time></trkpt><trkpt lat="40.60959237239193" lon="9.74663100409765"><ele>4.0</ele><time>2026-05-04T13:37:32.001Z</time></trkpt><trkpt lat="40.60974438515867" lon="9.746571945745217"><ele>4.0</ele><time>2026-05-04T13:37:33.001Z</time></trkpt><trkpt lat="40.60987604504202" lon="9.746516890460573"><ele>4.0</ele><time>2026-05-04T13:37:34.001Z</time></trkpt><trkpt lat="40.610005081287674" lon="9.746494011484367"><ele>4.0</ele><time>2026-05-04T13:37:35.001Z</time></trkpt><trkpt lat="40.6101367970084" lon="9.746474434244305"><ele>4.0</ele><time>2026-05-04T13:37:36.001Z</time></trkpt><trkpt lat="40.61025571795383" lon="9.74647691040771"><ele>3.833333333333333</ele><time>2026-05-04T13:37:37.001Z</time></trkpt><trkpt lat="40.610361868384494" lon="9.746483307514382"><ele>3.6666666666666665</ele><time>2026-05-04T13:37:38.001Z</time></trkpt><trkpt lat="40.61044815253037" lon="9.746507000129446"><ele>3.5</ele><time>2026-05-04T13:37:39.001Z</time></trkpt><trkpt lat="40.610520749619965" lon="9.746536884879543"><ele>3.333333333333333</ele><time>2026-05-04T13:37:40.001Z</time></trkpt><trkpt lat="40.61059517316362" lon="9.746579346956667"><ele>3.1666666666666665</ele><time>2026-05-04T13:37:42.001Z</time></trkpt><trkpt lat="40.6106885249199" lon="9.746574404866454"><ele>3.0</ele><time>2026-05-04T13:37:44.001Z</time></trkpt><trkpt lat="40.610657622648645" lon="9.746660535210717"><ele>3.0</ele><time>2026-05-04T13:37:45.001Z</time></trkpt><trkpt lat="40.61084100840703" lon="9.746452493769425"><ele>3.0</ele><time>2026-05-04T13:37:46.001Z</time></trkpt><trkpt lat="40.6109304839725" lon="9.746361275356822"><ele>3.0</ele><time>2026-05-04T13:37:47.001Z</time></trkpt><trkpt lat="40.611034009698024" lon="9.746264345576737"><ele>3.0</ele><time>2026-05-04T13:37:48.001Z</time></trkpt><trkpt lat="40.61113594080778" lon="9.746149109828204"><ele>3.0</ele><time>2026-05-04T13:37:49.001Z</time></trkpt><trkpt lat="40.611224952103726" lon="9.746031344869792"><ele>3.0</ele><time>2026-05-04T13:37:50.001Z</time></trkpt><trkpt lat="40.611308457575554" lon="9.745941129754128"><ele>3.0</ele><time>2026-05-04T13:37:51.001Z</time></trkpt><trkpt lat="40.61137678300041" lon="9.745840475045036"><ele>3.0</ele><time>2026-05-04T13:37:52.001Z</time></trkpt><trkpt lat="40.611448592365186" lon="9.745736556742225"><ele>3.0</ele><time>2026-05-04T13:37:53.001Z</time></trkpt><trkpt lat="40.61152402282083" lon="9.74562529142816"><ele>3.0</ele><time>2026-05-04T13:37:54.001Z</time></trkpt><trkpt lat="40.61160511335123" lon="9.745494328725867"><ele>3.0</ele><time>2026-05-04T13:37:55.001Z</time></trkpt><trkpt lat="40.611679131752915" lon="9.745350275248764"><ele>3.0</ele><time>2026-05-04T13:37:56.001Z</time></trkpt><trkpt lat="40.61176678090773" lon="9.745214788329676"><ele>3.0</ele><time>2026-05-04T13:37:57.001Z</time></trkpt><trkpt lat="40.61186321207646" lon="9.745064241432065"><ele>3.0</ele><time>2026-05-04T13:37:58.001Z</time></trkpt><trkpt lat="40.611974257982325" lon="9.744918647845715"><ele>3.0</ele><time>2026-05-04T13:37:59.001Z</time></trkpt><trkpt lat="40.61209229584937" lon="9.744768927894633"><ele>3.333333333333333</ele><time>2026-05-04T13:38:00.001Z</time></trkpt><trkpt lat="40.612229000643794" lon="9.744636846367262"><ele>3.6666666666666665</ele><time>2026-05-04T13:38:01.001Z</time></trkpt><trkpt lat="40.6123815368108" lon="9.744540512335396"><ele>4.0</ele><time>2026-05-04T13:38:02.001Z</time></trkpt><trkpt lat="40.61251914295943" lon="9.744416198362623"><ele>4.666666666666666</ele><time>2026-05-04T13:38:03.001Z</time></trkpt><trkpt lat="40.61266374835291" lon="9.74430894268298"><ele>5.333333333333333</ele><time>2026-05-04T13:38:04.001Z</time></trkpt><trkpt lat="40.61281858325963" lon="9.744197259957426"><ele>6.0</ele><time>2026-05-04T13:38:05.001Z</time></trkpt><trkpt lat="40.61297996397218" lon="9.744083768511876"><ele>6.0</ele><time>2026-05-04T13:38:06.001Z</time></trkpt><trkpt lat="40.61315101225271" lon="9.743969241405162"><ele>6.0</ele><time>2026-05-04T13:38:07.001Z</time></trkpt><trkpt lat="40.6133312257875" lon="9.743880576438517"><ele>6.0</ele><time>2026-05-04T13:38:08.001Z</time></trkpt><trkpt lat="40.6134980933915" lon="9.743845650949822"><ele>6.333333333333334</ele><time>2026-05-04T13:38:09.001Z</time></trkpt><trkpt lat="40.613658286563926" lon="9.743840578229927"><ele>6.666666666666667</ele><time>2026-05-04T13:38:10.001Z</time></trkpt><trkpt lat="40.613812462060764" lon="9.743839806332437"><ele>7.0</ele><time>2026-05-04T13:38:11.001Z</time></trkpt><trkpt lat="40.61395587640338" lon="9.743841085777062"><ele>7.0</ele><time>2026-05-04T13:38:12.001Z</time></trkpt><trkpt lat="40.61408896654979" lon="9.743836316259875"><ele>7.0</ele><time>2026-05-04T13:38:13.001Z</time></trkpt><trkpt lat="40.61421490560603" lon="9.743821692158427"><ele>7.0</ele><time>2026-05-04T13:38:14.001Z</time></trkpt><trkpt lat="40.61433263479097" lon="9.743778989986879"><ele>7.0</ele><time>2026-05-04T13:38:15.001Z</time></trkpt><trkpt lat="40.614468268656466" lon="9.743740327778145"><ele>6.333333333333334</ele><time>2026-05-04T13:38:16.001Z</time></trkpt><trkpt lat="40.614610427871035" lon="9.743689931193368"><ele>5.666666666666667</ele><time>2026-05-04T13:38:17.001Z</time></trkpt><trkpt lat="40.61475452383737" lon="9.743628649706814"><ele>5.0</ele><time>2026-05-04T13:38:18.001Z</time></trkpt><trkpt lat="40.614907093561236" lon="9.74355553170685"><ele>6.0</ele><time>2026-05-04T13:38:19.001Z</time></trkpt><trkpt lat="40.61505320009339" lon="9.743492246386534"><ele>7.0</ele><time>2026-05-04T13:38:20.001Z</time></trkpt><trkpt lat="40.6151971777604" lon="9.743428199114955"><ele>8.0</ele><time>2026-05-04T13:38:21.001Z</time></trkpt><trkpt lat="40.61533623658647" lon="9.743366807902575"><ele>8.0</ele><time>2026-05-04T13:38:22.001Z</time></trkpt><trkpt lat="40.61547707586183" lon="9.743309718098828"><ele>8.0</ele><time>2026-05-04T13:38:23.001Z</time></trkpt><trkpt lat="40.615618292037595" lon="9.7432610803792"><ele>8.0</ele><time>2026-05-04T13:38:24.001Z</time></trkpt><trkpt lat="40.61574370165137" lon="9.743209165133438"><ele>8.0</ele><time>2026-05-04T13:38:25.001Z</time></trkpt><trkpt lat="40.61586169763896" lon="9.743162564299457"><ele>8.0</ele><time>2026-05-04T13:38:26.001Z</time></trkpt><trkpt lat="40.615984322656004" lon="9.743128433914183"><ele>8.0</ele><time>2026-05-04T13:38:27.001Z</time></trkpt><trkpt lat="40.61612141831296" lon="9.743067326899324"><ele>8.0</ele><time>2026-05-04T13:38:28.001Z</time></trkpt><trkpt lat="40.616247982730016" lon="9.742979690274893"><ele>8.0</ele><time>2026-05-04T13:38:29.001Z</time></trkpt><trkpt lat="40.616367387917876" lon="9.742877736993524"><ele>8.0</ele><time>2026-05-04T13:38:30Z</time></trkpt><trkpt lat="40.61648998090998" lon="9.74275966680654"><ele>8.0</ele><time>2026-05-04T13:38:31Z</time></trkpt><trkpt lat="40.616599544066254" lon="9.7426241707198"><ele>8.0</ele><time>2026-05-04T13:38:32Z</time></trkpt><trkpt lat="40.61669501750561" lon="9.74245687112194"><ele>8.0</ele><time>2026-05-04T13:38:33Z</time></trkpt><trkpt lat="40.616776104055724" lon="9.7422805671861"><ele>8.0</ele><time>2026-05-04T13:38:34Z</time></trkpt><trkpt lat="40.61685996859941" lon="9.742064921527382"><ele>8.0</ele><time>2026-05-04T13:38:35Z</time></trkpt><trkpt lat="40.61694864904447" lon="9.741842221844202"><ele>8.666666666666666</ele><time>2026-05-04T13:38:36Z</time></trkpt><trkpt lat="40.617037829183914" lon="9.741641761970424"><ele>9.333333333333334</ele><time>2026-05-04T13:38:37Z</time></trkpt><trkpt lat="40.61713177978757" lon="9.741437095702526"><ele>10.0</ele><time>2026-05-04T13:38:38Z</time></trkpt><trkpt lat="40.61722175762125" lon="9.741229445490207"><ele>11.0</ele><time>2026-05-04T13:38:39Z</time></trkpt><trkpt lat="40.61730858872592" lon="9.741022557731885"><ele>12.0</ele><time>2026-05-04T13:38:40Z</time></trkpt><trkpt lat="40.61740545714091" lon="9.740816404440684"><ele>13.0</ele><time>2026-05-04T13:38:41Z</time></trkpt><trkpt lat="40.61751189653492" lon="9.740584284316522"><ele>13.0</ele><time>2026-05-04T13:38:42Z</time></trkpt><trkpt lat="40.61762360845964" lon="9.740340983749366"><ele>13.0</ele><time>2026-05-04T13:38:43Z</time></trkpt><trkpt lat="40.61774835110558" lon="9.740115505489177"><ele>13.0</ele><time>2026-05-04T13:38:44Z</time></trkpt><trkpt lat="40.617863017326194" lon="9.73987131008218"><ele>12.0</ele><time>2026-05-04T13:38:45Z</time></trkpt><trkpt lat="40.61798989517242" lon="9.739601108550856"><ele>11.0</ele><time>2026-05-04T13:38:46Z</time></trkpt><trkpt lat="40.61813309487017" lon="9.739295253723007"><ele>13.0</ele><time>2026-05-04T13:38:47Z</time></trkpt><trkpt lat="40.618260913996046" lon="9.73899416677282"><ele>15.0</ele><time>2026-05-04T13:38:48Z</time></trkpt><trkpt lat="40.618437402546796" lon="9.738716842089422"><ele>15.0</ele><time>2026-05-04T13:38:49Z</time></trkpt><trkpt lat="40.618563755619604" lon="9.738441452230381"><ele>15.0</ele><time>2026-05-04T13:38:50Z</time></trkpt><trkpt lat="40.61863884793881" lon="9.738131616901928"><ele>13.0</ele><time>2026-05-04T13:38:51Z</time></trkpt><trkpt lat="40.61874189458752" lon="9.73783340107365"><ele>11.0</ele><time>2026-05-04T13:38:52Z</time></trkpt><trkpt lat="40.618866386461924" lon="9.737538215542266"><ele>11.0</ele><time>2026-05-04T13:38:53Z</time></trkpt><trkpt lat="40.618959410156954" lon="9.737243870349019"><ele>11.0</ele><time>2026-05-04T13:38:54Z</time></trkpt><trkpt lat="40.61905673113812" lon="9.736965749231008"><ele>10.666666666666666</ele><time>2026-05-04T13:38:55Z</time></trkpt><trkpt lat="40.619167125207404" lon="9.7367072785542"><ele>10.333333333333334</ele><time>2026-05-04T13:38:56Z</time></trkpt><trkpt lat="40.61925793035934" lon="9.736456385098796"><ele>10.0</ele><time>2026-05-04T13:38:57Z</time></trkpt><trkpt lat="40.61935204559838" lon="9.736196345944876"><ele>9.333333333333334</ele><time>2026-05-04T13:38:58Z</time></trkpt><trkpt lat="40.619446661281266" lon="9.73593468707409"><ele>8.666666666666666</ele><time>2026-05-04T13:38:59Z</time></trkpt><trkpt lat="40.61954194884633" lon="9.735670214430808"><ele>8.0</ele><time>2026-05-04T13:39:00Z</time></trkpt><trkpt lat="40.61963960239851" lon="9.735399975988331"><ele>6.5</ele><time>2026-05-04T13:39:01Z</time></trkpt><trkpt lat="40.61973926528852" lon="9.73512605163348"><ele>5.0</ele><time>2026-05-04T13:39:02Z</time></trkpt><trkpt lat="40.61984370654066" lon="9.734838993919112"><ele>5.0</ele><time>2026-05-04T13:39:03Z</time></trkpt><trkpt lat="40.61995026238398" lon="9.734546124311366"><ele>5.0</ele><time>2026-05-04T13:39:04Z</time></trkpt><trkpt lat="40.62005848861349" lon="9.734248664301168"><ele>5.0</ele><time>2026-05-04T13:39:05Z</time></trkpt><trkpt lat="40.62016988640288" lon="9.733946025629532"><ele>5.0</ele><time>2026-05-04T13:39:06Z</time></trkpt><trkpt lat="40.620284950768486" lon="9.733630393243526"><ele>5.0</ele><time>2026-05-04T13:39:07Z</time></trkpt><trkpt lat="40.62038892871104" lon="9.733344716730507"><ele>5.0</ele><time>2026-05-04T13:39:08Z</time></trkpt><trkpt lat="40.62048156422363" lon="9.733090203291058"><ele>5.0</ele><time>2026-05-04T13:39:09Z</time></trkpt><trkpt lat="40.62055850402893" lon="9.732841953483671"><ele>5.0</ele><time>2026-05-04T13:39:10Z</time></trkpt><trkpt lat="40.62064247069535" lon="9.7326172912746"><ele>5.0</ele><time>2026-05-04T13:39:11Z</time></trkpt><trkpt lat="40.620729489588406" lon="9.73239665023361"><ele>5.0</ele><time>2026-05-04T13:39:12Z</time></trkpt><trkpt lat="40.62080899432453" lon="9.732189819191174"><ele>5.0</ele><time>2026-05-04T13:39:13Z</time></trkpt><trkpt lat="40.620892412905434" lon="9.731986898209149"><ele>5.0</ele><time>2026-05-04T13:39:14Z</time></trkpt><trkpt lat="40.62096924322381" lon="9.731811689748799"><ele>4.8</ele><time>2026-05-04T13:39:15Z</time></trkpt><trkpt lat="40.621042591779386" lon="9.73165638360737"><ele>4.6</ele><time>2026-05-04T13:39:16Z</time></trkpt><trkpt lat="40.621123795784825" lon="9.731550006717473"><ele>4.4</ele><time>2026-05-04T13:39:17Z</time></trkpt><trkpt lat="40.62121368063854" lon="9.731485197184316"><ele>4.2</ele><time>2026-05-04T13:39:18Z</time></trkpt><trkpt lat="40.62129241712899" lon="9.73142824021089"><ele>4.0</ele><time>2026-05-04T13:39:19Z</time></trkpt><trkpt lat="40.6213184267876" lon="9.731334367226658"><ele>4.0</ele><time>2026-05-04T13:39:20Z</time></trkpt><trkpt lat="40.62131185559407" lon="9.731208191947532"><ele>4.0</ele><time>2026-05-04T13:39:21Z</time></trkpt><trkpt lat="40.62131326040591" lon="9.731030602037302"><ele>4.0</ele><time>2026-05-04T13:39:22Z</time></trkpt><trkpt lat="40.62139966487429" lon="9.730866160349416"><ele>4.0</ele><time>2026-05-04T13:39:23Z</time></trkpt><trkpt lat="40.621484746947544" lon="9.73068535462297"><ele>3.6666666666666665</ele><time>2026-05-04T13:39:24Z</time></trkpt><trkpt lat="40.62159957848858" lon="9.730521030492737"><ele>3.333333333333333</ele><time>2026-05-04T13:39:25Z</time></trkpt><trkpt lat="40.62170618970398" lon="9.730365389940289"><ele>3.0</ele><time>2026-05-04T13:39:26Z</time></trkpt><trkpt lat="40.62182215984038" lon="9.730198143075448"><ele>2.6666666666666665</ele><time>2026-05-04T13:39:27Z</time></trkpt><trkpt lat="40.62195607806821" lon="9.730028454354198"><ele>2.333333333333333</ele><time>2026-05-04T13:39:28Z</time></trkpt><trkpt lat="40.62209472922709" lon="9.729861296326098"><ele>2.0</ele><time>2026-05-04T13:39:29Z</time></trkpt><trkpt lat="40.62221995911895" lon="9.729705187967815"><ele>2.0</ele><time>2026-05-04T13:39:30Z</time></trkpt><trkpt lat="40.62234299384365" lon="9.729550384344437"><ele>2.0</ele><time>2026-05-04T13:39:31Z</time></trkpt><trkpt lat="40.62246370764247" lon="9.72939711128047"><ele>2.0</ele><time>2026-05-04T13:39:32Z</time></trkpt><trkpt lat="40.622592447336054" lon="9.729234673496325"><ele>2.0</ele><time>2026-05-04T13:39:33Z</time></trkpt><trkpt lat="40.622721095730064" lon="9.729071702759585"><ele>2.0</ele><time>2026-05-04T13:39:34Z</time></trkpt><trkpt lat="40.622850373915405" lon="9.728901409584216"><ele>2.0</ele><time>2026-05-04T13:39:35Z</time></trkpt><trkpt lat="40.62298258698955" lon="9.728731142097695"><ele>1.6666666666666665</ele><time>2026-05-04T13:39:36Z</time></trkpt><trkpt lat="40.623112520530334" lon="9.728563481844569"><ele>1.3333333333333333</ele><time>2026-05-04T13:39:37Z</time></trkpt><trkpt lat="40.62324418212179" lon="9.72840427141501"><ele>1.0</ele><time>2026-05-04T13:39:38Z</time></trkpt><trkpt lat="40.62337640162274" lon="9.728242807818924"><ele>1.0</ele><time>2026-05-04T13:39:39Z</time></trkpt><trkpt lat="40.62352065556025" lon="9.72810509849877"><ele>1.0</ele><time>2026-05-04T13:39:40Z</time></trkpt><trkpt lat="40.62367186267357" lon="9.727963856050186"><ele>1.0</ele><time>2026-05-04T13:39:41.001Z</time></trkpt><trkpt lat="40.623825441232356" lon="9.727824885308234"><ele>1.0</ele><time>2026-05-04T13:39:42.001Z</time></trkpt><trkpt lat="40.623967258840004" lon="9.727672491854173"><ele>1.0</ele><time>2026-05-04T13:39:43.001Z</time></trkpt><trkpt lat="40.624121795676714" lon="9.727539315475852"><ele>1.0</ele><time>2026-05-04T13:39:44.001Z</time></trkpt><trkpt lat="40.62427163427269" lon="9.72740477055216"><ele>1.0</ele><time>2026-05-04T13:39:45.001Z</time></trkpt><trkpt lat="40.62442396993694" lon="9.72726998768153"><ele>1.0</ele><time>2026-05-04T13:39:46.001Z</time></trkpt><trkpt lat="40.624577441326075" lon="9.727145164099136"><ele>1.0</ele><time>2026-05-04T13:39:47.001Z</time></trkpt><trkpt lat="40.62472150612445" lon="9.727018086143836"><ele>2.0</ele><time>2026-05-04T13:39:48.001Z</time></trkpt><trkpt lat="40.62486442378123" lon="9.726885934143317"><ele>3.0</ele><time>2026-05-04T13:39:49.001Z</time></trkpt><trkpt lat="40.625007705137406" lon="9.726756241962052"><ele>4.0</ele><time>2026-05-04T13:39:50.001Z</time></trkpt><trkpt lat="40.62515207187168" lon="9.726631326439437"><ele>4.0</ele><time>2026-05-04T13:39:51.001Z</time></trkpt><trkpt lat="40.62529097450028" lon="9.72651333335527"><ele>4.0</ele><time>2026-05-04T13:39:52.001Z</time></trkpt><trkpt lat="40.62543634656884" lon="9.726382116077865"><ele>4.0</ele><time>2026-05-04T13:39:53.001Z</time></trkpt><trkpt lat="40.62558817814424" lon="9.726250084446026"><ele>4.0</ele><time>2026-05-04T13:39:54.001Z</time></trkpt><trkpt lat="40.62573515560926" lon="9.726121582092153"><ele>4.0</ele><time>2026-05-04T13:39:55.001Z</time></trkpt><trkpt lat="40.62588076938087" lon="9.725995566078511"><ele>4.0</ele><time>2026-05-04T13:39:56.001Z</time></trkpt><trkpt lat="40.62602885142243" lon="9.725862490527804"><ele>4.333333333333333</ele><time>2026-05-04T13:39:57.001Z</time></trkpt><trkpt lat="40.626183779977694" lon="9.72571558644969"><ele>4.666666666666667</ele><time>2026-05-04T13:39:58.001Z</time></trkpt><trkpt lat="40.62634787225827" lon="9.725582607982883"><ele>5.0</ele><time>2026-05-04T13:39:59.001Z</time></trkpt><trkpt lat="40.62650719968452" lon="9.725421414092345"><ele>5.0</ele><time>2026-05-04T13:40:00.001Z</time></trkpt><trkpt lat="40.62666240901452" lon="9.725237546860344"><ele>5.0</ele><time>2026-05-04T13:40:01.001Z</time></trkpt><trkpt lat="40.626820180608455" lon="9.72504931796839"><ele>5.0</ele><time>2026-05-04T13:40:02.001Z</time></trkpt><trkpt lat="40.62697540408302" lon="9.724864129194351"><ele>4.666666666666667</ele><time>2026-05-04T13:40:03.001Z</time></trkpt><trkpt lat="40.62712796081227" lon="9.724682121934908"><ele>4.333333333333333</ele><time>2026-05-04T13:40:04.001Z</time></trkpt><trkpt lat="40.62728031470136" lon="9.72449884228193"><ele>4.0</ele><time>2026-05-04T13:40:05.001Z</time></trkpt><trkpt lat="40.627433958238704" lon="9.724313756514704"><ele>4.0</ele><time>2026-05-04T13:40:06.001Z</time></trkpt><trkpt lat="40.627585453040616" lon="9.724129955352272"><ele>4.0</ele><time>2026-05-04T13:40:07.001Z</time></trkpt><trkpt lat="40.62773767103495" lon="9.72394204658997"><ele>4.0</ele><time>2026-05-04T13:40:08.001Z</time></trkpt><trkpt lat="40.62788848430326" lon="9.723756634024792"><ele>4.666666666666666</ele><time>2026-05-04T13:40:09.001Z</time></trkpt><trkpt lat="40.62803638644849" lon="9.723576922638248"><ele>5.333333333333333</ele><time>2026-05-04T13:40:10.001Z</time></trkpt><trkpt lat="40.628183331438365" lon="9.723398992166192"><ele>6.0</ele><time>2026-05-04T13:40:11.001Z</time></trkpt><trkpt lat="40.628325989911986" lon="9.723226359183073"><ele>6.0</ele><time>2026-05-04T13:40:12.001Z</time></trkpt><trkpt lat="40.62846602828723" lon="9.723058298826649"><ele>6.0</ele><time>2026-05-04T13:40:13.001Z</time></trkpt><trkpt lat="40.62859987457025" lon="9.722897460909609"><ele>6.0</ele><time>2026-05-04T13:40:14.001Z</time></trkpt><trkpt lat="40.62873727800581" lon="9.722731905397502"><ele>7.0</ele><time>2026-05-04T13:40:15.001Z</time></trkpt><trkpt lat="40.62887533724551" lon="9.722565559900426"><ele>8.0</ele><time>2026-05-04T13:40:16.001Z</time></trkpt><trkpt lat="40.629013318298895" lon="9.722399773201518"><ele>9.0</ele><time>2026-05-04T13:40:17.001Z</time></trkpt><trkpt lat="40.62914726069129" lon="9.722237061943144"><ele>9.0</ele><time>2026-05-04T13:40:18.001Z</time></trkpt><trkpt lat="40.62927061637037" lon="9.722058064854371"><ele>9.0</ele><time>2026-05-04T13:40:19.001Z</time></trkpt><trkpt lat="40.629399276734574" lon="9.72190332620506"><ele>9.0</ele><time>2026-05-04T13:40:20.001Z</time></trkpt><trkpt lat="40.62952597649073" lon="9.721747404464129"><ele>8.75</ele><time>2026-05-04T13:40:21.001Z</time></trkpt><trkpt lat="40.62964001005916" lon="9.721607850889072"><ele>8.5</ele><time>2026-05-04T13:40:22.001Z</time></trkpt><trkpt lat="40.62975002216103" lon="9.72150554573517"><ele>8.25</ele><time>2026-05-04T13:40:23.001Z</time></trkpt><trkpt lat="40.629825641420666" lon="9.721415389801276"><ele>8.0</ele><time>2026-05-04T13:40:24.001Z</time></trkpt><trkpt lat="40.62988105137561" lon="9.721362924211503"><ele>8.0</ele><time>2026-05-04T13:40:25.001Z</time></trkpt><trkpt lat="40.63000025000437" lon="9.72147294899128"><ele>8.0</ele><time>2026-05-04T13:40:27.001Z</time></trkpt><trkpt lat="40.630073731917925" lon="9.721589425895791"><ele>8.0</ele><time>2026-05-04T13:40:28.001Z</time></trkpt><trkpt lat="40.63015994971419" lon="9.721748871990359"><ele>8.0</ele><time>2026-05-04T13:40:29.001Z</time></trkpt><trkpt lat="40.630248588586625" lon="9.721883271917273"><ele>7.25</ele><time>2026-05-04T13:40:30.001Z</time></trkpt><trkpt lat="40.63032988428139" lon="9.721997103556776"><ele>6.5</ele><time>2026-05-04T13:40:31.001Z</time></trkpt><trkpt lat="40.630430402456" lon="9.7220688425325"><ele>5.75</ele><time>2026-05-04T13:40:32.001Z</time></trkpt><trkpt lat="40.630544292151306" lon="9.722084915301858"><ele>5.0</ele><time>2026-05-04T13:40:33.001Z</time></trkpt><trkpt lat="40.6306859288124" lon="9.722056830609704"><ele>5.0</ele><time>2026-05-04T13:40:34.001Z</time></trkpt><trkpt lat="40.63084149125523" lon="9.722016032015402"><ele>5.0</ele><time>2026-05-04T13:40:35.001Z</time></trkpt><trkpt lat="40.6309774505804" lon="9.721985756834576"><ele>5.0</ele><time>2026-05-04T13:40:35.999Z</time></trkpt><trkpt lat="40.631104714149124" lon="9.721964151703885"><ele>5.0</ele><time>2026-05-04T13:40:36.999Z</time></trkpt><trkpt lat="40.631240498285614" lon="9.721961701788034"><ele>5.0</ele><time>2026-05-04T13:40:37.999Z</time></trkpt><trkpt lat="40.631386942935826" lon="9.72198035323205"><ele>5.0</ele><time>2026-05-04T13:40:38.999Z</time></trkpt><trkpt lat="40.63152934365716" lon="9.722017829564674"><ele>5.0</ele><time>2026-05-04T13:40:39.999Z</time></trkpt><trkpt lat="40.63167455501911" lon="9.722043245499103"><ele>5.0</ele><time>2026-05-04T13:40:40.999Z</time></trkpt><trkpt lat="40.63182003197213" lon="9.72205708612753"><ele>5.0</ele><time>2026-05-04T13:40:41.999Z</time></trkpt><trkpt lat="40.63195694785291" lon="9.722067708380312"><ele>5.0</ele><time>2026-05-04T13:40:42.999Z</time></trkpt><trkpt lat="40.63208864030235" lon="9.722068395050218"><ele>5.0</ele><time>2026-05-04T13:40:43.999Z</time></trkpt><trkpt lat="40.63221605502693" lon="9.722066869515654"><ele>5.0</ele><time>2026-05-04T13:40:44.999Z</time></trkpt><trkpt lat="40.63234283264898" lon="9.722061322239473"><ele>4.75</ele><time>2026-05-04T13:40:45.999Z</time></trkpt><trkpt lat="40.63247886808387" lon="9.722056847263731"><ele>4.5</ele><time>2026-05-04T13:40:46.999Z</time></trkpt><trkpt lat="40.63259734920037" lon="9.7220579077576"><ele>4.25</ele><time>2026-05-04T13:40:47.999Z</time></trkpt><trkpt lat="40.632713351593715" lon="9.722059203218066"><ele>4.0</ele><time>2026-05-04T13:40:48.999Z</time></trkpt><trkpt lat="40.632831476348535" lon="9.722060732879491"><ele>3.25</ele><time>2026-05-04T13:40:49.999Z</time></trkpt><trkpt lat="40.632946406209726" lon="9.722067943210181"><ele>2.5</ele><time>2026-05-04T13:40:50.999Z</time></trkpt><trkpt lat="40.63306312764415" lon="9.722066100233029"><ele>1.75</ele><time>2026-05-04T13:40:51.999Z</time></trkpt><trkpt lat="40.63319561481947" lon="9.722062091174559"><ele>1.0</ele><time>2026-05-04T13:40:52.999Z</time></trkpt><trkpt lat="40.63333063583142" lon="9.722052297516758"><ele>1.0</ele><time>2026-05-04T13:40:53.999Z</time></trkpt><trkpt lat="40.63346774763833" lon="9.722056741114224"><ele>1.0</ele><time>2026-05-04T13:40:54.999Z</time></trkpt><trkpt lat="40.633610844798966" lon="9.722092420275676"><ele>1.0</ele><time>2026-05-04T13:40:56Z</time></trkpt><trkpt lat="40.63375217326665" lon="9.72214202748561"><ele>1.0</ele><time>2026-05-04T13:40:57Z</time></trkpt><trkpt lat="40.63389704443289" lon="9.72221547623557"><ele>1.0</ele><time>2026-05-04T13:40:58Z</time></trkpt><trkpt lat="40.63403567618477" lon="9.722280231790737"><ele>1.0</ele><time>2026-05-04T13:40:59Z</time></trkpt><trkpt lat="40.63417595838337" lon="9.722354268271049"><ele>1.0</ele><time>2026-05-04T13:41:00Z</time></trkpt><trkpt lat="40.63431749621376" lon="9.722431352096873"><ele>1.0</ele><time>2026-05-04T13:41:01Z</time></trkpt><trkpt lat="40.63446282396797" lon="9.722504265777724"><ele>1.0</ele><time>2026-05-04T13:41:02Z</time></trkpt><trkpt lat="40.634606429205576" lon="9.722577932555328"><ele>1.0</ele><time>2026-05-04T13:41:03Z</time></trkpt><trkpt lat="40.634754171061886" lon="9.722651153026339"><ele>1.0</ele><time>2026-05-04T13:41:04Z</time></trkpt><trkpt lat="40.634894667440996" lon="9.722727409611569"><ele>1.0</ele><time>2026-05-04T13:41:05Z</time></trkpt><trkpt lat="40.63503280831225" lon="9.72281421648703"><ele>1.0</ele><time>2026-05-04T13:41:06Z</time></trkpt><trkpt lat="40.63516334405474" lon="9.722922596779393"><ele>1.0</ele><time>2026-05-04T13:41:07Z</time></trkpt><trkpt lat="40.6352759392739" lon="9.723056722351437"><ele>1.0</ele><time>2026-05-04T13:41:08Z</time></trkpt><trkpt lat="40.63537424371797" lon="9.72321705981541"><ele>1.0</ele><time>2026-05-04T13:41:09Z</time></trkpt><trkpt lat="40.63545904247965" lon="9.723391357344758"><ele>2.3333333333333335</ele><time>2026-05-04T13:41:10Z</time></trkpt><trkpt lat="40.63554803725436" lon="9.72358448544844"><ele>3.666666666666667</ele><time>2026-05-04T13:41:11Z</time></trkpt><trkpt lat="40.635632438748615" lon="9.723777223541473"><ele>5.0</ele><time>2026-05-04T13:41:12Z</time></trkpt><trkpt lat="40.635713408299786" lon="9.723964229624375"><ele>5.0</ele><time>2026-05-04T13:41:13Z</time></trkpt><trkpt lat="40.63579336227237" lon="9.724168056225137"><ele>5.0</ele><time>2026-05-04T13:41:14Z</time></trkpt><trkpt lat="40.635869715402116" lon="9.724369931937163"><ele>5.0</ele><time>2026-05-04T13:41:15Z</time></trkpt><trkpt lat="40.63595775954204" lon="9.724568982786911"><ele>4.0</ele><time>2026-05-04T13:41:16Z</time></trkpt><trkpt lat="40.636064642103946" lon="9.724755536785088"><ele>3.0</ele><time>2026-05-04T13:41:17Z</time></trkpt><trkpt lat="40.63618501736341" lon="9.724922941061257"><ele>2.0</ele><time>2026-05-04T13:41:18Z</time></trkpt><trkpt lat="40.63633137370764" lon="9.7251039916449"><ele>2.333333333333333</ele><time>2026-05-04T13:41:19Z</time></trkpt><trkpt lat="40.63647530426623" lon="9.725302564327288"><ele>2.6666666666666665</ele><time>2026-05-04T13:41:20Z</time></trkpt><trkpt lat="40.63659797104072" lon="9.725482273587359"><ele>3.0</ele><time>2026-05-04T13:41:21Z</time></trkpt><trkpt lat="40.63670831972934" lon="9.72565384096244"><ele>3.0</ele><time>2026-05-04T13:41:22Z</time></trkpt><trkpt lat="40.63679951939748" lon="9.725827721367407"><ele>3.0</ele><time>2026-05-04T13:41:23Z</time></trkpt><trkpt lat="40.63687625645909" lon="9.726005435768293"><ele>3.0</ele><time>2026-05-04T13:41:24Z</time></trkpt><trkpt lat="40.6369259871757" lon="9.726180125396805"><ele>3.5</ele><time>2026-05-04T13:41:25Z</time></trkpt><trkpt lat="40.63698370680543" lon="9.726342137806324"><ele>4.0</ele><time>2026-05-04T13:41:26Z</time></trkpt><trkpt lat="40.63705964606214" lon="9.7264699106296"><ele>4.5</ele><time>2026-05-04T13:41:27Z</time></trkpt><trkpt lat="40.63715482596089" lon="9.726578480320208"><ele>5.0</ele><time>2026-05-04T13:41:28Z</time></trkpt><trkpt lat="40.63726473079738" lon="9.726649117328337"><ele>5.0</ele><time>2026-05-04T13:41:29Z</time></trkpt><trkpt lat="40.63738032420419" lon="9.726695521507724"><ele>5.0</ele><time>2026-05-04T13:41:30Z</time></trkpt><trkpt lat="40.63750748498741" lon="9.726704368266258"><ele>5.0</ele><time>2026-05-04T13:41:31Z</time></trkpt><trkpt lat="40.63762742487227" lon="9.726679543497742"><ele>5.0</ele><time>2026-05-04T13:41:32Z</time></trkpt><trkpt lat="40.63775094888206" lon="9.726618146677662"><ele>5.0</ele><time>2026-05-04T13:41:33Z</time></trkpt><trkpt lat="40.637877538320495" lon="9.726509054976724"><ele>5.0</ele><time>2026-05-04T13:41:34Z</time></trkpt><trkpt lat="40.63796993545729" lon="9.726376198399517"><ele>5.0</ele><time>2026-05-04T13:41:35Z</time></trkpt><trkpt lat="40.63807834210641" lon="9.726265826351487"><ele>5.0</ele><time>2026-05-04T13:41:36Z</time></trkpt><trkpt lat="40.638193429458504" lon="9.726126575184848"><ele>8.333333333333334</ele><time>2026-05-04T13:41:37Z</time></trkpt><trkpt lat="40.6383058208916" lon="9.725988695315477"><ele>11.666666666666666</ele><time>2026-05-04T13:41:38Z</time></trkpt><trkpt lat="40.63841760320522" lon="9.725849883626836"><ele>15.0</ele><time>2026-05-04T13:41:39Z</time></trkpt><trkpt lat="40.638527331108065" lon="9.725707895807405"><ele>11.666666666666666</ele><time>2026-05-04T13:41:40Z</time></trkpt><trkpt lat="40.638640153568474" lon="9.725557475223049"><ele>8.333333333333334</ele><time>2026-05-04T13:41:41Z</time></trkpt><trkpt lat="40.63875949689339" lon="9.725397761700556"><ele>5.0</ele><time>2026-05-04T13:41:42Z</time></trkpt><trkpt lat="40.63888000088039" lon="9.725227436745314"><ele>5.0</ele><time>2026-05-04T13:41:43Z</time></trkpt><trkpt lat="40.63899889015051" lon="9.725062645417536"><ele>5.0</ele><time>2026-05-04T13:41:44Z</time></trkpt><trkpt lat="40.63911904300274" lon="9.724926727345315"><ele>5.0</ele><time>2026-05-04T13:41:45Z</time></trkpt><trkpt lat="40.63925412787558" lon="9.724839271899642"><ele>5.0</ele><time>2026-05-04T13:41:46Z</time></trkpt><trkpt lat="40.63940777417476" lon="9.724775820074113"><ele>5.0</ele><time>2026-05-04T13:41:47Z</time></trkpt><trkpt lat="40.63958440754998" lon="9.724741155490527"><ele>5.0</ele><time>2026-05-04T13:41:48Z</time></trkpt><trkpt lat="40.63976459216537" lon="9.724677495930056"><ele>3.666666666666667</ele><time>2026-05-04T13:41:49.001Z</time></trkpt><trkpt lat="40.63994499528778" lon="9.724570073281178"><ele>2.3333333333333335</ele><time>2026-05-04T13:41:50.001Z</time></trkpt><trkpt lat="40.64014435099544" lon="9.72449223375878"><ele>1.0</ele><time>2026-05-04T13:41:51.001Z</time></trkpt><trkpt lat="40.640334438943164" lon="9.724383657899233"><ele>1.0</ele><time>2026-05-04T13:41:52.001Z</time></trkpt><trkpt lat="40.640532480654485" lon="9.724291473499898"><ele>1.0</ele><time>2026-05-04T13:41:53.001Z</time></trkpt><trkpt lat="40.64072821483127" lon="9.72419710251173"><ele>1.0</ele><time>2026-05-04T13:41:54.001Z</time></trkpt><trkpt lat="40.64093006431832" lon="9.724131236162712"><ele>1.0</ele><time>2026-05-04T13:41:55.001Z</time></trkpt><trkpt lat="40.64111008089312" lon="9.724034399302695"><ele>1.0</ele><time>2026-05-04T13:41:56.001Z</time></trkpt><trkpt lat="40.64128768495275" lon="9.72396788218249"><ele>1.0</ele><time>2026-05-04T13:41:57.001Z</time></trkpt><trkpt lat="40.64146174721434" lon="9.7239221738241"><ele>0.6666666666666666</ele><time>2026-05-04T13:41:58.001Z</time></trkpt><trkpt lat="40.64162501091016" lon="9.723883719890875"><ele>0.3333333333333333</ele><time>2026-05-04T13:41:59.001Z</time></trkpt><trkpt lat="40.641768814464825" lon="9.72382983614805"><ele>0.0</ele><time>2026-05-04T13:42:00.001Z</time></trkpt><trkpt lat="40.641889786459544" lon="9.723742950067289"><ele>0.0</ele><time>2026-05-04T13:42:01.001Z</time></trkpt><trkpt lat="40.641958707784" lon="9.723615967784987"><ele>0.0</ele><time>2026-05-04T13:42:02.001Z</time></trkpt><trkpt lat="40.64199557537624" lon="9.723482489226964"><ele>0.0</ele><time>2026-05-04T13:42:03.001Z</time></trkpt><trkpt lat="40.64197034787371" lon="9.723287272455027"><ele>0.0</ele><time>2026-05-04T13:42:04.001Z</time></trkpt><trkpt lat="40.64192860418358" lon="9.723100128173947"><ele>0.3333333333333333</ele><time>2026-05-04T13:42:05.001Z</time></trkpt><trkpt lat="40.64187701886881" lon="9.722882347633284"><ele>0.6666666666666666</ele><time>2026-05-04T13:42:06.001Z</time></trkpt><trkpt lat="40.641823016148614" lon="9.722658589088333"><ele>1.0</ele><time>2026-05-04T13:42:07.001Z</time></trkpt><trkpt lat="40.641769954578514" lon="9.722438730062958"><ele>1.0</ele><time>2026-05-04T13:42:08.001Z</time></trkpt><trkpt lat="40.64171553013359" lon="9.722213223707472"><ele>1.0</ele><time>2026-05-04T13:42:09.001Z</time></trkpt><trkpt lat="40.64165638973588" lon="9.721990688175543"><ele>1.0</ele><time>2026-05-04T13:42:10.001Z</time></trkpt><trkpt lat="40.64156994295591" lon="9.721793191962291"><ele>0.6666666666666666</ele><time>2026-05-04T13:42:11.001Z</time></trkpt><trkpt lat="40.64150049466429" lon="9.721583187406322"><ele>0.3333333333333333</ele><time>2026-05-04T13:42:12.001Z</time></trkpt><trkpt lat="40.641413789276385" lon="9.721372960409216"><ele>0.0</ele><time>2026-05-04T13:42:13.001Z</time></trkpt><trkpt lat="40.64132434234884" lon="9.721157698511282"><ele>0.0</ele><time>2026-05-04T13:42:14.001Z</time></trkpt><trkpt lat="40.64123142164134" lon="9.720945759114821"><ele>0.0</ele><time>2026-05-04T13:42:15.001Z</time></trkpt><trkpt lat="40.641136069148004" lon="9.720736831437875"><ele>0.0</ele><time>2026-05-04T13:42:16.001Z</time></trkpt><trkpt lat="40.64103977092" lon="9.720539074052123"><ele>0.0</ele><time>2026-05-04T13:42:17.001Z</time></trkpt><trkpt lat="40.64094232572084" lon="9.720355640183705"><ele>0.0</ele><time>2026-05-04T13:42:18.001Z</time></trkpt><trkpt lat="40.640838123394694" lon="9.720184563576336"><ele>0.0</ele><time>2026-05-04T13:42:19.001Z</time></trkpt><trkpt lat="40.64073406185074" lon="9.720018924162483"><ele>-0.3333333333333333</ele><time>2026-05-04T13:42:20.001Z</time></trkpt><trkpt lat="40.64063013304556" lon="9.719856199741141"><ele>-0.6666666666666666</ele><time>2026-05-04T13:42:21.001Z</time></trkpt><trkpt lat="40.64052684488192" lon="9.719694478457727"><ele>-1.0</ele><time>2026-05-04T13:42:22.001Z</time></trkpt><trkpt lat="40.640422063177645" lon="9.719530418634255"><ele>-0.6666666666666666</ele><time>2026-05-04T13:42:23.001Z</time></trkpt><trkpt lat="40.640327700446996" lon="9.719365593937594"><ele>-0.3333333333333333</ele><time>2026-05-04T13:42:24.001Z</time></trkpt><trkpt lat="40.640261483354955" lon="9.719178517390784"><ele>0.0</ele><time>2026-05-04T13:42:25.001Z</time></trkpt><trkpt lat="40.64021810831043" lon="9.718966315820577"><ele>0.0</ele><time>2026-05-04T13:42:26.001Z</time></trkpt><trkpt lat="40.64018342764781" lon="9.718739066595203"><ele>0.0</ele><time>2026-05-04T13:42:27.001Z</time></trkpt><trkpt lat="40.640156856906174" lon="9.718514260711565"><ele>0.0</ele><time>2026-05-04T13:42:28.001Z</time></trkpt><trkpt lat="40.64013134141091" lon="9.718279180445737"><ele>0.0</ele><time>2026-05-04T13:42:29.001Z</time></trkpt><trkpt lat="40.64010513955585" lon="9.718035640904745"><ele>0.0</ele><time>2026-05-04T13:42:30.001Z</time></trkpt><trkpt lat="40.64007370607957" lon="9.717788348942586"><ele>0.0</ele><time>2026-05-04T13:42:31.001Z</time></trkpt><trkpt lat="40.64002232939314" lon="9.717540578045298"><ele>0.0</ele><time>2026-05-04T13:42:32.001Z</time></trkpt><trkpt lat="40.63995343599289" lon="9.717297571360008"><ele>0.0</ele><time>2026-05-04T13:42:33.001Z</time></trkpt><trkpt lat="40.63988539036573" lon="9.71705859711291"><ele>0.0</ele><time>2026-05-04T13:42:34.001Z</time></trkpt><trkpt lat="40.63982647086397" lon="9.716832854633134"><ele>0.3333333333333333</ele><time>2026-05-04T13:42:35.001Z</time></trkpt><trkpt lat="40.639777740851464" lon="9.716606900088799"><ele>0.6666666666666666</ele><time>2026-05-04T13:42:36.001Z</time></trkpt><trkpt lat="40.63972107203628" lon="9.716380105710591"><ele>1.0</ele><time>2026-05-04T13:42:37.001Z</time></trkpt><trkpt lat="40.639650122187774" lon="9.716167758365808"><ele>0.6666666666666666</ele><time>2026-05-04T13:42:38.001Z</time></trkpt><trkpt lat="40.639562971945026" lon="9.715994304106935"><ele>0.3333333333333333</ele><time>2026-05-04T13:42:39.001Z</time></trkpt><trkpt lat="40.63945486333121" lon="9.715829294330664"><ele>0.0</ele><time>2026-05-04T13:42:40.001Z</time></trkpt><trkpt lat="40.63937756305433" lon="9.715686954447092"><ele>0.0</ele><time>2026-05-04T13:42:41.001Z</time></trkpt><trkpt lat="40.6393408088558" lon="9.71551747690243"><ele>0.0</ele><time>2026-05-04T13:42:41.999Z</time></trkpt><trkpt lat="40.63932587536869" lon="9.715337521233982"><ele>0.0</ele><time>2026-05-04T13:42:42.999Z</time></trkpt><trkpt lat="40.63932194144886" lon="9.715164080889554"><ele>0.0</ele><time>2026-05-04T13:42:43.999Z</time></trkpt><trkpt lat="40.6393111992882" lon="9.71498388165155"><ele>0.0</ele><time>2026-05-04T13:42:44.999Z</time></trkpt><trkpt lat="40.63930826288274" lon="9.714797991818472"><ele>0.0</ele><time>2026-05-04T13:42:45.999Z</time></trkpt><trkpt lat="40.6393206257424" lon="9.71460627394063"><ele>0.0</ele><time>2026-05-04T13:42:46.999Z</time></trkpt><trkpt lat="40.63930799640602" lon="9.714400672228678"><ele>0.0</ele><time>2026-05-04T13:42:47.999Z</time></trkpt><trkpt lat="40.63929118287709" lon="9.714210771861998"><ele>0.0</ele><time>2026-05-04T13:42:48.999Z</time></trkpt><trkpt lat="40.6392580091422" lon="9.71402230325666"><ele>0.0</ele><time>2026-05-04T13:42:49.999Z</time></trkpt><trkpt lat="40.63922096299793" lon="9.71385207271402"><ele>0.0</ele><time>2026-05-04T13:42:50.999Z</time></trkpt><trkpt lat="40.63916855924098" lon="9.71370056497392"><ele>0.0</ele><time>2026-05-04T13:42:51.999Z</time></trkpt><trkpt lat="40.6391197251421" lon="9.713559377128611"><ele>0.0</ele><time>2026-05-04T13:42:52.999Z</time></trkpt><trkpt lat="40.63907472352847" lon="9.713429606655057"><ele>0.0</ele><time>2026-05-04T13:42:53.999Z</time></trkpt><trkpt lat="40.63903134306956" lon="9.713304926811142"><ele>0.0</ele><time>2026-05-04T13:42:54.999Z</time></trkpt><trkpt lat="40.63899487087367" lon="9.713220873440847"><ele>0.0</ele><time>2026-05-04T13:42:55.999Z</time></trkpt><trkpt lat="40.63897208398622" lon="9.7131031691128"><ele>0.0</ele><time>2026-05-04T13:42:58Z</time></trkpt><trkpt lat="40.63904586171447" lon="9.712981529971549"><ele>0.0</ele><time>2026-05-04T13:43:01Z</time></trkpt><trkpt lat="40.639157866701076" lon="9.712951354380877"><ele>0.0</ele><time>2026-05-04T13:43:02Z</time></trkpt><trkpt lat="40.63933292587551" lon="9.712909920482371"><ele>0.0</ele><time>2026-05-04T13:43:03Z</time></trkpt><trkpt lat="40.63956128548569" lon="9.712839322870272"><ele>0.0</ele><time>2026-05-04T13:43:04Z</time></trkpt><trkpt lat="40.639816444044364" lon="9.712756953888768"><ele>0.0</ele><time>2026-05-04T13:43:05Z</time></trkpt><trkpt lat="40.64011620014319" lon="9.712662629717903"><ele>2.0</ele><time>2026-05-04T13:43:06Z</time></trkpt><trkpt lat="40.64041214516111" lon="9.712567783116041"><ele>4.0</ele><time>2026-05-04T13:43:07Z</time></trkpt><trkpt lat="40.640677185374294" lon="9.71248324712268"><ele>4.0</ele><time>2026-05-04T13:43:08Z</time></trkpt><trkpt lat="40.640919369240756" lon="9.712408307333872"><ele>4.0</ele><time>2026-05-04T13:43:09Z</time></trkpt><trkpt lat="40.64113886645551" lon="9.712330642251295"><ele>3.0</ele><time>2026-05-04T13:43:10Z</time></trkpt><trkpt lat="40.64134907518935" lon="9.71226512294431"><ele>2.0</ele><time>2026-05-04T13:43:11Z</time></trkpt><trkpt lat="40.64154403119559" lon="9.712200752225456"><ele>1.0</ele><time>2026-05-04T13:43:12Z</time></trkpt><trkpt lat="40.641714023945646" lon="9.712170914062877"><ele>1.0</ele><time>2026-05-04T13:43:13Z</time></trkpt><trkpt lat="40.641904930280646" lon="9.712111398787162"><ele>1.0</ele><time>2026-05-04T13:43:14Z</time></trkpt><trkpt lat="40.642158239724665" lon="9.712032429232504"><ele>0.6666666666666666</ele><time>2026-05-04T13:43:15Z</time></trkpt><trkpt lat="40.642369223184694" lon="9.711966503820305"><ele>0.3333333333333333</ele><time>2026-05-04T13:43:16Z</time></trkpt><trkpt lat="40.64256819231226" lon="9.711904204437763"><ele>0.0</ele><time>2026-05-04T13:43:17Z</time></trkpt><trkpt lat="40.642755842999144" lon="9.711845674189362"><ele>0.6666666666666666</ele><time>2026-05-04T13:43:18Z</time></trkpt><trkpt lat="40.64294098115148" lon="9.711787804243768"><ele>1.3333333333333333</ele><time>2026-05-04T13:43:19Z</time></trkpt><trkpt lat="40.64310995071695" lon="9.711714297443958"><ele>2.0</ele><time>2026-05-04T13:43:20Z</time></trkpt><trkpt lat="40.64327227751396" lon="9.711663668151086"><ele>2.0</ele><time>2026-05-04T13:43:21Z</time></trkpt><trkpt lat="40.64342338187627" lon="9.711618946295937"><ele>2.0</ele><time>2026-05-04T13:43:22Z</time></trkpt><trkpt lat="40.643563029117345" lon="9.711573779628493"><ele>2.0</ele><time>2026-05-04T13:43:23Z</time></trkpt><trkpt lat="40.64368105823658" lon="9.711534147650019"><ele>2.0</ele><time>2026-05-04T13:43:24Z</time></trkpt><trkpt lat="40.64381595634639" lon="9.711493224989736"><ele>2.333333333333333</ele><time>2026-05-04T13:43:25Z</time></trkpt><trkpt lat="40.64394984977133" lon="9.711455068756669"><ele>2.6666666666666665</ele><time>2026-05-04T13:43:26Z</time></trkpt><trkpt lat="40.64409657175319" lon="9.711415667978244"><ele>3.0</ele><time>2026-05-04T13:43:27Z</time></trkpt><trkpt lat="40.64426052783295" lon="9.71138451416099"><ele>3.0</ele><time>2026-05-04T13:43:28Z</time></trkpt><trkpt lat="40.644430315482566" lon="9.711389466797124"><ele>3.0</ele><time>2026-05-04T13:43:29Z</time></trkpt><trkpt lat="40.6445738952493" lon="9.71144399872059"><ele>3.0</ele><time>2026-05-04T13:43:30Z</time></trkpt><trkpt lat="40.64469304536638" lon="9.711535926559911"><ele>3.5</ele><time>2026-05-04T13:43:31Z</time></trkpt><trkpt lat="40.64479262909182" lon="9.711659997614174"><ele>4.0</ele><time>2026-05-04T13:43:32Z</time></trkpt><trkpt lat="40.644880866922506" lon="9.711800285754409"><ele>4.5</ele><time>2026-05-04T13:43:33Z</time></trkpt><trkpt lat="40.644973199492554" lon="9.711930146413232"><ele>5.0</ele><time>2026-05-04T13:43:34Z</time></trkpt><trkpt lat="40.64508247485614" lon="9.712054737431382"><ele>5.0</ele><time>2026-05-04T13:43:35Z</time></trkpt><trkpt lat="40.645191722901394" lon="9.712196982862004"><ele>5.0</ele><time>2026-05-04T13:43:36Z</time></trkpt><trkpt lat="40.64530785895047" lon="9.712357383557537"><ele>5.0</ele><time>2026-05-04T13:43:37Z</time></trkpt><trkpt lat="40.64542604791004" lon="9.712519084136959"><ele>4.666666666666667</ele><time>2026-05-04T13:43:38Z</time></trkpt><trkpt lat="40.645539100655135" lon="9.712670944572487"><ele>4.333333333333333</ele><time>2026-05-04T13:43:39Z</time></trkpt><trkpt lat="40.64565894646459" lon="9.712829049060106"><ele>4.0</ele><time>2026-05-04T13:43:40Z</time></trkpt><trkpt lat="40.64577626843777" lon="9.712987460713373"><ele>4.0</ele><time>2026-05-04T13:43:41Z</time></trkpt><trkpt lat="40.64589038086433" lon="9.713149469356607"><ele>4.0</ele><time>2026-05-04T13:43:42Z</time></trkpt><trkpt lat="40.646011722349094" lon="9.713317018197852"><ele>4.0</ele><time>2026-05-04T13:43:43.001Z</time></trkpt><trkpt lat="40.64613430958866" lon="9.713485676368137"><ele>4.666666666666666</ele><time>2026-05-04T13:43:44.001Z</time></trkpt><trkpt lat="40.64625595646354" lon="9.713666647115659"><ele>5.333333333333333</ele><time>2026-05-04T13:43:45.001Z</time></trkpt><trkpt lat="40.64637031085455" lon="9.713862456947812"><ele>6.0</ele><time>2026-05-04T13:43:46.001Z</time></trkpt><trkpt lat="40.64647262370575" lon="9.71406934518104"><ele>6.0</ele><time>2026-05-04T13:43:47.001Z</time></trkpt><trkpt lat="40.646565388449304" lon="9.714293365338943"><ele>6.0</ele><time>2026-05-04T13:43:48.001Z</time></trkpt><trkpt lat="40.64666404353223" lon="9.714535905730054"><ele>6.0</ele><time>2026-05-04T13:43:49.001Z</time></trkpt><trkpt lat="40.6467635964652" lon="9.71477507011244"><ele>5.333333333333333</ele><time>2026-05-04T13:43:50.001Z</time></trkpt><trkpt lat="40.64685663896076" lon="9.714991548213801"><ele>4.666666666666666</ele><time>2026-05-04T13:43:51.001Z</time></trkpt><trkpt lat="40.646945967172485" lon="9.715196555097414"><ele>4.0</ele><time>2026-05-04T13:43:52.001Z</time></trkpt><trkpt lat="40.64702995396555" lon="9.715400669714601"><ele>4.0</ele><time>2026-05-04T13:43:53.001Z</time></trkpt><trkpt lat="40.647122654121134" lon="9.715612328952156"><ele>4.0</ele><time>2026-05-04T13:43:54.001Z</time></trkpt><trkpt lat="40.647210264144285" lon="9.7158178048978"><ele>4.0</ele><time>2026-05-04T13:43:55.001Z</time></trkpt><trkpt lat="40.64729792164671" lon="9.716015879453256"><ele>3.6666666666666665</ele><time>2026-05-04T13:43:56.001Z</time></trkpt><trkpt lat="40.647380813134234" lon="9.716206546687287"><ele>3.333333333333333</ele><time>2026-05-04T13:43:57.001Z</time></trkpt><trkpt lat="40.64746750762177" lon="9.716400975798532"><ele>3.0</ele><time>2026-05-04T13:43:58.001Z</time></trkpt><trkpt lat="40.64755419274288" lon="9.71660412397291"><ele>3.0</ele><time>2026-05-04T13:43:59.001Z</time></trkpt><trkpt lat="40.64763705341861" lon="9.716806925399998"><ele>3.0</ele><time>2026-05-04T13:44:00.001Z</time></trkpt><trkpt lat="40.647710978273324" lon="9.717004377106718"><ele>3.0</ele><time>2026-05-04T13:44:01.001Z</time></trkpt><trkpt lat="40.64779299375822" lon="9.717200707510496"><ele>4.0</ele><time>2026-05-04T13:44:02.001Z</time></trkpt><trkpt lat="40.64788061194468" lon="9.717397480254332"><ele>5.0</ele><time>2026-05-04T13:44:03.001Z</time></trkpt><trkpt lat="40.647966164719776" lon="9.717597153714369"><ele>6.0</ele><time>2026-05-04T13:44:04.001Z</time></trkpt><trkpt lat="40.64805387119144" lon="9.71779710025042"><ele>6.0</ele><time>2026-05-04T13:44:05.001Z</time></trkpt><trkpt lat="40.64814323753892" lon="9.717999315239974"><ele>6.0</ele><time>2026-05-04T13:44:06.001Z</time></trkpt><trkpt lat="40.648228341958166" lon="9.718198657147662"><ele>6.0</ele><time>2026-05-04T13:44:07.001Z</time></trkpt><trkpt lat="40.648313721171384" lon="9.718400795282063"><ele>6.0</ele><time>2026-05-04T13:44:08.001Z</time></trkpt><trkpt lat="40.64839817757873" lon="9.718595971635247"><ele>6.0</ele><time>2026-05-04T13:44:09.001Z</time></trkpt><trkpt lat="40.64847627804988" lon="9.718777437779991"><ele>6.0</ele><time>2026-05-04T13:44:10.001Z</time></trkpt><trkpt lat="40.64855216086447" lon="9.718955717831243"><ele>6.0</ele><time>2026-05-04T13:44:11.001Z</time></trkpt><trkpt lat="40.6486286850865" lon="9.719129865881682"><ele>6.0</ele><time>2026-05-04T13:44:12.001Z</time></trkpt><trkpt lat="40.64871443668425" lon="9.719320269652746"><ele>6.0</ele><time>2026-05-04T13:44:13.001Z</time></trkpt><trkpt lat="40.64880625480307" lon="9.719520759819472"><ele>6.0</ele><time>2026-05-04T13:44:14.001Z</time></trkpt><trkpt lat="40.648910058775996" lon="9.71974413290945"><ele>6.0</ele><time>2026-05-04T13:44:15.001Z</time></trkpt><trkpt lat="40.649024736694855" lon="9.719982584917624"><ele>6.0</ele><time>2026-05-04T13:44:16.001Z</time></trkpt><trkpt lat="40.64914414800014" lon="9.720232548080364"><ele>4.5</ele><time>2026-05-04T13:44:17.001Z</time></trkpt><trkpt lat="40.64926780502181" lon="9.720500443403209"><ele>3.0</ele><time>2026-05-04T13:44:18.001Z</time></trkpt><trkpt lat="40.64939911149921" lon="9.720776078719563"><ele>4.5</ele><time>2026-05-04T13:44:19.001Z</time></trkpt><trkpt lat="40.64954808642319" lon="9.721082056803503"><ele>6.0</ele><time>2026-05-04T13:44:20.001Z</time></trkpt><trkpt lat="40.64970396201699" lon="9.721421283143622"><ele>6.0</ele><time>2026-05-04T13:44:21.001Z</time></trkpt><trkpt lat="40.649869577985775" lon="9.721791764397997"><ele>6.0</ele><time>2026-05-04T13:44:22.001Z</time></trkpt><trkpt lat="40.650030560349066" lon="9.722138116827383"><ele>5.5</ele><time>2026-05-04T13:44:23.001Z</time></trkpt><trkpt lat="40.65016609335211" lon="9.722453167876413"><ele>5.0</ele><time>2026-05-04T13:44:24.001Z</time></trkpt><trkpt lat="40.650285356780756" lon="9.722735104565997"><ele>5.0</ele><time>2026-05-04T13:44:25.001Z</time></trkpt><trkpt lat="40.65040972922289" lon="9.723007428214792"><ele>5.0</ele><time>2026-05-04T13:44:26.001Z</time></trkpt><trkpt lat="40.65052743639773" lon="9.723255506353892"><ele>5.0</ele><time>2026-05-04T13:44:27.001Z</time></trkpt><trkpt lat="40.650628584418236" lon="9.723476857882837"><ele>5.0</ele><time>2026-05-04T13:44:28.001Z</time></trkpt><trkpt lat="40.650717874543375" lon="9.723671619652949"><ele>5.0</ele><time>2026-05-04T13:44:29.001Z</time></trkpt><trkpt lat="40.65081202595991" lon="9.723853530238022"><ele>4.333333333333334</ele><time>2026-05-04T13:44:30.001Z</time></trkpt><trkpt lat="40.65092472142254" lon="9.724001615975634"><ele>3.666666666666667</ele><time>2026-05-04T13:44:31.001Z</time></trkpt><trkpt lat="40.65107038171711" lon="9.724132578113153"><ele>3.0</ele><time>2026-05-04T13:44:32.001Z</time></trkpt><trkpt lat="40.6512681745428" lon="9.724202473562451"><ele>2.6666666666666665</ele><time>2026-05-04T13:44:33.001Z</time></trkpt><trkpt lat="40.65146135375608" lon="9.72426188444281"><ele>2.333333333333333</ele><time>2026-05-04T13:44:34.001Z</time></trkpt><trkpt lat="40.651649094494964" lon="9.724323457843022"><ele>2.0</ele><time>2026-05-04T13:44:35.001Z</time></trkpt><trkpt lat="40.65182449772764" lon="9.724387045153593"><ele>1.3333333333333333</ele><time>2026-05-04T13:44:36.001Z</time></trkpt><trkpt lat="40.652001582246626" lon="9.724456814033527"><ele>0.6666666666666666</ele><time>2026-05-04T13:44:37.001Z</time></trkpt><trkpt lat="40.65217925036543" lon="9.724524994019138"><ele>0.0</ele><time>2026-05-04T13:44:38.001Z</time></trkpt><trkpt lat="40.65236295745508" lon="9.724594534210784"><ele>0.0</ele><time>2026-05-04T13:44:39.001Z</time></trkpt><trkpt lat="40.65255974435738" lon="9.72466801648566"><ele>0.0</ele><time>2026-05-04T13:44:40.001Z</time></trkpt><trkpt lat="40.65276337802231" lon="9.724747558700159"><ele>0.0</ele><time>2026-05-04T13:44:41.001Z</time></trkpt><trkpt lat="40.652977619842694" lon="9.724832696319067"><ele>1.5</ele><time>2026-05-04T13:44:42.001Z</time></trkpt><trkpt lat="40.65319795645752" lon="9.72491587575422"><ele>3.0</ele><time>2026-05-04T13:44:43.001Z</time></trkpt><trkpt lat="40.65341307864197" lon="9.724996372536877"><ele>3.0</ele><time>2026-05-04T13:44:44.002Z</time></trkpt><trkpt lat="40.65362898926301" lon="9.72507303139592"><ele>3.0</ele><time>2026-05-04T13:44:45.002Z</time></trkpt><trkpt lat="40.65382708408705" lon="9.72515622443908"><ele>3.0</ele><time>2026-05-04T13:44:46.002Z</time></trkpt><trkpt lat="40.654012087975175" lon="9.725259525306335"><ele>2.6666666666666665</ele><time>2026-05-04T13:44:47.002Z</time></trkpt><trkpt lat="40.65414785337614" lon="9.725440214048573"><ele>2.333333333333333</ele><time>2026-05-04T13:44:47.999Z</time></trkpt><trkpt lat="40.65428353494585" lon="9.725654321675085"><ele>2.0</ele><time>2026-05-04T13:44:48.999Z</time></trkpt><trkpt lat="40.654388718498396" lon="9.725930161758765"><ele>1.5</ele><time>2026-05-04T13:44:49.999Z</time></trkpt><trkpt lat="40.65451004544351" lon="9.726199292358281"><ele>1.0</ele><time>2026-05-04T13:44:50.999Z</time></trkpt><trkpt lat="40.65464184248877" lon="9.726462991301743"><ele>1.0</ele><time>2026-05-04T13:44:51.999Z</time></trkpt><trkpt lat="40.65477456467952" lon="9.72674103949086"><ele>1.0</ele><time>2026-05-04T13:44:52.999Z</time></trkpt><trkpt lat="40.654896555171526" lon="9.72700488331947"><ele>1.0</ele><time>2026-05-04T13:44:53.999Z</time></trkpt><trkpt lat="40.65501056972669" lon="9.727242577055211"><ele>1.0</ele><time>2026-05-04T13:44:54.999Z</time></trkpt><trkpt lat="40.65512069736955" lon="9.727467379126637"><ele>1.0</ele><time>2026-05-04T13:44:55.999Z</time></trkpt><trkpt lat="40.6552243757527" lon="9.727682202549174"><ele>1.0</ele><time>2026-05-04T13:44:56.999Z</time></trkpt><trkpt lat="40.655338404577314" lon="9.727914386195918"><ele>1.0</ele><time>2026-05-04T13:44:57.999Z</time></trkpt><trkpt lat="40.65544571935121" lon="9.728152007929245"><ele>1.0</ele><time>2026-05-04T13:44:58.999Z</time></trkpt><trkpt lat="40.65556121102794" lon="9.728398489278332"><ele>1.0</ele><time>2026-05-04T13:44:59.999Z</time></trkpt><trkpt lat="40.65567936837308" lon="9.728643104967764"><ele>1.0</ele><time>2026-05-04T13:45:01Z</time></trkpt><trkpt lat="40.65580341247446" lon="9.728894306076315"><ele>1.0</ele><time>2026-05-04T13:45:02Z</time></trkpt><trkpt lat="40.655921329288496" lon="9.729142200948456"><ele>1.0</ele><time>2026-05-04T13:45:03Z</time></trkpt><trkpt lat="40.65602529013484" lon="9.729370842366176"><ele>1.0</ele><time>2026-05-04T13:45:04Z</time></trkpt><trkpt lat="40.65613454865531" lon="9.729599009764893"><ele>1.0</ele><time>2026-05-04T13:45:05Z</time></trkpt><trkpt lat="40.65624755429674" lon="9.729830730041327"><ele>1.0</ele><time>2026-05-04T13:45:06Z</time></trkpt><trkpt lat="40.656361219592135" lon="9.73007108118886"><ele>1.0</ele><time>2026-05-04T13:45:07Z</time></trkpt><trkpt lat="40.6564813516629" lon="9.730320539265833"><ele>1.0</ele><time>2026-05-04T13:45:08Z</time></trkpt><trkpt lat="40.65660331935697" lon="9.730570705703496"><ele>1.0</ele><time>2026-05-04T13:45:09Z</time></trkpt><trkpt lat="40.65672607676182" lon="9.73082504086051"><ele>1.0</ele><time>2026-05-04T13:45:10Z</time></trkpt><trkpt lat="40.65684535925639" lon="9.731079564351207"><ele>2.5</ele><time>2026-05-04T13:45:11Z</time></trkpt><trkpt lat="40.65697048103447" lon="9.73133954316572"><ele>4.0</ele><time>2026-05-04T13:45:12Z</time></trkpt><trkpt lat="40.65709614848515" lon="9.73160332430252"><ele>4.0</ele><time>2026-05-04T13:45:13Z</time></trkpt><trkpt lat="40.65722588015863" lon="9.731870845428325"><ele>4.0</ele><time>2026-05-04T13:45:14Z</time></trkpt><trkpt lat="40.65735228514132" lon="9.732141363580542"><ele>5.0</ele><time>2026-05-04T13:45:15Z</time></trkpt><trkpt lat="40.657480131657124" lon="9.732411138641497"><ele>6.0</ele><time>2026-05-04T13:45:16Z</time></trkpt><trkpt lat="40.657610089085885" lon="9.73267573218911"><ele>5.5</ele><time>2026-05-04T13:45:17Z</time></trkpt><trkpt lat="40.65773779123602" lon="9.732945655161005"><ele>5.0</ele><time>2026-05-04T13:45:18Z</time></trkpt><trkpt lat="40.65785961812463" lon="9.733223891159986"><ele>6.5</ele><time>2026-05-04T13:45:19Z</time></trkpt><trkpt lat="40.65798273925178" lon="9.733515097832623"><ele>8.0</ele><time>2026-05-04T13:45:20Z</time></trkpt><trkpt lat="40.65809751297663" lon="9.733810299337943"><ele>8.0</ele><time>2026-05-04T13:45:21Z</time></trkpt><trkpt lat="40.658212569906276" lon="9.734111171743228"><ele>8.0</ele><time>2026-05-04T13:45:22Z</time></trkpt><trkpt lat="40.65833143356887" lon="9.734411638927726"><ele>7.5</ele><time>2026-05-04T13:45:23Z</time></trkpt><trkpt lat="40.65845394690871" lon="9.734728754652338"><ele>7.0</ele><time>2026-05-04T13:45:24Z</time></trkpt><trkpt lat="40.65857615239383" lon="9.735045210820562"><ele>9.0</ele><time>2026-05-04T13:45:25Z</time></trkpt><trkpt lat="40.65870294713072" lon="9.735368675727791"><ele>11.0</ele><time>2026-05-04T13:45:26Z</time></trkpt><trkpt lat="40.65883238854489" lon="9.735702726838838"><ele>11.0</ele><time>2026-05-04T13:45:27Z</time></trkpt><trkpt lat="40.658967072452256" lon="9.736044345010878"><ele>11.0</ele><time>2026-05-04T13:45:28Z</time></trkpt><trkpt lat="40.65910069022138" lon="9.736388989635676"><ele>11.5</ele><time>2026-05-04T13:45:29Z</time></trkpt><trkpt lat="40.65923434108872" lon="9.736726537899933"><ele>12.0</ele><time>2026-05-04T13:45:30Z</time></trkpt><trkpt lat="40.65936788320626" lon="9.73706510736189"><ele>14.5</ele><time>2026-05-04T13:45:31Z</time></trkpt><trkpt lat="40.65950287494758" lon="9.737403046646694"><ele>17.0</ele><time>2026-05-04T13:45:32Z</time></trkpt><trkpt lat="40.65963368008801" lon="9.737742300137322"><ele>17.0</ele><time>2026-05-04T13:45:33Z</time></trkpt><trkpt lat="40.6597644375445" lon="9.73807985092509"><ele>17.0</ele><time>2026-05-04T13:45:34Z</time></trkpt><trkpt lat="40.659897423884054" lon="9.738408855659317"><ele>17.5</ele><time>2026-05-04T13:45:35Z</time></trkpt><trkpt lat="40.660026019176854" lon="9.738732154730327"><ele>18.0</ele><time>2026-05-04T13:45:36Z</time></trkpt><trkpt lat="40.660147726521316" lon="9.739044783363891"><ele>18.0</ele><time>2026-05-04T13:45:37Z</time></trkpt><trkpt lat="40.6602673231973" lon="9.739353447278939"><ele>18.0</ele><time>2026-05-04T13:45:38Z</time></trkpt><trkpt lat="40.66038339433718" lon="9.739656436684555"><ele>18.5</ele><time>2026-05-04T13:45:39Z</time></trkpt><trkpt lat="40.66050267376451" lon="9.739961092621979"><ele>19.0</ele><time>2026-05-04T13:45:40Z</time></trkpt><trkpt lat="40.660615227117304" lon="9.740250264286365"><ele>19.0</ele><time>2026-05-04T13:45:41Z</time></trkpt><trkpt lat="40.660723166914806" lon="9.74052327169242"><ele>19.0</ele><time>2026-05-04T13:45:42Z</time></trkpt><trkpt lat="40.66082452659651" lon="9.740777718182514"><ele>19.0</ele><time>2026-05-04T13:45:43Z</time></trkpt><trkpt lat="40.66091859181036" lon="9.741016141091306"><ele>19.0</ele><time>2026-05-04T13:45:44Z</time></trkpt><trkpt lat="40.66103743831444" lon="9.741226676440558"><ele>19.0</ele><time>2026-05-04T13:45:45.001Z</time></trkpt><trkpt lat="40.66118854426182" lon="9.741383401082235"><ele>18.666666666666664</ele><time>2026-05-04T13:45:46.001Z</time></trkpt><trkpt lat="40.66136911827502" lon="9.741535138745482"><ele>18.333333333333332</ele><time>2026-05-04T13:45:47.001Z</time></trkpt><trkpt lat="40.66155672724451" lon="9.7416812811497"><ele>18.0</ele><time>2026-05-04T13:45:48.001Z</time></trkpt><trkpt lat="40.661739435536674" lon="9.741835851247316"><ele>17.5</ele><time>2026-05-04T13:45:49.001Z</time></trkpt><trkpt lat="40.66192334452517" lon="9.74200037276847"><ele>17.0</ele><time>2026-05-04T13:45:50.001Z</time></trkpt><trkpt lat="40.66211176999326" lon="9.742169999626492"><ele>16.0</ele><time>2026-05-04T13:45:51.001Z</time></trkpt><trkpt lat="40.66230790572866" lon="9.74233551474848"><ele>15.0</ele><time>2026-05-04T13:45:52.001Z</time></trkpt><trkpt lat="40.66250873391031" lon="9.742511890883515"><ele>15.0</ele><time>2026-05-04T13:45:53.001Z</time></trkpt><trkpt lat="40.662713641786084" lon="9.7426919918339"><ele>15.0</ele><time>2026-05-04T13:45:54.001Z</time></trkpt><trkpt lat="40.662920634247264" lon="9.742870848794187"><ele>13.0</ele><time>2026-05-04T13:45:55.001Z</time></trkpt><trkpt lat="40.66312512546992" lon="9.743046006466"><ele>11.0</ele><time>2026-05-04T13:45:56.001Z</time></trkpt><trkpt lat="40.66332109542263" lon="9.743220282706014"><ele>11.0</ele><time>2026-05-04T13:45:57.001Z</time></trkpt><trkpt lat="40.6635135060286" lon="9.743387921974604"><ele>11.0</ele><time>2026-05-04T13:45:58.001Z</time></trkpt><trkpt lat="40.663703715357016" lon="9.743546587504976"><ele>10.5</ele><time>2026-05-04T13:45:59.001Z</time></trkpt><trkpt lat="40.663896038488616" lon="9.743703700535585"><ele>10.0</ele><time>2026-05-04T13:46:00.001Z</time></trkpt><trkpt lat="40.66409019746526" lon="9.74387293037614"><ele>10.0</ele><time>2026-05-04T13:46:01.001Z</time></trkpt><trkpt lat="40.66428350386863" lon="9.744049474447829"><ele>10.0</ele><time>2026-05-04T13:46:02.001Z</time></trkpt><trkpt lat="40.66448770994519" lon="9.744224448136187"><ele>9.5</ele><time>2026-05-04T13:46:03.001Z</time></trkpt><trkpt lat="40.66470208625131" lon="9.74441457721729"><ele>9.0</ele><time>2026-05-04T13:46:04.001Z</time></trkpt><trkpt lat="40.66492170682352" lon="9.74461025650168"><ele>9.0</ele><time>2026-05-04T13:46:05.001Z</time></trkpt><trkpt lat="40.665145166419606" lon="9.74480013855402"><ele>9.0</ele><time>2026-05-04T13:46:06.001Z</time></trkpt><trkpt lat="40.66535885549897" lon="9.744989733759418"><ele>8.0</ele><time>2026-05-04T13:46:07.001Z</time></trkpt><trkpt lat="40.665570057753165" lon="9.745168834904149"><ele>7.0</ele><time>2026-05-04T13:46:08.001Z</time></trkpt><trkpt lat="40.66578478341453" lon="9.745357266351661"><ele>7.0</ele><time>2026-05-04T13:46:09.001Z</time></trkpt><trkpt lat="40.66600118109165" lon="9.74554993928043"><ele>7.0</ele><time>2026-05-04T13:46:10.001Z</time></trkpt><trkpt lat="40.66621875237059" lon="9.7457437481433"><ele>7.5</ele><time>2026-05-04T13:46:11.001Z</time></trkpt><trkpt lat="40.666435543642315" lon="9.74593557109018"><ele>8.0</ele><time>2026-05-04T13:46:12.001Z</time></trkpt><trkpt lat="40.6666488182757" lon="9.746119562461946"><ele>8.0</ele><time>2026-05-04T13:46:13.001Z</time></trkpt><trkpt lat="40.666865482062676" lon="9.746305600501927"><ele>8.0</ele><time>2026-05-04T13:46:14.001Z</time></trkpt><trkpt lat="40.6670642516688" lon="9.746469064317367"><ele>8.5</ele><time>2026-05-04T13:46:15.001Z</time></trkpt><trkpt lat="40.667264916175974" lon="9.746605577340315"><ele>9.0</ele><time>2026-05-04T13:46:16.001Z</time></trkpt><trkpt lat="40.66747644844124" lon="9.746715762446568"><ele>9.0</ele><time>2026-05-04T13:46:17.001Z</time></trkpt><trkpt lat="40.667699178168604" lon="9.746822302058819"><ele>9.0</ele><time>2026-05-04T13:46:18.001Z</time></trkpt><trkpt lat="40.667926420543786" lon="9.746940358426745"><ele>8.0</ele><time>2026-05-04T13:46:19.001Z</time></trkpt><trkpt lat="40.668144854131654" lon="9.747062226388204"><ele>7.0</ele><time>2026-05-04T13:46:20.001Z</time></trkpt><trkpt lat="40.66835518522869" lon="9.747176458377455"><ele>7.0</ele><time>2026-05-04T13:46:21.001Z</time></trkpt><trkpt lat="40.668566524366256" lon="9.747288634020734"><ele>7.0</ele><time>2026-05-04T13:46:22.001Z</time></trkpt><trkpt lat="40.66877014862384" lon="9.747401040043705"><ele>7.0</ele><time>2026-05-04T13:46:23.001Z</time></trkpt><trkpt lat="40.66897882723736" lon="9.747507285628783"><ele>6.0</ele><time>2026-05-04T13:46:24.001Z</time></trkpt><trkpt lat="40.66919189211081" lon="9.747616686961447"><ele>5.0</ele><time>2026-05-04T13:46:25.001Z</time></trkpt><trkpt lat="40.66940346488944" lon="9.747728682190616"><ele>6.0</ele><time>2026-05-04T13:46:26.001Z</time></trkpt><trkpt lat="40.66961620580265" lon="9.747840626677984"><ele>7.0</ele><time>2026-05-04T13:46:27.001Z</time></trkpt><trkpt lat="40.669823065310226" lon="9.747953670749826"><ele>7.0</ele><time>2026-05-04T13:46:28.001Z</time></trkpt><trkpt lat="40.67002612371899" lon="9.748055944066945"><ele>7.0</ele><time>2026-05-04T13:46:29.001Z</time></trkpt><trkpt lat="40.67022542901703" lon="9.748159568794927"><ele>7.0</ele><time>2026-05-04T13:46:30.001Z</time></trkpt><trkpt lat="40.67042811835971" lon="9.748269571856573"><ele>7.0</ele><time>2026-05-04T13:46:31.001Z</time></trkpt><trkpt lat="40.67063160473069" lon="9.74838133812807"><ele>7.0</ele><time>2026-05-04T13:46:32.001Z</time></trkpt><trkpt lat="40.6708405091779" lon="9.748494813038985"><ele>7.0</ele><time>2026-05-04T13:46:33.001Z</time></trkpt><trkpt lat="40.6710472145167" lon="9.748608378947328"><ele>7.666666666666667</ele><time>2026-05-04T13:46:34.001Z</time></trkpt><trkpt lat="40.671255013872745" lon="9.748716954151345"><ele>8.333333333333334</ele><time>2026-05-04T13:46:35.001Z</time></trkpt><trkpt lat="40.67146089262403" lon="9.748823295601339"><ele>9.0</ele><time>2026-05-04T13:46:36.001Z</time></trkpt><trkpt lat="40.67166716084896" lon="9.748932823153359"><ele>9.0</ele><time>2026-05-04T13:46:37.001Z</time></trkpt><trkpt lat="40.6718713343196" lon="9.749044340082728"><ele>9.0</ele><time>2026-05-04T13:46:38.001Z</time></trkpt><trkpt lat="40.67205693937678" lon="9.749145577088504"><ele>9.0</ele><time>2026-05-04T13:46:39.001Z</time></trkpt><trkpt lat="40.67223927805929" lon="9.749239772425202"><ele>9.666666666666666</ele><time>2026-05-04T13:46:40.002Z</time></trkpt><trkpt lat="40.672405751325925" lon="9.749321078133844"><ele>10.333333333333332</ele><time>2026-05-04T13:46:41.002Z</time></trkpt><trkpt lat="40.67257740421856" lon="9.749372262099872"><ele>11.0</ele><time>2026-05-04T13:46:42.002Z</time></trkpt><trkpt lat="40.67275178264485" lon="9.749353938705053"><ele>10.333333333333332</ele><time>2026-05-04T13:46:43.002Z</time></trkpt><trkpt lat="40.6729118002873" lon="9.749271870968407"><ele>9.666666666666666</ele><time>2026-05-04T13:46:44.002Z</time></trkpt><trkpt lat="40.673059914948766" lon="9.749135064974048"><ele>9.0</ele><time>2026-05-04T13:46:45.002Z</time></trkpt><trkpt lat="40.67319877738772" lon="9.748941867384366"><ele>9.0</ele><time>2026-05-04T13:46:46.002Z</time></trkpt><trkpt lat="40.6733414000033" lon="9.748728692210925"><ele>9.0</ele><time>2026-05-04T13:46:47.002Z</time></trkpt><trkpt lat="40.67349638976265" lon="9.74851056761142"><ele>9.0</ele><time>2026-05-04T13:46:48.002Z</time></trkpt><trkpt lat="40.67365604593483" lon="9.748291458714567"><ele>8.0</ele><time>2026-05-04T13:46:49.002Z</time></trkpt><trkpt lat="40.67380952278828" lon="9.748042797858428"><ele>7.0</ele><time>2026-05-04T13:46:50.002Z</time></trkpt><trkpt lat="40.673959552739426" lon="9.74779381902733"><ele>11.0</ele><time>2026-05-04T13:46:51.002Z</time></trkpt><trkpt lat="40.67411863486383" lon="9.747567164640769"><ele>15.0</ele><time>2026-05-04T13:46:52.002Z</time></trkpt><trkpt lat="40.67429294842457" lon="9.747354550386719"><ele>9.5</ele><time>2026-05-04T13:46:53.002Z</time></trkpt><trkpt lat="40.674473831772275" lon="9.747168575075433"><ele>4.0</ele><time>2026-05-04T13:46:53.999Z</time></trkpt><trkpt lat="40.67465660610557" lon="9.746988814635747"><ele>6.5</ele><time>2026-05-04T13:46:54.999Z</time></trkpt><trkpt lat="40.674828175399306" lon="9.74678550418078"><ele>9.0</ele><time>2026-05-04T13:46:55.999Z</time></trkpt><trkpt lat="40.67498092372691" lon="9.746561755706576"><ele>9.0</ele><time>2026-05-04T13:46:56.999Z</time></trkpt><trkpt lat="40.675114387738326" lon="9.74631418985306"><ele>9.0</ele><time>2026-05-04T13:46:57.999Z</time></trkpt><trkpt lat="40.67524377259437" lon="9.746070187699098"><ele>9.333333333333334</ele><time>2026-05-04T13:46:58.999Z</time></trkpt><trkpt lat="40.67538834429949" lon="9.745845287303418"><ele>9.666666666666668</ele><time>2026-05-04T13:46:59.999Z</time></trkpt><trkpt lat="40.67554349211595" lon="9.745644581183065"><ele>10.0</ele><time>2026-05-04T13:47:00.999Z</time></trkpt><trkpt lat="40.6757173707859" lon="9.745466430800324"><ele>10.0</ele><time>2026-05-04T13:47:01.999Z</time></trkpt><trkpt lat="40.67589799888682" lon="9.745303448265089"><ele>10.0</ele><time>2026-05-04T13:47:02.999Z</time></trkpt><trkpt lat="40.67608229649589" lon="9.745135153113976"><ele>10.0</ele><time>2026-05-04T13:47:03.999Z</time></trkpt><trkpt lat="40.676261576840254" lon="9.744973811153272"><ele>10.333333333333334</ele><time>2026-05-04T13:47:04.999Z</time></trkpt><trkpt lat="40.67643575670225" lon="9.744813797742442"><ele>10.666666666666666</ele><time>2026-05-04T13:47:05.999Z</time></trkpt><trkpt lat="40.67660618414831" lon="9.744653765298875"><ele>11.0</ele><time>2026-05-04T13:47:06.999Z</time></trkpt><trkpt lat="40.676758214328736" lon="9.74450192975363"><ele>11.666666666666666</ele><time>2026-05-04T13:47:07.999Z</time></trkpt><trkpt lat="40.67690190367108" lon="9.74436994066531"><ele>12.333333333333332</ele><time>2026-05-04T13:47:09Z</time></trkpt><trkpt lat="40.67703652161651" lon="9.74423990584362"><ele>13.0</ele><time>2026-05-04T13:47:10Z</time></trkpt><trkpt lat="40.67715496397906" lon="9.74411052335535"><ele>13.0</ele><time>2026-05-04T13:47:11Z</time></trkpt><trkpt lat="40.677260572382025" lon="9.743963009700405"><ele>13.0</ele><time>2026-05-04T13:47:12Z</time></trkpt><trkpt lat="40.67733140290173" lon="9.743761446994055"><ele>13.0</ele><time>2026-05-04T13:47:13Z</time></trkpt><trkpt lat="40.67737198245975" lon="9.74351926906286"><ele>14.333333333333332</ele><time>2026-05-04T13:47:14Z</time></trkpt><trkpt lat="40.677394921507165" lon="9.743249806518367"><ele>15.666666666666668</ele><time>2026-05-04T13:47:15Z</time></trkpt><trkpt lat="40.67743489014836" lon="9.74296747743954"><ele>17.0</ele><time>2026-05-04T13:47:16Z</time></trkpt><trkpt lat="40.67749619510883" lon="9.742687881838604"><ele>18.0</ele><time>2026-05-04T13:47:17Z</time></trkpt><trkpt lat="40.67755860678928" lon="9.742409748248665"><ele>19.0</ele><time>2026-05-04T13:47:18Z</time></trkpt><trkpt lat="40.67761352734506" lon="9.742130090398247"><ele>20.0</ele><time>2026-05-04T13:47:19Z</time></trkpt><trkpt lat="40.677666190133245" lon="9.741831127357532"><ele>21.0</ele><time>2026-05-04T13:47:20Z</time></trkpt><trkpt lat="40.67772401988721" lon="9.7415282977667"><ele>22.0</ele><time>2026-05-04T13:47:21Z</time></trkpt><trkpt lat="40.677808768884425" lon="9.741222002648001"><ele>22.5</ele><time>2026-05-04T13:47:22Z</time></trkpt><trkpt lat="40.67787016875461" lon="9.740904964623216"><ele>23.0</ele><time>2026-05-04T13:47:23Z</time></trkpt><trkpt lat="40.67791682139333" lon="9.74058206238954"><ele>23.0</ele><time>2026-05-04T13:47:24Z</time></trkpt><trkpt lat="40.67797593465979" lon="9.740275953289183"><ele>23.0</ele><time>2026-05-04T13:47:25Z</time></trkpt><trkpt lat="40.67803501173958" lon="9.739972732144663"><ele>23.5</ele><time>2026-05-04T13:47:26Z</time></trkpt><trkpt lat="40.67810860031936" lon="9.739678855307682"><ele>24.0</ele><time>2026-05-04T13:47:27Z</time></trkpt><trkpt lat="40.678167439780886" lon="9.73937802640332"><ele>25.5</ele><time>2026-05-04T13:47:28Z</time></trkpt><trkpt lat="40.67822658380469" lon="9.739076163361236"><ele>27.0</ele><time>2026-05-04T13:47:29Z</time></trkpt><trkpt lat="40.67828738996964" lon="9.738765688307891"><ele>27.0</ele><time>2026-05-04T13:47:30Z</time></trkpt><trkpt lat="40.67834929262023" lon="9.738449942649824"><ele>27.0</ele><time>2026-05-04T13:47:31Z</time></trkpt><trkpt lat="40.67841216451255" lon="9.738129573508685"><ele>27.0</ele><time>2026-05-04T13:47:32Z</time></trkpt><trkpt lat="40.67847477383212" lon="9.737810542341567"><ele>27.0</ele><time>2026-05-04T13:47:33Z</time></trkpt><trkpt lat="40.678537516854185" lon="9.737490829895076"><ele>27.0</ele><time>2026-05-04T13:47:34Z</time></trkpt><trkpt lat="40.67859987702527" lon="9.737173068274661"><ele>27.0</ele><time>2026-05-04T13:47:35Z</time></trkpt><trkpt lat="40.678662141095494" lon="9.736854771623571"><ele>25.0</ele><time>2026-05-04T13:47:36Z</time></trkpt><trkpt lat="40.67872160923835" lon="9.736547914608542"><ele>23.0</ele><time>2026-05-04T13:47:37Z</time></trkpt><trkpt lat="40.678780349392156" lon="9.736244814025353"><ele>25.0</ele><time>2026-05-04T13:47:38Z</time></trkpt><trkpt lat="40.67883973891708" lon="9.735938362666639"><ele>27.0</ele><time>2026-05-04T13:47:39Z</time></trkpt><trkpt lat="40.67889932562519" lon="9.73563089384176"><ele>27.0</ele><time>2026-05-04T13:47:40Z</time></trkpt><trkpt lat="40.67895859637945" lon="9.735325055342946"><ele>27.0</ele><time>2026-05-04T13:47:41Z</time></trkpt><trkpt lat="40.67901885910789" lon="9.73501687021709"><ele>28.0</ele><time>2026-05-04T13:47:42Z</time></trkpt><trkpt lat="40.67907925590324" lon="9.734710156657039"><ele>29.0</ele><time>2026-05-04T13:47:43Z</time></trkpt><trkpt lat="40.67914189320113" lon="9.734392065141671"><ele>27.5</ele><time>2026-05-04T13:47:44Z</time></trkpt><trkpt lat="40.679206680143935" lon="9.734063057058258"><ele>26.0</ele><time>2026-05-04T13:47:45.001Z</time></trkpt><trkpt lat="40.679271100930976" lon="9.733729863794549"><ele>25.5</ele><time>2026-05-04T13:47:46.001Z</time></trkpt><trkpt lat="40.67933373563389" lon="9.733399255250623"><ele>25.0</ele><time>2026-05-04T13:47:47.001Z</time></trkpt><trkpt lat="40.679393366333066" lon="9.733081328797788"><ele>24.0</ele><time>2026-05-04T13:47:48.001Z</time></trkpt><trkpt lat="40.67945334991244" lon="9.73277045999226"><ele>23.0</ele><time>2026-05-04T13:47:49.001Z</time></trkpt><trkpt lat="40.679518500006836" lon="9.732462559660743"><ele>23.0</ele><time>2026-05-04T13:47:50.001Z</time></trkpt><trkpt lat="40.67960911858339" lon="9.732167633420072"><ele>23.0</ele><time>2026-05-04T13:47:51.001Z</time></trkpt><trkpt lat="40.67971558703048" lon="9.731892478192105"><ele>24.0</ele><time>2026-05-04T13:47:52.001Z</time></trkpt><trkpt lat="40.67981626406235" lon="9.731616081818474"><ele>25.0</ele><time>2026-05-04T13:47:53.001Z</time></trkpt><trkpt lat="40.67993761394714" lon="9.731348863743964"><ele>25.0</ele><time>2026-05-04T13:47:54.001Z</time></trkpt><trkpt lat="40.680044809004556" lon="9.731085408047221"><ele>25.0</ele><time>2026-05-04T13:47:55.001Z</time></trkpt><trkpt lat="40.680151176267806" lon="9.730810559448058"><ele>24.5</ele><time>2026-05-04T13:47:56.001Z</time></trkpt><trkpt lat="40.680266766328664" lon="9.730545014029602"><ele>24.0</ele><time>2026-05-04T13:47:57.001Z</time></trkpt><trkpt lat="40.680350735008126" lon="9.730263266044007"><ele>24.333333333333336</ele><time>2026-05-04T13:47:58.001Z</time></trkpt><trkpt lat="40.68045696745825" lon="9.729996789481678"><ele>24.666666666666668</ele><time>2026-05-04T13:47:59.001Z</time></trkpt><trkpt lat="40.68054627732324" lon="9.72973783855822"><ele>25.0</ele><time>2026-05-04T13:48:00.001Z</time></trkpt><trkpt lat="40.68063060494856" lon="9.729489077984988"><ele>25.0</ele><time>2026-05-04T13:48:01.001Z</time></trkpt><trkpt lat="40.68070243077335" lon="9.729229353015914"><ele>25.0</ele><time>2026-05-04T13:48:02.001Z</time></trkpt><trkpt lat="40.68078463964641" lon="9.728984817022889"><ele>25.0</ele><time>2026-05-04T13:48:03.001Z</time></trkpt><trkpt lat="40.68086647720709" lon="9.728751124573037"><ele>26.0</ele><time>2026-05-04T13:48:04.001Z</time></trkpt><trkpt lat="40.68095691994552" lon="9.728534547937967"><ele>27.0</ele><time>2026-05-04T13:48:05.001Z</time></trkpt><trkpt lat="40.681029517661784" lon="9.728322433048417"><ele>28.0</ele><time>2026-05-04T13:48:06.001Z</time></trkpt><trkpt lat="40.6811013011998" lon="9.728112696993138"><ele>28.0</ele><time>2026-05-04T13:48:07.001Z</time></trkpt><trkpt lat="40.68116922956411" lon="9.72791422500709"><ele>28.0</ele><time>2026-05-04T13:48:08.001Z</time></trkpt><trkpt lat="40.68123539089849" lon="9.727723162062455"><ele>28.0</ele><time>2026-05-04T13:48:09.001Z</time></trkpt><trkpt lat="40.68129752017006" lon="9.727541192866818"><ele>29.0</ele><time>2026-05-04T13:48:10.001Z</time></trkpt><trkpt lat="40.68136091060976" lon="9.72735633794103"><ele>30.0</ele><time>2026-05-04T13:48:11.001Z</time></trkpt><trkpt lat="40.68142028299399" lon="9.727184146558987"><ele>31.0</ele><time>2026-05-04T13:48:12.001Z</time></trkpt><trkpt lat="40.681479469550986" lon="9.727010889889469"><ele>32.0</ele><time>2026-05-04T13:48:13.001Z</time></trkpt><trkpt lat="40.68153702728245" lon="9.72682889979906"><ele>33.0</ele><time>2026-05-04T13:48:14.001Z</time></trkpt><trkpt lat="40.6815886694913" lon="9.726637618365569"><ele>34.0</ele><time>2026-05-04T13:48:15.001Z</time></trkpt><trkpt lat="40.68162543996531" lon="9.726434990511759"><ele>35.0</ele><time>2026-05-04T13:48:16.001Z</time></trkpt><trkpt lat="40.68165587314799" lon="9.726239339952372"><ele>34.75</ele><time>2026-05-04T13:48:17.001Z</time></trkpt><trkpt lat="40.68168809370774" lon="9.726033942985634"><ele>34.5</ele><time>2026-05-04T13:48:18.001Z</time></trkpt><trkpt lat="40.68171682580119" lon="9.725853649121841"><ele>34.25</ele><time>2026-05-04T13:48:19.001Z</time></trkpt><trkpt lat="40.68174237507866" lon="9.725678835223988"><ele>34.0</ele><time>2026-05-04T13:48:20.001Z</time></trkpt><trkpt lat="40.681767673442316" lon="9.725492726263743"><ele>34.0</ele><time>2026-05-04T13:48:21.001Z</time></trkpt><trkpt lat="40.68184623349818" lon="9.725338659268987"><ele>34.0</ele><time>2026-05-04T13:48:22.001Z</time></trkpt><trkpt lat="40.68193062859663" lon="9.725173046528322"><ele>34.0</ele><time>2026-05-04T13:48:23.001Z</time></trkpt><trkpt lat="40.68202279171069" lon="9.724999236353352"><ele>33.0</ele><time>2026-05-04T13:48:24.001Z</time></trkpt><trkpt lat="40.68212007268943" lon="9.724815774414534"><ele>32.0</ele><time>2026-05-04T13:48:25.001Z</time></trkpt><trkpt lat="40.68221108567922" lon="9.72464174955866"><ele>31.0</ele><time>2026-05-04T13:48:26.001Z</time></trkpt><trkpt lat="40.68229633880108" lon="9.724478593662454"><ele>30.25</ele><time>2026-05-04T13:48:27.001Z</time></trkpt><trkpt lat="40.68237631526487" lon="9.724325525092118"><ele>29.5</ele><time>2026-05-04T13:48:28.001Z</time></trkpt><trkpt lat="40.68244325967131" lon="9.724161260225003"><ele>28.75</ele><time>2026-05-04T13:48:29.001Z</time></trkpt><trkpt lat="40.68253543656623" lon="9.723990775430778"><ele>28.0</ele><time>2026-05-04T13:48:30.001Z</time></trkpt><trkpt lat="40.682648421428766" lon="9.723765771435781"><ele>27.333333333333336</ele><time>2026-05-04T13:48:31.001Z</time></trkpt><trkpt lat="40.68277017031933" lon="9.723555918221468"><ele>26.666666666666664</ele><time>2026-05-04T13:48:32.001Z</time></trkpt><trkpt lat="40.68290479554149" lon="9.7233111843134"><ele>26.0</ele><time>2026-05-04T13:48:33.001Z</time></trkpt><trkpt lat="40.68303890209467" lon="9.723043886753873"><ele>26.0</ele><time>2026-05-04T13:48:34.002Z</time></trkpt><trkpt lat="40.683187102887764" lon="9.722794471106454"><ele>26.0</ele><time>2026-05-04T13:48:35.002Z</time></trkpt><trkpt lat="40.683365326625456" lon="9.722568219141603"><ele>25.0</ele><time>2026-05-04T13:48:36.002Z</time></trkpt><trkpt lat="40.68356711964444" lon="9.722373106179512"><ele>24.0</ele><time>2026-05-04T13:48:37.002Z</time></trkpt><trkpt lat="40.68378085893772" lon="9.722193807277836"><ele>24.0</ele><time>2026-05-04T13:48:38.002Z</time></trkpt><trkpt lat="40.684012637739364" lon="9.7220271130125"><ele>24.0</ele><time>2026-05-04T13:48:39.002Z</time></trkpt><trkpt lat="40.68427375875848" lon="9.721873841522514"><ele>20.0</ele><time>2026-05-04T13:48:40.002Z</time></trkpt><trkpt lat="40.684542810982606" lon="9.72172398087213"><ele>16.0</ele><time>2026-05-04T13:48:41.002Z</time></trkpt><trkpt lat="40.684822031861046" lon="9.72155916481915"><ele>16.0</ele><time>2026-05-04T13:48:42.002Z</time></trkpt><trkpt lat="40.68511314937421" lon="9.721391006011586"><ele>16.0</ele><time>2026-05-04T13:48:43.002Z</time></trkpt><trkpt lat="40.6853999339883" lon="9.721229006714147"><ele>14.5</ele><time>2026-05-04T13:48:44.002Z</time></trkpt><trkpt lat="40.68568720672521" lon="9.721065597185161"><ele>13.0</ele><time>2026-05-04T13:48:45.002Z</time></trkpt><trkpt lat="40.68598129526231" lon="9.720900142700124"><ele>12.0</ele><time>2026-05-04T13:48:46.002Z</time></trkpt><trkpt lat="40.68627347023751" lon="9.720735439679302"><ele>11.0</ele><time>2026-05-04T13:48:47.002Z</time></trkpt><trkpt lat="40.68656270413493" lon="9.720571540205501"><ele>11.0</ele><time>2026-05-04T13:48:48.002Z</time></trkpt><trkpt lat="40.68683832467233" lon="9.72041615219651"><ele>11.0</ele><time>2026-05-04T13:48:49.002Z</time></trkpt><trkpt lat="40.68710310635793" lon="9.72026454385377"><ele>8.5</ele><time>2026-05-04T13:48:50.002Z</time></trkpt><trkpt lat="40.68735777178869" lon="9.72012646136081"><ele>6.0</ele><time>2026-05-04T13:48:51.002Z</time></trkpt><trkpt lat="40.6876138320973" lon="9.720003390466506"><ele>5.5</ele><time>2026-05-04T13:48:52.002Z</time></trkpt><trkpt lat="40.687868430972536" lon="9.71988954838543"><ele>5.0</ele><time>2026-05-04T13:48:53.002Z</time></trkpt><trkpt lat="40.688122250530895" lon="9.719775773798936"><ele>5.0</ele><time>2026-05-04T13:48:54.002Z</time></trkpt><trkpt lat="40.68837472744984" lon="9.719658788862569"><ele>5.0</ele><time>2026-05-04T13:48:55.002Z</time></trkpt><trkpt lat="40.68861958428268" lon="9.719545210471956"><ele>5.5</ele><time>2026-05-04T13:48:56.002Z</time></trkpt><trkpt lat="40.68886337427916" lon="9.719435095497307"><ele>6.0</ele><time>2026-05-04T13:48:57.002Z</time></trkpt><trkpt lat="40.68910692823858" lon="9.719330148730384"><ele>5.0</ele><time>2026-05-04T13:48:58.002Z</time></trkpt><trkpt lat="40.68934550088352" lon="9.71922265029594"><ele>4.0</ele><time>2026-05-04T13:48:59.002Z</time></trkpt><trkpt lat="40.689568165437194" lon="9.71911902475793"><ele>4.0</ele><time>2026-05-04T13:49:00Z</time></trkpt><trkpt lat="40.68978364083793" lon="9.719016816586146"><ele>4.0</ele><time>2026-05-04T13:49:01Z</time></trkpt><trkpt lat="40.69000194361704" lon="9.71891758568967"><ele>4.0</ele><time>2026-05-04T13:49:02Z</time></trkpt><trkpt lat="40.69020604078648" lon="9.718826784867726"><ele>4.0</ele><time>2026-05-04T13:49:03Z</time></trkpt><trkpt lat="40.690394704342374" lon="9.718743309830518"><ele>4.0</ele><time>2026-05-04T13:49:04Z</time></trkpt><trkpt lat="40.690568418769665" lon="9.718660701051743"><ele>3.6666666666666665</ele><time>2026-05-04T13:49:05Z</time></trkpt><trkpt lat="40.690738321893235" lon="9.718583916290125"><ele>3.333333333333333</ele><time>2026-05-04T13:49:06Z</time></trkpt><trkpt lat="40.690907563722824" lon="9.71850795222053"><ele>3.0</ele><time>2026-05-04T13:49:07Z</time></trkpt><trkpt lat="40.69108518824755" lon="9.718430044736209"><ele>2.6666666666666665</ele><time>2026-05-04T13:49:08Z</time></trkpt><trkpt lat="40.69127044406873" lon="9.718347035645012"><ele>2.333333333333333</ele><time>2026-05-04T13:49:09Z</time></trkpt><trkpt lat="40.6914699216304" lon="9.718248556182173"><ele>2.0</ele><time>2026-05-04T13:49:10Z</time></trkpt><trkpt lat="40.69169111651648" lon="9.718136460639686"><ele>2.0</ele><time>2026-05-04T13:49:11Z</time></trkpt><trkpt lat="40.69191160711124" lon="9.718033975383982"><ele>2.0</ele><time>2026-05-04T13:49:12Z</time></trkpt><trkpt lat="40.69211433640829" lon="9.717949847630393"><ele>2.0</ele><time>2026-05-04T13:49:13Z</time></trkpt><trkpt lat="40.69230792874878" lon="9.717878000594801"><ele>2.0</ele><time>2026-05-04T13:49:14Z</time></trkpt><trkpt lat="40.692485063903554" lon="9.717801415633115"><ele>2.0</ele><time>2026-05-04T13:49:15Z</time></trkpt><trkpt lat="40.69265469194015" lon="9.717720141718905"><ele>2.0</ele><time>2026-05-04T13:49:16Z</time></trkpt><trkpt lat="40.69283936837314" lon="9.717616119094144"><ele>1.0</ele><time>2026-05-04T13:49:17Z</time></trkpt><trkpt lat="40.69305296133032" lon="9.717510864998873"><ele>0.0</ele><time>2026-05-04T13:49:18Z</time></trkpt><trkpt lat="40.69327155158744" lon="9.717433598680445"><ele>0.0</ele><time>2026-05-04T13:49:19Z</time></trkpt><trkpt lat="40.693503738468856" lon="9.71733753827026"><ele>0.0</ele><time>2026-05-04T13:49:20Z</time></trkpt><trkpt lat="40.69371354578057" lon="9.71723856630758"><ele>0.0</ele><time>2026-05-04T13:49:21Z</time></trkpt><trkpt lat="40.69390810104462" lon="9.717134445672821"><ele>0.0</ele><time>2026-05-04T13:49:22Z</time></trkpt><trkpt lat="40.69408407584943" lon="9.71699296410173"><ele>0.0</ele><time>2026-05-04T13:49:23Z</time></trkpt><trkpt lat="40.69425322793174" lon="9.716811449811027"><ele>0.0</ele><time>2026-05-04T13:49:24Z</time></trkpt><trkpt lat="40.69441299365207" lon="9.71660280451787"><ele>0.0</ele><time>2026-05-04T13:49:25Z</time></trkpt><trkpt lat="40.694569993008045" lon="9.716380389535882"><ele>-0.3333333333333333</ele><time>2026-05-04T13:49:26Z</time></trkpt><trkpt lat="40.694717725373366" lon="9.716169502600614"><ele>-0.6666666666666666</ele><time>2026-05-04T13:49:27Z</time></trkpt><trkpt lat="40.694854797286595" lon="9.716019132995596"><ele>-1.0</ele><time>2026-05-04T13:49:28Z</time></trkpt><trkpt lat="40.6949737087884" lon="9.715867370407919"><ele>-0.3333333333333333</ele><time>2026-05-04T13:49:29Z</time></trkpt><trkpt lat="40.695086942057394" lon="9.715725023592011"><ele>0.3333333333333333</ele><time>2026-05-04T13:49:30Z</time></trkpt><trkpt lat="40.695249839725015" lon="9.715700533516832"><ele>1.0</ele><time>2026-05-04T13:49:31Z</time></trkpt><trkpt lat="40.69542751469276" lon="9.715691673603615"><ele>2.0</ele><time>2026-05-04T13:49:32Z</time></trkpt><trkpt lat="40.695614100320604" lon="9.715756193621543"><ele>3.0</ele><time>2026-05-04T13:49:33Z</time></trkpt><trkpt lat="40.69580177917036" lon="9.715852952163981"><ele>4.0</ele><time>2026-05-04T13:49:34Z</time></trkpt><trkpt lat="40.69598673426532" lon="9.715943632140135"><ele>4.333333333333333</ele><time>2026-05-04T13:49:35Z</time></trkpt><trkpt lat="40.69617406726112" lon="9.716032495625981"><ele>4.666666666666667</ele><time>2026-05-04T13:49:36Z</time></trkpt><trkpt lat="40.69633944071107" lon="9.716106486189211"><ele>5.0</ele><time>2026-05-04T13:49:37Z</time></trkpt><trkpt lat="40.696491862245715" lon="9.716167328135079"><ele>5.0</ele><time>2026-05-04T13:49:38Z</time></trkpt><trkpt lat="40.69663500981041" lon="9.716212685070671"><ele>5.0</ele><time>2026-05-04T13:49:39Z</time></trkpt><trkpt lat="40.696779641960106" lon="9.716229110528886"><ele>5.0</ele><time>2026-05-04T13:49:40Z</time></trkpt><trkpt lat="40.69691911990925" lon="9.716207935995067"><ele>5.0</ele><time>2026-05-04T13:49:41Z</time></trkpt><trkpt lat="40.69706473664576" lon="9.716164131973589"><ele>5.0</ele><time>2026-05-04T13:49:42Z</time></trkpt><trkpt lat="40.69721888749419" lon="9.716083800981886"><ele>5.0</ele><time>2026-05-04T13:49:43Z</time></trkpt><trkpt lat="40.69737281988175" lon="9.715992219186168"><ele>5.0</ele><time>2026-05-04T13:49:44Z</time></trkpt><trkpt lat="40.69752188019544" lon="9.715915291598444"><ele>4.333333333333334</ele><time>2026-05-04T13:49:45Z</time></trkpt><trkpt lat="40.6976787130886" lon="9.715835142118886"><ele>3.666666666666667</ele><time>2026-05-04T13:49:46.001Z</time></trkpt><trkpt lat="40.69783495954734" lon="9.715759934310464"><ele>3.0</ele><time>2026-05-04T13:49:47.001Z</time></trkpt><trkpt lat="40.69799183068538" lon="9.715682212488252"><ele>3.0</ele><time>2026-05-04T13:49:48.001Z</time></trkpt><trkpt lat="40.69814863376563" lon="9.715604678407551"><ele>3.0</ele><time>2026-05-04T13:49:49.001Z</time></trkpt><trkpt lat="40.698313137092185" lon="9.715523728214373"><ele>3.0</ele><time>2026-05-04T13:49:50.001Z</time></trkpt><trkpt lat="40.69848148535938" lon="9.715441144041863"><ele>3.333333333333333</ele><time>2026-05-04T13:49:51.001Z</time></trkpt><trkpt lat="40.69866047194729" lon="9.715356007460144"><ele>3.6666666666666665</ele><time>2026-05-04T13:49:52.001Z</time></trkpt><trkpt lat="40.69883933464232" lon="9.715264166443507"><ele>4.0</ele><time>2026-05-04T13:49:53.001Z</time></trkpt><trkpt lat="40.699020002269776" lon="9.715169501924219"><ele>4.333333333333333</ele><time>2026-05-04T13:49:54.001Z</time></trkpt><trkpt lat="40.699197232561254" lon="9.715074845393296"><ele>4.666666666666667</ele><time>2026-05-04T13:49:55.001Z</time></trkpt><trkpt lat="40.699369367388876" lon="9.714978848604893"><ele>5.0</ele><time>2026-05-04T13:49:56.001Z</time></trkpt><trkpt lat="40.699531564830515" lon="9.714873911056811"><ele>5.0</ele><time>2026-05-04T13:49:57.001Z</time></trkpt><trkpt lat="40.69968453252818" lon="9.714725874301342"><ele>5.0</ele><time>2026-05-04T13:49:58.001Z</time></trkpt><trkpt lat="40.699823874423245" lon="9.714542130982865"><ele>5.0</ele><time>2026-05-04T13:49:59.001Z</time></trkpt><trkpt lat="40.69995374814331" lon="9.714325337258"><ele>5.0</ele><time>2026-05-04T13:50:00.001Z</time></trkpt><trkpt lat="40.7000900772603" lon="9.714125405017066"><ele>5.0</ele><time>2026-05-04T13:50:01.001Z</time></trkpt><trkpt lat="40.700205956680854" lon="9.713929356171976"><ele>5.0</ele><time>2026-05-04T13:50:02.001Z</time></trkpt><trkpt lat="40.70030958390155" lon="9.713721893841004"><ele>4.0</ele><time>2026-05-04T13:50:03.001Z</time></trkpt><trkpt lat="40.7004258851474" lon="9.713526951691954"><ele>3.0</ele><time>2026-05-04T13:50:04.001Z</time></trkpt><trkpt lat="40.70054398705946" lon="9.713327083069808"><ele>2.0</ele><time>2026-05-04T13:50:05.001Z</time></trkpt><trkpt lat="40.70066014571636" lon="9.713129236230811"><ele>2.0</ele><time>2026-05-04T13:50:06.001Z</time></trkpt><trkpt lat="40.70077977607026" lon="9.712929331830837"><ele>2.0</ele><time>2026-05-04T13:50:07.001Z</time></trkpt><trkpt lat="40.70089380583396" lon="9.712735411041534"><ele>2.0</ele><time>2026-05-04T13:50:08.001Z</time></trkpt><trkpt lat="40.701019128847406" lon="9.712555544981475"><ele>2.0</ele><time>2026-05-04T13:50:09.001Z</time></trkpt><trkpt lat="40.70113314975597" lon="9.712362240238665"><ele>2.0</ele><time>2026-05-04T13:50:10.001Z</time></trkpt><trkpt lat="40.70124586694765" lon="9.712170311799165"><ele>2.0</ele><time>2026-05-04T13:50:11.001Z</time></trkpt><trkpt lat="40.7013450711164" lon="9.711964799485916"><ele>2.333333333333333</ele><time>2026-05-04T13:50:12.001Z</time></trkpt><trkpt lat="40.701453854386564" lon="9.71177813988236"><ele>2.6666666666666665</ele><time>2026-05-04T13:50:13.001Z</time></trkpt><trkpt lat="40.70157174142849" lon="9.711603101032754"><ele>3.0</ele><time>2026-05-04T13:50:14.001Z</time></trkpt><trkpt lat="40.701655898184384" lon="9.711392460693114"><ele>3.0</ele><time>2026-05-04T13:50:15.001Z</time></trkpt><trkpt lat="40.70175019626272" lon="9.71118203414859"><ele>3.0</ele><time>2026-05-04T13:50:16.001Z</time></trkpt><trkpt lat="40.70185146509038" lon="9.710983392716662"><ele>3.0</ele><time>2026-05-04T13:50:17.001Z</time></trkpt><trkpt lat="40.701942155550825" lon="9.710770524637818"><ele>4.0</ele><time>2026-05-04T13:50:18.001Z</time></trkpt><trkpt lat="40.7020324747882" lon="9.710561065252403"><ele>5.0</ele><time>2026-05-04T13:50:19.001Z</time></trkpt><trkpt lat="40.702124890811746" lon="9.710349918213327"><ele>6.0</ele><time>2026-05-04T13:50:20.001Z</time></trkpt><trkpt lat="40.702213991690385" lon="9.71014131018653"><ele>6.0</ele><time>2026-05-04T13:50:21.001Z</time></trkpt><trkpt lat="40.70229469488302" lon="9.709953162043094"><ele>6.0</ele><time>2026-05-04T13:50:22.001Z</time></trkpt><trkpt lat="40.702371347984766" lon="9.709772296818562"><ele>6.0</ele><time>2026-05-04T13:50:23.001Z</time></trkpt><trkpt lat="40.70244469183525" lon="9.709600088904295"><ele>6.0</ele><time>2026-05-04T13:50:24.001Z</time></trkpt><trkpt lat="40.702514616454955" lon="9.70943590916703"><ele>6.0</ele><time>2026-05-04T13:50:25.001Z</time></trkpt><trkpt lat="40.70257812925873" lon="9.709272113344243"><ele>6.0</ele><time>2026-05-04T13:50:26.001Z</time></trkpt><trkpt lat="40.70263912886921" lon="9.709103797295214"><ele>6.0</ele><time>2026-05-04T13:50:27.001Z</time></trkpt><trkpt lat="40.702700891546165" lon="9.708925548328395"><ele>6.75</ele><time>2026-05-04T13:50:28.001Z</time></trkpt><trkpt lat="40.702759036986976" lon="9.70874789496295"><ele>7.5</ele><time>2026-05-04T13:50:29.001Z</time></trkpt><trkpt lat="40.702797888307806" lon="9.708575936767577"><ele>8.25</ele><time>2026-05-04T13:50:30.001Z</time></trkpt><trkpt lat="40.70285611941687" lon="9.708428126055225"><ele>9.0</ele><time>2026-05-04T13:50:31.001Z</time></trkpt><trkpt lat="40.70290248701755" lon="9.708278715530106"><ele>9.0</ele><time>2026-05-04T13:50:32.002Z</time></trkpt><trkpt lat="40.70294658243099" lon="9.708131407196381"><ele>9.0</ele><time>2026-05-04T13:50:33.002Z</time></trkpt><trkpt lat="40.70300826210098" lon="9.707987479346134"><ele>9.0</ele><time>2026-05-04T13:50:34.002Z</time></trkpt><trkpt lat="40.7030601377419" lon="9.707827168567434"><ele>9.0</ele><time>2026-05-04T13:50:35.002Z</time></trkpt><trkpt lat="40.703112471533125" lon="9.707664387346249"><ele>8.75</ele><time>2026-05-04T13:50:36.002Z</time></trkpt><trkpt lat="40.70316616977249" lon="9.70749919710336"><ele>8.5</ele><time>2026-05-04T13:50:37.002Z</time></trkpt><trkpt lat="40.70321738473415" lon="9.707342158163987"><ele>8.25</ele><time>2026-05-04T13:50:38.002Z</time></trkpt><trkpt lat="40.70326406545722" lon="9.707198855131411"><ele>8.0</ele><time>2026-05-04T13:50:39.002Z</time></trkpt><trkpt lat="40.70330313175884" lon="9.707077795433742"><ele>8.0</ele><time>2026-05-04T13:50:40.002Z</time></trkpt><trkpt lat="40.70333738676121" lon="9.70697164511636"><ele>7.999999999999999</ele><time>2026-05-04T13:50:41.002Z</time></trkpt><trkpt lat="40.70336342655121" lon="9.7068909523103"><ele>8.0</ele><time>2026-05-04T13:50:42.002Z</time></trkpt><trkpt lat="40.70339192725721" lon="9.706802633554721"><ele>8.0</ele><time>2026-05-04T13:50:43.002Z</time></trkpt><trkpt lat="40.703419217515766" lon="9.706718065780343"><ele>7.999999999999999</ele><time>2026-05-04T13:50:44.002Z</time></trkpt><trkpt lat="40.70344390150846" lon="9.706641574365182"><ele>8.0</ele><time>2026-05-04T13:50:45.002Z</time></trkpt><trkpt lat="40.70347182389184" lon="9.706555047728445"><ele>8.0</ele><time>2026-05-04T13:50:46.002Z</time></trkpt><trkpt lat="40.703501916111435" lon="9.706462345904763"><ele>7.999999999999999</ele><time>2026-05-04T13:50:47.002Z</time></trkpt><trkpt lat="40.703531279689365" lon="9.706372106607779"><ele>8.0</ele><time>2026-05-04T13:50:48.002Z</time></trkpt><trkpt lat="40.70356073650018" lon="9.706281580797066"><ele>8.0</ele><time>2026-05-04T13:50:49.002Z</time></trkpt><trkpt lat="40.70359205879946" lon="9.706185322027567"><ele>8.0</ele><time>2026-05-04T13:50:50.002Z</time></trkpt><trkpt lat="40.703622739171074" lon="9.70609103613027"><ele>7.999999999999999</ele><time>2026-05-04T13:50:51.002Z</time></trkpt><trkpt lat="40.70365110416153" lon="9.706001964680208"><ele>8.0</ele><time>2026-05-04T13:50:52.002Z</time></trkpt><trkpt lat="40.70368595025167" lon="9.705892998472795"><ele>8.4</ele><time>2026-05-04T13:50:53.002Z</time></trkpt><trkpt lat="40.70372319831828" lon="9.705776521310597"><ele>8.8</ele><time>2026-05-04T13:50:54.002Z</time></trkpt><trkpt lat="40.70376457957582" lon="9.705652916403256"><ele>9.2</ele><time>2026-05-04T13:50:55.002Z</time></trkpt><trkpt lat="40.70379703268937" lon="9.705512387667163"><ele>9.6</ele><time>2026-05-04T13:50:56.002Z</time></trkpt><trkpt lat="40.7038473338264" lon="9.705384876881109"><ele>10.0</ele><time>2026-05-04T13:50:57.002Z</time></trkpt><trkpt lat="40.70392404306993" lon="9.705254530402476"><ele>9.5</ele><time>2026-05-04T13:50:58.002Z</time></trkpt><trkpt lat="40.70400280574958" lon="9.705114446537925"><ele>9.0</ele><time>2026-05-04T13:50:59.002Z</time></trkpt><trkpt lat="40.704090363976405" lon="9.704975932890353"><ele>8.5</ele><time>2026-05-04T13:51:00.002Z</time></trkpt><trkpt lat="40.704180140891296" lon="9.704825535392306"><ele>8.0</ele><time>2026-05-04T13:51:01.002Z</time></trkpt><trkpt lat="40.704284448165005" lon="9.704680615032581"><ele>8.0</ele><time>2026-05-04T13:51:02.002Z</time></trkpt><trkpt lat="40.70438367539269" lon="9.704536579625497"><ele>8.0</ele><time>2026-05-04T13:51:03.002Z</time></trkpt><trkpt lat="40.70449008547268" lon="9.704391496968656"><ele>8.0</ele><time>2026-05-04T13:51:04.002Z</time></trkpt><trkpt lat="40.70460356444703" lon="9.704237148422312"><ele>7.666666666666666</ele><time>2026-05-04T13:51:05.002Z</time></trkpt><trkpt lat="40.704717225696946" lon="9.704086728954103"><ele>7.333333333333334</ele><time>2026-05-04T13:51:06Z</time></trkpt><trkpt lat="40.70483420868638" lon="9.703929470638187"><ele>7.0</ele><time>2026-05-04T13:51:07Z</time></trkpt><trkpt lat="40.70494760718963" lon="9.703767949813955"><ele>7.0</ele><time>2026-05-04T13:51:08Z</time></trkpt><trkpt lat="40.705058066499404" lon="9.703609213488415"><ele>7.0</ele><time>2026-05-04T13:51:09Z</time></trkpt><trkpt lat="40.70516489280423" lon="9.703450705293635"><ele>7.0</ele><time>2026-05-04T13:51:10Z</time></trkpt><trkpt lat="40.705268832531324" lon="9.70329929610145"><ele>7.0</ele><time>2026-05-04T13:51:11Z</time></trkpt><trkpt lat="40.7053733001373" lon="9.703154679855109"><ele>7.0</ele><time>2026-05-04T13:51:12Z</time></trkpt><trkpt lat="40.70547853534367" lon="9.703011588078907"><ele>7.0</ele><time>2026-05-04T13:51:13Z</time></trkpt><trkpt lat="40.70558690865339" lon="9.702865359113696"><ele>7.5</ele><time>2026-05-04T13:51:14Z</time></trkpt><trkpt lat="40.70568669710544" lon="9.702713017977485"><ele>8.0</ele><time>2026-05-04T13:51:15Z</time></trkpt><trkpt lat="40.70579765273762" lon="9.702597636877465"><ele>8.5</ele><time>2026-05-04T13:51:16Z</time></trkpt><trkpt lat="40.70588916904329" lon="9.702471611003453"><ele>9.0</ele><time>2026-05-04T13:51:17Z</time></trkpt><trkpt lat="40.705986381846465" lon="9.7023769036697"><ele>9.0</ele><time>2026-05-04T13:51:18Z</time></trkpt><trkpt lat="40.70607761008182" lon="9.7022941249182"><ele>9.0</ele><time>2026-05-04T13:51:19Z</time></trkpt><trkpt lat="40.70615489829831" lon="9.702215296680112"><ele>9.0</ele><time>2026-05-04T13:51:20Z</time></trkpt><trkpt lat="40.70621529024146" lon="9.702167403581885"><ele>9.0</ele><time>2026-05-04T13:51:21Z</time></trkpt><trkpt lat="40.706320095558176" lon="9.702076268098288"><ele>9.0</ele><time>2026-05-04T13:51:23Z</time></trkpt><trkpt lat="40.706388178663204" lon="9.702002727846573"><ele>9.0</ele><time>2026-05-04T13:51:24Z</time></trkpt><trkpt lat="40.70646277847533" lon="9.701927482058938"><ele>9.0</ele><time>2026-05-04T13:51:25Z</time></trkpt><trkpt lat="40.706547705030296" lon="9.701849902465854"><ele>9.0</ele><time>2026-05-04T13:51:26Z</time></trkpt><trkpt lat="40.70664053358823" lon="9.70175864631664"><ele>9.0</ele><time>2026-05-04T13:51:27Z</time></trkpt><trkpt lat="40.70672793243901" lon="9.701663842626136"><ele>9.0</ele><time>2026-05-04T13:51:28Z</time></trkpt><trkpt lat="40.70681782360763" lon="9.701566973692508"><ele>8.75</ele><time>2026-05-04T13:51:29Z</time></trkpt><trkpt lat="40.70691898265793" lon="9.701476566051381"><ele>8.5</ele><time>2026-05-04T13:51:30Z</time></trkpt><trkpt lat="40.70702309193932" lon="9.701380020408546"><ele>8.25</ele><time>2026-05-04T13:51:31Z</time></trkpt><trkpt lat="40.7071239130847" lon="9.701284733404533"><ele>8.0</ele><time>2026-05-04T13:51:32Z</time></trkpt><trkpt lat="40.70722001627693" lon="9.701185106976087"><ele>8.0</ele><time>2026-05-04T13:51:33Z</time></trkpt><trkpt lat="40.707319495148816" lon="9.701088051306245"><ele>8.0</ele><time>2026-05-04T13:51:34Z</time></trkpt><trkpt lat="40.707418645136805" lon="9.700995095329588"><ele>8.0</ele><time>2026-05-04T13:51:35Z</time></trkpt><trkpt lat="40.70751695131334" lon="9.700903581806886"><ele>8.0</ele><time>2026-05-04T13:51:36Z</time></trkpt><trkpt lat="40.707616828306556" lon="9.700811682505753"><ele>8.0</ele><time>2026-05-04T13:51:37Z</time></trkpt><trkpt lat="40.70771620855297" lon="9.700722138024684"><ele>8.0</ele><time>2026-05-04T13:51:38Z</time></trkpt><trkpt lat="40.70781614418635" lon="9.700636133870963"><ele>8.0</ele><time>2026-05-04T13:51:39Z</time></trkpt><trkpt lat="40.70791167416659" lon="9.700547051896876"><ele>8.0</ele><time>2026-05-04T13:51:40Z</time></trkpt><trkpt lat="40.70800251682721" lon="9.70046298052819"><ele>8.25</ele><time>2026-05-04T13:51:41Z</time></trkpt><trkpt lat="40.70809436680557" lon="9.700376990941114"><ele>8.5</ele><time>2026-05-04T13:51:42Z</time></trkpt><trkpt lat="40.70818212429323" lon="9.700289083074605"><ele>8.75</ele><time>2026-05-04T13:51:43Z</time></trkpt><trkpt lat="40.70827217536595" lon="9.700198580240015"><ele>9.0</ele><time>2026-05-04T13:51:44Z</time></trkpt><trkpt lat="40.708371033243594" lon="9.700120124353857"><ele>9.5</ele><time>2026-05-04T13:51:45.001Z</time></trkpt><trkpt lat="40.70846494103033" lon="9.700031471455492"><ele>10.0</ele><time>2026-05-04T13:51:46.001Z</time></trkpt><trkpt lat="40.708556172595394" lon="9.699937961260826"><ele>10.5</ele><time>2026-05-04T13:51:47.001Z</time></trkpt><trkpt lat="40.70864561203207" lon="9.699847102656307"><ele>11.0</ele><time>2026-05-04T13:51:48.001Z</time></trkpt><trkpt lat="40.70874025496561" lon="9.699756380060855"><ele>11.75</ele><time>2026-05-04T13:51:49.001Z</time></trkpt><trkpt lat="40.7088358702461" lon="9.699663064300527"><ele>12.5</ele><time>2026-05-04T13:51:50.001Z</time></trkpt><trkpt lat="40.70892751251287" lon="9.699570943976505"><ele>13.25</ele><time>2026-05-04T13:51:51.001Z</time></trkpt><trkpt lat="40.70901813708484" lon="9.699486137314594"><ele>14.0</ele><time>2026-05-04T13:51:52.001Z</time></trkpt><trkpt lat="40.70910905130544" lon="9.699401423922726"><ele>14.0</ele><time>2026-05-04T13:51:53.001Z</time></trkpt><trkpt lat="40.70920077829135" lon="9.699318985238204"><ele>14.0</ele><time>2026-05-04T13:51:54.001Z</time></trkpt><trkpt lat="40.70928808203796" lon="9.69922612642399"><ele>14.0</ele><time>2026-05-04T13:51:55.001Z</time></trkpt><trkpt lat="40.70939183256872" lon="9.699149494072346"><ele>14.0</ele><time>2026-05-04T13:51:56.001Z</time></trkpt><trkpt lat="40.709490758154224" lon="9.699055491729302"><ele>14.0</ele><time>2026-05-04T13:51:57.001Z</time></trkpt><trkpt lat="40.70958220200221" lon="9.698941009353335"><ele>14.0</ele><time>2026-05-04T13:51:58.001Z</time></trkpt><trkpt lat="40.709683281050346" lon="9.698841403724078"><ele>14.0</ele><time>2026-05-04T13:51:59.001Z</time></trkpt><trkpt lat="40.70978330633405" lon="9.69874892984728"><ele>14.0</ele><time>2026-05-04T13:52:00.001Z</time></trkpt><trkpt lat="40.70986952533121" lon="9.698635607822974"><ele>14.25</ele><time>2026-05-04T13:52:01.001Z</time></trkpt><trkpt lat="40.70994332408228" lon="9.698508115681186"><ele>14.5</ele><time>2026-05-04T13:52:02.001Z</time></trkpt><trkpt lat="40.71000386718278" lon="9.698371818685057"><ele>14.75</ele><time>2026-05-04T13:52:03.001Z</time></trkpt><trkpt lat="40.71005666213097" lon="9.698226272187737"><ele>15.0</ele><time>2026-05-04T13:52:04.001Z</time></trkpt><trkpt lat="40.71009186025726" lon="9.698067652641074"><ele>15.0</ele><time>2026-05-04T13:52:05.001Z</time></trkpt><trkpt lat="40.71011485466785" lon="9.697901192831521"><ele>15.0</ele><time>2026-05-04T13:52:06.001Z</time></trkpt><trkpt lat="40.71013541866782" lon="9.697737862108537"><ele>15.0</ele><time>2026-05-04T13:52:07.001Z</time></trkpt><trkpt lat="40.710166915773115" lon="9.69757219176928"><ele>15.0</ele><time>2026-05-04T13:52:08.001Z</time></trkpt><trkpt lat="40.71019697317366" lon="9.697404476866875"><ele>15.5</ele><time>2026-05-04T13:52:09.001Z</time></trkpt><trkpt lat="40.71022910955705" lon="9.697235874373801"><ele>16.0</ele><time>2026-05-04T13:52:10.001Z</time></trkpt><trkpt lat="40.71025772403813" lon="9.697066056391794"><ele>16.5</ele><time>2026-05-04T13:52:11.001Z</time></trkpt><trkpt lat="40.710280768309296" lon="9.696894340811584"><ele>17.0</ele><time>2026-05-04T13:52:12.001Z</time></trkpt><trkpt lat="40.71031455816482" lon="9.696719192312536"><ele>15.75</ele><time>2026-05-04T13:52:13.001Z</time></trkpt><trkpt lat="40.71034715337431" lon="9.696539911240471"><ele>14.5</ele><time>2026-05-04T13:52:14.001Z</time></trkpt><trkpt lat="40.71037516830239" lon="9.696351769817264"><ele>13.25</ele><time>2026-05-04T13:52:15.001Z</time></trkpt><trkpt lat="40.71040715345247" lon="9.696164689675893"><ele>12.0</ele><time>2026-05-04T13:52:16.001Z</time></trkpt><trkpt lat="40.710445792003036" lon="9.69597793631935"><ele>12.0</ele><time>2026-05-04T13:52:17.001Z</time></trkpt><trkpt lat="40.710477979752135" lon="9.695791304426141"><ele>12.0</ele><time>2026-05-04T13:52:18.001Z</time></trkpt><trkpt lat="40.71050772862273" lon="9.695600304560536"><ele>12.0</ele><time>2026-05-04T13:52:19.001Z</time></trkpt><trkpt lat="40.71054032274261" lon="9.695414259796326"><ele>12.0</ele><time>2026-05-04T13:52:20.001Z</time></trkpt><trkpt lat="40.71057523386599" lon="9.695220942303004"><ele>11.75</ele><time>2026-05-04T13:52:21.001Z</time></trkpt><trkpt lat="40.710610944026506" lon="9.695040690342768"><ele>11.5</ele><time>2026-05-04T13:52:22.001Z</time></trkpt><trkpt lat="40.710643482326375" lon="9.694853612987302"><ele>11.25</ele><time>2026-05-04T13:52:23.001Z</time></trkpt><trkpt lat="40.71067188968976" lon="9.694657939021415"><ele>11.0</ele><time>2026-05-04T13:52:24.001Z</time></trkpt><trkpt lat="40.71070314270197" lon="9.694457545355858"><ele>11.333333333333332</ele><time>2026-05-04T13:52:25.001Z</time></trkpt><trkpt lat="40.71073846088144" lon="9.694258997962168"><ele>11.666666666666666</ele><time>2026-05-04T13:52:26.001Z</time></trkpt><trkpt lat="40.710772968809515" lon="9.69405685756745"><ele>12.0</ele><time>2026-05-04T13:52:27.001Z</time></trkpt><trkpt lat="40.71080671304554" lon="9.693850608049326"><ele>12.0</ele><time>2026-05-04T13:52:28.001Z</time></trkpt><trkpt lat="40.7108416912687" lon="9.69366374677654"><ele>12.0</ele><time>2026-05-04T13:52:29.002Z</time></trkpt><trkpt lat="40.71087051019059" lon="9.693481540822102"><ele>12.0</ele><time>2026-05-04T13:52:30.002Z</time></trkpt><trkpt lat="40.71089567126774" lon="9.693305653133397"><ele>12.0</ele><time>2026-05-04T13:52:31.002Z</time></trkpt><trkpt lat="40.710922483515496" lon="9.693119751953558"><ele>12.0</ele><time>2026-05-04T13:52:32.002Z</time></trkpt><trkpt lat="40.7109546712336" lon="9.692929147828277"><ele>12.0</ele><time>2026-05-04T13:52:33.002Z</time></trkpt><trkpt lat="40.71099929231511" lon="9.692750155462033"><ele>12.0</ele><time>2026-05-04T13:52:34.002Z</time></trkpt><trkpt lat="40.71101525789341" lon="9.692569210410387"><ele>12.0</ele><time>2026-05-04T13:52:35.002Z</time></trkpt><trkpt lat="40.71105062823718" lon="9.692394061801439"><ele>12.25</ele><time>2026-05-04T13:52:36.002Z</time></trkpt><trkpt lat="40.71107792817458" lon="9.69222637755085"><ele>12.5</ele><time>2026-05-04T13:52:37.002Z</time></trkpt><trkpt lat="40.711100476553156" lon="9.692071917398938"><ele>12.75</ele><time>2026-05-04T13:52:38.002Z</time></trkpt><trkpt lat="40.71112970463685" lon="9.691929424533045"><ele>13.0</ele><time>2026-05-04T13:52:39.002Z</time></trkpt><trkpt lat="40.71114897380037" lon="9.69178099427418"><ele>13.0</ele><time>2026-05-04T13:52:40.002Z</time></trkpt><trkpt lat="40.71117575850426" lon="9.69163044825639"><ele>13.0</ele><time>2026-05-04T13:52:41.002Z</time></trkpt><trkpt lat="40.71120342956692" lon="9.691489132157693"><ele>13.0</ele><time>2026-05-04T13:52:42.002Z</time></trkpt><trkpt lat="40.711234496643556" lon="9.691359676597596"><ele>13.0</ele><time>2026-05-04T13:52:43.002Z</time></trkpt><trkpt lat="40.71126180507201" lon="9.69123248174149"><ele>13.0</ele><time>2026-05-04T13:52:44.002Z</time></trkpt><trkpt lat="40.71129927724926" lon="9.69114093187818"><ele>13.166666666666666</ele><time>2026-05-04T13:52:45.002Z</time></trkpt><trkpt lat="40.71135264599004" lon="9.691073367441758"><ele>13.333333333333332</ele><time>2026-05-04T13:52:46.002Z</time></trkpt><trkpt lat="40.711412607617696" lon="9.691021169398203"><ele>13.5</ele><time>2026-05-04T13:52:47.002Z</time></trkpt><trkpt lat="40.71147019166569" lon="9.690984946089152"><ele>13.666666666666668</ele><time>2026-05-04T13:52:48.002Z</time></trkpt><trkpt lat="40.71153946153875" lon="9.690940055831495"><ele>13.833333333333334</ele><time>2026-05-04T13:52:49.002Z</time></trkpt><trkpt lat="40.71163019964615" lon="9.690893451820434"><ele>14.0</ele><time>2026-05-04T13:52:50.002Z</time></trkpt><trkpt lat="40.71172520572957" lon="9.690858983430507"><ele>14.0</ele><time>2026-05-04T13:52:51.002Z</time></trkpt><trkpt lat="40.711820116054916" lon="9.690836501300728"><ele>14.0</ele><time>2026-05-04T13:52:52.002Z</time></trkpt><trkpt lat="40.71190194123241" lon="9.690842183150158"><ele>14.0</ele><time>2026-05-04T13:52:53.002Z</time></trkpt><trkpt lat="40.71197311350286" lon="9.69086258209371"><ele>14.0</ele><time>2026-05-04T13:52:54.002Z</time></trkpt><trkpt lat="40.71203073342408" lon="9.690905567603734"><ele>14.0</ele><time>2026-05-04T13:52:55.002Z</time></trkpt><trkpt lat="40.71208851980081" lon="9.690943084592984"><ele>14.0</ele><time>2026-05-04T13:52:56.002Z</time></trkpt><trkpt lat="40.71215231038634" lon="9.690933248380757"><ele>14.0</ele><time>2026-05-04T13:52:57.002Z</time></trkpt><trkpt lat="40.712209119625214" lon="9.690878467540763"><ele>14.6</ele><time>2026-05-04T13:52:58.002Z</time></trkpt><trkpt lat="40.7122543531994" lon="9.690779186393819"><ele>15.2</ele><time>2026-05-04T13:52:59.002Z</time></trkpt><trkpt lat="40.71228331269765" lon="9.69064332683527"><ele>15.799999999999999</ele><time>2026-05-04T13:53:00.002Z</time></trkpt><trkpt lat="40.712302884226666" lon="9.690481928019489"><ele>16.4</ele><time>2026-05-04T13:53:01.002Z</time></trkpt><trkpt lat="40.712356739618194" lon="9.69032480916068"><ele>17.0</ele><time>2026-05-04T13:53:02.002Z</time></trkpt><trkpt lat="40.71239465069491" lon="9.690151895072928"><ele>17.333333333333336</ele><time>2026-05-04T13:53:03.002Z</time></trkpt><trkpt lat="40.7124238623561" lon="9.689966131202523"><ele>17.666666666666668</ele><time>2026-05-04T13:53:04.002Z</time></trkpt><trkpt lat="40.71244209533169" lon="9.689753475595454"><ele>18.0</ele><time>2026-05-04T13:53:05.002Z</time></trkpt><trkpt lat="40.71247084900511" lon="9.68952070280625"><ele>18.0</ele><time>2026-05-04T13:53:06.002Z</time></trkpt><trkpt lat="40.71250321944817" lon="9.68926544333932"><ele>18.0</ele><time>2026-05-04T13:53:07.002Z</time></trkpt><trkpt lat="40.71253761138597" lon="9.689012048962931"><ele>18.0</ele><time>2026-05-04T13:53:08.002Z</time></trkpt><trkpt lat="40.712572004025056" lon="9.688762798329337"><ele>18.333333333333332</ele><time>2026-05-04T13:53:09.002Z</time></trkpt><trkpt lat="40.71265162197649" lon="9.688556678641723"><ele>18.666666666666664</ele><time>2026-05-04T13:53:10.002Z</time></trkpt><trkpt lat="40.7127679118465" lon="9.688362290550351"><ele>19.0</ele><time>2026-05-04T13:53:11.002Z</time></trkpt><trkpt lat="40.7129002286902" lon="9.688131431364253"><ele>19.0</ele><time>2026-05-04T13:53:12Z</time></trkpt><trkpt lat="40.71305301892367" lon="9.687923167130567"><ele>19.0</ele><time>2026-05-04T13:53:13Z</time></trkpt><trkpt lat="40.71319877206832" lon="9.687706950215873"><ele>19.0</ele><time>2026-05-04T13:53:14Z</time></trkpt><trkpt lat="40.71334736193771" lon="9.687481175782576"><ele>18.5</ele><time>2026-05-04T13:53:15Z</time></trkpt><trkpt lat="40.71349852274013" lon="9.687249670587496"><ele>18.0</ele><time>2026-05-04T13:53:16Z</time></trkpt><trkpt lat="40.71365078095386" lon="9.687016116436972"><ele>20.0</ele><time>2026-05-04T13:53:17Z</time></trkpt><trkpt lat="40.71380935699024" lon="9.686774707250652"><ele>22.0</ele><time>2026-05-04T13:53:18Z</time></trkpt><trkpt lat="40.71396990181495" lon="9.686534518728367"><ele>22.0</ele><time>2026-05-04T13:53:19Z</time></trkpt><trkpt lat="40.71412781023529" lon="9.686293830791007"><ele>22.0</ele><time>2026-05-04T13:53:20Z</time></trkpt><trkpt lat="40.7142851064769" lon="9.686056255470751"><ele>22.0</ele><time>2026-05-04T13:53:21Z</time></trkpt><trkpt lat="40.714442195908845" lon="9.685823648685925"><ele>22.0</ele><time>2026-05-04T13:53:22Z</time></trkpt><trkpt lat="40.714590013662345" lon="9.685604783471184"><ele>22.0</ele><time>2026-05-04T13:53:23Z</time></trkpt><trkpt lat="40.71473242182949" lon="9.685388806588321"><ele>22.0</ele><time>2026-05-04T13:53:24Z</time></trkpt><trkpt lat="40.71487138156769" lon="9.68518263421474"><ele>22.0</ele><time>2026-05-04T13:53:25Z</time></trkpt><trkpt lat="40.715008449267586" lon="9.684985099573156"><ele>22.666666666666664</ele><time>2026-05-04T13:53:26Z</time></trkpt><trkpt lat="40.715140172844066" lon="9.68478880266662"><ele>23.333333333333332</ele><time>2026-05-04T13:53:27Z</time></trkpt><trkpt lat="40.715271878779184" lon="9.684588698422903"><ele>24.0</ele><time>2026-05-04T13:53:28Z</time></trkpt><trkpt lat="40.71540582836332" lon="9.684383040181295"><ele>24.333333333333336</ele><time>2026-05-04T13:53:29Z</time></trkpt><trkpt lat="40.71554574722609" lon="9.684172261804493"><ele>24.666666666666668</ele><time>2026-05-04T13:53:30Z</time></trkpt><trkpt lat="40.71568507326558" lon="9.683959120948453"><ele>25.0</ele><time>2026-05-04T13:53:31Z</time></trkpt><trkpt lat="40.71582783161768" lon="9.683751836837708"><ele>25.333333333333336</ele><time>2026-05-04T13:53:32Z</time></trkpt><trkpt lat="40.71597000974275" lon="9.683545097788205"><ele>25.666666666666664</ele><time>2026-05-04T13:53:33Z</time></trkpt><trkpt lat="40.71611089889067" lon="9.683332721445886"><ele>26.0</ele><time>2026-05-04T13:53:34Z</time></trkpt><trkpt lat="40.71624741615994" lon="9.683123053113315"><ele>26.666666666666664</ele><time>2026-05-04T13:53:35Z</time></trkpt><trkpt lat="40.7163723643313" lon="9.682903445784618"><ele>27.333333333333336</ele><time>2026-05-04T13:53:36Z</time></trkpt><trkpt lat="40.71648029561505" lon="9.68269653407584"><ele>28.0</ele><time>2026-05-04T13:53:37Z</time></trkpt><trkpt lat="40.716592066870305" lon="9.682510260311613"><ele>28.0</ele><time>2026-05-04T13:53:38Z</time></trkpt><trkpt lat="40.71666276905473" lon="9.682303214054478"><ele>28.0</ele><time>2026-05-04T13:53:39Z</time></trkpt><trkpt lat="40.716749108093616" lon="9.682150214729456"><ele>28.0</ele><time>2026-05-04T13:53:40Z</time></trkpt><trkpt lat="40.716840600272846" lon="9.682048421178362"><ele>28.0</ele><time>2026-05-04T13:53:41Z</time></trkpt><trkpt lat="40.716935330536934" lon="9.68196484828146"><ele>28.5</ele><time>2026-05-04T13:53:42Z</time></trkpt><trkpt lat="40.7169934418994" lon="9.681831418735898"><ele>29.0</ele><time>2026-05-04T13:53:43Z</time></trkpt><trkpt lat="40.717013231844085" lon="9.68163865148175"><ele>29.5</ele><time>2026-05-04T13:53:44Z</time></trkpt><trkpt lat="40.71702203876833" lon="9.681394687552105"><ele>30.0</ele><time>2026-05-04T13:53:45Z</time></trkpt><trkpt lat="40.71707261970111" lon="9.68114805130922"><ele>29.666666666666664</ele><time>2026-05-04T13:53:46.001Z</time></trkpt><trkpt lat="40.71719960876004" lon="9.680910804334927"><ele>29.333333333333332</ele><time>2026-05-04T13:53:47.001Z</time></trkpt><trkpt lat="40.717288100575715" lon="9.680644357811557"><ele>29.0</ele><time>2026-05-04T13:53:48.001Z</time></trkpt><trkpt lat="40.717363268367464" lon="9.680404555568428"><ele>29.0</ele><time>2026-05-04T13:53:49.001Z</time></trkpt><trkpt lat="40.71742088268096" lon="9.680181506417048"><ele>29.0</ele><time>2026-05-04T13:53:50.001Z</time></trkpt><trkpt lat="40.71747324260592" lon="9.679966060359419"><ele>29.0</ele><time>2026-05-04T13:53:51.001Z</time></trkpt><trkpt lat="40.717524548511065" lon="9.679740816473927"><ele>29.0</ele><time>2026-05-04T13:53:52.001Z</time></trkpt><trkpt lat="40.71757770266747" lon="9.679503448485088"><ele>29.0</ele><time>2026-05-04T13:53:53.001Z</time></trkpt><trkpt lat="40.71763206886399" lon="9.67926063299505"><ele>29.0</ele><time>2026-05-04T13:53:54.001Z</time></trkpt><trkpt lat="40.71768470406241" lon="9.679000323423947"><ele>30.0</ele><time>2026-05-04T13:53:55.001Z</time></trkpt><trkpt lat="40.7177381893092" lon="9.678741919969392"><ele>31.0</ele><time>2026-05-04T13:53:56.001Z</time></trkpt><trkpt lat="40.71779443820749" lon="9.678483449298875"><ele>32.0</ele><time>2026-05-04T13:53:57.001Z</time></trkpt><trkpt lat="40.71785705373782" lon="9.678214628457699"><ele>32.0</ele><time>2026-05-04T13:53:58.001Z</time></trkpt><trkpt lat="40.71792263344262" lon="9.67794062480628"><ele>32.0</ele><time>2026-05-04T13:53:59.001Z</time></trkpt><trkpt lat="40.717990168184954" lon="9.677662672123564"><ele>32.0</ele><time>2026-05-04T13:54:00.001Z</time></trkpt><trkpt lat="40.71805355278376" lon="9.677378470214903"><ele>32.0</ele><time>2026-05-04T13:54:01.001Z</time></trkpt><trkpt lat="40.718121043015614" lon="9.677096284055551"><ele>32.0</ele><time>2026-05-04T13:54:02.001Z</time></trkpt><trkpt lat="40.71818956710532" lon="9.676813526375046"><ele>32.0</ele><time>2026-05-04T13:54:03.001Z</time></trkpt><trkpt lat="40.7182571174756" lon="9.676528486922232"><ele>32.0</ele><time>2026-05-04T13:54:04.001Z</time></trkpt><trkpt lat="40.71832324372393" lon="9.676240281251427"><ele>32.0</ele><time>2026-05-04T13:54:05.001Z</time></trkpt><trkpt lat="40.71839048758488" lon="9.675949888300405"><ele>31.666666666666664</ele><time>2026-05-04T13:54:06.001Z</time></trkpt><trkpt lat="40.71845639878619" lon="9.675670295698739"><ele>31.333333333333336</ele><time>2026-05-04T13:54:07.001Z</time></trkpt><trkpt lat="40.71852101042217" lon="9.675385386353412"><ele>31.0</ele><time>2026-05-04T13:54:08.001Z</time></trkpt><trkpt lat="40.718586560369594" lon="9.675110365957355"><ele>32.66666666666667</ele><time>2026-05-04T13:54:09.001Z</time></trkpt><trkpt lat="40.71865051232835" lon="9.674837442341161"><ele>34.333333333333336</ele><time>2026-05-04T13:54:10.001Z</time></trkpt><trkpt lat="40.71871735704647" lon="9.674559777759459"><ele>36.0</ele><time>2026-05-04T13:54:11.001Z</time></trkpt><trkpt lat="40.718780755007245" lon="9.674276922337961"><ele>36.333333333333336</ele><time>2026-05-04T13:54:12.001Z</time></trkpt><trkpt lat="40.718843780475375" lon="9.673996307231366"><ele>36.66666666666667</ele><time>2026-05-04T13:54:13.001Z</time></trkpt><trkpt lat="40.71890208681013" lon="9.673717249935992"><ele>37.0</ele><time>2026-05-04T13:54:14.001Z</time></trkpt><trkpt lat="40.71896449990596" lon="9.673441194610897"><ele>37.0</ele><time>2026-05-04T13:54:15.001Z</time></trkpt><trkpt lat="40.71903721575618" lon="9.673167501968646"><ele>37.0</ele><time>2026-05-04T13:54:16.001Z</time></trkpt><trkpt lat="40.719133894674115" lon="9.672902324372133"><ele>37.0</ele><time>2026-05-04T13:54:17.001Z</time></trkpt><trkpt lat="40.71926809320825" lon="9.672645036154435"><ele>37.5</ele><time>2026-05-04T13:54:18.001Z</time></trkpt><trkpt lat="40.71942657881942" lon="9.672392210950115"><ele>38.0</ele><time>2026-05-04T13:54:19.001Z</time></trkpt><trkpt lat="40.71959193572447" lon="9.672147645555619"><ele>37.5</ele><time>2026-05-04T13:54:20.001Z</time></trkpt><trkpt lat="40.71976784016805" lon="9.671907433236981"><ele>37.0</ele><time>2026-05-04T13:54:21.001Z</time></trkpt><trkpt lat="40.719947482762" lon="9.671671491902634"><ele>37.0</ele><time>2026-05-04T13:54:22.001Z</time></trkpt><trkpt lat="40.72012908993504" lon="9.671447845037175"><ele>37.0</ele><time>2026-05-04T13:54:23.001Z</time></trkpt><trkpt lat="40.72031644847179" lon="9.671223416528964"><ele>38.0</ele><time>2026-05-04T13:54:24.001Z</time></trkpt><trkpt lat="40.720508908011944" lon="9.670990003000622"><ele>39.0</ele><time>2026-05-04T13:54:25.001Z</time></trkpt><trkpt lat="40.720692129936154" lon="9.670755407125823"><ele>39.0</ele><time>2026-05-04T13:54:26.001Z</time></trkpt><trkpt lat="40.72085729938247" lon="9.670523327004457"><ele>39.0</ele><time>2026-05-04T13:54:27.001Z</time></trkpt><trkpt lat="40.72100562195881" lon="9.670272209602654"><ele>42.0</ele><time>2026-05-04T13:54:28.001Z</time></trkpt><trkpt lat="40.72113296092939" lon="9.669996381656702"><ele>45.0</ele><time>2026-05-04T13:54:29.001Z</time></trkpt><trkpt lat="40.72124000469973" lon="9.669692734144093"><ele>43.5</ele><time>2026-05-04T13:54:30.001Z</time></trkpt><trkpt lat="40.72132752006501" lon="9.669362969681956"><ele>42.0</ele><time>2026-05-04T13:54:31.001Z</time></trkpt><trkpt lat="40.721427399021046" lon="9.669026353639927"><ele>42.0</ele><time>2026-05-04T13:54:32.001Z</time></trkpt><trkpt lat="40.72153428595531" lon="9.66869333147214"><ele>42.0</ele><time>2026-05-04T13:54:33.002Z</time></trkpt><trkpt lat="40.72164325891742" lon="9.668360691784361"><ele>42.0</ele><time>2026-05-04T13:54:34.002Z</time></trkpt><trkpt lat="40.721741252784675" lon="9.66802430007726"><ele>42.0</ele><time>2026-05-04T13:54:35.002Z</time></trkpt><trkpt lat="40.72184624923415" lon="9.667689340628613"><ele>47.0</ele><time>2026-05-04T13:54:36.002Z</time></trkpt><trkpt lat="40.721951990870124" lon="9.667379783312432"><ele>52.0</ele><time>2026-05-04T13:54:37.002Z</time></trkpt><trkpt lat="40.72204571674893" lon="9.667078541731659"><ele>49.0</ele><time>2026-05-04T13:54:38.002Z</time></trkpt><trkpt lat="40.72213185367966" lon="9.66678909616486"><ele>46.0</ele><time>2026-05-04T13:54:39.002Z</time></trkpt><trkpt lat="40.72222783823037" lon="9.666513959736854"><ele>46.0</ele><time>2026-05-04T13:54:40.002Z</time></trkpt><trkpt lat="40.72233310835863" lon="9.666239879281745"><ele>46.0</ele><time>2026-05-04T13:54:41.002Z</time></trkpt><trkpt lat="40.722469351623" lon="9.665977650965868"><ele>45.0</ele><time>2026-05-04T13:54:42.002Z</time></trkpt><trkpt lat="40.7226209221843" lon="9.665730196249186"><ele>44.0</ele><time>2026-05-04T13:54:43.002Z</time></trkpt><trkpt lat="40.72277802672536" lon="9.665485522199447"><ele>46.5</ele><time>2026-05-04T13:54:44.002Z</time></trkpt><trkpt lat="40.72295346649883" lon="9.665256657059226"><ele>49.0</ele><time>2026-05-04T13:54:45.002Z</time></trkpt><trkpt lat="40.72315786734506" lon="9.665052121791204"><ele>49.0</ele><time>2026-05-04T13:54:46.002Z</time></trkpt><trkpt lat="40.7233730261066" lon="9.664848133211507"><ele>49.0</ele><time>2026-05-04T13:54:47.002Z</time></trkpt><trkpt lat="40.723583566309514" lon="9.664636616246819"><ele>49.0</ele><time>2026-05-04T13:54:48.002Z</time></trkpt><trkpt lat="40.7237902562303" lon="9.664424311174406"><ele>49.0</ele><time>2026-05-04T13:54:49.002Z</time></trkpt><trkpt lat="40.724028487408034" lon="9.664283024285323"><ele>49.0</ele><time>2026-05-04T13:54:50.002Z</time></trkpt><trkpt lat="40.72425245137844" lon="9.66411015744915"><ele>49.0</ele><time>2026-05-04T13:54:51.002Z</time></trkpt><trkpt lat="40.72448698538104" lon="9.663965365270567"><ele>58.0</ele><time>2026-05-04T13:54:52.002Z</time></trkpt><trkpt lat="40.72469795855869" lon="9.663820261928302"><ele>67.0</ele><time>2026-05-04T13:54:53.002Z</time></trkpt><trkpt lat="40.724885335560295" lon="9.663690143035375"><ele>63.33333333333333</ele><time>2026-05-04T13:54:54.002Z</time></trkpt><trkpt lat="40.725046071526286" lon="9.663576031004869"><ele>59.66666666666667</ele><time>2026-05-04T13:54:55.002Z</time></trkpt><trkpt lat="40.72518917222666" lon="9.663480053066793"><ele>56.0</ele><time>2026-05-04T13:54:56.002Z</time></trkpt><trkpt lat="40.72532602749165" lon="9.66338183932684"><ele>56.0</ele><time>2026-05-04T13:54:57.002Z</time></trkpt><trkpt lat="40.72544512629625" lon="9.66325941657502"><ele>56.0</ele><time>2026-05-04T13:54:58.002Z</time></trkpt><trkpt lat="40.725551756480726" lon="9.663109890601476"><ele>56.0</ele><time>2026-05-04T13:54:59.002Z</time></trkpt><trkpt lat="40.72565610534567" lon="9.662939658168257"><ele>55.0</ele><time>2026-05-04T13:55:00.002Z</time></trkpt><trkpt lat="40.72576296528108" lon="9.662777172745233"><ele>54.0</ele><time>2026-05-04T13:55:01.002Z</time></trkpt><trkpt lat="40.72587159376173" lon="9.662615943922248"><ele>53.0</ele><time>2026-05-04T13:55:02.002Z</time></trkpt><trkpt lat="40.725977151975236" lon="9.662459977342769"><ele>55.333333333333336</ele><time>2026-05-04T13:55:03.002Z</time></trkpt><trkpt lat="40.726100210329285" lon="9.662316538387113"><ele>57.66666666666667</ele><time>2026-05-04T13:55:04.002Z</time></trkpt><trkpt lat="40.72622915895596" lon="9.662182337802578"><ele>60.0</ele><time>2026-05-04T13:55:05.002Z</time></trkpt><trkpt lat="40.72638278809396" lon="9.66205072695558"><ele>57.33333333333333</ele><time>2026-05-04T13:55:06.002Z</time></trkpt><trkpt lat="40.726547802370284" lon="9.66191294106082"><ele>54.666666666666664</ele><time>2026-05-04T13:55:07.002Z</time></trkpt><trkpt lat="40.72669643863093" lon="9.66176867495835"><ele>52.0</ele><time>2026-05-04T13:55:08.002Z</time></trkpt><trkpt lat="40.72683551552519" lon="9.661657229183852"><ele>54.666666666666664</ele><time>2026-05-04T13:55:09.002Z</time></trkpt><trkpt lat="40.72699496997604" lon="9.661544527988172"><ele>57.33333333333333</ele><time>2026-05-04T13:55:10.002Z</time></trkpt><trkpt lat="40.727150762939274" lon="9.661410236804407"><ele>60.0</ele><time>2026-05-04T13:55:11.002Z</time></trkpt><trkpt lat="40.727303617146724" lon="9.661233317665037"><ele>59.33333333333333</ele><time>2026-05-04T13:55:12.002Z</time></trkpt><trkpt lat="40.72744316843346" lon="9.661010008764858"><ele>58.666666666666664</ele><time>2026-05-04T13:55:13.002Z</time></trkpt><trkpt lat="40.7275568379205" lon="9.660753473547995"><ele>58.0</ele><time>2026-05-04T13:55:14.002Z</time></trkpt><trkpt lat="40.727692396044205" lon="9.660517705656682"><ele>63.5</ele><time>2026-05-04T13:55:15.002Z</time></trkpt><trkpt lat="40.72782316881375" lon="9.660262060954416"><ele>69.0</ele><time>2026-05-04T13:55:16.002Z</time></trkpt><trkpt lat="40.72793694366369" lon="9.659993025526205"><ele>69.0</ele><time>2026-05-04T13:55:17.002Z</time></trkpt><trkpt lat="40.72806691134645" lon="9.659738624880776"><ele>69.0</ele><time>2026-05-04T13:55:18Z</time></trkpt><trkpt lat="40.72817464824496" lon="9.659487299878778"><ele>65.0</ele><time>2026-05-04T13:55:19Z</time></trkpt><trkpt lat="40.72831973680087" lon="9.65926211781488"><ele>61.0</ele><time>2026-05-04T13:55:20Z</time></trkpt><trkpt lat="40.728491948683185" lon="9.659025345661341"><ele>61.5</ele><time>2026-05-04T13:55:21Z</time></trkpt><trkpt lat="40.728646696431014" lon="9.65875625263559"><ele>62.0</ele><time>2026-05-04T13:55:22Z</time></trkpt><trkpt lat="40.72876939747605" lon="9.658450868300552"><ele>62.0</ele><time>2026-05-04T13:55:23Z</time></trkpt><trkpt lat="40.728865985440244" lon="9.658105626153075"><ele>62.0</ele><time>2026-05-04T13:55:24Z</time></trkpt><trkpt lat="40.72899029971457" lon="9.657772908287253"><ele>60.0</ele><time>2026-05-04T13:55:25Z</time></trkpt><trkpt lat="40.7291052571322" lon="9.657435496106888"><ele>58.0</ele><time>2026-05-04T13:55:26Z</time></trkpt><trkpt lat="40.7292166433135" lon="9.657108849654326"><ele>58.0</ele><time>2026-05-04T13:55:27Z</time></trkpt><trkpt lat="40.729319671438766" lon="9.656806353118409"><ele>58.0</ele><time>2026-05-04T13:55:28Z</time></trkpt><trkpt lat="40.729419332875224" lon="9.656513057897177"><ele>63.0</ele><time>2026-05-04T13:55:29Z</time></trkpt><trkpt lat="40.72950452844019" lon="9.656214043323676"><ele>68.0</ele><time>2026-05-04T13:55:30Z</time></trkpt><trkpt lat="40.72961889503185" lon="9.655944706577007"><ele>68.66666666666667</ele><time>2026-05-04T13:55:31Z</time></trkpt><trkpt lat="40.729730977345106" lon="9.655691433127522"><ele>69.33333333333333</ele><time>2026-05-04T13:55:32Z</time></trkpt><trkpt lat="40.729845411816726" lon="9.655441540356396"><ele>70.0</ele><time>2026-05-04T13:55:33Z</time></trkpt><trkpt lat="40.729956098805836" lon="9.655181227271308"><ele>66.5</ele><time>2026-05-04T13:55:34Z</time></trkpt><trkpt lat="40.73007332428431" lon="9.654918065155478"><ele>63.0</ele><time>2026-05-04T13:55:35Z</time></trkpt><trkpt lat="40.7302072479783" lon="9.65467811574182"><ele>63.66666666666667</ele><time>2026-05-04T13:55:36Z</time></trkpt><trkpt lat="40.73036560104074" lon="9.654489708245675"><ele>64.33333333333334</ele><time>2026-05-04T13:55:37Z</time></trkpt><trkpt lat="40.73054254010396" lon="9.654345021369213"><ele>65.0</ele><time>2026-05-04T13:55:38Z</time></trkpt><trkpt lat="40.730675119495174" lon="9.654151872128272"><ele>65.0</ele><time>2026-05-04T13:55:39Z</time></trkpt><trkpt lat="40.730769417110544" lon="9.653909203846677"><ele>65.0</ele><time>2026-05-04T13:55:40.001Z</time></trkpt><trkpt lat="40.73080713934508" lon="9.653617674097642"><ele>65.0</ele><time>2026-05-04T13:55:41.001Z</time></trkpt><trkpt lat="40.730817118716935" lon="9.653308015667676"><ele>65.0</ele><time>2026-05-04T13:55:42.001Z</time></trkpt><trkpt lat="40.730836953780795" lon="9.65300146072038"><ele>65.0</ele><time>2026-05-04T13:55:43.001Z</time></trkpt><trkpt lat="40.73083001770612" lon="9.65267496570346"><ele>65.0</ele><time>2026-05-04T13:55:44.001Z</time></trkpt><trkpt lat="40.730782522204784" lon="9.65235889163343"><ele>65.0</ele><time>2026-05-04T13:55:45.001Z</time></trkpt><trkpt lat="40.73073434247124" lon="9.652068200801715"><ele>66.0</ele><time>2026-05-04T13:55:46.001Z</time></trkpt><trkpt lat="40.730706844398966" lon="9.651809588450059"><ele>67.0</ele><time>2026-05-04T13:55:47.001Z</time></trkpt><trkpt lat="40.73067267676467" lon="9.651561245569651"><ele>68.0</ele><time>2026-05-04T13:55:48.001Z</time></trkpt><trkpt lat="40.73063856355165" lon="9.651315461087135"><ele>69.66666666666667</ele><time>2026-05-04T13:55:49.001Z</time></trkpt><trkpt lat="40.73060975029976" lon="9.651060687251142"><ele>71.33333333333333</ele><time>2026-05-04T13:55:50.001Z</time></trkpt><trkpt lat="40.73057758317625" lon="9.650801860186942"><ele>73.0</ele><time>2026-05-04T13:55:51.001Z</time></trkpt><trkpt lat="40.73055012345255" lon="9.650543490133858"><ele>73.0</ele><time>2026-05-04T13:55:52.001Z</time></trkpt><trkpt lat="40.730547313238695" lon="9.650295802027205"><ele>73.0</ele><time>2026-05-04T13:55:53.001Z</time></trkpt><trkpt lat="40.7306006984475" lon="9.650087130895095"><ele>73.0</ele><time>2026-05-04T13:55:54.001Z</time></trkpt><trkpt lat="40.730693332148526" lon="9.649952515006722"><ele>72.66666666666666</ele><time>2026-05-04T13:55:55.001Z</time></trkpt><trkpt lat="40.73083246682414" lon="9.649867915274866"><ele>72.33333333333333</ele><time>2026-05-04T13:55:56.001Z</time></trkpt><trkpt lat="40.73096819085436" lon="9.649726939931954"><ele>72.0</ele><time>2026-05-04T13:55:57.001Z</time></trkpt><trkpt lat="40.731107235450835" lon="9.649565238372352"><ele>73.0</ele><time>2026-05-04T13:55:58.001Z</time></trkpt><trkpt lat="40.731253420899115" lon="9.649435369174936"><ele>74.0</ele><time>2026-05-04T13:55:59.001Z</time></trkpt><trkpt lat="40.73143601504459" lon="9.64935281278934"><ele>75.0</ele><time>2026-05-04T13:56:00.001Z</time></trkpt><trkpt lat="40.73165469337653" lon="9.64937270072925"><ele>75.0</ele><time>2026-05-04T13:56:01.001Z</time></trkpt><trkpt lat="40.731874506800686" lon="9.649433046138634"><ele>75.0</ele><time>2026-05-04T13:56:02.001Z</time></trkpt><trkpt lat="40.73209904412128" lon="9.649482042885703"><ele>76.66666666666667</ele><time>2026-05-04T13:56:03.001Z</time></trkpt><trkpt lat="40.73231549319094" lon="9.64948650371242"><ele>78.33333333333334</ele><time>2026-05-04T13:56:04.001Z</time></trkpt><trkpt lat="40.73251887591788" lon="9.649410419547543"><ele>80.0</ele><time>2026-05-04T13:56:05.001Z</time></trkpt><trkpt lat="40.732699949049135" lon="9.64927702088843"><ele>82.5</ele><time>2026-05-04T13:56:06.001Z</time></trkpt><trkpt lat="40.73287317864751" lon="9.649099896240262"><ele>85.0</ele><time>2026-05-04T13:56:07.001Z</time></trkpt><trkpt lat="40.73306296604436" lon="9.648909543616568"><ele>85.0</ele><time>2026-05-04T13:56:08.001Z</time></trkpt><trkpt lat="40.73326332554974" lon="9.648735317351179"><ele>85.0</ele><time>2026-05-04T13:56:09.001Z</time></trkpt><trkpt lat="40.73346643971302" lon="9.648558756138467"><ele>85.66666666666666</ele><time>2026-05-04T13:56:10.001Z</time></trkpt><trkpt lat="40.733655828385466" lon="9.648386632404183"><ele>86.33333333333333</ele><time>2026-05-04T13:56:11.001Z</time></trkpt><trkpt lat="40.73382630011418" lon="9.64823119492784"><ele>87.0</ele><time>2026-05-04T13:56:12.001Z</time></trkpt><trkpt lat="40.73399083110305" lon="9.648094576961821"><ele>87.0</ele><time>2026-05-04T13:56:13.001Z</time></trkpt><trkpt lat="40.734172889133866" lon="9.647953945191121"><ele>87.0</ele><time>2026-05-04T13:56:14.001Z</time></trkpt><trkpt lat="40.734390076254634" lon="9.647832801801334"><ele>87.0</ele><time>2026-05-04T13:56:15.001Z</time></trkpt><trkpt lat="40.73463572108378" lon="9.647767726772907"><ele>87.5</ele><time>2026-05-04T13:56:16.001Z</time></trkpt><trkpt lat="40.73490150137382" lon="9.64772101468672"><ele>88.0</ele><time>2026-05-04T13:56:17.001Z</time></trkpt><trkpt lat="40.735189786148894" lon="9.647680246772657"><ele>92.0</ele><time>2026-05-04T13:56:18.001Z</time></trkpt><trkpt lat="40.73547718453299" lon="9.647661003070054"><ele>96.0</ele><time>2026-05-04T13:56:19.001Z</time></trkpt><trkpt lat="40.7357606666816" lon="9.647684636676052"><ele>96.0</ele><time>2026-05-04T13:56:20.001Z</time></trkpt><trkpt lat="40.73602702895736" lon="9.647706721844628"><ele>96.0</ele><time>2026-05-04T13:56:21.001Z</time></trkpt><trkpt lat="40.73627330474559" lon="9.647732864647187"><ele>100.0</ele><time>2026-05-04T13:56:22.001Z</time></trkpt><trkpt lat="40.736515527981354" lon="9.647738408313856"><ele>104.0</ele><time>2026-05-04T13:56:23.001Z</time></trkpt><trkpt lat="40.73675151519295" lon="9.647692747590932"><ele>103.5</ele><time>2026-05-04T13:56:24.001Z</time></trkpt><trkpt lat="40.7369504656783" lon="9.647523507138624"><ele>103.0</ele><time>2026-05-04T13:56:25.001Z</time></trkpt><trkpt lat="40.73717414946784" lon="9.647348249006688"><ele>103.0</ele><time>2026-05-04T13:56:26.001Z</time></trkpt><trkpt lat="40.73739556836918" lon="9.647218206710123"><ele>103.0</ele><time>2026-05-04T13:56:27.001Z</time></trkpt><trkpt lat="40.73759802187874" lon="9.64711087710133"><ele>101.0</ele><time>2026-05-04T13:56:28.001Z</time></trkpt><trkpt lat="40.73779838553883" lon="9.647013651569669"><ele>99.0</ele><time>2026-05-04T13:56:29.001Z</time></trkpt><trkpt lat="40.7379991629846" lon="9.64692743061569"><ele>97.0</ele><time>2026-05-04T13:56:30.001Z</time></trkpt><trkpt lat="40.73820086574568" lon="9.646842449369293"><ele>95.66666666666667</ele><time>2026-05-04T13:56:31.002Z</time></trkpt><trkpt lat="40.73840158673303" lon="9.6467569477092"><ele>94.33333333333334</ele><time>2026-05-04T13:56:32.002Z</time></trkpt><trkpt lat="40.73860142745727" lon="9.646671311972277"><ele>93.0</ele><time>2026-05-04T13:56:33.002Z</time></trkpt><trkpt lat="40.73880048622338" lon="9.646588381619253"><ele>92.0</ele><time>2026-05-04T13:56:34.002Z</time></trkpt><trkpt lat="40.73900028079292" lon="9.646507022842421"><ele>91.0</ele><time>2026-05-04T13:56:35.002Z</time></trkpt><trkpt lat="40.73920219009295" lon="9.646423195401123"><ele>90.0</ele><time>2026-05-04T13:56:36.002Z</time></trkpt><trkpt lat="40.739398801946216" lon="9.646338643692156"><ele>89.0</ele><time>2026-05-04T13:56:37.002Z</time></trkpt><trkpt lat="40.73959068924586" lon="9.646254306399081"><ele>88.0</ele><time>2026-05-04T13:56:38.002Z</time></trkpt><trkpt lat="40.739771539765655" lon="9.646174018890346"><ele>87.0</ele><time>2026-05-04T13:56:39.002Z</time></trkpt><trkpt lat="40.73996213990015" lon="9.646105524785144"><ele>89.0</ele><time>2026-05-04T13:56:40.002Z</time></trkpt><trkpt lat="40.740169352321125" lon="9.646061644869631"><ele>91.0</ele><time>2026-05-04T13:56:41.002Z</time></trkpt><trkpt lat="40.7403908069664" lon="9.64607561268267"><ele>93.0</ele><time>2026-05-04T13:56:42.002Z</time></trkpt><trkpt lat="40.7406223932603" lon="9.646124037708512"><ele>89.0</ele><time>2026-05-04T13:56:43.002Z</time></trkpt><trkpt lat="40.740864275138385" lon="9.646171570019005"><ele>85.0</ele><time>2026-05-04T13:56:44.002Z</time></trkpt><trkpt lat="40.74109405323287" lon="9.64620301811807"><ele>84.0</ele><time>2026-05-04T13:56:45.002Z</time></trkpt><trkpt lat="40.741318299692225" lon="9.646226093394985"><ele>83.0</ele><time>2026-05-04T13:56:46.002Z</time></trkpt><trkpt lat="40.741547081339675" lon="9.646253476749045"><ele>83.0</ele><time>2026-05-04T13:56:47.002Z</time></trkpt><trkpt lat="40.74176527241412" lon="9.646285582503971"><ele>83.0</ele><time>2026-05-04T13:56:48.002Z</time></trkpt><trkpt lat="40.74197321448104" lon="9.64631968247858"><ele>83.0</ele><time>2026-05-04T13:56:49.002Z</time></trkpt><trkpt lat="40.742175245933666" lon="9.646348578642513"><ele>82.0</ele><time>2026-05-04T13:56:50.002Z</time></trkpt><trkpt lat="40.74236773712787" lon="9.646365614912355"><ele>81.0</ele><time>2026-05-04T13:56:51.002Z</time></trkpt><trkpt lat="40.742554156784735" lon="9.646395999519761"><ele>80.0</ele><time>2026-05-04T13:56:52.002Z</time></trkpt><trkpt lat="40.74273475548789" lon="9.646422532850437"><ele>78.33333333333334</ele><time>2026-05-04T13:56:53.002Z</time></trkpt><trkpt lat="40.742908005572254" lon="9.646447047218256"><ele>76.66666666666667</ele><time>2026-05-04T13:56:54.002Z</time></trkpt><trkpt lat="40.743078954742934" lon="9.646468032561932"><ele>75.0</ele><time>2026-05-04T13:56:55.002Z</time></trkpt><trkpt lat="40.74324264682371" lon="9.646485467397325"><ele>75.0</ele><time>2026-05-04T13:56:56.002Z</time></trkpt><trkpt lat="40.74339572604161" lon="9.646513232991106"><ele>75.0</ele><time>2026-05-04T13:56:57.002Z</time></trkpt><trkpt lat="40.74356445942967" lon="9.64653671779984"><ele>75.0</ele><time>2026-05-04T13:56:58.002Z</time></trkpt><trkpt lat="40.74374121055551" lon="9.64656337933558"><ele>75.0</ele><time>2026-05-04T13:56:59.002Z</time></trkpt><trkpt lat="40.74392645938334" lon="9.646582829781996"><ele>75.0</ele><time>2026-05-04T13:57:00.002Z</time></trkpt><trkpt lat="40.74411240499334" lon="9.646616975669932"><ele>75.0</ele><time>2026-05-04T13:57:01.002Z</time></trkpt><trkpt lat="40.74430103637469" lon="9.646658029199095"><ele>74.33333333333333</ele><time>2026-05-04T13:57:02.002Z</time></trkpt><trkpt lat="40.744496837454726" lon="9.646702392206672"><ele>73.66666666666666</ele><time>2026-05-04T13:57:03.002Z</time></trkpt><trkpt lat="40.74469807159023" lon="9.646753791149294"><ele>73.0</ele><time>2026-05-04T13:57:04.002Z</time></trkpt><trkpt lat="40.74489981774401" lon="9.646811111261666"><ele>73.0</ele><time>2026-05-04T13:57:05.002Z</time></trkpt><trkpt lat="40.74509145716499" lon="9.64686594458139"><ele>73.0</ele><time>2026-05-04T13:57:06.002Z</time></trkpt><trkpt lat="40.74527743351659" lon="9.646924523992238"><ele>73.0</ele><time>2026-05-04T13:57:07.002Z</time></trkpt><trkpt lat="40.74546722053501" lon="9.646972373715936"><ele>71.0</ele><time>2026-05-04T13:57:08.002Z</time></trkpt><trkpt lat="40.74566230087817" lon="9.647006291710397"><ele>69.0</ele><time>2026-05-04T13:57:09.002Z</time></trkpt><trkpt lat="40.74586091105522" lon="9.647022398478487"><ele>67.0</ele><time>2026-05-04T13:57:10.002Z</time></trkpt><trkpt lat="40.74606519961839" lon="9.647027402761534"><ele>66.66666666666666</ele><time>2026-05-04T13:57:11.002Z</time></trkpt><trkpt lat="40.746259908760436" lon="9.647016998118623"><ele>66.33333333333333</ele><time>2026-05-04T13:57:12.002Z</time></trkpt><trkpt lat="40.746452942748896" lon="9.647012243255482"><ele>66.0</ele><time>2026-05-04T13:57:13.002Z</time></trkpt><trkpt lat="40.746639377622785" lon="9.647025668095372"><ele>66.0</ele><time>2026-05-04T13:57:14.002Z</time></trkpt><trkpt lat="40.74682801576958" lon="9.647034585209541"><ele>66.0</ele><time>2026-05-04T13:57:15.002Z</time></trkpt><trkpt lat="40.74701425336786" lon="9.647044132268379"><ele>66.0</ele><time>2026-05-04T13:57:16.002Z</time></trkpt><trkpt lat="40.74720193207148" lon="9.647050100436944"><ele>65.33333333333333</ele><time>2026-05-04T13:57:17.002Z</time></trkpt><trkpt lat="40.74739122694888" lon="9.647057721614813"><ele>64.66666666666666</ele><time>2026-05-04T13:57:18.002Z</time></trkpt><trkpt lat="40.74759006700648" lon="9.647056624512814"><ele>64.0</ele><time>2026-05-04T13:57:19.003Z</time></trkpt><trkpt lat="40.74776878992474" lon="9.647063083661752"><ele>63.33333333333333</ele><time>2026-05-04T13:57:20.003Z</time></trkpt><trkpt lat="40.74794676291573" lon="9.647068495716189"><ele>62.66666666666667</ele><time>2026-05-04T13:57:21.003Z</time></trkpt><trkpt lat="40.74812771927751" lon="9.647073767740315"><ele>62.0</ele><time>2026-05-04T13:57:22.003Z</time></trkpt><trkpt lat="40.74829679294531" lon="9.647081031672617"><ele>62.0</ele><time>2026-05-04T13:57:23.003Z</time></trkpt><trkpt lat="40.748460440237004" lon="9.647092817004648"><ele>62.0</ele><time>2026-05-04T13:57:24Z</time></trkpt><trkpt lat="40.748626809412784" lon="9.64709797434848"><ele>62.0</ele><time>2026-05-04T13:57:25Z</time></trkpt><trkpt lat="40.74878948449948" lon="9.647098567707154"><ele>61.25</ele><time>2026-05-04T13:57:26Z</time></trkpt><trkpt lat="40.748944913103436" lon="9.647099459332045"><ele>60.5</ele><time>2026-05-04T13:57:27Z</time></trkpt><trkpt lat="40.749093035459936" lon="9.647107433938938"><ele>59.75</ele><time>2026-05-04T13:57:28Z</time></trkpt><trkpt lat="40.749237090296646" lon="9.64711841885491"><ele>59.0</ele><time>2026-05-04T13:57:29Z</time></trkpt><trkpt lat="40.749374078167925" lon="9.647142372128359"><ele>58.400000000000006</ele><time>2026-05-04T13:57:30Z</time></trkpt><trkpt lat="40.749490526551696" lon="9.647183284581008"><ele>57.800000000000004</ele><time>2026-05-04T13:57:31Z</time></trkpt><trkpt lat="40.74959100807829" lon="9.647226423956104"><ele>57.199999999999996</ele><time>2026-05-04T13:57:32Z</time></trkpt><trkpt lat="40.74965590308853" lon="9.64725979827416"><ele>56.599999999999994</ele><time>2026-05-04T13:57:33Z</time></trkpt><trkpt lat="40.749721404032606" lon="9.647287990058881"><ele>56.0</ele><time>2026-05-04T13:57:36Z</time></trkpt><trkpt lat="40.74981399455402" lon="9.647308152362335"><ele>56.0</ele><time>2026-05-04T13:58:15.001Z</time></trkpt><trkpt lat="40.74988078146407" lon="9.647309729403192"><ele>55.99999999999999</ele><time>2026-05-04T13:58:17.001Z</time></trkpt><trkpt lat="40.74999134754302" lon="9.647318690471499"><ele>55.99999999999999</ele><time>2026-05-04T13:58:19.001Z</time></trkpt><trkpt lat="40.75010711592091" lon="9.647299217813096"><ele>56.0</ele><time>2026-05-04T13:58:21.001Z</time></trkpt><trkpt lat="40.750228585117284" lon="9.64726208146677"><ele>56.0</ele><time>2026-05-04T13:58:23.001Z</time></trkpt><trkpt lat="40.75030460069836" lon="9.647215807718824"><ele>55.50000000000001</ele><time>2026-05-04T13:58:24.001Z</time></trkpt><trkpt lat="40.750389721322016" lon="9.647176501679967"><ele>55.0</ele><time>2026-05-04T13:58:25.001Z</time></trkpt><trkpt lat="40.7504642917596" lon="9.647127468293599"><ele>54.5</ele><time>2026-05-04T13:58:26.001Z</time></trkpt><trkpt lat="40.75052932314579" lon="9.647082335266882"><ele>54.0</ele><time>2026-05-04T13:58:27.001Z</time></trkpt><trkpt lat="40.75061134855472" lon="9.647038455101125"><ele>53.50000000000001</ele><time>2026-05-04T13:58:28.001Z</time></trkpt><trkpt lat="40.75071233258148" lon="9.647009042115684"><ele>53.0</ele><time>2026-05-04T13:58:29.001Z</time></trkpt><trkpt lat="40.75082617732797" lon="9.647005972728365"><ele>53.0</ele><time>2026-05-04T13:58:30.001Z</time></trkpt><trkpt lat="40.7509324613418" lon="9.647033139460152"><ele>53.0</ele><time>2026-05-04T13:58:31.001Z</time></trkpt><trkpt lat="40.75105069734878" lon="9.647098538419625"><ele>53.0</ele><time>2026-05-04T13:58:32.001Z</time></trkpt><trkpt lat="40.75118516396336" lon="9.647192586387185"><ele>53.0</ele><time>2026-05-04T13:58:33.001Z</time></trkpt><trkpt lat="40.7513264203357" lon="9.647286408408894"><ele>53.5</ele><time>2026-05-04T13:58:34.001Z</time></trkpt><trkpt lat="40.75147005889055" lon="9.647374427679994"><ele>54.0</ele><time>2026-05-04T13:58:35.001Z</time></trkpt><trkpt lat="40.7516036930801" lon="9.647462773938763"><ele>54.5</ele><time>2026-05-04T13:58:36.001Z</time></trkpt><trkpt lat="40.75173118779536" lon="9.647537657056558"><ele>55.0</ele><time>2026-05-04T13:58:37.001Z</time></trkpt><trkpt lat="40.75187405201877" lon="9.647622280245715"><ele>55.0</ele><time>2026-05-04T13:58:38.001Z</time></trkpt><trkpt lat="40.75200685739907" lon="9.647707344405315"><ele>55.0</ele><time>2026-05-04T13:58:39.001Z</time></trkpt><trkpt lat="40.752129550507576" lon="9.647779917840634"><ele>55.0</ele><time>2026-05-04T13:58:40.001Z</time></trkpt><trkpt lat="40.75224620931191" lon="9.647851439535932"><ele>55.0</ele><time>2026-05-04T13:58:41.001Z</time></trkpt><trkpt lat="40.75236273533696" lon="9.647927510668504"><ele>54.0</ele><time>2026-05-04T13:58:42.001Z</time></trkpt><trkpt lat="40.75248457285351" lon="9.648009476541471"><ele>53.0</ele><time>2026-05-04T13:58:43.001Z</time></trkpt><trkpt lat="40.75261397418908" lon="9.648096166528058"><ele>52.0</ele><time>2026-05-04T13:58:44.001Z</time></trkpt><trkpt lat="40.7527606114831" lon="9.648204084725762"><ele>51.33333333333333</ele><time>2026-05-04T13:58:45.001Z</time></trkpt><trkpt lat="40.752902645286674" lon="9.64833290678995"><ele>50.66666666666667</ele><time>2026-05-04T13:58:46.001Z</time></trkpt><trkpt lat="40.75307200131239" lon="9.648490387546904"><ele>50.0</ele><time>2026-05-04T13:58:47.001Z</time></trkpt><trkpt lat="40.753251340411424" lon="9.648646129622874"><ele>50.66666666666667</ele><time>2026-05-04T13:58:48.001Z</time></trkpt><trkpt lat="40.753436189497954" lon="9.648805783170447"><ele>51.33333333333333</ele><time>2026-05-04T13:58:49.001Z</time></trkpt><trkpt lat="40.75361711883477" lon="9.648965645313137"><ele>52.0</ele><time>2026-05-04T13:58:50.001Z</time></trkpt><trkpt lat="40.75379660428515" lon="9.649124034552697"><ele>52.0</ele><time>2026-05-04T13:58:51.002Z</time></trkpt><trkpt lat="40.75396080635326" lon="9.649276714636994"><ele>52.0</ele><time>2026-05-04T13:58:52.002Z</time></trkpt><trkpt lat="40.754120981479886" lon="9.649423334822115"><ele>52.0</ele><time>2026-05-04T13:58:53.002Z</time></trkpt><trkpt lat="40.754284218624946" lon="9.64956742274776"><ele>51.0</ele><time>2026-05-04T13:58:54.002Z</time></trkpt><trkpt lat="40.75443884405714" lon="9.649701976889284"><ele>50.0</ele><time>2026-05-04T13:58:55.002Z</time></trkpt><trkpt lat="40.7545782616082" lon="9.649825336259347"><ele>49.0</ele><time>2026-05-04T13:58:56.002Z</time></trkpt><trkpt lat="40.754724561787725" lon="9.649923853818535"><ele>49.0</ele><time>2026-05-04T13:58:57.002Z</time></trkpt><trkpt lat="40.754888749289954" lon="9.649995683835384"><ele>49.0</ele><time>2026-05-04T13:58:58.002Z</time></trkpt><trkpt lat="40.755053044452524" lon="9.650052746467544"><ele>49.0</ele><time>2026-05-04T13:58:59.002Z</time></trkpt><trkpt lat="40.75522605784375" lon="9.650093278288768"><ele>50.0</ele><time>2026-05-04T13:59:00.002Z</time></trkpt><trkpt lat="40.755386282238085" lon="9.650138370034611"><ele>51.0</ele><time>2026-05-04T13:59:01.002Z</time></trkpt><trkpt lat="40.755538426772226" lon="9.650187533303056"><ele>52.0</ele><time>2026-05-04T13:59:02.002Z</time></trkpt><trkpt lat="40.755686122482764" lon="9.650249952487316"><ele>48.666666666666664</ele><time>2026-05-04T13:59:03.002Z</time></trkpt><trkpt lat="40.75583067418383" lon="9.650325629201458"><ele>45.33333333333333</ele><time>2026-05-04T13:59:04.002Z</time></trkpt><trkpt lat="40.755963046716566" lon="9.650426928951264"><ele>42.0</ele><time>2026-05-04T13:59:05.002Z</time></trkpt><trkpt lat="40.75611945210938" lon="9.650545299999242"><ele>42.0</ele><time>2026-05-04T13:59:06.002Z</time></trkpt><trkpt lat="40.75627910916043" lon="9.650718561541009"><ele>42.0</ele><time>2026-05-04T13:59:07.002Z</time></trkpt><trkpt lat="40.75648179632594" lon="9.65090459002698"><ele>42.0</ele><time>2026-05-04T13:59:08.002Z</time></trkpt><trkpt lat="40.75666142498874" lon="9.651103377365049"><ele>42.0</ele><time>2026-05-04T13:59:09.002Z</time></trkpt><trkpt lat="40.756824232558955" lon="9.651278390485288"><ele>42.0</ele><time>2026-05-04T13:59:10.002Z</time></trkpt><trkpt lat="40.75700552228138" lon="9.651428685195604"><ele>41.0</ele><time>2026-05-04T13:59:11.002Z</time></trkpt><trkpt lat="40.75721753986725" lon="9.651573539649686"><ele>40.0</ele><time>2026-05-04T13:59:12.002Z</time></trkpt><trkpt lat="40.757448537171165" lon="9.651704845426007"><ele>40.0</ele><time>2026-05-04T13:59:13.002Z</time></trkpt><trkpt lat="40.757696127702836" lon="9.651834333423038"><ele>40.0</ele><time>2026-05-04T13:59:14.002Z</time></trkpt><trkpt lat="40.75794965284947" lon="9.651972980526166"><ele>37.5</ele><time>2026-05-04T13:59:15.002Z</time></trkpt><trkpt lat="40.75820108019009" lon="9.652111631025868"><ele>35.0</ele><time>2026-05-04T13:59:16.002Z</time></trkpt><trkpt lat="40.758456786860954" lon="9.652252575460842"><ele>35.0</ele><time>2026-05-04T13:59:17.002Z</time></trkpt><trkpt lat="40.75872390584065" lon="9.652408254413976"><ele>35.0</ele><time>2026-05-04T13:59:18.002Z</time></trkpt><trkpt lat="40.75898061026581" lon="9.652551535077514"><ele>35.0</ele><time>2026-05-04T13:59:19.002Z</time></trkpt><trkpt lat="40.75920855400294" lon="9.65268608337331"><ele>35.0</ele><time>2026-05-04T13:59:20.002Z</time></trkpt><trkpt lat="40.75942448297476" lon="9.652806182851933"><ele>34.33333333333333</ele><time>2026-05-04T13:59:21.002Z</time></trkpt><trkpt lat="40.75961593605135" lon="9.652918178304772"><ele>33.666666666666664</ele><time>2026-05-04T13:59:22.002Z</time></trkpt><trkpt lat="40.75979564244353" lon="9.65302509055038"><ele>33.0</ele><time>2026-05-04T13:59:23.002Z</time></trkpt><trkpt lat="40.75994886880253" lon="9.653112517766154"><ele>33.0</ele><time>2026-05-04T13:59:24.002Z</time></trkpt><trkpt lat="40.76009089645258" lon="9.653194352627954"><ele>33.0</ele><time>2026-05-04T13:59:25.002Z</time></trkpt><trkpt lat="40.76021122163319" lon="9.653263397751036"><ele>33.0</ele><time>2026-05-04T13:59:26.002Z</time></trkpt><trkpt lat="40.76031637582043" lon="9.653339770203035"><ele>33.0</ele><time>2026-05-04T13:59:27.002Z</time></trkpt><trkpt lat="40.76040745345242" lon="9.65344733157287"><ele>33.0</ele><time>2026-05-04T13:59:28.002Z</time></trkpt><trkpt lat="40.76047292633639" lon="9.653573336946355"><ele>33.0</ele><time>2026-05-04T13:59:29.002Z</time></trkpt><trkpt lat="40.76054645524861" lon="9.653665133006719"><ele>33.0</ele><time>2026-05-04T13:59:30Z</time></trkpt><trkpt lat="40.76064257056503" lon="9.653686246475349"><ele>33.0</ele><time>2026-05-04T13:59:31Z</time></trkpt><trkpt lat="40.76072505013693" lon="9.653666995746383"><ele>33.0</ele><time>2026-05-04T13:59:32Z</time></trkpt><trkpt lat="40.76080083814521" lon="9.653572337611314"><ele>32.0</ele><time>2026-05-04T13:59:33Z</time></trkpt><trkpt lat="40.76096298934447" lon="9.65367333927655"><ele>31.0</ele><time>2026-05-04T13:59:34Z</time></trkpt><trkpt lat="40.76111495561497" lon="9.653745529426507"><ele>30.0</ele><time>2026-05-04T13:59:35Z</time></trkpt><trkpt lat="40.76129818444261" lon="9.653845083286564"><ele>30.0</ele><time>2026-05-04T13:59:36Z</time></trkpt><trkpt lat="40.76150009315814" lon="9.65391481145985"><ele>30.0</ele><time>2026-05-04T13:59:37Z</time></trkpt><trkpt lat="40.7617031073036" lon="9.653964046522567"><ele>30.0</ele><time>2026-05-04T13:59:38Z</time></trkpt><trkpt lat="40.76193836518717" lon="9.653995204980427"><ele>29.5</ele><time>2026-05-04T13:59:39Z</time></trkpt><trkpt lat="40.76218665676155" lon="9.654022427905167"><ele>29.0</ele><time>2026-05-04T13:59:40Z</time></trkpt><trkpt lat="40.76242640236745" lon="9.65404195548285"><ele>29.0</ele><time>2026-05-04T13:59:41Z</time></trkpt><trkpt lat="40.76264929004061" lon="9.654064937352107"><ele>29.0</ele><time>2026-05-04T13:59:42Z</time></trkpt><trkpt lat="40.762859045839654" lon="9.654091201422412"><ele>29.0</ele><time>2026-05-04T13:59:43Z</time></trkpt><trkpt lat="40.76306593851024" lon="9.654113792217766"><ele>28.666666666666664</ele><time>2026-05-04T13:59:44Z</time></trkpt><trkpt lat="40.763254715424104" lon="9.654137424958627"><ele>28.333333333333336</ele><time>2026-05-04T13:59:45Z</time></trkpt><trkpt lat="40.763438762291074" lon="9.654155120372641"><ele>28.0</ele><time>2026-05-04T13:59:46Z</time></trkpt><trkpt lat="40.76363064739854" lon="9.654172348232864"><ele>28.0</ele><time>2026-05-04T13:59:47Z</time></trkpt><trkpt lat="40.763817202465425" lon="9.654193281092812"><ele>28.0</ele><time>2026-05-04T13:59:48Z</time></trkpt><trkpt lat="40.76399430940507" lon="9.65421004892432"><ele>28.0</ele><time>2026-05-04T13:59:49Z</time></trkpt><trkpt lat="40.764157811594885" lon="9.654226045482899"><ele>28.0</ele><time>2026-05-04T13:59:50Z</time></trkpt><trkpt lat="40.76432421482927" lon="9.654244921683514"><ele>28.0</ele><time>2026-05-04T13:59:51Z</time></trkpt><trkpt lat="40.76450789891528" lon="9.654262328344192"><ele>28.0</ele><time>2026-05-04T13:59:52Z</time></trkpt><trkpt lat="40.764705787336915" lon="9.654280025545717"><ele>29.333333333333336</ele><time>2026-05-04T13:59:53Z</time></trkpt><trkpt lat="40.76490746327082" lon="9.65430043376151"><ele>30.666666666666664</ele><time>2026-05-04T13:59:54Z</time></trkpt><trkpt lat="40.76511250620312" lon="9.654322558497274"><ele>32.0</ele><time>2026-05-04T13:59:55Z</time></trkpt><trkpt lat="40.76533895848588" lon="9.654347863929042"><ele>32.0</ele><time>2026-05-04T13:59:56Z</time></trkpt><trkpt lat="40.76557856003713" lon="9.654381781200009"><ele>32.0</ele><time>2026-05-04T13:59:57Z</time></trkpt><trkpt lat="40.76580381192266" lon="9.654411912022287"><ele>32.0</ele><time>2026-05-04T13:59:58Z</time></trkpt><trkpt lat="40.766002988968935" lon="9.654429641704322"><ele>32.0</ele><time>2026-05-04T13:59:59Z</time></trkpt><trkpt lat="40.76620071279223" lon="9.65444708337178"><ele>32.0</ele><time>2026-05-04T14:00:00Z</time></trkpt><trkpt lat="40.766412100161446" lon="9.65446905420575"><ele>31.666666666666664</ele><time>2026-05-04T14:00:01Z</time></trkpt><trkpt lat="40.76662395005388" lon="9.654486238328822"><ele>31.333333333333336</ele><time>2026-05-04T14:00:02Z</time></trkpt><trkpt lat="40.76683485393681" lon="9.654509514356304"><ele>31.0</ele><time>2026-05-04T14:00:03Z</time></trkpt><trkpt lat="40.76704468433065" lon="9.65452923596594"><ele>31.0</ele><time>2026-05-04T14:00:04Z</time></trkpt><trkpt lat="40.767249650814755" lon="9.654541941429931"><ele>31.0</ele><time>2026-05-04T14:00:05.001Z</time></trkpt><trkpt lat="40.76743834231776" lon="9.654543536436208"><ele>31.0</ele><time>2026-05-04T14:00:06.001Z</time></trkpt><trkpt lat="40.76762790339394" lon="9.65451904880676"><ele>30.333333333333336</ele><time>2026-05-04T14:00:07.001Z</time></trkpt><trkpt lat="40.76781448757318" lon="9.654488897973863"><ele>29.666666666666664</ele><time>2026-05-04T14:00:08.001Z</time></trkpt><trkpt lat="40.76800656822368" lon="9.654464579276087"><ele>29.0</ele><time>2026-05-04T14:00:09.001Z</time></trkpt><trkpt lat="40.768213128879296" lon="9.654446469451745"><ele>29.0</ele><time>2026-05-04T14:00:10.001Z</time></trkpt><trkpt lat="40.76842823062725" lon="9.654425589198585"><ele>29.0</ele><time>2026-05-04T14:00:11.001Z</time></trkpt><trkpt lat="40.76865125329911" lon="9.654401953049318"><ele>29.0</ele><time>2026-05-04T14:00:12.001Z</time></trkpt><trkpt lat="40.768876994963556" lon="9.654379020302748"><ele>27.5</ele><time>2026-05-04T14:00:13.001Z</time></trkpt><trkpt lat="40.769110470947275" lon="9.654350004417932"><ele>26.0</ele><time>2026-05-04T14:00:14.001Z</time></trkpt><trkpt lat="40.769334461770185" lon="9.654322637326016"><ele>24.666666666666664</ele><time>2026-05-04T14:00:15.001Z</time></trkpt><trkpt lat="40.76955435025021" lon="9.654298239253889"><ele>23.333333333333332</ele><time>2026-05-04T14:00:16.001Z</time></trkpt><trkpt lat="40.76977244401115" lon="9.654275855005062"><ele>22.0</ele><time>2026-05-04T14:00:17.001Z</time></trkpt><trkpt lat="40.76996652234225" lon="9.654256951295343"><ele>22.0</ele><time>2026-05-04T14:00:18.001Z</time></trkpt><trkpt lat="40.770151413370506" lon="9.654244461538402"><ele>22.0</ele><time>2026-05-04T14:00:19.001Z</time></trkpt><trkpt lat="40.770333993288936" lon="9.654269626769132"><ele>22.0</ele><time>2026-05-04T14:00:20.001Z</time></trkpt><trkpt lat="40.77052017036772" lon="9.654329123895659"><ele>21.333333333333332</ele><time>2026-05-04T14:00:21.001Z</time></trkpt><trkpt lat="40.770720825930134" lon="9.654443794430135"><ele>20.666666666666668</ele><time>2026-05-04T14:00:22.001Z</time></trkpt><trkpt lat="40.770930005242384" lon="9.654563148797756"><ele>20.0</ele><time>2026-05-04T14:00:23.001Z</time></trkpt><trkpt lat="40.77114197827724" lon="9.654681400297033"><ele>19.0</ele><time>2026-05-04T14:00:24.001Z</time></trkpt><trkpt lat="40.77134281654004" lon="9.654790901013051"><ele>18.0</ele><time>2026-05-04T14:00:25.001Z</time></trkpt><trkpt lat="40.77153473561087" lon="9.654890662052496"><ele>17.0</ele><time>2026-05-04T14:00:26.001Z</time></trkpt><trkpt lat="40.771728507888" lon="9.654986054944306"><ele>16.333333333333336</ele><time>2026-05-04T14:00:27.001Z</time></trkpt><trkpt lat="40.77191604500276" lon="9.655086143260863"><ele>15.666666666666668</ele><time>2026-05-04T14:00:28.001Z</time></trkpt><trkpt lat="40.77210520440039" lon="9.65518380856189"><ele>15.0</ele><time>2026-05-04T14:00:29.001Z</time></trkpt><trkpt lat="40.772287740802255" lon="9.655275127560735"><ele>14.333333333333332</ele><time>2026-05-04T14:00:30.001Z</time></trkpt><trkpt lat="40.77245892846953" lon="9.655366464893302"><ele>13.666666666666666</ele><time>2026-05-04T14:00:31.001Z</time></trkpt><trkpt lat="40.772621555183306" lon="9.65545023165732"><ele>13.0</ele><time>2026-05-04T14:00:32.001Z</time></trkpt><trkpt lat="40.77278828043511" lon="9.655534215525604"><ele>13.0</ele><time>2026-05-04T14:00:33.001Z</time></trkpt><trkpt lat="40.77294330044825" lon="9.655610556522722"><ele>13.0</ele><time>2026-05-04T14:00:34.001Z</time></trkpt><trkpt lat="40.77308600119721" lon="9.655682548776245"><ele>13.0</ele><time>2026-05-04T14:00:35.001Z</time></trkpt><trkpt lat="40.77321846467995" lon="9.65575901313891"><ele>13.0</ele><time>2026-05-04T14:00:36.001Z</time></trkpt><trkpt lat="40.7733554309714" lon="9.655833874878903"><ele>13.0</ele><time>2026-05-04T14:00:37.001Z</time></trkpt><trkpt lat="40.77349684108769" lon="9.655901659787144"><ele>13.0</ele><time>2026-05-04T14:00:38.001Z</time></trkpt><trkpt lat="40.77362952823391" lon="9.655972077497374"><ele>13.0</ele><time>2026-05-04T14:00:39.001Z</time></trkpt><trkpt lat="40.773766338831024" lon="9.656033238363422"><ele>13.333333333333332</ele><time>2026-05-04T14:00:40.001Z</time></trkpt><trkpt lat="40.773909559120916" lon="9.65608871414152"><ele>13.666666666666668</ele><time>2026-05-04T14:00:41.001Z</time></trkpt><trkpt lat="40.77405705726036" lon="9.656136906385916"><ele>14.0</ele><time>2026-05-04T14:00:42.001Z</time></trkpt><trkpt lat="40.77420674076308" lon="9.656185158199243"><ele>12.666666666666668</ele><time>2026-05-04T14:00:43.001Z</time></trkpt><trkpt lat="40.77435664275295" lon="9.656218209827092"><ele>11.333333333333334</ele><time>2026-05-04T14:00:44.001Z</time></trkpt><trkpt lat="40.77450690935226" lon="9.656261466868864"><ele>10.0</ele><time>2026-05-04T14:00:45.001Z</time></trkpt><trkpt lat="40.77465895461722" lon="9.656313291603535"><ele>10.0</ele><time>2026-05-04T14:00:46.001Z</time></trkpt><trkpt lat="40.774815018390825" lon="9.656369862350997"><ele>10.0</ele><time>2026-05-04T14:00:47.001Z</time></trkpt><trkpt lat="40.77497426278003" lon="9.656425319344248"><ele>10.0</ele><time>2026-05-04T14:00:48.001Z</time></trkpt><trkpt lat="40.775131701585124" lon="9.656473632737907"><ele>10.333333333333334</ele><time>2026-05-04T14:00:49.001Z</time></trkpt><trkpt lat="40.77529019100374" lon="9.65652615543005"><ele>10.666666666666666</ele><time>2026-05-04T14:00:50.001Z</time></trkpt><trkpt lat="40.775440542914914" lon="9.656577531621643"><ele>11.0</ele><time>2026-05-04T14:00:51.001Z</time></trkpt><trkpt lat="40.77558408451854" lon="9.656628184985543"><ele>11.0</ele><time>2026-05-04T14:00:52.001Z</time></trkpt><trkpt lat="40.77572705283258" lon="9.656674306567455"><ele>11.0</ele><time>2026-05-04T14:00:53.002Z</time></trkpt><trkpt lat="40.77586946736649" lon="9.656720420980507"><ele>11.0</ele><time>2026-05-04T14:00:54.002Z</time></trkpt><trkpt lat="40.77601579148687" lon="9.656767575909454"><ele>11.0</ele><time>2026-05-04T14:00:55.002Z</time></trkpt><trkpt lat="40.776150619815546" lon="9.65681421580129"><ele>10.75</ele><time>2026-05-04T14:00:56.002Z</time></trkpt><trkpt lat="40.77627753858662" lon="9.656862550213182"><ele>10.5</ele><time>2026-05-04T14:00:57.002Z</time></trkpt><trkpt lat="40.776397581272555" lon="9.656907077564915"><ele>10.25</ele><time>2026-05-04T14:00:58.002Z</time></trkpt><trkpt lat="40.7765129862556" lon="9.656938175734851"><ele>10.0</ele><time>2026-05-04T14:00:59.002Z</time></trkpt><trkpt lat="40.77662472338831" lon="9.656957933263643"><ele>9.6</ele><time>2026-05-04T14:01:00.002Z</time></trkpt><trkpt lat="40.77673143768212" lon="9.656977857430705"><ele>9.2</ele><time>2026-05-04T14:01:01.002Z</time></trkpt><trkpt lat="40.776833355859466" lon="9.656999741166358"><ele>8.8</ele><time>2026-05-04T14:01:02.002Z</time></trkpt><trkpt lat="40.77694586987644" lon="9.657024524345363"><ele>8.4</ele><time>2026-05-04T14:01:03.002Z</time></trkpt><trkpt lat="40.777053561573275" lon="9.65705099053251"><ele>8.0</ele><time>2026-05-04T14:01:04.002Z</time></trkpt><trkpt lat="40.77716345644211" lon="9.657068225040852"><ele>8.0</ele><time>2026-05-04T14:01:05.002Z</time></trkpt><trkpt lat="40.77728146952542" lon="9.657093948468221"><ele>8.0</ele><time>2026-05-04T14:01:06.002Z</time></trkpt><trkpt lat="40.777393943668976" lon="9.657112269352336"><ele>8.0</ele><time>2026-05-04T14:01:07.002Z</time></trkpt><trkpt lat="40.77749335275429" lon="9.657129741273385"><ele>8.0</ele><time>2026-05-04T14:01:08.002Z</time></trkpt><trkpt lat="40.77759175997497" lon="9.65714438590937"><ele>8.0</ele><time>2026-05-04T14:01:09.002Z</time></trkpt><trkpt lat="40.7776888508531" lon="9.657168208663613"><ele>8.0</ele><time>2026-05-04T14:01:10.002Z</time></trkpt><trkpt lat="40.77778817906228" lon="9.657188509519829"><ele>8.0</ele><time>2026-05-04T14:01:11.002Z</time></trkpt><trkpt lat="40.77787456207995" lon="9.657204204791338"><ele>8.0</ele><time>2026-05-04T14:01:12.002Z</time></trkpt><trkpt lat="40.77796101498693" lon="9.657219225836439"><ele>8.0</ele><time>2026-05-04T14:01:13.002Z</time></trkpt><trkpt lat="40.77805526293274" lon="9.657239713999585"><ele>8.0</ele><time>2026-05-04T14:01:14.002Z</time></trkpt><trkpt lat="40.77815474735169" lon="9.657267297137857"><ele>8.0</ele><time>2026-05-04T14:01:15.002Z</time></trkpt><trkpt lat="40.778244171107225" lon="9.657293540529457"><ele>8.0</ele><time>2026-05-04T14:01:16.002Z</time></trkpt><trkpt lat="40.77832784202268" lon="9.657309283209246"><ele>8.0</ele><time>2026-05-04T14:01:17.002Z</time></trkpt><trkpt lat="40.77840253951872" lon="9.657311038655324"><ele>8.0</ele><time>2026-05-04T14:01:18.002Z</time></trkpt><trkpt lat="40.77850196756098" lon="9.657319030014179"><ele>8.0</ele><time>2026-05-04T14:01:20.002Z</time></trkpt><trkpt lat="40.778622850548125" lon="9.657361440238354"><ele>7.75</ele><time>2026-05-04T14:01:22.002Z</time></trkpt><trkpt lat="40.7787213893371" lon="9.657381373543807"><ele>7.5</ele><time>2026-05-04T14:01:23.002Z</time></trkpt><trkpt lat="40.77884636322743" lon="9.657405979245269"><ele>7.25</ele><time>2026-05-04T14:01:24.002Z</time></trkpt><trkpt lat="40.77897616688097" lon="9.657431430942312"><ele>7.0</ele><time>2026-05-04T14:01:25.002Z</time></trkpt><trkpt lat="40.77911667544367" lon="9.657451526326808"><ele>7.0</ele><time>2026-05-04T14:01:26.002Z</time></trkpt><trkpt lat="40.77924997689287" lon="9.657495112814992"><ele>7.0</ele><time>2026-05-04T14:01:27.002Z</time></trkpt><trkpt lat="40.779385327330054" lon="9.657534057327654"><ele>7.0</ele><time>2026-05-04T14:01:28.002Z</time></trkpt><trkpt lat="40.77951595318637" lon="9.657564124398766"><ele>7.0</ele><time>2026-05-04T14:01:29.002Z</time></trkpt><trkpt lat="40.77963321155183" lon="9.657582086096538"><ele>7.0</ele><time>2026-05-04T14:01:30.002Z</time></trkpt><trkpt lat="40.7797522339182" lon="9.657602796210629"><ele>7.0</ele><time>2026-05-04T14:01:31.002Z</time></trkpt><trkpt lat="40.77987586199824" lon="9.657620251649433"><ele>7.0</ele><time>2026-05-04T14:01:32.002Z</time></trkpt><trkpt lat="40.77999566133647" lon="9.65764209447001"><ele>7.0</ele><time>2026-05-04T14:01:33.002Z</time></trkpt><trkpt lat="40.78011256901296" lon="9.65766880007962"><ele>6.8</ele><time>2026-05-04T14:01:34.002Z</time></trkpt><trkpt lat="40.78022250576292" lon="9.657693593753123"><ele>6.6</ele><time>2026-05-04T14:01:35.002Z</time></trkpt><trkpt lat="40.7803230454193" lon="9.657720396823308"><ele>6.3999999999999995</ele><time>2026-05-04T14:01:36.001Z</time></trkpt><trkpt lat="40.78041991221035" lon="9.657727473820902"><ele>6.199999999999999</ele><time>2026-05-04T14:01:37.001Z</time></trkpt><trkpt lat="40.78052394891772" lon="9.657739139745297"><ele>6.0</ele><time>2026-05-04T14:01:38.001Z</time></trkpt><trkpt lat="40.78063806019194" lon="9.657762445046414"><ele>6.0</ele><time>2026-05-04T14:01:39.001Z</time></trkpt><trkpt lat="40.78075892172304" lon="9.657777290229488"><ele>6.0</ele><time>2026-05-04T14:01:40.001Z</time></trkpt><trkpt lat="40.78088396712985" lon="9.657788618108478"><ele>6.0</ele><time>2026-05-04T14:01:41.001Z</time></trkpt><trkpt lat="40.781009118063174" lon="9.657805570340997"><ele>6.0</ele><time>2026-05-04T14:01:42.001Z</time></trkpt><trkpt lat="40.78114189494969" lon="9.65781025744228"><ele>5.5</ele><time>2026-05-04T14:01:43.001Z</time></trkpt><trkpt lat="40.78127809172318" lon="9.657804786797128"><ele>5.0</ele><time>2026-05-04T14:01:44.001Z</time></trkpt><trkpt lat="40.78142031799732" lon="9.657799524707844"><ele>4.5</ele><time>2026-05-04T14:01:45.001Z</time></trkpt><trkpt lat="40.781555893884146" lon="9.657798284137936"><ele>4.0</ele><time>2026-05-04T14:01:46.001Z</time></trkpt><trkpt lat="40.78168583588676" lon="9.657791825680674"><ele>4.0</ele><time>2026-05-04T14:01:47.001Z</time></trkpt><trkpt lat="40.781819432976825" lon="9.657780117903746"><ele>4.0</ele><time>2026-05-04T14:01:48.001Z</time></trkpt><trkpt lat="40.781945465371365" lon="9.657769226667101"><ele>4.0</ele><time>2026-05-04T14:01:49.001Z</time></trkpt><trkpt lat="40.78206740181839" lon="9.657771977694999"><ele>4.0</ele><time>2026-05-04T14:01:50.001Z</time></trkpt><trkpt lat="40.78217863799053" lon="9.65777044497109"><ele>4.0</ele><time>2026-05-04T14:01:51.001Z</time></trkpt><trkpt lat="40.78230858566477" lon="9.657756759036381"><ele>4.0</ele><time>2026-05-04T14:01:52.001Z</time></trkpt><trkpt lat="40.782442944927645" lon="9.657750416630796"><ele>4.0</ele><time>2026-05-04T14:01:53.001Z</time></trkpt><trkpt lat="40.782586093547586" lon="9.657739453867492"><ele>4.0</ele><time>2026-05-04T14:01:54.001Z</time></trkpt><trkpt lat="40.7827290581519" lon="9.657727857728526"><ele>4.0</ele><time>2026-05-04T14:01:55.001Z</time></trkpt><trkpt lat="40.78287711421098" lon="9.657718886028539"><ele>4.0</ele><time>2026-05-04T14:01:56.001Z</time></trkpt><trkpt lat="40.78302546405353" lon="9.657710700693368"><ele>4.0</ele><time>2026-05-04T14:01:57.001Z</time></trkpt><trkpt lat="40.783164572070426" lon="9.657700093850819"><ele>4.0</ele><time>2026-05-04T14:01:58.001Z</time></trkpt><trkpt lat="40.78330322105265" lon="9.657694168249513"><ele>4.0</ele><time>2026-05-04T14:01:59.001Z</time></trkpt><trkpt lat="40.78345076529094" lon="9.657674925798464"><ele>4.0</ele><time>2026-05-04T14:02:00.001Z</time></trkpt><trkpt lat="40.783600484126595" lon="9.657662133452225"><ele>4.0</ele><time>2026-05-04T14:02:01.001Z</time></trkpt><trkpt lat="40.78374395585257" lon="9.657656246431621"><ele>4.0</ele><time>2026-05-04T14:02:02.001Z</time></trkpt><trkpt lat="40.78388779511842" lon="9.657653454497863"><ele>3.5</ele><time>2026-05-04T14:02:03.001Z</time></trkpt><trkpt lat="40.78402186264061" lon="9.657647426872124"><ele>3.0</ele><time>2026-05-04T14:02:04.001Z</time></trkpt><trkpt lat="40.784151933692044" lon="9.65764524458601"><ele>2.5</ele><time>2026-05-04T14:02:05.001Z</time></trkpt><trkpt lat="40.784275615785496" lon="9.65765323667941"><ele>2.0</ele><time>2026-05-04T14:02:06.001Z</time></trkpt><trkpt lat="40.78438849210922" lon="9.657666563711972"><ele>1.9999999999999998</ele><time>2026-05-04T14:02:07.001Z</time></trkpt><trkpt lat="40.78445277207002" lon="9.65769521218531"><ele>2.0</ele><time>2026-05-04T14:02:08.001Z</time></trkpt><trkpt lat="40.784541829977435" lon="9.65775641169905"><ele>2.0</ele><time>2026-05-04T14:02:11.001Z</time></trkpt><trkpt lat="40.78462359029044" lon="9.65778077202176"><ele>2.0</ele><time>2026-05-04T14:02:12.001Z</time></trkpt><trkpt lat="40.7847011532345" lon="9.657740933272828"><ele>1.9999999999999998</ele><time>2026-05-04T14:02:13.001Z</time></trkpt><trkpt lat="40.784775135527" lon="9.65767390700516"><ele>2.0</ele><time>2026-05-04T14:02:14.001Z</time></trkpt><trkpt lat="40.7848718733338" lon="9.657600636578218"><ele>2.0</ele><time>2026-05-04T14:02:15.001Z</time></trkpt><trkpt lat="40.785000866134" lon="9.657580689158378"><ele>2.0</ele><time>2026-05-04T14:02:16.001Z</time></trkpt><trkpt lat="40.78515339562163" lon="9.657572678797779"><ele>2.0</ele><time>2026-05-04T14:02:17.001Z</time></trkpt><trkpt lat="40.78532602890219" lon="9.65755756547515"><ele>2.0</ele><time>2026-05-04T14:02:18.001Z</time></trkpt><trkpt lat="40.78551281768123" lon="9.657537699706191"><ele>2.0</ele><time>2026-05-04T14:02:19.001Z</time></trkpt><trkpt lat="40.785710673552856" lon="9.657519782659238"><ele>2.0</ele><time>2026-05-04T14:02:20.001Z</time></trkpt><trkpt lat="40.785927800833186" lon="9.657496892051345"><ele>1.0</ele><time>2026-05-04T14:02:21.001Z</time></trkpt><trkpt lat="40.78616338390453" lon="9.657465306214442"><ele>0.0</ele><time>2026-05-04T14:02:22.001Z</time></trkpt><trkpt lat="40.78642072596479" lon="9.657425537019469"><ele>0.0</ele><time>2026-05-04T14:02:23.001Z</time></trkpt><trkpt lat="40.786690532125256" lon="9.657388431115287"><ele>0.0</ele><time>2026-05-04T14:02:24.001Z</time></trkpt><trkpt lat="40.786942844595735" lon="9.6573653308276"><ele>0.0</ele><time>2026-05-04T14:02:25.001Z</time></trkpt><trkpt lat="40.787177772404675" lon="9.657350882865426"><ele>0.0</ele><time>2026-05-04T14:02:26.001Z</time></trkpt><trkpt lat="40.787403639318526" lon="9.657320607071151"><ele>0.0</ele><time>2026-05-04T14:02:27.001Z</time></trkpt><trkpt lat="40.78763427433402" lon="9.6572913764747"><ele>0.0</ele><time>2026-05-04T14:02:28.001Z</time></trkpt><trkpt lat="40.78786383585044" lon="9.657233518788036"><ele>0.5</ele><time>2026-05-04T14:02:29.001Z</time></trkpt><trkpt lat="40.78808482665735" lon="9.657161797671103"><ele>1.0</ele><time>2026-05-04T14:02:30.001Z</time></trkpt><trkpt lat="40.78830742211787" lon="9.657082566913036"><ele>1.0</ele><time>2026-05-04T14:02:31.001Z</time></trkpt><trkpt lat="40.78853135614816" lon="9.657011031078419"><ele>1.0</ele><time>2026-05-04T14:02:32.001Z</time></trkpt><trkpt lat="40.788742678021286" lon="9.656950325826557"><ele>1.0</ele><time>2026-05-04T14:02:33.001Z</time></trkpt><trkpt lat="40.78895240523137" lon="9.656891336845531"><ele>1.0</ele><time>2026-05-04T14:02:34.001Z</time></trkpt><trkpt lat="40.789164328004084" lon="9.656825954830682"><ele>1.0</ele><time>2026-05-04T14:02:35.001Z</time></trkpt><trkpt lat="40.78938112991709" lon="9.656755558582052"><ele>1.0</ele><time>2026-05-04T14:02:36.001Z</time></trkpt><trkpt lat="40.78959365598208" lon="9.656685491394578"><ele>2.0</ele><time>2026-05-04T14:02:37.001Z</time></trkpt><trkpt lat="40.78980628857855" lon="9.656621854474727"><ele>3.0</ele><time>2026-05-04T14:02:38.001Z</time></trkpt><trkpt lat="40.79001705549537" lon="9.656559332405571"><ele>4.0</ele><time>2026-05-04T14:02:39.001Z</time></trkpt><trkpt lat="40.79022510819966" lon="9.656494876695882"><ele>4.0</ele><time>2026-05-04T14:02:40.001Z</time></trkpt><trkpt lat="40.79043195737156" lon="9.656433748356083"><ele>4.0</ele><time>2026-05-04T14:02:41.001Z</time></trkpt><trkpt lat="40.79062776685688" lon="9.656372520046013"><ele>4.0</ele><time>2026-05-04T14:02:42.001Z</time></trkpt><trkpt lat="40.79081175008025" lon="9.656313674918048"><ele>3.333333333333333</ele><time>2026-05-04T14:02:43.001Z</time></trkpt><trkpt lat="40.79100881257582" lon="9.656265549196636"><ele>2.6666666666666665</ele><time>2026-05-04T14:02:44.001Z</time></trkpt><trkpt lat="40.791216210458856" lon="9.656226544352934"><ele>2.0</ele><time>2026-05-04T14:02:45.001Z</time></trkpt><trkpt lat="40.79142327540112" lon="9.656196890935211"><ele>2.0</ele><time>2026-05-04T14:02:46.001Z</time></trkpt><trkpt lat="40.79163956217739" lon="9.65616895736417"><ele>2.0</ele><time>2026-05-04T14:02:47.001Z</time></trkpt><trkpt lat="40.791858372637435" lon="9.656146496827922"><ele>2.0</ele><time>2026-05-04T14:02:48.001Z</time></trkpt><trkpt lat="40.79208043914406" lon="9.65612089463625"><ele>2.0</ele><time>2026-05-04T14:02:49.001Z</time></trkpt><trkpt lat="40.792298804670224" lon="9.656106740149015"><ele>2.0</ele><time>2026-05-04T14:02:50.001Z</time></trkpt><trkpt lat="40.79250427297685" lon="9.65609086572329"><ele>2.0</ele><time>2026-05-04T14:02:51.001Z</time></trkpt><trkpt lat="40.79268464797005" lon="9.656074438063955"><ele>2.2</ele><time>2026-05-04T14:02:52.002Z</time></trkpt><trkpt lat="40.79282086324063" lon="9.65605325310391"><ele>2.4000000000000004</ele><time>2026-05-04T14:02:53.002Z</time></trkpt><trkpt lat="40.79293518647685" lon="9.656032724189615"><ele>2.5999999999999996</ele><time>2026-05-04T14:02:54.002Z</time></trkpt><trkpt lat="40.79303017961854" lon="9.656028953470853"><ele>2.8</ele><time>2026-05-04T14:02:55.002Z</time></trkpt><trkpt lat="40.793127238001716" lon="9.656023308867026"><ele>3.0</ele><time>2026-05-04T14:02:56.002Z</time></trkpt><trkpt lat="40.79322332706929" lon="9.656010536995579"><ele>3.0</ele><time>2026-05-04T14:02:57.002Z</time></trkpt><trkpt lat="40.79332170602709" lon="9.655995503062073"><ele>3.0</ele><time>2026-05-04T14:02:58.002Z</time></trkpt><trkpt lat="40.7934175904491" lon="9.655987861978026"><ele>3.0</ele><time>2026-05-04T14:02:59.002Z</time></trkpt><trkpt lat="40.793506803060716" lon="9.655979594565359"><ele>3.0</ele><time>2026-05-04T14:03:00.002Z</time></trkpt><trkpt lat="40.79360275045259" lon="9.65597142555406"><ele>3.0</ele><time>2026-05-04T14:03:01.002Z</time></trkpt><trkpt lat="40.7937008508975" lon="9.655962626718575"><ele>3.25</ele><time>2026-05-04T14:03:02.002Z</time></trkpt><trkpt lat="40.7938079525607" lon="9.655948377672066"><ele>3.5</ele><time>2026-05-04T14:03:03.002Z</time></trkpt><trkpt lat="40.7939245683564" lon="9.655937554127505"><ele>3.75</ele><time>2026-05-04T14:03:04.002Z</time></trkpt><trkpt lat="40.794046614460605" lon="9.655925945332557"><ele>4.0</ele><time>2026-05-04T14:03:05.002Z</time></trkpt><trkpt lat="40.79417583452423" lon="9.655915489971985"><ele>4.0</ele><time>2026-05-04T14:03:06.002Z</time></trkpt><trkpt lat="40.794327149334336" lon="9.655897633611533"><ele>4.0</ele><time>2026-05-04T14:03:07.002Z</time></trkpt><trkpt lat="40.794487287873054" lon="9.655876955788399"><ele>4.0</ele><time>2026-05-04T14:03:08.002Z</time></trkpt><trkpt lat="40.79464627175706" lon="9.65585903032669"><ele>3.333333333333333</ele><time>2026-05-04T14:03:09.002Z</time></trkpt><trkpt lat="40.79481694589721" lon="9.655844490897996"><ele>2.6666666666666665</ele><time>2026-05-04T14:03:10.002Z</time></trkpt><trkpt lat="40.794993146637665" lon="9.655820109477459"><ele>2.0</ele><time>2026-05-04T14:03:11.002Z</time></trkpt><trkpt lat="40.79517349657899" lon="9.655802382958637"><ele>1.6666666666666665</ele><time>2026-05-04T14:03:12.002Z</time></trkpt><trkpt lat="40.79536040656274" lon="9.655787575814342"><ele>1.3333333333333333</ele><time>2026-05-04T14:03:13.002Z</time></trkpt><trkpt lat="40.79555448093326" lon="9.65576798384645"><ele>1.0</ele><time>2026-05-04T14:03:14.002Z</time></trkpt><trkpt lat="40.79574282406294" lon="9.65574615251824"><ele>1.0</ele><time>2026-05-04T14:03:15.002Z</time></trkpt><trkpt lat="40.79591762844169" lon="9.655749057486158"><ele>1.0</ele><time>2026-05-04T14:03:16.002Z</time></trkpt><trkpt lat="40.79607787147894" lon="9.65575910111471"><ele>1.0</ele><time>2026-05-04T14:03:17.002Z</time></trkpt><trkpt lat="40.79623507923874" lon="9.655769706807911"><ele>1.25</ele><time>2026-05-04T14:03:18.002Z</time></trkpt><trkpt lat="40.79639413443787" lon="9.655775888560907"><ele>1.5</ele><time>2026-05-04T14:03:19.002Z</time></trkpt><trkpt lat="40.796517567891044" lon="9.655790192725876"><ele>1.75</ele><time>2026-05-04T14:03:20.002Z</time></trkpt><trkpt lat="40.79661147994023" lon="9.655802978030046"><ele>2.0</ele><time>2026-05-04T14:03:21.002Z</time></trkpt><trkpt lat="40.796699658653395" lon="9.655814941997301"><ele>1.9999999999999998</ele><time>2026-05-04T14:03:22.002Z</time></trkpt><trkpt lat="40.79678107512612" lon="9.655845052324858"><ele>2.0</ele><time>2026-05-04T14:03:23.002Z</time></trkpt><trkpt lat="40.7968529017011" lon="9.655862586489055"><ele>2.0</ele><time>2026-05-04T14:03:24.002Z</time></trkpt><trkpt lat="40.7969165938888" lon="9.655862634035113"><ele>2.0</ele><time>2026-05-04T14:03:25.002Z</time></trkpt><trkpt lat="40.79698526575249" lon="9.655847453129903"><ele>1.9999999999999998</ele><time>2026-05-04T14:03:26.002Z</time></trkpt><trkpt lat="40.797105469805885" lon="9.655851387704914"><ele>2.0</ele><time>2026-05-04T14:03:28.002Z</time></trkpt><trkpt lat="40.797190867545524" lon="9.655860033220986"><ele>2.0</ele><time>2026-05-04T14:03:29.002Z</time></trkpt><trkpt lat="40.79729184809633" lon="9.655869734187961"><ele>2.0</ele><time>2026-05-04T14:03:30.002Z</time></trkpt><trkpt lat="40.7974018269455" lon="9.655883179349185"><ele>2.0</ele><time>2026-05-04T14:03:31.002Z</time></trkpt><trkpt lat="40.797517202300455" lon="9.655890925882748"><ele>2.0</ele><time>2026-05-04T14:03:32.002Z</time></trkpt><trkpt lat="40.797637575889844" lon="9.655899226605209"><ele>2.0</ele><time>2026-05-04T14:03:33.002Z</time></trkpt><trkpt lat="40.79776441280674" lon="9.655907008240055"><ele>2.0</ele><time>2026-05-04T14:03:34.002Z</time></trkpt><trkpt lat="40.797912207895216" lon="9.655915531848342"><ele>2.0</ele><time>2026-05-04T14:03:35.002Z</time></trkpt><trkpt lat="40.798070463892834" lon="9.655932139193885"><ele>2.0</ele><time>2026-05-04T14:03:36.002Z</time></trkpt><trkpt lat="40.798228245384365" lon="9.65595194055401"><ele>2.0</ele><time>2026-05-04T14:03:37.002Z</time></trkpt><trkpt lat="40.79839371673304" lon="9.655972301165418"><ele>2.0</ele><time>2026-05-04T14:03:38.002Z</time></trkpt><trkpt lat="40.7985490150101" lon="9.655986564973631"><ele>2.0</ele><time>2026-05-04T14:03:39.002Z</time></trkpt><trkpt lat="40.798721137656955" lon="9.656000831613055"><ele>2.0</ele><time>2026-05-04T14:03:40.002Z</time></trkpt><trkpt lat="40.79890514666111" lon="9.656019438950864"><ele>2.0</ele><time>2026-05-04T14:03:41.002Z</time></trkpt><trkpt lat="40.799085517746704" lon="9.656033072869624"><ele>2.0</ele><time>2026-05-04T14:03:42.001Z</time></trkpt><trkpt lat="40.799264188171115" lon="9.656049204235504"><ele>1.6666666666666665</ele><time>2026-05-04T14:03:43.001Z</time></trkpt><trkpt lat="40.79942720755062" lon="9.656068638262582"><ele>1.3333333333333333</ele><time>2026-05-04T14:03:44.001Z</time></trkpt><trkpt lat="40.79958182996614" lon="9.656081176369181"><ele>1.0</ele><time>2026-05-04T14:03:45.001Z</time></trkpt><trkpt lat="40.79972250156007" lon="9.656088876403556"><ele>1.0</ele><time>2026-05-04T14:03:46.001Z</time></trkpt><trkpt lat="40.79986187908524" lon="9.656101130681785"><ele>1.0</ele><time>2026-05-04T14:03:47.001Z</time></trkpt><trkpt lat="40.80000571818648" lon="9.656110871768846"><ele>1.0</ele><time>2026-05-04T14:03:48.001Z</time></trkpt><trkpt lat="40.800149787514265" lon="9.656124571954903"><ele>1.0</ele><time>2026-05-04T14:03:49.001Z</time></trkpt><trkpt lat="40.8003045976757" lon="9.656138731551819"><ele>1.25</ele><time>2026-05-04T14:03:50.001Z</time></trkpt><trkpt lat="40.8004608836409" lon="9.656153392332568"><ele>1.5</ele><time>2026-05-04T14:03:51.001Z</time></trkpt><trkpt lat="40.80060638845151" lon="9.656168334879036"><ele>1.75</ele><time>2026-05-04T14:03:52.001Z</time></trkpt><trkpt lat="40.80074430196141" lon="9.656188129475067"><ele>2.0</ele><time>2026-05-04T14:03:53.001Z</time></trkpt><trkpt lat="40.800891667075405" lon="9.656207416960559"><ele>2.0</ele><time>2026-05-04T14:03:54.001Z</time></trkpt><trkpt lat="40.80103412718696" lon="9.656214133592128"><ele>2.0</ele><time>2026-05-04T14:03:55.001Z</time></trkpt><trkpt lat="40.8011875506941" lon="9.656229795410958"><ele>2.0</ele><time>2026-05-04T14:03:56.001Z</time></trkpt><trkpt lat="40.801329850789266" lon="9.656233612486664"><ele>2.0</ele><time>2026-05-04T14:03:57.001Z</time></trkpt><trkpt lat="40.801471654453266" lon="9.656227971826361"><ele>2.0</ele><time>2026-05-04T14:03:58.001Z</time></trkpt><trkpt lat="40.801622583974535" lon="9.656243983328803"><ele>2.0</ele><time>2026-05-04T14:03:59.001Z</time></trkpt><trkpt lat="40.80178164898156" lon="9.656267149493447"><ele>2.0</ele><time>2026-05-04T14:04:00.001Z</time></trkpt><trkpt lat="40.80194718998305" lon="9.656283737620742"><ele>1.6666666666666665</ele><time>2026-05-04T14:04:01.001Z</time></trkpt><trkpt lat="40.80210960922838" lon="9.656297207988539"><ele>1.3333333333333333</ele><time>2026-05-04T14:04:02.001Z</time></trkpt><trkpt lat="40.802276768317284" lon="9.65631424729233"><ele>1.0</ele><time>2026-05-04T14:04:03.001Z</time></trkpt><trkpt lat="40.802434355674926" lon="9.65631615965752"><ele>1.0</ele><time>2026-05-04T14:04:04.001Z</time></trkpt><trkpt lat="40.80259312836843" lon="9.656346934181244"><ele>1.0</ele><time>2026-05-04T14:04:05.001Z</time></trkpt><trkpt lat="40.80274402671541" lon="9.65636075688853"><ele>1.0</ele><time>2026-05-04T14:04:06.001Z</time></trkpt><trkpt lat="40.80287989969443" lon="9.65638072274897"><ele>1.0</ele><time>2026-05-04T14:04:07.001Z</time></trkpt><trkpt lat="40.80301794552557" lon="9.656385245875338"><ele>1.0</ele><time>2026-05-04T14:04:08.001Z</time></trkpt><trkpt lat="40.80315408584003" lon="9.656400510595299"><ele>1.0</ele><time>2026-05-04T14:04:09.001Z</time></trkpt><trkpt lat="40.80328147757151" lon="9.656402884082881"><ele>1.0</ele><time>2026-05-04T14:04:10.001Z</time></trkpt><trkpt lat="40.80341785862849" lon="9.656419750424284"><ele>1.0</ele><time>2026-05-04T14:04:11.001Z</time></trkpt><trkpt lat="40.80354865671243" lon="9.656438171161463"><ele>1.0</ele><time>2026-05-04T14:04:12.001Z</time></trkpt><trkpt lat="40.80367809710496" lon="9.656448129952002"><ele>1.0</ele><time>2026-05-04T14:04:13.001Z</time></trkpt><trkpt lat="40.80381396120589" lon="9.656461501005854"><ele>1.0</ele><time>2026-05-04T14:04:14.001Z</time></trkpt><trkpt lat="40.80395091275311" lon="9.65648648075682"><ele>1.0</ele><time>2026-05-04T14:04:15.001Z</time></trkpt><trkpt lat="40.80408655889626" lon="9.656500414696433"><ele>1.0</ele><time>2026-05-04T14:04:16.001Z</time></trkpt><trkpt lat="40.804224915671455" lon="9.656535414412494"><ele>1.0</ele><time>2026-05-04T14:04:17.001Z</time></trkpt><trkpt lat="40.80435706406308" lon="9.656577326047998"><ele>1.0</ele><time>2026-05-04T14:04:18.001Z</time></trkpt><trkpt lat="40.80448605018471" lon="9.656624083910833"><ele>1.0</ele><time>2026-05-04T14:04:19.001Z</time></trkpt><trkpt lat="40.80462428612263" lon="9.656653593126824"><ele>0.75</ele><time>2026-05-04T14:04:20.001Z</time></trkpt><trkpt lat="40.80475065051242" lon="9.656696494316307"><ele>0.5</ele><time>2026-05-04T14:04:21.001Z</time></trkpt><trkpt lat="40.804882523987345" lon="9.656747021600363"><ele>0.25</ele><time>2026-05-04T14:04:22.001Z</time></trkpt><trkpt lat="40.805022288511545" lon="9.656795287571313"><ele>0.0</ele><time>2026-05-04T14:04:23.001Z</time></trkpt><trkpt lat="40.805173149423524" lon="9.65683717952172"><ele>0.0</ele><time>2026-05-04T14:04:24.001Z</time></trkpt><trkpt lat="40.80532772648533" lon="9.656891523008467"><ele>0.0</ele><time>2026-05-04T14:04:25.001Z</time></trkpt><trkpt lat="40.80547476151267" lon="9.656949593894394"><ele>0.0</ele><time>2026-05-04T14:04:26.001Z</time></trkpt><trkpt lat="40.80563192373626" lon="9.65700337463706"><ele>0.0</ele><time>2026-05-04T14:04:27.001Z</time></trkpt><trkpt lat="40.8057958232772" lon="9.657054479307936"><ele>0.0</ele><time>2026-05-04T14:04:28.001Z</time></trkpt><trkpt lat="40.805962471046065" lon="9.657106443200385"><ele>0.0</ele><time>2026-05-04T14:04:29.001Z</time></trkpt><trkpt lat="40.80612003589844" lon="9.657146821481758"><ele>0.3333333333333333</ele><time>2026-05-04T14:04:30.001Z</time></trkpt><trkpt lat="40.806286234190175" lon="9.657206248708697"><ele>0.6666666666666666</ele><time>2026-05-04T14:04:31.001Z</time></trkpt><trkpt lat="40.80644952660487" lon="9.657260514926797"><ele>1.0</ele><time>2026-05-04T14:04:32.001Z</time></trkpt><trkpt lat="40.80661657269185" lon="9.657312664818754"><ele>1.0</ele><time>2026-05-04T14:04:33.001Z</time></trkpt><trkpt lat="40.80678601109887" lon="9.657371202491335"><ele>1.0</ele><time>2026-05-04T14:04:34.001Z</time></trkpt><trkpt lat="40.80693997394648" lon="9.657427046753039"><ele>1.0</ele><time>2026-05-04T14:04:35.001Z</time></trkpt><trkpt lat="40.807078551898776" lon="9.657477553446833"><ele>1.6666666666666665</ele><time>2026-05-04T14:04:36.001Z</time></trkpt><trkpt lat="40.80722919667916" lon="9.657517949218736"><ele>2.3333333333333335</ele><time>2026-05-04T14:04:37.001Z</time></trkpt><trkpt lat="40.80740167512381" lon="9.657568925907952"><ele>3.0</ele><time>2026-05-04T14:04:38.001Z</time></trkpt><trkpt lat="40.80757497480105" lon="9.65763765292684"><ele>3.0</ele><time>2026-05-04T14:04:39.001Z</time></trkpt><trkpt lat="40.80777244398377" lon="9.657704138341225"><ele>3.0</ele><time>2026-05-04T14:04:40.001Z</time></trkpt><trkpt lat="40.80799936236464" lon="9.657780538960928"><ele>3.0</ele><time>2026-05-04T14:04:41.001Z</time></trkpt><trkpt lat="40.80822350798061" lon="9.657854858365075"><ele>3.0</ele><time>2026-05-04T14:04:42.001Z</time></trkpt><trkpt lat="40.80845981961837" lon="9.657932608542868"><ele>3.0</ele><time>2026-05-04T14:04:43.001Z</time></trkpt><trkpt lat="40.808707371172616" lon="9.658016168259257"><ele>4.5</ele><time>2026-05-04T14:04:44.001Z</time></trkpt><trkpt lat="40.80897738631558" lon="9.65810757053104"><ele>6.0</ele><time>2026-05-04T14:04:45.001Z</time></trkpt><trkpt lat="40.80928046933399" lon="9.658207036732396"><ele>7.0</ele><time>2026-05-04T14:04:46.001Z</time></trkpt><trkpt lat="40.80960535688901" lon="9.658315150808924"><ele>8.0</ele><time>2026-05-04T14:04:47.001Z</time></trkpt><trkpt lat="40.80994175714946" lon="9.65843425003281"><ele>8.5</ele><time>2026-05-04T14:04:48.001Z</time></trkpt><trkpt lat="40.810290588312064" lon="9.658548535445378"><ele>9.0</ele><time>2026-05-04T14:04:49.001Z</time></trkpt><trkpt lat="40.81064199574926" lon="9.658662904001174"><ele>8.0</ele><time>2026-05-04T14:04:50.001Z</time></trkpt><trkpt lat="40.81098974827748" lon="9.658785472792777"><ele>7.0</ele><time>2026-05-04T14:04:51.001Z</time></trkpt><trkpt lat="40.81132422543691" lon="9.65889690511861"><ele>7.0</ele><time>2026-05-04T14:04:52.001Z</time></trkpt><trkpt lat="40.81166398059303" lon="9.65901245620405"><ele>7.0</ele><time>2026-05-04T14:04:53.001Z</time></trkpt><trkpt lat="40.81200665085507" lon="9.659131171544356"><ele>8.5</ele><time>2026-05-04T14:04:54.001Z</time></trkpt><trkpt lat="40.81235640382177" lon="9.659256912275184"><ele>10.0</ele><time>2026-05-04T14:04:55.001Z</time></trkpt><trkpt lat="40.812695282227644" lon="9.659361611535372"><ele>11.0</ele><time>2026-05-04T14:04:56.001Z</time></trkpt><trkpt lat="40.81302810879985" lon="9.659465860133151"><ele>12.0</ele><time>2026-05-04T14:04:57.001Z</time></trkpt><trkpt lat="40.81335778881233" lon="9.659578364179875"><ele>13.5</ele><time>2026-05-04T14:04:58.001Z</time></trkpt><trkpt lat="40.813682064933516" lon="9.659686627585176"><ele>15.0</ele><time>2026-05-04T14:04:59.001Z</time></trkpt><trkpt lat="40.81399301719262" lon="9.659796995942349"><ele>15.0</ele><time>2026-05-04T14:05:00.001Z</time></trkpt><trkpt lat="40.814276754711905" lon="9.659897742161313"><ele>15.0</ele><time>2026-05-04T14:05:01.001Z</time></trkpt><trkpt lat="40.81453933522692" lon="9.659983849859112"><ele>17.0</ele><time>2026-05-04T14:05:02.001Z</time></trkpt><trkpt lat="40.81477612152374" lon="9.66006136619248"><ele>19.0</ele><time>2026-05-04T14:05:03.001Z</time></trkpt><trkpt lat="40.815012156751465" lon="9.660128434821836"><ele>19.0</ele><time>2026-05-04T14:05:04.001Z</time></trkpt><trkpt lat="40.8152549665137" lon="9.660146682474595"><ele>19.0</ele><time>2026-05-04T14:05:05.002Z</time></trkpt><trkpt lat="40.81551283037501" lon="9.660110964169704"><ele>19.0</ele><time>2026-05-04T14:05:06.002Z</time></trkpt><trkpt lat="40.815796332404844" lon="9.660056304147012"><ele>19.0</ele><time>2026-05-04T14:05:07.002Z</time></trkpt><trkpt lat="40.816088019214185" lon="9.660001804801679"><ele>19.5</ele><time>2026-05-04T14:05:08.002Z</time></trkpt><trkpt lat="40.81637557296069" lon="9.659941808090764"><ele>20.0</ele><time>2026-05-04T14:05:09.002Z</time></trkpt><trkpt lat="40.81666212209228" lon="9.659887095082114"><ele>19.5</ele><time>2026-05-04T14:05:10.002Z</time></trkpt><trkpt lat="40.816947449303505" lon="9.659843603436268"><ele>19.0</ele><time>2026-05-04T14:05:11.002Z</time></trkpt><trkpt lat="40.81723296522026" lon="9.659777605386505"><ele>19.0</ele><time>2026-05-04T14:05:12.002Z</time></trkpt><trkpt lat="40.81750946009526" lon="9.659740615858547"><ele>19.0</ele><time>2026-05-04T14:05:13.002Z</time></trkpt><trkpt lat="40.81777876444564" lon="9.659700520164604"><ele>19.5</ele><time>2026-05-04T14:05:14.002Z</time></trkpt><trkpt lat="40.81803684356676" lon="9.659662285459174"><ele>20.0</ele><time>2026-05-04T14:05:15.002Z</time></trkpt><trkpt lat="40.81828009624549" lon="9.659627267076523"><ele>21.333333333333336</ele><time>2026-05-04T14:05:16.002Z</time></trkpt><trkpt lat="40.81850402428511" lon="9.659583745696938"><ele>22.666666666666668</ele><time>2026-05-04T14:05:17.002Z</time></trkpt><trkpt lat="40.81871499083566" lon="9.659553257938366"><ele>24.0</ele><time>2026-05-04T14:05:18.002Z</time></trkpt><trkpt lat="40.81891490762196" lon="9.659529430935876"><ele>24.0</ele><time>2026-05-04T14:05:19.002Z</time></trkpt><trkpt lat="40.81910452251248" lon="9.65949340329385"><ele>24.0</ele><time>2026-05-04T14:05:20.002Z</time></trkpt><trkpt lat="40.819278783690116" lon="9.659459532686531"><ele>24.0</ele><time>2026-05-04T14:05:21.002Z</time></trkpt><trkpt lat="40.81943713540879" lon="9.659432631517397"><ele>25.0</ele><time>2026-05-04T14:05:22.002Z</time></trkpt><trkpt lat="40.81959907696995" lon="9.659407934337189"><ele>26.0</ele><time>2026-05-04T14:05:23.002Z</time></trkpt><trkpt lat="40.81976032538071" lon="9.659382549960846"><ele>27.0</ele><time>2026-05-04T14:05:24.002Z</time></trkpt><trkpt lat="40.81991339710922" lon="9.659361160955976"><ele>27.0</ele><time>2026-05-04T14:05:25.002Z</time></trkpt><trkpt lat="40.820074961627256" lon="9.659337745020672"><ele>27.0</ele><time>2026-05-04T14:05:26.002Z</time></trkpt><trkpt lat="40.820238175638124" lon="9.659309493998284"><ele>27.0</ele><time>2026-05-04T14:05:27.002Z</time></trkpt><trkpt lat="40.82039873876882" lon="9.659285151954544"><ele>27.333333333333336</ele><time>2026-05-04T14:05:28.002Z</time></trkpt><trkpt lat="40.820569844112526" lon="9.659262096479695"><ele>27.666666666666668</ele><time>2026-05-04T14:05:29.002Z</time></trkpt><trkpt lat="40.820737416807134" lon="9.65924978101771"><ele>28.0</ele><time>2026-05-04T14:05:30.002Z</time></trkpt><trkpt lat="40.82090983388485" lon="9.659240663393854"><ele>29.0</ele><time>2026-05-04T14:05:31.002Z</time></trkpt><trkpt lat="40.82107871485307" lon="9.659242674929219"><ele>30.0</ele><time>2026-05-04T14:05:32.002Z</time></trkpt><trkpt lat="40.8212373420947" lon="9.659261439567919"><ele>31.0</ele><time>2026-05-04T14:05:33.002Z</time></trkpt><trkpt lat="40.82138328612151" lon="9.65930150714944"><ele>31.0</ele><time>2026-05-04T14:05:34.002Z</time></trkpt><trkpt lat="40.82151316162777" lon="9.659332583662252"><ele>31.0</ele><time>2026-05-04T14:05:35.002Z</time></trkpt><trkpt lat="40.82163677821891" lon="9.659380576038107"><ele>31.0</ele><time>2026-05-04T14:05:36.002Z</time></trkpt><trkpt lat="40.82175554652797" lon="9.65941829008611"><ele>31.0</ele><time>2026-05-04T14:05:37.002Z</time></trkpt><trkpt lat="40.82186051953201" lon="9.659452559466208"><ele>31.166666666666668</ele><time>2026-05-04T14:05:38.002Z</time></trkpt><trkpt lat="40.82194784893267" lon="9.65946617343926"><ele>31.333333333333336</ele><time>2026-05-04T14:05:39.002Z</time></trkpt><trkpt lat="40.82201763963741" lon="9.659476122285511"><ele>31.5</ele><time>2026-05-04T14:05:40.002Z</time></trkpt><trkpt lat="40.8220875242821" lon="9.659484935034108"><ele>31.666666666666664</ele><time>2026-05-04T14:05:41.002Z</time></trkpt><trkpt lat="40.82216387313799" lon="9.659502997804914"><ele>31.833333333333332</ele><time>2026-05-04T14:05:42.002Z</time></trkpt><trkpt lat="40.82224766045579" lon="9.659533364858937"><ele>32.0</ele><time>2026-05-04T14:05:43.002Z</time></trkpt><trkpt lat="40.822330960316066" lon="9.659553880383207"><ele>32.0</ele><time>2026-05-04T14:05:44.002Z</time></trkpt><trkpt lat="40.82243010186913" lon="9.65957261694699"><ele>32.0</ele><time>2026-05-04T14:05:45.002Z</time></trkpt><trkpt lat="40.82254005643923" lon="9.659601171584544"><ele>32.0</ele><time>2026-05-04T14:05:46.002Z</time></trkpt><trkpt lat="40.82265208449298" lon="9.659634123389921"><ele>32.0</ele><time>2026-05-04T14:05:47.002Z</time></trkpt><trkpt lat="40.822769982504845" lon="9.659659589859054"><ele>32.0</ele><time>2026-05-04T14:05:48.001Z</time></trkpt><trkpt lat="40.822888655218755" lon="9.659690519150148"><ele>32.666666666666664</ele><time>2026-05-04T14:05:49.001Z</time></trkpt><trkpt lat="40.82303651258564" lon="9.659731588642526"><ele>33.333333333333336</ele><time>2026-05-04T14:05:50.001Z</time></trkpt><trkpt lat="40.82321596712891" lon="9.659767850146235"><ele>34.0</ele><time>2026-05-04T14:05:51.001Z</time></trkpt><trkpt lat="40.823400443061225" lon="9.659812965751337"><ele>35.333333333333336</ele><time>2026-05-04T14:05:52.001Z</time></trkpt><trkpt lat="40.8236137641428" lon="9.659876752089676"><ele>36.666666666666664</ele><time>2026-05-04T14:05:53.001Z</time></trkpt><trkpt lat="40.82382945208021" lon="9.659936292376436"><ele>38.0</ele><time>2026-05-04T14:05:54.001Z</time></trkpt><trkpt lat="40.8240429826389" lon="9.659980965365245"><ele>38.0</ele><time>2026-05-04T14:05:55.001Z</time></trkpt><trkpt lat="40.82425924672225" lon="9.660036088666557"><ele>38.0</ele><time>2026-05-04T14:05:56.001Z</time></trkpt><trkpt lat="40.8244698004447" lon="9.660099249649933"><ele>38.0</ele><time>2026-05-04T14:05:57.001Z</time></trkpt><trkpt lat="40.82466229607794" lon="9.660147749998295"><ele>38.666666666666664</ele><time>2026-05-04T14:05:58.001Z</time></trkpt><trkpt lat="40.82483755638943" lon="9.660191653453134"><ele>39.333333333333336</ele><time>2026-05-04T14:05:59.001Z</time></trkpt><trkpt lat="40.824996328975345" lon="9.660238623157662"><ele>40.0</ele><time>2026-05-04T14:06:00.001Z</time></trkpt><trkpt lat="40.82514684191285" lon="9.660278992154925"><ele>40.25</ele><time>2026-05-04T14:06:01.001Z</time></trkpt><trkpt lat="40.825284105961714" lon="9.660333632093886"><ele>40.5</ele><time>2026-05-04T14:06:02.001Z</time></trkpt><trkpt lat="40.82540616424179" lon="9.66041467006238"><ele>40.75</ele><time>2026-05-04T14:06:03.001Z</time></trkpt><trkpt lat="40.82551461882366" lon="9.66051386174646"><ele>41.0</ele><time>2026-05-04T14:06:04.001Z</time></trkpt><trkpt lat="40.82561424165917" lon="9.660657892526862"><ele>41.0</ele><time>2026-05-04T14:06:05.001Z</time></trkpt><trkpt lat="40.8257192780389" lon="9.660797648413086"><ele>41.0</ele><time>2026-05-04T14:06:06.001Z</time></trkpt><trkpt lat="40.82584531925684" lon="9.660957363491459"><ele>41.0</ele><time>2026-05-04T14:06:07.001Z</time></trkpt><trkpt lat="40.8259937356238" lon="9.661122709643362"><ele>38.666666666666664</ele><time>2026-05-04T14:06:08.001Z</time></trkpt><trkpt lat="40.82613439758648" lon="9.661292896057022"><ele>36.333333333333336</ele><time>2026-05-04T14:06:09.001Z</time></trkpt><trkpt lat="40.826303245238385" lon="9.661507261835458"><ele>34.0</ele><time>2026-05-04T14:06:10.001Z</time></trkpt><trkpt lat="40.82649457015758" lon="9.661722531337343"><ele>32.5</ele><time>2026-05-04T14:06:11.001Z</time></trkpt><trkpt lat="40.82666079529638" lon="9.661959646183425"><ele>31.0</ele><time>2026-05-04T14:06:12.001Z</time></trkpt><trkpt lat="40.82681871464238" lon="9.662174996082856"><ele>30.0</ele><time>2026-05-04T14:06:13.001Z</time></trkpt><trkpt lat="40.82699061627558" lon="9.662357014597317"><ele>29.0</ele><time>2026-05-04T14:06:14.001Z</time></trkpt><trkpt lat="40.827168150305184" lon="9.662474790415487"><ele>28.0</ele><time>2026-05-04T14:06:15.001Z</time></trkpt><trkpt lat="40.82736007175855" lon="9.662521163824962"><ele>28.0</ele><time>2026-05-04T14:06:16.001Z</time></trkpt><trkpt lat="40.82758468483977" lon="9.662501528931426"><ele>28.0</ele><time>2026-05-04T14:06:17.001Z</time></trkpt><trkpt lat="40.82785260897111" lon="9.66245320014905"><ele>26.5</ele><time>2026-05-04T14:06:18.001Z</time></trkpt><trkpt lat="40.82812658806889" lon="9.662430155377358"><ele>25.0</ele><time>2026-05-04T14:06:19.001Z</time></trkpt><trkpt lat="40.82840808453834" lon="9.662403670679646"><ele>25.0</ele><time>2026-05-04T14:06:20.001Z</time></trkpt><trkpt lat="40.82868157850478" lon="9.662369627356712"><ele>25.0</ele><time>2026-05-04T14:06:21.001Z</time></trkpt><trkpt lat="40.82893503497497" lon="9.66236057252124"><ele>25.0</ele><time>2026-05-04T14:06:22.001Z</time></trkpt><trkpt lat="40.82918016952796" lon="9.662401122525774"><ele>25.0</ele><time>2026-05-04T14:06:23.001Z</time></trkpt><trkpt lat="40.82942002614186" lon="9.66251883521427"><ele>26.5</ele><time>2026-05-04T14:06:24.001Z</time></trkpt><trkpt lat="40.82965006449617" lon="9.662714996565327"><ele>28.0</ele><time>2026-05-04T14:06:25.001Z</time></trkpt><trkpt lat="40.8298799160915" lon="9.662926014741636"><ele>27.5</ele><time>2026-05-04T14:06:26.001Z</time></trkpt><trkpt lat="40.83011890972135" lon="9.663113896667086"><ele>27.0</ele><time>2026-05-04T14:06:27.001Z</time></trkpt><trkpt lat="40.83035073728717" lon="9.663303034567763"><ele>27.0</ele><time>2026-05-04T14:06:28.001Z</time></trkpt><trkpt lat="40.83057438311393" lon="9.663477863288199"><ele>27.0</ele><time>2026-05-04T14:06:29.001Z</time></trkpt><trkpt lat="40.8307750512975" lon="9.663640551835126"><ele>24.0</ele><time>2026-05-04T14:06:30.001Z</time></trkpt><trkpt lat="40.830966078831494" lon="9.663787273560967"><ele>21.0</ele><time>2026-05-04T14:06:31.001Z</time></trkpt><trkpt lat="40.83114992408655" lon="9.663925919750849"><ele>18.0</ele><time>2026-05-04T14:06:32.001Z</time></trkpt><trkpt lat="40.83133098158028" lon="9.664038814935472"><ele>17.666666666666668</ele><time>2026-05-04T14:06:33.001Z</time></trkpt><trkpt lat="40.831531580327535" lon="9.664095720452753"><ele>17.333333333333336</ele><time>2026-05-04T14:06:34.001Z</time></trkpt><trkpt lat="40.8317489409795" lon="9.664097242569802"><ele>17.0</ele><time>2026-05-04T14:06:35.001Z</time></trkpt><trkpt lat="40.831951428803436" lon="9.664105983887417"><ele>16.666666666666668</ele><time>2026-05-04T14:06:36.001Z</time></trkpt><trkpt lat="40.83212757369723" lon="9.664134964946706"><ele>16.333333333333332</ele><time>2026-05-04T14:06:37.001Z</time></trkpt><trkpt lat="40.83228490571013" lon="9.664165309150766"><ele>16.0</ele><time>2026-05-04T14:06:38.001Z</time></trkpt><trkpt lat="40.832427852174995" lon="9.664188835323747"><ele>15.999999999999998</ele><time>2026-05-04T14:06:39.001Z</time></trkpt><trkpt lat="40.832515507209905" lon="9.664197841086416"><ele>16.0</ele><time>2026-05-04T14:06:40.001Z</time></trkpt><trkpt lat="40.83258513843164" lon="9.6642012975208"><ele>16.0</ele><time>2026-05-04T14:06:41.001Z</time></trkpt><trkpt lat="40.832650528317224" lon="9.6642018054242"><ele>16.0</ele><time>2026-05-04T14:06:42.001Z</time></trkpt><trkpt lat="40.832726292276874" lon="9.664235198587066"><ele>15.999999999999998</ele><time>2026-05-04T14:06:44.001Z</time></trkpt><trkpt lat="40.83278796590497" lon="9.66432839001866"><ele>16.0</ele><time>2026-05-04T14:06:46.001Z</time></trkpt><trkpt lat="40.83277457265314" lon="9.664437330783487"><ele>15.333333333333332</ele><time>2026-05-04T14:06:47.001Z</time></trkpt><trkpt lat="40.83277815357643" lon="9.664596264199206"><ele>14.666666666666668</ele><time>2026-05-04T14:06:48.001Z</time></trkpt><trkpt lat="40.83275116748172" lon="9.664824355094634"><ele>14.0</ele><time>2026-05-04T14:06:49.001Z</time></trkpt><trkpt lat="40.83275018378467" lon="9.665087914619274"><ele>13.666666666666668</ele><time>2026-05-04T14:06:50.001Z</time></trkpt><trkpt lat="40.83272808080869" lon="9.665324341071473"><ele>13.333333333333332</ele><time>2026-05-04T14:06:51.001Z</time></trkpt><trkpt lat="40.832716076299825" lon="9.66554500050286"><ele>13.0</ele><time>2026-05-04T14:06:52.001Z</time></trkpt><trkpt lat="40.83270517264604" lon="9.665761528266204"><ele>13.0</ele><time>2026-05-04T14:06:53.001Z</time></trkpt><trkpt lat="40.832693530488825" lon="9.665992721397537"><ele>13.0</ele><time>2026-05-04T14:06:54.001Z</time></trkpt><trkpt lat="40.832684034224634" lon="9.666221858263876"><ele>13.0</ele><time>2026-05-04T14:06:55.001Z</time></trkpt><trkpt lat="40.83269078055848" lon="9.666447656698994"><ele>13.0</ele><time>2026-05-04T14:06:56.001Z</time></trkpt><trkpt lat="40.83267503540308" lon="9.666650891178659"><ele>13.0</ele><time>2026-05-04T14:06:57.001Z</time></trkpt><trkpt lat="40.83265652986932" lon="9.666814556214742"><ele>13.0</ele><time>2026-05-04T14:06:58.001Z</time></trkpt><trkpt lat="40.83264312374261" lon="9.667015789897755"><ele>13.0</ele><time>2026-05-04T14:06:59.001Z</time></trkpt><trkpt lat="40.83264147153079" lon="9.667206829711473"><ele>12.75</ele><time>2026-05-04T14:07:00.001Z</time></trkpt><trkpt lat="40.83267280390917" lon="9.667379054351603"><ele>12.5</ele><time>2026-05-04T14:07:01.001Z</time></trkpt><trkpt lat="40.83274756741774" lon="9.66752341496472"><ele>12.25</ele><time>2026-05-04T14:07:02.001Z</time></trkpt><trkpt lat="40.832849120802955" lon="9.667648806556157"><ele>12.0</ele><time>2026-05-04T14:07:03.001Z</time></trkpt><trkpt lat="40.832987300443556" lon="9.667728632858163"><ele>12.0</ele><time>2026-05-04T14:07:04.001Z</time></trkpt><trkpt lat="40.83312410488731" lon="9.667756429442353"><ele>12.0</ele><time>2026-05-04T14:07:05.001Z</time></trkpt><trkpt lat="40.833276709323556" lon="9.667779900989567"><ele>12.0</ele><time>2026-05-04T14:07:06.001Z</time></trkpt><trkpt lat="40.83342488865196" lon="9.667772271167761"><ele>12.0</ele><time>2026-05-04T14:07:07.001Z</time></trkpt><trkpt lat="40.83358431130153" lon="9.667787540212966"><ele>11.5</ele><time>2026-05-04T14:07:08.001Z</time></trkpt><trkpt lat="40.833730467129655" lon="9.66780569213996"><ele>11.0</ele><time>2026-05-04T14:07:09.001Z</time></trkpt><trkpt lat="40.833852216719656" lon="9.667815975747313"><ele>10.5</ele><time>2026-05-04T14:07:10.001Z</time></trkpt><trkpt lat="40.83396097790468" lon="9.667829790787447"><ele>10.0</ele><time>2026-05-04T14:07:11.001Z</time></trkpt><trkpt lat="40.834058694379195" lon="9.667872183086743"><ele>10.0</ele><time>2026-05-04T14:07:12.001Z</time></trkpt><trkpt lat="40.83414707825125" lon="9.667968373476633"><ele>10.0</ele><time>2026-05-04T14:07:13.001Z</time></trkpt><trkpt lat="40.834218805904904" lon="9.668119712948343"><ele>10.0</ele><time>2026-05-04T14:07:14.001Z</time></trkpt><trkpt lat="40.8342552466139" lon="9.668306544660792"><ele>10.0</ele><time>2026-05-04T14:07:15.001Z</time></trkpt><trkpt lat="40.834283887219264" lon="9.668531697508149"><ele>10.0</ele><time>2026-05-04T14:07:16.001Z</time></trkpt><trkpt lat="40.83432435963525" lon="9.668812435370672"><ele>10.0</ele><time>2026-05-04T14:07:17.001Z</time></trkpt><trkpt lat="40.83436757877357" lon="9.669060267500058"><ele>10.0</ele><time>2026-05-04T14:07:18.001Z</time></trkpt><trkpt lat="40.834407263494946" lon="9.669287459180314"><ele>9.5</ele><time>2026-05-04T14:07:19.002Z</time></trkpt><trkpt lat="40.83445325125033" lon="9.669572106979839"><ele>9.0</ele><time>2026-05-04T14:07:20.002Z</time></trkpt><trkpt lat="40.83450050279058" lon="9.669901402069176"><ele>9.0</ele><time>2026-05-04T14:07:21.002Z</time></trkpt><trkpt lat="40.83455848626462" lon="9.670269860396816"><ele>9.0</ele><time>2026-05-04T14:07:22.002Z</time></trkpt><trkpt lat="40.83461917097759" lon="9.670637919910027"><ele>9.0</ele><time>2026-05-04T14:07:23.002Z</time></trkpt><trkpt lat="40.83466377701724" lon="9.670970317600506"><ele>9.0</ele><time>2026-05-04T14:07:24.002Z</time></trkpt><trkpt lat="40.83470575370261" lon="9.671288671781186"><ele>8.0</ele><time>2026-05-04T14:07:25.002Z</time></trkpt><trkpt lat="40.83475304836289" lon="9.67159146136563"><ele>7.0</ele><time>2026-05-04T14:07:26.002Z</time></trkpt><trkpt lat="40.83480249221205" lon="9.671871801470695"><ele>6.666666666666667</ele><time>2026-05-04T14:07:27.002Z</time></trkpt><trkpt lat="40.834849402486945" lon="9.672120593105777"><ele>6.333333333333334</ele><time>2026-05-04T14:07:28.002Z</time></trkpt><trkpt lat="40.83491911136654" lon="9.672362838717632"><ele>6.0</ele><time>2026-05-04T14:07:29.002Z</time></trkpt><trkpt lat="40.83501014632584" lon="9.672598898939903"><ele>5.666666666666667</ele><time>2026-05-04T14:07:30.002Z</time></trkpt><trkpt lat="40.83510875858929" lon="9.672832733187963"><ele>5.333333333333334</ele><time>2026-05-04T14:07:31.002Z</time></trkpt><trkpt lat="40.835213939680095" lon="9.673088877693377"><ele>5.0</ele><time>2026-05-04T14:07:32.002Z</time></trkpt><trkpt lat="40.835300268680065" lon="9.673324018559425"><ele>6.0</ele><time>2026-05-04T14:07:33.002Z</time></trkpt><trkpt lat="40.835379820260414" lon="9.673531655159126"><ele>7.0</ele><time>2026-05-04T14:07:34.002Z</time></trkpt><trkpt lat="40.83545842001966" lon="9.67372485520716"><ele>8.0</ele><time>2026-05-04T14:07:35.002Z</time></trkpt><trkpt lat="40.835539541295255" lon="9.673920585618875"><ele>8.0</ele><time>2026-05-04T14:07:36.002Z</time></trkpt><trkpt lat="40.835618232595586" lon="9.674124157724286"><ele>8.0</ele><time>2026-05-04T14:07:37.002Z</time></trkpt><trkpt lat="40.83568992300864" lon="9.674321166640182"><ele>8.0</ele><time>2026-05-04T14:07:38.002Z</time></trkpt><trkpt lat="40.83575550819915" lon="9.674504689381873"><ele>8.666666666666666</ele><time>2026-05-04T14:07:39.002Z</time></trkpt><trkpt lat="40.835827488872006" lon="9.674691725071092"><ele>9.333333333333334</ele><time>2026-05-04T14:07:40.002Z</time></trkpt><trkpt lat="40.835923532199985" lon="9.674868622882856"><ele>10.0</ele><time>2026-05-04T14:07:41.002Z</time></trkpt><trkpt lat="40.836046680682486" lon="9.67503763695231"><ele>11.666666666666668</ele><time>2026-05-04T14:07:42.002Z</time></trkpt><trkpt lat="40.83618506543773" lon="9.675206200920158"><ele>13.333333333333334</ele><time>2026-05-04T14:07:43.002Z</time></trkpt><trkpt lat="40.83634060250319" lon="9.675351391456688"><ele>15.0</ele><time>2026-05-04T14:07:44.002Z</time></trkpt><trkpt lat="40.836482239700054" lon="9.675528002199522"><ele>15.0</ele><time>2026-05-04T14:07:45.002Z</time></trkpt><trkpt lat="40.83661922375279" lon="9.6756940838678"><ele>15.0</ele><time>2026-05-04T14:07:46.002Z</time></trkpt><trkpt lat="40.83674685340514" lon="9.675903519884235"><ele>15.0</ele><time>2026-05-04T14:07:47.002Z</time></trkpt><trkpt lat="40.836884204698904" lon="9.676110599239017"><ele>17.5</ele><time>2026-05-04T14:07:48.002Z</time></trkpt><trkpt lat="40.837003825020545" lon="9.676378367639991"><ele>20.0</ele><time>2026-05-04T14:07:49.002Z</time></trkpt><trkpt lat="40.837138344341255" lon="9.676637265996254"><ele>20.0</ele><time>2026-05-04T14:07:50.002Z</time></trkpt><trkpt lat="40.8372800289884" lon="9.676886395946156"><ele>20.0</ele><time>2026-05-04T14:07:51.002Z</time></trkpt><trkpt lat="40.8374137960149" lon="9.677138000455837"><ele>17.5</ele><time>2026-05-04T14:07:52.002Z</time></trkpt><trkpt lat="40.8375418372149" lon="9.677384052013789"><ele>15.0</ele><time>2026-05-04T14:07:53.002Z</time></trkpt><trkpt lat="40.837673661089006" lon="9.677633841995565"><ele>17.333333333333332</ele><time>2026-05-04T14:07:54.001Z</time></trkpt><trkpt lat="40.83779461169176" lon="9.677889360478549"><ele>19.666666666666664</ele><time>2026-05-04T14:07:55.001Z</time></trkpt><trkpt lat="40.83791674034429" lon="9.678129244692181"><ele>22.0</ele><time>2026-05-04T14:07:56.001Z</time></trkpt><trkpt lat="40.83803720887764" lon="9.678343827395945"><ele>22.0</ele><time>2026-05-04T14:07:57.001Z</time></trkpt><trkpt lat="40.83815151911924" lon="9.678556781714937"><ele>22.0</ele><time>2026-05-04T14:07:58.001Z</time></trkpt><trkpt lat="40.83826402010945" lon="9.678762536025866"><ele>22.0</ele><time>2026-05-04T14:07:59.001Z</time></trkpt><trkpt lat="40.8383796594039" lon="9.678958462812835"><ele>22.333333333333332</ele><time>2026-05-04T14:08:00.001Z</time></trkpt><trkpt lat="40.83850262680852" lon="9.679151209872387"><ele>22.666666666666668</ele><time>2026-05-04T14:08:01.001Z</time></trkpt><trkpt lat="40.838631004375735" lon="9.67933385583472"><ele>23.0</ele><time>2026-05-04T14:08:02.001Z</time></trkpt><trkpt lat="40.83876290597709" lon="9.679489926886413"><ele>21.333333333333336</ele><time>2026-05-04T14:08:03.001Z</time></trkpt><trkpt lat="40.8389037254025" lon="9.679607519606199"><ele>19.666666666666668</ele><time>2026-05-04T14:08:04.001Z</time></trkpt><trkpt lat="40.839063528725234" lon="9.6796791811849"><ele>18.0</ele><time>2026-05-04T14:08:05.001Z</time></trkpt><trkpt lat="40.83924111568956" lon="9.679708969080744"><ele>18.0</ele><time>2026-05-04T14:08:06.001Z</time></trkpt><trkpt lat="40.83942622916772" lon="9.679734511698882"><ele>18.0</ele><time>2026-05-04T14:08:07.001Z</time></trkpt><trkpt lat="40.83956426502918" lon="9.679809399337824"><ele>18.0</ele><time>2026-05-04T14:08:08.001Z</time></trkpt><trkpt lat="40.839660315293074" lon="9.679901363478002"><ele>18.0</ele><time>2026-05-04T14:08:09.001Z</time></trkpt><trkpt lat="40.83973246469333" lon="9.680030442895905"><ele>18.0</ele><time>2026-05-04T14:08:10.001Z</time></trkpt><trkpt lat="40.83981179314266" lon="9.68021103150762"><ele>18.0</ele><time>2026-05-04T14:08:11.001Z</time></trkpt><trkpt lat="40.83990531762595" lon="9.680435720166958"><ele>16.5</ele><time>2026-05-04T14:08:12.001Z</time></trkpt><trkpt lat="40.840001853946845" lon="9.680731261300746"><ele>15.0</ele><time>2026-05-04T14:08:13.001Z</time></trkpt><trkpt lat="40.84010106199428" lon="9.681026024399467"><ele>15.0</ele><time>2026-05-04T14:08:14.001Z</time></trkpt><trkpt lat="40.8402098537357" lon="9.68135865123501"><ele>15.0</ele><time>2026-05-04T14:08:15.001Z</time></trkpt><trkpt lat="40.84030706141877" lon="9.681674639398397"><ele>14.5</ele><time>2026-05-04T14:08:16.001Z</time></trkpt><trkpt lat="40.840404742143114" lon="9.681963887694437"><ele>14.0</ele><time>2026-05-04T14:08:17.001Z</time></trkpt><trkpt lat="40.84050988894732" lon="9.68224743347244"><ele>14.0</ele><time>2026-05-04T14:08:18.001Z</time></trkpt><trkpt lat="40.840609957009974" lon="9.68253277524826"><ele>14.0</ele><time>2026-05-04T14:08:19.001Z</time></trkpt><trkpt lat="40.840711121932465" lon="9.682830561559058"><ele>12.5</ele><time>2026-05-04T14:08:20.001Z</time></trkpt><trkpt lat="40.84081136568409" lon="9.683130120329738"><ele>11.0</ele><time>2026-05-04T14:08:21.001Z</time></trkpt><trkpt lat="40.84090772714794" lon="9.683419433721252"><ele>10.0</ele><time>2026-05-04T14:08:22.001Z</time></trkpt><trkpt lat="40.84099685838904" lon="9.683701629407974"><ele>9.0</ele><time>2026-05-04T14:08:23.001Z</time></trkpt><trkpt lat="40.841082256111626" lon="9.683967041128724"><ele>9.0</ele><time>2026-05-04T14:08:24.001Z</time></trkpt><trkpt lat="40.84117282042379" lon="9.6841996805768"><ele>9.0</ele><time>2026-05-04T14:08:25.001Z</time></trkpt><trkpt lat="40.8412459294779" lon="9.684427318218978"><ele>9.0</ele><time>2026-05-04T14:08:26.001Z</time></trkpt><trkpt lat="40.84129816585207" lon="9.684642872480506"><ele>8.5</ele><time>2026-05-04T14:08:27.001Z</time></trkpt><trkpt lat="40.84133482675276" lon="9.68484197246751"><ele>8.0</ele><time>2026-05-04T14:08:28.001Z</time></trkpt><trkpt lat="40.841309816755015" lon="9.685021335530946"><ele>7.5</ele><time>2026-05-04T14:08:29.001Z</time></trkpt><trkpt lat="40.84124600270562" lon="9.685199118787775"><ele>7.0</ele><time>2026-05-04T14:08:30.001Z</time></trkpt><trkpt lat="40.84115958949341" lon="9.685370191872703"><ele>7.0</ele><time>2026-05-04T14:08:31.001Z</time></trkpt><trkpt lat="40.84105946150849" lon="9.685555648898553"><ele>7.0</ele><time>2026-05-04T14:08:32.001Z</time></trkpt><trkpt lat="40.84096024135674" lon="9.685761510636981"><ele>7.0</ele><time>2026-05-04T14:08:33.001Z</time></trkpt><trkpt lat="40.84084189386773" lon="9.685972663382866"><ele>8.666666666666668</ele><time>2026-05-04T14:08:34.001Z</time></trkpt><trkpt lat="40.84073257322305" lon="9.68618366587947"><ele>10.333333333333334</ele><time>2026-05-04T14:08:35.001Z</time></trkpt><trkpt lat="40.840648064229754" lon="9.68638263739601"><ele>12.0</ele><time>2026-05-04T14:08:36.001Z</time></trkpt><trkpt lat="40.84055869761801" lon="9.686555361420348"><ele>12.0</ele><time>2026-05-04T14:08:37.001Z</time></trkpt><trkpt lat="40.84045657415751" lon="9.686734119448785"><ele>12.0</ele><time>2026-05-04T14:08:38.001Z</time></trkpt><trkpt lat="40.84036169426386" lon="9.686939918193682"><ele>12.0</ele><time>2026-05-04T14:08:39.001Z</time></trkpt><trkpt lat="40.840284604876004" lon="9.68714601003219"><ele>12.0</ele><time>2026-05-04T14:08:40.001Z</time></trkpt><trkpt lat="40.84024461921227" lon="9.68733383550184"><ele>12.0</ele><time>2026-05-04T14:08:41.001Z</time></trkpt><trkpt lat="40.84024853037324" lon="9.68749660297207"><ele>12.0</ele><time>2026-05-04T14:08:42.001Z</time></trkpt><trkpt lat="40.840282862018505" lon="9.687647541822226"><ele>12.0</ele><time>2026-05-04T14:08:43.001Z</time></trkpt><trkpt lat="40.84034077159083" lon="9.68780324026302"><ele>11.666666666666666</ele><time>2026-05-04T14:08:44.001Z</time></trkpt><trkpt lat="40.84040868948717" lon="9.687984348711058"><ele>11.333333333333332</ele><time>2026-05-04T14:08:45.001Z</time></trkpt><trkpt lat="40.84047595864927" lon="9.688181684947509"><ele>11.0</ele><time>2026-05-04T14:08:46.001Z</time></trkpt><trkpt lat="40.84054186249331" lon="9.688399250069311"><ele>11.333333333333332</ele><time>2026-05-04T14:08:47.001Z</time></trkpt><trkpt lat="40.84060605211867" lon="9.68859398012817"><ele>11.666666666666666</ele><time>2026-05-04T14:08:48.001Z</time></trkpt><trkpt lat="40.84067766732699" lon="9.688794418782539"><ele>12.0</ele><time>2026-05-04T14:08:49.001Z</time></trkpt><trkpt lat="40.84074260362565" lon="9.688997860451042"><ele>12.0</ele><time>2026-05-04T14:08:50.001Z</time></trkpt><trkpt lat="40.84080375495046" lon="9.689190727454193"><ele>12.0</ele><time>2026-05-04T14:08:51.001Z</time></trkpt><trkpt lat="40.84085966770082" lon="9.689368791390649"><ele>12.0</ele><time>2026-05-04T14:08:52.001Z</time></trkpt><trkpt lat="40.840929326089004" lon="9.689562963765923"><ele>10.5</ele><time>2026-05-04T14:08:53.001Z</time></trkpt><trkpt lat="40.8410027252145" lon="9.689837080930332"><ele>9.0</ele><time>2026-05-04T14:08:54.001Z</time></trkpt><trkpt lat="40.84109894574276" lon="9.690127058844432"><ele>9.666666666666666</ele><time>2026-05-04T14:08:55.001Z</time></trkpt><trkpt lat="40.841201854614546" lon="9.690402698947223"><ele>10.333333333333332</ele><time>2026-05-04T14:08:56.001Z</time></trkpt><trkpt lat="40.84128539978111" lon="9.690657460742854"><ele>11.0</ele><time>2026-05-04T14:08:57.001Z</time></trkpt><trkpt lat="40.84135865454012" lon="9.69091268249554"><ele>10.0</ele><time>2026-05-04T14:08:58.001Z</time></trkpt><trkpt lat="40.8414372554782" lon="9.691146241463084"><ele>9.0</ele><time>2026-05-04T14:08:59.001Z</time></trkpt><trkpt lat="40.841519445129535" lon="9.69136075713138"><ele>8.0</ele><time>2026-05-04T14:09:00.001Z</time></trkpt><trkpt lat="40.841602921636856" lon="9.691599555447977"><ele>8.0</ele><time>2026-05-04T14:09:01.001Z</time></trkpt><trkpt lat="40.84169392201121" lon="9.691871099405196"><ele>8.0</ele><time>2026-05-04T14:09:02.001Z</time></trkpt><trkpt lat="40.84179227554164" lon="9.69215856198709"><ele>6.0</ele><time>2026-05-04T14:09:03.001Z</time></trkpt><trkpt lat="40.84188724937947" lon="9.692451814230038"><ele>4.0</ele><time>2026-05-04T14:09:04.001Z</time></trkpt><trkpt lat="40.8419974221866" lon="9.692775914535558"><ele>3.0</ele><time>2026-05-04T14:09:05.001Z</time></trkpt><trkpt lat="40.8421069199482" lon="9.693096916008873"><ele>2.0</ele><time>2026-05-04T14:09:06.001Z</time></trkpt><trkpt lat="40.84221146126371" lon="9.693401141435206"><ele>2.0</ele><time>2026-05-04T14:09:07.001Z</time></trkpt><trkpt lat="40.842309635748656" lon="9.693698027011823"><ele>2.0</ele><time>2026-05-04T14:09:08.001Z</time></trkpt><trkpt lat="40.84240167631323" lon="9.693986102256707"><ele>2.0</ele><time>2026-05-04T14:09:09.001Z</time></trkpt><trkpt lat="40.842491849913024" lon="9.694259380887418"><ele>2.0</ele><time>2026-05-04T14:09:10.001Z</time></trkpt><trkpt lat="40.84258721592607" lon="9.694538793015541"><ele>2.6666666666666665</ele><time>2026-05-04T14:09:11.001Z</time></trkpt><trkpt lat="40.84268065829071" lon="9.6948141911216"><ele>3.333333333333333</ele><time>2026-05-04T14:09:12.001Z</time></trkpt><trkpt lat="40.842767318615046" lon="9.695071840143429"><ele>4.0</ele><time>2026-05-04T14:09:13.001Z</time></trkpt><trkpt lat="40.84284524615087" lon="9.695307984071963"><ele>5.0</ele><time>2026-05-04T14:09:14.001Z</time></trkpt><trkpt lat="40.842913978121565" lon="9.695530173440604"><ele>6.0</ele><time>2026-05-04T14:09:15.001Z</time></trkpt><trkpt lat="40.84295971206772" lon="9.69574745545366"><ele>7.0</ele><time>2026-05-04T14:09:16.001Z</time></trkpt><trkpt lat="40.84292321401581" lon="9.695931994516314"><ele>7.5</ele><time>2026-05-04T14:09:17.001Z</time></trkpt><trkpt lat="40.84288388999003" lon="9.696104442152759"><ele>8.0</ele><time>2026-05-04T14:09:18.001Z</time></trkpt><trkpt lat="40.84285266322085" lon="9.696258133305225"><ele>8.5</ele><time>2026-05-04T14:09:19.001Z</time></trkpt><trkpt lat="40.842845944652275" lon="9.696382130911507"><ele>9.0</ele><time>2026-05-04T14:09:20.001Z</time></trkpt><trkpt lat="40.84284881323968" lon="9.696515587758636"><ele>9.0</ele><time>2026-05-04T14:09:21.001Z</time></trkpt><trkpt lat="40.84287837407319" lon="9.696655609433003"><ele>9.0</ele><time>2026-05-04T14:09:22.001Z</time></trkpt><trkpt lat="40.842956866864476" lon="9.69678352291389"><ele>9.0</ele><time>2026-05-04T14:09:23.001Z</time></trkpt><trkpt lat="40.843054078864725" lon="9.696900440280258"><ele>9.0</ele><time>2026-05-04T14:09:24.001Z</time></trkpt><trkpt lat="40.84315364952958" lon="9.69703578366354"><ele>9.666666666666666</ele><time>2026-05-04T14:09:25.001Z</time></trkpt><trkpt lat="40.8432207114677" lon="9.69722590221798"><ele>10.333333333333332</ele><time>2026-05-04T14:09:26.001Z</time></trkpt><trkpt lat="40.84328187666523" lon="9.697438779729135"><ele>11.0</ele><time>2026-05-04T14:09:27.001Z</time></trkpt><trkpt lat="40.84333835222893" lon="9.697687843003552"><ele>11.333333333333332</ele><time>2026-05-04T14:09:28.001Z</time></trkpt><trkpt lat="40.843373505812586" lon="9.697938582863761"><ele>11.666666666666666</ele><time>2026-05-04T14:09:29.001Z</time></trkpt><trkpt lat="40.84340973163477" lon="9.69816541868363"><ele>12.0</ele><time>2026-05-04T14:09:30.001Z</time></trkpt><trkpt lat="40.84345152829981" lon="9.698380878547082"><ele>12.0</ele><time>2026-05-04T14:09:31.001Z</time></trkpt><trkpt lat="40.843496684909546" lon="9.698589173957417"><ele>12.0</ele><time>2026-05-04T14:09:32.001Z</time></trkpt><trkpt lat="40.84352946587128" lon="9.69880538488445"><ele>12.0</ele><time>2026-05-04T14:09:33.001Z</time></trkpt><trkpt lat="40.84355793012848" lon="9.699021973458713"><ele>12.0</ele><time>2026-05-04T14:09:34.001Z</time></trkpt><trkpt lat="40.84359201727816" lon="9.699237199849023"><ele>12.0</ele><time>2026-05-04T14:09:35.001Z</time></trkpt><trkpt lat="40.84362214454336" lon="9.699457370026225"><ele>12.0</ele><time>2026-05-04T14:09:36.001Z</time></trkpt><trkpt lat="40.8436558021872" lon="9.699688662402894"><ele>11.666666666666666</ele><time>2026-05-04T14:09:37.001Z</time></trkpt><trkpt lat="40.84368686863254" lon="9.699921971131706"><ele>11.333333333333332</ele><time>2026-05-04T14:09:38.001Z</time></trkpt><trkpt lat="40.84371217649087" lon="9.700128716277922"><ele>11.0</ele><time>2026-05-04T14:09:39.001Z</time></trkpt><trkpt lat="40.843738673192334" lon="9.700321610709057"><ele>11.0</ele><time>2026-05-04T14:09:40.001Z</time></trkpt><trkpt lat="40.843765328532434" lon="9.700509499184278"><ele>11.0</ele><time>2026-05-04T14:09:41.001Z</time></trkpt><trkpt lat="40.84379509233719" lon="9.700697567996954"><ele>11.0</ele><time>2026-05-04T14:09:42.001Z</time></trkpt><trkpt lat="40.843801690762646" lon="9.700855497485335"><ele>11.0</ele><time>2026-05-04T14:09:43.001Z</time></trkpt><trkpt lat="40.84377920025778" lon="9.700988614043236"><ele>11.0</ele><time>2026-05-04T14:09:44.001Z</time></trkpt><trkpt lat="40.843713269418885" lon="9.701069057407679"><ele>11.0</ele><time>2026-05-04T14:09:45.001Z</time></trkpt><trkpt lat="40.84365055194999" lon="9.701136198918189"><ele>11.0</ele><time>2026-05-04T14:09:46.001Z</time></trkpt><trkpt lat="40.8435542840101" lon="9.701118160106832"><ele>11.0</ele><time>2026-05-04T14:09:47.001Z</time></trkpt><trkpt lat="40.8434706398206" lon="9.701153995484413"><ele>11.0</ele><time>2026-05-04T14:09:48.002Z</time></trkpt><trkpt lat="40.84337310553616" lon="9.701174321930226"><ele>12.0</ele><time>2026-05-04T14:09:49.002Z</time></trkpt><trkpt lat="40.84327268607604" lon="9.701202925365214"><ele>13.0</ele><time>2026-05-04T14:09:50.002Z</time></trkpt><trkpt lat="40.84312670430555" lon="9.701227818874008"><ele>14.0</ele><time>2026-05-04T14:09:51.002Z</time></trkpt><trkpt lat="40.842955238307724" lon="9.701268863043714"><ele>15.0</ele><time>2026-05-04T14:09:52.002Z</time></trkpt><trkpt lat="40.842769321872254" lon="9.701305311496444"><ele>15.666666666666668</ele><time>2026-05-04T14:09:53.002Z</time></trkpt><trkpt lat="40.84260214804255" lon="9.701342383840855"><ele>16.333333333333336</ele><time>2026-05-04T14:09:54.002Z</time></trkpt><trkpt lat="40.84245086572042" lon="9.70138301273126"><ele>17.0</ele><time>2026-05-04T14:09:55.002Z</time></trkpt><trkpt lat="40.8423165625786" lon="9.701412202372728"><ele>17.0</ele><time>2026-05-04T14:09:56.002Z</time></trkpt><trkpt lat="40.8421834201999" lon="9.701444457344216"><ele>17.0</ele><time>2026-05-04T14:09:57.002Z</time></trkpt><trkpt lat="40.842047717264634" lon="9.701481862889302"><ele>17.0</ele><time>2026-05-04T14:09:58.002Z</time></trkpt><trkpt lat="40.84191958377185" lon="9.701546222452976"><ele>17.0</ele><time>2026-05-04T14:09:59.002Z</time></trkpt><trkpt lat="40.84179412803929" lon="9.701644476550966"><ele>17.0</ele><time>2026-05-04T14:10:00Z</time></trkpt><trkpt lat="40.841665632067276" lon="9.701743000802665"><ele>17.0</ele><time>2026-05-04T14:10:01Z</time></trkpt><trkpt lat="40.841531430018904" lon="9.701855565688533"><ele>17.0</ele><time>2026-05-04T14:10:02Z</time></trkpt><trkpt lat="40.8414057989035" lon="9.701951580707414"><ele>17.0</ele><time>2026-05-04T14:10:03Z</time></trkpt><trkpt lat="40.8412868943592" lon="9.702039310321128"><ele>17.0</ele><time>2026-05-04T14:10:04Z</time></trkpt><trkpt lat="40.841187064816125" lon="9.702124185962706"><ele>17.0</ele><time>2026-05-04T14:10:05Z</time></trkpt><trkpt lat="40.84109681876596" lon="9.702184802805213"><ele>17.0</ele><time>2026-05-04T14:10:06Z</time></trkpt><trkpt lat="40.84101558103215" lon="9.702224633712646"><ele>17.0</ele><time>2026-05-04T14:10:07Z</time></trkpt><trkpt lat="40.840940476516046" lon="9.702208553508921"><ele>16.6</ele><time>2026-05-04T14:10:08Z</time></trkpt><trkpt lat="40.84093867651419" lon="9.702382236295081"><ele>16.2</ele><time>2026-05-04T14:10:09Z</time></trkpt><trkpt lat="40.84088662932725" lon="9.702430372572048"><ele>15.8</ele><time>2026-05-04T14:10:10Z</time></trkpt><trkpt lat="40.84085371192393" lon="9.70251987679889"><ele>15.4</ele><time>2026-05-04T14:10:11Z</time></trkpt><trkpt lat="40.84077389929213" lon="9.702621637812266"><ele>15.0</ele><time>2026-05-04T14:10:12Z</time></trkpt><trkpt lat="40.84067018132436" lon="9.702757897795317"><ele>14.333333333333332</ele><time>2026-05-04T14:10:13Z</time></trkpt><trkpt lat="40.840573526216275" lon="9.702909628820354"><ele>13.666666666666666</ele><time>2026-05-04T14:10:14Z</time></trkpt><trkpt lat="40.84049328316474" lon="9.703081066259578"><ele>13.0</ele><time>2026-05-04T14:10:15Z</time></trkpt><trkpt lat="40.84039005259506" lon="9.703311991090661"><ele>10.0</ele><time>2026-05-04T14:10:16Z</time></trkpt><trkpt lat="40.84028033728891" lon="9.703609783712412"><ele>7.0</ele><time>2026-05-04T14:10:17Z</time></trkpt><trkpt lat="40.84018519200595" lon="9.703866851985202"><ele>7.0</ele><time>2026-05-04T14:10:18Z</time></trkpt><trkpt lat="40.84011948431922" lon="9.70408092204715"><ele>7.0</ele><time>2026-05-04T14:10:19Z</time></trkpt><trkpt lat="40.84005607332423" lon="9.704255928726425"><ele>7.0</ele><time>2026-05-04T14:10:20Z</time></trkpt><trkpt lat="40.84000480998012" lon="9.704407444096834"><ele>7.0</ele><time>2026-05-04T14:10:21Z</time></trkpt><trkpt lat="40.83997001131529" lon="9.704520667283782"><ele>7.199999999999999</ele><time>2026-05-04T14:10:22Z</time></trkpt><trkpt lat="40.83996502632662" lon="9.704630309146271"><ele>7.3999999999999995</ele><time>2026-05-04T14:10:23Z</time></trkpt><trkpt lat="40.83997682895741" lon="9.704752546648617"><ele>7.6000000000000005</ele><time>2026-05-04T14:10:24Z</time></trkpt><trkpt lat="40.84001640987055" lon="9.704883710564722"><ele>7.800000000000001</ele><time>2026-05-04T14:10:25Z</time></trkpt><trkpt lat="40.84008638447904" lon="9.705016990133428"><ele>8.0</ele><time>2026-05-04T14:10:26Z</time></trkpt><trkpt lat="40.84011231165296" lon="9.705161611899083"><ele>8.25</ele><time>2026-05-04T14:10:27Z</time></trkpt><trkpt lat="40.84011695257433" lon="9.705298444683377"><ele>8.5</ele><time>2026-05-04T14:10:28Z</time></trkpt><trkpt lat="40.84004544095792" lon="9.705421773200271"><ele>8.75</ele><time>2026-05-04T14:10:29Z</time></trkpt><trkpt lat="40.83997160650857" lon="9.705615321419524"><ele>9.0</ele><time>2026-05-04T14:10:30Z</time></trkpt><trkpt lat="40.83989362365429" lon="9.705807266477796"><ele>9.0</ele><time>2026-05-04T14:10:31Z</time></trkpt><trkpt lat="40.839824921407875" lon="9.7059811274351"><ele>9.0</ele><time>2026-05-04T14:10:32Z</time></trkpt><trkpt lat="40.83976235031972" lon="9.706195720153227"><ele>9.0</ele><time>2026-05-04T14:10:33Z</time></trkpt><trkpt lat="40.83969297459748" lon="9.706383827858007"><ele>10.25</ele><time>2026-05-04T14:10:34Z</time></trkpt><trkpt lat="40.83963191839408" lon="9.706564513783736"><ele>11.5</ele><time>2026-05-04T14:10:35Z</time></trkpt><trkpt lat="40.83954972728804" lon="9.706725166700128"><ele>12.75</ele><time>2026-05-04T14:10:36Z</time></trkpt><trkpt lat="40.83946728403274" lon="9.706871523082928"><ele>14.0</ele><time>2026-05-04T14:10:37Z</time></trkpt><trkpt lat="40.83938509508443" lon="9.7070028729681"><ele>15.2</ele><time>2026-05-04T14:10:38Z</time></trkpt><trkpt lat="40.83929759739737" lon="9.7071092278629"><ele>16.4</ele><time>2026-05-04T14:10:39Z</time></trkpt><trkpt lat="40.83923746702734" lon="9.707210221270865"><ele>17.6</ele><time>2026-05-04T14:10:40Z</time></trkpt><trkpt lat="40.83925692338377" lon="9.707344393700632"><ele>18.8</ele><time>2026-05-04T14:10:41Z</time></trkpt><trkpt lat="40.83929969687608" lon="9.707474215696559"><ele>20.0</ele><time>2026-05-04T14:10:42Z</time></trkpt><trkpt lat="40.83937806827709" lon="9.707607684029039"><ele>23.666666666666668</ele><time>2026-05-04T14:10:43Z</time></trkpt><trkpt lat="40.83949295226573" lon="9.707751737799573"><ele>27.333333333333336</ele><time>2026-05-04T14:10:44Z</time></trkpt><trkpt lat="40.8395958071195" lon="9.707966811523537"><ele>31.0</ele><time>2026-05-04T14:10:45Z</time></trkpt><trkpt lat="40.83970810420788" lon="9.70812479929453"><ele>31.0</ele><time>2026-05-04T14:10:46Z</time></trkpt><trkpt lat="40.839778399733945" lon="9.708215977145954"><ele>31.0</ele><time>2026-05-04T14:10:47Z</time></trkpt><trkpt lat="40.83988943664425" lon="9.708256693488215"><ele>31.0</ele><time>2026-05-04T14:10:48Z</time></trkpt><trkpt lat="40.840016644601114" lon="9.70827267011801"><ele>31.0</ele><time>2026-05-04T14:10:49Z</time></trkpt><trkpt lat="40.8401182098822" lon="9.70830277951119"><ele>31.0</ele><time>2026-05-04T14:10:50.001Z</time></trkpt><trkpt lat="40.840197533479966" lon="9.708347974649989"><ele>30.666666666666668</ele><time>2026-05-04T14:10:51.001Z</time></trkpt><trkpt lat="40.84024932807035" lon="9.708410948190132"><ele>30.333333333333336</ele><time>2026-05-04T14:10:52.001Z</time></trkpt><trkpt lat="40.840259514666336" lon="9.708503679163519"><ele>30.0</ele><time>2026-05-04T14:10:53.001Z</time></trkpt><trkpt lat="40.840222824886766" lon="9.708607994707092"><ele>29.666666666666664</ele><time>2026-05-04T14:10:54.001Z</time></trkpt><trkpt lat="40.84022151673917" lon="9.70874356353864"><ele>29.333333333333332</ele><time>2026-05-04T14:10:55.001Z</time></trkpt><trkpt lat="40.84019657889271" lon="9.708893426937893"><ele>29.0</ele><time>2026-05-04T14:10:56.001Z</time></trkpt><trkpt lat="40.840180537215524" lon="9.70905278004838"><ele>30.25</ele><time>2026-05-04T14:10:57.001Z</time></trkpt><trkpt lat="40.840167236302484" lon="9.70920804432643"><ele>31.5</ele><time>2026-05-04T14:10:58.001Z</time></trkpt><trkpt lat="40.84015185624852" lon="9.709373877738528"><ele>32.75</ele><time>2026-05-04T14:10:59.001Z</time></trkpt><trkpt lat="40.8401265956478" lon="9.709539340158358"><ele>34.0</ele><time>2026-05-04T14:11:00.001Z</time></trkpt><trkpt lat="40.84008717599824" lon="9.70970816738653"><ele>35.75</ele><time>2026-05-04T14:11:01.001Z</time></trkpt><trkpt lat="40.84005739087532" lon="9.709873664102792"><ele>37.5</ele><time>2026-05-04T14:11:02.001Z</time></trkpt><trkpt lat="40.84004496741122" lon="9.710064846088006"><ele>39.25</ele><time>2026-05-04T14:11:03.001Z</time></trkpt><trkpt lat="40.84003052571721" lon="9.710249288083876"><ele>41.0</ele><time>2026-05-04T14:11:04.001Z</time></trkpt><trkpt lat="40.83999722846934" lon="9.710401188718954"><ele>41.0</ele><time>2026-05-04T14:11:05.001Z</time></trkpt><trkpt lat="40.8399410124936" lon="9.710518829946782"><ele>41.0</ele><time>2026-05-04T14:11:06.001Z</time></trkpt><trkpt lat="40.83983553858164" lon="9.710575238760361"><ele>41.0</ele><time>2026-05-04T14:11:07.001Z</time></trkpt><trkpt lat="40.8397231768977" lon="9.710678049734934"><ele>41.0</ele><time>2026-05-04T14:11:08.001Z</time></trkpt><trkpt lat="40.839639911604024" lon="9.71080918217935"><ele>41.0</ele><time>2026-05-04T14:11:09.001Z</time></trkpt><trkpt lat="40.8396024206331" lon="9.710938374539165"><ele>41.0</ele><time>2026-05-04T14:11:10.001Z</time></trkpt><trkpt lat="40.83962786786761" lon="9.711075329533557"><ele>41.0</ele><time>2026-05-04T14:11:11.001Z</time></trkpt><trkpt lat="40.83971047120567" lon="9.711225047819838"><ele>41.0</ele><time>2026-05-04T14:11:12.001Z</time></trkpt><trkpt lat="40.8398197088037" lon="9.711380971093044"><ele>41.666666666666664</ele><time>2026-05-04T14:11:13.001Z</time></trkpt><trkpt lat="40.83992897829281" lon="9.711570020776536"><ele>42.333333333333336</ele><time>2026-05-04T14:11:14.001Z</time></trkpt><trkpt lat="40.83995852599762" lon="9.711790451454855"><ele>43.0</ele><time>2026-05-04T14:11:15.001Z</time></trkpt><trkpt lat="40.840010825520245" lon="9.711965571092307"><ele>41.66666666666667</ele><time>2026-05-04T14:11:16.001Z</time></trkpt><trkpt lat="40.84006046661867" lon="9.7121282860182"><ele>40.333333333333336</ele><time>2026-05-04T14:11:17.001Z</time></trkpt><trkpt lat="40.84013505856472" lon="9.712300178296701"><ele>39.0</ele><time>2026-05-04T14:11:18.001Z</time></trkpt><trkpt lat="40.84023086371783" lon="9.712482381255523"><ele>39.0</ele><time>2026-05-04T14:11:19.001Z</time></trkpt><trkpt lat="40.84034254313622" lon="9.71265852748845"><ele>39.0</ele><time>2026-05-04T14:11:20.001Z</time></trkpt><trkpt lat="40.84046773325109" lon="9.71283875382089"><ele>39.0</ele><time>2026-05-04T14:11:21.001Z</time></trkpt><trkpt lat="40.84060977931008" lon="9.712991813065683"><ele>38.0</ele><time>2026-05-04T14:11:22.001Z</time></trkpt><trkpt lat="40.84075067308555" lon="9.713099296790947"><ele>37.0</ele><time>2026-05-04T14:11:23.001Z</time></trkpt><trkpt lat="40.8408778335737" lon="9.713225057419487"><ele>36.0</ele><time>2026-05-04T14:11:24.001Z</time></trkpt><trkpt lat="40.84098335378319" lon="9.71338848786192"><ele>36.0</ele><time>2026-05-04T14:11:25.001Z</time></trkpt><trkpt lat="40.84107041908437" lon="9.713559911252544"><ele>36.0</ele><time>2026-05-04T14:11:26.001Z</time></trkpt><trkpt lat="40.84115061837242" lon="9.713693594780272"><ele>36.0</ele><time>2026-05-04T14:11:27.001Z</time></trkpt><trkpt lat="40.84122495578256" lon="9.713814041983866"><ele>36.0</ele><time>2026-05-04T14:11:28.001Z</time></trkpt><trkpt lat="40.84129470700036" lon="9.713917706641542"><ele>37.333333333333336</ele><time>2026-05-04T14:11:29.001Z</time></trkpt><trkpt lat="40.84135186460099" lon="9.713993970667877"><ele>38.666666666666664</ele><time>2026-05-04T14:11:30.001Z</time></trkpt><trkpt lat="40.84138768039699" lon="9.714074117734729"><ele>40.0</ele><time>2026-05-04T14:11:32.001Z</time></trkpt><trkpt lat="40.841407880572135" lon="9.714162210473408"><ele>41.33333333333333</ele><time>2026-05-04T14:11:37.001Z</time></trkpt><trkpt lat="40.84150140046597" lon="9.714102732528811"><ele>42.666666666666664</ele><time>2026-05-04T14:15:05Z</time></trkpt><trkpt lat="40.841449653529374" lon="9.71417299650998"><ele>44.0</ele><time>2026-05-04T14:27:27Z</time></trkpt><trkpt lat="40.84136900387589" lon="9.714184302998184"><ele>44.0</ele><time>2026-05-04T14:29:16Z</time></trkpt><trkpt lat="40.84129710699614" lon="9.71421550383922"><ele>44.0</ele><time>2026-05-04T14:29:18Z</time></trkpt><trkpt lat="40.841233690205726" lon="9.714229121417786"><ele>44.0</ele><time>2026-05-04T14:29:19Z</time></trkpt><trkpt lat="40.8411668926609" lon="9.714264790485723"><ele>44.0</ele><time>2026-05-04T14:29:20Z</time></trkpt><trkpt lat="40.84109404054188" lon="9.714322379258519"><ele>44.0</ele><time>2026-05-04T14:29:21Z</time></trkpt><trkpt lat="40.84100961441758" lon="9.714357932487966"><ele>44.0</ele><time>2026-05-04T14:29:22Z</time></trkpt><trkpt lat="40.840903218658276" lon="9.714427914022698"><ele>45.0</ele><time>2026-05-04T14:29:23Z</time></trkpt><trkpt lat="40.84081261714031" lon="9.714493212216064"><ele>46.0</ele><time>2026-05-04T14:29:24Z</time></trkpt><trkpt lat="40.840734397699606" lon="9.714575207735079"><ele>47.0</ele><time>2026-05-04T14:29:25Z</time></trkpt><trkpt lat="40.840654914216465" lon="9.714638099486043"><ele>48.0</ele><time>2026-05-04T14:29:26Z</time></trkpt><trkpt lat="40.84056267518322" lon="9.71468539992311"><ele>49.0</ele><time>2026-05-04T14:29:27Z</time></trkpt><trkpt lat="40.8405026253715" lon="9.714758623760165"><ele>48.99999999999999</ele><time>2026-05-04T14:29:28Z</time></trkpt><trkpt lat="40.84043929085523" lon="9.714813374694245"><ele>49.0</ele><time>2026-05-04T14:29:29Z</time></trkpt><trkpt lat="40.84036849890441" lon="9.714866274375332"><ele>49.0</ele><time>2026-05-04T14:29:30Z</time></trkpt><trkpt lat="40.840313114742656" lon="9.714923630056022"><ele>49.0</ele><time>2026-05-04T14:29:31Z</time></trkpt><trkpt lat="40.84025961396512" lon="9.714969384772873"><ele>48.99999999999999</ele><time>2026-05-04T14:29:32Z</time></trkpt><trkpt lat="40.84017321338619" lon="9.715045506724252"><ele>49.0</ele><time>2026-05-04T14:29:34Z</time></trkpt><trkpt lat="40.840120261699234" lon="9.715119805350978"><ele>48.99999999999999</ele><time>2026-05-04T14:29:36Z</time></trkpt><trkpt lat="40.84005826721467" lon="9.715212166426006"><ele>49.0</ele><time>2026-05-04T14:29:39Z</time></trkpt><trkpt lat="40.84015152121098" lon="9.715237410764308"><ele>49.0</ele><time>2026-05-04T14:29:45Z</time></trkpt><trkpt lat="40.84014696638126" lon="9.7151463015312"><ele>49.0</ele><time>2026-05-04T14:31:19.999Z</time></trkpt><trkpt lat="40.840200164095826" lon="9.715080684975884"><ele>48.99999999999999</ele><time>2026-05-04T14:31:27.999Z</time></trkpt><trkpt lat="40.84026499402431" lon="9.715066253092116"><ele>49.0</ele><time>2026-05-04T14:31:35.999Z</time></trkpt><trkpt lat="40.840251505428455" lon="9.715147725042222"><ele>49.0</ele><time>2026-05-04T14:31:46.999Z</time></trkpt><trkpt lat="40.840223398941944" lon="9.715228887488397"><ele>49.0</ele><time>2026-05-04T14:31:56.999Z</time></trkpt><trkpt lat="40.84025063310992" lon="9.71530925921748"><ele>49.0</ele><time>2026-05-04T14:32:06.999Z</time></trkpt><trkpt lat="40.84029031948582" lon="9.715378676646093"><ele>49.0</ele><time>2026-05-04T14:32:18.999Z</time></trkpt><trkpt lat="40.840317324567" lon="9.715464037761794"><ele>49.0</ele><time>2026-05-04T14:32:26.999Z</time></trkpt><trkpt lat="40.840384284769314" lon="9.715493205686967"><ele>49.0</ele><time>2026-05-04T14:32:34Z</time></trkpt><trkpt lat="40.84044698106048" lon="9.715518378626745"><ele>49.0</ele><time>2026-05-04T14:32:40Z</time></trkpt><trkpt lat="40.840482751795165" lon="9.715597453640637"><ele>49.0</ele><time>2026-05-04T14:32:55Z</time></trkpt><trkpt lat="40.84053453719497" lon="9.715664561587815"><ele>49.0</ele><time>2026-05-04T14:33:00Z</time></trkpt><trkpt lat="40.84059004197634" lon="9.715719097386392"><ele>49.0</ele><time>2026-05-04T14:33:05Z</time></trkpt><trkpt lat="40.84063133917906" lon="9.715823025130684"><ele>49.0</ele><time>2026-05-04T14:33:09Z</time></trkpt><trkpt lat="40.840698673567616" lon="9.715811675028545"><ele>49.0</ele><time>2026-05-04T14:33:32Z</time></trkpt><trkpt lat="40.84077446177456" lon="9.715816382040025"><ele>49.0</ele><time>2026-05-04T14:34:05Z</time></trkpt><trkpt lat="40.8407333221621" lon="9.715750233889606"><ele>49.0</ele><time>2026-05-04T14:34:14Z</time></trkpt><trkpt lat="40.84075143436716" lon="9.715219509874792"><ele>49.0</ele><time>2026-05-04T14:34:29Z</time></trkpt><trkpt lat="40.84068990079235" lon="9.71514836480322"><ele>49.0</ele><time>2026-05-04T14:34:32Z</time></trkpt><trkpt lat="40.84074581563732" lon="9.715727481370047"><ele>40.0</ele><time>2026-05-04T14:34:38.016Z</time></trkpt><trkpt lat="40.840710134964695" lon="9.715504217282295"><ele>40.0</ele><time>2026-05-04T14:34:43Z</time></trkpt><trkpt lat="40.84077128941008" lon="9.715579305067775"><ele>40.0</ele><time>2026-05-04T14:34:44Z</time></trkpt><trkpt lat="40.840812195992676" lon="9.715646599584597"><ele>40.0</ele><time>2026-05-04T14:35:32Z</time></trkpt></trkseg><trkseg><trkpt lat="40.84011600135126" lon="9.7151749449588"><ele>65.0</ele><time>2026-05-04T15:34:47Z</time></trkpt><trkpt lat="40.84012452213963" lon="9.715083837519687"><ele>65.0</ele><time>2026-05-04T15:34:49Z</time></trkpt><trkpt lat="40.84019128448812" lon="9.71502083547967"><ele>65.0</ele><time>2026-05-04T15:34:52Z</time></trkpt><trkpt lat="40.840257579974356" lon="9.714972276455883"><ele>65.0</ele><time>2026-05-04T15:34:56Z</time></trkpt><trkpt lat="40.840309076007955" lon="9.714909658858781"><ele>65.0</ele><time>2026-05-04T15:34:58Z</time></trkpt><trkpt lat="40.840411826049696" lon="9.714840306328943"><ele>65.0</ele><time>2026-05-04T15:35:00Z</time></trkpt><trkpt lat="40.840491020177716" lon="9.714776337262725"><ele>61.8</ele><time>2026-05-04T15:35:02Z</time></trkpt><trkpt lat="40.840558714622674" lon="9.714716502300748"><ele>58.6</ele><time>2026-05-04T15:35:04Z</time></trkpt><trkpt lat="40.840659212007935" lon="9.71464035022075"><ele>55.400000000000006</ele><time>2026-05-04T15:35:06Z</time></trkpt><trkpt lat="40.84076586731812" lon="9.714556854820144"><ele>52.2</ele><time>2026-05-04T15:35:08Z</time></trkpt><trkpt lat="40.84086577510016" lon="9.714481889169168"><ele>49.0</ele><time>2026-05-04T15:35:10Z</time></trkpt><trkpt lat="40.84095216113695" lon="9.714430254633358"><ele>48.0</ele><time>2026-05-04T15:35:12Z</time></trkpt><trkpt lat="40.84104479948644" lon="9.71437181011636"><ele>47.0</ele><time>2026-05-04T15:35:14Z</time></trkpt><trkpt lat="40.841101556333" lon="9.714334518130018"><ele>46.0</ele><time>2026-05-04T15:35:15Z</time></trkpt><trkpt lat="40.84120575746861" lon="9.714272896466541"><ele>45.0</ele><time>2026-05-04T15:35:17Z</time></trkpt><trkpt lat="40.84129685064023" lon="9.714227939829605"><ele>44.0</ele><time>2026-05-04T15:35:19Z</time></trkpt><trkpt lat="40.84137067084092" lon="9.714150303449419"><ele>44.0</ele><time>2026-05-04T15:35:21Z</time></trkpt><trkpt lat="40.84143012366181" lon="9.714064361283187"><ele>44.0</ele><time>2026-05-04T15:35:23Z</time></trkpt><trkpt lat="40.8414037824717" lon="9.713971478458369"><ele>44.0</ele><time>2026-05-04T15:35:24Z</time></trkpt><trkpt lat="40.84133263465227" lon="9.713902206827807"><ele>44.0</ele><time>2026-05-04T15:35:24.998Z</time></trkpt><trkpt lat="40.84127030378231" lon="9.713815270761364"><ele>44.0</ele><time>2026-05-04T15:35:25.998Z</time></trkpt><trkpt lat="40.84119482978017" lon="9.71371825866514"><ele>44.0</ele><time>2026-05-04T15:35:26.998Z</time></trkpt><trkpt lat="40.841112679991426" lon="9.713603291938032"><ele>42.400000000000006</ele><time>2026-05-04T15:35:27.998Z</time></trkpt><trkpt lat="40.84105073897671" lon="9.713485964316515"><ele>40.800000000000004</ele><time>2026-05-04T15:35:28.998Z</time></trkpt><trkpt lat="40.8409891081353" lon="9.713371880163612"><ele>39.2</ele><time>2026-05-04T15:35:29.998Z</time></trkpt><trkpt lat="40.840927566178074" lon="9.713261872899563"><ele>37.6</ele><time>2026-05-04T15:35:30.998Z</time></trkpt><trkpt lat="40.84085324147732" lon="9.713155512869115"><ele>36.0</ele><time>2026-05-04T15:35:31.998Z</time></trkpt><trkpt lat="40.84077079186696" lon="9.713052622938505"><ele>36.75</ele><time>2026-05-04T15:35:32.998Z</time></trkpt><trkpt lat="40.840678922522" lon="9.712975451115364"><ele>37.5</ele><time>2026-05-04T15:35:33.998Z</time></trkpt><trkpt lat="40.84057657850696" lon="9.712897349856993"><ele>38.25</ele><time>2026-05-04T15:35:34.998Z</time></trkpt><trkpt lat="40.84048204440422" lon="9.712808213996892"><ele>39.0</ele><time>2026-05-04T15:35:35.998Z</time></trkpt><trkpt lat="40.840398077376506" lon="9.712707469807976"><ele>39.0</ele><time>2026-05-04T15:35:36.998Z</time></trkpt><trkpt lat="40.84033717965318" lon="9.712588312869531"><ele>39.0</ele><time>2026-05-04T15:35:37.998Z</time></trkpt><trkpt lat="40.840282348279565" lon="9.712470925216989"><ele>39.0</ele><time>2026-05-04T15:35:38.998Z</time></trkpt><trkpt lat="40.84021397607523" lon="9.712360588865442"><ele>39.0</ele><time>2026-05-04T15:35:39.998Z</time></trkpt><trkpt lat="40.840153491637146" lon="9.71224969758859"><ele>39.0</ele><time>2026-05-04T15:35:40.998Z</time></trkpt><trkpt lat="40.840098532353124" lon="9.712132691510599"><ele>39.8</ele><time>2026-05-04T15:35:41.998Z</time></trkpt><trkpt lat="40.84005260403921" lon="9.712015650655154"><ele>40.599999999999994</ele><time>2026-05-04T15:35:42.998Z</time></trkpt><trkpt lat="40.840015907711845" lon="9.711889805997004"><ele>41.4</ele><time>2026-05-04T15:35:43.999Z</time></trkpt><trkpt lat="40.83998256363146" lon="9.711764038523931"><ele>42.199999999999996</ele><time>2026-05-04T15:35:44.999Z</time></trkpt><trkpt lat="40.839945455664505" lon="9.711644066064904"><ele>43.0</ele><time>2026-05-04T15:35:45.999Z</time></trkpt><trkpt lat="40.83992660424335" lon="9.711519627279685"><ele>43.0</ele><time>2026-05-04T15:35:46.999Z</time></trkpt><trkpt lat="40.839890495181216" lon="9.711405875635663"><ele>43.0</ele><time>2026-05-04T15:35:47.999Z</time></trkpt><trkpt lat="40.83980625391521" lon="9.711300628429495"><ele>43.0</ele><time>2026-05-04T15:35:48.999Z</time></trkpt><trkpt lat="40.8397345371391" lon="9.711189824664507"><ele>43.0</ele><time>2026-05-04T15:35:49.999Z</time></trkpt><trkpt lat="40.839685815110876" lon="9.711059535032454"><ele>43.0</ele><time>2026-05-04T15:35:50.999Z</time></trkpt><trkpt lat="40.839644606486054" lon="9.710940307249693"><ele>42.599999999999994</ele><time>2026-05-04T15:35:51.999Z</time></trkpt><trkpt lat="40.83963840980039" lon="9.710827733018158"><ele>42.199999999999996</ele><time>2026-05-04T15:35:52.999Z</time></trkpt><trkpt lat="40.83968695214083" lon="9.710728735194456"><ele>41.8</ele><time>2026-05-04T15:35:53.999Z</time></trkpt><trkpt lat="40.83977331462062" lon="9.710672440992255"><ele>41.4</ele><time>2026-05-04T15:35:54.999Z</time></trkpt><trkpt lat="40.839855045133355" lon="9.710608389510144"><ele>41.0</ele><time>2026-05-04T15:35:55.999Z</time></trkpt><trkpt lat="40.83992123814175" lon="9.710514344512413"><ele>41.0</ele><time>2026-05-04T15:35:56.999Z</time></trkpt><trkpt lat="40.83998908147141" lon="9.71044567772589"><ele>41.0</ele><time>2026-05-04T15:35:57.999Z</time></trkpt><trkpt lat="40.84003145765008" lon="9.710351611950385"><ele>41.0</ele><time>2026-05-04T15:35:58.999Z</time></trkpt><trkpt lat="40.84005133904564" lon="9.710239654868717"><ele>41.0</ele><time>2026-05-04T15:35:59.999Z</time></trkpt><trkpt lat="40.84007078454762" lon="9.710101010809467"><ele>41.0</ele><time>2026-05-04T15:36:00.999Z</time></trkpt><trkpt lat="40.84007756538062" lon="9.70996799773783"><ele>41.0</ele><time>2026-05-04T15:36:01.999Z</time></trkpt><trkpt lat="40.84010877782872" lon="9.70982663620069"><ele>41.0</ele><time>2026-05-04T15:36:02.999Z</time></trkpt><trkpt lat="40.84012154311016" lon="9.709670766942473"><ele>41.0</ele><time>2026-05-04T15:36:03.999Z</time></trkpt><trkpt lat="40.84014976725122" lon="9.709516870666148"><ele>41.0</ele><time>2026-05-04T15:36:04.999Z</time></trkpt><trkpt lat="40.84017060966382" lon="9.709361028528845"><ele>39.599999999999994</ele><time>2026-05-04T15:36:05.999Z</time></trkpt><trkpt lat="40.84019138609671" lon="9.709215897580938"><ele>38.199999999999996</ele><time>2026-05-04T15:36:06.999Z</time></trkpt><trkpt lat="40.84020834545863" lon="9.70908063513951"><ele>36.8</ele><time>2026-05-04T15:36:07.999Z</time></trkpt><trkpt lat="40.840224896717174" lon="9.708948375863782"><ele>35.4</ele><time>2026-05-04T15:36:08.999Z</time></trkpt><trkpt lat="40.84023567141569" lon="9.708822212186336"><ele>34.0</ele><time>2026-05-04T15:36:09.999Z</time></trkpt><trkpt lat="40.84024772470692" lon="9.708702557048515"><ele>34.0</ele><time>2026-05-04T15:36:10.999Z</time></trkpt><trkpt lat="40.84026366441063" lon="9.708582412885285"><ele>34.0</ele><time>2026-05-04T15:36:11.999Z</time></trkpt><trkpt lat="40.84026767864082" lon="9.708469378761722"><ele>34.0</ele><time>2026-05-04T15:36:12.999Z</time></trkpt><trkpt lat="40.8402431527144" lon="9.708371593528442"><ele>34.0</ele><time>2026-05-04T15:36:13.999Z</time></trkpt><trkpt lat="40.84018707207007" lon="9.708302792955811"><ele>34.0</ele><time>2026-05-04T15:36:14.999Z</time></trkpt><trkpt lat="40.840122287207485" lon="9.70823480364203"><ele>34.0</ele><time>2026-05-04T15:36:15.999Z</time></trkpt><trkpt lat="40.84001154627224" lon="9.708229765294535"><ele>33.4</ele><time>2026-05-04T15:36:16.999Z</time></trkpt><trkpt lat="40.83991201579037" lon="9.708202422033011"><ele>32.8</ele><time>2026-05-04T15:36:17.999Z</time></trkpt><trkpt lat="40.8398156653973" lon="9.70816492743813"><ele>32.2</ele><time>2026-05-04T15:36:18.999Z</time></trkpt><trkpt lat="40.83972920649019" lon="9.708113730697331"><ele>31.6</ele><time>2026-05-04T15:36:19.999Z</time></trkpt><trkpt lat="40.839650978377904" lon="9.708037585681549"><ele>31.0</ele><time>2026-05-04T15:36:20.999Z</time></trkpt><trkpt lat="40.83961241321736" lon="9.707919020259109"><ele>31.0</ele><time>2026-05-04T15:36:21.999Z</time></trkpt><trkpt lat="40.83954911088903" lon="9.707813792543263"><ele>31.0</ele><time>2026-05-04T15:36:22.999Z</time></trkpt><trkpt lat="40.839499112561406" lon="9.707716486548994"><ele>31.0</ele><time>2026-05-04T15:36:23.999Z</time></trkpt><trkpt lat="40.839436955908404" lon="9.707628016206469"><ele>31.0</ele><time>2026-05-04T15:36:25Z</time></trkpt><trkpt lat="40.83938898649458" lon="9.707537027849641"><ele>31.0</ele><time>2026-05-04T15:36:26Z</time></trkpt><trkpt lat="40.83933785078899" lon="9.707443130413791"><ele>30.000000000000004</ele><time>2026-05-04T15:36:27Z</time></trkpt><trkpt lat="40.83929376772349" lon="9.707349571729017"><ele>29.0</ele><time>2026-05-04T15:36:28Z</time></trkpt><trkpt lat="40.8392734593339" lon="9.707237436191784"><ele>28.0</ele><time>2026-05-04T15:36:29Z</time></trkpt><trkpt lat="40.83930044628218" lon="9.707124175669549"><ele>27.0</ele><time>2026-05-04T15:36:30Z</time></trkpt><trkpt lat="40.83936012904149" lon="9.707037691929214"><ele>26.000000000000004</ele><time>2026-05-04T15:36:31Z</time></trkpt><trkpt lat="40.83942915092487" lon="9.706961284274477"><ele>25.0</ele><time>2026-05-04T15:36:32Z</time></trkpt><trkpt lat="40.83949294173648" lon="9.706889438468735"><ele>22.8</ele><time>2026-05-04T15:36:33Z</time></trkpt><trkpt lat="40.83956813722156" lon="9.706779239880698"><ele>20.6</ele><time>2026-05-04T15:36:34Z</time></trkpt><trkpt lat="40.83962247370712" lon="9.70665961847304"><ele>18.4</ele><time>2026-05-04T15:36:35Z</time></trkpt><trkpt lat="40.8396615877571" lon="9.70653473621871"><ele>16.2</ele><time>2026-05-04T15:36:36Z</time></trkpt><trkpt lat="40.83970282015285" lon="9.706413520634204"><ele>14.0</ele><time>2026-05-04T15:36:37Z</time></trkpt><trkpt lat="40.83974096409889" lon="9.706298371657985"><ele>14.0</ele><time>2026-05-04T15:36:38Z</time></trkpt><trkpt lat="40.8397779108043" lon="9.706182696612897"><ele>13.999999999999998</ele><time>2026-05-04T15:36:39Z</time></trkpt><trkpt lat="40.839811921383486" lon="9.706069464411929"><ele>13.999999999999998</ele><time>2026-05-04T15:36:40Z</time></trkpt><trkpt lat="40.83985751938049" lon="9.70596105294127"><ele>14.0</ele><time>2026-05-04T15:36:41Z</time></trkpt><trkpt lat="40.83990135464077" lon="9.705838143154914"><ele>14.0</ele><time>2026-05-04T15:36:42Z</time></trkpt><trkpt lat="40.839952172138695" lon="9.705718975490374"><ele>13.0</ele><time>2026-05-04T15:36:43Z</time></trkpt><trkpt lat="40.84000439894217" lon="9.705609442055545"><ele>11.999999999999998</ele><time>2026-05-04T15:36:44Z</time></trkpt><trkpt lat="40.84006380805012" lon="9.705493551122393"><ele>11.0</ele><time>2026-05-04T15:36:45Z</time></trkpt><trkpt lat="40.84011450046117" lon="9.705367783311546"><ele>10.0</ele><time>2026-05-04T15:36:46Z</time></trkpt><trkpt lat="40.8401474630697" lon="9.705241512929787"><ele>9.0</ele><time>2026-05-04T15:36:47Z</time></trkpt><trkpt lat="40.84014991628956" lon="9.705120600130972"><ele>8.8</ele><time>2026-05-04T15:36:48Z</time></trkpt><trkpt lat="40.84012963280415" lon="9.70500690316311"><ele>8.600000000000001</ele><time>2026-05-04T15:36:49Z</time></trkpt><trkpt lat="40.84007930376105" lon="9.704889019697013"><ele>8.4</ele><time>2026-05-04T15:36:50Z</time></trkpt><trkpt lat="40.84002218552039" lon="9.704775314265952"><ele>8.200000000000001</ele><time>2026-05-04T15:36:51Z</time></trkpt><trkpt lat="40.8399841444776" lon="9.70466191726532"><ele>8.0</ele><time>2026-05-04T15:36:52Z</time></trkpt><trkpt lat="40.8399911189227" lon="9.704540556678356"><ele>8.0</ele><time>2026-05-04T15:36:53Z</time></trkpt><trkpt lat="40.84001160385744" lon="9.704428556823766"><ele>8.0</ele><time>2026-05-04T15:36:54Z</time></trkpt><trkpt lat="40.84005125992244" lon="9.704306564831802"><ele>8.0</ele><time>2026-05-04T15:36:55Z</time></trkpt><trkpt lat="40.84009956728702" lon="9.704179869539598"><ele>8.0</ele><time>2026-05-04T15:36:56Z</time></trkpt><trkpt lat="40.840152468805904" lon="9.704053100810988"><ele>8.0</ele><time>2026-05-04T15:36:57Z</time></trkpt><trkpt lat="40.84020654533759" lon="9.703925873817434"><ele>7.75</ele><time>2026-05-04T15:36:58Z</time></trkpt><trkpt lat="40.840254379773896" lon="9.703788097090243"><ele>7.5</ele><time>2026-05-04T15:36:59Z</time></trkpt><trkpt lat="40.840303069388845" lon="9.703642707594122"><ele>7.25</ele><time>2026-05-04T15:37:00Z</time></trkpt><trkpt lat="40.840353116756816" lon="9.703491280110692"><ele>7.0</ele><time>2026-05-04T15:37:01Z</time></trkpt><trkpt lat="40.84040640963612" lon="9.703347817840108"><ele>8.5</ele><time>2026-05-04T15:37:02Z</time></trkpt><trkpt lat="40.84046284298178" lon="9.7032013591328"><ele>10.0</ele><time>2026-05-04T15:37:03Z</time></trkpt><trkpt lat="40.840517122504096" lon="9.703058213277961"><ele>11.5</ele><time>2026-05-04T15:37:04Z</time></trkpt><trkpt lat="40.84058491168233" lon="9.702927883061205"><ele>13.0</ele><time>2026-05-04T15:37:05Z</time></trkpt><trkpt lat="40.8406694330101" lon="9.70279770405075"><ele>13.5</ele><time>2026-05-04T15:37:06Z</time></trkpt><trkpt lat="40.84076577210544" lon="9.702675169773121"><ele>14.0</ele><time>2026-05-04T15:37:07Z</time></trkpt><trkpt lat="40.840856443639076" lon="9.70257321576535"><ele>14.5</ele><time>2026-05-04T15:37:08Z</time></trkpt><trkpt lat="40.840943740694264" lon="9.702479147445743"><ele>15.0</ele><time>2026-05-04T15:37:09Z</time></trkpt><trkpt lat="40.84101783051205" lon="9.702378856562966"><ele>15.4</ele><time>2026-05-04T15:37:10Z</time></trkpt><trkpt lat="40.84108981645269" lon="9.702277199855544"><ele>15.8</ele><time>2026-05-04T15:37:11Z</time></trkpt><trkpt lat="40.841162112332334" lon="9.702171589534494"><ele>16.2</ele><time>2026-05-04T15:37:12Z</time></trkpt><trkpt lat="40.84124185069105" lon="9.702074497451752"><ele>16.6</ele><time>2026-05-04T15:37:13Z</time></trkpt><trkpt lat="40.84134008878964" lon="9.702041776760778"><ele>17.0</ele><time>2026-05-04T15:37:14Z</time></trkpt><trkpt lat="40.841408866336074" lon="9.701976242782054"><ele>17.0</ele><time>2026-05-04T15:37:15Z</time></trkpt><trkpt lat="40.84148230256271" lon="9.701924878154879"><ele>17.0</ele><time>2026-05-04T15:37:16Z</time></trkpt><trkpt lat="40.84156252285929" lon="9.701860556281597"><ele>17.0</ele><time>2026-05-04T15:37:17Z</time></trkpt><trkpt lat="40.84164842615102" lon="9.701800317360453"><ele>17.0</ele><time>2026-05-04T15:37:18Z</time></trkpt><trkpt lat="40.841737026901725" lon="9.701740620174519"><ele>17.0</ele><time>2026-05-04T15:37:19Z</time></trkpt><trkpt lat="40.84183049591083" lon="9.701664720200931"><ele>17.0</ele><time>2026-05-04T15:37:20Z</time></trkpt><trkpt lat="40.841928013489145" lon="9.701585513088341"><ele>17.0</ele><time>2026-05-04T15:37:21Z</time></trkpt><trkpt lat="40.842034375576944" lon="9.701527619234485"><ele>17.0</ele><time>2026-05-04T15:37:22Z</time></trkpt><trkpt lat="40.842141745938925" lon="9.701473508315567"><ele>17.0</ele><time>2026-05-04T15:37:23Z</time></trkpt><trkpt lat="40.8422616520297" lon="9.701458673201062"><ele>17.0</ele><time>2026-05-04T15:37:24Z</time></trkpt><trkpt lat="40.84237728783095" lon="9.70141647417048"><ele>17.0</ele><time>2026-05-04T15:37:25Z</time></trkpt><trkpt lat="40.84249711517787" lon="9.701387965311469"><ele>17.0</ele><time>2026-05-04T15:37:26Z</time></trkpt><trkpt lat="40.84261636875522" lon="9.701361169863024"><ele>17.0</ele><time>2026-05-04T15:37:27Z</time></trkpt><trkpt lat="40.84273593660902" lon="9.701341448886879"><ele>16.5</ele><time>2026-05-04T15:37:28Z</time></trkpt><trkpt lat="40.842858066698575" lon="9.701308214210853"><ele>16.0</ele><time>2026-05-04T15:37:29Z</time></trkpt><trkpt lat="40.842973269093385" lon="9.701287138709553"><ele>15.5</ele><time>2026-05-04T15:37:30Z</time></trkpt><trkpt lat="40.84309351043517" lon="9.701248219319835"><ele>15.0</ele><time>2026-05-04T15:37:30.999Z</time></trkpt><trkpt lat="40.84322122256361" lon="9.701232355791692"><ele>15.0</ele><time>2026-05-04T15:37:31.999Z</time></trkpt><trkpt lat="40.84334232382897" lon="9.701210606249749"><ele>15.0</ele><time>2026-05-04T15:37:32.999Z</time></trkpt><trkpt lat="40.84345718501315" lon="9.701181515036119"><ele>15.0</ele><time>2026-05-04T15:37:33.999Z</time></trkpt><trkpt lat="40.84356710871743" lon="9.70115001701237"><ele>15.0</ele><time>2026-05-04T15:37:34.999Z</time></trkpt><trkpt lat="40.84366426185759" lon="9.701114451540972"><ele>14.2</ele><time>2026-05-04T15:37:35.999Z</time></trkpt><trkpt lat="40.84374824904193" lon="9.701056973912044"><ele>13.4</ele><time>2026-05-04T15:37:36.999Z</time></trkpt><trkpt lat="40.843808042471096" lon="9.700967574220615"><ele>12.600000000000001</ele><time>2026-05-04T15:37:37.999Z</time></trkpt><trkpt lat="40.84383668605895" lon="9.700854593498423"><ele>11.8</ele><time>2026-05-04T15:37:38.999Z</time></trkpt><trkpt lat="40.84383143074778" lon="9.700717883994491"><ele>11.0</ele><time>2026-05-04T15:37:39.999Z</time></trkpt><trkpt lat="40.843803814476246" lon="9.700578031243307"><ele>11.0</ele><time>2026-05-04T15:37:40.999Z</time></trkpt><trkpt lat="40.84377840603078" lon="9.700411383354158"><ele>11.0</ele><time>2026-05-04T15:37:41.999Z</time></trkpt><trkpt lat="40.84375505548271" lon="9.700238856258956"><ele>11.0</ele><time>2026-05-04T15:37:42.999Z</time></trkpt><trkpt lat="40.84371730417021" lon="9.700068123854104"><ele>11.0</ele><time>2026-05-04T15:37:43.999Z</time></trkpt><trkpt lat="40.84370309020644" lon="9.69990308184035"><ele>11.25</ele><time>2026-05-04T15:37:44.999Z</time></trkpt><trkpt lat="40.84367951875607" lon="9.69975097212212"><ele>11.5</ele><time>2026-05-04T15:37:45.999Z</time></trkpt><trkpt lat="40.84365887510265" lon="9.699595243902866"><ele>11.75</ele><time>2026-05-04T15:37:46.999Z</time></trkpt><trkpt lat="40.84363667982759" lon="9.699438950297038"><ele>12.0</ele><time>2026-05-04T15:37:48Z</time></trkpt><trkpt lat="40.843613422108554" lon="9.699285680366993"><ele>12.0</ele><time>2026-05-04T15:37:49Z</time></trkpt><trkpt lat="40.84360611110657" lon="9.699131497151356"><ele>12.0</ele><time>2026-05-04T15:37:50Z</time></trkpt><trkpt lat="40.84356909037577" lon="9.69898062792576"><ele>12.0</ele><time>2026-05-04T15:37:51Z</time></trkpt><trkpt lat="40.84355479036602" lon="9.698817978029684"><ele>12.0</ele><time>2026-05-04T15:37:52Z</time></trkpt><trkpt lat="40.84353139499545" lon="9.69865380543469"><ele>12.0</ele><time>2026-05-04T15:37:53Z</time></trkpt><trkpt lat="40.843500470886966" lon="9.698490551881696"><ele>12.0</ele><time>2026-05-04T15:37:54Z</time></trkpt><trkpt lat="40.84347134715284" lon="9.698331773979039"><ele>12.0</ele><time>2026-05-04T15:37:55Z</time></trkpt><trkpt lat="40.84344118936201" lon="9.69817817719635"><ele>12.0</ele><time>2026-05-04T15:37:56Z</time></trkpt><trkpt lat="40.843417088524596" lon="9.698020907333031"><ele>12.0</ele><time>2026-05-04T15:37:57Z</time></trkpt><trkpt lat="40.84338810831235" lon="9.697863366475877"><ele>12.0</ele><time>2026-05-04T15:37:58Z</time></trkpt><trkpt lat="40.843357517079305" lon="9.697706830632615"><ele>12.0</ele><time>2026-05-04T15:37:59Z</time></trkpt><trkpt lat="40.84333134222041" lon="9.697543790529608"><ele>12.0</ele><time>2026-05-04T15:38:00Z</time></trkpt><trkpt lat="40.8433048726313" lon="9.697385559184864"><ele>11.75</ele><time>2026-05-04T15:38:01Z</time></trkpt><trkpt lat="40.843265393200795" lon="9.69722414632295"><ele>11.5</ele><time>2026-05-04T15:38:02Z</time></trkpt><trkpt lat="40.84320553222782" lon="9.697070285538235"><ele>11.25</ele><time>2026-05-04T15:38:03Z</time></trkpt><trkpt lat="40.84313330419192" lon="9.696929099008926"><ele>11.0</ele><time>2026-05-04T15:38:04Z</time></trkpt><trkpt lat="40.843054981083306" lon="9.696803802052484"><ele>10.600000000000001</ele><time>2026-05-04T15:38:05Z</time></trkpt><trkpt lat="40.84297077977053" lon="9.696687267866544"><ele>10.200000000000001</ele><time>2026-05-04T15:38:06Z</time></trkpt><trkpt lat="40.842898071704084" lon="9.696573370224867"><ele>9.8</ele><time>2026-05-04T15:38:07Z</time></trkpt><trkpt lat="40.842864083601874" lon="9.696444133290962"><ele>9.4</ele><time>2026-05-04T15:38:08Z</time></trkpt><trkpt lat="40.84286355345601" lon="9.696305689272267"><ele>9.0</ele><time>2026-05-04T15:38:09Z</time></trkpt><trkpt lat="40.84290443903379" lon="9.696155832924228"><ele>8.5</ele><time>2026-05-04T15:38:10Z</time></trkpt><trkpt lat="40.84293566603154" lon="9.695993706448455"><ele>8.0</ele><time>2026-05-04T15:38:11Z</time></trkpt><trkpt lat="40.84297062433034" lon="9.695837328509961"><ele>7.5</ele><time>2026-05-04T15:38:12Z</time></trkpt><trkpt lat="40.84297457565361" lon="9.6956804581892"><ele>7.0</ele><time>2026-05-04T15:38:13Z</time></trkpt><trkpt lat="40.84294114451872" lon="9.695514165337121"><ele>7.0</ele><time>2026-05-04T15:38:14Z</time></trkpt><trkpt lat="40.8428873870169" lon="9.695349571227007"><ele>7.0</ele><time>2026-05-04T15:38:15Z</time></trkpt><trkpt lat="40.842823376113216" lon="9.69518903723751"><ele>7.0</ele><time>2026-05-04T15:38:16Z</time></trkpt><trkpt lat="40.842763254664334" lon="9.695026746523734"><ele>7.0</ele><time>2026-05-04T15:38:17Z</time></trkpt><trkpt lat="40.842702250002006" lon="9.694859011610882"><ele>6.25</ele><time>2026-05-04T15:38:18Z</time></trkpt><trkpt lat="40.84264556312435" lon="9.694678973168548"><ele>5.5</ele><time>2026-05-04T15:38:19Z</time></trkpt><trkpt lat="40.84258184834764" lon="9.694494810503969"><ele>4.75</ele><time>2026-05-04T15:38:20Z</time></trkpt><trkpt lat="40.842527807195594" lon="9.694312585466909"><ele>4.0</ele><time>2026-05-04T15:38:21Z</time></trkpt><trkpt lat="40.842463164790765" lon="9.694127041202593"><ele>3.333333333333333</ele><time>2026-05-04T15:38:22Z</time></trkpt><trkpt lat="40.84241132527243" lon="9.693932264606488"><ele>2.6666666666666665</ele><time>2026-05-04T15:38:23Z</time></trkpt><trkpt lat="40.84234565544963" lon="9.693735202751952"><ele>2.0</ele><time>2026-05-04T15:38:24Z</time></trkpt><trkpt lat="40.84227947784464" lon="9.693535539355834"><ele>2.0</ele><time>2026-05-04T15:38:25Z</time></trkpt><trkpt lat="40.84221455819986" lon="9.693339671303729"><ele>2.0</ele><time>2026-05-04T15:38:26Z</time></trkpt><trkpt lat="40.842145626511495" lon="9.693137313730471"><ele>2.0</ele><time>2026-05-04T15:38:27Z</time></trkpt><trkpt lat="40.84207783871204" lon="9.692939287563306"><ele>2.6666666666666665</ele><time>2026-05-04T15:38:28Z</time></trkpt><trkpt lat="40.84201099477336" lon="9.692739164241548"><ele>3.333333333333333</ele><time>2026-05-04T15:38:29Z</time></trkpt><trkpt lat="40.84194564468635" lon="9.692542828109294"><ele>4.0</ele><time>2026-05-04T15:38:30Z</time></trkpt><trkpt lat="40.8418815436688" lon="9.69235148251122"><ele>4.0</ele><time>2026-05-04T15:38:31Z</time></trkpt><trkpt lat="40.84181768160446" lon="9.692160850218558"><ele>4.0</ele><time>2026-05-04T15:38:32Z</time></trkpt><trkpt lat="40.84175296112242" lon="9.691967655462742"><ele>4.0</ele><time>2026-05-04T15:38:33Z</time></trkpt><trkpt lat="40.841689311652694" lon="9.691777657759953"><ele>5.333333333333333</ele><time>2026-05-04T15:38:34Z</time></trkpt><trkpt lat="40.84162843005929" lon="9.691583364201247"><ele>6.666666666666666</ele><time>2026-05-04T15:38:35Z</time></trkpt><trkpt lat="40.841566927169424" lon="9.69140223331037"><ele>8.0</ele><time>2026-05-04T15:38:36Z</time></trkpt><trkpt lat="40.841488774435796" lon="9.691231180545495"><ele>9.0</ele><time>2026-05-04T15:38:37Z</time></trkpt><trkpt lat="40.84144038563014" lon="9.691041940734959"><ele>10.0</ele><time>2026-05-04T15:38:38Z</time></trkpt><trkpt lat="40.84137853341435" lon="9.690857508691689"><ele>11.0</ele><time>2026-05-04T15:38:39Z</time></trkpt><trkpt lat="40.841313170465476" lon="9.690662608237071"><ele>11.0</ele><time>2026-05-04T15:38:40Z</time></trkpt><trkpt lat="40.841245485726745" lon="9.690459584369554"><ele>11.0</ele><time>2026-05-04T15:38:41Z</time></trkpt><trkpt lat="40.84117912881322" lon="9.690259333244633"><ele>11.0</ele><time>2026-05-04T15:38:42Z</time></trkpt><trkpt lat="40.841112939778675" lon="9.690059588791529"><ele>10.333333333333332</ele><time>2026-05-04T15:38:43Z</time></trkpt><trkpt lat="40.84104963680785" lon="9.689868776963921"><ele>9.666666666666666</ele><time>2026-05-04T15:38:44Z</time></trkpt><trkpt lat="40.84098786493263" lon="9.68968301196473"><ele>9.0</ele><time>2026-05-04T15:38:45Z</time></trkpt><trkpt lat="40.84092754214474" lon="9.689501604745578"><ele>10.0</ele><time>2026-05-04T15:38:46Z</time></trkpt><trkpt lat="40.84086763566958" lon="9.689320546120266"><ele>11.0</ele><time>2026-05-04T15:38:47Z</time></trkpt><trkpt lat="40.84080153560206" lon="9.689120617414181"><ele>12.0</ele><time>2026-05-04T15:38:48Z</time></trkpt><trkpt lat="40.84073343932561" lon="9.688911556811078"><ele>12.0</ele><time>2026-05-04T15:38:49Z</time></trkpt><trkpt lat="40.84066164629737" lon="9.688685329966335"><ele>12.0</ele><time>2026-05-04T15:38:50Z</time></trkpt><trkpt lat="40.84058964317616" lon="9.688457528801514"><ele>12.0</ele><time>2026-05-04T15:38:51Z</time></trkpt><trkpt lat="40.84051851544017" lon="9.68823249718137"><ele>12.0</ele><time>2026-05-04T15:38:52Z</time></trkpt><trkpt lat="40.84045123873928" lon="9.688019649233226"><ele>12.0</ele><time>2026-05-04T15:38:53Z</time></trkpt><trkpt lat="40.840387535792395" lon="9.687820585118867"><ele>12.0</ele><time>2026-05-04T15:38:54Z</time></trkpt><trkpt lat="40.84033005161675" lon="9.687635303922663"><ele>12.0</ele><time>2026-05-04T15:38:55Z</time></trkpt><trkpt lat="40.84029264713654" lon="9.68745289116084"><ele>12.0</ele><time>2026-05-04T15:38:56Z</time></trkpt><trkpt lat="40.84028671652982" lon="9.687299550931677"><ele>12.0</ele><time>2026-05-04T15:38:57Z</time></trkpt><trkpt lat="40.84031293387221" lon="9.687172742113635"><ele>12.0</ele><time>2026-05-04T15:38:58Z</time></trkpt><trkpt lat="40.84036155910214" lon="9.687025292009372"><ele>12.0</ele><time>2026-05-04T15:38:59Z</time></trkpt><trkpt lat="40.84042900689014" lon="9.686872365530144"><ele>12.0</ele><time>2026-05-04T15:39:00Z</time></trkpt><trkpt lat="40.84051265659957" lon="9.68669731428691"><ele>12.0</ele><time>2026-05-04T15:39:01Z</time></trkpt><trkpt lat="40.84060384182759" lon="9.68651362016642"><ele>12.0</ele><time>2026-05-04T15:39:02Z</time></trkpt><trkpt lat="40.84071995282937" lon="9.686286005748878"><ele>12.0</ele><time>2026-05-04T15:39:03Z</time></trkpt><trkpt lat="40.840842105129006" lon="9.686050102399937"><ele>12.0</ele><time>2026-05-04T15:39:04.001Z</time></trkpt><trkpt lat="40.84094677942106" lon="9.685847482475394"><ele>10.333333333333334</ele><time>2026-05-04T15:39:05.001Z</time></trkpt><trkpt lat="40.84104053166538" lon="9.685655395474324"><ele>8.666666666666668</ele><time>2026-05-04T15:39:06.001Z</time></trkpt><trkpt lat="40.84112925669874" lon="9.685464143764639"><ele>7.0</ele><time>2026-05-04T15:39:07.001Z</time></trkpt><trkpt lat="40.84121049976866" lon="9.685287191631723"><ele>7.0</ele><time>2026-05-04T15:39:08.001Z</time></trkpt><trkpt lat="40.84128214539672" lon="9.685116824157843"><ele>7.0</ele><time>2026-05-04T15:39:09.001Z</time></trkpt><trkpt lat="40.84132201591082" lon="9.684936471041333"><ele>7.0</ele><time>2026-05-04T15:39:10.001Z</time></trkpt><trkpt lat="40.84135738364513" lon="9.684787166378015"><ele>7.0</ele><time>2026-05-04T15:39:11.001Z</time></trkpt><trkpt lat="40.841321484021506" lon="9.684618969443173"><ele>7.0</ele><time>2026-05-04T15:39:12.001Z</time></trkpt><trkpt lat="40.8412877370461" lon="9.684480546253456"><ele>7.0</ele><time>2026-05-04T15:39:13.001Z</time></trkpt><trkpt lat="40.841239310932735" lon="9.684340014481734"><ele>7.0</ele><time>2026-05-04T15:39:14.001Z</time></trkpt><trkpt lat="40.84118924235765" lon="9.684187194617452"><ele>7.0</ele><time>2026-05-04T15:39:15.001Z</time></trkpt><trkpt lat="40.84113201796984" lon="9.684031679762194"><ele>7.5</ele><time>2026-05-04T15:39:16.001Z</time></trkpt><trkpt lat="40.841077531276085" lon="9.683863970456567"><ele>8.0</ele><time>2026-05-04T15:39:17.001Z</time></trkpt><trkpt lat="40.84102786749178" lon="9.683680000923856"><ele>8.5</ele><time>2026-05-04T15:39:18.001Z</time></trkpt><trkpt lat="40.84095751483642" lon="9.683511250814373"><ele>9.0</ele><time>2026-05-04T15:39:19.001Z</time></trkpt><trkpt lat="40.840896235832666" lon="9.683342041352802"><ele>9.5</ele><time>2026-05-04T15:39:20.001Z</time></trkpt><trkpt lat="40.84084707738245" lon="9.683164532296692"><ele>10.0</ele><time>2026-05-04T15:39:21.001Z</time></trkpt><trkpt lat="40.84078330397086" lon="9.682999748366898"><ele>10.5</ele><time>2026-05-04T15:39:22.001Z</time></trkpt><trkpt lat="40.84072603343875" lon="9.682827083563856"><ele>11.0</ele><time>2026-05-04T15:39:23.001Z</time></trkpt><trkpt lat="40.840670408241316" lon="9.682652693821852"><ele>12.0</ele><time>2026-05-04T15:39:24.001Z</time></trkpt><trkpt lat="40.84061312639718" lon="9.68247258238751"><ele>13.0</ele><time>2026-05-04T15:39:25.001Z</time></trkpt><trkpt lat="40.84054739111189" lon="9.682287626669611"><ele>14.0</ele><time>2026-05-04T15:39:26.001Z</time></trkpt><trkpt lat="40.840481494390026" lon="9.682100066744995"><ele>14.333333333333334</ele><time>2026-05-04T15:39:27.001Z</time></trkpt><trkpt lat="40.8404112806582" lon="9.68190797293119"><ele>14.666666666666668</ele><time>2026-05-04T15:39:28.001Z</time></trkpt><trkpt lat="40.840340500015294" lon="9.681702904844633"><ele>15.0</ele><time>2026-05-04T15:39:29.001Z</time></trkpt><trkpt lat="40.84026882721383" lon="9.681498797207349"><ele>15.0</ele><time>2026-05-04T15:39:30.001Z</time></trkpt><trkpt lat="40.8402106200114" lon="9.681275250978231"><ele>15.0</ele><time>2026-05-04T15:39:31.001Z</time></trkpt><trkpt lat="40.84013893545567" lon="9.681067042502027"><ele>15.0</ele><time>2026-05-04T15:39:32.001Z</time></trkpt><trkpt lat="40.840058665778315" lon="9.680877110048366"><ele>15.0</ele><time>2026-05-04T15:39:33.001Z</time></trkpt><trkpt lat="40.839995710082256" lon="9.680685818665184"><ele>15.0</ele><time>2026-05-04T15:39:34.001Z</time></trkpt><trkpt lat="40.839936333026216" lon="9.680499152872317"><ele>15.0</ele><time>2026-05-04T15:39:35.001Z</time></trkpt><trkpt lat="40.83987390276309" lon="9.680314945115096"><ele>15.75</ele><time>2026-05-04T15:39:36.001Z</time></trkpt><trkpt lat="40.83980858263487" lon="9.680143013215382"><ele>16.5</ele><time>2026-05-04T15:39:37.001Z</time></trkpt><trkpt lat="40.83973014747878" lon="9.679981083552546"><ele>17.25</ele><time>2026-05-04T15:39:38.001Z</time></trkpt><trkpt lat="40.83964419405329" lon="9.6798438834564"><ele>18.0</ele><time>2026-05-04T15:39:39.001Z</time></trkpt><trkpt lat="40.83954576032706" lon="9.679750256827504"><ele>18.0</ele><time>2026-05-04T15:39:40.001Z</time></trkpt><trkpt lat="40.83942831524429" lon="9.679691540869047"><ele>18.0</ele><time>2026-05-04T15:39:41.001Z</time></trkpt><trkpt lat="40.839288437496776" lon="9.679658667834051"><ele>18.0</ele><time>2026-05-04T15:39:42.001Z</time></trkpt><trkpt lat="40.83913673352044" lon="9.679635697071218"><ele>18.0</ele><time>2026-05-04T15:39:43.001Z</time></trkpt><trkpt lat="40.8389995409264" lon="9.679577539992358"><ele>18.0</ele><time>2026-05-04T15:39:44Z</time></trkpt><trkpt lat="40.83888553993131" lon="9.679512314569816"><ele>18.0</ele><time>2026-05-04T15:39:45Z</time></trkpt><trkpt lat="40.83878852142875" lon="9.679440516245783"><ele>18.0</ele><time>2026-05-04T15:39:46.001Z</time></trkpt><trkpt lat="40.83869267363867" lon="9.67933371827622"><ele>18.0</ele><time>2026-05-04T15:39:47.001Z</time></trkpt><trkpt lat="40.83860190916468" lon="9.679212549540956"><ele>18.5</ele><time>2026-05-04T15:39:48.001Z</time></trkpt><trkpt lat="40.83851237153957" lon="9.679088603007953"><ele>19.0</ele><time>2026-05-04T15:39:49Z</time></trkpt><trkpt lat="40.83843253173489" lon="9.678970471123954"><ele>19.5</ele><time>2026-05-04T15:39:50Z</time></trkpt><trkpt lat="40.83834436430172" lon="9.678856940000278"><ele>20.0</ele><time>2026-05-04T15:39:51Z</time></trkpt><trkpt lat="40.83827338900648" lon="9.678696247413765"><ele>20.666666666666668</ele><time>2026-05-04T15:39:52Z</time></trkpt><trkpt lat="40.83818913091412" lon="9.678534645840493"><ele>21.333333333333332</ele><time>2026-05-04T15:39:53Z</time></trkpt><trkpt lat="40.838096181407494" lon="9.678358743026394"><ele>22.0</ele><time>2026-05-04T15:39:54Z</time></trkpt><trkpt lat="40.83799924513414" lon="9.678176264613663"><ele>22.0</ele><time>2026-05-04T15:39:55Z</time></trkpt><trkpt lat="40.83790259272969" lon="9.677994610124673"><ele>22.0</ele><time>2026-05-04T15:39:56Z</time></trkpt><trkpt lat="40.83780294036107" lon="9.677809180325305"><ele>22.0</ele><time>2026-05-04T15:39:57Z</time></trkpt><trkpt lat="40.837702155332046" lon="9.677628037763329"><ele>19.666666666666664</ele><time>2026-05-04T15:39:58Z</time></trkpt><trkpt lat="40.837615653439336" lon="9.677456343803096"><ele>17.333333333333332</ele><time>2026-05-04T15:39:59Z</time></trkpt><trkpt lat="40.837531661543494" lon="9.6772929320753"><ele>15.0</ele><time>2026-05-04T15:40:00Z</time></trkpt><trkpt lat="40.83744042852433" lon="9.677132033062783"><ele>15.0</ele><time>2026-05-04T15:40:01Z</time></trkpt><trkpt lat="40.8373529530376" lon="9.676944284493214"><ele>15.0</ele><time>2026-05-04T15:40:02Z</time></trkpt><trkpt lat="40.837251485858985" lon="9.67676884041704"><ele>15.0</ele><time>2026-05-04T15:40:03Z</time></trkpt><trkpt lat="40.83716027904163" lon="9.676581000833814"><ele>16.666666666666668</ele><time>2026-05-04T15:40:04Z</time></trkpt><trkpt lat="40.837069064465524" lon="9.67640665591036"><ele>18.333333333333336</ele><time>2026-05-04T15:40:05Z</time></trkpt><trkpt lat="40.83697304064672" lon="9.676249917613925"><ele>20.0</ele><time>2026-05-04T15:40:06Z</time></trkpt><trkpt lat="40.83688320474617" lon="9.676092300456364"><ele>18.333333333333336</ele><time>2026-05-04T15:40:07Z</time></trkpt><trkpt lat="40.836793867137345" lon="9.67592985795929"><ele>16.666666666666668</ele><time>2026-05-04T15:40:08Z</time></trkpt><trkpt lat="40.83669829024712" lon="9.675775127817833"><ele>15.0</ele><time>2026-05-04T15:40:09.001Z</time></trkpt><trkpt lat="40.83660420761235" lon="9.67560929384473"><ele>15.0</ele><time>2026-05-04T15:40:10.001Z</time></trkpt><trkpt lat="40.836480252035784" lon="9.675477758170834"><ele>15.0</ele><time>2026-05-04T15:40:11.001Z</time></trkpt><trkpt lat="40.83635911744011" lon="9.675338506281275"><ele>15.0</ele><time>2026-05-04T15:40:12.001Z</time></trkpt><trkpt lat="40.83623286751004" lon="9.675203914174952"><ele>15.0</ele><time>2026-05-04T15:40:13.001Z</time></trkpt><trkpt lat="40.83611417919017" lon="9.67506321014841"><ele>15.0</ele><time>2026-05-04T15:40:14.001Z</time></trkpt><trkpt lat="40.8360019876297" lon="9.674912781461433"><ele>15.0</ele><time>2026-05-04T15:40:15.001Z</time></trkpt><trkpt lat="40.83590029919029" lon="9.674759276302309"><ele>13.333333333333334</ele><time>2026-05-04T15:40:16.001Z</time></trkpt><trkpt lat="40.83581960197974" lon="9.674568258786653"><ele>11.666666666666668</ele><time>2026-05-04T15:40:17.001Z</time></trkpt><trkpt lat="40.83574225006387" lon="9.674372801929268"><ele>10.0</ele><time>2026-05-04T15:40:18.001Z</time></trkpt><trkpt lat="40.83565244759454" lon="9.674178380684609"><ele>9.333333333333334</ele><time>2026-05-04T15:40:19.001Z</time></trkpt><trkpt lat="40.835589027796" lon="9.673970206379556"><ele>8.666666666666666</ele><time>2026-05-04T15:40:20.001Z</time></trkpt><trkpt lat="40.83551850601391" lon="9.673766182318985"><ele>8.0</ele><time>2026-05-04T15:40:21.001Z</time></trkpt><trkpt lat="40.83544695628047" lon="9.673564691960635"><ele>8.0</ele><time>2026-05-04T15:40:22.001Z</time></trkpt><trkpt lat="40.83537221138764" lon="9.673365812388287"><ele>8.0</ele><time>2026-05-04T15:40:23.001Z</time></trkpt><trkpt lat="40.83528790333166" lon="9.673171913987277"><ele>8.0</ele><time>2026-05-04T15:40:24.001Z</time></trkpt><trkpt lat="40.83520678176618" lon="9.672974643531562"><ele>7.333333333333333</ele><time>2026-05-04T15:40:25.001Z</time></trkpt><trkpt lat="40.83512737102812" lon="9.672770026397364"><ele>6.666666666666666</ele><time>2026-05-04T15:40:26.001Z</time></trkpt><trkpt lat="40.83504685326685" lon="9.672571284843157"><ele>6.0</ele><time>2026-05-04T15:40:27.001Z</time></trkpt><trkpt lat="40.834970653063024" lon="9.672378455521319"><ele>6.0</ele><time>2026-05-04T15:40:28.001Z</time></trkpt><trkpt lat="40.83489915718722" lon="9.672176358981883"><ele>6.0</ele><time>2026-05-04T15:40:29.001Z</time></trkpt><trkpt lat="40.834864212363414" lon="9.671956928988518"><ele>6.0</ele><time>2026-05-04T15:40:30.001Z</time></trkpt><trkpt lat="40.8348266272739" lon="9.671728106686084"><ele>6.333333333333334</ele><time>2026-05-04T15:40:31.001Z</time></trkpt><trkpt lat="40.8347914429634" lon="9.671497438414724"><ele>6.666666666666667</ele><time>2026-05-04T15:40:32.001Z</time></trkpt><trkpt lat="40.83475488512546" lon="9.671257765318417"><ele>7.0</ele><time>2026-05-04T15:40:33.001Z</time></trkpt><trkpt lat="40.83471856489278" lon="9.671019649949267"><ele>7.666666666666667</ele><time>2026-05-04T15:40:34.001Z</time></trkpt><trkpt lat="40.83468255786264" lon="9.670783587926485"><ele>8.333333333333334</ele><time>2026-05-04T15:40:35.001Z</time></trkpt><trkpt lat="40.83464640861528" lon="9.670546593529775"><ele>9.0</ele><time>2026-05-04T15:40:36.001Z</time></trkpt><trkpt lat="40.83461047192906" lon="9.670315621459597"><ele>9.0</ele><time>2026-05-04T15:40:37.001Z</time></trkpt><trkpt lat="40.83457570919925" lon="9.670094191827307"><ele>9.0</ele><time>2026-05-04T15:40:38.001Z</time></trkpt><trkpt lat="40.83454013321273" lon="9.669867581953612"><ele>9.0</ele><time>2026-05-04T15:40:39.001Z</time></trkpt><trkpt lat="40.83450335632264" lon="9.669633322630155"><ele>9.333333333333334</ele><time>2026-05-04T15:40:40.001Z</time></trkpt><trkpt lat="40.83446658530543" lon="9.669399100730656"><ele>9.666666666666668</ele><time>2026-05-04T15:40:41.001Z</time></trkpt><trkpt lat="40.83443029685012" lon="9.669167952614695"><ele>10.0</ele><time>2026-05-04T15:40:42.001Z</time></trkpt><trkpt lat="40.83439492070755" lon="9.668942615687168"><ele>10.0</ele><time>2026-05-04T15:40:43.001Z</time></trkpt><trkpt lat="40.8343590102781" lon="9.668713875500593"><ele>10.0</ele><time>2026-05-04T15:40:44.001Z</time></trkpt><trkpt lat="40.83432436118463" lon="9.668493169700286"><ele>10.0</ele><time>2026-05-04T15:40:45.001Z</time></trkpt><trkpt lat="40.83429268799605" lon="9.668297725164024"><ele>10.0</ele><time>2026-05-04T15:40:46.001Z</time></trkpt><trkpt lat="40.83425730739971" lon="9.668138738035251"><ele>10.0</ele><time>2026-05-04T15:40:47.001Z</time></trkpt><trkpt lat="40.83420813974452" lon="9.668018114604209"><ele>10.0</ele><time>2026-05-04T15:40:48.001Z</time></trkpt><trkpt lat="40.83418347025232" lon="9.667890155305875"><ele>10.0</ele><time>2026-05-04T15:40:49.001Z</time></trkpt><trkpt lat="40.834165698325" lon="9.66775959773008"><ele>10.0</ele><time>2026-05-04T15:40:50.001Z</time></trkpt><trkpt lat="40.83415147526033" lon="9.667627303323751"><ele>10.4</ele><time>2026-05-04T15:40:51.001Z</time></trkpt><trkpt lat="40.83412891699292" lon="9.667494808118475"><ele>10.8</ele><time>2026-05-04T15:40:52.001Z</time></trkpt><trkpt lat="40.83411043125486" lon="9.667368518585395"><ele>11.2</ele><time>2026-05-04T15:40:53.001Z</time></trkpt><trkpt lat="40.83409799471331" lon="9.66724667690588"><ele>11.6</ele><time>2026-05-04T15:40:54.001Z</time></trkpt><trkpt lat="40.83409637417449" lon="9.667125725159224"><ele>12.0</ele><time>2026-05-04T15:40:55.001Z</time></trkpt><trkpt lat="40.834102368616364" lon="9.666988265637492"><ele>12.5</ele><time>2026-05-04T15:40:56.001Z</time></trkpt><trkpt lat="40.83410451341089" lon="9.666836608227394"><ele>13.0</ele><time>2026-05-04T15:40:57.001Z</time></trkpt><trkpt lat="40.83410356974337" lon="9.666680307508125"><ele>13.5</ele><time>2026-05-04T15:40:58.001Z</time></trkpt><trkpt lat="40.83410520883937" lon="9.666502918852835"><ele>14.0</ele><time>2026-05-04T15:40:59.001Z</time></trkpt><trkpt lat="40.83410764296962" lon="9.666322524168198"><ele>14.0</ele><time>2026-05-04T15:41:00.001Z</time></trkpt><trkpt lat="40.83410519116681" lon="9.66615095953356"><ele>14.0</ele><time>2026-05-04T15:41:01.001Z</time></trkpt><trkpt lat="40.834106460115706" lon="9.665986865371426"><ele>14.0</ele><time>2026-05-04T15:41:02.001Z</time></trkpt><trkpt lat="40.834109091251754" lon="9.665821963154206"><ele>14.0</ele><time>2026-05-04T15:41:03.001Z</time></trkpt><trkpt lat="40.83411439539282" lon="9.665652892611373"><ele>14.5</ele><time>2026-05-04T15:41:04.001Z</time></trkpt><trkpt lat="40.83412336637101" lon="9.66548643854641"><ele>15.0</ele><time>2026-05-04T15:41:05.001Z</time></trkpt><trkpt lat="40.8341356000159" lon="9.665323270840078"><ele>15.5</ele><time>2026-05-04T15:41:06.001Z</time></trkpt><trkpt lat="40.8341570794723" lon="9.665162890219342"><ele>16.0</ele><time>2026-05-04T15:41:07.001Z</time></trkpt><trkpt lat="40.83418549038381" lon="9.665007421757352"><ele>16.2</ele><time>2026-05-04T15:41:08.001Z</time></trkpt><trkpt lat="40.83421942302408" lon="9.66485760300733"><ele>16.400000000000002</ele><time>2026-05-04T15:41:09.001Z</time></trkpt><trkpt lat="40.83426072149042" lon="9.664724737249967"><ele>16.6</ele><time>2026-05-04T15:41:10.001Z</time></trkpt><trkpt lat="40.834304018216386" lon="9.664607907604745"><ele>16.8</ele><time>2026-05-04T15:41:11.001Z</time></trkpt><trkpt lat="40.834333993273624" lon="9.664516785502965"><ele>17.0</ele><time>2026-05-04T15:41:12.001Z</time></trkpt><trkpt lat="40.83436478549763" lon="9.664402407929574"><ele>17.75</ele><time>2026-05-04T15:41:14.001Z</time></trkpt><trkpt lat="40.834429927843665" lon="9.664278749061136"><ele>18.5</ele><time>2026-05-04T15:41:17.001Z</time></trkpt><trkpt lat="40.834520120400605" lon="9.664225718420527"><ele>19.25</ele><time>2026-05-04T15:41:18.001Z</time></trkpt><trkpt lat="40.834627689835465" lon="9.664098911414586"><ele>20.0</ele><time>2026-05-04T15:41:19.001Z</time></trkpt><trkpt lat="40.83473169372306" lon="9.663922865468283"><ele>20.0</ele><time>2026-05-04T15:41:20.001Z</time></trkpt><trkpt lat="40.83484811502918" lon="9.663742242426716"><ele>20.0</ele><time>2026-05-04T15:41:21.001Z</time></trkpt><trkpt lat="40.83496767887825" lon="9.66354352705686"><ele>20.0</ele><time>2026-05-04T15:41:22.001Z</time></trkpt><trkpt lat="40.83510124195235" lon="9.66333664930336"><ele>20.0</ele><time>2026-05-04T15:41:23.001Z</time></trkpt><trkpt lat="40.8352294979209" lon="9.663122771019463"><ele>20.0</ele><time>2026-05-04T15:41:24.001Z</time></trkpt><trkpt lat="40.83535816383914" lon="9.662910626381914"><ele>20.0</ele><time>2026-05-04T15:41:25.001Z</time></trkpt><trkpt lat="40.83550493090734" lon="9.662704728664114"><ele>20.0</ele><time>2026-05-04T15:41:26.001Z</time></trkpt><trkpt lat="40.835642087577135" lon="9.66248522571656"><ele>20.0</ele><time>2026-05-04T15:41:27.001Z</time></trkpt><trkpt lat="40.835784106303024" lon="9.662256932278247"><ele>20.0</ele><time>2026-05-04T15:41:28.001Z</time></trkpt><trkpt lat="40.83592659584423" lon="9.662029941638675"><ele>18.5</ele><time>2026-05-04T15:41:29.001Z</time></trkpt><trkpt lat="40.83605749935837" lon="9.661787629628282"><ele>17.0</ele><time>2026-05-04T15:41:30.001Z</time></trkpt><trkpt lat="40.83621336717709" lon="9.661572165131048"><ele>17.0</ele><time>2026-05-04T15:41:31.001Z</time></trkpt><trkpt lat="40.83635370369531" lon="9.661348186616916"><ele>17.0</ele><time>2026-05-04T15:41:32.001Z</time></trkpt><trkpt lat="40.83648161059912" lon="9.66111176929923"><ele>17.0</ele><time>2026-05-04T15:41:33.001Z</time></trkpt><trkpt lat="40.8366205756997" lon="9.660889107055835"><ele>17.666666666666668</ele><time>2026-05-04T15:41:34.001Z</time></trkpt><trkpt lat="40.83675935124001" lon="9.660670833816825"><ele>18.333333333333332</ele><time>2026-05-04T15:41:35.001Z</time></trkpt><trkpt lat="40.83690073215228" lon="9.660452085731588"><ele>19.0</ele><time>2026-05-04T15:41:36.001Z</time></trkpt><trkpt lat="40.837033709840334" lon="9.660240365932564"><ele>19.333333333333332</ele><time>2026-05-04T15:41:37.001Z</time></trkpt><trkpt lat="40.83716035882158" lon="9.660028508453202"><ele>19.666666666666668</ele><time>2026-05-04T15:41:38.001Z</time></trkpt><trkpt lat="40.83728897158602" lon="9.659822368553916"><ele>20.0</ele><time>2026-05-04T15:41:39.001Z</time></trkpt><trkpt lat="40.837417101530185" lon="9.659621961561832"><ele>20.666666666666668</ele><time>2026-05-04T15:41:40.001Z</time></trkpt><trkpt lat="40.83753749927216" lon="9.65942523712547"><ele>21.333333333333332</ele><time>2026-05-04T15:41:41.001Z</time></trkpt><trkpt lat="40.837657274501254" lon="9.65923603628049"><ele>22.0</ele><time>2026-05-04T15:41:42.001Z</time></trkpt><trkpt lat="40.83777438139213" lon="9.659046535899366"><ele>24.0</ele><time>2026-05-04T15:41:43.001Z</time></trkpt><trkpt lat="40.837890242844864" lon="9.658863980635724"><ele>26.0</ele><time>2026-05-04T15:41:44.001Z</time></trkpt><trkpt lat="40.83800764488763" lon="9.658684531895455"><ele>28.0</ele><time>2026-05-04T15:41:45.001Z</time></trkpt><trkpt lat="40.838128446547096" lon="9.658507067615934"><ele>28.666666666666668</ele><time>2026-05-04T15:41:46.001Z</time></trkpt><trkpt lat="40.83824556819332" lon="9.65832440134792"><ele>29.333333333333336</ele><time>2026-05-04T15:41:47.001Z</time></trkpt><trkpt lat="40.838367747741394" lon="9.658137110290491"><ele>30.0</ele><time>2026-05-04T15:41:48.001Z</time></trkpt><trkpt lat="40.83850304020846" lon="9.657943935379679"><ele>30.0</ele><time>2026-05-04T15:41:49.001Z</time></trkpt><trkpt lat="40.83864493757587" lon="9.657746211510169"><ele>30.0</ele><time>2026-05-04T15:41:50.001Z</time></trkpt><trkpt lat="40.83878882021421" lon="9.657547107293684"><ele>30.0</ele><time>2026-05-04T15:41:51.001Z</time></trkpt><trkpt lat="40.838934098448085" lon="9.65733965358834"><ele>30.0</ele><time>2026-05-04T15:41:52.001Z</time></trkpt><trkpt lat="40.83908134529158" lon="9.657134742672001"><ele>30.0</ele><time>2026-05-04T15:41:53.001Z</time></trkpt><trkpt lat="40.83923357372396" lon="9.656924744964547"><ele>30.0</ele><time>2026-05-04T15:41:54.001Z</time></trkpt><trkpt lat="40.839387750236845" lon="9.656715005608518"><ele>31.666666666666664</ele><time>2026-05-04T15:41:55.001Z</time></trkpt><trkpt lat="40.83954089424964" lon="9.65651342966389"><ele>33.33333333333333</ele><time>2026-05-04T15:41:56.001Z</time></trkpt><trkpt lat="40.83968801050258" lon="9.656317999803143"><ele>35.0</ele><time>2026-05-04T15:41:57.001Z</time></trkpt><trkpt lat="40.8398274960962" lon="9.656124784909137"><ele>35.666666666666664</ele><time>2026-05-04T15:41:58.001Z</time></trkpt><trkpt lat="40.83996331808299" lon="9.655927949983978"><ele>36.333333333333336</ele><time>2026-05-04T15:41:59.001Z</time></trkpt><trkpt lat="40.84009005435279" lon="9.655722961898604"><ele>37.0</ele><time>2026-05-04T15:42:00.001Z</time></trkpt><trkpt lat="40.84020432419145" lon="9.655509460162534"><ele>37.66666666666667</ele><time>2026-05-04T15:42:01.001Z</time></trkpt><trkpt lat="40.840295358250664" lon="9.655288288199658"><ele>38.333333333333336</ele><time>2026-05-04T15:42:02.001Z</time></trkpt><trkpt lat="40.84036452280976" lon="9.65507396078189"><ele>39.0</ele><time>2026-05-04T15:42:03.001Z</time></trkpt><trkpt lat="40.84042220303453" lon="9.654880426307912"><ele>39.25</ele><time>2026-05-04T15:42:04.001Z</time></trkpt><trkpt lat="40.840476612406434" lon="9.654700889249751"><ele>39.5</ele><time>2026-05-04T15:42:05.001Z</time></trkpt><trkpt lat="40.84053097313715" lon="9.654522209151716"><ele>39.75</ele><time>2026-05-04T15:42:06.001Z</time></trkpt><trkpt lat="40.840605404043906" lon="9.654349778644258"><ele>40.0</ele><time>2026-05-04T15:42:07.001Z</time></trkpt><trkpt lat="40.840653553992674" lon="9.654152039750318"><ele>41.0</ele><time>2026-05-04T15:42:08.001Z</time></trkpt><trkpt lat="40.84073338322657" lon="9.653963065542039"><ele>42.0</ele><time>2026-05-04T15:42:09.001Z</time></trkpt><trkpt lat="40.840788835250244" lon="9.65377423232841"><ele>43.0</ele><time>2026-05-04T15:42:10.001Z</time></trkpt><trkpt lat="40.84087074616474" lon="9.65363690171294"><ele>44.0</ele><time>2026-05-04T15:42:11.001Z</time></trkpt><trkpt lat="40.84094150342206" lon="9.653517240636795"><ele>44.400000000000006</ele><time>2026-05-04T15:42:12.001Z</time></trkpt><trkpt lat="40.84099723790584" lon="9.65342892040073"><ele>44.8</ele><time>2026-05-04T15:42:13.001Z</time></trkpt><trkpt lat="40.8410587321591" lon="9.653332740958776"><ele>45.2</ele><time>2026-05-04T15:42:14.001Z</time></trkpt><trkpt lat="40.84111756189961" lon="9.653241738856492"><ele>45.599999999999994</ele><time>2026-05-04T15:42:15.001Z</time></trkpt><trkpt lat="40.84118160708939" lon="9.653143313153674"><ele>46.0</ele><time>2026-05-04T15:42:16.001Z</time></trkpt><trkpt lat="40.841252856050616" lon="9.653033853270724"><ele>46.0</ele><time>2026-05-04T15:42:17.001Z</time></trkpt><trkpt lat="40.841317248384385" lon="9.652903887233402"><ele>46.0</ele><time>2026-05-04T15:42:18.001Z</time></trkpt><trkpt lat="40.84139569361778" lon="9.65279932459467"><ele>46.0</ele><time>2026-05-04T15:42:19.001Z</time></trkpt><trkpt lat="40.841477877255166" lon="9.652699260224951"><ele>46.0</ele><time>2026-05-04T15:42:20.001Z</time></trkpt><trkpt lat="40.84155125037143" lon="9.652600375944896"><ele>46.0</ele><time>2026-05-04T15:42:21.001Z</time></trkpt><trkpt lat="40.84162703637511" lon="9.652509806431512"><ele>45.66666666666667</ele><time>2026-05-04T15:42:22.001Z</time></trkpt><trkpt lat="40.84170032597863" lon="9.652424807338116"><ele>45.333333333333336</ele><time>2026-05-04T15:42:23.001Z</time></trkpt><trkpt lat="40.841780512350276" lon="9.652358861529839"><ele>45.0</ele><time>2026-05-04T15:42:24.001Z</time></trkpt><trkpt lat="40.84184620967926" lon="9.652310888880455"><ele>44.666666666666664</ele><time>2026-05-04T15:42:25.001Z</time></trkpt><trkpt lat="40.84190194073344" lon="9.65226994314432"><ele>44.33333333333333</ele><time>2026-05-04T15:42:26.001Z</time></trkpt><trkpt lat="40.841974620700924" lon="9.652173832013572"><ele>44.0</ele><time>2026-05-04T15:42:28.001Z</time></trkpt><trkpt lat="40.842002482797994" lon="9.652097627166022"><ele>40.25</ele><time>2026-05-04T15:42:29.001Z</time></trkpt><trkpt lat="40.84201532099048" lon="9.651954657988423"><ele>36.5</ele><time>2026-05-04T15:42:30.001Z</time></trkpt><trkpt lat="40.84202728965386" lon="9.651742723696849"><ele>32.75</ele><time>2026-05-04T15:42:31.001Z</time></trkpt><trkpt lat="40.84201720225094" lon="9.651515417399809"><ele>29.0</ele><time>2026-05-04T15:42:32.001Z</time></trkpt><trkpt lat="40.84204695017335" lon="9.651301308141628"><ele>27.5</ele><time>2026-05-04T15:42:33.001Z</time></trkpt><trkpt lat="40.84209695311431" lon="9.651103756924519"><ele>26.0</ele><time>2026-05-04T15:42:34.001Z</time></trkpt><trkpt lat="40.84213382295046" lon="9.650925025705012"><ele>24.5</ele><time>2026-05-04T15:42:35.001Z</time></trkpt><trkpt lat="40.8421618526727" lon="9.650782200691964"><ele>23.0</ele><time>2026-05-04T15:42:36.001Z</time></trkpt><trkpt lat="40.842174214813525" lon="9.650658957312258"><ele>23.0</ele><time>2026-05-04T15:42:37.001Z</time></trkpt><trkpt lat="40.84216629302794" lon="9.650537893835336"><ele>23.0</ele><time>2026-05-04T15:42:38.001Z</time></trkpt><trkpt lat="40.84214591817365" lon="9.650415167587918"><ele>23.0</ele><time>2026-05-04T15:42:39.001Z</time></trkpt><trkpt lat="40.842111762524276" lon="9.650291318036885"><ele>23.0</ele><time>2026-05-04T15:42:40.001Z</time></trkpt><trkpt lat="40.84207806589532" lon="9.650153945961485"><ele>23.0</ele><time>2026-05-04T15:42:41.001Z</time></trkpt><trkpt lat="40.84204761191867" lon="9.650019230781545"><ele>22.4</ele><time>2026-05-04T15:42:42.001Z</time></trkpt><trkpt lat="40.842023679903" lon="9.649887008666306"><ele>21.799999999999997</ele><time>2026-05-04T15:42:43.001Z</time></trkpt><trkpt lat="40.84200303746081" lon="9.649760478285794"><ele>21.2</ele><time>2026-05-04T15:42:44.001Z</time></trkpt><trkpt lat="40.84199626894265" lon="9.649630479781225"><ele>20.6</ele><time>2026-05-04T15:42:45.001Z</time></trkpt><trkpt lat="40.84201586244501" lon="9.649505313805228"><ele>20.0</ele><time>2026-05-04T15:42:46.001Z</time></trkpt><trkpt lat="40.84206226073419" lon="9.649388420303545"><ele>20.0</ele><time>2026-05-04T15:42:47.001Z</time></trkpt><trkpt lat="40.8421507080296" lon="9.649294414217175"><ele>20.0</ele><time>2026-05-04T15:42:48.001Z</time></trkpt><trkpt lat="40.84230054940845" lon="9.649237216051644"><ele>20.0</ele><time>2026-05-04T15:42:49.001Z</time></trkpt><trkpt lat="40.84246348422756" lon="9.649145230104567"><ele>20.0</ele><time>2026-05-04T15:42:50.001Z</time></trkpt><trkpt lat="40.84263669956001" lon="9.649027998843813"><ele>17.5</ele><time>2026-05-04T15:42:51.001Z</time></trkpt><trkpt lat="40.84285772542795" lon="9.648920228385325"><ele>15.0</ele><time>2026-05-04T15:42:52.001Z</time></trkpt><trkpt lat="40.84310770829699" lon="9.64881504312762"><ele>15.0</ele><time>2026-05-04T15:42:53.001Z</time></trkpt><trkpt lat="40.84337304691839" lon="9.648701905655463"><ele>15.0</ele><time>2026-05-04T15:42:54.001Z</time></trkpt><trkpt lat="40.84366702770984" lon="9.648594949232558"><ele>14.0</ele><time>2026-05-04T15:42:55.001Z</time></trkpt><trkpt lat="40.843955701511646" lon="9.648505735716109"><ele>13.0</ele><time>2026-05-04T15:42:56.001Z</time></trkpt><trkpt lat="40.84424141404562" lon="9.648428410527824"><ele>13.0</ele><time>2026-05-04T15:42:57.001Z</time></trkpt><trkpt lat="40.844539880044096" lon="9.648347869187889"><ele>13.0</ele><time>2026-05-04T15:42:58.001Z</time></trkpt><trkpt lat="40.844840907760485" lon="9.64826181571537"><ele>12.0</ele><time>2026-05-04T15:42:59.001Z</time></trkpt><trkpt lat="40.845135464236904" lon="9.64818184460615"><ele>11.0</ele><time>2026-05-04T15:43:00.001Z</time></trkpt><trkpt lat="40.84541943133393" lon="9.64809742610114"><ele>11.0</ele><time>2026-05-04T15:43:01.001Z</time></trkpt><trkpt lat="40.84569060775398" lon="9.648023882134845"><ele>11.0</ele><time>2026-05-04T15:43:02.001Z</time></trkpt><trkpt lat="40.84595237671694" lon="9.647951188550532"><ele>10.0</ele><time>2026-05-04T15:43:03.001Z</time></trkpt><trkpt lat="40.846196086723495" lon="9.647882590597282"><ele>9.0</ele><time>2026-05-04T15:43:04.001Z</time></trkpt><trkpt lat="40.846431635410184" lon="9.647810365308349"><ele>9.333333333333334</ele><time>2026-05-04T15:43:05.001Z</time></trkpt><trkpt lat="40.84665450239364" lon="9.64775005466132"><ele>9.666666666666668</ele><time>2026-05-04T15:43:06.001Z</time></trkpt><trkpt lat="40.846865449249215" lon="9.647692969371354"><ele>10.0</ele><time>2026-05-04T15:43:07.001Z</time></trkpt><trkpt lat="40.84707448109512" lon="9.647651099923149"><ele>10.0</ele><time>2026-05-04T15:43:08.001Z</time></trkpt><trkpt lat="40.84727365609596" lon="9.647592241769651"><ele>10.0</ele><time>2026-05-04T15:43:09.001Z</time></trkpt><trkpt lat="40.84748276541576" lon="9.647524068978276"><ele>10.0</ele><time>2026-05-04T15:43:10.001Z</time></trkpt><trkpt lat="40.84769510289816" lon="9.647461969216193"><ele>9.333333333333334</ele><time>2026-05-04T15:43:11.001Z</time></trkpt><trkpt lat="40.84790023525676" lon="9.6473928195784"><ele>8.666666666666666</ele><time>2026-05-04T15:43:12.001Z</time></trkpt><trkpt lat="40.848110407937675" lon="9.647333994459952"><ele>8.0</ele><time>2026-05-04T15:43:13.001Z</time></trkpt><trkpt lat="40.848322902593445" lon="9.647274453035855"><ele>6.5</ele><time>2026-05-04T15:43:14.001Z</time></trkpt><trkpt lat="40.84854706663826" lon="9.647217868889316"><ele>5.0</ele><time>2026-05-04T15:43:15.001Z</time></trkpt><trkpt lat="40.84877333064156" lon="9.647155140323566"><ele>5.0</ele><time>2026-05-04T15:43:16.001Z</time></trkpt><trkpt lat="40.849009413290624" lon="9.64708508030694"><ele>5.0</ele><time>2026-05-04T15:43:17.001Z</time></trkpt><trkpt lat="40.84924398684497" lon="9.647014600493245"><ele>4.5</ele><time>2026-05-04T15:43:18.001Z</time></trkpt><trkpt lat="40.84948187331958" lon="9.646942538311688"><ele>4.0</ele><time>2026-05-04T15:43:19.001Z</time></trkpt><trkpt lat="40.84972505411569" lon="9.64687450541333"><ele>4.0</ele><time>2026-05-04T15:43:20.001Z</time></trkpt><trkpt lat="40.8499624115958" lon="9.646808874126055"><ele>4.0</ele><time>2026-05-04T15:43:21.001Z</time></trkpt><trkpt lat="40.85019890314737" lon="9.64674064958587"><ele>6.0</ele><time>2026-05-04T15:43:22.001Z</time></trkpt><trkpt lat="40.85043504679535" lon="9.646669893372321"><ele>8.0</ele><time>2026-05-04T15:43:23.001Z</time></trkpt><trkpt lat="40.85066705363817" lon="9.646600828624603"><ele>8.0</ele><time>2026-05-04T15:43:24.001Z</time></trkpt><trkpt lat="40.850895268059595" lon="9.646532114402985"><ele>8.0</ele><time>2026-05-04T15:43:25.001Z</time></trkpt><trkpt lat="40.8511233665438" lon="9.646466952575558"><ele>7.5</ele><time>2026-05-04T15:43:26.001Z</time></trkpt><trkpt lat="40.85135188872121" lon="9.646398289778674"><ele>7.0</ele><time>2026-05-04T15:43:27.001Z</time></trkpt><trkpt lat="40.85157571290482" lon="9.646333571295395"><ele>6.5</ele><time>2026-05-04T15:43:28.001Z</time></trkpt><trkpt lat="40.851799713138874" lon="9.646272689288075"><ele>6.0</ele><time>2026-05-04T15:43:29.001Z</time></trkpt><trkpt lat="40.852028411157626" lon="9.646211231804191"><ele>6.0</ele><time>2026-05-04T15:43:30.001Z</time></trkpt><trkpt lat="40.85224951305639" lon="9.646157298088038"><ele>6.0</ele><time>2026-05-04T15:43:31.001Z</time></trkpt><trkpt lat="40.85248001235732" lon="9.64608952872153"><ele>7.5</ele><time>2026-05-04T15:43:32.001Z</time></trkpt><trkpt lat="40.85270928366588" lon="9.646022718130387"><ele>9.0</ele><time>2026-05-04T15:43:33.001Z</time></trkpt><trkpt lat="40.85294047833391" lon="9.645959354056053"><ele>9.0</ele><time>2026-05-04T15:43:34.001Z</time></trkpt><trkpt lat="40.85315654253947" lon="9.645889379851223"><ele>9.0</ele><time>2026-05-04T15:43:35.001Z</time></trkpt><trkpt lat="40.85337193990008" lon="9.645812488391831"><ele>9.0</ele><time>2026-05-04T15:43:36.001Z</time></trkpt><trkpt lat="40.8535851828175" lon="9.645711672400395"><ele>8.333333333333334</ele><time>2026-05-04T15:43:37.001Z</time></trkpt><trkpt lat="40.853788753459796" lon="9.645588062590337"><ele>7.666666666666667</ele><time>2026-05-04T15:43:38.001Z</time></trkpt><trkpt lat="40.853988011454774" lon="9.645459986109646"><ele>7.0</ele><time>2026-05-04T15:43:39.001Z</time></trkpt><trkpt lat="40.85419551343332" lon="9.645330905814015"><ele>7.0</ele><time>2026-05-04T15:43:40.001Z</time></trkpt><trkpt lat="40.85440358355829" lon="9.6452032363844"><ele>7.0</ele><time>2026-05-04T15:43:41.001Z</time></trkpt><trkpt lat="40.854611232615326" lon="9.645079270920247"><ele>7.0</ele><time>2026-05-04T15:43:42.001Z</time></trkpt><trkpt lat="40.85482056698405" lon="9.644951968958893"><ele>7.0</ele><time>2026-05-04T15:43:43.001Z</time></trkpt><trkpt lat="40.855026429033984" lon="9.644821804570865"><ele>6.5</ele><time>2026-05-04T15:43:44.001Z</time></trkpt><trkpt lat="40.85523678434683" lon="9.644699504610116"><ele>6.0</ele><time>2026-05-04T15:43:45.001Z</time></trkpt><trkpt lat="40.855443005094685" lon="9.644572063669095"><ele>6.666666666666666</ele><time>2026-05-04T15:43:46.001Z</time></trkpt><trkpt lat="40.855644463406584" lon="9.644448615838925"><ele>7.333333333333333</ele><time>2026-05-04T15:43:47.001Z</time></trkpt><trkpt lat="40.85583695477697" lon="9.644331867176446"><ele>8.0</ele><time>2026-05-04T15:43:48.001Z</time></trkpt><trkpt lat="40.856024616867096" lon="9.644217774754237"><ele>8.0</ele><time>2026-05-04T15:43:49.001Z</time></trkpt><trkpt lat="40.856199278569456" lon="9.644110859791432"><ele>8.0</ele><time>2026-05-04T15:43:50.001Z</time></trkpt><trkpt lat="40.856361049095" lon="9.64401142734952"><ele>8.0</ele><time>2026-05-04T15:43:51.001Z</time></trkpt><trkpt lat="40.85651620362873" lon="9.643916405092993"><ele>8.0</ele><time>2026-05-04T15:43:52.001Z</time></trkpt><trkpt lat="40.85666056970202" lon="9.64383111856581"><ele>8.0</ele><time>2026-05-04T15:43:53.001Z</time></trkpt><trkpt lat="40.85679454743208" lon="9.643766230368136"><ele>8.0</ele><time>2026-05-04T15:43:54.001Z</time></trkpt><trkpt lat="40.856901711482145" lon="9.643749220103011"><ele>8.0</ele><time>2026-05-04T15:43:55.001Z</time></trkpt><trkpt lat="40.85699812808464" lon="9.643785449785684"><ele>8.0</ele><time>2026-05-04T15:43:56.001Z</time></trkpt><trkpt lat="40.85707588592647" lon="9.643811848404411"><ele>8.0</ele><time>2026-05-04T15:43:57.001Z</time></trkpt><trkpt lat="40.857152777585874" lon="9.643770286603354"><ele>8.0</ele><time>2026-05-04T15:43:58.001Z</time></trkpt><trkpt lat="40.85721264766792" lon="9.643669971290512"><ele>8.0</ele><time>2026-05-04T15:43:59.001Z</time></trkpt><trkpt lat="40.857284839524304" lon="9.643534489207546"><ele>8.0</ele><time>2026-05-04T15:44:00.001Z</time></trkpt><trkpt lat="40.85737715195145" lon="9.643415230456034"><ele>9.333333333333332</ele><time>2026-05-04T15:44:01.001Z</time></trkpt><trkpt lat="40.85749773688165" lon="9.64332296833034"><ele>10.666666666666666</ele><time>2026-05-04T15:44:02.001Z</time></trkpt><trkpt lat="40.85767175361876" lon="9.64319614606314"><ele>12.0</ele><time>2026-05-04T15:44:03.001Z</time></trkpt><trkpt lat="40.8578395124829" lon="9.643093074160168"><ele>12.0</ele><time>2026-05-04T15:44:04.001Z</time></trkpt><trkpt lat="40.85801801551789" lon="9.643018040429652"><ele>12.0</ele><time>2026-05-04T15:44:05.001Z</time></trkpt><trkpt lat="40.85818179869008" lon="9.642899916890668"><ele>12.0</ele><time>2026-05-04T15:44:06.001Z</time></trkpt><trkpt lat="40.858349426572694" lon="9.642801018488969"><ele>13.0</ele><time>2026-05-04T15:44:07.001Z</time></trkpt><trkpt lat="40.858526011635256" lon="9.642687876601798"><ele>14.0</ele><time>2026-05-04T15:44:08.001Z</time></trkpt><trkpt lat="40.85870697716228" lon="9.642577244880805"><ele>15.0</ele><time>2026-05-04T15:44:09.001Z</time></trkpt><trkpt lat="40.85888966977133" lon="9.64248057419812"><ele>15.0</ele><time>2026-05-04T15:44:10.001Z</time></trkpt><trkpt lat="40.85907991536017" lon="9.642428279530076"><ele>15.0</ele><time>2026-05-04T15:44:11.001Z</time></trkpt><trkpt lat="40.85928459018478" lon="9.642380606288079"><ele>15.0</ele><time>2026-05-04T15:44:12.001Z</time></trkpt><trkpt lat="40.85949041533543" lon="9.642345080533174"><ele>15.333333333333332</ele><time>2026-05-04T15:44:13.001Z</time></trkpt><trkpt lat="40.859697682415685" lon="9.642290366220289"><ele>15.666666666666666</ele><time>2026-05-04T15:44:14.001Z</time></trkpt><trkpt lat="40.85990282393101" lon="9.642266140988072"><ele>16.0</ele><time>2026-05-04T15:44:15.001Z</time></trkpt><trkpt lat="40.860112990530695" lon="9.642227805771373"><ele>16.333333333333332</ele><time>2026-05-04T15:44:16.001Z</time></trkpt><trkpt lat="40.860325081639296" lon="9.642183954742602"><ele>16.666666666666668</ele><time>2026-05-04T15:44:17.001Z</time></trkpt><trkpt lat="40.86054627725864" lon="9.642145338879898"><ele>17.0</ele><time>2026-05-04T15:44:18.001Z</time></trkpt><trkpt lat="40.860766655343305" lon="9.642115784732637"><ele>18.5</ele><time>2026-05-04T15:44:19.001Z</time></trkpt><trkpt lat="40.86098754553808" lon="9.642077773552545"><ele>20.0</ele><time>2026-05-04T15:44:20.001Z</time></trkpt><trkpt lat="40.86121267650324" lon="9.642040288406092"><ele>20.0</ele><time>2026-05-04T15:44:21.001Z</time></trkpt><trkpt lat="40.86142626260979" lon="9.642000394813742"><ele>20.0</ele><time>2026-05-04T15:44:22.001Z</time></trkpt><trkpt lat="40.86163552545698" lon="9.641950545748461"><ele>20.0</ele><time>2026-05-04T15:44:23.001Z</time></trkpt><trkpt lat="40.86185571496566" lon="9.64187668732113"><ele>21.666666666666668</ele><time>2026-05-04T15:44:24.001Z</time></trkpt><trkpt lat="40.86207458801554" lon="9.641788621029963"><ele>23.333333333333336</ele><time>2026-05-04T15:44:25.001Z</time></trkpt><trkpt lat="40.86227150688852" lon="9.641708824348282"><ele>25.0</ele><time>2026-05-04T15:44:26.001Z</time></trkpt><trkpt lat="40.862460217228154" lon="9.641636665481807"><ele>22.5</ele><time>2026-05-04T15:44:27.001Z</time></trkpt><trkpt lat="40.862669340966505" lon="9.641557947850021"><ele>20.0</ele><time>2026-05-04T15:44:28.001Z</time></trkpt><trkpt lat="40.86291947109447" lon="9.64146810650378"><ele>20.0</ele><time>2026-05-04T15:44:29.001Z</time></trkpt><trkpt lat="40.8631420653997" lon="9.641383109458362"><ele>20.0</ele><time>2026-05-04T15:44:30.001Z</time></trkpt><trkpt lat="40.86331967796849" lon="9.641322091414551"><ele>20.0</ele><time>2026-05-04T15:44:31.001Z</time></trkpt><trkpt lat="40.863516004783975" lon="9.641310722519828"><ele>19.0</ele><time>2026-05-04T15:44:32.001Z</time></trkpt><trkpt lat="40.8637270651958" lon="9.641326302300591"><ele>18.0</ele><time>2026-05-04T15:44:33.001Z</time></trkpt><trkpt lat="40.86394386163812" lon="9.641350474539076"><ele>17.0</ele><time>2026-05-04T15:44:34.001Z</time></trkpt><trkpt lat="40.864177331761304" lon="9.64136639341347"><ele>16.666666666666668</ele><time>2026-05-04T15:44:35.001Z</time></trkpt><trkpt lat="40.864397931025984" lon="9.641395564939193"><ele>16.333333333333332</ele><time>2026-05-04T15:44:36.001Z</time></trkpt><trkpt lat="40.864611997873766" lon="9.64142016238429"><ele>16.0</ele><time>2026-05-04T15:44:37.001Z</time></trkpt><trkpt lat="40.86481370466625" lon="9.64144841803036"><ele>16.0</ele><time>2026-05-04T15:44:38.001Z</time></trkpt><trkpt lat="40.865009316460494" lon="9.641464178659042"><ele>16.0</ele><time>2026-05-04T15:44:39.001Z</time></trkpt><trkpt lat="40.86519909215725" lon="9.641487866610563"><ele>16.0</ele><time>2026-05-04T15:44:40.001Z</time></trkpt><trkpt lat="40.86538492973683" lon="9.641510813245644"><ele>14.666666666666666</ele><time>2026-05-04T15:44:41.001Z</time></trkpt><trkpt lat="40.865585461753945" lon="9.641531593019826"><ele>13.333333333333332</ele><time>2026-05-04T15:44:42.001Z</time></trkpt><trkpt lat="40.865787478241906" lon="9.641552933636795"><ele>12.0</ele><time>2026-05-04T15:44:43.001Z</time></trkpt><trkpt lat="40.86599398433316" lon="9.641572648735162"><ele>12.0</ele><time>2026-05-04T15:44:44.001Z</time></trkpt><trkpt lat="40.86619765277676" lon="9.64159447138624"><ele>12.0</ele><time>2026-05-04T15:44:45.001Z</time></trkpt><trkpt lat="40.86640601370403" lon="9.641598870350988"><ele>12.0</ele><time>2026-05-04T15:44:46.001Z</time></trkpt><trkpt lat="40.86662068324358" lon="9.641555590326702"><ele>11.0</ele><time>2026-05-04T15:44:47.001Z</time></trkpt><trkpt lat="40.86683137715217" lon="9.641477544176563"><ele>10.0</ele><time>2026-05-04T15:44:48.001Z</time></trkpt><trkpt lat="40.86704182424873" lon="9.641383733804183"><ele>9.0</ele><time>2026-05-04T15:44:49.001Z</time></trkpt><trkpt lat="40.86725143318281" lon="9.64128869534261"><ele>9.0</ele><time>2026-05-04T15:44:50.001Z</time></trkpt><trkpt lat="40.86745457439967" lon="9.641217352271976"><ele>9.0</ele><time>2026-05-04T15:44:51.001Z</time></trkpt><trkpt lat="40.86765655337069" lon="9.641142922046361"><ele>9.0</ele><time>2026-05-04T15:44:52.001Z</time></trkpt><trkpt lat="40.86785700319602" lon="9.641068044991968"><ele>8.666666666666666</ele><time>2026-05-04T15:44:53.001Z</time></trkpt><trkpt lat="40.86805260607255" lon="9.640998700873464"><ele>8.333333333333332</ele><time>2026-05-04T15:44:54.001Z</time></trkpt><trkpt lat="40.86824173682275" lon="9.640929923974845"><ele>8.0</ele><time>2026-05-04T15:44:55.001Z</time></trkpt><trkpt lat="40.86843410979019" lon="9.640842637452518"><ele>6.5</ele><time>2026-05-04T15:44:56.001Z</time></trkpt><trkpt lat="40.868632641937076" lon="9.640721612039284"><ele>5.0</ele><time>2026-05-04T15:44:57.001Z</time></trkpt><trkpt lat="40.868827720831675" lon="9.640550368453152"><ele>5.0</ele><time>2026-05-04T15:44:58.001Z</time></trkpt><trkpt lat="40.8690210232085" lon="9.6403656811026"><ele>5.0</ele><time>2026-05-04T15:44:59.001Z</time></trkpt><trkpt lat="40.869214557767855" lon="9.64018626970122"><ele>5.0</ele><time>2026-05-04T15:45:00.001Z</time></trkpt><trkpt lat="40.86939576749442" lon="9.640028677360096"><ele>5.0</ele><time>2026-05-04T15:45:01.001Z</time></trkpt><trkpt lat="40.869571535828854" lon="9.639879466068356"><ele>5.0</ele><time>2026-05-04T15:45:02.001Z</time></trkpt><trkpt lat="40.8697321380853" lon="9.639740527065346"><ele>5.0</ele><time>2026-05-04T15:45:03.001Z</time></trkpt><trkpt lat="40.86988678774139" lon="9.639608518687139"><ele>5.0</ele><time>2026-05-04T15:45:04.001Z</time></trkpt><trkpt lat="40.870027116242234" lon="9.639468975998552"><ele>5.0</ele><time>2026-05-04T15:45:05.001Z</time></trkpt><trkpt lat="40.870153722296536" lon="9.639292459673431"><ele>5.666666666666667</ele><time>2026-05-04T15:45:06.001Z</time></trkpt><trkpt lat="40.87023777181309" lon="9.639048053969008"><ele>6.333333333333334</ele><time>2026-05-04T15:45:07.001Z</time></trkpt><trkpt lat="40.87028380781733" lon="9.638764121281259"><ele>7.0</ele><time>2026-05-04T15:45:08.001Z</time></trkpt><trkpt lat="40.87034102698412" lon="9.638459290142265"><ele>7.5</ele><time>2026-05-04T15:45:09.001Z</time></trkpt><trkpt lat="40.87040073296189" lon="9.638147050231813"><ele>8.0</ele><time>2026-05-04T15:45:10.001Z</time></trkpt><trkpt lat="40.870461177312556" lon="9.63784160925955"><ele>8.666666666666666</ele><time>2026-05-04T15:45:11.001Z</time></trkpt><trkpt lat="40.87051823832182" lon="9.637556437197311"><ele>9.333333333333334</ele><time>2026-05-04T15:45:12.001Z</time></trkpt><trkpt lat="40.87057394479797" lon="9.63729232602262"><ele>10.0</ele><time>2026-05-04T15:45:13.001Z</time></trkpt><trkpt lat="40.87062476103197" lon="9.63704984471221"><ele>10.0</ele><time>2026-05-04T15:45:14.001Z</time></trkpt><trkpt lat="40.87067854876374" lon="9.636807787109868"><ele>10.0</ele><time>2026-05-04T15:45:15.001Z</time></trkpt><trkpt lat="40.870743301353016" lon="9.636559085501558"><ele>10.0</ele><time>2026-05-04T15:45:16.001Z</time></trkpt><trkpt lat="40.87081218608541" lon="9.636306785961354"><ele>10.333333333333334</ele><time>2026-05-04T15:45:17.001Z</time></trkpt><trkpt lat="40.87088462830543" lon="9.636044408067486"><ele>10.666666666666666</ele><time>2026-05-04T15:45:18.001Z</time></trkpt><trkpt lat="40.8709527278619" lon="9.635783991327838"><ele>11.0</ele><time>2026-05-04T15:45:19.001Z</time></trkpt><trkpt lat="40.87102047047134" lon="9.635532001810875"><ele>10.666666666666666</ele><time>2026-05-04T15:45:20.001Z</time></trkpt><trkpt lat="40.87108925928247" lon="9.635277344864363"><ele>10.333333333333334</ele><time>2026-05-04T15:45:21.001Z</time></trkpt><trkpt lat="40.87116057318377" lon="9.635014626429312"><ele>10.0</ele><time>2026-05-04T15:45:22.001Z</time></trkpt><trkpt lat="40.87123962385643" lon="9.634753838304881"><ele>10.0</ele><time>2026-05-04T15:45:23.001Z</time></trkpt><trkpt lat="40.87132792198867" lon="9.634496294333896"><ele>10.0</ele><time>2026-05-04T15:45:24.001Z</time></trkpt><trkpt lat="40.871422442771205" lon="9.63424909797525"><ele>10.0</ele><time>2026-05-04T15:45:25.001Z</time></trkpt><trkpt lat="40.87152415725968" lon="9.634003832279815"><ele>10.0</ele><time>2026-05-04T15:45:26.001Z</time></trkpt><trkpt lat="40.8716271205733" lon="9.633756152417513"><ele>10.0</ele><time>2026-05-04T15:45:27.001Z</time></trkpt><trkpt lat="40.87172677089603" lon="9.633506529858266"><ele>10.0</ele><time>2026-05-04T15:45:28.001Z</time></trkpt><trkpt lat="40.87182519369134" lon="9.633257950296331"><ele>10.0</ele><time>2026-05-04T15:45:29.001Z</time></trkpt><trkpt lat="40.87192801673773" lon="9.633013829406623"><ele>10.0</ele><time>2026-05-04T15:45:30.001Z</time></trkpt><trkpt lat="40.872036759291845" lon="9.63277518241003"><ele>10.0</ele><time>2026-05-04T15:45:31.001Z</time></trkpt><trkpt lat="40.87214778985848" lon="9.632545718823067"><ele>10.333333333333334</ele><time>2026-05-04T15:45:32.001Z</time></trkpt><trkpt lat="40.87225812756996" lon="9.632319442870871"><ele>10.666666666666666</ele><time>2026-05-04T15:45:33.001Z</time></trkpt><trkpt lat="40.872365927118516" lon="9.632101174982989"><ele>11.0</ele><time>2026-05-04T15:45:34.001Z</time></trkpt><trkpt lat="40.872471560885955" lon="9.631888768806165"><ele>11.333333333333332</ele><time>2026-05-04T15:45:35.001Z</time></trkpt><trkpt lat="40.872585641668636" lon="9.631679794525265"><ele>11.666666666666666</ele><time>2026-05-04T15:45:36.001Z</time></trkpt><trkpt lat="40.8727116725569" lon="9.63149316484325"><ele>12.0</ele><time>2026-05-04T15:45:37.001Z</time></trkpt><trkpt lat="40.87285041371431" lon="9.631333487334874"><ele>12.0</ele><time>2026-05-04T15:45:38.001Z</time></trkpt><trkpt lat="40.873006972884774" lon="9.631185336537511"><ele>12.0</ele><time>2026-05-04T15:45:39.001Z</time></trkpt><trkpt lat="40.87316568108914" lon="9.631057883436984"><ele>12.0</ele><time>2026-05-04T15:45:40.001Z</time></trkpt><trkpt lat="40.873318987246115" lon="9.630928107093153"><ele>11.666666666666666</ele><time>2026-05-04T15:45:41.001Z</time></trkpt><trkpt lat="40.87348026566627" lon="9.630802899196224"><ele>11.333333333333332</ele><time>2026-05-04T15:45:42.001Z</time></trkpt><trkpt lat="40.8736320511478" lon="9.630663393082393"><ele>11.0</ele><time>2026-05-04T15:45:43.001Z</time></trkpt><trkpt lat="40.873765439071036" lon="9.630536189264934"><ele>11.0</ele><time>2026-05-04T15:45:44.001Z</time></trkpt><trkpt lat="40.87388927248074" lon="9.630419794995516"><ele>11.0</ele><time>2026-05-04T15:45:45.001Z</time></trkpt><trkpt lat="40.874007875834465" lon="9.630308660293844"><ele>11.0</ele><time>2026-05-04T15:45:46.001Z</time></trkpt><trkpt lat="40.87411704695474" lon="9.630211360283507"><ele>11.0</ele><time>2026-05-04T15:45:47.001Z</time></trkpt><trkpt lat="40.874227257891434" lon="9.630110726106663"><ele>11.0</ele><time>2026-05-04T15:45:48.001Z</time></trkpt><trkpt lat="40.87434151352496" lon="9.630007482152532"><ele>11.0</ele><time>2026-05-04T15:45:49.001Z</time></trkpt><trkpt lat="40.874456599275724" lon="9.629905247312273"><ele>11.0</ele><time>2026-05-04T15:45:50.001Z</time></trkpt><trkpt lat="40.87457053662445" lon="9.629800202145121"><ele>11.0</ele><time>2026-05-04T15:45:51.001Z</time></trkpt><trkpt lat="40.87469265194627" lon="9.629699428371797"><ele>11.0</ele><time>2026-05-04T15:45:52.001Z</time></trkpt><trkpt lat="40.87479979738482" lon="9.62960178664716"><ele>11.0</ele><time>2026-05-04T15:45:53.001Z</time></trkpt><trkpt lat="40.874905840443" lon="9.629505256885627"><ele>11.0</ele><time>2026-05-04T15:45:54.001Z</time></trkpt><trkpt lat="40.87500738579873" lon="9.629417946209351"><ele>11.0</ele><time>2026-05-04T15:45:55Z</time></trkpt><trkpt lat="40.875086773855166" lon="9.629344817738561"><ele>11.166666666666666</ele><time>2026-05-04T15:45:56Z</time></trkpt><trkpt lat="40.87515964518786" lon="9.629282401549407"><ele>11.333333333333332</ele><time>2026-05-04T15:45:58Z</time></trkpt><trkpt lat="40.875223500402434" lon="9.629215051044104"><ele>11.5</ele><time>2026-05-04T15:46:01Z</time></trkpt><trkpt lat="40.87530439716869" lon="9.629144711977233"><ele>11.666666666666666</ele><time>2026-05-04T15:46:07Z</time></trkpt><trkpt lat="40.875370665527775" lon="9.629141725278059"><ele>11.833333333333334</ele><time>2026-05-04T15:46:09Z</time></trkpt><trkpt lat="40.875443917850234" lon="9.62917516198492"><ele>12.0</ele><time>2026-05-04T15:46:10Z</time></trkpt><trkpt lat="40.8755230318348" lon="9.629191466484674"><ele>12.0</ele><time>2026-05-04T15:46:11Z</time></trkpt><trkpt lat="40.875604600716386" lon="9.629175324818302"><ele>12.0</ele><time>2026-05-04T15:46:12Z</time></trkpt><trkpt lat="40.87567830576957" lon="9.629090648406324"><ele>12.0</ele><time>2026-05-04T15:46:13Z</time></trkpt><trkpt lat="40.875746468093254" lon="9.628987726539066"><ele>12.0</ele><time>2026-05-04T15:46:14Z</time></trkpt><trkpt lat="40.875800336022635" lon="9.62887677915221"><ele>12.0</ele><time>2026-05-04T15:46:15Z</time></trkpt><trkpt lat="40.87584612148303" lon="9.628771019792547"><ele>12.0</ele><time>2026-05-04T15:46:16Z</time></trkpt><trkpt lat="40.87591205123935" lon="9.628648074494464"><ele>12.0</ele><time>2026-05-04T15:46:17Z</time></trkpt><trkpt lat="40.875990210803195" lon="9.628530920713946"><ele>12.0</ele><time>2026-05-04T15:46:18Z</time></trkpt><trkpt lat="40.87608385831617" lon="9.628416911983596"><ele>12.0</ele><time>2026-05-04T15:46:19Z</time></trkpt><trkpt lat="40.8761963861245" lon="9.628326058056382"><ele>13.25</ele><time>2026-05-04T15:46:20Z</time></trkpt><trkpt lat="40.87631332551389" lon="9.6282444922792"><ele>14.5</ele><time>2026-05-04T15:46:21Z</time></trkpt><trkpt lat="40.87639344590679" lon="9.628140911147234"><ele>15.75</ele><time>2026-05-04T15:46:22Z</time></trkpt><trkpt lat="40.876500294463575" lon="9.62804226718244"><ele>17.0</ele><time>2026-05-04T15:46:23Z</time></trkpt><trkpt lat="40.876610955440775" lon="9.627932739758469"><ele>17.0</ele><time>2026-05-04T15:46:24Z</time></trkpt><trkpt lat="40.87671321179366" lon="9.627832042504334"><ele>17.0</ele><time>2026-05-04T15:46:25Z</time></trkpt><trkpt lat="40.87680598338693" lon="9.627707820927474"><ele>17.0</ele><time>2026-05-04T15:46:26Z</time></trkpt><trkpt lat="40.87687035082451" lon="9.627560842544739"><ele>17.0</ele><time>2026-05-04T15:46:27Z</time></trkpt><trkpt lat="40.876918243289495" lon="9.627416804807142"><ele>17.0</ele><time>2026-05-04T15:46:28Z</time></trkpt><trkpt lat="40.87694681938777" lon="9.627277476649038"><ele>17.0</ele><time>2026-05-04T15:46:29Z</time></trkpt><trkpt lat="40.876969386972576" lon="9.62714889978669"><ele>17.0</ele><time>2026-05-04T15:46:30Z</time></trkpt><trkpt lat="40.87697610463543" lon="9.627020963037632"><ele>17.0</ele><time>2026-05-04T15:46:31Z</time></trkpt><trkpt lat="40.876965883321944" lon="9.626894895663945"><ele>17.0</ele><time>2026-05-04T15:46:32Z</time></trkpt><trkpt lat="40.87694398129138" lon="9.626767338907468"><ele>17.0</ele><time>2026-05-04T15:46:33Z</time></trkpt><trkpt lat="40.876910024201216" lon="9.626632517603458"><ele>17.0</ele><time>2026-05-04T15:46:34Z</time></trkpt><trkpt lat="40.87686053025647" lon="9.626477859722742"><ele>17.0</ele><time>2026-05-04T15:46:35Z</time></trkpt><trkpt lat="40.87679012269773" lon="9.626314638034886"><ele>17.0</ele><time>2026-05-04T15:46:36Z</time></trkpt><trkpt lat="40.876755384019845" lon="9.626050776399566"><ele>17.0</ele><time>2026-05-04T15:46:37Z</time></trkpt><trkpt lat="40.87676746805936" lon="9.625825499118871"><ele>17.0</ele><time>2026-05-04T15:46:38Z</time></trkpt><trkpt lat="40.876833151667846" lon="9.625616544507254"><ele>17.0</ele><time>2026-05-04T15:46:39Z</time></trkpt><trkpt lat="40.876917032136085" lon="9.625368700512661"><ele>16.0</ele><time>2026-05-04T15:46:40Z</time></trkpt><trkpt lat="40.876988010300636" lon="9.625115597044621"><ele>15.0</ele><time>2026-05-04T15:46:41Z</time></trkpt><trkpt lat="40.87707268955438" lon="9.62486414127349"><ele>14.0</ele><time>2026-05-04T15:46:42Z</time></trkpt><trkpt lat="40.87716249602829" lon="9.624598771662846"><ele>14.0</ele><time>2026-05-04T15:46:43Z</time></trkpt><trkpt lat="40.87726119800059" lon="9.624328454683221"><ele>14.0</ele><time>2026-05-04T15:46:44Z</time></trkpt><trkpt lat="40.87734376403983" lon="9.624102922290673"><ele>14.0</ele><time>2026-05-04T15:46:45Z</time></trkpt><trkpt lat="40.87742196810034" lon="9.623890833337235"><ele>13.5</ele><time>2026-05-04T15:46:46Z</time></trkpt><trkpt lat="40.87753510115078" lon="9.623624351425182"><ele>13.0</ele><time>2026-05-04T15:46:47Z</time></trkpt><trkpt lat="40.87764243027921" lon="9.623265722895054"><ele>12.0</ele><time>2026-05-04T15:46:48Z</time></trkpt><trkpt lat="40.87773517909472" lon="9.622932164207269"><ele>11.0</ele><time>2026-05-04T15:46:49Z</time></trkpt><trkpt lat="40.877776072629985" lon="9.622627686355669"><ele>11.0</ele><time>2026-05-04T15:46:50Z</time></trkpt><trkpt lat="40.87781721541065" lon="9.622334933431988"><ele>11.0</ele><time>2026-05-04T15:46:51Z</time></trkpt><trkpt lat="40.877868478897476" lon="9.622068876045844"><ele>11.0</ele><time>2026-05-04T15:46:52Z</time></trkpt><trkpt lat="40.87791326069848" lon="9.621803376506087"><ele>12.333333333333332</ele><time>2026-05-04T15:46:53Z</time></trkpt><trkpt lat="40.87794966678767" lon="9.621540249391806"><ele>13.666666666666666</ele><time>2026-05-04T15:46:54Z</time></trkpt><trkpt lat="40.8779642308406" lon="9.621264072595228"><ele>15.0</ele><time>2026-05-04T15:46:55Z</time></trkpt><trkpt lat="40.87794991112615" lon="9.620977379766694"><ele>16.5</ele><time>2026-05-04T15:46:56Z</time></trkpt><trkpt lat="40.87791579603572" lon="9.620678191109297"><ele>18.0</ele><time>2026-05-04T15:46:57Z</time></trkpt><trkpt lat="40.87786471596969" lon="9.62039105131696"><ele>20.333333333333336</ele><time>2026-05-04T15:46:58Z</time></trkpt><trkpt lat="40.87778074250004" lon="9.620129746001677"><ele>22.666666666666668</ele><time>2026-05-04T15:46:59Z</time></trkpt><trkpt lat="40.87767894052604" lon="9.61989364904885"><ele>25.0</ele><time>2026-05-04T15:47:00Z</time></trkpt><trkpt lat="40.87760455893786" lon="9.619673901834338"><ele>24.333333333333336</ele><time>2026-05-04T15:47:01Z</time></trkpt><trkpt lat="40.8775439733885" lon="9.61946276150262"><ele>23.666666666666668</ele><time>2026-05-04T15:47:02Z</time></trkpt><trkpt lat="40.87751673712174" lon="9.619249446071489"><ele>23.0</ele><time>2026-05-04T15:47:03Z</time></trkpt><trkpt lat="40.8775346350773" lon="9.619029864616035"><ele>23.0</ele><time>2026-05-04T15:47:04Z</time></trkpt><trkpt lat="40.877567882620966" lon="9.61879270741757"><ele>23.0</ele><time>2026-05-04T15:47:05Z</time></trkpt><trkpt lat="40.87763222273151" lon="9.61855838598105"><ele>23.0</ele><time>2026-05-04T15:47:06Z</time></trkpt><trkpt lat="40.877685129375784" lon="9.618304032918104"><ele>26.333333333333336</ele><time>2026-05-04T15:47:07Z</time></trkpt><trkpt lat="40.877754232151716" lon="9.618047154149128"><ele>29.666666666666668</ele><time>2026-05-04T15:47:08Z</time></trkpt><trkpt lat="40.87788136859876" lon="9.617802582249414"><ele>33.0</ele><time>2026-05-04T15:47:09Z</time></trkpt><trkpt lat="40.87798865846182" lon="9.617542205505314"><ele>33.5</ele><time>2026-05-04T15:47:10Z</time></trkpt><trkpt lat="40.87810721124282" lon="9.617258242200874"><ele>34.0</ele><time>2026-05-04T15:47:11Z</time></trkpt><trkpt lat="40.87818369005766" lon="9.616989415509737"><ele>34.333333333333336</ele><time>2026-05-04T15:47:12Z</time></trkpt><trkpt lat="40.878251168161185" lon="9.616731548280486"><ele>34.666666666666664</ele><time>2026-05-04T15:47:13Z</time></trkpt><trkpt lat="40.87829269633834" lon="9.616482771401042"><ele>35.0</ele><time>2026-05-04T15:47:14Z</time></trkpt><trkpt lat="40.87830854354129" lon="9.616218793987908"><ele>36.0</ele><time>2026-05-04T15:47:15Z</time></trkpt><trkpt lat="40.87830890270969" lon="9.615951930797527"><ele>37.0</ele><time>2026-05-04T15:47:16Z</time></trkpt><trkpt lat="40.87832274668719" lon="9.61568365145251"><ele>38.0</ele><time>2026-05-04T15:47:17Z</time></trkpt><trkpt lat="40.87836058811008" lon="9.615426333891154"><ele>40.0</ele><time>2026-05-04T15:47:18Z</time></trkpt><trkpt lat="40.87845620401424" lon="9.61522766114716"><ele>42.0</ele><time>2026-05-04T15:47:19Z</time></trkpt><trkpt lat="40.878582204852215" lon="9.615068176704296"><ele>44.0</ele><time>2026-05-04T15:47:20Z</time></trkpt><trkpt lat="40.878725156187144" lon="9.61488795532555"><ele>44.0</ele><time>2026-05-04T15:47:21Z</time></trkpt><trkpt lat="40.878904117462724" lon="9.614704949968875"><ele>44.0</ele><time>2026-05-04T15:47:22Z</time></trkpt><trkpt lat="40.87902028757761" lon="9.614505743108467"><ele>44.0</ele><time>2026-05-04T15:47:23Z</time></trkpt><trkpt lat="40.87908707952701" lon="9.614275685866083"><ele>45.666666666666664</ele><time>2026-05-04T15:47:24Z</time></trkpt><trkpt lat="40.87912504733483" lon="9.614024175565623"><ele>47.33333333333333</ele><time>2026-05-04T15:47:25Z</time></trkpt><trkpt lat="40.879167348391" lon="9.61381033842419"><ele>49.0</ele><time>2026-05-04T15:47:26Z</time></trkpt><trkpt lat="40.87921188918871" lon="9.613612649382251"><ele>49.666666666666664</ele><time>2026-05-04T15:47:27Z</time></trkpt><trkpt lat="40.879258387182766" lon="9.613429036812766"><ele>50.33333333333333</ele><time>2026-05-04T15:47:28Z</time></trkpt><trkpt lat="40.87930462027987" lon="9.613234751666484"><ele>51.0</ele><time>2026-05-04T15:47:29Z</time></trkpt><trkpt lat="40.879341318425105" lon="9.613034518064085"><ele>52.0</ele><time>2026-05-04T15:47:30Z</time></trkpt><trkpt lat="40.87936220114643" lon="9.61282387382687"><ele>53.0</ele><time>2026-05-04T15:47:31Z</time></trkpt><trkpt lat="40.87938337525999" lon="9.612610920183688"><ele>54.0</ele><time>2026-05-04T15:47:32Z</time></trkpt><trkpt lat="40.87939615257639" lon="9.612387217526138"><ele>54.0</ele><time>2026-05-04T15:47:33Z</time></trkpt><trkpt lat="40.879425708480746" lon="9.61217012476864"><ele>54.0</ele><time>2026-05-04T15:47:34Z</time></trkpt><trkpt lat="40.87947018702835" lon="9.611956604040962"><ele>54.0</ele><time>2026-05-04T15:47:35Z</time></trkpt><trkpt lat="40.87952397926339" lon="9.611729538997322"><ele>53.0</ele><time>2026-05-04T15:47:36Z</time></trkpt><trkpt lat="40.879583720203414" lon="9.611474190479473"><ele>52.0</ele><time>2026-05-04T15:47:37Z</time></trkpt><trkpt lat="40.87964317029671" lon="9.611201112330939"><ele>51.0</ele><time>2026-05-04T15:47:38Z</time></trkpt><trkpt lat="40.87970155388939" lon="9.610933498328142"><ele>51.0</ele><time>2026-05-04T15:47:39Z</time></trkpt><trkpt lat="40.87975675562119" lon="9.610667774293633"><ele>51.0</ele><time>2026-05-04T15:47:40Z</time></trkpt><trkpt lat="40.879817383673945" lon="9.610404009749695"><ele>51.0</ele><time>2026-05-04T15:47:41Z</time></trkpt><trkpt lat="40.87987222396326" lon="9.610155283068085"><ele>51.0</ele><time>2026-05-04T15:47:42Z</time></trkpt><trkpt lat="40.87992519503893" lon="9.60991228043007"><ele>51.0</ele><time>2026-05-04T15:47:43Z</time></trkpt><trkpt lat="40.87997430019092" lon="9.609689458148399"><ele>51.0</ele><time>2026-05-04T15:47:44Z</time></trkpt><trkpt lat="40.880019446137204" lon="9.609477949087406"><ele>50.0</ele><time>2026-05-04T15:47:45Z</time></trkpt><trkpt lat="40.880063790146394" lon="9.609278177988486"><ele>49.0</ele><time>2026-05-04T15:47:46Z</time></trkpt><trkpt lat="40.88010958852658" lon="9.609078446199762"><ele>48.0</ele><time>2026-05-04T15:47:47Z</time></trkpt><trkpt lat="40.880156104973345" lon="9.60887801896131"><ele>47.333333333333336</ele><time>2026-05-04T15:47:48Z</time></trkpt><trkpt lat="40.880216232984345" lon="9.608669791125978"><ele>46.66666666666667</ele><time>2026-05-04T15:47:49Z</time></trkpt><trkpt lat="40.880288432791325" lon="9.608468886792332"><ele>46.0</ele><time>2026-05-04T15:47:50Z</time></trkpt><trkpt lat="40.8803672083069" lon="9.6082719275489"><ele>45.0</ele><time>2026-05-04T15:47:51Z</time></trkpt><trkpt lat="40.88045105887558" lon="9.608081995417571"><ele>44.0</ele><time>2026-05-04T15:47:52Z</time></trkpt><trkpt lat="40.88052960407628" lon="9.607901396230334"><ele>43.0</ele><time>2026-05-04T15:47:53Z</time></trkpt><trkpt lat="40.88060465558368" lon="9.607720669564255"><ele>42.66666666666667</ele><time>2026-05-04T15:47:54Z</time></trkpt><trkpt lat="40.8806741418313" lon="9.607530641543766"><ele>42.333333333333336</ele><time>2026-05-04T15:47:55Z</time></trkpt><trkpt lat="40.88072648027974" lon="9.60732690777018"><ele>42.0</ele><time>2026-05-04T15:47:56Z</time></trkpt><trkpt lat="40.880759489945355" lon="9.607097512660104"><ele>41.666666666666664</ele><time>2026-05-04T15:47:57Z</time></trkpt><trkpt lat="40.88076592570884" lon="9.606847159419726"><ele>41.33333333333333</ele><time>2026-05-04T15:47:58Z</time></trkpt><trkpt lat="40.88075672832079" lon="9.606593166418675"><ele>41.0</ele><time>2026-05-04T15:47:59Z</time></trkpt><trkpt lat="40.88076969294287" lon="9.606348142870646"><ele>40.33333333333333</ele><time>2026-05-04T15:48:00Z</time></trkpt><trkpt lat="40.880771417483686" lon="9.606098276268654"><ele>39.666666666666664</ele><time>2026-05-04T15:48:00.999Z</time></trkpt><trkpt lat="40.88077311506367" lon="9.605852315909853"><ele>39.0</ele><time>2026-05-04T15:48:01.999Z</time></trkpt><trkpt lat="40.880774740150954" lon="9.605616859150345"><ele>39.0</ele><time>2026-05-04T15:48:02.999Z</time></trkpt><trkpt lat="40.88075981944006" lon="9.605377549436152"><ele>39.0</ele><time>2026-05-04T15:48:03.999Z</time></trkpt><trkpt lat="40.880778823849816" lon="9.605151971827494"><ele>39.0</ele><time>2026-05-04T15:48:04.999Z</time></trkpt><trkpt lat="40.88078158313307" lon="9.604939642824007"><ele>38.0</ele><time>2026-05-04T15:48:05.999Z</time></trkpt><trkpt lat="40.88078197723653" lon="9.604733517168782"><ele>37.0</ele><time>2026-05-04T15:48:06.999Z</time></trkpt><trkpt lat="40.88077858362958" lon="9.60452054209528"><ele>36.0</ele><time>2026-05-04T15:48:07.999Z</time></trkpt><trkpt lat="40.88075345240792" lon="9.604305572794221"><ele>35.666666666666664</ele><time>2026-05-04T15:48:08.999Z</time></trkpt><trkpt lat="40.88072660176778" lon="9.604086046395242"><ele>35.33333333333333</ele><time>2026-05-04T15:48:09.999Z</time></trkpt><trkpt lat="40.88067172718647" lon="9.60387033492679"><ele>35.0</ele><time>2026-05-04T15:48:10.999Z</time></trkpt><trkpt lat="40.88060168791484" lon="9.60365528617072"><ele>35.0</ele><time>2026-05-04T15:48:11.999Z</time></trkpt><trkpt lat="40.88053371694297" lon="9.603444394135769"><ele>35.0</ele><time>2026-05-04T15:48:12.999Z</time></trkpt><trkpt lat="40.88047707729612" lon="9.603225166439302"><ele>35.0</ele><time>2026-05-04T15:48:13.999Z</time></trkpt><trkpt lat="40.880467447377434" lon="9.602988162191956"><ele>34.666666666666664</ele><time>2026-05-04T15:48:14.999Z</time></trkpt><trkpt lat="40.88046003759351" lon="9.602742207911199"><ele>34.333333333333336</ele><time>2026-05-04T15:48:15.999Z</time></trkpt><trkpt lat="40.880443668429265" lon="9.602491677277962"><ele>34.0</ele><time>2026-05-04T15:48:16.999Z</time></trkpt><trkpt lat="40.88044692771511" lon="9.602236595677624"><ele>34.0</ele><time>2026-05-04T15:48:18Z</time></trkpt><trkpt lat="40.880444239074926" lon="9.60198086118506"><ele>34.0</ele><time>2026-05-04T15:48:19Z</time></trkpt><trkpt lat="40.88044244781326" lon="9.601729117455275"><ele>34.0</ele><time>2026-05-04T15:48:20Z</time></trkpt><trkpt lat="40.88044053976754" lon="9.601484838274226"><ele>34.0</ele><time>2026-05-04T15:48:21Z</time></trkpt><trkpt lat="40.88043859163378" lon="9.601255622082423"><ele>34.0</ele><time>2026-05-04T15:48:22Z</time></trkpt><trkpt lat="40.880439176311405" lon="9.601031347365632"><ele>34.0</ele><time>2026-05-04T15:48:23Z</time></trkpt><trkpt lat="40.88044126576789" lon="9.600801414854269"><ele>33.66666666666667</ele><time>2026-05-04T15:48:24Z</time></trkpt><trkpt lat="40.88045448331583" lon="9.600572717856451"><ele>33.333333333333336</ele><time>2026-05-04T15:48:25Z</time></trkpt><trkpt lat="40.88048641185715" lon="9.600353020655959"><ele>33.0</ele><time>2026-05-04T15:48:26Z</time></trkpt><trkpt lat="40.88053818843668" lon="9.60013658493483"><ele>32.333333333333336</ele><time>2026-05-04T15:48:27Z</time></trkpt><trkpt lat="40.88059484226581" lon="9.599921960178701"><ele>31.666666666666668</ele><time>2026-05-04T15:48:28Z</time></trkpt><trkpt lat="40.88064786602453" lon="9.599720337697887"><ele>31.0</ele><time>2026-05-04T15:48:29Z</time></trkpt><trkpt lat="40.88070206025049" lon="9.599529923679537"><ele>30.333333333333336</ele><time>2026-05-04T15:48:30Z</time></trkpt><trkpt lat="40.880772527740085" lon="9.599346366085088"><ele>29.666666666666664</ele><time>2026-05-04T15:48:31Z</time></trkpt><trkpt lat="40.88086578081202" lon="9.599175716061353"><ele>29.0</ele><time>2026-05-04T15:48:32Z</time></trkpt><trkpt lat="40.88098130159515" lon="9.599009127073035"><ele>30.666666666666664</ele><time>2026-05-04T15:48:33Z</time></trkpt><trkpt lat="40.881104419589924" lon="9.598844053377254"><ele>32.333333333333336</ele><time>2026-05-04T15:48:34Z</time></trkpt><trkpt lat="40.881231085257774" lon="9.598668773860902"><ele>34.0</ele><time>2026-05-04T15:48:35Z</time></trkpt><trkpt lat="40.88136204197265" lon="9.598483445175537"><ele>34.0</ele><time>2026-05-04T15:48:36Z</time></trkpt><trkpt lat="40.881491479910025" lon="9.598300906120864"><ele>34.0</ele><time>2026-05-04T15:48:37Z</time></trkpt><trkpt lat="40.881618794884254" lon="9.598109432298255"><ele>34.0</ele><time>2026-05-04T15:48:38Z</time></trkpt><trkpt lat="40.88173957402867" lon="9.597917382634998"><ele>33.66666666666667</ele><time>2026-05-04T15:48:39Z</time></trkpt><trkpt lat="40.881868904497864" lon="9.597724524235549"><ele>33.333333333333336</ele><time>2026-05-04T15:48:40Z</time></trkpt><trkpt lat="40.88199999352061" lon="9.597542648658584"><ele>33.0</ele><time>2026-05-04T15:48:41Z</time></trkpt><trkpt lat="40.882125025648364" lon="9.59737009234357"><ele>33.0</ele><time>2026-05-04T15:48:42Z</time></trkpt><trkpt lat="40.88223772406265" lon="9.59720752293315"><ele>33.0</ele><time>2026-05-04T15:48:43Z</time></trkpt><trkpt lat="40.88234750564877" lon="9.597047615855592"><ele>33.0</ele><time>2026-05-04T15:48:44Z</time></trkpt><trkpt lat="40.882463184511174" lon="9.596926379675581"><ele>32.5</ele><time>2026-05-04T15:48:45Z</time></trkpt><trkpt lat="40.8825912214115" lon="9.596876512010597"><ele>32.0</ele><time>2026-05-04T15:48:46Z</time></trkpt><trkpt lat="40.88272585349103" lon="9.596911983028852"><ele>31.5</ele><time>2026-05-04T15:48:47Z</time></trkpt><trkpt lat="40.882835938371834" lon="9.597019760275089"><ele>31.0</ele><time>2026-05-04T15:48:48Z</time></trkpt><trkpt lat="40.88292098057718" lon="9.597098056833929"><ele>31.0</ele><time>2026-05-04T15:48:49Z</time></trkpt><trkpt lat="40.8830076699874" lon="9.597134674705785"><ele>31.0</ele><time>2026-05-04T15:48:50Z</time></trkpt><trkpt lat="40.88311145402822" lon="9.597131013693579"><ele>31.0</ele><time>2026-05-04T15:48:51Z</time></trkpt><trkpt lat="40.883230128923195" lon="9.597099877705835"><ele>31.0</ele><time>2026-05-04T15:48:52Z</time></trkpt><trkpt lat="40.883358352311916" lon="9.59703985966076"><ele>28.0</ele><time>2026-05-04T15:48:53Z</time></trkpt><trkpt lat="40.8834846062726" lon="9.596957437518586"><ele>25.0</ele><time>2026-05-04T15:48:54Z</time></trkpt><trkpt lat="40.88360960680416" lon="9.596883409406407"><ele>22.0</ele><time>2026-05-04T15:48:55Z</time></trkpt><trkpt lat="40.88373489366369" lon="9.59683033282052"><ele>19.0</ele><time>2026-05-04T15:48:56Z</time></trkpt><trkpt lat="40.883858615103655" lon="9.596808823864531"><ele>19.0</ele><time>2026-05-04T15:48:57Z</time></trkpt><trkpt lat="40.88397986402261" lon="9.596801930321572"><ele>19.0</ele><time>2026-05-04T15:48:58Z</time></trkpt><trkpt lat="40.884099766060274" lon="9.596790163653088"><ele>19.0</ele><time>2026-05-04T15:48:59Z</time></trkpt><trkpt lat="40.884222342396775" lon="9.596754899293813"><ele>19.0</ele><time>2026-05-04T15:49:00Z</time></trkpt><trkpt lat="40.88434434565725" lon="9.596695794873334"><ele>18.25</ele><time>2026-05-04T15:49:01Z</time></trkpt><trkpt lat="40.884465496882434" lon="9.596629566123445"><ele>17.5</ele><time>2026-05-04T15:49:02Z</time></trkpt><trkpt lat="40.88458494023648" lon="9.596564579920155"><ele>16.75</ele><time>2026-05-04T15:49:03Z</time></trkpt><trkpt lat="40.88470486203811" lon="9.596501724998499"><ele>16.0</ele><time>2026-05-04T15:49:04Z</time></trkpt><trkpt lat="40.8848235207773" lon="9.59643820404365"><ele>16.0</ele><time>2026-05-04T15:49:05Z</time></trkpt><trkpt lat="40.88493935781106" lon="9.596369777377818"><ele>16.0</ele><time>2026-05-04T15:49:06Z</time></trkpt><trkpt lat="40.88504876707053" lon="9.596266208691961"><ele>16.0</ele><time>2026-05-04T15:49:07Z</time></trkpt><trkpt lat="40.88513433644065" lon="9.596126268605898"><ele>16.0</ele><time>2026-05-04T15:49:08Z</time></trkpt><trkpt lat="40.885187154465335" lon="9.595968698108326"><ele>15.25</ele><time>2026-05-04T15:49:09Z</time></trkpt><trkpt lat="40.88522218791823" lon="9.595797606396292"><ele>14.5</ele><time>2026-05-04T15:49:10Z</time></trkpt><trkpt lat="40.88525720383338" lon="9.595629669792475"><ele>13.75</ele><time>2026-05-04T15:49:11Z</time></trkpt><trkpt lat="40.88530669118379" lon="9.595457907199627"><ele>13.0</ele><time>2026-05-04T15:49:12Z</time></trkpt><trkpt lat="40.88536071517651" lon="9.595280979999073"><ele>12.5</ele><time>2026-05-04T15:49:13Z</time></trkpt><trkpt lat="40.88542302330666" lon="9.595115895956159"><ele>12.0</ele><time>2026-05-04T15:49:14Z</time></trkpt><trkpt lat="40.885491918290796" lon="9.594946849541804"><ele>11.5</ele><time>2026-05-04T15:49:15Z</time></trkpt><trkpt lat="40.88557153618211" lon="9.594777914928082"><ele>11.0</ele><time>2026-05-04T15:49:16Z</time></trkpt><trkpt lat="40.885651184184944" lon="9.594607480549524"><ele>11.5</ele><time>2026-05-04T15:49:17Z</time></trkpt><trkpt lat="40.88573191392526" lon="9.594441309263367"><ele>12.0</ele><time>2026-05-04T15:49:18Z</time></trkpt><trkpt lat="40.88581056094284" lon="9.59427729250587"><ele>12.5</ele><time>2026-05-04T15:49:19Z</time></trkpt><trkpt lat="40.8858897419019" lon="9.594111607129774"><ele>13.0</ele><time>2026-05-04T15:49:20Z</time></trkpt><trkpt lat="40.88596955513913" lon="9.593943513965849"><ele>13.25</ele><time>2026-05-04T15:49:21Z</time></trkpt><trkpt lat="40.886043314581144" lon="9.593788273774448"><ele>13.5</ele><time>2026-05-04T15:49:22Z</time></trkpt><trkpt lat="40.886117458187464" lon="9.593645554502762"><ele>13.75</ele><time>2026-05-04T15:49:23Z</time></trkpt><trkpt lat="40.88618071817903" lon="9.593516304878039"><ele>14.0</ele><time>2026-05-04T15:49:24Z</time></trkpt><trkpt lat="40.88624414789872" lon="9.593393463596723"><ele>14.0</ele><time>2026-05-04T15:49:25Z</time></trkpt><trkpt lat="40.88630568458827" lon="9.593270577092678"><ele>14.0</ele><time>2026-05-04T15:49:26Z</time></trkpt><trkpt lat="40.8863686787644" lon="9.593149561681946"><ele>14.0</ele><time>2026-05-04T15:49:27Z</time></trkpt><trkpt lat="40.886436135660354" lon="9.59303153492006"><ele>14.0</ele><time>2026-05-04T15:49:28Z</time></trkpt><trkpt lat="40.886488082100904" lon="9.592889951428864"><ele>13.75</ele><time>2026-05-04T15:49:29Z</time></trkpt><trkpt lat="40.88655084172215" lon="9.592758761968678"><ele>13.5</ele><time>2026-05-04T15:49:30Z</time></trkpt><trkpt lat="40.88661159012346" lon="9.592629487187002"><ele>13.25</ele><time>2026-05-04T15:49:31Z</time></trkpt><trkpt lat="40.886671599868315" lon="9.592505817446172"><ele>13.0</ele><time>2026-05-04T15:49:32Z</time></trkpt><trkpt lat="40.88673190241624" lon="9.592377337220324"><ele>12.75</ele><time>2026-05-04T15:49:33Z</time></trkpt><trkpt lat="40.88679314815328" lon="9.592254020128497"><ele>12.5</ele><time>2026-05-04T15:49:34Z</time></trkpt><trkpt lat="40.886853983023535" lon="9.592125488570389"><ele>12.25</ele><time>2026-05-04T15:49:35Z</time></trkpt><trkpt lat="40.88691531385865" lon="9.591999426878543"><ele>12.0</ele><time>2026-05-04T15:49:36Z</time></trkpt><trkpt lat="40.88697618542254" lon="9.591875984691017"><ele>12.0</ele><time>2026-05-04T15:49:37Z</time></trkpt><trkpt lat="40.887032327295444" lon="9.591758603630442"><ele>12.0</ele><time>2026-05-04T15:49:38Z</time></trkpt><trkpt lat="40.88708898646497" lon="9.59163857029909"><ele>12.0</ele><time>2026-05-04T15:49:39Z</time></trkpt><trkpt lat="40.88713991119953" lon="9.591535123747803"><ele>12.0</ele><time>2026-05-04T15:49:40Z</time></trkpt><trkpt lat="40.88718288458482" lon="9.591447093205964"><ele>12.0</ele><time>2026-05-04T15:49:41Z</time></trkpt><trkpt lat="40.88721768310337" lon="9.591377071881364"><ele>12.0</ele><time>2026-05-04T15:49:42Z</time></trkpt><trkpt lat="40.88726449878556" lon="9.59128440461416"><ele>12.0</ele><time>2026-05-04T15:49:44Z</time></trkpt><trkpt lat="40.887300225487614" lon="9.59120802368547"><ele>12.0</ele><time>2026-05-04T15:49:51Z</time></trkpt><trkpt lat="40.88735601506233" lon="9.591099651479812"><ele>12.0</ele><time>2026-05-04T15:49:53Z</time></trkpt><trkpt lat="40.887398811009696" lon="9.591014935980661"><ele>12.0</ele><time>2026-05-04T15:49:54Z</time></trkpt><trkpt lat="40.887448776195846" lon="9.59091799756907"><ele>12.0</ele><time>2026-05-04T15:49:55Z</time></trkpt><trkpt lat="40.88749963564583" lon="9.590808404874005"><ele>12.0</ele><time>2026-05-04T15:49:56Z</time></trkpt><trkpt lat="40.88755587740681" lon="9.590683019253893"><ele>11.6</ele><time>2026-05-04T15:49:57Z</time></trkpt><trkpt lat="40.887617226689535" lon="9.590560017627784"><ele>11.2</ele><time>2026-05-04T15:49:58Z</time></trkpt><trkpt lat="40.887681891388326" lon="9.590444779640686"><ele>10.8</ele><time>2026-05-04T15:49:59Z</time></trkpt><trkpt lat="40.887747939058585" lon="9.590336229945429"><ele>10.4</ele><time>2026-05-04T15:50:00Z</time></trkpt><trkpt lat="40.887821544069794" lon="9.590228341817276"><ele>10.0</ele><time>2026-05-04T15:50:01Z</time></trkpt><trkpt lat="40.88789629003578" lon="9.590108398457932"><ele>10.0</ele><time>2026-05-04T15:50:02Z</time></trkpt><trkpt lat="40.887976219439366" lon="9.589986326029466"><ele>10.0</ele><time>2026-05-04T15:50:03Z</time></trkpt><trkpt lat="40.8880569152645" lon="9.589871107688769"><ele>10.0</ele><time>2026-05-04T15:50:04Z</time></trkpt><trkpt lat="40.888135330728105" lon="9.589760615452837"><ele>10.0</ele><time>2026-05-04T15:50:05Z</time></trkpt><trkpt lat="40.88821060280726" lon="9.589655909490993"><ele>10.0</ele><time>2026-05-04T15:50:06Z</time></trkpt><trkpt lat="40.88827928314938" lon="9.589562385383234"><ele>10.0</ele><time>2026-05-04T15:50:06.997Z</time></trkpt><trkpt lat="40.88833561312586" lon="9.589483473881833"><ele>10.0</ele><time>2026-05-04T15:50:07.997Z</time></trkpt><trkpt lat="40.88838481266378" lon="9.589408267888622"><ele>10.0</ele><time>2026-05-04T15:50:08.997Z</time></trkpt><trkpt lat="40.888430473023064" lon="9.589342384590365"><ele>10.0</ele><time>2026-05-04T15:50:09.997Z</time></trkpt><trkpt lat="40.88850685160159" lon="9.589227990231835"><ele>10.0</ele><time>2026-05-04T15:50:11.998Z</time></trkpt><trkpt lat="40.888580083554125" lon="9.589124420045389"><ele>10.0</ele><time>2026-05-04T15:50:13.998Z</time></trkpt><trkpt lat="40.8886287435415" lon="9.58907015295408"><ele>10.0</ele><time>2026-05-04T15:50:15.998Z</time></trkpt><trkpt lat="40.88870153819222" lon="9.589030996983864"><ele>10.0</ele><time>2026-05-04T15:50:18.998Z</time></trkpt><trkpt lat="40.88881336280975" lon="9.589032817627375"><ele>10.0</ele><time>2026-05-04T15:50:20.998Z</time></trkpt><trkpt lat="40.88887814089444" lon="9.589004206578815"><ele>10.0</ele><time>2026-05-04T15:50:21.998Z</time></trkpt><trkpt lat="40.88894015546046" lon="9.588941339459991"><ele>10.0</ele><time>2026-05-04T15:50:22.998Z</time></trkpt><trkpt lat="40.888983362731" lon="9.588871609761936"><ele>10.0</ele><time>2026-05-04T15:50:23.998Z</time></trkpt><trkpt lat="40.88898844027134" lon="9.588744097193501"><ele>10.0</ele><time>2026-05-04T15:50:24.998Z</time></trkpt><trkpt lat="40.88898532240947" lon="9.58862408775253"><ele>10.0</ele><time>2026-05-04T15:50:25.998Z</time></trkpt><trkpt lat="40.88899321014317" lon="9.588513527160297"><ele>10.0</ele><time>2026-05-04T15:50:26.998Z</time></trkpt><trkpt lat="40.88905444465085" lon="9.588437130227009"><ele>10.0</ele><time>2026-05-04T15:50:27.998Z</time></trkpt><trkpt lat="40.88910710591021" lon="9.588343415730353"><ele>10.0</ele><time>2026-05-04T15:50:28.999Z</time></trkpt><trkpt lat="40.8891852579504" lon="9.588250374210888"><ele>10.0</ele><time>2026-05-04T15:50:29.999Z</time></trkpt><trkpt lat="40.88925532241159" lon="9.588144438356293"><ele>10.0</ele><time>2026-05-04T15:50:30.999Z</time></trkpt><trkpt lat="40.88932124129391" lon="9.588035721618864"><ele>10.0</ele><time>2026-05-04T15:50:31.999Z</time></trkpt><trkpt lat="40.8893941140958" lon="9.587927899606527"><ele>10.0</ele><time>2026-05-04T15:50:32.999Z</time></trkpt><trkpt lat="40.88946465393906" lon="9.587816053356402"><ele>10.0</ele><time>2026-05-04T15:50:33.999Z</time></trkpt><trkpt lat="40.88953348890391" lon="9.587697647985976"><ele>10.0</ele><time>2026-05-04T15:50:34.999Z</time></trkpt><trkpt lat="40.88960267438496" lon="9.587563125544229"><ele>10.0</ele><time>2026-05-04T15:50:35.999Z</time></trkpt><trkpt lat="40.889670871491376" lon="9.587421349836461"><ele>10.0</ele><time>2026-05-04T15:50:36.999Z</time></trkpt><trkpt lat="40.88973398419852" lon="9.587285560239419"><ele>10.0</ele><time>2026-05-04T15:50:37.999Z</time></trkpt><trkpt lat="40.889793265810496" lon="9.587151423984986"><ele>10.0</ele><time>2026-05-04T15:50:38.999Z</time></trkpt><trkpt lat="40.88984482892487" lon="9.587027401949824"><ele>10.0</ele><time>2026-05-04T15:50:39.999Z</time></trkpt><trkpt lat="40.889894631677166" lon="9.586910763026523"><ele>10.0</ele><time>2026-05-04T15:50:40.999Z</time></trkpt><trkpt lat="40.88994520544763" lon="9.586791250113304"><ele>10.0</ele><time>2026-05-04T15:50:41.999Z</time></trkpt><trkpt lat="40.88999713488932" lon="9.586674094431324"><ele>10.0</ele><time>2026-05-04T15:50:42.999Z</time></trkpt><trkpt lat="40.8900522223998" lon="9.58656013295864"><ele>9.8</ele><time>2026-05-04T15:50:43.999Z</time></trkpt><trkpt lat="40.89010756938888" lon="9.58644145335145"><ele>9.6</ele><time>2026-05-04T15:50:44.999Z</time></trkpt><trkpt lat="40.89016222963074" lon="9.586321107906732"><ele>9.4</ele><time>2026-05-04T15:50:45.999Z</time></trkpt><trkpt lat="40.89021698387109" lon="9.586195537815279"><ele>9.2</ele><time>2026-05-04T15:50:46.999Z</time></trkpt><trkpt lat="40.89027735500393" lon="9.586059755240282"><ele>9.0</ele><time>2026-05-04T15:50:47.999Z</time></trkpt><trkpt lat="40.89033857287263" lon="9.585915065552632"><ele>9.0</ele><time>2026-05-04T15:50:48.999Z</time></trkpt><trkpt lat="40.89039654537303" lon="9.585770211360478"><ele>9.0</ele><time>2026-05-04T15:50:49.999Z</time></trkpt><trkpt lat="40.89045246798584" lon="9.585627186265247"><ele>9.0</ele><time>2026-05-04T15:50:50.999Z</time></trkpt><trkpt lat="40.89050979311806" lon="9.585483220918137"><ele>9.0</ele><time>2026-05-04T15:50:51.999Z</time></trkpt><trkpt lat="40.89056496914271" lon="9.585340660926684"><ele>9.0</ele><time>2026-05-04T15:50:52.999Z</time></trkpt><trkpt lat="40.890619983106234" lon="9.585195885699179"><ele>9.0</ele><time>2026-05-04T15:50:53.999Z</time></trkpt><trkpt lat="40.890673331705955" lon="9.585052768534522"><ele>9.0</ele><time>2026-05-04T15:50:54.999Z</time></trkpt><trkpt lat="40.890729103165185" lon="9.584902504816418"><ele>9.0</ele><time>2026-05-04T15:50:55.999Z</time></trkpt><trkpt lat="40.89079298958668" lon="9.584738344020211"><ele>9.0</ele><time>2026-05-04T15:50:56.999Z</time></trkpt><trkpt lat="40.89085977757975" lon="9.584570652966407"><ele>9.0</ele><time>2026-05-04T15:50:57.999Z</time></trkpt><trkpt lat="40.89092970159573" lon="9.584394558132372"><ele>9.0</ele><time>2026-05-04T15:50:58.999Z</time></trkpt><trkpt lat="40.89099850271729" lon="9.584209131032706"><ele>9.0</ele><time>2026-05-04T15:50:59.999Z</time></trkpt><trkpt lat="40.89106741688802" lon="9.584021189921428"><ele>9.0</ele><time>2026-05-04T15:51:00.999Z</time></trkpt><trkpt lat="40.89113947632191" lon="9.583837626192922"><ele>9.0</ele><time>2026-05-04T15:51:01.999Z</time></trkpt><trkpt lat="40.89120880242353" lon="9.58364955114787"><ele>8.333333333333334</ele><time>2026-05-04T15:51:02.999Z</time></trkpt><trkpt lat="40.891275065537755" lon="9.583461419670723"><ele>7.666666666666667</ele><time>2026-05-04T15:51:03.999Z</time></trkpt><trkpt lat="40.89134129200728" lon="9.583273491646855"><ele>7.0</ele><time>2026-05-04T15:51:04.999Z</time></trkpt><trkpt lat="40.89140074947675" lon="9.583081039256172"><ele>7.0</ele><time>2026-05-04T15:51:05.999Z</time></trkpt><trkpt lat="40.89144496930883" lon="9.582869263863332"><ele>7.0</ele><time>2026-05-04T15:51:06.999Z</time></trkpt><trkpt lat="40.89147102685814" lon="9.582623945241481"><ele>7.0</ele><time>2026-05-04T15:51:07.999Z</time></trkpt><trkpt lat="40.89148540690072" lon="9.58236161755923"><ele>6.333333333333334</ele><time>2026-05-04T15:51:08.999Z</time></trkpt><trkpt lat="40.891495379961135" lon="9.582088970267874"><ele>5.666666666666667</ele><time>2026-05-04T15:51:09.999Z</time></trkpt><trkpt lat="40.89150506806858" lon="9.581816340344965"><ele>5.0</ele><time>2026-05-04T15:51:10.999Z</time></trkpt><trkpt lat="40.89151964616618" lon="9.58154146291544"><ele>4.666666666666667</ele><time>2026-05-04T15:51:11.999Z</time></trkpt><trkpt lat="40.891537578777815" lon="9.581263078869146"><ele>4.333333333333333</ele><time>2026-05-04T15:51:13Z</time></trkpt><trkpt lat="40.89155220108363" lon="9.580989574256957"><ele>4.0</ele><time>2026-05-04T15:51:14Z</time></trkpt><trkpt lat="40.8915627720267" lon="9.580713993343855"><ele>3.6666666666666665</ele><time>2026-05-04T15:51:15Z</time></trkpt><trkpt lat="40.89157175683626" lon="9.580426458101135"><ele>3.333333333333333</ele><time>2026-05-04T15:51:16Z</time></trkpt><trkpt lat="40.89160027613537" lon="9.58012394956962"><ele>3.0</ele><time>2026-05-04T15:51:17Z</time></trkpt><trkpt lat="40.891617370943266" lon="9.579781520225573"><ele>4.0</ele><time>2026-05-04T15:51:18Z</time></trkpt><trkpt lat="40.89163424244306" lon="9.579442257523816"><ele>5.0</ele><time>2026-05-04T15:51:19Z</time></trkpt><trkpt lat="40.89164934050271" lon="9.579135131185"><ele>5.0</ele><time>2026-05-04T15:51:20Z</time></trkpt><trkpt lat="40.891653239613476" lon="9.578850457435898"><ele>5.0</ele><time>2026-05-04T15:51:21Z</time></trkpt><trkpt lat="40.8916736764063" lon="9.578572252218095"><ele>5.0</ele><time>2026-05-04T15:51:22Z</time></trkpt><trkpt lat="40.89170131558487" lon="9.57830002708101"><ele>5.0</ele><time>2026-05-04T15:51:23Z</time></trkpt><trkpt lat="40.89174308369156" lon="9.578022168854247"><ele>5.0</ele><time>2026-05-04T15:51:24Z</time></trkpt><trkpt lat="40.89179566456683" lon="9.577737980478338"><ele>5.0</ele><time>2026-05-04T15:51:25Z</time></trkpt><trkpt lat="40.891861461795806" lon="9.577451353663323"><ele>3.5</ele><time>2026-05-04T15:51:26Z</time></trkpt><trkpt lat="40.89193248191484" lon="9.577163024400996"><ele>2.0</ele><time>2026-05-04T15:51:27Z</time></trkpt><trkpt lat="40.892003323427915" lon="9.576868729127186"><ele>2.0</ele><time>2026-05-04T15:51:28Z</time></trkpt><trkpt lat="40.892073815940215" lon="9.576569319359493"><ele>2.0</ele><time>2026-05-04T15:51:29Z</time></trkpt><trkpt lat="40.892140099876016" lon="9.576283868715485"><ele>2.333333333333333</ele><time>2026-05-04T15:51:30Z</time></trkpt><trkpt lat="40.892198407897496" lon="9.576022897002034"><ele>2.6666666666666665</ele><time>2026-05-04T15:51:31Z</time></trkpt><trkpt lat="40.89225502434573" lon="9.575776759880425"><ele>3.0</ele><time>2026-05-04T15:51:32Z</time></trkpt><trkpt lat="40.89231073082396" lon="9.57553935309131"><ele>3.0</ele><time>2026-05-04T15:51:33Z</time></trkpt><trkpt lat="40.892366120020725" lon="9.575308127385345"><ele>3.0</ele><time>2026-05-04T15:51:34Z</time></trkpt><trkpt lat="40.89241955557788" lon="9.575081949275281"><ele>3.0</ele><time>2026-05-04T15:51:35Z</time></trkpt><trkpt lat="40.89247278584932" lon="9.57486516997349"><ele>3.0</ele><time>2026-05-04T15:51:36Z</time></trkpt><trkpt lat="40.89252345024868" lon="9.574654053106245"><ele>3.0</ele><time>2026-05-04T15:51:37Z</time></trkpt><trkpt lat="40.89257076522766" lon="9.574444378570066"><ele>3.0</ele><time>2026-05-04T15:51:38Z</time></trkpt><trkpt lat="40.89262012770094" lon="9.574224778668064"><ele>3.0</ele><time>2026-05-04T15:51:39Z</time></trkpt><trkpt lat="40.89267223923372" lon="9.573993609576275"><ele>3.0</ele><time>2026-05-04T15:51:40Z</time></trkpt><trkpt lat="40.892724842617916" lon="9.573767571140781"><ele>3.0</ele><time>2026-05-04T15:51:41Z</time></trkpt><trkpt lat="40.892776545638206" lon="9.573541954175134"><ele>2.3333333333333335</ele><time>2026-05-04T15:51:42Z</time></trkpt><trkpt lat="40.89282959221934" lon="9.573321194871376"><ele>1.6666666666666665</ele><time>2026-05-04T15:51:43Z</time></trkpt><trkpt lat="40.89288101794574" lon="9.57310097982898"><ele>1.0</ele><time>2026-05-04T15:51:44Z</time></trkpt><trkpt lat="40.89293179877931" lon="9.572877366086656"><ele>0.3333333333333333</ele><time>2026-05-04T15:51:45Z</time></trkpt><trkpt lat="40.89298149746045" lon="9.572656448763826"><ele>-0.3333333333333333</ele><time>2026-05-04T15:51:46Z</time></trkpt><trkpt lat="40.89303327018903" lon="9.572437035586367"><ele>-1.0</ele><time>2026-05-04T15:51:47Z</time></trkpt><trkpt lat="40.8930824645923" lon="9.572214885563968"><ele>-1.3333333333333333</ele><time>2026-05-04T15:51:48Z</time></trkpt><trkpt lat="40.89313214681986" lon="9.571994758524063"><ele>-1.6666666666666665</ele><time>2026-05-04T15:51:49Z</time></trkpt><trkpt lat="40.89318318440057" lon="9.571770219056647"><ele>-2.0</ele><time>2026-05-04T15:51:50Z</time></trkpt><trkpt lat="40.89323290567454" lon="9.571550120412628"><ele>-2.0</ele><time>2026-05-04T15:51:51Z</time></trkpt><trkpt lat="40.89328291908962" lon="9.571327150418172"><ele>-2.0</ele><time>2026-05-04T15:51:52Z</time></trkpt><trkpt lat="40.893334945223195" lon="9.57110591468762"><ele>-2.0</ele><time>2026-05-04T15:51:53Z</time></trkpt><trkpt lat="40.893387678732154" lon="9.570883446744904"><ele>-2.0</ele><time>2026-05-04T15:51:54Z</time></trkpt><trkpt lat="40.89344127944234" lon="9.570656163825463"><ele>-2.0</ele><time>2026-05-04T15:51:55Z</time></trkpt><trkpt lat="40.89349678010172" lon="9.570416877077195"><ele>-2.0</ele><time>2026-05-04T15:51:56Z</time></trkpt><trkpt lat="40.8935511896369" lon="9.570178076775047"><ele>-1.3333333333333333</ele><time>2026-05-04T15:51:57Z</time></trkpt><trkpt lat="40.8935995568093" lon="9.569950883312998"><ele>-0.6666666666666666</ele><time>2026-05-04T15:51:58Z</time></trkpt><trkpt lat="40.893649881256025" lon="9.569733305498234"><ele>0.0</ele><time>2026-05-04T15:51:59Z</time></trkpt><trkpt lat="40.89370245413309" lon="9.569535108860974"><ele>1.0</ele><time>2026-05-04T15:52:00Z</time></trkpt><trkpt lat="40.89375493633884" lon="9.569336142143133"><ele>2.0</ele><time>2026-05-04T15:52:01Z</time></trkpt><trkpt lat="40.89380480874612" lon="9.56913807513447"><ele>3.0</ele><time>2026-05-04T15:52:02Z</time></trkpt><trkpt lat="40.89385704063477" lon="9.568964927966476"><ele>3.0</ele><time>2026-05-04T15:52:03Z</time></trkpt><trkpt lat="40.89391571740172" lon="9.568797724799449"><ele>3.0</ele><time>2026-05-04T15:52:04Z</time></trkpt><trkpt lat="40.893995364076346" lon="9.568635337853818"><ele>3.0</ele><time>2026-05-04T15:52:05Z</time></trkpt><trkpt lat="40.89406588767059" lon="9.568466071633265"><ele>3.0</ele><time>2026-05-04T15:52:06Z</time></trkpt><trkpt lat="40.89414536294245" lon="9.56829704333203"><ele>3.0</ele><time>2026-05-04T15:52:07Z</time></trkpt><trkpt lat="40.894236408335466" lon="9.568120305247255"><ele>3.0</ele><time>2026-05-04T15:52:08Z</time></trkpt><trkpt lat="40.8943433023789" lon="9.567938131580359"><ele>3.0</ele><time>2026-05-04T15:52:09Z</time></trkpt><trkpt lat="40.89444479555198" lon="9.567797071725197"><ele>3.0</ele><time>2026-05-04T15:52:10Z</time></trkpt><trkpt lat="40.8945712578073" lon="9.567748096625998"><ele>3.0</ele><time>2026-05-04T15:52:11Z</time></trkpt><trkpt lat="40.89467333601757" lon="9.567735326452862"><ele>3.0</ele><time>2026-05-04T15:52:12Z</time></trkpt><trkpt lat="40.894746448915804" lon="9.567672392631268"><ele>3.0</ele><time>2026-05-04T15:52:12.999Z</time></trkpt><trkpt lat="40.8947907819965" lon="9.567570415846358"><ele>3.0</ele><time>2026-05-04T15:52:13.999Z</time></trkpt><trkpt lat="40.894798510446364" lon="9.567444555898616"><ele>3.0</ele><time>2026-05-04T15:52:14.999Z</time></trkpt><trkpt lat="40.894810042715335" lon="9.567313076177399"><ele>3.0</ele><time>2026-05-04T15:52:15.999Z</time></trkpt><trkpt lat="40.89486355448429" lon="9.567189260525906"><ele>3.0</ele><time>2026-05-04T15:52:16.999Z</time></trkpt><trkpt lat="40.894962772251574" lon="9.567102434479114"><ele>3.0</ele><time>2026-05-04T15:52:17.999Z</time></trkpt><trkpt lat="40.895059654451344" lon="9.566979517043002"><ele>2.6666666666666665</ele><time>2026-05-04T15:52:18.999Z</time></trkpt><trkpt lat="40.89515181868948" lon="9.566842431486148"><ele>2.333333333333333</ele><time>2026-05-04T15:52:19.999Z</time></trkpt><trkpt lat="40.895265514582256" lon="9.56669790918519"><ele>2.0</ele><time>2026-05-04T15:52:20.999Z</time></trkpt><trkpt lat="40.89539090679806" lon="9.566538417876567"><ele>2.0</ele><time>2026-05-04T15:52:21.999Z</time></trkpt><trkpt lat="40.89551799715159" lon="9.566379626657131"><ele>2.0</ele><time>2026-05-04T15:52:22.999Z</time></trkpt><trkpt lat="40.89564256172319" lon="9.566220468293084"><ele>2.0</ele><time>2026-05-04T15:52:23.999Z</time></trkpt><trkpt lat="40.895782610417854" lon="9.566066485574959"><ele>2.333333333333333</ele><time>2026-05-04T15:52:24.999Z</time></trkpt><trkpt lat="40.89591309577767" lon="9.565911686043583"><ele>2.6666666666666665</ele><time>2026-05-04T15:52:25.999Z</time></trkpt><trkpt lat="40.896048752853964" lon="9.56575140733592"><ele>3.0</ele><time>2026-05-04T15:52:26.999Z</time></trkpt><trkpt lat="40.896180376321304" lon="9.565584959719338"><ele>3.0</ele><time>2026-05-04T15:52:27.999Z</time></trkpt><trkpt lat="40.896317558630685" lon="9.56541956906344"><ele>3.0</ele><time>2026-05-04T15:52:28.999Z</time></trkpt><trkpt lat="40.89645932945021" lon="9.565241424977108"><ele>3.0</ele><time>2026-05-04T15:52:29.999Z</time></trkpt><trkpt lat="40.896608818416794" lon="9.565064336279033"><ele>2.6666666666666665</ele><time>2026-05-04T15:52:30.999Z</time></trkpt><trkpt lat="40.89676093745055" lon="9.564883641032402"><ele>2.333333333333333</ele><time>2026-05-04T15:52:31.999Z</time></trkpt><trkpt lat="40.89691633855367" lon="9.564700759051279"><ele>2.0</ele><time>2026-05-04T15:52:32.999Z</time></trkpt><trkpt lat="40.89706487660696" lon="9.564523888090559"><ele>2.0</ele><time>2026-05-04T15:52:33.999Z</time></trkpt><trkpt lat="40.89721508603159" lon="9.564340296330382"><ele>2.0</ele><time>2026-05-04T15:52:34.999Z</time></trkpt><trkpt lat="40.89736927016188" lon="9.564153752390594"><ele>2.0</ele><time>2026-05-04T15:52:36Z</time></trkpt><trkpt lat="40.897527735006804" lon="9.56396234563859"><ele>2.333333333333333</ele><time>2026-05-04T15:52:37Z</time></trkpt><trkpt lat="40.89768414482645" lon="9.563772878760465"><ele>2.6666666666666665</ele><time>2026-05-04T15:52:38Z</time></trkpt><trkpt lat="40.89784179311977" lon="9.563583582854069"><ele>3.0</ele><time>2026-05-04T15:52:39Z</time></trkpt><trkpt lat="40.89800270829041" lon="9.563394722580753"><ele>3.0</ele><time>2026-05-04T15:52:40Z</time></trkpt><trkpt lat="40.898154866828754" lon="9.563214071368655"><ele>3.0</ele><time>2026-05-04T15:52:41Z</time></trkpt><trkpt lat="40.898305999547105" lon="9.563030747428847"><ele>3.0</ele><time>2026-05-04T15:52:42Z</time></trkpt><trkpt lat="40.89845589655779" lon="9.562840483506065"><ele>3.5</ele><time>2026-05-04T15:52:43Z</time></trkpt><trkpt lat="40.898619899329766" lon="9.562628437527556"><ele>4.0</ele><time>2026-05-04T15:52:44Z</time></trkpt><trkpt lat="40.89880039274338" lon="9.562408990679796"><ele>4.0</ele><time>2026-05-04T15:52:45Z</time></trkpt><trkpt lat="40.89898486806908" lon="9.56220327440341"><ele>4.0</ele><time>2026-05-04T15:52:46Z</time></trkpt><trkpt lat="40.89916223401712" lon="9.561995914757736"><ele>4.0</ele><time>2026-05-04T15:52:47Z</time></trkpt><trkpt lat="40.89932515788657" lon="9.56179154273872"><ele>4.0</ele><time>2026-05-04T15:52:48Z</time></trkpt><trkpt lat="40.89948430558211" lon="9.561599798880875"><ele>4.0</ele><time>2026-05-04T15:52:49Z</time></trkpt><trkpt lat="40.899637830063234" lon="9.56141820205368"><ele>4.0</ele><time>2026-05-04T15:52:50Z</time></trkpt><trkpt lat="40.89978964680854" lon="9.561232541070758"><ele>4.0</ele><time>2026-05-04T15:52:51Z</time></trkpt><trkpt lat="40.89994093318602" lon="9.56104256908949"><ele>4.0</ele><time>2026-05-04T15:52:52Z</time></trkpt><trkpt lat="40.90008817867029" lon="9.560854393483444"><ele>4.333333333333333</ele><time>2026-05-04T15:52:53Z</time></trkpt><trkpt lat="40.90023638129372" lon="9.560676257509185"><ele>4.666666666666667</ele><time>2026-05-04T15:52:54Z</time></trkpt><trkpt lat="40.90038496535888" lon="9.560499804459587"><ele>5.0</ele><time>2026-05-04T15:52:55Z</time></trkpt><trkpt lat="40.90053116748696" lon="9.56033084875582"><ele>5.333333333333334</ele><time>2026-05-04T15:52:56Z</time></trkpt><trkpt lat="40.90067280178471" lon="9.560163605083828"><ele>5.666666666666667</ele><time>2026-05-04T15:52:57Z</time></trkpt><trkpt lat="40.90081142670701" lon="9.559993921337497"><ele>6.0</ele><time>2026-05-04T15:52:58Z</time></trkpt><trkpt lat="40.90094363180389" lon="9.559831770147994"><ele>7.0</ele><time>2026-05-04T15:52:59Z</time></trkpt><trkpt lat="40.90107717822372" lon="9.559676913815139"><ele>8.0</ele><time>2026-05-04T15:53:00Z</time></trkpt><trkpt lat="40.90119854654972" lon="9.559532450965168"><ele>9.0</ele><time>2026-05-04T15:53:01Z</time></trkpt><trkpt lat="40.901315176773785" lon="9.559393980125954"><ele>9.0</ele><time>2026-05-04T15:53:02Z</time></trkpt><trkpt lat="40.90142790035125" lon="9.55925819580957"><ele>9.0</ele><time>2026-05-04T15:53:03Z</time></trkpt><trkpt lat="40.901541512559696" lon="9.559127468305094"><ele>9.0</ele><time>2026-05-04T15:53:04Z</time></trkpt><trkpt lat="40.90165167901096" lon="9.55899154525163"><ele>9.333333333333334</ele><time>2026-05-04T15:53:05Z</time></trkpt><trkpt lat="40.901765467978585" lon="9.558850547494544"><ele>9.666666666666668</ele><time>2026-05-04T15:53:06Z</time></trkpt><trkpt lat="40.90187766869728" lon="9.558707996162388"><ele>10.0</ele><time>2026-05-04T15:53:07Z</time></trkpt><trkpt lat="40.901992427776506" lon="9.558568278606574"><ele>10.0</ele><time>2026-05-04T15:53:08Z</time></trkpt><trkpt lat="40.90211048459769" lon="9.558421230332664"><ele>10.0</ele><time>2026-05-04T15:53:09Z</time></trkpt><trkpt lat="40.90223910274339" lon="9.558263455995936"><ele>10.0</ele><time>2026-05-04T15:53:10Z</time></trkpt><trkpt lat="40.90237397685243" lon="9.558095738168461"><ele>10.0</ele><time>2026-05-04T15:53:11Z</time></trkpt><trkpt lat="40.90250555974184" lon="9.557938577695277"><ele>10.0</ele><time>2026-05-04T15:53:12Z</time></trkpt><trkpt lat="40.90263588284525" lon="9.557783958485274"><ele>10.0</ele><time>2026-05-04T15:53:13Z</time></trkpt><trkpt lat="40.90276301645059" lon="9.557641343598167"><ele>11.333333333333334</ele><time>2026-05-04T15:53:14Z</time></trkpt><trkpt lat="40.90288645730746" lon="9.557500387549519"><ele>12.666666666666668</ele><time>2026-05-04T15:53:15Z</time></trkpt><trkpt lat="40.90300493209978" lon="9.557360387934501"><ele>14.0</ele><time>2026-05-04T15:53:16Z</time></trkpt><trkpt lat="40.90312549912473" lon="9.557241592172568"><ele>14.0</ele><time>2026-05-04T15:53:17Z</time></trkpt><trkpt lat="40.90322788989779" lon="9.557125522387828"><ele>14.0</ele><time>2026-05-04T15:53:18Z</time></trkpt><trkpt lat="40.9033359668034" lon="9.557024886817782"><ele>14.0</ele><time>2026-05-04T15:53:19Z</time></trkpt><trkpt lat="40.903439302473416" lon="9.556941311342747"><ele>14.0</ele><time>2026-05-04T15:53:20Z</time></trkpt><trkpt lat="40.90353603710402" lon="9.556857469909785"><ele>13.25</ele><time>2026-05-04T15:53:21Z</time></trkpt><trkpt lat="40.90362525744528" lon="9.556763949716677"><ele>12.5</ele><time>2026-05-04T15:53:22Z</time></trkpt><trkpt lat="40.90371245801361" lon="9.556670233949143"><ele>11.75</ele><time>2026-05-04T15:53:23Z</time></trkpt><trkpt lat="40.90380484396945" lon="9.556559221773677"><ele>11.0</ele><time>2026-05-04T15:53:24Z</time></trkpt><trkpt lat="40.90389788678159" lon="9.556418964077052"><ele>11.0</ele><time>2026-05-04T15:53:25Z</time></trkpt><trkpt lat="40.903974745342644" lon="9.556244639622948"><ele>11.0</ele><time>2026-05-04T15:53:26Z</time></trkpt><trkpt lat="40.90403401366062" lon="9.556061697047026"><ele>11.0</ele><time>2026-05-04T15:53:27Z</time></trkpt><trkpt lat="40.904109680000026" lon="9.555883842831218"><ele>10.25</ele><time>2026-05-04T15:53:28Z</time></trkpt><trkpt lat="40.9041856827963" lon="9.555704039109234"><ele>9.5</ele><time>2026-05-04T15:53:29Z</time></trkpt><trkpt lat="40.90426220476376" lon="9.555536809457381"><ele>8.75</ele><time>2026-05-04T15:53:30Z</time></trkpt><trkpt lat="40.904315220968535" lon="9.555374034526087"><ele>8.0</ele><time>2026-05-04T15:53:31Z</time></trkpt><trkpt lat="40.904339266697356" lon="9.555210123225518"><ele>8.0</ele><time>2026-05-04T15:53:32Z</time></trkpt><trkpt lat="40.904326273932455" lon="9.55505542322151"><ele>8.0</ele><time>2026-05-04T15:53:33Z</time></trkpt><trkpt lat="40.90428869506417" lon="9.554920705743184"><ele>8.0</ele><time>2026-05-04T15:53:34Z</time></trkpt><trkpt lat="40.90424778423723" lon="9.554794034354538"><ele>8.0</ele><time>2026-05-04T15:53:35Z</time></trkpt><trkpt lat="40.90420668649152" lon="9.554660598215893"><ele>8.0</ele><time>2026-05-04T15:53:36Z</time></trkpt><trkpt lat="40.904171589178624" lon="9.554512832048339"><ele>7.5</ele><time>2026-05-04T15:53:37.001Z</time></trkpt><trkpt lat="40.904155869774236" lon="9.554353778472718"><ele>7.0</ele><time>2026-05-04T15:53:38.001Z</time></trkpt><trkpt lat="40.904152951600985" lon="9.554198810090215"><ele>6.5</ele><time>2026-05-04T15:53:39.001Z</time></trkpt><trkpt lat="40.9041503059684" lon="9.554050992240239"><ele>6.0</ele><time>2026-05-04T15:53:40.001Z</time></trkpt><trkpt lat="40.904131975568" lon="9.553900544414583"><ele>6.0</ele><time>2026-05-04T15:53:41.001Z</time></trkpt><trkpt lat="40.90411019077585" lon="9.553751528920701"><ele>6.0</ele><time>2026-05-04T15:53:42.001Z</time></trkpt><trkpt lat="40.904084283281655" lon="9.553608390678976"><ele>6.0</ele><time>2026-05-04T15:53:43.001Z</time></trkpt><trkpt lat="40.90404221447115" lon="9.553475331056946"><ele>6.0</ele><time>2026-05-04T15:53:44.001Z</time></trkpt><trkpt lat="40.90396998967075" lon="9.55334075503436"><ele>5.0</ele><time>2026-05-04T15:53:45.001Z</time></trkpt><trkpt lat="40.903901820766905" lon="9.553196706043277"><ele>4.0</ele><time>2026-05-04T15:53:46.001Z</time></trkpt><trkpt lat="40.90382444805853" lon="9.553076026038271"><ele>3.0</ele><time>2026-05-04T15:53:47.001Z</time></trkpt><trkpt lat="40.90375040622597" lon="9.552960470178702"><ele>2.0</ele><time>2026-05-04T15:53:48.001Z</time></trkpt><trkpt lat="40.90367368278754" lon="9.55283859567886"><ele>1.75</ele><time>2026-05-04T15:53:49.001Z</time></trkpt><trkpt lat="40.90360890077584" lon="9.55271380216983"><ele>1.5</ele><time>2026-05-04T15:53:50.001Z</time></trkpt><trkpt lat="40.90355362788029" lon="9.552561536958374"><ele>1.25</ele><time>2026-05-04T15:53:51.001Z</time></trkpt><trkpt lat="40.90352874790098" lon="9.552388007310162"><ele>1.0</ele><time>2026-05-04T15:53:52.001Z</time></trkpt><trkpt lat="40.903539233151264" lon="9.552214243345304"><ele>1.0</ele><time>2026-05-04T15:53:53.001Z</time></trkpt><trkpt lat="40.903565331612995" lon="9.552050101415771"><ele>1.0</ele><time>2026-05-04T15:53:54.001Z</time></trkpt><trkpt lat="40.903586014792836" lon="9.551914581360434"><ele>1.0</ele><time>2026-05-04T15:53:55.001Z</time></trkpt><trkpt lat="40.903597441728955" lon="9.551802547007641"><ele>1.0</ele><time>2026-05-04T15:53:56.001Z</time></trkpt><trkpt lat="40.903591470768596" lon="9.551691624249928"><ele>1.0</ele><time>2026-05-04T15:53:57.001Z</time></trkpt><trkpt lat="40.903565807408064" lon="9.55156413617609"><ele>1.5</ele><time>2026-05-04T15:53:58.001Z</time></trkpt><trkpt lat="40.903532109286274" lon="9.55142928697976"><ele>2.0</ele><time>2026-05-04T15:53:59.001Z</time></trkpt><trkpt lat="40.9034976755075" lon="9.551286131939763"><ele>2.5</ele><time>2026-05-04T15:54:00.001Z</time></trkpt><trkpt lat="40.90345697907232" lon="9.551136140314373"><ele>3.0</ele><time>2026-05-04T15:54:01.001Z</time></trkpt><trkpt lat="40.90341603517842" lon="9.550978187257641"><ele>3.0</ele><time>2026-05-04T15:54:02.001Z</time></trkpt><trkpt lat="40.903377776642756" lon="9.550812155567417"><ele>3.0</ele><time>2026-05-04T15:54:03.001Z</time></trkpt><trkpt lat="40.903328897179314" lon="9.550628817255475"><ele>3.0</ele><time>2026-05-04T15:54:04.001Z</time></trkpt><trkpt lat="40.903277217201754" lon="9.55042549370631"><ele>3.0</ele><time>2026-05-04T15:54:05.001Z</time></trkpt><trkpt lat="40.90322788859004" lon="9.550225407055846"><ele>3.0</ele><time>2026-05-04T15:54:06.001Z</time></trkpt><trkpt lat="40.90317615406878" lon="9.550024656377518"><ele>3.0</ele><time>2026-05-04T15:54:07.001Z</time></trkpt><trkpt lat="40.90312068108954" lon="9.549831022636164"><ele>3.0</ele><time>2026-05-04T15:54:08.001Z</time></trkpt><trkpt lat="40.90307164628433" lon="9.549649143786647"><ele>3.0</ele><time>2026-05-04T15:54:09.001Z</time></trkpt><trkpt lat="40.9030166575757" lon="9.549463397990444"><ele>3.0</ele><time>2026-05-04T15:54:10.001Z</time></trkpt><trkpt lat="40.90296783041777" lon="9.549285795033265"><ele>3.0</ele><time>2026-05-04T15:54:11.001Z</time></trkpt><trkpt lat="40.9029229743224" lon="9.549109519788773"><ele>3.0</ele><time>2026-05-04T15:54:12.001Z</time></trkpt><trkpt lat="40.90288029294848" lon="9.548935637381849"><ele>3.0</ele><time>2026-05-04T15:54:13.001Z</time></trkpt><trkpt lat="40.90283399965385" lon="9.548759838488511"><ele>3.0</ele><time>2026-05-04T15:54:14.001Z</time></trkpt><trkpt lat="40.902787412832225" lon="9.548579591938589"><ele>3.0</ele><time>2026-05-04T15:54:15.001Z</time></trkpt><trkpt lat="40.90273606926754" lon="9.54839564724161"><ele>3.0</ele><time>2026-05-04T15:54:16.001Z</time></trkpt><trkpt lat="40.902685732672104" lon="9.548215035473204"><ele>3.25</ele><time>2026-05-04T15:54:17.001Z</time></trkpt><trkpt lat="40.90262150475475" lon="9.548037108835533"><ele>3.5</ele><time>2026-05-04T15:54:18.001Z</time></trkpt><trkpt lat="40.902551789163496" lon="9.547877779591756"><ele>3.75</ele><time>2026-05-04T15:54:19.001Z</time></trkpt><trkpt lat="40.902466046896855" lon="9.5477323937631"><ele>4.0</ele><time>2026-05-04T15:54:20.001Z</time></trkpt><trkpt lat="40.9023800049423" lon="9.547601077459715"><ele>4.0</ele><time>2026-05-04T15:54:21.001Z</time></trkpt><trkpt lat="40.90230351469754" lon="9.547470516651003"><ele>4.0</ele><time>2026-05-04T15:54:22.001Z</time></trkpt><trkpt lat="40.90222985547573" lon="9.5473425876943"><ele>4.0</ele><time>2026-05-04T15:54:23.001Z</time></trkpt><trkpt lat="40.9021613491664" lon="9.547216761128015"><ele>4.0</ele><time>2026-05-04T15:54:24.001Z</time></trkpt><trkpt lat="40.90211655965957" lon="9.547085234783102"><ele>3.9999999999999996</ele><time>2026-05-04T15:54:25.001Z</time></trkpt><trkpt lat="40.90206042811583" lon="9.546979104491122"><ele>4.0</ele><time>2026-05-04T15:54:26.001Z</time></trkpt><trkpt lat="40.90201907880091" lon="9.546866426501257"><ele>4.0</ele><time>2026-05-04T15:54:27.001Z</time></trkpt><trkpt lat="40.901994208916776" lon="9.546764089289434"><ele>4.0</ele><time>2026-05-04T15:54:28.001Z</time></trkpt><trkpt lat="40.901962819911624" lon="9.546680166163128"><ele>3.9999999999999996</ele><time>2026-05-04T15:54:29.001Z</time></trkpt><trkpt lat="40.90192717743239" lon="9.546584870595225"><ele>4.0</ele><time>2026-05-04T15:54:30.001Z</time></trkpt><trkpt lat="40.90189351893656" lon="9.546492984151858"><ele>4.0</ele><time>2026-05-04T15:54:31.001Z</time></trkpt><trkpt lat="40.90186110454375" lon="9.546401285132697"><ele>3.9999999999999996</ele><time>2026-05-04T15:54:32.001Z</time></trkpt><trkpt lat="40.901816883160976" lon="9.546326214442736"><ele>4.0</ele><time>2026-05-04T15:54:33.001Z</time></trkpt><trkpt lat="40.90180151476813" lon="9.546241167063988"><ele>4.0</ele><time>2026-05-04T15:54:34.001Z</time></trkpt><trkpt lat="40.90177260186515" lon="9.546160130252732"><ele>3.9999999999999996</ele><time>2026-05-04T15:54:35.001Z</time></trkpt><trkpt lat="40.90175587145612" lon="9.54607084941145"><ele>4.0</ele><time>2026-05-04T15:54:36.001Z</time></trkpt><trkpt lat="40.90173095716538" lon="9.54598073435585"><ele>4.0</ele><time>2026-05-04T15:54:37.001Z</time></trkpt><trkpt lat="40.901695230342455" lon="9.545884125434618"><ele>4.0</ele><time>2026-05-04T15:54:38.001Z</time></trkpt><trkpt lat="40.90166185728625" lon="9.545768046873883"><ele>4.0</ele><time>2026-05-04T15:54:39.001Z</time></trkpt><trkpt lat="40.901637698528035" lon="9.545640249733802"><ele>4.0</ele><time>2026-05-04T15:54:40.001Z</time></trkpt><trkpt lat="40.90159467228143" lon="9.545522666400393"><ele>4.0</ele><time>2026-05-04T15:54:41.001Z</time></trkpt><trkpt lat="40.90152738836313" lon="9.54542843189522"><ele>4.0</ele><time>2026-05-04T15:54:42.001Z</time></trkpt><trkpt lat="40.90148159904036" lon="9.545321505345745"><ele>4.0</ele><time>2026-05-04T15:54:43.001Z</time></trkpt><trkpt lat="40.90142405678889" lon="9.545234254937732"><ele>3.9999999999999996</ele><time>2026-05-04T15:54:44.001Z</time></trkpt><trkpt lat="40.90137416879033" lon="9.545156236988891"><ele>4.0</ele><time>2026-05-04T15:54:45.001Z</time></trkpt><trkpt lat="40.901322021566216" lon="9.545092952982726"><ele>4.0</ele><time>2026-05-04T15:54:46.001Z</time></trkpt><trkpt lat="40.9012842612696" lon="9.545022721948524"><ele>3.9999999999999996</ele><time>2026-05-04T15:54:47.001Z</time></trkpt><trkpt lat="40.90124805578937" lon="9.54494976267008"><ele>4.0</ele><time>2026-05-04T15:54:48.001Z</time></trkpt><trkpt lat="40.90120897159476" lon="9.544861816048499"><ele>4.0</ele><time>2026-05-04T15:54:49.001Z</time></trkpt><trkpt lat="40.90116645248655" lon="9.544771576422953"><ele>4.0</ele><time>2026-05-04T15:54:50.001Z</time></trkpt><trkpt lat="40.901131354025004" lon="9.544681848158572"><ele>3.9999999999999996</ele><time>2026-05-04T15:54:51.001Z</time></trkpt><trkpt lat="40.90110232698788" lon="9.544602823718702"><ele>4.0</ele><time>2026-05-04T15:54:52.001Z</time></trkpt><trkpt lat="40.901069877850745" lon="9.54452659263778"><ele>4.0</ele><time>2026-05-04T15:54:53.001Z</time></trkpt><trkpt lat="40.9010318354066" lon="9.544441886642469"><ele>3.9999999999999996</ele><time>2026-05-04T15:54:54.001Z</time></trkpt><trkpt lat="40.90098726524313" lon="9.544362341893006"><ele>4.0</ele><time>2026-05-04T15:54:55.001Z</time></trkpt><trkpt lat="40.900945605097135" lon="9.544279896393643"><ele>4.0</ele><time>2026-05-04T15:54:56.001Z</time></trkpt><trkpt lat="40.900914577187855" lon="9.544190987339814"><ele>3.9999999999999996</ele><time>2026-05-04T15:54:57.001Z</time></trkpt><trkpt lat="40.90087170387049" lon="9.544099508704798"><ele>4.0</ele><time>2026-05-04T15:54:58.001Z</time></trkpt><trkpt lat="40.9008309687052" lon="9.544001476501053"><ele>4.0</ele><time>2026-05-04T15:54:59.001Z</time></trkpt><trkpt lat="40.90079370777725" lon="9.54389821693741"><ele>4.0</ele><time>2026-05-04T15:55:00.001Z</time></trkpt><trkpt lat="40.900771964002686" lon="9.543799446631507"><ele>3.9999999999999996</ele><time>2026-05-04T15:55:01.001Z</time></trkpt><trkpt lat="40.90075768593373" lon="9.543709743974821"><ele>4.0</ele><time>2026-05-04T15:55:02.001Z</time></trkpt><trkpt lat="40.900739985502995" lon="9.543597846830506"><ele>4.0</ele><time>2026-05-04T15:55:03.001Z</time></trkpt><trkpt lat="40.900693599319666" lon="9.543485872959963"><ele>4.0</ele><time>2026-05-04T15:55:04.001Z</time></trkpt><trkpt lat="40.900657234107285" lon="9.543365513591153"><ele>4.0</ele><time>2026-05-04T15:55:05.001Z</time></trkpt><trkpt lat="40.90061536337017" lon="9.543230012907626"><ele>4.0</ele><time>2026-05-04T15:55:06.001Z</time></trkpt><trkpt lat="40.90060207453301" lon="9.54311425611009"><ele>4.0</ele><time>2026-05-04T15:55:07.001Z</time></trkpt><trkpt lat="40.90059496862863" lon="9.543000740031143"><ele>4.0</ele><time>2026-05-04T15:55:08.001Z</time></trkpt><trkpt lat="40.90059477626694" lon="9.542897030752954"><ele>4.0</ele><time>2026-05-04T15:55:09.001Z</time></trkpt><trkpt lat="40.9005984228076" lon="9.542799217663436"><ele>4.0</ele><time>2026-05-04T15:55:10.001Z</time></trkpt><trkpt lat="40.90055918060727" lon="9.542686402572965"><ele>4.0</ele><time>2026-05-04T15:55:13.001Z</time></trkpt><trkpt lat="40.90055988933029" lon="9.542557529664576"><ele>4.0</ele><time>2026-05-04T15:55:15.001Z</time></trkpt><trkpt lat="40.900572694229425" lon="9.542395714931537"><ele>3.833333333333333</ele><time>2026-05-04T15:55:17.001Z</time></trkpt><trkpt lat="40.90059855340834" lon="9.542301883859949"><ele>3.6666666666666665</ele><time>2026-05-04T15:55:18.001Z</time></trkpt><trkpt lat="40.900634901287184" lon="9.542211728687574"><ele>3.5</ele><time>2026-05-04T15:55:19.001Z</time></trkpt><trkpt lat="40.900687297093036" lon="9.542123879483814"><ele>3.333333333333333</ele><time>2026-05-04T15:55:20.001Z</time></trkpt><trkpt lat="40.90075191332849" lon="9.542028903931929"><ele>3.1666666666666665</ele><time>2026-05-04T15:55:21.001Z</time></trkpt><trkpt lat="40.900825210749574" lon="9.541954677500472"><ele>3.0</ele><time>2026-05-04T15:55:22.001Z</time></trkpt><trkpt lat="40.900888206886385" lon="9.541871676183378"><ele>3.0</ele><time>2026-05-04T15:55:23.001Z</time></trkpt><trkpt lat="40.9009541677475" lon="9.541784768572645"><ele>3.0</ele><time>2026-05-04T15:55:24.001Z</time></trkpt><trkpt lat="40.90101953143535" lon="9.54169794784074"><ele>3.0</ele><time>2026-05-04T15:55:25.001Z</time></trkpt><trkpt lat="40.90109644708529" lon="9.541595171623232"><ele>3.0</ele><time>2026-05-04T15:55:26.001Z</time></trkpt><trkpt lat="40.90117571697917" lon="9.541489249572289"><ele>3.0</ele><time>2026-05-04T15:55:27.001Z</time></trkpt><trkpt lat="40.90126180393049" lon="9.541374218178081"><ele>3.0</ele><time>2026-05-04T15:55:28.001Z</time></trkpt><trkpt lat="40.90133946235198" lon="9.541270714045535"><ele>3.0</ele><time>2026-05-04T15:55:29.001Z</time></trkpt><trkpt lat="40.90141410135484" lon="9.54117132410254"><ele>3.0</ele><time>2026-05-04T15:55:30.001Z</time></trkpt><trkpt lat="40.90148239398105" lon="9.541080385253116"><ele>3.0</ele><time>2026-05-04T15:55:31.001Z</time></trkpt><trkpt lat="40.90154827300259" lon="9.54099266040211"><ele>3.0</ele><time>2026-05-04T15:55:32.001Z</time></trkpt><trkpt lat="40.901611943508904" lon="9.540907876337512"><ele>3.0</ele><time>2026-05-04T15:55:33.001Z</time></trkpt><trkpt lat="40.90166915480591" lon="9.54081358894725"><ele>3.0</ele><time>2026-05-04T15:55:34.001Z</time></trkpt><trkpt lat="40.90173081873285" lon="9.540729567171633"><ele>3.0</ele><time>2026-05-04T15:55:35.001Z</time></trkpt><trkpt lat="40.90179076330751" lon="9.540647137188094"><ele>3.0</ele><time>2026-05-04T15:55:36.001Z</time></trkpt><trkpt lat="40.901861437300376" lon="9.5405767939386"><ele>3.0</ele><time>2026-05-04T15:55:37.001Z</time></trkpt><trkpt lat="40.90193566392622" lon="9.54047883118659"><ele>3.5</ele><time>2026-05-04T15:55:38.001Z</time></trkpt><trkpt lat="40.90202336930868" lon="9.540363079543233"><ele>4.0</ele><time>2026-05-04T15:55:39.001Z</time></trkpt><trkpt lat="40.90212061266513" lon="9.540234739994695"><ele>4.5</ele><time>2026-05-04T15:55:40.001Z</time></trkpt><trkpt lat="40.902230347271335" lon="9.54008871568104"><ele>5.0</ele><time>2026-05-04T15:55:41.001Z</time></trkpt><trkpt lat="40.90234898330967" lon="9.539930029881381"><ele>5.0</ele><time>2026-05-04T15:55:42.001Z</time></trkpt><trkpt lat="40.902502626687046" lon="9.539721111947806"><ele>5.0</ele><time>2026-05-04T15:55:43.001Z</time></trkpt><trkpt lat="40.90266566354048" lon="9.539508554933777"><ele>5.0</ele><time>2026-05-04T15:55:44.001Z</time></trkpt><trkpt lat="40.90283132802785" lon="9.539282925648669"><ele>4.0</ele><time>2026-05-04T15:55:45.001Z</time></trkpt><trkpt lat="40.90301158919483" lon="9.539045273970423"><ele>3.0</ele><time>2026-05-04T15:55:46.001Z</time></trkpt><trkpt lat="40.903190572066265" lon="9.538805667232792"><ele>2.0</ele><time>2026-05-04T15:55:47.001Z</time></trkpt><trkpt lat="40.90336992783133" lon="9.538557343025662"><ele>1.0</ele><time>2026-05-04T15:55:48.001Z</time></trkpt><trkpt lat="40.903551323611964" lon="9.538311121861055"><ele>0.5</ele><time>2026-05-04T15:55:49.001Z</time></trkpt><trkpt lat="40.90373091111054" lon="9.538071853355465"><ele>0.0</ele><time>2026-05-04T15:55:50.001Z</time></trkpt><trkpt lat="40.90391309138968" lon="9.537830411709"><ele>0.5</ele><time>2026-05-04T15:55:51.001Z</time></trkpt><trkpt lat="40.90409509317886" lon="9.537587520544212"><ele>1.0</ele><time>2026-05-04T15:55:52.001Z</time></trkpt><trkpt lat="40.90426905238883" lon="9.537356481111768"><ele>1.0</ele><time>2026-05-04T15:55:53.001Z</time></trkpt><trkpt lat="40.90443864627379" lon="9.53713990473515"><ele>1.0</ele><time>2026-05-04T15:55:54.001Z</time></trkpt><trkpt lat="40.90460189293787" lon="9.536940271587202"><ele>1.5</ele><time>2026-05-04T15:55:55.001Z</time></trkpt><trkpt lat="40.904767911038185" lon="9.536735872775495"><ele>2.0</ele><time>2026-05-04T15:55:56.001Z</time></trkpt><trkpt lat="40.90494391788941" lon="9.536541629547791"><ele>2.0</ele><time>2026-05-04T15:55:57.001Z</time></trkpt><trkpt lat="40.90512888064595" lon="9.536365954308232"><ele>2.0</ele><time>2026-05-04T15:55:58.001Z</time></trkpt><trkpt lat="40.90532489178222" lon="9.53622911225613"><ele>2.0</ele><time>2026-05-04T15:55:59.001Z</time></trkpt><trkpt lat="40.905529146234514" lon="9.53616169224398"><ele>2.0</ele><time>2026-05-04T15:56:00.001Z</time></trkpt><trkpt lat="40.90573658063404" lon="9.536108285246137"><ele>2.0</ele><time>2026-05-04T15:56:01.001Z</time></trkpt><trkpt lat="40.90595870906474" lon="9.53609647503616"><ele>2.0</ele><time>2026-05-04T15:56:02.001Z</time></trkpt><trkpt lat="40.90617909884644" lon="9.536105360645008"><ele>1.6666666666666665</ele><time>2026-05-04T15:56:03.001Z</time></trkpt><trkpt lat="40.90638514551484" lon="9.536172612198111"><ele>1.3333333333333333</ele><time>2026-05-04T15:56:04.001Z</time></trkpt><trkpt lat="40.906582303273204" lon="9.536259626449066"><ele>1.0</ele><time>2026-05-04T15:56:05.001Z</time></trkpt><trkpt lat="40.9067677266353" lon="9.5363573413712"><ele>1.0</ele><time>2026-05-04T15:56:06.001Z</time></trkpt><trkpt lat="40.906957020265914" lon="9.536432700968167"><ele>1.0</ele><time>2026-05-04T15:56:07.001Z</time></trkpt><trkpt lat="40.90715703211085" lon="9.536459893490916"><ele>1.0</ele><time>2026-05-04T15:56:08.001Z</time></trkpt><trkpt lat="40.90737103221087" lon="9.536446604066631"><ele>0.6666666666666666</ele><time>2026-05-04T15:56:09.001Z</time></trkpt><trkpt lat="40.90758435064095" lon="9.53641083670741"><ele>0.3333333333333333</ele><time>2026-05-04T15:56:10.001Z</time></trkpt><trkpt lat="40.907793170937985" lon="9.536354359519086"><ele>0.0</ele><time>2026-05-04T15:56:11.001Z</time></trkpt><trkpt lat="40.90799854206516" lon="9.536268355874196"><ele>1.3333333333333333</ele><time>2026-05-04T15:56:12.001Z</time></trkpt><trkpt lat="40.9081910941229" lon="9.536142202338603"><ele>2.6666666666666665</ele><time>2026-05-04T15:56:13.001Z</time></trkpt><trkpt lat="40.90835781577856" lon="9.535988009382075"><ele>4.0</ele><time>2026-05-04T15:56:14.001Z</time></trkpt><trkpt lat="40.90850285872094" lon="9.535821650952368"><ele>6.0</ele><time>2026-05-04T15:56:15.001Z</time></trkpt><trkpt lat="40.90864379870233" lon="9.53562674355696"><ele>8.0</ele><time>2026-05-04T15:56:16.001Z</time></trkpt><trkpt lat="40.90877060113469" lon="9.535411401029306"><ele>10.0</ele><time>2026-05-04T15:56:17.001Z</time></trkpt><trkpt lat="40.90887475620427" lon="9.5351764233604"><ele>12.0</ele><time>2026-05-04T15:56:18.001Z</time></trkpt><trkpt lat="40.90895618688046" lon="9.534925241390694"><ele>14.0</ele><time>2026-05-04T15:56:19.001Z</time></trkpt><trkpt lat="40.90901718874339" lon="9.534662143193907"><ele>16.0</ele><time>2026-05-04T15:56:20.002Z</time></trkpt><trkpt lat="40.909056294283246" lon="9.534391460838046"><ele>15.333333333333332</ele><time>2026-05-04T15:56:21.002Z</time></trkpt><trkpt lat="40.90907291808718" lon="9.53410750990312"><ele>14.666666666666668</ele><time>2026-05-04T15:56:22.002Z</time></trkpt><trkpt lat="40.90906773603024" lon="9.533823321270743"><ele>14.0</ele><time>2026-05-04T15:56:23.002Z</time></trkpt><trkpt lat="40.90903880506452" lon="9.533533837883166"><ele>14.0</ele><time>2026-05-04T15:56:24.002Z</time></trkpt><trkpt lat="40.908979387786616" lon="9.533238950416525"><ele>14.0</ele><time>2026-05-04T15:56:25.001Z</time></trkpt><trkpt lat="40.90890535838997" lon="9.532950191279735"><ele>13.0</ele><time>2026-05-04T15:56:26.001Z</time></trkpt><trkpt lat="40.90883046719067" lon="9.532657986630456"><ele>12.0</ele><time>2026-05-04T15:56:27.001Z</time></trkpt><trkpt lat="40.9087745016418" lon="9.532351402730761"><ele>11.5</ele><time>2026-05-04T15:56:28.001Z</time></trkpt><trkpt lat="40.90871118022832" lon="9.532054771603047"><ele>11.0</ele><time>2026-05-04T15:56:29.001Z</time></trkpt><trkpt lat="40.90863592284365" lon="9.531762197851267"><ele>11.0</ele><time>2026-05-04T15:56:30.001Z</time></trkpt><trkpt lat="40.90857927165788" lon="9.531473172072053"><ele>11.0</ele><time>2026-05-04T15:56:31.001Z</time></trkpt><trkpt lat="40.9085218794529" lon="9.531199334654902"><ele>11.0</ele><time>2026-05-04T15:56:32.001Z</time></trkpt><trkpt lat="40.90847119120471" lon="9.530924540188527"><ele>10.666666666666666</ele><time>2026-05-04T15:56:33.001Z</time></trkpt><trkpt lat="40.908412534352486" lon="9.53064670569261"><ele>10.333333333333334</ele><time>2026-05-04T15:56:34.001Z</time></trkpt><trkpt lat="40.90835177350501" lon="9.530365495102672"><ele>10.0</ele><time>2026-05-04T15:56:35.001Z</time></trkpt><trkpt lat="40.908292870865836" lon="9.530090928594197"><ele>9.0</ele><time>2026-05-04T15:56:36.001Z</time></trkpt><trkpt lat="40.90822979416095" lon="9.529810254616933"><ele>8.0</ele><time>2026-05-04T15:56:37.001Z</time></trkpt><trkpt lat="40.908169642964225" lon="9.529532216603437"><ele>7.0</ele><time>2026-05-04T15:56:38.001Z</time></trkpt><trkpt lat="40.90810704123045" lon="9.529267583310853"><ele>7.0</ele><time>2026-05-04T15:56:39.001Z</time></trkpt><trkpt lat="40.908048541796695" lon="9.528995203768002"><ele>7.0</ele><time>2026-05-04T15:56:40.001Z</time></trkpt><trkpt lat="40.90799267308831" lon="9.52871459298027"><ele>7.0</ele><time>2026-05-04T15:56:41.001Z</time></trkpt><trkpt lat="40.90793198818103" lon="9.528426757697849"><ele>7.333333333333334</ele><time>2026-05-04T15:56:42.001Z</time></trkpt><trkpt lat="40.90787958627414" lon="9.528151747983234"><ele>7.666666666666666</ele><time>2026-05-04T15:56:43.001Z</time></trkpt><trkpt lat="40.90784903407381" lon="9.52789506822004"><ele>8.0</ele><time>2026-05-04T15:56:44.001Z</time></trkpt><trkpt lat="40.90785564153249" lon="9.527628079767236"><ele>8.666666666666666</ele><time>2026-05-04T15:56:45.001Z</time></trkpt><trkpt lat="40.90786720114047" lon="9.527379665607924"><ele>9.333333333333334</ele><time>2026-05-04T15:56:46.001Z</time></trkpt><trkpt lat="40.90786924236893" lon="9.527120320042949"><ele>10.0</ele><time>2026-05-04T15:56:47.001Z</time></trkpt><trkpt lat="40.907898587087814" lon="9.526888604453415"><ele>10.75</ele><time>2026-05-04T15:56:48.001Z</time></trkpt><trkpt lat="40.907920019374" lon="9.526706599125355"><ele>11.5</ele><time>2026-05-04T15:56:49.001Z</time></trkpt><trkpt lat="40.90796197139328" lon="9.526542441086137"><ele>12.25</ele><time>2026-05-04T15:56:50.001Z</time></trkpt><trkpt lat="40.907967197868395" lon="9.526389330762381"><ele>13.0</ele><time>2026-05-04T15:56:51.001Z</time></trkpt><trkpt lat="40.907836237549375" lon="9.526205154563694"><ele>13.0</ele><time>2026-05-04T15:56:52.001Z</time></trkpt><trkpt lat="40.90785412167873" lon="9.526070749474384"><ele>13.0</ele><time>2026-05-04T15:56:53.001Z</time></trkpt><trkpt lat="40.90786973346435" lon="9.525953421787765"><ele>13.0</ele><time>2026-05-04T15:56:54.001Z</time></trkpt><trkpt lat="40.90788453886266" lon="9.525842154379607"><ele>13.0</ele><time>2026-05-04T15:56:55.001Z</time></trkpt><trkpt lat="40.908027055192065" lon="9.525755350915256"><ele>13.0</ele><time>2026-05-04T15:56:56.001Z</time></trkpt><trkpt lat="40.9080428539086" lon="9.52561209952631"><ele>13.0</ele><time>2026-05-04T15:56:57.001Z</time></trkpt><trkpt lat="40.90805729588595" lon="9.525463715987534"><ele>13.0</ele><time>2026-05-04T15:56:58.001Z</time></trkpt><trkpt lat="40.90807034008322" lon="9.525315376760771"><ele>13.0</ele><time>2026-05-04T15:56:59.001Z</time></trkpt><trkpt lat="40.908084995629004" lon="9.52516863998052"><ele>13.0</ele><time>2026-05-04T15:57:00.001Z</time></trkpt><trkpt lat="40.90809947699639" lon="9.525025130793518"><ele>13.0</ele><time>2026-05-04T15:57:01.001Z</time></trkpt><trkpt lat="40.90811647561686" lon="9.524872228022637"><ele>13.0</ele><time>2026-05-04T15:57:02.001Z</time></trkpt><trkpt lat="40.90813373718036" lon="9.524713871297797"><ele>13.0</ele><time>2026-05-04T15:57:03.001Z</time></trkpt><trkpt lat="40.908150598501656" lon="9.524561809066807"><ele>13.0</ele><time>2026-05-04T15:57:04.001Z</time></trkpt><trkpt lat="40.90817422653663" lon="9.52442455945433"><ele>13.0</ele><time>2026-05-04T15:57:05.001Z</time></trkpt><trkpt lat="40.908188899580445" lon="9.524298969716458"><ele>13.0</ele><time>2026-05-04T15:57:06.001Z</time></trkpt><trkpt lat="40.90820320690567" lon="9.524180060273377"><ele>12.999999999999998</ele><time>2026-05-04T15:57:07.001Z</time></trkpt><trkpt lat="40.908206372979734" lon="9.524070814408551"><ele>13.0</ele><time>2026-05-04T15:57:08.001Z</time></trkpt><trkpt lat="40.90821326984189" lon="9.52396970007717"><ele>13.0</ele><time>2026-05-04T15:57:09.001Z</time></trkpt><trkpt lat="40.908228094912005" lon="9.523872868977508"><ele>13.0</ele><time>2026-05-04T15:57:10.001Z</time></trkpt><trkpt lat="40.90823347462586" lon="9.523778808872862"><ele>12.999999999999998</ele><time>2026-05-04T15:57:11.001Z</time></trkpt><trkpt lat="40.908246002402436" lon="9.523675947123067"><ele>13.0</ele><time>2026-05-04T15:57:12.001Z</time></trkpt><trkpt lat="40.90825967219267" lon="9.523560799420075"><ele>12.499999999999998</ele><time>2026-05-04T15:57:13.001Z</time></trkpt><trkpt lat="40.908284444185526" lon="9.52344583221095"><ele>12.0</ele><time>2026-05-04T15:57:14.001Z</time></trkpt><trkpt lat="40.908299429804146" lon="9.523332602280767"><ele>11.5</ele><time>2026-05-04T15:57:15.001Z</time></trkpt><trkpt lat="40.908314004652674" lon="9.523214613104566"><ele>11.0</ele><time>2026-05-04T15:57:16.001Z</time></trkpt><trkpt lat="40.908328742474325" lon="9.523103802495482"><ele>10.5</ele><time>2026-05-04T15:57:17.001Z</time></trkpt><trkpt lat="40.90833431246167" lon="9.522991186743182"><ele>10.0</ele><time>2026-05-04T15:57:18.001Z</time></trkpt><trkpt lat="40.908343476448465" lon="9.522884634016796"><ele>10.0</ele><time>2026-05-04T15:57:19.001Z</time></trkpt><trkpt lat="40.90835048555416" lon="9.522778822378136"><ele>10.0</ele><time>2026-05-04T15:57:20.001Z</time></trkpt><trkpt lat="40.90835592911567" lon="9.522667272609993"><ele>10.0</ele><time>2026-05-04T15:57:21.001Z</time></trkpt><trkpt lat="40.908367469280485" lon="9.522551451464967"><ele>10.0</ele><time>2026-05-04T15:57:22.001Z</time></trkpt><trkpt lat="40.90839032788601" lon="9.522452586355186"><ele>10.0</ele><time>2026-05-04T15:57:23.001Z</time></trkpt><trkpt lat="40.90843236791879" lon="9.522351012380108"><ele>10.0</ele><time>2026-05-04T15:57:24.001Z</time></trkpt><trkpt lat="40.90849094735686" lon="9.5222520091896"><ele>10.0</ele><time>2026-05-04T15:57:25.001Z</time></trkpt><trkpt lat="40.90856541264796" lon="9.522150569018601"><ele>10.0</ele><time>2026-05-04T15:57:26.001Z</time></trkpt><trkpt lat="40.90861710496993" lon="9.522040572805517"><ele>10.0</ele><time>2026-05-04T15:57:27.001Z</time></trkpt><trkpt lat="40.90865193745118" lon="9.52191417557726"><ele>10.0</ele><time>2026-05-04T15:57:28.001Z</time></trkpt><trkpt lat="40.90867163710926" lon="9.52177827347903"><ele>10.0</ele><time>2026-05-04T15:57:29.001Z</time></trkpt><trkpt lat="40.908665928217275" lon="9.521635949880276"><ele>9.8</ele><time>2026-05-04T15:57:30.001Z</time></trkpt><trkpt lat="40.90863093698376" lon="9.521492973531005"><ele>9.6</ele><time>2026-05-04T15:57:31.001Z</time></trkpt><trkpt lat="40.90859088947625" lon="9.52135011123114"><ele>9.4</ele><time>2026-05-04T15:57:32.001Z</time></trkpt><trkpt lat="40.908557605950556" lon="9.521224923335819"><ele>9.2</ele><time>2026-05-04T15:57:33.001Z</time></trkpt><trkpt lat="40.90853775615003" lon="9.521082987267329"><ele>9.0</ele><time>2026-05-04T15:57:34.001Z</time></trkpt><trkpt lat="40.90853600113635" lon="9.52094135291034"><ele>8.8</ele><time>2026-05-04T15:57:35.001Z</time></trkpt><trkpt lat="40.908539640903335" lon="9.520799404888642"><ele>8.600000000000001</ele><time>2026-05-04T15:57:36.001Z</time></trkpt><trkpt lat="40.908548247973556" lon="9.520663347764911"><ele>8.4</ele><time>2026-05-04T15:57:37.001Z</time></trkpt><trkpt lat="40.908559214547864" lon="9.520522325152475"><ele>8.200000000000001</ele><time>2026-05-04T15:57:38.001Z</time></trkpt><trkpt lat="40.90857064567395" lon="9.520385544691324"><ele>8.0</ele><time>2026-05-04T15:57:39.001Z</time></trkpt><trkpt lat="40.908582337662175" lon="9.520247903817213"><ele>8.0</ele><time>2026-05-04T15:57:40.001Z</time></trkpt><trkpt lat="40.90859445834384" lon="9.52011112173194"><ele>8.0</ele><time>2026-05-04T15:57:41.001Z</time></trkpt><trkpt lat="40.9086088282619" lon="9.51998276237667"><ele>8.0</ele><time>2026-05-04T15:57:42.001Z</time></trkpt><trkpt lat="40.908621218019256" lon="9.51986923973616"><ele>8.0</ele><time>2026-05-04T15:57:43.001Z</time></trkpt><trkpt lat="40.90863413590365" lon="9.519754699977891"><ele>8.0</ele><time>2026-05-04T15:57:44.001Z</time></trkpt><trkpt lat="40.908648399301704" lon="9.519629897363732"><ele>7.999999999999999</ele><time>2026-05-04T15:57:45.001Z</time></trkpt><trkpt lat="40.90866406352641" lon="9.519502189396688"><ele>8.0</ele><time>2026-05-04T15:57:46.001Z</time></trkpt><trkpt lat="40.90867151794853" lon="9.51938565849896"><ele>8.0</ele><time>2026-05-04T15:57:47.001Z</time></trkpt><trkpt lat="40.90868008463712" lon="9.519273803447067"><ele>8.0</ele><time>2026-05-04T15:57:48.001Z</time></trkpt><trkpt lat="40.90869155653895" lon="9.51916895422591"><ele>7.999999999999999</ele><time>2026-05-04T15:57:49.001Z</time></trkpt><trkpt lat="40.908702255890475" lon="9.519073073787304"><ele>8.0</ele><time>2026-05-04T15:57:50.001Z</time></trkpt><trkpt lat="40.90871537684029" lon="9.5189653410853"><ele>7.999999999999999</ele><time>2026-05-04T15:57:51.001Z</time></trkpt><trkpt lat="40.90872595392316" lon="9.518852726470136"><ele>8.0</ele><time>2026-05-04T15:57:52.001Z</time></trkpt><trkpt lat="40.90873096836516" lon="9.518747993872498"><ele>8.0</ele><time>2026-05-04T15:57:53.001Z</time></trkpt><trkpt lat="40.9087375568445" lon="9.518655757023534"><ele>8.0</ele><time>2026-05-04T15:57:54.001Z</time></trkpt><trkpt lat="40.90874140654627" lon="9.51854329382323"><ele>7.999999999999999</ele><time>2026-05-04T15:57:55.001Z</time></trkpt><trkpt lat="40.908758831310095" lon="9.518438281355031"><ele>8.0</ele><time>2026-05-04T15:57:56.001Z</time></trkpt><trkpt lat="40.90876609344421" lon="9.518334624309263"><ele>8.166666666666666</ele><time>2026-05-04T15:57:57.001Z</time></trkpt><trkpt lat="40.90877035550657" lon="9.518226323187013"><ele>8.333333333333332</ele><time>2026-05-04T15:57:58.001Z</time></trkpt><trkpt lat="40.90877865271412" lon="9.518128309571713"><ele>8.5</ele><time>2026-05-04T15:57:59.001Z</time></trkpt><trkpt lat="40.90879336386287" lon="9.518032439960983"><ele>8.666666666666666</ele><time>2026-05-04T15:58:00.001Z</time></trkpt><trkpt lat="40.90878456858013" lon="9.517943654664727"><ele>8.833333333333334</ele><time>2026-05-04T15:58:01.001Z</time></trkpt><trkpt lat="40.90877389387575" lon="9.517825431690087"><ele>9.0</ele><time>2026-05-04T15:58:02.001Z</time></trkpt><trkpt lat="40.90876688642286" lon="9.517737918150612"><ele>9.8</ele><time>2026-05-04T15:58:03.001Z</time></trkpt><trkpt lat="40.90876605229058" lon="9.517631771303838"><ele>10.600000000000001</ele><time>2026-05-04T15:58:05.001Z</time></trkpt><trkpt lat="40.90879874640546" lon="9.517465273275663"><ele>11.4</ele><time>2026-05-04T15:58:07.001Z</time></trkpt><trkpt lat="40.90882180253886" lon="9.517370950924684"><ele>12.200000000000001</ele><time>2026-05-04T15:58:08.001Z</time></trkpt><trkpt lat="40.908832722303885" lon="9.517252452662504"><ele>13.0</ele><time>2026-05-04T15:58:09.001Z</time></trkpt><trkpt lat="40.90885475788695" lon="9.517105524751234"><ele>13.25</ele><time>2026-05-04T15:58:10.001Z</time></trkpt><trkpt lat="40.90889641059862" lon="9.516956862833304"><ele>13.5</ele><time>2026-05-04T15:58:11.001Z</time></trkpt><trkpt lat="40.908913250441785" lon="9.516785988512703"><ele>13.75</ele><time>2026-05-04T15:58:12.001Z</time></trkpt><trkpt lat="40.90892813451571" lon="9.516602986967174"><ele>14.0</ele><time>2026-05-04T15:58:13.001Z</time></trkpt><trkpt lat="40.90893852625639" lon="9.51637364250715"><ele>15.5</ele><time>2026-05-04T15:58:14.001Z</time></trkpt><trkpt lat="40.90896377553273" lon="9.516087282603351"><ele>17.0</ele><time>2026-05-04T15:58:15.001Z</time></trkpt><trkpt lat="40.90899659639959" lon="9.515779210698293"><ele>17.0</ele><time>2026-05-04T15:58:16.001Z</time></trkpt><trkpt lat="40.909026956847775" lon="9.515547519909205"><ele>17.0</ele><time>2026-05-04T15:58:17.001Z</time></trkpt><trkpt lat="40.909047010977766" lon="9.515332307127917"><ele>17.0</ele><time>2026-05-04T15:58:18.001Z</time></trkpt><trkpt lat="40.90906848474121" lon="9.51513281020166"><ele>17.0</ele><time>2026-05-04T15:58:19.001Z</time></trkpt><trkpt lat="40.90908521434408" lon="9.514972323122349"><ele>17.0</ele><time>2026-05-04T15:58:20.001Z</time></trkpt><trkpt lat="40.90908645197207" lon="9.514856092884008"><ele>17.0</ele><time>2026-05-04T15:58:21.001Z</time></trkpt><trkpt lat="40.90906635412358" lon="9.51475552442091"><ele>17.0</ele><time>2026-05-04T15:58:22.001Z</time></trkpt><trkpt lat="40.909038795013004" lon="9.514654075604662"><ele>17.0</ele><time>2026-05-04T15:58:23.001Z</time></trkpt><trkpt lat="40.90902979770026" lon="9.514554631282667"><ele>17.0</ele><time>2026-05-04T15:58:24.001Z</time></trkpt><trkpt lat="40.909057475444946" lon="9.514467606947077"><ele>17.0</ele><time>2026-05-04T15:58:25.001Z</time></trkpt><trkpt lat="40.90910859330738" lon="9.51439714179299"><ele>17.0</ele><time>2026-05-04T15:58:26.001Z</time></trkpt><trkpt lat="40.90914356273488" lon="9.514322551821943"><ele>17.0</ele><time>2026-05-04T15:58:27.001Z</time></trkpt><trkpt lat="40.90919891685948" lon="9.51417647832802"><ele>17.0</ele><time>2026-05-04T15:58:29.001Z</time></trkpt><trkpt lat="40.90922264153041" lon="9.514017077777536"><ele>17.0</ele><time>2026-05-04T15:58:31.001Z</time></trkpt><trkpt lat="40.90923444964489" lon="9.513932360851882"><ele>16.833333333333336</ele><time>2026-05-04T15:58:32.001Z</time></trkpt><trkpt lat="40.90924863970165" lon="9.513836756146459"><ele>16.666666666666668</ele><time>2026-05-04T15:58:33.001Z</time></trkpt><trkpt lat="40.909252043936355" lon="9.513722526717821"><ele>16.5</ele><time>2026-05-04T15:58:34.001Z</time></trkpt><trkpt lat="40.909271291970605" lon="9.513613903221847"><ele>16.333333333333332</ele><time>2026-05-04T15:58:35.001Z</time></trkpt><trkpt lat="40.90928485951223" lon="9.513503291161262"><ele>16.166666666666664</ele><time>2026-05-04T15:58:36.001Z</time></trkpt><trkpt lat="40.90929590965692" lon="9.513372915314111"><ele>16.0</ele><time>2026-05-04T15:58:37.001Z</time></trkpt><trkpt lat="40.90931291404974" lon="9.513215788044658"><ele>16.0</ele><time>2026-05-04T15:58:38.001Z</time></trkpt><trkpt lat="40.909339016341654" lon="9.513049073047386"><ele>16.0</ele><time>2026-05-04T15:58:39.001Z</time></trkpt><trkpt lat="40.90934923694362" lon="9.512908526651112"><ele>16.0</ele><time>2026-05-04T15:58:40.001Z</time></trkpt><trkpt lat="40.90935178396201" lon="9.512777510772791"><ele>16.0</ele><time>2026-05-04T15:58:41.001Z</time></trkpt><trkpt lat="40.909367633628456" lon="9.512655112364387"><ele>16.0</ele><time>2026-05-04T15:58:42.001Z</time></trkpt><trkpt lat="40.90939481701284" lon="9.512538248884399"><ele>16.2</ele><time>2026-05-04T15:58:43.001Z</time></trkpt><trkpt lat="40.909439664218944" lon="9.512420682242677"><ele>16.400000000000002</ele><time>2026-05-04T15:58:44.001Z</time></trkpt><trkpt lat="40.90947753509289" lon="9.512285511196643"><ele>16.6</ele><time>2026-05-04T15:58:45.001Z</time></trkpt><trkpt lat="40.90948723440563" lon="9.512149616127404"><ele>16.8</ele><time>2026-05-04T15:58:46.001Z</time></trkpt><trkpt lat="40.90948759256765" lon="9.51199968760507"><ele>17.0</ele><time>2026-05-04T15:58:47.001Z</time></trkpt><trkpt lat="40.909469910652916" lon="9.511787688868202"><ele>17.0</ele><time>2026-05-04T15:58:49.001Z</time></trkpt><trkpt lat="40.90948091470237" lon="9.511647398215661"><ele>17.0</ele><time>2026-05-04T15:58:50.001Z</time></trkpt><trkpt lat="40.90949727323513" lon="9.511507354657525"><ele>17.0</ele><time>2026-05-04T15:58:51.001Z</time></trkpt><trkpt lat="40.90950987217547" lon="9.51135577543837"><ele>17.0</ele><time>2026-05-04T15:58:52.001Z</time></trkpt><trkpt lat="40.90953227119585" lon="9.511191678167894"><ele>17.0</ele><time>2026-05-04T15:58:53.001Z</time></trkpt><trkpt lat="40.90955564942173" lon="9.511013542296547"><ele>17.0</ele><time>2026-05-04T15:58:54.001Z</time></trkpt><trkpt lat="40.909576206816084" lon="9.510838111785239"><ele>17.0</ele><time>2026-05-04T15:58:55.001Z</time></trkpt><trkpt lat="40.90960418217145" lon="9.510668073804267"><ele>17.0</ele><time>2026-05-04T15:58:56.001Z</time></trkpt><trkpt lat="40.909624964249" lon="9.510496855764753"><ele>17.0</ele><time>2026-05-04T15:58:57.001Z</time></trkpt><trkpt lat="40.90964607051483" lon="9.510335113574929"><ele>17.0</ele><time>2026-05-04T15:58:58.001Z</time></trkpt><trkpt lat="40.909661004559915" lon="9.510175328623856"><ele>17.0</ele><time>2026-05-04T15:58:59.001Z</time></trkpt><trkpt lat="40.9096742433843" lon="9.510024432999225"><ele>17.0</ele><time>2026-05-04T15:59:00Z</time></trkpt><trkpt lat="40.909687897403415" lon="9.50988519250839"><ele>17.0</ele><time>2026-05-04T15:59:01Z</time></trkpt><trkpt lat="40.909697123221356" lon="9.509755346958169"><ele>17.0</ele><time>2026-05-04T15:59:02Z</time></trkpt><trkpt lat="40.90970855021478" lon="9.509628359624783"><ele>17.0</ele><time>2026-05-04T15:59:03Z</time></trkpt><trkpt lat="40.90972863835843" lon="9.509510478107396"><ele>17.0</ele><time>2026-05-04T15:59:04Z</time></trkpt><trkpt lat="40.909770151116554" lon="9.509415701231214"><ele>17.0</ele><time>2026-05-04T15:59:05Z</time></trkpt><trkpt lat="40.909821258399525" lon="9.509335539332557"><ele>17.0</ele><time>2026-05-04T15:59:06Z</time></trkpt><trkpt lat="40.909886988319094" lon="9.509270411368568"><ele>16.6</ele><time>2026-05-04T15:59:07Z</time></trkpt><trkpt lat="40.9099588612394" lon="9.50919263387497"><ele>16.2</ele><time>2026-05-04T15:59:08Z</time></trkpt><trkpt lat="40.91001882728906" lon="9.509096835971432"><ele>15.8</ele><time>2026-05-04T15:59:09Z</time></trkpt><trkpt lat="40.91006748087521" lon="9.508978697773278"><ele>15.4</ele><time>2026-05-04T15:59:10Z</time></trkpt><trkpt lat="40.910087281444454" lon="9.508835374657812"><ele>15.0</ele><time>2026-05-04T15:59:11Z</time></trkpt><trkpt lat="40.91008404550482" lon="9.508682264193824"><ele>15.0</ele><time>2026-05-04T15:59:12Z</time></trkpt><trkpt lat="40.91004622560901" lon="9.508524680202706"><ele>15.0</ele><time>2026-05-04T15:59:13Z</time></trkpt><trkpt lat="40.90998393035712" lon="9.50839429889203"><ele>15.0</ele><time>2026-05-04T15:59:14.001Z</time></trkpt><trkpt lat="40.909948978349256" lon="9.508281760483978"><ele>15.0</ele><time>2026-05-04T15:59:15.001Z</time></trkpt><trkpt lat="40.909919736492995" lon="9.508166994719364"><ele>15.0</ele><time>2026-05-04T15:59:16.001Z</time></trkpt><trkpt lat="40.90989883607349" lon="9.508044983606037"><ele>14.0</ele><time>2026-05-04T15:59:17.001Z</time></trkpt><trkpt lat="40.90991094628085" lon="9.507899640058636"><ele>13.0</ele><time>2026-05-04T15:59:18.001Z</time></trkpt><trkpt lat="40.90994753453439" lon="9.507754368968387"><ele>12.0</ele><time>2026-05-04T15:59:19.001Z</time></trkpt><trkpt lat="40.909965461003395" lon="9.507613380717796"><ele>11.0</ele><time>2026-05-04T15:59:20.001Z</time></trkpt><trkpt lat="40.90996433162661" lon="9.507474308556256"><ele>10.0</ele><time>2026-05-04T15:59:21.001Z</time></trkpt><trkpt lat="40.90998809904477" lon="9.507335897654325"><ele>10.0</ele><time>2026-05-04T15:59:22.001Z</time></trkpt><trkpt lat="40.91000533116849" lon="9.507192547622255"><ele>10.0</ele><time>2026-05-04T15:59:23.001Z</time></trkpt><trkpt lat="40.91002947660739" lon="9.507048457878664"><ele>10.0</ele><time>2026-05-04T15:59:24.001Z</time></trkpt><trkpt lat="40.91004447880893" lon="9.506896778565517"><ele>10.0</ele><time>2026-05-04T15:59:25.001Z</time></trkpt><trkpt lat="40.910059044001166" lon="9.506736749803425"><ele>8.75</ele><time>2026-05-04T15:59:26.001Z</time></trkpt><trkpt lat="40.91008044305063" lon="9.506577459412215"><ele>7.5</ele><time>2026-05-04T15:59:27.001Z</time></trkpt><trkpt lat="40.91011576487273" lon="9.50642017553563"><ele>6.25</ele><time>2026-05-04T15:59:28.001Z</time></trkpt><trkpt lat="40.910151207063436" lon="9.5062590503686"><ele>5.0</ele><time>2026-05-04T15:59:29.001Z</time></trkpt><trkpt lat="40.910183972609886" lon="9.506098893573993"><ele>5.0</ele><time>2026-05-04T15:59:30.001Z</time></trkpt><trkpt lat="40.9102231101076" lon="9.505941419449716"><ele>5.0</ele><time>2026-05-04T15:59:31.001Z</time></trkpt><trkpt lat="40.91026410640044" lon="9.505783851710342"><ele>5.0</ele><time>2026-05-04T15:59:32.001Z</time></trkpt><trkpt lat="40.91032840385641" lon="9.505629002111336"><ele>5.0</ele><time>2026-05-04T15:59:33.001Z</time></trkpt><trkpt lat="40.91039422319237" lon="9.505453380594885"><ele>5.0</ele><time>2026-05-04T15:59:34.001Z</time></trkpt><trkpt lat="40.91045930145889" lon="9.505274984138858"><ele>5.0</ele><time>2026-05-04T15:59:35.001Z</time></trkpt><trkpt lat="40.91052286237147" lon="9.505106324003536"><ele>5.0</ele><time>2026-05-04T15:59:36.001Z</time></trkpt><trkpt lat="40.910590375411886" lon="9.504939637381934"><ele>5.0</ele><time>2026-05-04T15:59:37.001Z</time></trkpt><trkpt lat="40.9106382196175" lon="9.504759251131839"><ele>5.0</ele><time>2026-05-04T15:59:38.001Z</time></trkpt><trkpt lat="40.910710800775675" lon="9.50460766984198"><ele>5.0</ele><time>2026-05-04T15:59:39.001Z</time></trkpt><trkpt lat="40.91078401419709" lon="9.504453970185137"><ele>5.0</ele><time>2026-05-04T15:59:40.001Z</time></trkpt><trkpt lat="40.91086498994211" lon="9.504312024047508"><ele>5.0</ele><time>2026-05-04T15:59:41.001Z</time></trkpt><trkpt lat="40.91094181347204" lon="9.504163062947619"><ele>5.0</ele><time>2026-05-04T15:59:42.001Z</time></trkpt><trkpt lat="40.911028060273985" lon="9.504014236071455"><ele>5.0</ele><time>2026-05-04T15:59:43.001Z</time></trkpt><trkpt lat="40.91112465677879" lon="9.503871164976907"><ele>5.0</ele><time>2026-05-04T15:59:44.001Z</time></trkpt><trkpt lat="40.91122400800483" lon="9.50372296901981"><ele>5.0</ele><time>2026-05-04T15:59:45.001Z</time></trkpt><trkpt lat="40.911333100447095" lon="9.503574727298133"><ele>5.0</ele><time>2026-05-04T15:59:46.001Z</time></trkpt><trkpt lat="40.91144554966833" lon="9.503432687763954"><ele>5.0</ele><time>2026-05-04T15:59:47.001Z</time></trkpt><trkpt lat="40.911562246349035" lon="9.503293418976687"><ele>5.0</ele><time>2026-05-04T15:59:48.001Z</time></trkpt><trkpt lat="40.91168188125387" lon="9.503163055498458"><ele>4.0</ele><time>2026-05-04T15:59:49.001Z</time></trkpt><trkpt lat="40.91180997920202" lon="9.503030091665154"><ele>3.0</ele><time>2026-05-04T15:59:50.001Z</time></trkpt><trkpt lat="40.91194008550605" lon="9.502896948891921"><ele>2.0</ele><time>2026-05-04T15:59:51.001Z</time></trkpt><trkpt lat="40.912075995876684" lon="9.502760634226846"><ele>2.0</ele><time>2026-05-04T15:59:52.001Z</time></trkpt><trkpt lat="40.912215772731564" lon="9.502629447591941"><ele>2.0</ele><time>2026-05-04T15:59:53.001Z</time></trkpt><trkpt lat="40.912355502330314" lon="9.50251010965707"><ele>2.0</ele><time>2026-05-04T15:59:54.001Z</time></trkpt><trkpt lat="40.9125037279226" lon="9.502405542495604"><ele>1.3333333333333333</ele><time>2026-05-04T15:59:55.001Z</time></trkpt><trkpt lat="40.91265330771807" lon="9.502310137589086"><ele>0.6666666666666666</ele><time>2026-05-04T15:59:56.001Z</time></trkpt><trkpt lat="40.912801114582386" lon="9.5022212841325"><ele>0.0</ele><time>2026-05-04T15:59:57.001Z</time></trkpt><trkpt lat="40.9129470397489" lon="9.502133045044214"><ele>0.25</ele><time>2026-05-04T15:59:58.001Z</time></trkpt><trkpt lat="40.91309222905132" lon="9.502056776749672"><ele>0.5</ele><time>2026-05-04T15:59:59.001Z</time></trkpt><trkpt lat="40.91322724823094" lon="9.50200212248237"><ele>0.75</ele><time>2026-05-04T16:00:00.001Z</time></trkpt><trkpt lat="40.91336665173091" lon="9.5019479106627"><ele>1.0</ele><time>2026-05-04T16:00:01.001Z</time></trkpt><trkpt lat="40.91351332783849" lon="9.501887591561848"><ele>2.3333333333333335</ele><time>2026-05-04T16:00:02.001Z</time></trkpt><trkpt lat="40.913667535262896" lon="9.501832970195444"><ele>3.666666666666667</ele><time>2026-05-04T16:00:03.001Z</time></trkpt><trkpt lat="40.91382524980728" lon="9.501787349903706"><ele>5.0</ele><time>2026-05-04T16:00:04.001Z</time></trkpt><trkpt lat="40.9139818735566" lon="9.501745968353761"><ele>5.0</ele><time>2026-05-04T16:00:05.001Z</time></trkpt><trkpt lat="40.914139539091614" lon="9.501715468255139"><ele>5.0</ele><time>2026-05-04T16:00:06.001Z</time></trkpt><trkpt lat="40.914297990765725" lon="9.501687879430014"><ele>5.0</ele><time>2026-05-04T16:00:07.001Z</time></trkpt><trkpt lat="40.914444639015336" lon="9.501671691042963"><ele>4.75</ele><time>2026-05-04T16:00:08.001Z</time></trkpt><trkpt lat="40.91457761979834" lon="9.501666588940536"><ele>4.5</ele><time>2026-05-04T16:00:09.001Z</time></trkpt><trkpt lat="40.914700747366616" lon="9.501665826027727"><ele>4.25</ele><time>2026-05-04T16:00:10.001Z</time></trkpt><trkpt lat="40.9148249132005" lon="9.501658177333358"><ele>4.0</ele><time>2026-05-04T16:00:11.001Z</time></trkpt><trkpt lat="40.91494264757257" lon="9.501646964024566"><ele>4.0</ele><time>2026-05-04T16:00:12.001Z</time></trkpt><trkpt lat="40.915067219471084" lon="9.501634847045645"><ele>4.0</ele><time>2026-05-04T16:00:13.001Z</time></trkpt><trkpt lat="40.915191703133914" lon="9.501630812431177"><ele>4.0</ele><time>2026-05-04T16:00:14.001Z</time></trkpt><trkpt lat="40.91530759635593" lon="9.50163297393891"><ele>4.0</ele><time>2026-05-04T16:00:15.001Z</time></trkpt><trkpt lat="40.91541364936107" lon="9.501625063442408"><ele>3.4000000000000004</ele><time>2026-05-04T16:00:16.001Z</time></trkpt><trkpt lat="40.91551184384315" lon="9.501618761834704"><ele>2.8000000000000003</ele><time>2026-05-04T16:00:17.001Z</time></trkpt><trkpt lat="40.915598895959945" lon="9.501612316285415"><ele>2.2</ele><time>2026-05-04T16:00:18.001Z</time></trkpt><trkpt lat="40.91570025890321" lon="9.501608196448267"><ele>1.6</ele><time>2026-05-04T16:00:19.001Z</time></trkpt><trkpt lat="40.915818766510206" lon="9.501605049511246"><ele>1.0</ele><time>2026-05-04T16:00:20.001Z</time></trkpt><trkpt lat="40.91593665997516" lon="9.50159817533364"><ele>1.0</ele><time>2026-05-04T16:00:21.001Z</time></trkpt><trkpt lat="40.916052973681175" lon="9.501591491785355"><ele>1.0</ele><time>2026-05-04T16:00:22.001Z</time></trkpt><trkpt lat="40.91617294366901" lon="9.501588620680067"><ele>1.0</ele><time>2026-05-04T16:00:23.001Z</time></trkpt><trkpt lat="40.91629585513255" lon="9.501585842379278"><ele>1.0</ele><time>2026-05-04T16:00:24.001Z</time></trkpt><trkpt lat="40.91641844478515" lon="9.501587137984373"><ele>1.0</ele><time>2026-05-04T16:00:25.001Z</time></trkpt><trkpt lat="40.916536749598656" lon="9.5015834199474"><ele>1.0</ele><time>2026-05-04T16:00:26.001Z</time></trkpt><trkpt lat="40.91664651151619" lon="9.50158085234625"><ele>1.0</ele><time>2026-05-04T16:00:27.001Z</time></trkpt><trkpt lat="40.916762739581856" lon="9.501576539194287"><ele>1.0</ele><time>2026-05-04T16:00:28.001Z</time></trkpt><trkpt lat="40.91688326301422" lon="9.501574707135747"><ele>0.8</ele><time>2026-05-04T16:00:29.001Z</time></trkpt><trkpt lat="40.91700646883376" lon="9.501568096813477"><ele>0.6000000000000001</ele><time>2026-05-04T16:00:30.001Z</time></trkpt><trkpt lat="40.91712436790986" lon="9.50156306781792"><ele>0.4</ele><time>2026-05-04T16:00:31.001Z</time></trkpt><trkpt lat="40.9172320895075" lon="9.501566889958298"><ele>0.2</ele><time>2026-05-04T16:00:32.001Z</time></trkpt><trkpt lat="40.91733210625291" lon="9.501561882261113"><ele>0.0</ele><time>2026-05-04T16:00:33.001Z</time></trkpt><trkpt lat="40.91742128411452" lon="9.501552079551711"><ele>0.0</ele><time>2026-05-04T16:00:34.001Z</time></trkpt><trkpt lat="40.91751175736153" lon="9.501549001631837"><ele>0.0</ele><time>2026-05-04T16:00:35.001Z</time></trkpt><trkpt lat="40.91760017069354" lon="9.501545759710794"><ele>0.0</ele><time>2026-05-04T16:00:36.001Z</time></trkpt><trkpt lat="40.91769483033327" lon="9.501540136757791"><ele>0.0</ele><time>2026-05-04T16:00:37Z</time></trkpt><trkpt lat="40.917795812994484" lon="9.501531139501601"><ele>0.0</ele><time>2026-05-04T16:00:38Z</time></trkpt><trkpt lat="40.91790465300007" lon="9.501526447633887"><ele>0.0</ele><time>2026-05-04T16:00:39Z</time></trkpt><trkpt lat="40.91801976745842" lon="9.501513597505788"><ele>0.0</ele><time>2026-05-04T16:00:40Z</time></trkpt><trkpt lat="40.91813935454243" lon="9.501509090425113"><ele>0.0</ele><time>2026-05-04T16:00:41Z</time></trkpt><trkpt lat="40.918256443176446" lon="9.501506650673885"><ele>0.0</ele><time>2026-05-04T16:00:42Z</time></trkpt><trkpt lat="40.91837314571565" lon="9.501504436893887"><ele>0.0</ele><time>2026-05-04T16:00:43Z</time></trkpt><trkpt lat="40.918491582723746" lon="9.501501006799751"><ele>0.0</ele><time>2026-05-04T16:00:44Z</time></trkpt><trkpt lat="40.91861488759408" lon="9.501490996769572"><ele>0.0</ele><time>2026-05-04T16:00:45Z</time></trkpt><trkpt lat="40.91873769883719" lon="9.501487158258685"><ele>0.0</ele><time>2026-05-04T16:00:46Z</time></trkpt><trkpt lat="40.91886203134274" lon="9.501482345017118"><ele>0.0</ele><time>2026-05-04T16:00:47Z</time></trkpt><trkpt lat="40.918988753294194" lon="9.501474244657919"><ele>0.0</ele><time>2026-05-04T16:00:48Z</time></trkpt><trkpt lat="40.91912460077012" lon="9.501463967719262"><ele>0.0</ele><time>2026-05-04T16:00:49Z</time></trkpt><trkpt lat="40.91927419917221" lon="9.501453648141984"><ele>0.0</ele><time>2026-05-04T16:00:50Z</time></trkpt><trkpt lat="40.9194301502503" lon="9.501443098711484"><ele>0.0</ele><time>2026-05-04T16:00:51Z</time></trkpt><trkpt lat="40.91958041379364" lon="9.501459137452674"><ele>0.0</ele><time>2026-05-04T16:00:52Z</time></trkpt><trkpt lat="40.919712997029414" lon="9.501490688120397"><ele>0.0</ele><time>2026-05-04T16:00:53Z</time></trkpt><trkpt lat="40.919842820863074" lon="9.50151742305189"><ele>0.0</ele><time>2026-05-04T16:00:54Z</time></trkpt><trkpt lat="40.91997308114049" lon="9.501553877530961"><ele>1.0</ele><time>2026-05-04T16:00:55Z</time></trkpt><trkpt lat="40.92009885561254" lon="9.50159984328427"><ele>2.0</ele><time>2026-05-04T16:00:56Z</time></trkpt><trkpt lat="40.920215271600256" lon="9.501654586271828"><ele>3.0</ele><time>2026-05-04T16:00:57Z</time></trkpt><trkpt lat="40.92032477204862" lon="9.50171696090802"><ele>4.0</ele><time>2026-05-04T16:00:58Z</time></trkpt><trkpt lat="40.92043322180889" lon="9.501782338617506"><ele>4.0</ele><time>2026-05-04T16:00:59Z</time></trkpt><trkpt lat="40.920523241121685" lon="9.501843684012771"><ele>4.0</ele><time>2026-05-04T16:01:00Z</time></trkpt><trkpt lat="40.92061037915632" lon="9.501908300511252"><ele>4.0</ele><time>2026-05-04T16:01:01Z</time></trkpt><trkpt lat="40.92069639993314" lon="9.501973818488567"><ele>4.0</ele><time>2026-05-04T16:01:02Z</time></trkpt><trkpt lat="40.920780481059275" lon="9.502044469149393"><ele>4.0</ele><time>2026-05-04T16:01:03Z</time></trkpt><trkpt lat="40.92086405764744" lon="9.502122194068745"><ele>5.0</ele><time>2026-05-04T16:01:04Z</time></trkpt><trkpt lat="40.9209508849742" lon="9.502216844163412"><ele>6.0</ele><time>2026-05-04T16:01:05Z</time></trkpt><trkpt lat="40.921030025751726" lon="9.502318109000063"><ele>7.0</ele><time>2026-05-04T16:01:06Z</time></trkpt><trkpt lat="40.92110422136997" lon="9.502436109862918"><ele>8.0</ele><time>2026-05-04T16:01:07Z</time></trkpt><trkpt lat="40.92118084729602" lon="9.502563927351913"><ele>8.0</ele><time>2026-05-04T16:01:08Z</time></trkpt><trkpt lat="40.921258557423116" lon="9.50270480599168"><ele>8.0</ele><time>2026-05-04T16:01:09Z</time></trkpt><trkpt lat="40.92133522349287" lon="9.502850895203995"><ele>8.0</ele><time>2026-05-04T16:01:10Z</time></trkpt><trkpt lat="40.921407489329596" lon="9.503005006607692"><ele>8.0</ele><time>2026-05-04T16:01:11Z</time></trkpt><trkpt lat="40.92147580756524" lon="9.50316444926859"><ele>6.5</ele><time>2026-05-04T16:01:12Z</time></trkpt><trkpt lat="40.921534948988366" lon="9.503324075578409"><ele>5.0</ele><time>2026-05-04T16:01:13Z</time></trkpt><trkpt lat="40.921587663487394" lon="9.503466907390626"><ele>3.5</ele><time>2026-05-04T16:01:14Z</time></trkpt><trkpt lat="40.92163265613018" lon="9.503595171195588"><ele>2.0</ele><time>2026-05-04T16:01:15Z</time></trkpt><trkpt lat="40.92167216953672" lon="9.5036997257061"><ele>1.9999999999999998</ele><time>2026-05-04T16:01:16Z</time></trkpt><trkpt lat="40.92170181405384" lon="9.503774674266134"><ele>2.0</ele><time>2026-05-04T16:01:17Z</time></trkpt><trkpt lat="40.921756717018816" lon="9.503910777488596"><ele>2.0</ele><time>2026-05-04T16:01:19Z</time></trkpt><trkpt lat="40.92178806235096" lon="9.504001025924614"><ele>2.0</ele><time>2026-05-04T16:01:20Z</time></trkpt><trkpt lat="40.92181722979068" lon="9.504080002444136"><ele>1.9999999999999998</ele><time>2026-05-04T16:01:21Z</time></trkpt><trkpt lat="40.921860851138916" lon="9.50420023493771"><ele>2.0</ele><time>2026-05-04T16:01:23Z</time></trkpt><trkpt lat="40.92190449796473" lon="9.504314179864092"><ele>1.9999999999999998</ele><time>2026-05-04T16:01:25Z</time></trkpt><trkpt lat="40.922000763493045" lon="9.504407876316543"><ele>2.0</ele><time>2026-05-04T16:01:27Z</time></trkpt><trkpt lat="40.92211973792973" lon="9.50443648839844"><ele>2.0</ele><time>2026-05-04T16:01:29Z</time></trkpt><trkpt lat="40.92219031120341" lon="9.504443289769199"><ele>2.0</ele><time>2026-05-04T16:01:30Z</time></trkpt><trkpt lat="40.922256243302584" lon="9.504453786662646"><ele>1.9999999999999998</ele><time>2026-05-04T16:01:31Z</time></trkpt><trkpt lat="40.922315620484966" lon="9.504500363528807"><ele>2.0</ele><time>2026-05-04T16:01:33Z</time></trkpt><trkpt lat="40.92240074225311" lon="9.504577010626228"><ele>1.6666666666666665</ele><time>2026-05-04T16:01:40Z</time></trkpt><trkpt lat="40.92245796588642" lon="9.504619640239577"><ele>1.3333333333333333</ele><time>2026-05-04T16:01:41Z</time></trkpt><trkpt lat="40.92251153847568" lon="9.504672484947813"><ele>1.0</ele><time>2026-05-04T16:01:42Z</time></trkpt><trkpt lat="40.922579962138016" lon="9.504728081233766"><ele>0.6666666666666666</ele><time>2026-05-04T16:01:43Z</time></trkpt><trkpt lat="40.9226370197403" lon="9.504777019118194"><ele>0.3333333333333333</ele><time>2026-05-04T16:01:44Z</time></trkpt><trkpt lat="40.92272096380734" lon="9.504854940763073"><ele>0.0</ele><time>2026-05-04T16:01:46Z</time></trkpt><trkpt lat="40.92279123277278" lon="9.504916732926612"><ele>0.8</ele><time>2026-05-04T16:01:49Z</time></trkpt><trkpt lat="40.92287741138479" lon="9.504992789589409"><ele>1.6</ele><time>2026-05-04T16:01:51Z</time></trkpt><trkpt lat="40.92297377515087" lon="9.505080677694927"><ele>2.4000000000000004</ele><time>2026-05-04T16:01:53Z</time></trkpt><trkpt lat="40.923068865048556" lon="9.505168362323966"><ele>3.2</ele><time>2026-05-04T16:01:55Z</time></trkpt><trkpt lat="40.92315318397995" lon="9.505247263206368"><ele>4.0</ele><time>2026-05-04T16:01:57Z</time></trkpt><trkpt lat="40.923225198884204" lon="9.505319846531052"><ele>4.0</ele><time>2026-05-04T16:01:59Z</time></trkpt><trkpt lat="40.92331757060176" lon="9.505404243726746"><ele>4.0</ele><time>2026-05-04T16:02:01Z</time></trkpt><trkpt lat="40.92342580507937" lon="9.50550690119112"><ele>4.0</ele><time>2026-05-04T16:02:03Z</time></trkpt><trkpt lat="40.92349025162118" lon="9.50556313012763"><ele>4.0</ele><time>2026-05-04T16:02:04Z</time></trkpt><trkpt lat="40.923554362649845" lon="9.505623925434588"><ele>4.0</ele><time>2026-05-04T16:02:05Z</time></trkpt><trkpt lat="40.92361474976665" lon="9.505690208756501"><ele>3.9999999999999996</ele><time>2026-05-04T16:02:06Z</time></trkpt><trkpt lat="40.92366877072395" lon="9.50574920883591"><ele>4.0</ele><time>2026-05-04T16:02:07Z</time></trkpt><trkpt lat="40.923722888839" lon="9.505809966439056"><ele>4.0</ele><time>2026-05-04T16:02:08.001Z</time></trkpt><trkpt lat="40.92381146294652" lon="9.50588591633053"><ele>4.0</ele><time>2026-05-04T16:02:10.001Z</time></trkpt><trkpt lat="40.923873756564554" lon="9.505940538891549"><ele>3.9999999999999996</ele><time>2026-05-04T16:02:12.001Z</time></trkpt><trkpt lat="40.923934160347024" lon="9.50599353238451"><ele>4.0</ele><time>2026-05-04T16:02:14.001Z</time></trkpt><trkpt lat="40.92399360926474" lon="9.506048485085486"><ele>4.0</ele><time>2026-05-04T16:02:16.001Z</time></trkpt><trkpt lat="40.92404366792413" lon="9.506100461294592"><ele>4.0</ele><time>2026-05-04T16:02:18.001Z</time></trkpt><trkpt lat="40.92412641148217" lon="9.50617219310018"><ele>4.0</ele><time>2026-05-04T16:02:20.001Z</time></trkpt><trkpt lat="40.92421185483446" lon="9.50625092945306"><ele>4.0</ele><time>2026-05-04T16:02:22.001Z</time></trkpt><trkpt lat="40.92428568351607" lon="9.506323621578977"><ele>4.0</ele><time>2026-05-04T16:02:24.001Z</time></trkpt><trkpt lat="40.924360206059426" lon="9.506412195182127"><ele>3.6</ele><time>2026-05-04T16:02:26.001Z</time></trkpt><trkpt lat="40.92440947988628" lon="9.506473636306374"><ele>3.2</ele><time>2026-05-04T16:02:27.001Z</time></trkpt><trkpt lat="40.92445000286272" lon="9.50654967170191"><ele>2.8000000000000003</ele><time>2026-05-04T16:02:28.001Z</time></trkpt><trkpt lat="40.924503307307816" lon="9.506678972526633"><ele>2.4000000000000004</ele><time>2026-05-04T16:02:30.001Z</time></trkpt><trkpt lat="40.924555561336724" lon="9.50679209393198"><ele>2.0</ele><time>2026-05-04T16:02:32.001Z</time></trkpt><trkpt lat="40.924611235242" lon="9.506924623696849"><ele>2.0</ele><time>2026-05-04T16:02:34.001Z</time></trkpt><trkpt lat="40.92466301870085" lon="9.507058897088319"><ele>2.0</ele><time>2026-05-04T16:02:36.001Z</time></trkpt><trkpt lat="40.924759452626326" lon="9.507148471039974"><ele>2.0</ele><time>2026-05-04T16:02:38.001Z</time></trkpt><trkpt lat="40.92487702860308" lon="9.507211656860926"><ele>2.0</ele><time>2026-05-04T16:02:40.001Z</time></trkpt><trkpt lat="40.92493801825698" lon="9.50725900313392"><ele>2.0</ele><time>2026-05-04T16:02:41.001Z</time></trkpt><trkpt lat="40.92500201355429" lon="9.507320166924508"><ele>2.0</ele><time>2026-05-04T16:02:42.001Z</time></trkpt><trkpt lat="40.92507184981044" lon="9.507389251671666"><ele>2.0</ele><time>2026-05-04T16:02:43Z</time></trkpt><trkpt lat="40.92514510984003" lon="9.507454794901452"><ele>2.0</ele><time>2026-05-04T16:02:44Z</time></trkpt><trkpt lat="40.92522268601748" lon="9.507527679949272"><ele>2.0</ele><time>2026-05-04T16:02:45Z</time></trkpt><trkpt lat="40.92530390477096" lon="9.507603874510522"><ele>2.0</ele><time>2026-05-04T16:02:46Z</time></trkpt><trkpt lat="40.92538147801036" lon="9.507678077988922"><ele>2.0</ele><time>2026-05-04T16:02:47Z</time></trkpt><trkpt lat="40.925475139849226" lon="9.507755524299473"><ele>2.0</ele><time>2026-05-04T16:02:48Z</time></trkpt><trkpt lat="40.92556957512515" lon="9.507841468910232"><ele>2.0</ele><time>2026-05-04T16:02:49Z</time></trkpt><trkpt lat="40.925677692809934" lon="9.50792441862148"><ele>2.0</ele><time>2026-05-04T16:02:50Z</time></trkpt><trkpt lat="40.92579237455011" lon="9.508001003963953"><ele>1.75</ele><time>2026-05-04T16:02:51Z</time></trkpt><trkpt lat="40.92590706951068" lon="9.508074102539906"><ele>1.5</ele><time>2026-05-04T16:02:52Z</time></trkpt><trkpt lat="40.92602088049877" lon="9.508131905625337"><ele>1.25</ele><time>2026-05-04T16:02:53Z</time></trkpt><trkpt lat="40.9261402908254" lon="9.50816958933408"><ele>1.0</ele><time>2026-05-04T16:02:54Z</time></trkpt><trkpt lat="40.926250390076525" lon="9.508182324768436"><ele>1.0</ele><time>2026-05-04T16:02:55Z</time></trkpt><trkpt lat="40.92635383800097" lon="9.508158454428745"><ele>1.0</ele><time>2026-05-04T16:02:56Z</time></trkpt><trkpt lat="40.92644548349311" lon="9.508088840821019"><ele>1.0</ele><time>2026-05-04T16:02:57Z</time></trkpt><trkpt lat="40.92653236685132" lon="9.507971603533722"><ele>1.0</ele><time>2026-05-04T16:02:58Z</time></trkpt><trkpt lat="40.92662019311756" lon="9.50785527413307"><ele>1.2000000000000002</ele><time>2026-05-04T16:02:59Z</time></trkpt><trkpt lat="40.92668387868867" lon="9.507721785880307"><ele>1.4000000000000001</ele><time>2026-05-04T16:03:00Z</time></trkpt><trkpt lat="40.9267221783198" lon="9.507576169779759"><ele>1.6</ele><time>2026-05-04T16:03:01Z</time></trkpt><trkpt lat="40.926742703035686" lon="9.507435824663608"><ele>1.8</ele><time>2026-05-04T16:03:02Z</time></trkpt><trkpt lat="40.92675254873831" lon="9.507304303684927"><ele>2.0</ele><time>2026-05-04T16:03:03Z</time></trkpt><trkpt lat="40.926756490194784" lon="9.507151040552687"><ele>1.6</ele><time>2026-05-04T16:03:04Z</time></trkpt><trkpt lat="40.926787542410445" lon="9.507015916983823"><ele>1.2000000000000002</ele><time>2026-05-04T16:03:05Z</time></trkpt><trkpt lat="40.92683179588214" lon="9.506897683704494"><ele>0.8</ele><time>2026-05-04T16:03:06Z</time></trkpt><trkpt lat="40.92685894656913" lon="9.506772788671823"><ele>0.4</ele><time>2026-05-04T16:03:07Z</time></trkpt><trkpt lat="40.92688679529741" lon="9.506640343995144"><ele>0.0</ele><time>2026-05-04T16:03:08Z</time></trkpt><trkpt lat="40.926911579293524" lon="9.50651038008697"><ele>0.0</ele><time>2026-05-04T16:03:09Z</time></trkpt><trkpt lat="40.926935209477286" lon="9.506384248331432"><ele>0.0</ele><time>2026-05-04T16:03:10Z</time></trkpt><trkpt lat="40.926940284557034" lon="9.506258136209718"><ele>0.0</ele><time>2026-05-04T16:03:11Z</time></trkpt><trkpt lat="40.92697526335384" lon="9.506152718610448"><ele>0.0</ele><time>2026-05-04T16:03:12Z</time></trkpt><trkpt lat="40.92699136387081" lon="9.506050129508525"><ele>0.0</ele><time>2026-05-04T16:03:13Z</time></trkpt><trkpt lat="40.92700576120759" lon="9.505956707462174"><ele>0.0</ele><time>2026-05-04T16:03:14Z</time></trkpt><trkpt lat="40.92702320643976" lon="9.505870810735331"><ele>0.0</ele><time>2026-05-04T16:03:15Z</time></trkpt><trkpt lat="40.92704890584852" lon="9.505771644768226"><ele>0.0</ele><time>2026-05-04T16:03:16Z</time></trkpt><trkpt lat="40.92706579970576" lon="9.505651047139583"><ele>0.0</ele><time>2026-05-04T16:03:17Z</time></trkpt><trkpt lat="40.9270763495095" lon="9.50552852734795"><ele>0.0</ele><time>2026-05-04T16:03:18Z</time></trkpt><trkpt lat="40.927095864249736" lon="9.505410004837957"><ele>0.0</ele><time>2026-05-04T16:03:19Z</time></trkpt><trkpt lat="40.92711298912211" lon="9.505291886227486"><ele>0.0</ele><time>2026-05-04T16:03:20Z</time></trkpt><trkpt lat="40.92713653291363" lon="9.505177664654154"><ele>0.0</ele><time>2026-05-04T16:03:21Z</time></trkpt><trkpt lat="40.92715070527136" lon="9.505054208196396"><ele>0.0</ele><time>2026-05-04T16:03:22Z</time></trkpt><trkpt lat="40.92717791126667" lon="9.50489560975516"><ele>0.0</ele><time>2026-05-04T16:03:23Z</time></trkpt><trkpt lat="40.92718539652176" lon="9.504762201626392"><ele>0.0</ele><time>2026-05-04T16:03:24Z</time></trkpt><trkpt lat="40.92719750712456" lon="9.504631800454803"><ele>0.0</ele><time>2026-05-04T16:03:25Z</time></trkpt><trkpt lat="40.927205135904046" lon="9.504500964479188"><ele>0.0</ele><time>2026-05-04T16:03:26Z</time></trkpt><trkpt lat="40.92721133896414" lon="9.504376088924639"><ele>0.0</ele><time>2026-05-04T16:03:27Z</time></trkpt><trkpt lat="40.92721537181767" lon="9.50424653850406"><ele>0.0</ele><time>2026-05-04T16:03:28Z</time></trkpt><trkpt lat="40.92721606347586" lon="9.504106887027568"><ele>0.0</ele><time>2026-05-04T16:03:29Z</time></trkpt><trkpt lat="40.92721761795269" lon="9.50395649802639"><ele>0.0</ele><time>2026-05-04T16:03:30Z</time></trkpt><trkpt lat="40.9272261386033" lon="9.503808871798556"><ele>0.0</ele><time>2026-05-04T16:03:31Z</time></trkpt><trkpt lat="40.92722958307791" lon="9.503683428906587"><ele>0.0</ele><time>2026-05-04T16:03:32Z</time></trkpt><trkpt lat="40.927222085654485" lon="9.503565450975659"><ele>0.0</ele><time>2026-05-04T16:03:33Z</time></trkpt><trkpt lat="40.92722800130515" lon="9.503423221085203"><ele>0.0</ele><time>2026-05-04T16:03:34Z</time></trkpt><trkpt lat="40.92723441096299" lon="9.503276611619881"><ele>0.0</ele><time>2026-05-04T16:03:35Z</time></trkpt><trkpt lat="40.92727064464317" lon="9.50312542004586"><ele>0.0</ele><time>2026-05-04T16:03:36Z</time></trkpt><trkpt lat="40.927320188755864" lon="9.502962661284426"><ele>0.0</ele><time>2026-05-04T16:03:37Z</time></trkpt><trkpt lat="40.92739611715216" lon="9.50284959848717"><ele>0.0</ele><time>2026-05-04T16:03:38Z</time></trkpt><trkpt lat="40.92748374800059" lon="9.50274500454995"><ele>0.0</ele><time>2026-05-04T16:03:39Z</time></trkpt><trkpt lat="40.92759243152926" lon="9.502665500821854"><ele>0.75</ele><time>2026-05-04T16:03:40Z</time></trkpt><trkpt lat="40.92771799708208" lon="9.502631261938935"><ele>1.5</ele><time>2026-05-04T16:03:41Z</time></trkpt><trkpt lat="40.927846809975925" lon="9.5026324641327"><ele>2.25</ele><time>2026-05-04T16:03:42Z</time></trkpt><trkpt lat="40.92797731951398" lon="9.50264973652356"><ele>3.0</ele><time>2026-05-04T16:03:43Z</time></trkpt><trkpt lat="40.928111902353926" lon="9.502673495556751"><ele>3.0</ele><time>2026-05-04T16:03:44Z</time></trkpt><trkpt lat="40.92824927237577" lon="9.502699432259433"><ele>3.0</ele><time>2026-05-04T16:03:45Z</time></trkpt><trkpt lat="40.92838565002772" lon="9.502725181563942"><ele>3.0</ele><time>2026-05-04T16:03:46Z</time></trkpt><trkpt lat="40.92852158487026" lon="9.50275084726598"><ele>3.0</ele><time>2026-05-04T16:03:47Z</time></trkpt><trkpt lat="40.928650140086965" lon="9.502775119615704"><ele>3.2</ele><time>2026-05-04T16:03:48Z</time></trkpt><trkpt lat="40.92876589126017" lon="9.502798264312943"><ele>3.4</ele><time>2026-05-04T16:03:49Z</time></trkpt><trkpt lat="40.928874577629195" lon="9.502821400398961"><ele>3.6000000000000005</ele><time>2026-05-04T16:03:50Z</time></trkpt><trkpt lat="40.92897156548031" lon="9.502851011323466"><ele>3.8000000000000003</ele><time>2026-05-04T16:03:51Z</time></trkpt><trkpt lat="40.92906034718811" lon="9.50288891952434"><ele>4.0</ele><time>2026-05-04T16:03:52Z</time></trkpt><trkpt lat="40.92915496411077" lon="9.502954891320584"><ele>3.8000000000000003</ele><time>2026-05-04T16:03:53Z</time></trkpt><trkpt lat="40.92924250033657" lon="9.503041113415794"><ele>3.6000000000000005</ele><time>2026-05-04T16:03:54Z</time></trkpt><trkpt lat="40.9292957757099" lon="9.503142068512565"><ele>3.4</ele><time>2026-05-04T16:03:55Z</time></trkpt><trkpt lat="40.929342780939706" lon="9.503246086554894"><ele>3.2</ele><time>2026-05-04T16:03:56Z</time></trkpt><trkpt lat="40.9293646090522" lon="9.503351548568851"><ele>3.0</ele><time>2026-05-04T16:03:57Z</time></trkpt><trkpt lat="40.92937969767805" lon="9.50347130281176"><ele>3.0</ele><time>2026-05-04T16:03:58Z</time></trkpt><trkpt lat="40.92938177921965" lon="9.503627976382182"><ele>3.0</ele><time>2026-05-04T16:03:59Z</time></trkpt><trkpt lat="40.92937303941626" lon="9.50376368851053"><ele>3.0</ele><time>2026-05-04T16:04:00Z</time></trkpt><trkpt lat="40.92936436727901" lon="9.503879385382557"><ele>3.0</ele><time>2026-05-04T16:04:01Z</time></trkpt><trkpt lat="40.929353910274855" lon="9.503978717638503"><ele>3.0</ele><time>2026-05-04T16:04:02Z</time></trkpt><trkpt lat="40.92934241302118" lon="9.504122977530649"><ele>3.0</ele><time>2026-05-04T16:04:04Z</time></trkpt><trkpt lat="40.929329469990535" lon="9.504213142762948"><ele>3.0</ele><time>2026-05-04T16:04:06Z</time></trkpt><trkpt lat="40.929320820085685" lon="9.504308065923233"><ele>3.0</ele><time>2026-05-04T16:04:08Z</time></trkpt><trkpt lat="40.92931047534391" lon="9.504390652271745"><ele>3.0</ele><time>2026-05-04T16:04:09Z</time></trkpt><trkpt lat="40.92928600150149" lon="9.504541602597467"><ele>3.0</ele><time>2026-05-04T16:04:11Z</time></trkpt><trkpt lat="40.92926555395827" lon="9.504633566940463"><ele>3.0</ele><time>2026-05-04T16:04:12Z</time></trkpt><trkpt lat="40.929253802890514" lon="9.504790342055744"><ele>2.9999999999999996</ele><time>2026-05-04T16:04:14.001Z</time></trkpt><trkpt lat="40.929296898435" lon="9.50485745806357"><ele>3.0</ele><time>2026-05-04T16:04:15.001Z</time></trkpt><trkpt lat="40.92937231250115" lon="9.504883382249787"><ele>3.0</ele><time>2026-05-04T16:04:16.001Z</time></trkpt><trkpt lat="40.92945951661627" lon="9.50488963006037"><ele>3.0</ele><time>2026-05-04T16:04:18.001Z</time></trkpt><trkpt lat="40.929529551273795" lon="9.504846711837073"><ele>3.0</ele><time>2026-05-04T16:04:24.001Z</time></trkpt><trkpt lat="40.929573688944195" lon="9.504768597282169"><ele>2.9999999999999996</ele><time>2026-05-04T16:04:33.001Z</time></trkpt><trkpt lat="40.929630007667214" lon="9.504721673246621"><ele>3.0</ele><time>2026-05-04T16:04:37.001Z</time></trkpt><trkpt lat="40.92970750991054" lon="9.504707331128172"><ele>3.0</ele><time>2026-05-04T16:04:42.001Z</time></trkpt><trkpt lat="40.92977075802223" lon="9.504710623640637"><ele>3.0</ele><time>2026-05-04T16:04:47.001Z</time></trkpt><trkpt lat="40.92977483719556" lon="9.504842551782081"><ele>3.0</ele><time>2026-05-04T16:04:50Z</time></trkpt><trkpt lat="40.929807246056356" lon="9.504926955688557"><ele>3.0</ele><time>2026-05-04T16:04:53Z</time></trkpt><trkpt lat="40.92984096970932" lon="9.50481830106014"><ele>3.0</ele><time>2026-05-04T16:04:58Z</time></trkpt><trkpt lat="40.9297099789199" lon="9.5047794016803"><ele>3.0</ele><time>2026-05-04T16:04:59Z</time></trkpt><trkpt lat="40.92977996506156" lon="9.504769006503668"><ele>3.0</ele><time>2026-05-04T16:05:00Z</time></trkpt><trkpt lat="40.929710203892114" lon="9.504781619048202"><ele>3.0</ele><time>2026-05-04T16:05:04Z</time></trkpt><trkpt lat="40.929750766302455" lon="9.504935532167508"><ele>3.0</ele><time>2026-05-04T16:09:23.001Z</time></trkpt><trkpt lat="40.92980631036904" lon="9.504895889743379"><ele>3.0</ele><time>2026-05-04T16:09:44.001Z</time></trkpt><trkpt lat="40.929883081245784" lon="9.50488208534018"><ele>3.0</ele><time>2026-05-04T16:13:16Z</time></trkpt><trkpt lat="40.929813007003744" lon="9.504905473028051"><ele>3.0</ele><time>2026-05-04T16:13:21Z</time></trkpt><trkpt lat="40.929737562079524" lon="9.50494086597966"><ele>3.0</ele><time>2026-05-04T16:14:03Z</time></trkpt><trkpt lat="40.929668047202625" lon="9.504980292337832"><ele>3.0</ele><time>2026-05-04T16:14:10Z</time></trkpt><trkpt lat="40.92958653187425" lon="9.504646885440396"><ele>3.0</ele><time>2026-05-04T16:14:12Z</time></trkpt><trkpt lat="40.92957639233156" lon="9.504516025644843"><ele>3.0</ele><time>2026-05-04T16:14:16Z</time></trkpt><trkpt lat="40.92955915275155" lon="9.504414164518494"><ele>3.0</ele><time>2026-05-04T16:14:18Z</time></trkpt><trkpt lat="40.92946805302953" lon="9.504433720721934"><ele>3.0</ele><time>2026-05-04T16:14:22Z</time></trkpt><trkpt lat="40.92956396087085" lon="9.504296281912639"><ele>3.0</ele><time>2026-05-04T16:14:23Z</time></trkpt><trkpt lat="40.92958600025388" lon="9.5042180656457"><ele>3.0</ele><time>2026-05-04T16:14:25Z</time></trkpt><trkpt lat="40.92956521658537" lon="9.504066500118773"><ele>3.0</ele><time>2026-05-04T16:14:27Z</time></trkpt><trkpt lat="40.92956587589212" lon="9.503973460096814"><ele>3.0</ele><time>2026-05-04T16:14:28Z</time></trkpt><trkpt lat="40.92956617666333" lon="9.503882545956015"><ele>3.0</ele><time>2026-05-04T16:14:29Z</time></trkpt><trkpt lat="40.929561645457326" lon="9.503774979676527"><ele>3.0</ele><time>2026-05-04T16:14:30Z</time></trkpt><trkpt lat="40.9295567363214" lon="9.503633753674322"><ele>3.0</ele><time>2026-05-04T16:14:31Z</time></trkpt><trkpt lat="40.92955856772179" lon="9.503487031851744"><ele>3.0</ele><time>2026-05-04T16:14:32Z</time></trkpt><trkpt lat="40.92955889513471" lon="9.503378426198635"><ele>3.0</ele><time>2026-05-04T16:14:33Z</time></trkpt><trkpt lat="40.92956506384804" lon="9.503294855255211"><ele>3.0</ele><time>2026-05-04T16:14:34Z</time></trkpt><trkpt lat="40.929568142535025" lon="9.503203616264415"><ele>3.0</ele><time>2026-05-04T16:14:35Z</time></trkpt><trkpt lat="40.92957082163621" lon="9.503052368669703"><ele>3.0</ele><time>2026-05-04T16:14:37Z</time></trkpt><trkpt lat="40.92956761400571" lon="9.50296609124082"><ele>3.0</ele><time>2026-05-04T16:14:39Z</time></trkpt><trkpt lat="40.92956645513678" lon="9.502814087123514"><ele>3.0</ele><time>2026-05-04T16:14:41Z</time></trkpt><trkpt lat="40.929569578525864" lon="9.502717075442021"><ele>2.9999999999999996</ele><time>2026-05-04T16:14:43Z</time></trkpt><trkpt lat="40.929571130572114" lon="9.502631906701733"><ele>3.0</ele><time>2026-05-04T16:14:45Z</time></trkpt><trkpt lat="40.92955759681318" lon="9.502526003614545"><ele>3.0</ele><time>2026-05-04T16:14:48Z</time></trkpt><trkpt lat="40.92955929064582" lon="9.50243162152308"><ele>3.0</ele><time>2026-05-04T16:14:51Z</time></trkpt><trkpt lat="40.92955801869009" lon="9.502344712049897"><ele>3.0</ele><time>2026-05-04T16:14:54Z</time></trkpt><trkpt lat="40.92955576834552" lon="9.502244377047118"><ele>2.9999999999999996</ele><time>2026-05-04T16:14:58Z</time></trkpt><trkpt lat="40.92956655629895" lon="9.50215395126035"><ele>3.0</ele><time>2026-05-04T16:15:06Z</time></trkpt><trkpt lat="40.929566132589564" lon="9.502064522793065"><ele>3.0</ele><time>2026-05-04T16:15:09Z</time></trkpt><trkpt lat="40.92956528357731" lon="9.501888804819481"><ele>3.0</ele><time>2026-05-04T16:15:11Z</time></trkpt><trkpt lat="40.929549667452335" lon="9.501772227948772"><ele>3.0</ele><time>2026-05-04T16:15:12Z</time></trkpt><trkpt lat="40.92955675831415" lon="9.501648611410374"><ele>3.0</ele><time>2026-05-04T16:15:13Z</time></trkpt><trkpt lat="40.929564813569264" lon="9.50153608592563"><ele>3.0</ele><time>2026-05-04T16:15:14Z</time></trkpt><trkpt lat="40.92958348479745" lon="9.501431030226122"><ele>3.0</ele><time>2026-05-04T16:15:15Z</time></trkpt><trkpt lat="40.929603126088466" lon="9.50127937248298"><ele>3.0</ele><time>2026-05-04T16:15:17Z</time></trkpt><trkpt lat="40.929549493826386" lon="9.501193077723807"><ele>3.0</ele><time>2026-05-04T16:15:18.999Z</time></trkpt><trkpt lat="40.92943010268024" lon="9.501229404559"><ele>3.0</ele><time>2026-05-04T16:15:20.999Z</time></trkpt><trkpt lat="40.92931785985124" lon="9.501261160642974"><ele>3.0</ele><time>2026-05-04T16:15:21.999Z</time></trkpt><trkpt lat="40.92919829103689" lon="9.501270271207103"><ele>3.5</ele><time>2026-05-04T16:15:22.999Z</time></trkpt><trkpt lat="40.92907767055002" lon="9.501290002540516"><ele>4.0</ele><time>2026-05-04T16:15:23.999Z</time></trkpt><trkpt lat="40.92894925000767" lon="9.50134139615984"><ele>4.5</ele><time>2026-05-04T16:15:24.999Z</time></trkpt><trkpt lat="40.928829444133164" lon="9.501410923889036"><ele>5.0</ele><time>2026-05-04T16:15:25.999Z</time></trkpt><trkpt lat="40.92872771699069" lon="9.501475660330668"><ele>5.0</ele><time>2026-05-04T16:15:26.999Z</time></trkpt><trkpt lat="40.928645700138226" lon="9.50151707973544"><ele>5.0</ele><time>2026-05-04T16:15:27.999Z</time></trkpt><trkpt lat="40.928584197235786" lon="9.501559723432678"><ele>5.0</ele><time>2026-05-04T16:15:28.999Z</time></trkpt><trkpt lat="40.92850346749448" lon="9.501622897705955"><ele>5.0</ele><time>2026-05-04T16:15:30.999Z</time></trkpt><trkpt lat="40.928405165793485" lon="9.501669231928457"><ele>5.0</ele><time>2026-05-04T16:15:32.999Z</time></trkpt><trkpt lat="40.92832304671357" lon="9.501716031220768"><ele>5.0</ele><time>2026-05-04T16:15:33.999Z</time></trkpt><trkpt lat="40.92821527226097" lon="9.50177200037671"><ele>5.0</ele><time>2026-05-04T16:15:34.999Z</time></trkpt><trkpt lat="40.92809454569558" lon="9.501782201599488"><ele>5.0</ele><time>2026-05-04T16:15:35.999Z</time></trkpt><trkpt lat="40.92797883733361" lon="9.501794331621518"><ele>5.0</ele><time>2026-05-04T16:15:36.999Z</time></trkpt><trkpt lat="40.92785551406507" lon="9.501803481787746"><ele>5.0</ele><time>2026-05-04T16:15:37.999Z</time></trkpt><trkpt lat="40.92773272154509" lon="9.501779576549378"><ele>5.0</ele><time>2026-05-04T16:15:38.999Z</time></trkpt><trkpt lat="40.92761474666682" lon="9.501750000267906"><ele>5.0</ele><time>2026-05-04T16:15:39.999Z</time></trkpt><trkpt lat="40.92750845202897" lon="9.501713459555022"><ele>5.0</ele><time>2026-05-04T16:15:40.999Z</time></trkpt><trkpt lat="40.9274102853982" lon="9.501691064204387"><ele>5.0</ele><time>2026-05-04T16:15:41.999Z</time></trkpt><trkpt lat="40.927319557454524" lon="9.501664877205394"><ele>5.0</ele><time>2026-05-04T16:15:42.999Z</time></trkpt><trkpt lat="40.927226901963955" lon="9.50163425248983"><ele>4.6</ele><time>2026-05-04T16:15:43.999Z</time></trkpt><trkpt lat="40.92713722575739" lon="9.501596215552986"><ele>4.2</ele><time>2026-05-04T16:15:44.999Z</time></trkpt><trkpt lat="40.927049207664744" lon="9.501555528259063"><ele>3.8</ele><time>2026-05-04T16:15:45.999Z</time></trkpt><trkpt lat="40.926968993177226" lon="9.501502897765697"><ele>3.4</ele><time>2026-05-04T16:15:46.999Z</time></trkpt><trkpt lat="40.926899578398746" lon="9.501431942831731"><ele>3.0</ele><time>2026-05-04T16:15:47.999Z</time></trkpt><trkpt lat="40.9268449716468" lon="9.501342903572167"><ele>3.0</ele><time>2026-05-04T16:15:49Z</time></trkpt><trkpt lat="40.92678258996604" lon="9.501250069906945"><ele>3.0</ele><time>2026-05-04T16:15:50Z</time></trkpt><trkpt lat="40.92673177251094" lon="9.501160182217731"><ele>3.0</ele><time>2026-05-04T16:15:51Z</time></trkpt><trkpt lat="40.92668518253745" lon="9.501079499795171"><ele>3.0</ele><time>2026-05-04T16:15:52Z</time></trkpt><trkpt lat="40.92664291244614" lon="9.501008655427558"><ele>3.0</ele><time>2026-05-04T16:15:53Z</time></trkpt><trkpt lat="40.92656694294486" lon="9.500880109453218"><ele>3.0</ele><time>2026-05-04T16:15:55Z</time></trkpt><trkpt lat="40.92648868999664" lon="9.500749156357434"><ele>3.5</ele><time>2026-05-04T16:15:57Z</time></trkpt><trkpt lat="40.926444239629554" lon="9.500673650857959"><ele>4.0</ele><time>2026-05-04T16:15:58Z</time></trkpt><trkpt lat="40.92640546203238" lon="9.500606624655145"><ele>4.5</ele><time>2026-05-04T16:15:59Z</time></trkpt><trkpt lat="40.92636557075477" lon="9.500529951481322"><ele>5.0</ele><time>2026-05-04T16:16:00Z</time></trkpt><trkpt lat="40.926309200450525" lon="9.500430331790925"><ele>5.5</ele><time>2026-05-04T16:16:01Z</time></trkpt><trkpt lat="40.926223622862516" lon="9.500303201753276"><ele>6.0</ele><time>2026-05-04T16:16:02Z</time></trkpt><trkpt lat="40.92614501760262" lon="9.50016275930859"><ele>6.0</ele><time>2026-05-04T16:16:03Z</time></trkpt><trkpt lat="40.92606035112253" lon="9.50001067257594"><ele>6.0</ele><time>2026-05-04T16:16:04Z</time></trkpt><trkpt lat="40.92596702969578" lon="9.49985945592941"><ele>6.0</ele><time>2026-05-04T16:16:05Z</time></trkpt><trkpt lat="40.92587336046262" lon="9.499709224483935"><ele>6.0</ele><time>2026-05-04T16:16:06Z</time></trkpt><trkpt lat="40.92578531325914" lon="9.499570013801481"><ele>6.5</ele><time>2026-05-04T16:16:07Z</time></trkpt><trkpt lat="40.92570377877179" lon="9.499431012162354"><ele>7.0</ele><time>2026-05-04T16:16:08Z</time></trkpt><trkpt lat="40.925635729864204" lon="9.499298846355822"><ele>7.5</ele><time>2026-05-04T16:16:09Z</time></trkpt><trkpt lat="40.92556352830571" lon="9.499181747096223"><ele>8.0</ele><time>2026-05-04T16:16:10Z</time></trkpt><trkpt lat="40.92549451336657" lon="9.499070640891675"><ele>8.0</ele><time>2026-05-04T16:16:11Z</time></trkpt><trkpt lat="40.92543738046346" lon="9.498969001536883"><ele>8.0</ele><time>2026-05-04T16:16:12Z</time></trkpt><trkpt lat="40.925381839195936" lon="9.498877120346215"><ele>8.0</ele><time>2026-05-04T16:16:13Z</time></trkpt><trkpt lat="40.92533366780662" lon="9.498799395655622"><ele>8.0</ele><time>2026-05-04T16:16:14Z</time></trkpt><trkpt lat="40.92525199801448" lon="9.498674381360953"><ele>8.0</ele><time>2026-05-04T16:16:16Z</time></trkpt><trkpt lat="40.92520024898718" lon="9.498600849800898"><ele>7.800000000000001</ele><time>2026-05-04T16:16:17Z</time></trkpt><trkpt lat="40.92515140849855" lon="9.498485564783946"><ele>7.6000000000000005</ele><time>2026-05-04T16:16:18Z</time></trkpt><trkpt lat="40.92507238066712" lon="9.498387696312152"><ele>7.3999999999999995</ele><time>2026-05-04T16:16:19Z</time></trkpt><trkpt lat="40.92500989864107" lon="9.498259962904617"><ele>7.199999999999999</ele><time>2026-05-04T16:16:20Z</time></trkpt><trkpt lat="40.92494847181192" lon="9.49815975881307"><ele>7.0</ele><time>2026-05-04T16:16:21Z</time></trkpt><trkpt lat="40.92489823027644" lon="9.498071763021546"><ele>6.8</ele><time>2026-05-04T16:16:22Z</time></trkpt><trkpt lat="40.924848518842204" lon="9.497994914439328"><ele>6.6</ele><time>2026-05-04T16:16:23Z</time></trkpt><trkpt lat="40.92478218879632" lon="9.497869970344428"><ele>6.3999999999999995</ele><time>2026-05-04T16:16:25Z</time></trkpt><trkpt lat="40.924739946702225" lon="9.497795110767747"><ele>6.199999999999999</ele><time>2026-05-04T16:16:27Z</time></trkpt><trkpt lat="40.92470871944818" lon="9.497691720038985"><ele>6.0</ele><time>2026-05-04T16:16:29Z</time></trkpt><trkpt lat="40.924702230023506" lon="9.497554999723706"><ele>6.0</ele><time>2026-05-04T16:16:32Z</time></trkpt><trkpt lat="40.92470193263613" lon="9.497463083374756"><ele>6.0</ele><time>2026-05-04T16:16:33Z</time></trkpt><trkpt lat="40.92469383530101" lon="9.49735824089412"><ele>6.0</ele><time>2026-05-04T16:16:34Z</time></trkpt><trkpt lat="40.92469663452458" lon="9.49725459769489"><ele>6.0</ele><time>2026-05-04T16:16:35Z</time></trkpt><trkpt lat="40.92468993925004" lon="9.497148245573808"><ele>6.0</ele><time>2026-05-04T16:16:36Z</time></trkpt><trkpt lat="40.9246890206953" lon="9.4970213627568"><ele>6.0</ele><time>2026-05-04T16:16:37Z</time></trkpt><trkpt lat="40.9246851510676" lon="9.496871619020503"><ele>6.6</ele><time>2026-05-04T16:16:38Z</time></trkpt><trkpt lat="40.924686556908135" lon="9.496737645711068"><ele>7.199999999999999</ele><time>2026-05-04T16:16:39Z</time></trkpt><trkpt lat="40.92468715321919" lon="9.496631929775571"><ele>7.800000000000001</ele><time>2026-05-04T16:16:40Z</time></trkpt><trkpt lat="40.92468962896841" lon="9.496513898031436"><ele>8.4</ele><time>2026-05-04T16:16:42Z</time></trkpt><trkpt lat="40.92470698504203" lon="9.496433229360665"><ele>9.0</ele><time>2026-05-04T16:16:44Z</time></trkpt><trkpt lat="40.92454295051026" lon="9.496382832130537"><ele>9.0</ele><time>2026-05-04T16:16:48Z</time></trkpt><trkpt lat="40.92445920413972" lon="9.49639684797705"><ele>9.0</ele><time>2026-05-04T16:16:49Z</time></trkpt><trkpt lat="40.924334367779046" lon="9.496385563675698"><ele>9.0</ele><time>2026-05-04T16:16:51Z</time></trkpt><trkpt lat="40.92424340523089" lon="9.49639836237036"><ele>9.0</ele><time>2026-05-04T16:16:52Z</time></trkpt><trkpt lat="40.924153178042616" lon="9.496393807064127"><ele>9.0</ele><time>2026-05-04T16:16:53Z</time></trkpt><trkpt lat="40.92408530606502" lon="9.496391861072274"><ele>8.833333333333334</ele><time>2026-05-04T16:16:54Z</time></trkpt><trkpt lat="40.923980043404555" lon="9.496398011839537"><ele>8.666666666666666</ele><time>2026-05-04T16:16:56Z</time></trkpt><trkpt lat="40.92390646964365" lon="9.496393020148053"><ele>8.5</ele><time>2026-05-04T16:16:57Z</time></trkpt><trkpt lat="40.92382214931593" lon="9.496404265192682"><ele>8.333333333333332</ele><time>2026-05-04T16:16:58Z</time></trkpt><trkpt lat="40.92375678127302" lon="9.496394396363055"><ele>8.166666666666666</ele><time>2026-05-04T16:16:59Z</time></trkpt><trkpt lat="40.92368823273657" lon="9.496383279024808"><ele>8.0</ele><time>2026-05-04T16:17:02Z</time></trkpt><trkpt lat="40.92355825980795" lon="9.49640679853154"><ele>8.0</ele><time>2026-05-04T16:17:15Z</time></trkpt><trkpt lat="40.9234808925857" lon="9.496440661365767"><ele>8.0</ele><time>2026-05-04T16:17:16Z</time></trkpt><trkpt lat="40.92337714648381" lon="9.496446987549788"><ele>8.0</ele><time>2026-05-04T16:17:17Z</time></trkpt><trkpt lat="40.92327020267193" lon="9.496470905097672"><ele>8.0</ele><time>2026-05-04T16:17:18Z</time></trkpt><trkpt lat="40.923166940089075" lon="9.496504391063372"><ele>8.0</ele><time>2026-05-04T16:17:19Z</time></trkpt><trkpt lat="40.923054413484536" lon="9.496522753749838"><ele>8.0</ele><time>2026-05-04T16:17:20Z</time></trkpt><trkpt lat="40.92292837800437" lon="9.496544728242615"><ele>8.0</ele><time>2026-05-04T16:17:21Z</time></trkpt><trkpt lat="40.92278687890979" lon="9.496585091420718"><ele>8.0</ele><time>2026-05-04T16:17:22Z</time></trkpt><trkpt lat="40.92264666777042" lon="9.496612526258932"><ele>8.0</ele><time>2026-05-04T16:17:23Z</time></trkpt><trkpt lat="40.92251977820875" lon="9.496627510918376"><ele>8.0</ele><time>2026-05-04T16:17:24Z</time></trkpt><trkpt lat="40.92240268099859" lon="9.496642124881149"><ele>8.0</ele><time>2026-05-04T16:17:24.999Z</time></trkpt><trkpt lat="40.92229613253917" lon="9.496654482980539"><ele>8.0</ele><time>2026-05-04T16:17:25.999Z</time></trkpt><trkpt lat="40.92219306088353" lon="9.49667805839469"><ele>8.0</ele><time>2026-05-04T16:17:26.999Z</time></trkpt><trkpt lat="40.92209383628657" lon="9.496708651964294"><ele>8.0</ele><time>2026-05-04T16:17:27.999Z</time></trkpt><trkpt lat="40.92199558459667" lon="9.49673701565773"><ele>8.0</ele><time>2026-05-04T16:17:28.999Z</time></trkpt><trkpt lat="40.921894554352804" lon="9.496759222603272"><ele>8.0</ele><time>2026-05-04T16:17:29.999Z</time></trkpt><trkpt lat="40.92178249505412" lon="9.496791690565843"><ele>8.0</ele><time>2026-05-04T16:17:30.999Z</time></trkpt><trkpt lat="40.92168066093987" lon="9.496793583077311"><ele>8.0</ele><time>2026-05-04T16:17:31.999Z</time></trkpt><trkpt lat="40.92160093028837" lon="9.496817772979561"><ele>8.0</ele><time>2026-05-04T16:17:32.999Z</time></trkpt><trkpt lat="40.92153926403444" lon="9.496834734203011"><ele>8.166666666666666</ele><time>2026-05-04T16:17:33.999Z</time></trkpt><trkpt lat="40.921418739604206" lon="9.49685708966682"><ele>8.333333333333332</ele><time>2026-05-04T16:17:35.999Z</time></trkpt><trkpt lat="40.92133369562098" lon="9.496863154539628"><ele>8.5</ele><time>2026-05-04T16:17:36.999Z</time></trkpt><trkpt lat="40.921256490718775" lon="9.49687913846132"><ele>8.666666666666666</ele><time>2026-05-04T16:17:37.999Z</time></trkpt><trkpt lat="40.921186704257174" lon="9.496893586542418"><ele>8.833333333333334</ele><time>2026-05-04T16:17:38.999Z</time></trkpt><trkpt lat="40.92112399197803" lon="9.496906937396636"><ele>9.0</ele><time>2026-05-04T16:17:39.999Z</time></trkpt><trkpt lat="40.92101348005374" lon="9.496943599546384"><ele>9.0</ele><time>2026-05-04T16:17:41.999Z</time></trkpt><trkpt lat="40.92094484419069" lon="9.49696600976169"><ele>9.0</ele><time>2026-05-04T16:17:42.999Z</time></trkpt><trkpt lat="40.92083178533395" lon="9.496989450007373"><ele>9.0</ele><time>2026-05-04T16:17:43.999Z</time></trkpt><trkpt lat="40.92070659003624" lon="9.497011025699447"><ele>9.0</ele><time>2026-05-04T16:17:44.999Z</time></trkpt><trkpt lat="40.92059932719033" lon="9.497034730319053"><ele>9.0</ele><time>2026-05-04T16:17:45.999Z</time></trkpt><trkpt lat="40.92050073436034" lon="9.497057215217145"><ele>8.6</ele><time>2026-05-04T16:17:46.999Z</time></trkpt><trkpt lat="40.92040466590719" lon="9.49707209389186"><ele>8.2</ele><time>2026-05-04T16:17:47.999Z</time></trkpt><trkpt lat="40.920298255893734" lon="9.497083603180156"><ele>7.799999999999999</ele><time>2026-05-04T16:17:48.999Z</time></trkpt><trkpt lat="40.92018948530815" lon="9.497118468593197"><ele>7.3999999999999995</ele><time>2026-05-04T16:17:50Z</time></trkpt><trkpt lat="40.92009361560943" lon="9.497140549896303"><ele>7.0</ele><time>2026-05-04T16:17:51Z</time></trkpt><trkpt lat="40.92001665638822" lon="9.497165085403486"><ele>7.0</ele><time>2026-05-04T16:17:52Z</time></trkpt><trkpt lat="40.919952344384804" lon="9.497158331152685"><ele>6.999999999999999</ele><time>2026-05-04T16:17:58Z</time></trkpt><trkpt lat="40.920034094675806" lon="9.497319405276249"><ele>6.999999999999999</ele><time>2026-05-04T16:18:00Z</time></trkpt><trkpt lat="40.92014902447586" lon="9.497346053674644"><ele>7.0</ele><time>2026-05-04T16:18:01Z</time></trkpt><trkpt lat="40.92025858737312" lon="9.497348552344143"><ele>7.0</ele><time>2026-05-04T16:18:02Z</time></trkpt><trkpt lat="40.92033220610909" lon="9.497405971733025"><ele>7.000000000000001</ele><time>2026-05-04T16:18:03Z</time></trkpt><trkpt lat="40.92039236882271" lon="9.4974681071708"><ele>7.0</ele><time>2026-05-04T16:18:04Z</time></trkpt><trkpt lat="40.9204560204989" lon="9.497526575424756"><ele>7.0</ele><time>2026-05-04T16:18:05Z</time></trkpt><trkpt lat="40.920514508634234" lon="9.497593388190827"><ele>7.0</ele><time>2026-05-04T16:18:06Z</time></trkpt><trkpt lat="40.92055153919209" lon="9.497666427290854"><ele>7.000000000000001</ele><time>2026-05-04T16:18:07Z</time></trkpt><trkpt lat="40.92060704938549" lon="9.497792774405799"><ele>7.0</ele><time>2026-05-04T16:18:09Z</time></trkpt><trkpt lat="40.92065990824837" lon="9.49792659422441"><ele>7.0</ele><time>2026-05-04T16:18:11Z</time></trkpt><trkpt lat="40.92067103200161" lon="9.498009941364122"><ele>7.0</ele><time>2026-05-04T16:18:12Z</time></trkpt><trkpt lat="40.92067301440792" lon="9.49810437636576"><ele>7.0</ele><time>2026-05-04T16:18:13Z</time></trkpt><trkpt lat="40.92067621757871" lon="9.498200059949623"><ele>7.0</ele><time>2026-05-04T16:18:14Z</time></trkpt><trkpt lat="40.92067464226374" lon="9.498300156374215"><ele>7.0</ele><time>2026-05-04T16:18:15Z</time></trkpt><trkpt lat="40.92066908117528" lon="9.49840020638582"><ele>7.0</ele><time>2026-05-04T16:18:16Z</time></trkpt><trkpt lat="40.92067028279103" lon="9.498496514513354"><ele>7.0</ele><time>2026-05-04T16:18:17Z</time></trkpt><trkpt lat="40.9206641034143" lon="9.498590223505913"><ele>7.0</ele><time>2026-05-04T16:18:18Z</time></trkpt><trkpt lat="40.92065220036631" lon="9.498749026320473"><ele>6.999999999999999</ele><time>2026-05-04T16:18:20Z</time></trkpt><trkpt lat="40.920646986088926" lon="9.498925518517115"><ele>6.999999999999999</ele><time>2026-05-04T16:18:22Z</time></trkpt><trkpt lat="40.920644202834424" lon="9.499010020808779"><ele>7.0</ele><time>2026-05-04T16:18:23Z</time></trkpt><trkpt lat="40.92064626381643" lon="9.499112977704785"><ele>7.0</ele><time>2026-05-04T16:18:24Z</time></trkpt><trkpt lat="40.920650419618944" lon="9.49919814481715"><ele>6.8</ele><time>2026-05-04T16:18:25Z</time></trkpt><trkpt lat="40.920693461565314" lon="9.499346316308669"><ele>6.6</ele><time>2026-05-04T16:18:27Z</time></trkpt><trkpt lat="40.92074146834793" lon="9.499466845783475"><ele>6.3999999999999995</ele><time>2026-05-04T16:18:29Z</time></trkpt><trkpt lat="40.92078032536474" lon="9.499537780809847"><ele>6.199999999999999</ele><time>2026-05-04T16:18:31Z</time></trkpt><trkpt lat="40.920804351263214" lon="9.49962096351758"><ele>6.0</ele><time>2026-05-04T16:18:35Z</time></trkpt><trkpt lat="40.92070749986899" lon="9.499671512537166"><ele>6.0</ele><time>2026-05-04T16:18:37Z</time></trkpt><trkpt lat="40.92064038452922" lon="9.499663321017357"><ele>6.0</ele><time>2026-05-04T16:18:38Z</time></trkpt><trkpt lat="40.92056506714048" lon="9.499654659187044"><ele>6.0</ele><time>2026-05-04T16:18:39Z</time></trkpt><trkpt lat="40.92047626666396" lon="9.499615162224792"><ele>6.0</ele><time>2026-05-04T16:18:40Z</time></trkpt><trkpt lat="40.92040312819719" lon="9.49964880038723"><ele>6.0</ele><time>2026-05-04T16:18:41Z</time></trkpt><trkpt lat="40.92030476114344" lon="9.499720911781013"><ele>6.0</ele><time>2026-05-04T16:18:43Z</time></trkpt><trkpt lat="40.92024757795093" lon="9.499780170630862"><ele>6.0</ele><time>2026-05-04T16:18:44Z</time></trkpt><trkpt lat="40.92012830590314" lon="9.499702014882942"><ele>6.0</ele><time>2026-05-04T16:18:45Z</time></trkpt><trkpt lat="40.9200290317931" lon="9.4996672381048"><ele>6.0</ele><time>2026-05-04T16:18:46Z</time></trkpt><trkpt lat="40.91993170368275" lon="9.499631040874727"><ele>6.0</ele><time>2026-05-04T16:18:47Z</time></trkpt><trkpt lat="40.91984341456734" lon="9.499597529163951"><ele>6.0</ele><time>2026-05-04T16:18:48Z</time></trkpt><trkpt lat="40.91975857790182" lon="9.49956336828688"><ele>6.166666666666667</ele><time>2026-05-04T16:18:49Z</time></trkpt><trkpt lat="40.9196788700773" lon="9.499516575016244"><ele>6.333333333333334</ele><time>2026-05-04T16:18:50Z</time></trkpt><trkpt lat="40.919626238735646" lon="9.499426220815481"><ele>6.5</ele><time>2026-05-04T16:18:51Z</time></trkpt><trkpt lat="40.91957293150206" lon="9.4993459066446"><ele>6.666666666666667</ele><time>2026-05-04T16:18:52Z</time></trkpt><trkpt lat="40.91957253790885" lon="9.499225143830918"><ele>6.833333333333334</ele><time>2026-05-04T16:18:53Z</time></trkpt><trkpt lat="40.91956030634975" lon="9.499117051759875"><ele>7.0</ele><time>2026-05-04T16:18:54Z</time></trkpt><trkpt lat="40.919533450506385" lon="9.499010343208965"><ele>7.000000000000001</ele><time>2026-05-04T16:18:55Z</time></trkpt><trkpt lat="40.9195284442804" lon="9.498895492927677"><ele>7.0</ele><time>2026-05-04T16:18:56Z</time></trkpt><trkpt lat="40.91949604697246" lon="9.498773387278492"><ele>7.0</ele><time>2026-05-04T16:18:57Z</time></trkpt><trkpt lat="40.91947409616703" lon="9.498646131927988"><ele>7.0</ele><time>2026-05-04T16:18:58Z</time></trkpt><trkpt lat="40.919450993491374" lon="9.498540879868157"><ele>7.000000000000001</ele><time>2026-05-04T16:18:59Z</time></trkpt><trkpt lat="40.91942803748964" lon="9.49844055654052"><ele>7.0</ele><time>2026-05-04T16:19:00Z</time></trkpt><trkpt lat="40.91936887016716" lon="9.4983661396966"><ele>6.8</ele><time>2026-05-04T16:19:01Z</time></trkpt><trkpt lat="40.91931874141522" lon="9.498286291417775"><ele>6.6</ele><time>2026-05-04T16:19:02Z</time></trkpt><trkpt lat="40.91926873398713" lon="9.49821189506555"><ele>6.3999999999999995</ele><time>2026-05-04T16:19:03Z</time></trkpt><trkpt lat="40.919209940076854" lon="9.498076532249442"><ele>6.199999999999999</ele><time>2026-05-04T16:19:05Z</time></trkpt><trkpt lat="40.91913590918161" lon="9.497981335190163"><ele>6.0</ele><time>2026-05-04T16:19:07Z</time></trkpt><trkpt lat="40.91905673029202" lon="9.497851815534505"><ele>5.666666666666667</ele><time>2026-05-04T16:19:09Z</time></trkpt><trkpt lat="40.91900896307079" lon="9.497771445768059"><ele>5.333333333333333</ele><time>2026-05-04T16:19:10Z</time></trkpt><trkpt lat="40.918964064932965" lon="9.497688762210625"><ele>5.0</ele><time>2026-05-04T16:19:11Z</time></trkpt><trkpt lat="40.91891747039887" lon="9.497611661699557"><ele>4.666666666666666</ele><time>2026-05-04T16:19:12Z</time></trkpt><trkpt lat="40.91887040712185" lon="9.497534503660534"><ele>4.333333333333333</ele><time>2026-05-04T16:19:13Z</time></trkpt><trkpt lat="40.91882114011274" lon="9.497451970219872"><ele>4.0</ele><time>2026-05-04T16:19:14Z</time></trkpt><trkpt lat="40.918770945541944" lon="9.497366400943884"><ele>4.0</ele><time>2026-05-04T16:19:15Z</time></trkpt><trkpt lat="40.91871151438004" lon="9.497269947401596"><ele>4.0</ele><time>2026-05-04T16:19:16Z</time></trkpt><trkpt lat="40.91864623744905" lon="9.497149463368808"><ele>4.0</ele><time>2026-05-04T16:19:17Z</time></trkpt><trkpt lat="40.91856112167446" lon="9.497011895069736"><ele>4.0</ele><time>2026-05-04T16:19:18Z</time></trkpt><trkpt lat="40.9184640290177" lon="9.496847148597482"><ele>4.0</ele><time>2026-05-04T16:19:19Z</time></trkpt><trkpt lat="40.918381001087184" lon="9.496692355640786"><ele>4.0</ele><time>2026-05-04T16:19:20Z</time></trkpt><trkpt lat="40.91831182110823" lon="9.496557043751421"><ele>4.0</ele><time>2026-05-04T16:19:21Z</time></trkpt><trkpt lat="40.91826944953481" lon="9.496479556053815"><ele>4.0</ele><time>2026-05-04T16:19:22Z</time></trkpt><trkpt lat="40.91823348045993" lon="9.496410997238572"><ele>4.0</ele><time>2026-05-04T16:19:23Z</time></trkpt><trkpt lat="40.91819097114126" lon="9.496341336673062"><ele>3.9999999999999996</ele><time>2026-05-04T16:19:24Z</time></trkpt><trkpt lat="40.91816213417634" lon="9.496267240280973"><ele>4.0</ele><time>2026-05-04T16:19:25Z</time></trkpt><trkpt lat="40.91812748225395" lon="9.496184100679876"><ele>4.0</ele><time>2026-05-04T16:19:26Z</time></trkpt><trkpt lat="40.9180899913422" lon="9.496092255959418"><ele>4.0</ele><time>2026-05-04T16:19:27Z</time></trkpt><trkpt lat="40.918049153394755" lon="9.496001762713568"><ele>3.9999999999999996</ele><time>2026-05-04T16:19:28Z</time></trkpt><trkpt lat="40.91800721494727" lon="9.495913126671242"><ele>4.0</ele><time>2026-05-04T16:19:29Z</time></trkpt><trkpt lat="40.91796446869062" lon="9.495818815853312"><ele>4.166666666666666</ele><time>2026-05-04T16:19:30Z</time></trkpt><trkpt lat="40.917924806126656" lon="9.495724983258313"><ele>4.333333333333333</ele><time>2026-05-04T16:19:30.999Z</time></trkpt><trkpt lat="40.91788767794227" lon="9.495625982491784"><ele>4.5</ele><time>2026-05-04T16:19:31.999Z</time></trkpt><trkpt lat="40.917846849465384" lon="9.495531095651026"><ele>4.666666666666667</ele><time>2026-05-04T16:19:32.999Z</time></trkpt><trkpt lat="40.917804017149855" lon="9.495442756469707"><ele>4.833333333333334</ele><time>2026-05-04T16:19:33.999Z</time></trkpt><trkpt lat="40.91776702520509" lon="9.495365605384723"><ele>5.0</ele><time>2026-05-04T16:19:34.999Z</time></trkpt><trkpt lat="40.91771416868964" lon="9.495224604935942"><ele>5.2</ele><time>2026-05-04T16:19:36.999Z</time></trkpt><trkpt lat="40.91767514663814" lon="9.495138756299559"><ele>5.4</ele><time>2026-05-04T16:19:38.999Z</time></trkpt><trkpt lat="40.91761497020204" lon="9.4950369877759"><ele>5.6</ele><time>2026-05-04T16:19:43Z</time></trkpt><trkpt lat="40.917581456555084" lon="9.494945301422295"><ele>5.8</ele><time>2026-05-04T16:19:44Z</time></trkpt><trkpt lat="40.91752290201414" lon="9.494830464666988"><ele>6.0</ele><time>2026-05-04T16:19:45Z</time></trkpt><trkpt lat="40.91744680474387" lon="9.49471756233184"><ele>5.166666666666667</ele><time>2026-05-04T16:19:46Z</time></trkpt><trkpt lat="40.91737735720625" lon="9.494605608087848"><ele>4.333333333333333</ele><time>2026-05-04T16:19:47Z</time></trkpt><trkpt lat="40.91733166647239" lon="9.494494992962172"><ele>3.5</ele><time>2026-05-04T16:19:48Z</time></trkpt><trkpt lat="40.917309431100584" lon="9.494388217459958"><ele>2.6666666666666665</ele><time>2026-05-04T16:19:49Z</time></trkpt><trkpt lat="40.91730085452622" lon="9.494304180542029"><ele>1.8333333333333333</ele><time>2026-05-04T16:19:50Z</time></trkpt><trkpt lat="40.91731918533745" lon="9.4941963939202"><ele>1.0</ele><time>2026-05-04T16:19:52Z</time></trkpt><trkpt lat="40.917347537272846" lon="9.494075461331619"><ele>1.0</ele><time>2026-05-04T16:19:54Z</time></trkpt><trkpt lat="40.91739814642883" lon="9.49401121564624"><ele>0.9999999999999999</ele><time>2026-05-04T16:19:55Z</time></trkpt><trkpt lat="40.91741388337384" lon="9.493925899260033"><ele>1.0</ele><time>2026-05-04T16:19:56Z</time></trkpt><trkpt lat="40.91741427208553" lon="9.493832830204187"><ele>1.0</ele><time>2026-05-04T16:19:57Z</time></trkpt><trkpt lat="40.91739281506178" lon="9.493744741298897"><ele>0.9999999999999999</ele><time>2026-05-04T16:19:58Z</time></trkpt><trkpt lat="40.91735446876298" lon="9.49366581309563"><ele>1.0</ele><time>2026-05-04T16:19:59Z</time></trkpt><trkpt lat="40.91729768912496" lon="9.493593646572926"><ele>1.0</ele><time>2026-05-04T16:20:00Z</time></trkpt><trkpt lat="40.917222936187926" lon="9.493542683313555"><ele>1.1666666666666665</ele><time>2026-05-04T16:20:01Z</time></trkpt><trkpt lat="40.91714930791117" lon="9.493520752095254"><ele>1.3333333333333333</ele><time>2026-05-04T16:20:02Z</time></trkpt><trkpt lat="40.91707802675005" lon="9.493518562535366"><ele>1.5</ele><time>2026-05-04T16:20:03Z</time></trkpt><trkpt lat="40.9170111000232" lon="9.493534432378647"><ele>1.6666666666666665</ele><time>2026-05-04T16:20:04Z</time></trkpt><trkpt lat="40.91694129027992" lon="9.493580971164144"><ele>1.8333333333333333</ele><time>2026-05-04T16:20:05Z</time></trkpt><trkpt lat="40.91687899668718" lon="9.493656736657066"><ele>2.0</ele><time>2026-05-04T16:20:06Z</time></trkpt><trkpt lat="40.91684206430708" lon="9.493754836520347"><ele>1.8333333333333333</ele><time>2026-05-04T16:20:07Z</time></trkpt><trkpt lat="40.91682846520325" lon="9.4938571638872"><ele>1.6666666666666665</ele><time>2026-05-04T16:20:08Z</time></trkpt><trkpt lat="40.916839518649525" lon="9.493964778416048"><ele>1.5</ele><time>2026-05-04T16:20:09Z</time></trkpt><trkpt lat="40.91686741595357" lon="9.494069213314432"><ele>1.3333333333333333</ele><time>2026-05-04T16:20:10Z</time></trkpt><trkpt lat="40.91692248145904" lon="9.49415531863355"><ele>1.1666666666666665</ele><time>2026-05-04T16:20:11Z</time></trkpt><trkpt lat="40.916994429325825" lon="9.49422186672695"><ele>1.0</ele><time>2026-05-04T16:20:12Z</time></trkpt><trkpt lat="40.91707698672267" lon="9.494294595773669"><ele>1.0</ele><time>2026-05-04T16:20:13Z</time></trkpt><trkpt lat="40.91715108465572" lon="9.494373916810474"><ele>1.0</ele><time>2026-05-04T16:20:14Z</time></trkpt><trkpt lat="40.917217632413276" lon="9.494460541391327"><ele>1.0</ele><time>2026-05-04T16:20:15Z</time></trkpt><trkpt lat="40.91728509840199" lon="9.494549153080175"><ele>1.0</ele><time>2026-05-04T16:20:16Z</time></trkpt><trkpt lat="40.91735536779792" lon="9.494647612915928"><ele>1.0</ele><time>2026-05-04T16:20:17Z</time></trkpt><trkpt lat="40.91741980638796" lon="9.494744181383755"><ele>1.0</ele><time>2026-05-04T16:20:18Z</time></trkpt><trkpt lat="40.91746892227124" lon="9.494831478858204"><ele>0.9999999999999999</ele><time>2026-05-04T16:20:19Z</time></trkpt><trkpt lat="40.91752437100133" lon="9.494915243829364"><ele>1.0</ele><time>2026-05-04T16:20:20Z</time></trkpt><trkpt lat="40.91757281373285" lon="9.494994311736553"><ele>1.0</ele><time>2026-05-04T16:20:21Z</time></trkpt><trkpt lat="40.91761008363643" lon="9.495071674865995"><ele>0.9999999999999999</ele><time>2026-05-04T16:20:22Z</time></trkpt><trkpt lat="40.91764121024924" lon="9.495146585197944"><ele>1.0</ele><time>2026-05-04T16:20:23Z</time></trkpt><trkpt lat="40.91767740264461" lon="9.495221681873344"><ele>1.0</ele><time>2026-05-04T16:20:24Z</time></trkpt><trkpt lat="40.91771741879007" lon="9.495311699884287"><ele>1.8</ele><time>2026-05-04T16:20:25Z</time></trkpt><trkpt lat="40.91776608691632" lon="9.495416079814294"><ele>2.6</ele><time>2026-05-04T16:20:26Z</time></trkpt><trkpt lat="40.91781977347012" lon="9.495533006339949"><ele>3.4</ele><time>2026-05-04T16:20:27Z</time></trkpt><trkpt lat="40.9178734588101" lon="9.495651830278755"><ele>4.2</ele><time>2026-05-04T16:20:28Z</time></trkpt><trkpt lat="40.917929099194275" lon="9.495768732119261"><ele>5.0</ele><time>2026-05-04T16:20:29Z</time></trkpt><trkpt lat="40.91798465295597" lon="9.495895511013561"><ele>5.0</ele><time>2026-05-04T16:20:30Z</time></trkpt><trkpt lat="40.91803915010837" lon="9.496023398312436"><ele>5.0</ele><time>2026-05-04T16:20:31Z</time></trkpt><trkpt lat="40.91809449051809" lon="9.496148384229409"><ele>5.0</ele><time>2026-05-04T16:20:32Z</time></trkpt><trkpt lat="40.91814394999017" lon="9.496269548777741"><ele>5.0</ele><time>2026-05-04T16:20:33Z</time></trkpt><trkpt lat="40.918197691741625" lon="9.49638497374191"><ele>5.0</ele><time>2026-05-04T16:20:34Z</time></trkpt><trkpt lat="40.918251211449224" lon="9.496501910893743"><ele>5.0</ele><time>2026-05-04T16:20:35Z</time></trkpt><trkpt lat="40.918319071938164" lon="9.496611095528895"><ele>5.0</ele><time>2026-05-04T16:20:36Z</time></trkpt><trkpt lat="40.91838293686234" lon="9.496716084587362"><ele>5.0</ele><time>2026-05-04T16:20:37Z</time></trkpt><trkpt lat="40.9184365099432" lon="9.496823432433949"><ele>5.0</ele><time>2026-05-04T16:20:38Z</time></trkpt><trkpt lat="40.91849916023018" lon="9.496932696215573"><ele>5.0</ele><time>2026-05-04T16:20:39Z</time></trkpt><trkpt lat="40.9185600983738" lon="9.497033649191302"><ele>4.833333333333334</ele><time>2026-05-04T16:20:40Z</time></trkpt><trkpt lat="40.91861662289552" lon="9.497144999439866"><ele>4.666666666666667</ele><time>2026-05-04T16:20:41Z</time></trkpt><trkpt lat="40.918679574524404" lon="9.497246121178112"><ele>4.5</ele><time>2026-05-04T16:20:42Z</time></trkpt><trkpt lat="40.91873767965313" lon="9.497339498068218"><ele>4.333333333333333</ele><time>2026-05-04T16:20:43Z</time></trkpt><trkpt lat="40.91878556874296" lon="9.49742618774082"><ele>4.166666666666666</ele><time>2026-05-04T16:20:44Z</time></trkpt><trkpt lat="40.91882732560494" lon="9.497494754194781"><ele>4.0</ele><time>2026-05-04T16:20:45Z</time></trkpt><trkpt lat="40.9189003584732" lon="9.497617411362192"><ele>4.0</ele><time>2026-05-04T16:20:47Z</time></trkpt><trkpt lat="40.91897184142266" lon="9.497748988725052"><ele>4.0</ele><time>2026-05-04T16:20:49Z</time></trkpt><trkpt lat="40.91904225551775" lon="9.497863637630358"><ele>4.0</ele><time>2026-05-04T16:20:51Z</time></trkpt><trkpt lat="40.91911192502183" lon="9.497980118949416"><ele>4.0</ele><time>2026-05-04T16:20:53Z</time></trkpt><trkpt lat="40.91918063508824" lon="9.498103195513487"><ele>3.8000000000000003</ele><time>2026-05-04T16:20:55Z</time></trkpt><trkpt lat="40.91922051513908" lon="9.498183013775048"><ele>3.6000000000000005</ele><time>2026-05-04T16:20:56Z</time></trkpt><trkpt lat="40.91926078435561" lon="9.498259304316482"><ele>3.4</ele><time>2026-05-04T16:20:57Z</time></trkpt><trkpt lat="40.919332691648314" lon="9.498382779429827"><ele>3.2</ele><time>2026-05-04T16:20:59Z</time></trkpt><trkpt lat="40.91940389981627" lon="9.498509365378592"><ele>3.0</ele><time>2026-05-04T16:21:01Z</time></trkpt><trkpt lat="40.91944852253424" lon="9.498636975986003"><ele>3.8</ele><time>2026-05-04T16:21:03Z</time></trkpt><trkpt lat="40.91947269773374" lon="9.498751362023253"><ele>4.6</ele><time>2026-05-04T16:21:05Z</time></trkpt><trkpt lat="40.91948560206173" lon="9.498849794422764"><ele>5.3999999999999995</ele><time>2026-05-04T16:21:07Z</time></trkpt><trkpt lat="40.919503757449604" lon="9.498950052271823"><ele>6.199999999999999</ele><time>2026-05-04T16:21:09Z</time></trkpt><trkpt lat="40.91952401950124" lon="9.499090280041772"><ele>7.0</ele><time>2026-05-04T16:21:11Z</time></trkpt><trkpt lat="40.919553483943794" lon="9.49923826775419"><ele>7.000000000000001</ele><time>2026-05-04T16:21:13Z</time></trkpt><trkpt lat="40.91958055931109" lon="9.499405466067715"><ele>7.0</ele><time>2026-05-04T16:21:15Z</time></trkpt><trkpt lat="40.91963481775898" lon="9.499470463259097"><ele>7.0</ele><time>2026-05-04T16:21:16Z</time></trkpt><trkpt lat="40.91967185632446" lon="9.499548714247307"><ele>7.0</ele><time>2026-05-04T16:21:17Z</time></trkpt><trkpt lat="40.91972866602603" lon="9.499601717557962"><ele>7.000000000000001</ele><time>2026-05-04T16:21:18Z</time></trkpt><trkpt lat="40.91979834058112" lon="9.499640293707976"><ele>7.0</ele><time>2026-05-04T16:21:19Z</time></trkpt><trkpt lat="40.919910586253195" lon="9.499677653248181"><ele>6.833333333333334</ele><time>2026-05-04T16:21:21Z</time></trkpt><trkpt lat="40.91999919390541" lon="9.49968695546645"><ele>6.666666666666667</ele><time>2026-05-04T16:21:23Z</time></trkpt><trkpt lat="40.92006455342314" lon="9.499706148511832"><ele>6.5</ele><time>2026-05-04T16:21:25Z</time></trkpt><trkpt lat="40.920142468152775" lon="9.499737146882255"><ele>6.333333333333334</ele><time>2026-05-04T16:21:27Z</time></trkpt><trkpt lat="40.92020387848146" lon="9.49978664497411"><ele>6.166666666666667</ele><time>2026-05-04T16:21:29Z</time></trkpt><trkpt lat="40.920286142273675" lon="9.499833344072464"><ele>6.0</ele><time>2026-05-04T16:21:31Z</time></trkpt><trkpt lat="40.92028319806608" lon="9.500005866390289"><ele>6.0</ele><time>2026-05-04T16:21:32Z</time></trkpt><trkpt lat="40.920282862363585" lon="9.500121918061994"><ele>6.0</ele><time>2026-05-04T16:21:33Z</time></trkpt><trkpt lat="40.92026883664499" lon="9.500242462580411"><ele>6.0</ele><time>2026-05-04T16:21:34Z</time></trkpt><trkpt lat="40.92024607170004" lon="9.500343469596865"><ele>6.0</ele><time>2026-05-04T16:21:35Z</time></trkpt><trkpt lat="40.920218532925595" lon="9.50045294966284"><ele>6.0</ele><time>2026-05-04T16:21:36Z</time></trkpt><trkpt lat="40.92019026457427" lon="9.500570897011027"><ele>6.0</ele><time>2026-05-04T16:21:37Z</time></trkpt><trkpt lat="40.9201616678098" lon="9.50068446990718"><ele>5.833333333333333</ele><time>2026-05-04T16:21:38Z</time></trkpt><trkpt lat="40.92013889114632" lon="9.500796975153136"><ele>5.666666666666667</ele><time>2026-05-04T16:21:39Z</time></trkpt><trkpt lat="40.92011605261572" lon="9.500900193532845"><ele>5.5</ele><time>2026-05-04T16:21:40Z</time></trkpt><trkpt lat="40.920095505861525" lon="9.500991224477009"><ele>5.333333333333334</ele><time>2026-05-04T16:21:41Z</time></trkpt><trkpt lat="40.920093505405944" lon="9.501085116985088"><ele>5.166666666666667</ele><time>2026-05-04T16:21:42Z</time></trkpt><trkpt lat="40.92007772702261" lon="9.501192243423072"><ele>5.0</ele><time>2026-05-04T16:21:43Z</time></trkpt><trkpt lat="40.920062706723044" lon="9.501282324195119"><ele>4.833333333333334</ele><time>2026-05-04T16:21:44Z</time></trkpt><trkpt lat="40.92003470560116" lon="9.501358753800684"><ele>4.666666666666667</ele><time>2026-05-04T16:21:45Z</time></trkpt><trkpt lat="40.92001979039857" lon="9.50149618406924"><ele>4.5</ele><time>2026-05-04T16:21:47Z</time></trkpt><trkpt lat="40.920059825754535" lon="9.501561626968606"><ele>4.333333333333333</ele><time>2026-05-04T16:21:48Z</time></trkpt><trkpt lat="40.92012916560111" lon="9.501643534827044"><ele>4.166666666666666</ele><time>2026-05-04T16:21:49Z</time></trkpt><trkpt lat="40.920208410712725" lon="9.501732949367234"><ele>4.0</ele><time>2026-05-04T16:21:50Z</time></trkpt><trkpt lat="40.920289375347465" lon="9.501811785178015"><ele>4.0</ele><time>2026-05-04T16:21:51Z</time></trkpt><trkpt lat="40.92037924216453" lon="9.50186658799427"><ele>4.0</ele><time>2026-05-04T16:21:52Z</time></trkpt><trkpt lat="40.920473225140384" lon="9.501919481590434"><ele>4.0</ele><time>2026-05-04T16:21:53Z</time></trkpt><trkpt lat="40.92055690594181" lon="9.50197817281754"><ele>4.0</ele><time>2026-05-04T16:21:54Z</time></trkpt><trkpt lat="40.920634843727555" lon="9.502028373148093"><ele>4.0</ele><time>2026-05-04T16:21:55Z</time></trkpt><trkpt lat="40.920705672848335" lon="9.50208074340433"><ele>3.6666666666666665</ele><time>2026-05-04T16:21:56Z</time></trkpt><trkpt lat="40.92077571621283" lon="9.50213514118605"><ele>3.333333333333333</ele><time>2026-05-04T16:21:57Z</time></trkpt><trkpt lat="40.9208457709932" lon="9.502196875644708"><ele>3.0</ele><time>2026-05-04T16:21:58Z</time></trkpt><trkpt lat="40.92091142217027" lon="9.502273972215438"><ele>2.6666666666666665</ele><time>2026-05-04T16:21:59Z</time></trkpt><trkpt lat="40.92097664742965" lon="9.502354986433781"><ele>2.333333333333333</ele><time>2026-05-04T16:22:00Z</time></trkpt><trkpt lat="40.92103874317825" lon="9.502435011495882"><ele>2.0</ele><time>2026-05-04T16:22:01Z</time></trkpt><trkpt lat="40.92110139902187" lon="9.502513178090222"><ele>2.0</ele><time>2026-05-04T16:22:02Z</time></trkpt><trkpt lat="40.921166475267356" lon="9.502588615174268"><ele>2.0</ele><time>2026-05-04T16:22:03Z</time></trkpt><trkpt lat="40.92122964933692" lon="9.502667467342098"><ele>2.0</ele><time>2026-05-04T16:22:04Z</time></trkpt><trkpt lat="40.921269749888104" lon="9.502746963298305"><ele>2.0</ele><time>2026-05-04T16:22:05Z</time></trkpt><trkpt lat="40.92130977874817" lon="9.502813299226197"><ele>2.0</ele><time>2026-05-04T16:22:06Z</time></trkpt><trkpt lat="40.9213864665069" lon="9.502968650923846"><ele>1.9999999999999998</ele><time>2026-05-04T16:22:08Z</time></trkpt><trkpt lat="40.92144329730505" lon="9.503070035077291"><ele>2.0</ele><time>2026-05-04T16:22:09Z</time></trkpt><trkpt lat="40.92148562019046" lon="9.50316958180736"><ele>2.0</ele><time>2026-05-04T16:22:10Z</time></trkpt><trkpt lat="40.921523443540146" lon="9.50327269340106"><ele>2.0</ele><time>2026-05-04T16:22:11Z</time></trkpt><trkpt lat="40.921562826143976" lon="9.503382247310794"><ele>1.9999999999999998</ele><time>2026-05-04T16:22:12Z</time></trkpt><trkpt lat="40.92159490065041" lon="9.503478565793456"><ele>2.0</ele><time>2026-05-04T16:22:13Z</time></trkpt><trkpt lat="40.92163572538545" lon="9.503570356282818"><ele>2.0</ele><time>2026-05-04T16:22:14Z</time></trkpt><trkpt lat="40.921664715216615" lon="9.503650175208003"><ele>2.0</ele><time>2026-05-04T16:22:15Z</time></trkpt><trkpt lat="40.92170078124356" lon="9.503774769647633"><ele>2.0</ele><time>2026-05-04T16:22:17Z</time></trkpt><trkpt lat="40.92175684076347" lon="9.503904984096275"><ele>2.0</ele><time>2026-05-04T16:22:19Z</time></trkpt><trkpt lat="40.92178574550906" lon="9.503980333109725"><ele>2.0</ele><time>2026-05-04T16:22:20Z</time></trkpt><trkpt lat="40.92183665693359" lon="9.504125988877279"><ele>1.9999999999999998</ele><time>2026-05-04T16:22:22Z</time></trkpt><trkpt lat="40.92187496426578" lon="9.504232462469721"><ele>2.0</ele><time>2026-05-04T16:22:24Z</time></trkpt><trkpt lat="40.921894633976244" lon="9.504317245792365"><ele>2.0</ele><time>2026-05-04T16:22:26Z</time></trkpt><trkpt lat="40.92196773234559" lon="9.504413283149104"><ele>2.0</ele><time>2026-05-04T16:22:28Z</time></trkpt><trkpt lat="40.92205963385393" lon="9.504426349944856"><ele>1.9999999999999998</ele><time>2026-05-04T16:22:30Z</time></trkpt><trkpt lat="40.92212816435174" lon="9.50443051454539"><ele>2.0</ele><time>2026-05-04T16:22:32Z</time></trkpt><trkpt lat="40.92217812397678" lon="9.504364789807932"><ele>2.0</ele><time>2026-05-04T16:22:39Z</time></trkpt><trkpt lat="40.922295395285765" lon="9.504471206228109"><ele>2.0</ele><time>2026-05-04T16:22:42Z</time></trkpt><trkpt lat="40.92238561000828" lon="9.504531417150918"><ele>2.0</ele><time>2026-05-04T16:22:44Z</time></trkpt><trkpt lat="40.92247078570823" lon="9.504614807480973"><ele>2.0</ele><time>2026-05-04T16:22:46Z</time></trkpt><trkpt lat="40.92254635389845" lon="9.504692511142146"><ele>2.0</ele><time>2026-05-04T16:22:48Z</time></trkpt><trkpt lat="40.92260852532257" lon="9.50473861094628"><ele>2.4000000000000004</ele><time>2026-05-04T16:22:50Z</time></trkpt><trkpt lat="40.9226784945112" lon="9.50480164316605"><ele>2.8000000000000003</ele><time>2026-05-04T16:22:53Z</time></trkpt><trkpt lat="40.92273874821208" lon="9.504884247206958"><ele>3.2</ele><time>2026-05-04T16:22:56Z</time></trkpt><trkpt lat="40.92280465673638" lon="9.504945860239765"><ele>3.6</ele><time>2026-05-04T16:22:58Z</time></trkpt><trkpt lat="40.92288434699384" lon="9.505020155816249"><ele>4.0</ele><time>2026-05-04T16:23:00Z</time></trkpt><trkpt lat="40.922979302517604" lon="9.505082860402677"><ele>4.0</ele><time>2026-05-04T16:23:02Z</time></trkpt><trkpt lat="40.9230576627148" lon="9.505154873245639"><ele>4.0</ele><time>2026-05-04T16:23:04Z</time></trkpt><trkpt lat="40.92313329514075" lon="9.50523108272673"><ele>4.0</ele><time>2026-05-04T16:23:06Z</time></trkpt><trkpt lat="40.9232098416544" lon="9.505323431050885"><ele>4.0</ele><time>2026-05-04T16:23:08Z</time></trkpt><trkpt lat="40.92328944467187" lon="9.505397844701355"><ele>4.0</ele><time>2026-05-04T16:23:10Z</time></trkpt><trkpt lat="40.92338763766956" lon="9.505473487245414"><ele>3.9999999999999996</ele><time>2026-05-04T16:23:12Z</time></trkpt><trkpt lat="40.92344540935831" lon="9.505530969765264"><ele>4.0</ele><time>2026-05-04T16:23:13Z</time></trkpt><trkpt lat="40.923507884454274" lon="9.505602484213743"><ele>4.0</ele><time>2026-05-04T16:23:14Z</time></trkpt><trkpt lat="40.923572122865394" lon="9.505662664138155"><ele>4.0</ele><time>2026-05-04T16:23:15Z</time></trkpt><trkpt lat="40.923640197445955" lon="9.505726437896609"><ele>3.9999999999999996</ele><time>2026-05-04T16:23:16Z</time></trkpt><trkpt lat="40.92370687258037" lon="9.505788900703724"><ele>4.0</ele><time>2026-05-04T16:23:17Z</time></trkpt><trkpt lat="40.923775120317906" lon="9.50585283671862"><ele>3.9999999999999996</ele><time>2026-05-04T16:23:18Z</time></trkpt><trkpt lat="40.92384917675873" lon="9.505898024359578"><ele>4.0</ele><time>2026-05-04T16:23:19Z</time></trkpt><trkpt lat="40.92391388559437" lon="9.505963149833985"><ele>4.0</ele><time>2026-05-04T16:23:20Z</time></trkpt><trkpt lat="40.92398323205135" lon="9.506027203334135"><ele>4.0</ele><time>2026-05-04T16:23:21Z</time></trkpt><trkpt lat="40.92404636074936" lon="9.506087970325414"><ele>3.9999999999999996</ele><time>2026-05-04T16:23:22Z</time></trkpt><trkpt lat="40.924107266023185" lon="9.506144092628201"><ele>4.0</ele><time>2026-05-04T16:23:23Z</time></trkpt><trkpt lat="40.92417066785677" lon="9.506212768879559"><ele>3.714285714285714</ele><time>2026-05-04T16:23:24Z</time></trkpt><trkpt lat="40.92423630442519" lon="9.506271588488769"><ele>3.428571428571428</ele><time>2026-05-04T16:23:25Z</time></trkpt><trkpt lat="40.92429746944361" lon="9.506328689758565"><ele>3.142857142857143</ele><time>2026-05-04T16:23:26Z</time></trkpt><trkpt lat="40.924349009214154" lon="9.506385839605569"><ele>2.8571428571428568</ele><time>2026-05-04T16:23:27Z</time></trkpt><trkpt lat="40.924398689256876" lon="9.506452592479313"><ele>2.571428571428571</ele><time>2026-05-04T16:23:28Z</time></trkpt><trkpt lat="40.92444010349053" lon="9.506529547006746"><ele>2.2857142857142856</ele><time>2026-05-04T16:23:29Z</time></trkpt><trkpt lat="40.92447648840607" lon="9.506599006833833"><ele>2.0</ele><time>2026-05-04T16:23:30Z</time></trkpt><trkpt lat="40.92453332297232" lon="9.506711261067947"><ele>1.9999999999999998</ele><time>2026-05-04T16:23:32Z</time></trkpt><trkpt lat="40.92457460232429" lon="9.506796518299723"><ele>2.0</ele><time>2026-05-04T16:23:34Z</time></trkpt><trkpt lat="40.92462484411101" lon="9.50691533903638"><ele>2.0</ele><time>2026-05-04T16:23:36Z</time></trkpt><trkpt lat="40.92465458109968" lon="9.506994240490405"><ele>2.0</ele><time>2026-05-04T16:23:37Z</time></trkpt><trkpt lat="40.92468784824243" lon="9.507072975979966"><ele>1.9999999999999998</ele><time>2026-05-04T16:23:38Z</time></trkpt><trkpt lat="40.92473524239296" lon="9.507147890606387"><ele>2.0</ele><time>2026-05-04T16:23:39Z</time></trkpt><trkpt lat="40.92480283253262" lon="9.507179695266755"><ele>2.0</ele><time>2026-05-04T16:23:40.001Z</time></trkpt><trkpt lat="40.92487064128385" lon="9.507157139979748"><ele>2.0</ele><time>2026-05-04T16:23:41.001Z</time></trkpt><trkpt lat="40.92493196645971" lon="9.50711079771553"><ele>2.0</ele><time>2026-05-04T16:23:42.001Z</time></trkpt><trkpt lat="40.92493064758344" lon="9.506884995366057"><ele>2.0</ele><time>2026-05-04T16:23:44Z</time></trkpt><trkpt lat="40.92488891940432" lon="9.506804962995899"><ele>2.0</ele><time>2026-05-04T16:23:45Z</time></trkpt><trkpt lat="40.92483765807755" lon="9.506751903574887"><ele>1.9999999999999998</ele><time>2026-05-04T16:23:46Z</time></trkpt><trkpt lat="40.92474232722022" lon="9.506698688908083"><ele>2.0</ele><time>2026-05-04T16:23:48Z</time></trkpt><trkpt lat="40.92468280970016" lon="9.506655984563624"><ele>2.0</ele><time>2026-05-04T16:23:50Z</time></trkpt><trkpt lat="40.924613260922364" lon="9.506599487063124"><ele>2.0</ele><time>2026-05-04T16:23:53Z</time></trkpt><trkpt lat="40.92453289602273" lon="9.50651628662012"><ele>1.9999999999999998</ele><time>2026-05-04T16:23:56Z</time></trkpt><trkpt lat="40.924470085127" lon="9.50645014499428"><ele>2.0</ele><time>2026-05-04T16:23:59Z</time></trkpt><trkpt lat="40.92441006537648" lon="9.506394379491457"><ele>1.9999999999999998</ele><time>2026-05-04T16:24:03Z</time></trkpt><trkpt lat="40.924337954340885" lon="9.506317085634851"><ele>2.0</ele><time>2026-05-04T16:24:08Z</time></trkpt><trkpt lat="40.9242735429091" lon="9.50626464194242"><ele>2.0</ele><time>2026-05-04T16:24:10Z</time></trkpt><trkpt lat="40.92421310381211" lon="9.506193998651598"><ele>2.0</ele><time>2026-05-04T16:24:12Z</time></trkpt><trkpt lat="40.924130567951735" lon="9.506126544550739"><ele>1.9999999999999998</ele><time>2026-05-04T16:24:14Z</time></trkpt><trkpt lat="40.924068222601974" lon="9.50606802982569"><ele>2.0</ele><time>2026-05-04T16:24:17Z</time></trkpt><trkpt lat="40.92400151173146" lon="9.506012740587849"><ele>2.2857142857142856</ele><time>2026-05-04T16:24:37Z</time></trkpt><trkpt lat="40.92395264996604" lon="9.505959262176948"><ele>2.571428571428571</ele><time>2026-05-04T16:24:39Z</time></trkpt><trkpt lat="40.923899778268535" lon="9.505908136637919"><ele>2.8571428571428568</ele><time>2026-05-04T16:24:41Z</time></trkpt><trkpt lat="40.923835395700394" lon="9.505846043392294"><ele>3.142857142857143</ele><time>2026-05-04T16:24:43Z</time></trkpt><trkpt lat="40.92377753852475" lon="9.505796119642847"><ele>3.428571428571428</ele><time>2026-05-04T16:24:45Z</time></trkpt><trkpt lat="40.92371951177302" lon="9.505739536608933"><ele>3.714285714285714</ele><time>2026-05-04T16:24:47Z</time></trkpt><trkpt lat="40.923666346026984" lon="9.505688669776049"><ele>4.0</ele><time>2026-05-04T16:24:49Z</time></trkpt><trkpt lat="40.92361392802" lon="9.50564238588985"><ele>3.9999999999999996</ele><time>2026-05-04T16:24:51Z</time></trkpt><trkpt lat="40.92354222475853" lon="9.505580129901613"><ele>4.0</ele><time>2026-05-04T16:24:53Z</time></trkpt><trkpt lat="40.92349408900352" lon="9.505525594216174"><ele>4.0</ele><time>2026-05-04T16:24:55Z</time></trkpt><trkpt lat="40.92343594477285" lon="9.505469589707467"><ele>4.0</ele><time>2026-05-04T16:24:57Z</time></trkpt><trkpt lat="40.923367379103254" lon="9.505403950265404"><ele>3.9999999999999996</ele><time>2026-05-04T16:24:59Z</time></trkpt><trkpt lat="40.92331502141144" lon="9.505353820619687"><ele>4.0</ele><time>2026-05-04T16:25:01Z</time></trkpt><trkpt lat="40.923218003784896" lon="9.505272241524843"><ele>3.9999999999999996</ele><time>2026-05-04T16:25:04Z</time></trkpt><trkpt lat="40.92313566320011" lon="9.505196094767117"><ele>4.0</ele><time>2026-05-04T16:25:06.001Z</time></trkpt><trkpt lat="40.92306206264041" lon="9.505123543615008"><ele>4.0</ele><time>2026-05-04T16:25:08.001Z</time></trkpt><trkpt lat="40.92298418265164" lon="9.505051084165814"><ele>4.0</ele><time>2026-05-04T16:25:10.001Z</time></trkpt><trkpt lat="40.92292499138002" lon="9.504991766255356"><ele>3.9999999999999996</ele><time>2026-05-04T16:25:12.001Z</time></trkpt><trkpt lat="40.922862549207544" lon="9.504934508232221"><ele>4.0</ele><time>2026-05-04T16:25:14.001Z</time></trkpt><trkpt lat="40.922825452303314" lon="9.504844489429267"><ele>4.0</ele><time>2026-05-04T16:25:16.001Z</time></trkpt><trkpt lat="40.9228670620316" lon="9.504668878647298"><ele>4.0</ele><time>2026-05-04T16:25:24.001Z</time></trkpt><trkpt lat="40.922856517516614" lon="9.504762524863606"><ele>4.0</ele><time>2026-05-04T16:26:56Z</time></trkpt><trkpt lat="40.922978378547114" lon="9.50489206061693"><ele>4.0</ele><time>2026-05-04T16:27:13Z</time></trkpt><trkpt lat="40.923047968530014" lon="9.5049223342207"><ele>4.0</ele><time>2026-05-04T16:27:20Z</time></trkpt><trkpt lat="40.9231031072476" lon="9.504970985198726"><ele>4.0</ele><time>2026-05-04T16:27:27Z</time></trkpt><trkpt lat="40.92316408779907" lon="9.505009788802056"><ele>3.9999999999999996</ele><time>2026-05-04T16:27:34.001Z</time></trkpt><trkpt lat="40.923225102246356" lon="9.505062218747138"><ele>4.0</ele><time>2026-05-04T16:27:42.001Z</time></trkpt><trkpt lat="40.92329471261712" lon="9.505063203915011"><ele>4.0</ele><time>2026-05-04T16:27:48.001Z</time></trkpt><trkpt lat="40.92334904611848" lon="9.505002277768998"><ele>3.9999999999999996</ele><time>2026-05-04T16:27:54.001Z</time></trkpt><trkpt lat="40.9233869333006" lon="9.504928304873049"><ele>4.0</ele><time>2026-05-04T16:28:00.001Z</time></trkpt><trkpt lat="40.923438117608306" lon="9.50486167417315"><ele>4.0</ele><time>2026-05-04T16:28:06.001Z</time></trkpt><trkpt lat="40.92344398020145" lon="9.504778067207054"><ele>4.428571428571429</ele><time>2026-05-04T16:28:13Z</time></trkpt><trkpt lat="40.923482708078204" lon="9.504692512717284"><ele>4.857142857142857</ele><time>2026-05-04T16:28:22Z</time></trkpt><trkpt lat="40.92347251848962" lon="9.504600506082157"><ele>5.285714285714286</ele><time>2026-05-04T16:28:28Z</time></trkpt><trkpt lat="40.9235286627017" lon="9.504546189634043"><ele>5.714285714285714</ele><time>2026-05-04T16:28:32Z</time></trkpt><trkpt lat="40.92356905927902" lon="9.5044717970513"><ele>6.142857142857142</ele><time>2026-05-04T16:28:38Z</time></trkpt><trkpt lat="40.923589496287576" lon="9.504386900499664"><ele>6.571428571428571</ele><time>2026-05-04T16:28:45Z</time></trkpt><trkpt lat="40.92357552746194" lon="9.504304371652509"><ele>7.0</ele><time>2026-05-04T16:28:51Z</time></trkpt><trkpt lat="40.92357859049162" lon="9.504217600956869"><ele>9.0</ele><time>2026-05-04T16:28:57Z</time></trkpt><trkpt lat="40.92354974430639" lon="9.504135534171061"><ele>9.0</ele><time>2026-05-04T16:29:03Z</time></trkpt></trkseg></trk></gpx>